<?xml version='1.0' encoding='UTF-8'?><gpx version="1.1" creator="JPX - https://github.com/jenetics/jpx" xmlns="http://www.topografix.com/GPX/1/1"><trk><trkseg><trkpt lat="43.5593042" lon="11.8788342"><ele>495.0</ele><time>2026-04-12T08:10:02.159Z</time></trkpt><trkpt lat="43.5593887" lon="11.8788345"><ele>495.0</ele><time>2026-04-12T08:14:41.104Z</time></trkpt><trkpt lat="43.5594105" lon="11.8789402"><ele>495.0</ele><time>2026-04-12T08:14:43.143Z</time></trkpt><trkpt lat="43.5593815" lon="11.8790742"><ele>495.0</ele><time>2026-04-12T08:14:45.15Z</time></trkpt><trkpt lat="43.5593003" lon="11.8791482"><ele>495.0</ele><time>2026-04-12T08:14:47.135Z</time></trkpt><trkpt lat="43.5592306" lon="11.8791754"><ele>495.0</ele><time>2026-04-12T08:14:49.15Z</time></trkpt><trkpt lat="43.5591809" lon="11.8792414"><ele>494.8333333333333</ele><time>2026-04-12T08:14:52.142Z</time></trkpt><trkpt lat="43.559212" lon="11.8793341"><ele>494.66666666666663</ele><time>2026-04-12T08:14:55.147Z</time></trkpt><trkpt lat="43.5592993" lon="11.8794318"><ele>494.5</ele><time>2026-04-12T08:14:57.135Z</time></trkpt><trkpt lat="43.5593539" lon="11.879498"><ele>494.3333333333333</ele><time>2026-04-12T08:14:58.148Z</time></trkpt><trkpt lat="43.5594196" lon="11.8795718"><ele>494.16666666666663</ele><time>2026-04-12T08:14:59.158Z</time></trkpt><trkpt lat="43.5594886" lon="11.8796367"><ele>494.0</ele><time>2026-04-12T08:15:00.147Z</time></trkpt><trkpt lat="43.5595612" lon="11.8796914"><ele>493.99999999999994</ele><time>2026-04-12T08:15:01.151Z</time></trkpt><trkpt lat="43.5596276" lon="11.8797445"><ele>494.0</ele><time>2026-04-12T08:15:02.145Z</time></trkpt><trkpt lat="43.5596989" lon="11.8798026"><ele>494.0</ele><time>2026-04-12T08:15:03.134Z</time></trkpt><trkpt lat="43.5597651" lon="11.8798576"><ele>494.0</ele><time>2026-04-12T08:15:04.127Z</time></trkpt><trkpt lat="43.5598323" lon="11.8799116"><ele>493.99999999999994</ele><time>2026-04-12T08:15:05.153Z</time></trkpt><trkpt lat="43.5599147" lon="11.8799613"><ele>494.0</ele><time>2026-04-12T08:15:06.152Z</time></trkpt><trkpt lat="43.5599908" lon="11.8800153"><ele>493.99999999999994</ele><time>2026-04-12T08:15:07.147Z</time></trkpt><trkpt lat="43.5600627" lon="11.8800677"><ele>494.0</ele><time>2026-04-12T08:15:08.143Z</time></trkpt><trkpt lat="43.5601347" lon="11.8801273"><ele>494.0</ele><time>2026-04-12T08:15:09.131Z</time></trkpt><trkpt lat="43.5602028" lon="11.8802112"><ele>494.0</ele><time>2026-04-12T08:15:10.142Z</time></trkpt><trkpt lat="43.5602704" lon="11.8802948"><ele>493.99999999999994</ele><time>2026-04-12T08:15:11.148Z</time></trkpt><trkpt lat="43.5603286" lon="11.8804018"><ele>494.0</ele><time>2026-04-12T08:15:12.133Z</time></trkpt><trkpt lat="43.5603878" lon="11.8805153"><ele>493.4</ele><time>2026-04-12T08:15:13.135Z</time></trkpt><trkpt lat="43.5604289" lon="11.8806526"><ele>492.79999999999995</ele><time>2026-04-12T08:15:14.136Z</time></trkpt><trkpt lat="43.560456" lon="11.8807994"><ele>492.20000000000005</ele><time>2026-04-12T08:15:15.146Z</time></trkpt><trkpt lat="43.5604911" lon="11.8809524"><ele>491.6</ele><time>2026-04-12T08:15:16.141Z</time></trkpt><trkpt lat="43.5605262" lon="11.8810882"><ele>491.0</ele><time>2026-04-12T08:15:17.151Z</time></trkpt><trkpt lat="43.5605587" lon="11.881216"><ele>490.49999999999994</ele><time>2026-04-12T08:15:18.143Z</time></trkpt><trkpt lat="43.5605853" lon="11.8813206"><ele>490.0</ele><time>2026-04-12T08:15:19.153Z</time></trkpt><trkpt lat="43.5606139" lon="11.8814194"><ele>489.5</ele><time>2026-04-12T08:15:20.148Z</time></trkpt><trkpt lat="43.5606468" lon="11.8815153"><ele>489.0</ele><time>2026-04-12T08:15:21.148Z</time></trkpt><trkpt lat="43.560707" lon="11.8816112"><ele>488.49999999999994</ele><time>2026-04-12T08:15:22.148Z</time></trkpt><trkpt lat="43.5608111" lon="11.8817019"><ele>488.0</ele><time>2026-04-12T08:15:23.152Z</time></trkpt><trkpt lat="43.5609315" lon="11.8818081"><ele>486.0</ele><time>2026-04-12T08:15:24.15Z</time></trkpt><trkpt lat="43.561058" lon="11.8819281"><ele>484.0</ele><time>2026-04-12T08:15:25.132Z</time></trkpt><trkpt lat="43.5611977" lon="11.8820533"><ele>482.0</ele><time>2026-04-12T08:15:26.125Z</time></trkpt><trkpt lat="43.5613345" lon="11.8821695"><ele>482.0</ele><time>2026-04-12T08:15:27.128Z</time></trkpt><trkpt lat="43.5614554" lon="11.8822644"><ele>482.0</ele><time>2026-04-12T08:15:28.141Z</time></trkpt><trkpt lat="43.5615852" lon="11.8823468"><ele>482.0</ele><time>2026-04-12T08:15:29.126Z</time></trkpt><trkpt lat="43.5617295" lon="11.8824064"><ele>482.0</ele><time>2026-04-12T08:15:30.144Z</time></trkpt><trkpt lat="43.5618935" lon="11.8824605"><ele>481.0</ele><time>2026-04-12T08:15:31.162Z</time></trkpt><trkpt lat="43.5620561" lon="11.8825193"><ele>480.0</ele><time>2026-04-12T08:15:32.145Z</time></trkpt><trkpt lat="43.5622243" lon="11.8826171"><ele>479.0</ele><time>2026-04-12T08:15:33.164Z</time></trkpt><trkpt lat="43.5623961" lon="11.8827254"><ele>481.0</ele><time>2026-04-12T08:15:34.159Z</time></trkpt><trkpt lat="43.5625857" lon="11.8828448"><ele>483.0</ele><time>2026-04-12T08:15:35.146Z</time></trkpt><trkpt lat="43.5627615" lon="11.8829527"><ele>485.0</ele><time>2026-04-12T08:15:36.155Z</time></trkpt><trkpt lat="43.562904" lon="11.8830443"><ele>485.5</ele><time>2026-04-12T08:15:37.132Z</time></trkpt><trkpt lat="43.5630377" lon="11.8831245"><ele>486.0</ele><time>2026-04-12T08:15:38.146Z</time></trkpt><trkpt lat="43.5631338" lon="11.8832149"><ele>486.5</ele><time>2026-04-12T08:15:39.145Z</time></trkpt><trkpt lat="43.5632392" lon="11.8832928"><ele>487.0</ele><time>2026-04-12T08:15:40.143Z</time></trkpt><trkpt lat="43.5633538" lon="11.8833184"><ele>487.0</ele><time>2026-04-12T08:15:41.135Z</time></trkpt><trkpt lat="43.5634927" lon="11.8833449"><ele>487.0</ele><time>2026-04-12T08:15:42.147Z</time></trkpt><trkpt lat="43.5636423" lon="11.8833604"><ele>487.0</ele><time>2026-04-12T08:15:43.122Z</time></trkpt><trkpt lat="43.5637933" lon="11.8833829"><ele>487.0</ele><time>2026-04-12T08:15:44.133Z</time></trkpt><trkpt lat="43.5639179" lon="11.8834349"><ele>486.8</ele><time>2026-04-12T08:15:45.131Z</time></trkpt><trkpt lat="43.5640349" lon="11.8835097"><ele>486.6</ele><time>2026-04-12T08:15:46.152Z</time></trkpt><trkpt lat="43.5641277" lon="11.8835713"><ele>486.40000000000003</ele><time>2026-04-12T08:15:47.13Z</time></trkpt><trkpt lat="43.5642126" lon="11.8836226"><ele>486.20000000000005</ele><time>2026-04-12T08:15:48.146Z</time></trkpt><trkpt lat="43.5642973" lon="11.8836808"><ele>486.0</ele><time>2026-04-12T08:15:50.154Z</time></trkpt><trkpt lat="43.5643545" lon="11.8837613"><ele>486.0</ele><time>2026-04-12T08:15:52.144Z</time></trkpt><trkpt lat="43.5644324" lon="11.8838647"><ele>486.0</ele><time>2026-04-12T08:15:54.141Z</time></trkpt><trkpt lat="43.5644865" lon="11.8839339"><ele>486.0</ele><time>2026-04-12T08:15:55.129Z</time></trkpt><trkpt lat="43.5645463" lon="11.8840054"><ele>486.0</ele><time>2026-04-12T08:15:56.15Z</time></trkpt><trkpt lat="43.5646096" lon="11.884077"><ele>486.0</ele><time>2026-04-12T08:15:57.159Z</time></trkpt><trkpt lat="43.5646799" lon="11.8841409"><ele>486.0</ele><time>2026-04-12T08:15:58.131Z</time></trkpt><trkpt lat="43.5647471" lon="11.884195"><ele>486.5</ele><time>2026-04-12T08:15:59.144Z</time></trkpt><trkpt lat="43.5648018" lon="11.8842531"><ele>487.0</ele><time>2026-04-12T08:16:00.152Z</time></trkpt><trkpt lat="43.5648519" lon="11.8843266"><ele>487.5</ele><time>2026-04-12T08:16:01.148Z</time></trkpt><trkpt lat="43.5649002" lon="11.8844161"><ele>488.0</ele><time>2026-04-12T08:16:02.151Z</time></trkpt><trkpt lat="43.5649429" lon="11.8845101"><ele>488.5</ele><time>2026-04-12T08:16:03.154Z</time></trkpt><trkpt lat="43.564993" lon="11.8846067"><ele>489.0</ele><time>2026-04-12T08:16:04.133Z</time></trkpt><trkpt lat="43.5650496" lon="11.8847075"><ele>490.6</ele><time>2026-04-12T08:16:05.151Z</time></trkpt><trkpt lat="43.5651049" lon="11.8848089"><ele>492.2</ele><time>2026-04-12T08:16:06.152Z</time></trkpt><trkpt lat="43.5651651" lon="11.8849157"><ele>493.80000000000007</ele><time>2026-04-12T08:16:07.126Z</time></trkpt><trkpt lat="43.5652268" lon="11.8850216"><ele>495.40000000000003</ele><time>2026-04-12T08:16:08.143Z</time></trkpt><trkpt lat="43.5652882" lon="11.8851277"><ele>497.0</ele><time>2026-04-12T08:16:09.149Z</time></trkpt><trkpt lat="43.5653448" lon="11.8852317"><ele>499.99999999999994</ele><time>2026-04-12T08:16:10.143Z</time></trkpt><trkpt lat="43.5653953" lon="11.8853425"><ele>503.0</ele><time>2026-04-12T08:16:11.161Z</time></trkpt><trkpt lat="43.565466" lon="11.8854285"><ele>506.0</ele><time>2026-04-12T08:16:12.15Z</time></trkpt><trkpt lat="43.5655444" lon="11.8855041"><ele>509.0</ele><time>2026-04-12T08:16:13.149Z</time></trkpt><trkpt lat="43.5656278" lon="11.885559"><ele>511.99999999999994</ele><time>2026-04-12T08:16:14.141Z</time></trkpt><trkpt lat="43.565687" lon="11.8856127"><ele>515.0</ele><time>2026-04-12T08:16:15.141Z</time></trkpt><trkpt lat="43.5657553" lon="11.8856634"><ele>515.0</ele><time>2026-04-12T08:16:16.14Z</time></trkpt><trkpt lat="43.5658259" lon="11.8857155"><ele>515.0</ele><time>2026-04-12T08:16:17.131Z</time></trkpt><trkpt lat="43.5658858" lon="11.8857803"><ele>515.0</ele><time>2026-04-12T08:16:18.151Z</time></trkpt><trkpt lat="43.5659384" lon="11.8858385"><ele>515.0</ele><time>2026-04-12T08:16:19.155Z</time></trkpt><trkpt lat="43.5659791" lon="11.8859188"><ele>515.0</ele><time>2026-04-12T08:16:20.135Z</time></trkpt><trkpt lat="43.5660018" lon="11.8860095"><ele>515.0</ele><time>2026-04-12T08:16:21.147Z</time></trkpt><trkpt lat="43.5660161" lon="11.8861144"><ele>515.0</ele><time>2026-04-12T08:16:22.155Z</time></trkpt><trkpt lat="43.5660165" lon="11.886219"><ele>515.3333333333333</ele><time>2026-04-12T08:16:23.165Z</time></trkpt><trkpt lat="43.5660142" lon="11.8863326"><ele>515.6666666666666</ele><time>2026-04-12T08:16:24.144Z</time></trkpt><trkpt lat="43.5660078" lon="11.8864512"><ele>516.0</ele><time>2026-04-12T08:16:25.153Z</time></trkpt><trkpt lat="43.5660035" lon="11.8865761"><ele>516.3333333333334</ele><time>2026-04-12T08:16:26.133Z</time></trkpt><trkpt lat="43.5659985" lon="11.8866998"><ele>516.6666666666667</ele><time>2026-04-12T08:16:27.137Z</time></trkpt><trkpt lat="43.5659928" lon="11.8868232"><ele>517.0</ele><time>2026-04-12T08:16:28.16Z</time></trkpt><trkpt lat="43.5659916" lon="11.8869459"><ele>517.0</ele><time>2026-04-12T08:16:29.144Z</time></trkpt><trkpt lat="43.5659954" lon="11.8870658"><ele>517.0</ele><time>2026-04-12T08:16:30.15Z</time></trkpt><trkpt lat="43.5660102" lon="11.8871858"><ele>517.0</ele><time>2026-04-12T08:16:31.155Z</time></trkpt><trkpt lat="43.5660253" lon="11.8873074"><ele>517.0</ele><time>2026-04-12T08:16:32.134Z</time></trkpt><trkpt lat="43.5660527" lon="11.8874249"><ele>517.0</ele><time>2026-04-12T08:16:33.138Z</time></trkpt><trkpt lat="43.5660908" lon="11.8875381"><ele>517.0</ele><time>2026-04-12T08:16:34.14Z</time></trkpt><trkpt lat="43.5661208" lon="11.887632"><ele>516.2</ele><time>2026-04-12T08:16:35.159Z</time></trkpt><trkpt lat="43.5661317" lon="11.8877429"><ele>515.4000000000001</ele><time>2026-04-12T08:16:36.146Z</time></trkpt><trkpt lat="43.5661586" lon="11.887908"><ele>514.5999999999999</ele><time>2026-04-12T08:16:44.131Z</time></trkpt><trkpt lat="43.5661986" lon="11.8880321"><ele>513.8</ele><time>2026-04-12T08:16:46.146Z</time></trkpt><trkpt lat="43.5662645" lon="11.8881514"><ele>513.0</ele><time>2026-04-12T08:16:48.157Z</time></trkpt><trkpt lat="43.566299" lon="11.888226"><ele>512.8333333333334</ele><time>2026-04-12T08:16:49.144Z</time></trkpt><trkpt lat="43.5663067" lon="11.8883128"><ele>512.6666666666666</ele><time>2026-04-12T08:16:50.141Z</time></trkpt><trkpt lat="43.5663663" lon="11.8884627"><ele>512.5</ele><time>2026-04-12T08:16:52.148Z</time></trkpt><trkpt lat="43.56643" lon="11.8885284"><ele>512.3333333333333</ele><time>2026-04-12T08:16:53.134Z</time></trkpt><trkpt lat="43.5664992" lon="11.8885831"><ele>512.1666666666666</ele><time>2026-04-12T08:16:54.15Z</time></trkpt><trkpt lat="43.566565" lon="11.8886403"><ele>512.0</ele><time>2026-04-12T08:16:55.147Z</time></trkpt><trkpt lat="43.5666282" lon="11.8886921"><ele>512.6666666666666</ele><time>2026-04-12T08:16:56.135Z</time></trkpt><trkpt lat="43.5666841" lon="11.8887537"><ele>513.3333333333333</ele><time>2026-04-12T08:16:57.132Z</time></trkpt><trkpt lat="43.5667338" lon="11.8888233"><ele>514.0</ele><time>2026-04-12T08:16:58.153Z</time></trkpt><trkpt lat="43.5667848" lon="11.8888966"><ele>514.6666666666666</ele><time>2026-04-12T08:16:59.158Z</time></trkpt><trkpt lat="43.5668357" lon="11.8889679"><ele>515.3333333333334</ele><time>2026-04-12T08:17:00.149Z</time></trkpt><trkpt lat="43.5668809" lon="11.8890327"><ele>516.0</ele><time>2026-04-12T08:17:01.141Z</time></trkpt><trkpt lat="43.5669703" lon="11.8891617"><ele>515.9999999999999</ele><time>2026-04-12T08:17:03.166Z</time></trkpt><trkpt lat="43.5670181" lon="11.8892229"><ele>516.0</ele><time>2026-04-12T08:17:04.149Z</time></trkpt><trkpt lat="43.5670707" lon="11.8892912"><ele>516.0</ele><time>2026-04-12T08:17:05.15Z</time></trkpt><trkpt lat="43.5671159" lon="11.8893643"><ele>516.0</ele><time>2026-04-12T08:17:06.138Z</time></trkpt><trkpt lat="43.5671646" lon="11.8894287"><ele>516.0</ele><time>2026-04-12T08:17:07.145Z</time></trkpt><trkpt lat="43.5672139" lon="11.8894939"><ele>515.9999999999999</ele><time>2026-04-12T08:17:08.153Z</time></trkpt><trkpt lat="43.567257" lon="11.8895743"><ele>516.0</ele><time>2026-04-12T08:17:09.13Z</time></trkpt><trkpt lat="43.5673045" lon="11.8896541"><ele>517.5714285714286</ele><time>2026-04-12T08:17:10.157Z</time></trkpt><trkpt lat="43.5673471" lon="11.8897274"><ele>519.1428571428571</ele><time>2026-04-12T08:17:11.134Z</time></trkpt><trkpt lat="43.5673934" lon="11.8898182"><ele>520.7142857142858</ele><time>2026-04-12T08:17:12.149Z</time></trkpt><trkpt lat="43.5674377" lon="11.8899002"><ele>522.2857142857142</ele><time>2026-04-12T08:17:13.141Z</time></trkpt><trkpt lat="43.5674657" lon="11.8899788"><ele>523.8571428571429</ele><time>2026-04-12T08:17:14.154Z</time></trkpt><trkpt lat="43.5674877" lon="11.8900705"><ele>525.4285714285714</ele><time>2026-04-12T08:17:15.15Z</time></trkpt><trkpt lat="43.5675332" lon="11.8901383"><ele>527.0</ele><time>2026-04-12T08:17:16.149Z</time></trkpt><trkpt lat="43.5675724" lon="11.8902128"><ele>528.75</ele><time>2026-04-12T08:17:18.146Z</time></trkpt><trkpt lat="43.5676739" lon="11.8903524"><ele>530.5</ele><time>2026-04-12T08:17:20.153Z</time></trkpt><trkpt lat="43.5677569" lon="11.8904857"><ele>532.25</ele><time>2026-04-12T08:17:22.154Z</time></trkpt><trkpt lat="43.5678072" lon="11.8906157"><ele>534.0</ele><time>2026-04-12T08:17:24.15Z</time></trkpt><trkpt lat="43.5678715" lon="11.8907008"><ele>534.4285714285714</ele><time>2026-04-12T08:17:25.157Z</time></trkpt><trkpt lat="43.5679443" lon="11.8907857"><ele>534.8571428571429</ele><time>2026-04-12T08:17:26.155Z</time></trkpt><trkpt lat="43.5679949" lon="11.8908667"><ele>535.2857142857142</ele><time>2026-04-12T08:17:27.128Z</time></trkpt><trkpt lat="43.5680301" lon="11.8909395"><ele>535.7142857142858</ele><time>2026-04-12T08:17:28.151Z</time></trkpt><trkpt lat="43.5680813" lon="11.8910024"><ele>536.1428571428571</ele><time>2026-04-12T08:17:29.149Z</time></trkpt><trkpt lat="43.5681173" lon="11.8910835"><ele>536.5714285714286</ele><time>2026-04-12T08:17:30.144Z</time></trkpt><trkpt lat="43.5681276" lon="11.8911723"><ele>537.0</ele><time>2026-04-12T08:17:31.142Z</time></trkpt><trkpt lat="43.5681394" lon="11.8912706"><ele>539.0</ele><time>2026-04-12T08:17:32.142Z</time></trkpt><trkpt lat="43.5681205" lon="11.8914146"><ele>541.0</ele><time>2026-04-12T08:17:34.114Z</time></trkpt><trkpt lat="43.5681141" lon="11.8915715"><ele>543.0</ele><time>2026-04-12T08:17:36.151Z</time></trkpt><trkpt lat="43.5680995" lon="11.8916912"><ele>545.0</ele><time>2026-04-12T08:17:38.122Z</time></trkpt><trkpt lat="43.5681021" lon="11.8917981"><ele>547.0</ele><time>2026-04-12T08:17:40.149Z</time></trkpt><trkpt lat="43.5680995" lon="11.8919484"><ele>549.0</ele><time>2026-04-12T08:17:42.148Z</time></trkpt><trkpt lat="43.5680678" lon="11.8921004"><ele>551.0</ele><time>2026-04-12T08:17:44.129Z</time></trkpt><trkpt lat="43.5680759" lon="11.8921997"><ele>553.0</ele><time>2026-04-12T08:17:45.143Z</time></trkpt><trkpt lat="43.5680831" lon="11.8923086"><ele>555.0</ele><time>2026-04-12T08:17:46.148Z</time></trkpt><trkpt lat="43.5680842" lon="11.892416"><ele>557.0</ele><time>2026-04-12T08:17:47.141Z</time></trkpt><trkpt lat="43.568087" lon="11.8925194"><ele>559.0</ele><time>2026-04-12T08:17:48.15Z</time></trkpt><trkpt lat="43.5680904" lon="11.8926141"><ele>560.4285714285714</ele><time>2026-04-12T08:17:49.145Z</time></trkpt><trkpt lat="43.5680951" lon="11.8927111"><ele>561.8571428571429</ele><time>2026-04-12T08:17:50.153Z</time></trkpt><trkpt lat="43.5681022" lon="11.892825"><ele>563.2857142857143</ele><time>2026-04-12T08:17:51.154Z</time></trkpt><trkpt lat="43.5681139" lon="11.892913"><ele>564.7142857142858</ele><time>2026-04-12T08:17:52.149Z</time></trkpt><trkpt lat="43.5681379" lon="11.8929956"><ele>566.1428571428571</ele><time>2026-04-12T08:17:53.159Z</time></trkpt><trkpt lat="43.5681646" lon="11.8930911"><ele>567.5714285714287</ele><time>2026-04-12T08:17:54.158Z</time></trkpt><trkpt lat="43.5681907" lon="11.8931802"><ele>569.0</ele><time>2026-04-12T08:17:55.153Z</time></trkpt><trkpt lat="43.5681849" lon="11.8932973"><ele>571.0</ele><time>2026-04-12T08:17:56.145Z</time></trkpt><trkpt lat="43.568174" lon="11.8934258"><ele>573.0</ele><time>2026-04-12T08:17:57.167Z</time></trkpt><trkpt lat="43.5681513" lon="11.8935296"><ele>575.0</ele><time>2026-04-12T08:17:58.155Z</time></trkpt><trkpt lat="43.5681868" lon="11.8936401"><ele>577.0</ele><time>2026-04-12T08:18:00.151Z</time></trkpt><trkpt lat="43.5682411" lon="11.8936888"><ele>579.0</ele><time>2026-04-12T08:18:01.154Z</time></trkpt><trkpt lat="43.5683471" lon="11.8937715"><ele>581.0</ele><time>2026-04-12T08:18:03.151Z</time></trkpt><trkpt lat="43.5684178" lon="11.8938692"><ele>581.0</ele><time>2026-04-12T08:18:05.156Z</time></trkpt><trkpt lat="43.5684941" lon="11.8940104"><ele>581.0</ele><time>2026-04-12T08:18:07.149Z</time></trkpt><trkpt lat="43.5685388" lon="11.8940925"><ele>581.0</ele><time>2026-04-12T08:18:08.148Z</time></trkpt><trkpt lat="43.5685942" lon="11.8941719"><ele>581.0</ele><time>2026-04-12T08:18:09.15Z</time></trkpt><trkpt lat="43.568647" lon="11.8942453"><ele>581.0</ele><time>2026-04-12T08:18:10.15Z</time></trkpt><trkpt lat="43.5687105" lon="11.8942919"><ele>581.0</ele><time>2026-04-12T08:18:11.159Z</time></trkpt><trkpt lat="43.5687691" lon="11.8943319"><ele>583.1666666666666</ele><time>2026-04-12T08:18:12.124Z</time></trkpt><trkpt lat="43.5688277" lon="11.8943725"><ele>585.3333333333333</ele><time>2026-04-12T08:18:13.133Z</time></trkpt><trkpt lat="43.5688726" lon="11.8944349"><ele>587.5</ele><time>2026-04-12T08:18:14.142Z</time></trkpt><trkpt lat="43.5689338" lon="11.8945355"><ele>589.6666666666666</ele><time>2026-04-12T08:18:16.142Z</time></trkpt><trkpt lat="43.5689764" lon="11.894608"><ele>591.8333333333334</ele><time>2026-04-12T08:18:19.171Z</time></trkpt><trkpt lat="43.5690241" lon="11.894696"><ele>594.0</ele><time>2026-04-12T08:18:24.153Z</time></trkpt><trkpt lat="43.569098" lon="11.8947786"><ele>594.0</ele><time>2026-04-12T08:18:29.135Z</time></trkpt><trkpt lat="43.5691568" lon="11.894835"><ele>594.0</ele><time>2026-04-12T08:18:31.153Z</time></trkpt><trkpt lat="43.5692282" lon="11.8948589"><ele>594.0</ele><time>2026-04-12T08:18:38.131Z</time></trkpt><trkpt lat="43.5692975" lon="11.894896"><ele>594.0</ele><time>2026-04-12T08:18:43.136Z</time></trkpt><trkpt lat="43.5693235" lon="11.8949979"><ele>594.0</ele><time>2026-04-12T08:18:46.142Z</time></trkpt><trkpt lat="43.5693852" lon="11.8951203"><ele>594.0</ele><time>2026-04-12T08:18:49.162Z</time></trkpt><trkpt lat="43.5694422" lon="11.895226"><ele>594.8333333333334</ele><time>2026-04-12T08:18:51.129Z</time></trkpt><trkpt lat="43.5694741" lon="11.8953246"><ele>595.6666666666666</ele><time>2026-04-12T08:18:53.141Z</time></trkpt><trkpt lat="43.5695093" lon="11.8954295"><ele>596.5</ele><time>2026-04-12T08:18:56.126Z</time></trkpt><trkpt lat="43.5695458" lon="11.8955508"><ele>597.3333333333333</ele><time>2026-04-12T08:18:59.143Z</time></trkpt><trkpt lat="43.5695733" lon="11.8956626"><ele>598.1666666666666</ele><time>2026-04-12T08:19:01.135Z</time></trkpt><trkpt lat="43.5695813" lon="11.8957611"><ele>599.0</ele><time>2026-04-12T08:19:03.148Z</time></trkpt><trkpt lat="43.5695569" lon="11.8958808"><ele>601.2</ele><time>2026-04-12T08:19:06.132Z</time></trkpt><trkpt lat="43.5695412" lon="11.8960023"><ele>603.4</ele><time>2026-04-12T08:19:08.118Z</time></trkpt><trkpt lat="43.569542" lon="11.8961327"><ele>605.6</ele><time>2026-04-12T08:19:10.148Z</time></trkpt><trkpt lat="43.5695528" lon="11.8962734"><ele>607.8</ele><time>2026-04-12T08:19:12.145Z</time></trkpt><trkpt lat="43.5695733" lon="11.8964129"><ele>610.0</ele><time>2026-04-12T08:19:14.126Z</time></trkpt><trkpt lat="43.5695858" lon="11.8965052"><ele>610.0</ele><time>2026-04-12T08:19:15.145Z</time></trkpt><trkpt lat="43.5695795" lon="11.8966375"><ele>610.0</ele><time>2026-04-12T08:19:17.135Z</time></trkpt><trkpt lat="43.569547" lon="11.8967465"><ele>610.0</ele><time>2026-04-12T08:19:19.146Z</time></trkpt><trkpt lat="43.5695913" lon="11.8968255"><ele>610.0</ele><time>2026-04-12T08:19:21.142Z</time></trkpt><trkpt lat="43.5697052" lon="11.8969049"><ele>610.0</ele><time>2026-04-12T08:19:23.162Z</time></trkpt><trkpt lat="43.569772" lon="11.8969885"><ele>610.8</ele><time>2026-04-12T08:19:24.142Z</time></trkpt><trkpt lat="43.5698227" lon="11.8971042"><ele>611.6</ele><time>2026-04-12T08:19:25.16Z</time></trkpt><trkpt lat="43.5698609" lon="11.8972003"><ele>612.4</ele><time>2026-04-12T08:19:26.133Z</time></trkpt><trkpt lat="43.5699539" lon="11.8973058"><ele>613.2</ele><time>2026-04-12T08:19:28.153Z</time></trkpt><trkpt lat="43.5700247" lon="11.897433"><ele>614.0</ele><time>2026-04-12T08:19:30.131Z</time></trkpt><trkpt lat="43.5701279" lon="11.8975218"><ele>614.0</ele><time>2026-04-12T08:19:32.146Z</time></trkpt><trkpt lat="43.5701857" lon="11.8975608"><ele>614.0</ele><time>2026-04-12T08:19:33.161Z</time></trkpt><trkpt lat="43.5702196" lon="11.8976378"><ele>614.0</ele><time>2026-04-12T08:19:34.163Z</time></trkpt><trkpt lat="43.5702453" lon="11.8977192"><ele>614.0</ele><time>2026-04-12T08:19:35.153Z</time></trkpt><trkpt lat="43.5702597" lon="11.8978098"><ele>614.0</ele><time>2026-04-12T08:19:36.126Z</time></trkpt><trkpt lat="43.5703485" lon="11.8979392"><ele>614.0</ele><time>2026-04-12T08:19:38.145Z</time></trkpt><trkpt lat="43.5704114" lon="11.8979616"><ele>612.8333333333333</ele><time>2026-04-12T08:19:39.161Z</time></trkpt><trkpt lat="43.570477" lon="11.8979886"><ele>611.6666666666666</ele><time>2026-04-12T08:19:40.123Z</time></trkpt><trkpt lat="43.5705745" lon="11.8980355"><ele>610.5</ele><time>2026-04-12T08:19:42.143Z</time></trkpt><trkpt lat="43.5706529" lon="11.8980958"><ele>609.3333333333334</ele><time>2026-04-12T08:19:44.136Z</time></trkpt><trkpt lat="43.5707194" lon="11.8981412"><ele>608.1666666666667</ele><time>2026-04-12T08:19:45.121Z</time></trkpt><trkpt lat="43.5707852" lon="11.8981884"><ele>607.0</ele><time>2026-04-12T08:19:46.14Z</time></trkpt><trkpt lat="43.570843" lon="11.8982311"><ele>607.0</ele><time>2026-04-12T08:19:47.143Z</time></trkpt><trkpt lat="43.5709428" lon="11.8983366"><ele>607.0</ele><time>2026-04-12T08:19:49.145Z</time></trkpt><trkpt lat="43.5710143" lon="11.8983811"><ele>607.0</ele><time>2026-04-12T08:19:50.143Z</time></trkpt><trkpt lat="43.5710934" lon="11.8984116"><ele>607.0</ele><time>2026-04-12T08:19:51.133Z</time></trkpt><trkpt lat="43.5711615" lon="11.8984333"><ele>607.0</ele><time>2026-04-12T08:19:52.141Z</time></trkpt><trkpt lat="43.5712256" lon="11.898479"><ele>607.0</ele><time>2026-04-12T08:19:53.148Z</time></trkpt><trkpt lat="43.5712876" lon="11.8985345"><ele>609.6</ele><time>2026-04-12T08:19:54.146Z</time></trkpt><trkpt lat="43.5713523" lon="11.8985853"><ele>612.2</ele><time>2026-04-12T08:19:55.135Z</time></trkpt><trkpt lat="43.5714193" lon="11.8986256"><ele>614.8</ele><time>2026-04-12T08:19:56.131Z</time></trkpt><trkpt lat="43.5715255" lon="11.8986525"><ele>617.4</ele><time>2026-04-12T08:19:58.136Z</time></trkpt><trkpt lat="43.5716547" lon="11.8986444"><ele>620.0</ele><time>2026-04-12T08:20:00.134Z</time></trkpt><trkpt lat="43.5717296" lon="11.898645"><ele>620.0</ele><time>2026-04-12T08:20:01.149Z</time></trkpt><trkpt lat="43.5718053" lon="11.8986629"><ele>620.0</ele><time>2026-04-12T08:20:02.128Z</time></trkpt><trkpt lat="43.5718744" lon="11.8986792"><ele>620.0</ele><time>2026-04-12T08:20:03.117Z</time></trkpt><trkpt lat="43.5719405" lon="11.8987146"><ele>620.0</ele><time>2026-04-12T08:20:04.15Z</time></trkpt><trkpt lat="43.5719994" lon="11.8987633"><ele>620.0</ele><time>2026-04-12T08:20:05.148Z</time></trkpt><trkpt lat="43.5720619" lon="11.8987942"><ele>620.0</ele><time>2026-04-12T08:20:06.141Z</time></trkpt><trkpt lat="43.5721389" lon="11.8987903"><ele>620.0</ele><time>2026-04-12T08:20:07.157Z</time></trkpt><trkpt lat="43.5722122" lon="11.8987583"><ele>618.6</ele><time>2026-04-12T08:20:08.15Z</time></trkpt><trkpt lat="43.5722893" lon="11.8987243"><ele>617.2</ele><time>2026-04-12T08:20:09.144Z</time></trkpt><trkpt lat="43.5723516" lon="11.8986936"><ele>615.8</ele><time>2026-04-12T08:20:10.155Z</time></trkpt><trkpt lat="43.5724146" lon="11.8986741"><ele>614.4</ele><time>2026-04-12T08:20:11.125Z</time></trkpt><trkpt lat="43.5725377" lon="11.8986898"><ele>613.0</ele><time>2026-04-12T08:20:13.149Z</time></trkpt><trkpt lat="43.572661" lon="11.8987435"><ele>613.0</ele><time>2026-04-12T08:20:15.147Z</time></trkpt><trkpt lat="43.5727294" lon="11.8987845"><ele>613.0</ele><time>2026-04-12T08:20:16.131Z</time></trkpt><trkpt lat="43.5727932" lon="11.898826"><ele>613.0</ele><time>2026-04-12T08:20:17.148Z</time></trkpt><trkpt lat="43.5728929" lon="11.8988705"><ele>613.0</ele><time>2026-04-12T08:20:19.143Z</time></trkpt><trkpt lat="43.5729735" lon="11.8988855"><ele>613.0</ele><time>2026-04-12T08:20:25.157Z</time></trkpt><trkpt lat="43.5730371" lon="11.8989029"><ele>613.0</ele><time>2026-04-12T08:20:27.141Z</time></trkpt><trkpt lat="43.5731347" lon="11.8989818"><ele>613.1666666666667</ele><time>2026-04-12T08:20:29.149Z</time></trkpt><trkpt lat="43.5731943" lon="11.8990391"><ele>613.3333333333334</ele><time>2026-04-12T08:20:30.146Z</time></trkpt><trkpt lat="43.5732514" lon="11.8991101"><ele>613.5</ele><time>2026-04-12T08:20:31.158Z</time></trkpt><trkpt lat="43.5733026" lon="11.8991755"><ele>613.6666666666666</ele><time>2026-04-12T08:20:32.145Z</time></trkpt><trkpt lat="43.5733693" lon="11.8993074"><ele>613.8333333333333</ele><time>2026-04-12T08:20:34.142Z</time></trkpt><trkpt lat="43.5734391" lon="11.8994124"><ele>614.0</ele><time>2026-04-12T08:20:36.149Z</time></trkpt><trkpt lat="43.5735298" lon="11.8994753"><ele>614.0</ele><time>2026-04-12T08:20:37.155Z</time></trkpt><trkpt lat="43.573612" lon="11.8995175"><ele>614.0</ele><time>2026-04-12T08:20:38.162Z</time></trkpt><trkpt lat="43.5736965" lon="11.8995234"><ele>614.0</ele><time>2026-04-12T08:20:39.142Z</time></trkpt><trkpt lat="43.5737902" lon="11.8995102"><ele>614.0</ele><time>2026-04-12T08:20:40.127Z</time></trkpt><trkpt lat="43.5738891" lon="11.8994941"><ele>614.0</ele><time>2026-04-12T08:20:41.155Z</time></trkpt><trkpt lat="43.5739825" lon="11.8994816"><ele>612.5</ele><time>2026-04-12T08:20:42.158Z</time></trkpt><trkpt lat="43.574066" lon="11.8994836"><ele>611.0</ele><time>2026-04-12T08:20:43.147Z</time></trkpt><trkpt lat="43.5741601" lon="11.899498"><ele>609.5</ele><time>2026-04-12T08:20:44.148Z</time></trkpt><trkpt lat="43.5742362" lon="11.8995157"><ele>608.0</ele><time>2026-04-12T08:20:45.128Z</time></trkpt><trkpt lat="43.5743054" lon="11.8995345"><ele>606.5</ele><time>2026-04-12T08:20:46.149Z</time></trkpt><trkpt lat="43.5743719" lon="11.8995491"><ele>605.0</ele><time>2026-04-12T08:20:47.139Z</time></trkpt><trkpt lat="43.574434" lon="11.8995334"><ele>605.4</ele><time>2026-04-12T08:20:48.129Z</time></trkpt><trkpt lat="43.5745309" lon="11.899498"><ele>605.8</ele><time>2026-04-12T08:20:50.123Z</time></trkpt><trkpt lat="43.574649" lon="11.8994491"><ele>606.2</ele><time>2026-04-12T08:20:52.146Z</time></trkpt><trkpt lat="43.5747475" lon="11.8994254"><ele>606.6</ele><time>2026-04-12T08:20:53.154Z</time></trkpt><trkpt lat="43.57485" lon="11.8993934"><ele>607.0</ele><time>2026-04-12T08:20:54.14Z</time></trkpt><trkpt lat="43.5749469" lon="11.899366"><ele>607.0</ele><time>2026-04-12T08:20:55.15Z</time></trkpt><trkpt lat="43.5750278" lon="11.899348"><ele>607.0</ele><time>2026-04-12T08:20:56.144Z</time></trkpt><trkpt lat="43.5751072" lon="11.8993455"><ele>607.0</ele><time>2026-04-12T08:20:57.139Z</time></trkpt><trkpt lat="43.5751971" lon="11.8993432"><ele>607.0</ele><time>2026-04-12T08:20:58.152Z</time></trkpt><trkpt lat="43.5752999" lon="11.8993413"><ele>607.0</ele><time>2026-04-12T08:20:59.13Z</time></trkpt><trkpt lat="43.5753976" lon="11.8993591"><ele>607.2</ele><time>2026-04-12T08:21:00.132Z</time></trkpt><trkpt lat="43.5754971" lon="11.8993901"><ele>607.4000000000001</ele><time>2026-04-12T08:21:01.135Z</time></trkpt><trkpt lat="43.5755889" lon="11.8994177"><ele>607.5999999999999</ele><time>2026-04-12T08:21:02.148Z</time></trkpt><trkpt lat="43.5756725" lon="11.899443"><ele>607.8</ele><time>2026-04-12T08:21:03.132Z</time></trkpt><trkpt lat="43.5757755" lon="11.8994647"><ele>608.0</ele><time>2026-04-12T08:21:04.157Z</time></trkpt><trkpt lat="43.575868" lon="11.8994818"><ele>608.0</ele><time>2026-04-12T08:21:05.151Z</time></trkpt><trkpt lat="43.5759499" lon="11.8994952"><ele>608.0</ele><time>2026-04-12T08:21:06.126Z</time></trkpt><trkpt lat="43.5760358" lon="11.8995102"><ele>608.0</ele><time>2026-04-12T08:21:07.121Z</time></trkpt><trkpt lat="43.5761106" lon="11.8995306"><ele>608.0</ele><time>2026-04-12T08:21:08.137Z</time></trkpt><trkpt lat="43.5761861" lon="11.8995633"><ele>608.0</ele><time>2026-04-12T08:21:09.138Z</time></trkpt><trkpt lat="43.5762778" lon="11.8996216"><ele>608.0</ele><time>2026-04-12T08:21:10.141Z</time></trkpt><trkpt lat="43.5763836" lon="11.8997074"><ele>606.8</ele><time>2026-04-12T08:21:11.111Z</time></trkpt><trkpt lat="43.5764981" lon="11.8997793"><ele>605.5999999999999</ele><time>2026-04-12T08:21:12.133Z</time></trkpt><trkpt lat="43.5765974" lon="11.899847"><ele>604.4000000000001</ele><time>2026-04-12T08:21:13.131Z</time></trkpt><trkpt lat="43.5766793" lon="11.8999148"><ele>603.2</ele><time>2026-04-12T08:21:14.145Z</time></trkpt><trkpt lat="43.5767544" lon="11.899978"><ele>602.0</ele><time>2026-04-12T08:21:15.15Z</time></trkpt><trkpt lat="43.5768211" lon="11.9000467"><ele>602.0</ele><time>2026-04-12T08:21:16.142Z</time></trkpt><trkpt lat="43.5768833" lon="11.9001092"><ele>602.0</ele><time>2026-04-12T08:21:17.151Z</time></trkpt><trkpt lat="43.576948" lon="11.9001665"><ele>602.0</ele><time>2026-04-12T08:21:18.126Z</time></trkpt><trkpt lat="43.5770218" lon="11.9002294"><ele>602.0</ele><time>2026-04-12T08:21:19.149Z</time></trkpt><trkpt lat="43.5770898" lon="11.9002948"><ele>602.0</ele><time>2026-04-12T08:21:20.158Z</time></trkpt><trkpt lat="43.5771486" lon="11.900361"><ele>602.0</ele><time>2026-04-12T08:21:21.136Z</time></trkpt><trkpt lat="43.5772022" lon="11.9004197"><ele>601.6666666666666</ele><time>2026-04-12T08:21:22.149Z</time></trkpt><trkpt lat="43.5772534" lon="11.9004705"><ele>601.3333333333333</ele><time>2026-04-12T08:21:23.148Z</time></trkpt><trkpt lat="43.5773406" lon="11.9005429"><ele>601.0</ele><time>2026-04-12T08:21:25.127Z</time></trkpt><trkpt lat="43.577398" lon="11.9005795"><ele>600.6666666666666</ele><time>2026-04-12T08:21:26.143Z</time></trkpt><trkpt lat="43.5774717" lon="11.9006244"><ele>600.3333333333334</ele><time>2026-04-12T08:21:27.146Z</time></trkpt><trkpt lat="43.5775504" lon="11.9006826"><ele>600.0</ele><time>2026-04-12T08:21:28.148Z</time></trkpt><trkpt lat="43.5776281" lon="11.9007427"><ele>600.0</ele><time>2026-04-12T08:21:29.149Z</time></trkpt><trkpt lat="43.5776888" lon="11.9008245"><ele>600.0</ele><time>2026-04-12T08:21:30.143Z</time></trkpt><trkpt lat="43.5777355" lon="11.9009478"><ele>600.0</ele><time>2026-04-12T08:21:31.144Z</time></trkpt><trkpt lat="43.5777958" lon="11.9010732"><ele>600.0</ele><time>2026-04-12T08:21:32.137Z</time></trkpt><trkpt lat="43.5778489" lon="11.9011954"><ele>600.0</ele><time>2026-04-12T08:21:33.138Z</time></trkpt><trkpt lat="43.5778916" lon="11.9013214"><ele>599.0</ele><time>2026-04-12T08:21:34.136Z</time></trkpt><trkpt lat="43.577933" lon="11.9014442"><ele>598.0</ele><time>2026-04-12T08:21:35.156Z</time></trkpt><trkpt lat="43.5779824" lon="11.9015631"><ele>597.0</ele><time>2026-04-12T08:21:36.147Z</time></trkpt><trkpt lat="43.5780381" lon="11.9016752"><ele>596.0</ele><time>2026-04-12T08:21:37.153Z</time></trkpt><trkpt lat="43.5780906" lon="11.9017843"><ele>595.0</ele><time>2026-04-12T08:21:38.138Z</time></trkpt><trkpt lat="43.5781415" lon="11.9018835"><ele>592.3333333333334</ele><time>2026-04-12T08:21:39.151Z</time></trkpt><trkpt lat="43.5782189" lon="11.9019552"><ele>589.6666666666667</ele><time>2026-04-12T08:21:40.149Z</time></trkpt><trkpt lat="43.5782956" lon="11.9020118"><ele>587.0</ele><time>2026-04-12T08:21:41.148Z</time></trkpt><trkpt lat="43.5783663" lon="11.9020674"><ele>584.3333333333334</ele><time>2026-04-12T08:21:42.148Z</time></trkpt><trkpt lat="43.5784189" lon="11.9021264"><ele>581.6666666666666</ele><time>2026-04-12T08:21:43.141Z</time></trkpt><trkpt lat="43.5784752" lon="11.9021804"><ele>579.0</ele><time>2026-04-12T08:21:44.143Z</time></trkpt><trkpt lat="43.578555" lon="11.9021974"><ele>579.0</ele><time>2026-04-12T08:21:45.143Z</time></trkpt><trkpt lat="43.5786416" lon="11.9022145"><ele>579.0</ele><time>2026-04-12T08:21:46.149Z</time></trkpt><trkpt lat="43.5787275" lon="11.9022604"><ele>579.0</ele><time>2026-04-12T08:21:47.14Z</time></trkpt><trkpt lat="43.5788156" lon="11.9023563"><ele>579.0</ele><time>2026-04-12T08:21:48.157Z</time></trkpt><trkpt lat="43.5789039" lon="11.9024681"><ele>579.0</ele><time>2026-04-12T08:21:49.129Z</time></trkpt><trkpt lat="43.5789778" lon="11.902562"><ele>578.8</ele><time>2026-04-12T08:21:50.137Z</time></trkpt><trkpt lat="43.5790315" lon="11.9026435"><ele>578.5999999999999</ele><time>2026-04-12T08:21:51.138Z</time></trkpt><trkpt lat="43.57912" lon="11.9027299"><ele>578.4</ele><time>2026-04-12T08:21:52.136Z</time></trkpt><trkpt lat="43.5792074" lon="11.9028115"><ele>578.1999999999999</ele><time>2026-04-12T08:21:53.127Z</time></trkpt><trkpt lat="43.5793115" lon="11.9028755"><ele>578.0</ele><time>2026-04-12T08:21:54.132Z</time></trkpt><trkpt lat="43.5794072" lon="11.9029255"><ele>578.0</ele><time>2026-04-12T08:21:55.135Z</time></trkpt><trkpt lat="43.5795018" lon="11.9029652"><ele>578.0</ele><time>2026-04-12T08:21:56.141Z</time></trkpt><trkpt lat="43.5795939" lon="11.9029804"><ele>578.0</ele><time>2026-04-12T08:21:57.131Z</time></trkpt><trkpt lat="43.5796912" lon="11.9029927"><ele>578.0</ele><time>2026-04-12T08:21:58.13Z</time></trkpt><trkpt lat="43.5798041" lon="11.9029838"><ele>578.0</ele><time>2026-04-12T08:21:59.131Z</time></trkpt><trkpt lat="43.5799314" lon="11.9029822"><ele>578.6</ele><time>2026-04-12T08:22:00.143Z</time></trkpt><trkpt lat="43.5800412" lon="11.9029856"><ele>579.1999999999999</ele><time>2026-04-12T08:22:01.14Z</time></trkpt><trkpt lat="43.5801393" lon="11.9030037"><ele>579.8</ele><time>2026-04-12T08:22:02.156Z</time></trkpt><trkpt lat="43.5802506" lon="11.9030088"><ele>580.4</ele><time>2026-04-12T08:22:03.147Z</time></trkpt><trkpt lat="43.5803559" lon="11.9030153"><ele>581.0</ele><time>2026-04-12T08:22:04.151Z</time></trkpt><trkpt lat="43.5804662" lon="11.9030413"><ele>581.0</ele><time>2026-04-12T08:22:05.125Z</time></trkpt><trkpt lat="43.5805728" lon="11.9030789"><ele>581.0</ele><time>2026-04-12T08:22:06.148Z</time></trkpt><trkpt lat="43.5806577" lon="11.9031281"><ele>581.0</ele><time>2026-04-12T08:22:07.14Z</time></trkpt><trkpt lat="43.5807517" lon="11.9031882"><ele>581.0</ele><time>2026-04-12T08:22:08.132Z</time></trkpt><trkpt lat="43.5808457" lon="11.9033164"><ele>581.0</ele><time>2026-04-12T08:22:09.149Z</time></trkpt><trkpt lat="43.5809414" lon="11.9034793"><ele>580.5</ele><time>2026-04-12T08:22:10.138Z</time></trkpt><trkpt lat="43.5810248" lon="11.9036314"><ele>580.0</ele><time>2026-04-12T08:22:11.147Z</time></trkpt><trkpt lat="43.5810967" lon="11.9037547"><ele>579.5</ele><time>2026-04-12T08:22:12.128Z</time></trkpt><trkpt lat="43.5811761" lon="11.9038501"><ele>579.0</ele><time>2026-04-12T08:22:13.141Z</time></trkpt><trkpt lat="43.5812848" lon="11.9039139"><ele>579.0</ele><time>2026-04-12T08:22:14.136Z</time></trkpt><trkpt lat="43.5814114" lon="11.9039528"><ele>579.0</ele><time>2026-04-12T08:22:15.144Z</time></trkpt><trkpt lat="43.5815309" lon="11.9039807"><ele>579.0</ele><time>2026-04-12T08:22:16.145Z</time></trkpt><trkpt lat="43.581635" lon="11.9040218"><ele>579.0</ele><time>2026-04-12T08:22:17.152Z</time></trkpt><trkpt lat="43.5817274" lon="11.9040897"><ele>579.0</ele><time>2026-04-12T08:22:18.143Z</time></trkpt><trkpt lat="43.5818154" lon="11.9041646"><ele>579.0</ele><time>2026-04-12T08:22:19.156Z</time></trkpt><trkpt lat="43.5819099" lon="11.9042364"><ele>579.0</ele><time>2026-04-12T08:22:20.127Z</time></trkpt><trkpt lat="43.5820273" lon="11.9042903"><ele>579.0</ele><time>2026-04-12T08:22:21.149Z</time></trkpt><trkpt lat="43.5821574" lon="11.9043032"><ele>579.75</ele><time>2026-04-12T08:22:22.137Z</time></trkpt><trkpt lat="43.5822915" lon="11.9042481"><ele>580.5</ele><time>2026-04-12T08:22:23.146Z</time></trkpt><trkpt lat="43.5824208" lon="11.9041623"><ele>581.25</ele><time>2026-04-12T08:22:24.152Z</time></trkpt><trkpt lat="43.582553" lon="11.904055"><ele>582.0</ele><time>2026-04-12T08:22:25.157Z</time></trkpt><trkpt lat="43.5826988" lon="11.9039364"><ele>584.0</ele><time>2026-04-12T08:22:26.132Z</time></trkpt><trkpt lat="43.5828515" lon="11.9038176"><ele>586.0</ele><time>2026-04-12T08:22:27.148Z</time></trkpt><trkpt lat="43.5829984" lon="11.9037118"><ele>588.0</ele><time>2026-04-12T08:22:28.147Z</time></trkpt><trkpt lat="43.5831495" lon="11.9036178"><ele>588.0</ele><time>2026-04-12T08:22:29.148Z</time></trkpt><trkpt lat="43.5833072" lon="11.9035398"><ele>588.0</ele><time>2026-04-12T08:22:30.152Z</time></trkpt><trkpt lat="43.5834635" lon="11.9034784"><ele>588.0</ele><time>2026-04-12T08:22:31.136Z</time></trkpt><trkpt lat="43.5836212" lon="11.9034236"><ele>582.6666666666666</ele><time>2026-04-12T08:22:32.137Z</time></trkpt><trkpt lat="43.583784" lon="11.9033722"><ele>577.3333333333333</ele><time>2026-04-12T08:22:33.136Z</time></trkpt><trkpt lat="43.5839547" lon="11.9033169"><ele>572.0</ele><time>2026-04-12T08:22:34.128Z</time></trkpt><trkpt lat="43.5841276" lon="11.9032515"><ele>572.0</ele><time>2026-04-12T08:22:35.137Z</time></trkpt><trkpt lat="43.5842899" lon="11.9031749"><ele>572.0</ele><time>2026-04-12T08:22:36.135Z</time></trkpt><trkpt lat="43.5844352" lon="11.9030999"><ele>572.0</ele><time>2026-04-12T08:22:37.138Z</time></trkpt><trkpt lat="43.5845592" lon="11.9030383"><ele>569.25</ele><time>2026-04-12T08:22:38.133Z</time></trkpt><trkpt lat="43.5846717" lon="11.9029983"><ele>566.5</ele><time>2026-04-12T08:22:39.139Z</time></trkpt><trkpt lat="43.5847783" lon="11.9029943"><ele>563.75</ele><time>2026-04-12T08:22:40.129Z</time></trkpt><trkpt lat="43.5848822" lon="11.9030366"><ele>561.0</ele><time>2026-04-12T08:22:41.131Z</time></trkpt><trkpt lat="43.5849963" lon="11.9031429"><ele>561.0</ele><time>2026-04-12T08:22:42.137Z</time></trkpt><trkpt lat="43.5851174" lon="11.9032588"><ele>561.0</ele><time>2026-04-12T08:22:43.13Z</time></trkpt><trkpt lat="43.5852408" lon="11.9033725"><ele>561.0</ele><time>2026-04-12T08:22:44.129Z</time></trkpt><trkpt lat="43.5853596" lon="11.9034921"><ele>561.0</ele><time>2026-04-12T08:22:45.126Z</time></trkpt><trkpt lat="43.5854689" lon="11.903602"><ele>559.6</ele><time>2026-04-12T08:22:46.124Z</time></trkpt><trkpt lat="43.5855714" lon="11.9037003"><ele>558.2</ele><time>2026-04-12T08:22:47.14Z</time></trkpt><trkpt lat="43.585651" lon="11.9037878"><ele>556.8</ele><time>2026-04-12T08:22:48.133Z</time></trkpt><trkpt lat="43.585711" lon="11.9038741"><ele>555.4</ele><time>2026-04-12T08:22:49.15Z</time></trkpt><trkpt lat="43.5857519" lon="11.9039728"><ele>554.0</ele><time>2026-04-12T08:22:50.141Z</time></trkpt><trkpt lat="43.5857643" lon="11.9040819"><ele>554.0</ele><time>2026-04-12T08:22:51.146Z</time></trkpt><trkpt lat="43.585765" lon="11.9042048"><ele>554.0</ele><time>2026-04-12T08:22:52.143Z</time></trkpt><trkpt lat="43.5857806" lon="11.9043175"><ele>554.0</ele><time>2026-04-12T08:22:53.158Z</time></trkpt><trkpt lat="43.5858213" lon="11.9044175"><ele>554.0</ele><time>2026-04-12T08:22:54.149Z</time></trkpt><trkpt lat="43.5858707" lon="11.9044928"><ele>554.0</ele><time>2026-04-12T08:22:55.147Z</time></trkpt><trkpt lat="43.5859226" lon="11.9045532"><ele>554.0</ele><time>2026-04-12T08:22:56.149Z</time></trkpt><trkpt lat="43.5860418" lon="11.9046162"><ele>554.4</ele><time>2026-04-12T08:22:58.141Z</time></trkpt><trkpt lat="43.5861342" lon="11.9046328"><ele>554.8</ele><time>2026-04-12T08:22:59.154Z</time></trkpt><trkpt lat="43.5862463" lon="11.9046512"><ele>555.2</ele><time>2026-04-12T08:23:00.134Z</time></trkpt><trkpt lat="43.5863613" lon="11.9046593"><ele>555.6</ele><time>2026-04-12T08:23:01.156Z</time></trkpt><trkpt lat="43.5864796" lon="11.9046475"><ele>556.0</ele><time>2026-04-12T08:23:02.142Z</time></trkpt><trkpt lat="43.5865948" lon="11.9046134"><ele>556.0</ele><time>2026-04-12T08:23:03.133Z</time></trkpt><trkpt lat="43.5867087" lon="11.90457"><ele>556.0</ele><time>2026-04-12T08:23:04.136Z</time></trkpt><trkpt lat="43.5868264" lon="11.9045422"><ele>556.0</ele><time>2026-04-12T08:23:05.126Z</time></trkpt><trkpt lat="43.5869408" lon="11.9045302"><ele>556.0</ele><time>2026-04-12T08:23:06.145Z</time></trkpt><trkpt lat="43.5870543" lon="11.9045338"><ele>554.8</ele><time>2026-04-12T08:23:07.129Z</time></trkpt><trkpt lat="43.5871654" lon="11.9045409"><ele>553.6</ele><time>2026-04-12T08:23:08.128Z</time></trkpt><trkpt lat="43.5872633" lon="11.9045713"><ele>552.4</ele><time>2026-04-12T08:23:09.126Z</time></trkpt><trkpt lat="43.5873445" lon="11.9046156"><ele>551.2</ele><time>2026-04-12T08:23:10.136Z</time></trkpt><trkpt lat="43.5874174" lon="11.9046964"><ele>550.0</ele><time>2026-04-12T08:23:11.137Z</time></trkpt><trkpt lat="43.5874906" lon="11.904781"><ele>550.0</ele><time>2026-04-12T08:23:12.143Z</time></trkpt><trkpt lat="43.5875726" lon="11.9048488"><ele>550.0</ele><time>2026-04-12T08:23:13.149Z</time></trkpt><trkpt lat="43.5876623" lon="11.9048874"><ele>550.0</ele><time>2026-04-12T08:23:14.123Z</time></trkpt><trkpt lat="43.5877566" lon="11.9049073"><ele>550.0</ele><time>2026-04-12T08:23:15.131Z</time></trkpt><trkpt lat="43.5878488" lon="11.9049288"><ele>550.0</ele><time>2026-04-12T08:23:16.131Z</time></trkpt><trkpt lat="43.5879434" lon="11.9049445"><ele>548.8</ele><time>2026-04-12T08:23:17.135Z</time></trkpt><trkpt lat="43.5880399" lon="11.9049607"><ele>547.6</ele><time>2026-04-12T08:23:18.125Z</time></trkpt><trkpt lat="43.588137" lon="11.9049837"><ele>546.4</ele><time>2026-04-12T08:23:19.131Z</time></trkpt><trkpt lat="43.588229" lon="11.9050154"><ele>545.2</ele><time>2026-04-12T08:23:20.135Z</time></trkpt><trkpt lat="43.588314" lon="11.9050425"><ele>544.0</ele><time>2026-04-12T08:23:21.134Z</time></trkpt><trkpt lat="43.5883918" lon="11.9050667"><ele>543.8</ele><time>2026-04-12T08:23:22.126Z</time></trkpt><trkpt lat="43.5884993" lon="11.9050944"><ele>543.5999999999999</ele><time>2026-04-12T08:23:24.137Z</time></trkpt><trkpt lat="43.5886005" lon="11.9051425"><ele>543.4</ele><time>2026-04-12T08:23:28.134Z</time></trkpt><trkpt lat="43.5886976" lon="11.9051248"><ele>543.1999999999999</ele><time>2026-04-12T08:23:30.15Z</time></trkpt><trkpt lat="43.5888147" lon="11.9050599"><ele>543.0</ele><time>2026-04-12T08:23:32.145Z</time></trkpt><trkpt lat="43.5888808" lon="11.9050161"><ele>544.5714285714286</ele><time>2026-04-12T08:23:33.122Z</time></trkpt><trkpt lat="43.5889489" lon="11.9049679"><ele>546.1428571428571</ele><time>2026-04-12T08:23:34.117Z</time></trkpt><trkpt lat="43.5890104" lon="11.9049127"><ele>547.7142857142857</ele><time>2026-04-12T08:23:35.14Z</time></trkpt><trkpt lat="43.5890715" lon="11.9048612"><ele>549.2857142857142</ele><time>2026-04-12T08:23:36.137Z</time></trkpt><trkpt lat="43.5891391" lon="11.9048396"><ele>550.8571428571428</ele><time>2026-04-12T08:23:37.121Z</time></trkpt><trkpt lat="43.5892086" lon="11.9048375"><ele>552.4285714285714</ele><time>2026-04-12T08:23:38.124Z</time></trkpt><trkpt lat="43.5892835" lon="11.9048526"><ele>554.0</ele><time>2026-04-12T08:23:39.121Z</time></trkpt><trkpt lat="43.5893546" lon="11.9048916"><ele>554.0</ele><time>2026-04-12T08:23:40.137Z</time></trkpt><trkpt lat="43.5894189" lon="11.9049515"><ele>554.0</ele><time>2026-04-12T08:23:41.149Z</time></trkpt><trkpt lat="43.5894829" lon="11.904996"><ele>554.0</ele><time>2026-04-12T08:23:42.142Z</time></trkpt><trkpt lat="43.5895674" lon="11.9050132"><ele>554.0</ele><time>2026-04-12T08:23:43.129Z</time></trkpt><trkpt lat="43.589664" lon="11.9050269"><ele>554.0</ele><time>2026-04-12T08:23:44.127Z</time></trkpt><trkpt lat="43.5897616" lon="11.9050557"><ele>554.0</ele><time>2026-04-12T08:23:45.135Z</time></trkpt><trkpt lat="43.5898618" lon="11.9050926"><ele>557.4</ele><time>2026-04-12T08:23:46.136Z</time></trkpt><trkpt lat="43.5899545" lon="11.9051323"><ele>560.8</ele><time>2026-04-12T08:23:47.136Z</time></trkpt><trkpt lat="43.5900425" lon="11.9051728"><ele>564.2</ele><time>2026-04-12T08:23:48.126Z</time></trkpt><trkpt lat="43.5901164" lon="11.9052375"><ele>567.6</ele><time>2026-04-12T08:23:49.134Z</time></trkpt><trkpt lat="43.5901951" lon="11.9053053"><ele>571.0</ele><time>2026-04-12T08:23:50.129Z</time></trkpt><trkpt lat="43.5902717" lon="11.9053766"><ele>571.0</ele><time>2026-04-12T08:23:51.14Z</time></trkpt><trkpt lat="43.5903392" lon="11.9054594"><ele>571.0</ele><time>2026-04-12T08:23:52.134Z</time></trkpt><trkpt lat="43.5904002" lon="11.9055525"><ele>571.0</ele><time>2026-04-12T08:23:53.122Z</time></trkpt><trkpt lat="43.590467" lon="11.9056443"><ele>571.0</ele><time>2026-04-12T08:23:54.136Z</time></trkpt><trkpt lat="43.5905525" lon="11.9057411"><ele>571.0</ele><time>2026-04-12T08:23:55.128Z</time></trkpt><trkpt lat="43.59062" lon="11.9058501"><ele>573.6</ele><time>2026-04-12T08:23:56.131Z</time></trkpt><trkpt lat="43.5906837" lon="11.9059486"><ele>576.2</ele><time>2026-04-12T08:23:57.14Z</time></trkpt><trkpt lat="43.5907568" lon="11.9060461"><ele>578.8</ele><time>2026-04-12T08:23:58.135Z</time></trkpt><trkpt lat="43.5908372" lon="11.9061039"><ele>581.4</ele><time>2026-04-12T08:23:59.135Z</time></trkpt><trkpt lat="43.5909343" lon="11.9061582"><ele>584.0</ele><time>2026-04-12T08:24:01.128Z</time></trkpt><trkpt lat="43.5909987" lon="11.9061783"><ele>584.0</ele><time>2026-04-12T08:24:02.127Z</time></trkpt><trkpt lat="43.5910826" lon="11.9061918"><ele>584.0</ele><time>2026-04-12T08:24:03.137Z</time></trkpt><trkpt lat="43.5911593" lon="11.9062199"><ele>584.0</ele><time>2026-04-12T08:24:04.142Z</time></trkpt><trkpt lat="43.5912335" lon="11.9062433"><ele>584.0</ele><time>2026-04-12T08:24:05.131Z</time></trkpt><trkpt lat="43.591305" lon="11.9062399"><ele>584.0</ele><time>2026-04-12T08:24:06.134Z</time></trkpt><trkpt lat="43.5913863" lon="11.9062019"><ele>584.0</ele><time>2026-04-12T08:24:07.132Z</time></trkpt><trkpt lat="43.5914483" lon="11.9061323"><ele>588.1666666666666</ele><time>2026-04-12T08:24:08.136Z</time></trkpt><trkpt lat="43.5915062" lon="11.906046"><ele>592.3333333333333</ele><time>2026-04-12T08:24:09.13Z</time></trkpt><trkpt lat="43.5915568" lon="11.905972"><ele>596.5</ele><time>2026-04-12T08:24:10.136Z</time></trkpt><trkpt lat="43.5916132" lon="11.9059265"><ele>600.6666666666666</ele><time>2026-04-12T08:24:11.132Z</time></trkpt><trkpt lat="43.5916981" lon="11.9058837"><ele>604.8333333333334</ele><time>2026-04-12T08:24:12.131Z</time></trkpt><trkpt lat="43.5917621" lon="11.9058301"><ele>609.0</ele><time>2026-04-12T08:24:13.131Z</time></trkpt><trkpt lat="43.5918348" lon="11.905821"><ele>609.0</ele><time>2026-04-12T08:24:14.136Z</time></trkpt><trkpt lat="43.5919101" lon="11.9058968"><ele>609.0</ele><time>2026-04-12T08:24:16.14Z</time></trkpt><trkpt lat="43.5919496" lon="11.9060763"><ele>609.0</ele><time>2026-04-12T08:24:18.131Z</time></trkpt><trkpt lat="43.5920378" lon="11.906214"><ele>609.0</ele><time>2026-04-12T08:24:20.139Z</time></trkpt><trkpt lat="43.5920954" lon="11.9063036"><ele>609.0</ele><time>2026-04-12T08:24:21.13Z</time></trkpt><trkpt lat="43.5921408" lon="11.9064131"><ele>613.6</ele><time>2026-04-12T08:24:22.137Z</time></trkpt><trkpt lat="43.5921739" lon="11.9065094"><ele>618.2</ele><time>2026-04-12T08:24:23.134Z</time></trkpt><trkpt lat="43.5922752" lon="11.9066325"><ele>622.8000000000001</ele><time>2026-04-12T08:24:25.152Z</time></trkpt><trkpt lat="43.5923455" lon="11.9067054"><ele>627.4</ele><time>2026-04-12T08:24:26.134Z</time></trkpt><trkpt lat="43.5924056" lon="11.9067985"><ele>632.0</ele><time>2026-04-12T08:24:27.127Z</time></trkpt><trkpt lat="43.5924502" lon="11.9068601"><ele>632.0</ele><time>2026-04-12T08:24:28.134Z</time></trkpt><trkpt lat="43.592505" lon="11.9069253"><ele>632.0</ele><time>2026-04-12T08:24:29.136Z</time></trkpt><trkpt lat="43.5925835" lon="11.9069705"><ele>632.0</ele><time>2026-04-12T08:24:30.131Z</time></trkpt><trkpt lat="43.5926606" lon="11.9070181"><ele>632.0</ele><time>2026-04-12T08:24:31.137Z</time></trkpt><trkpt lat="43.5927383" lon="11.9070432"><ele>632.0</ele><time>2026-04-12T08:24:32.132Z</time></trkpt><trkpt lat="43.5928486" lon="11.9070499"><ele>632.0</ele><time>2026-04-12T08:24:34.134Z</time></trkpt><trkpt lat="43.5929219" lon="11.9071012"><ele>637.6</ele><time>2026-04-12T08:24:35.124Z</time></trkpt><trkpt lat="43.5929844" lon="11.9071256"><ele>643.2</ele><time>2026-04-12T08:24:36.135Z</time></trkpt><trkpt lat="43.5930854" lon="11.9071156"><ele>648.8</ele><time>2026-04-12T08:24:38.126Z</time></trkpt><trkpt lat="43.5931899" lon="11.9071143"><ele>654.4</ele><time>2026-04-12T08:24:40.145Z</time></trkpt><trkpt lat="43.5932979" lon="11.9072046"><ele>660.0</ele><time>2026-04-12T08:24:42.154Z</time></trkpt><trkpt lat="43.5933568" lon="11.9072573"><ele>660.0000000000001</ele><time>2026-04-12T08:24:43.157Z</time></trkpt><trkpt lat="43.5934216" lon="11.9073018"><ele>660.0</ele><time>2026-04-12T08:24:44.138Z</time></trkpt><trkpt lat="43.5934683" lon="11.9073642"><ele>660.0</ele><time>2026-04-12T08:24:45.149Z</time></trkpt><trkpt lat="43.5935036" lon="11.9074541"><ele>660.0</ele><time>2026-04-12T08:24:46.132Z</time></trkpt><trkpt lat="43.5935496" lon="11.9075398"><ele>660.0</ele><time>2026-04-12T08:24:47.145Z</time></trkpt><trkpt lat="43.5936002" lon="11.907599"><ele>660.0000000000001</ele><time>2026-04-12T08:24:48.149Z</time></trkpt><trkpt lat="43.5936573" lon="11.9076517"><ele>660.0</ele><time>2026-04-12T08:24:49.145Z</time></trkpt><trkpt lat="43.5937252" lon="11.9076974"><ele>664.4</ele><time>2026-04-12T08:24:50.143Z</time></trkpt><trkpt lat="43.5938054" lon="11.9077557"><ele>668.8</ele><time>2026-04-12T08:24:51.15Z</time></trkpt><trkpt lat="43.5938764" lon="11.9078324"><ele>673.2</ele><time>2026-04-12T08:24:52.148Z</time></trkpt><trkpt lat="43.5939388" lon="11.9079076"><ele>677.6</ele><time>2026-04-12T08:24:53.14Z</time></trkpt><trkpt lat="43.5940336" lon="11.9080058"><ele>682.0</ele><time>2026-04-12T08:24:55.136Z</time></trkpt><trkpt lat="43.5941317" lon="11.9080876"><ele>682.0</ele><time>2026-04-12T08:24:57.158Z</time></trkpt><trkpt lat="43.5941165" lon="11.9082093"><ele>682.0</ele><time>2026-04-12T08:24:59.161Z</time></trkpt><trkpt lat="43.5940938" lon="11.9083578"><ele>682.0</ele><time>2026-04-12T08:25:01.133Z</time></trkpt><trkpt lat="43.5941193" lon="11.9085111"><ele>682.0</ele><time>2026-04-12T08:25:03.141Z</time></trkpt><trkpt lat="43.594191" lon="11.9086303"><ele>682.0</ele><time>2026-04-12T08:25:05.138Z</time></trkpt><trkpt lat="43.5942889" lon="11.9087282"><ele>683.8333333333334</ele><time>2026-04-12T08:25:07.145Z</time></trkpt><trkpt lat="43.5943658" lon="11.9087933"><ele>685.6666666666667</ele><time>2026-04-12T08:25:09.134Z</time></trkpt><trkpt lat="43.5944209" lon="11.9088686"><ele>687.5</ele><time>2026-04-12T08:25:11.141Z</time></trkpt><trkpt lat="43.5944786" lon="11.9089744"><ele>689.3333333333334</ele><time>2026-04-12T08:25:13.151Z</time></trkpt><trkpt lat="43.5945351" lon="11.9090233"><ele>691.1666666666666</ele><time>2026-04-12T08:25:14.142Z</time></trkpt><trkpt lat="43.5945969" lon="11.9090415"><ele>693.0</ele><time>2026-04-12T08:25:15.152Z</time></trkpt><trkpt lat="43.5947169" lon="11.9090527"><ele>695.1666666666666</ele><time>2026-04-12T08:25:17.129Z</time></trkpt><trkpt lat="43.5947946" lon="11.9090614"><ele>697.3333333333334</ele><time>2026-04-12T08:25:18.139Z</time></trkpt><trkpt lat="43.5948663" lon="11.9090999"><ele>699.5</ele><time>2026-04-12T08:25:19.129Z</time></trkpt><trkpt lat="43.5949328" lon="11.9092405"><ele>701.6666666666667</ele><time>2026-04-12T08:25:21.138Z</time></trkpt><trkpt lat="43.594961" lon="11.9093356"><ele>703.8333333333334</ele><time>2026-04-12T08:25:22.157Z</time></trkpt><trkpt lat="43.5950027" lon="11.9094127"><ele>706.0</ele><time>2026-04-12T08:25:23.128Z</time></trkpt><trkpt lat="43.5950923" lon="11.9095316"><ele>706.8571428571428</ele><time>2026-04-12T08:25:25.147Z</time></trkpt><trkpt lat="43.5951343" lon="11.9096136"><ele>707.7142857142858</ele><time>2026-04-12T08:25:26.121Z</time></trkpt><trkpt lat="43.5951729" lon="11.9096914"><ele>708.5714285714286</ele><time>2026-04-12T08:25:27.128Z</time></trkpt><trkpt lat="43.5952121" lon="11.9097612"><ele>709.4285714285713</ele><time>2026-04-12T08:25:28.137Z</time></trkpt><trkpt lat="43.5952554" lon="11.9098281"><ele>710.2857142857142</ele><time>2026-04-12T08:25:29.157Z</time></trkpt><trkpt lat="43.5952991" lon="11.9099009"><ele>711.1428571428571</ele><time>2026-04-12T08:25:30.142Z</time></trkpt><trkpt lat="43.5953381" lon="11.9099941"><ele>712.0</ele><time>2026-04-12T08:25:31.139Z</time></trkpt><trkpt lat="43.5953758" lon="11.9101068"><ele>714.2</ele><time>2026-04-12T08:25:32.144Z</time></trkpt><trkpt lat="43.5954293" lon="11.9102224"><ele>716.4000000000001</ele><time>2026-04-12T08:25:33.146Z</time></trkpt><trkpt lat="43.5954814" lon="11.9103147"><ele>718.5999999999999</ele><time>2026-04-12T08:25:34.141Z</time></trkpt><trkpt lat="43.5955262" lon="11.9103993"><ele>720.8</ele><time>2026-04-12T08:25:35.154Z</time></trkpt><trkpt lat="43.5956044" lon="11.9105482"><ele>723.0</ele><time>2026-04-12T08:25:37.144Z</time></trkpt><trkpt lat="43.5956273" lon="11.9106509"><ele>723.0</ele><time>2026-04-12T08:25:38.147Z</time></trkpt><trkpt lat="43.5956572" lon="11.9107727"><ele>723.0</ele><time>2026-04-12T08:25:39.135Z</time></trkpt><trkpt lat="43.5956993" lon="11.9108985"><ele>723.0</ele><time>2026-04-12T08:25:40.142Z</time></trkpt><trkpt lat="43.5957359" lon="11.9110082"><ele>723.0</ele><time>2026-04-12T08:25:41.138Z</time></trkpt><trkpt lat="43.5957676" lon="11.9110942"><ele>723.0</ele><time>2026-04-12T08:25:42.137Z</time></trkpt><trkpt lat="43.5957921" lon="11.911176"><ele>723.0</ele><time>2026-04-12T08:25:43.143Z</time></trkpt><trkpt lat="43.5958045" lon="11.9112671"><ele>724.1666666666666</ele><time>2026-04-12T08:25:44.15Z</time></trkpt><trkpt lat="43.595836" lon="11.9113632"><ele>725.3333333333334</ele><time>2026-04-12T08:25:45.14Z</time></trkpt><trkpt lat="43.595882" lon="11.9114511"><ele>726.5</ele><time>2026-04-12T08:25:46.126Z</time></trkpt><trkpt lat="43.5959288" lon="11.9115459"><ele>727.6666666666667</ele><time>2026-04-12T08:25:47.121Z</time></trkpt><trkpt lat="43.5959636" lon="11.9116192"><ele>728.8333333333334</ele><time>2026-04-12T08:25:48.114Z</time></trkpt><trkpt lat="43.5960241" lon="11.9117644"><ele>730.0</ele><time>2026-04-12T08:25:50.12Z</time></trkpt><trkpt lat="43.5960546" lon="11.9119053"><ele>729.6</ele><time>2026-04-12T08:25:52.127Z</time></trkpt><trkpt lat="43.5961095" lon="11.9120292"><ele>729.2</ele><time>2026-04-12T08:25:54.152Z</time></trkpt><trkpt lat="43.5961834" lon="11.9121537"><ele>728.8</ele><time>2026-04-12T08:25:56.14Z</time></trkpt><trkpt lat="43.5962811" lon="11.9122299"><ele>728.4</ele><time>2026-04-12T08:25:58.139Z</time></trkpt><trkpt lat="43.5963402" lon="11.9122639"><ele>728.0</ele><time>2026-04-12T08:25:59.133Z</time></trkpt><trkpt lat="43.5964009" lon="11.9123193"><ele>728.0</ele><time>2026-04-12T08:26:00.146Z</time></trkpt><trkpt lat="43.5964508" lon="11.9124658"><ele>728.0</ele><time>2026-04-12T08:26:02.14Z</time></trkpt><trkpt lat="43.5964993" lon="11.9126084"><ele>728.0</ele><time>2026-04-12T08:26:04.145Z</time></trkpt><trkpt lat="43.5965659" lon="11.9127509"><ele>728.0</ele><time>2026-04-12T08:26:06.138Z</time></trkpt><trkpt lat="43.5965998" lon="11.9128587"><ele>728.0</ele><time>2026-04-12T08:26:07.129Z</time></trkpt><trkpt lat="43.5966264" lon="11.9129788"><ele>730.5999999999999</ele><time>2026-04-12T08:26:08.127Z</time></trkpt><trkpt lat="43.5966566" lon="11.9131064"><ele>733.1999999999999</ele><time>2026-04-12T08:26:09.133Z</time></trkpt><trkpt lat="43.5966871" lon="11.9132414"><ele>735.8</ele><time>2026-04-12T08:26:10.139Z</time></trkpt><trkpt lat="43.5967125" lon="11.913344"><ele>738.4</ele><time>2026-04-12T08:26:11.119Z</time></trkpt><trkpt lat="43.5967304" lon="11.9134292"><ele>741.0</ele><time>2026-04-12T08:26:12.137Z</time></trkpt><trkpt lat="43.5967496" lon="11.9136105"><ele>743.1666666666666</ele><time>2026-04-12T08:26:14.139Z</time></trkpt><trkpt lat="43.5967557" lon="11.9137189"><ele>745.3333333333334</ele><time>2026-04-12T08:26:15.114Z</time></trkpt><trkpt lat="43.5967625" lon="11.9138413"><ele>747.5</ele><time>2026-04-12T08:26:16.114Z</time></trkpt><trkpt lat="43.5967557" lon="11.913964"><ele>749.6666666666667</ele><time>2026-04-12T08:26:17.138Z</time></trkpt><trkpt lat="43.5967711" lon="11.9140716"><ele>751.8333333333334</ele><time>2026-04-12T08:26:18.131Z</time></trkpt><trkpt lat="43.5967857" lon="11.9141814"><ele>754.0</ele><time>2026-04-12T08:26:19.128Z</time></trkpt><trkpt lat="43.5968206" lon="11.9143102"><ele>755.1666666666667</ele><time>2026-04-12T08:26:20.131Z</time></trkpt><trkpt lat="43.5968545" lon="11.9144552"><ele>756.3333333333334</ele><time>2026-04-12T08:26:21.124Z</time></trkpt><trkpt lat="43.596895" lon="11.9145831"><ele>757.5</ele><time>2026-04-12T08:26:22.124Z</time></trkpt><trkpt lat="43.5969219" lon="11.9146984"><ele>758.6666666666666</ele><time>2026-04-12T08:26:23.117Z</time></trkpt><trkpt lat="43.5969179" lon="11.9148102"><ele>759.8333333333333</ele><time>2026-04-12T08:26:24.125Z</time></trkpt><trkpt lat="43.5969043" lon="11.9148982"><ele>761.0</ele><time>2026-04-12T08:26:25.125Z</time></trkpt><trkpt lat="43.5968619" lon="11.9150649"><ele>761.6666666666666</ele><time>2026-04-12T08:26:27.128Z</time></trkpt><trkpt lat="43.5968683" lon="11.9151612"><ele>762.3333333333333</ele><time>2026-04-12T08:26:28.125Z</time></trkpt><trkpt lat="43.5968843" lon="11.9152708"><ele>763.0</ele><time>2026-04-12T08:26:29.132Z</time></trkpt><trkpt lat="43.5969087" lon="11.9153879"><ele>763.6666666666666</ele><time>2026-04-12T08:26:30.135Z</time></trkpt><trkpt lat="43.5969404" lon="11.9155064"><ele>764.3333333333334</ele><time>2026-04-12T08:26:31.119Z</time></trkpt><trkpt lat="43.5969798" lon="11.9156266"><ele>765.0</ele><time>2026-04-12T08:26:33.14Z</time></trkpt><trkpt lat="43.5970527" lon="11.9156442"><ele>765.6666666666666</ele><time>2026-04-12T08:26:35.126Z</time></trkpt><trkpt lat="43.5970872" lon="11.9155274"><ele>766.3333333333333</ele><time>2026-04-12T08:26:38.127Z</time></trkpt><trkpt lat="43.5970987" lon="11.9154353"><ele>767.0</ele><time>2026-04-12T08:26:39.134Z</time></trkpt><trkpt lat="43.5971107" lon="11.9153208"><ele>767.6666666666666</ele><time>2026-04-12T08:26:40.131Z</time></trkpt><trkpt lat="43.5971459" lon="11.9152096"><ele>768.3333333333333</ele><time>2026-04-12T08:26:41.115Z</time></trkpt><trkpt lat="43.5971911" lon="11.9151303"><ele>769.0</ele><time>2026-04-12T08:26:42.129Z</time></trkpt><trkpt lat="43.5972352" lon="11.9150637"><ele>767.2</ele><time>2026-04-12T08:26:43.125Z</time></trkpt><trkpt lat="43.5973108" lon="11.914942"><ele>765.4000000000001</ele><time>2026-04-12T08:26:45.128Z</time></trkpt><trkpt lat="43.597389" lon="11.9148081"><ele>763.6</ele><time>2026-04-12T08:26:47.131Z</time></trkpt><trkpt lat="43.5974683" lon="11.914702"><ele>761.8</ele><time>2026-04-12T08:26:49.14Z</time></trkpt><trkpt lat="43.5975402" lon="11.9146535"><ele>760.0</ele><time>2026-04-12T08:26:51.134Z</time></trkpt><trkpt lat="43.5976189" lon="11.9146061"><ele>760.0</ele><time>2026-04-12T08:26:53.136Z</time></trkpt><trkpt lat="43.5976859" lon="11.9145702"><ele>760.0</ele><time>2026-04-12T08:26:55.142Z</time></trkpt><trkpt lat="43.5977485" lon="11.9145302"><ele>760.0</ele><time>2026-04-12T08:26:57.116Z</time></trkpt><trkpt lat="43.597812" lon="11.9144949"><ele>760.0</ele><time>2026-04-12T08:26:59.124Z</time></trkpt><trkpt lat="43.597885" lon="11.9144878"><ele>760.0</ele><time>2026-04-12T08:27:01.133Z</time></trkpt><trkpt lat="43.5979594" lon="11.9144641"><ele>760.0</ele><time>2026-04-12T08:27:04.136Z</time></trkpt><trkpt lat="43.5980276" lon="11.9144446"><ele>760.0</ele><time>2026-04-12T08:27:06.125Z</time></trkpt><trkpt lat="43.5981075" lon="11.9144087"><ele>763.8333333333334</ele><time>2026-04-12T08:27:08.131Z</time></trkpt><trkpt lat="43.5982115" lon="11.9143681"><ele>767.6666666666667</ele><time>2026-04-12T08:27:10.15Z</time></trkpt><trkpt lat="43.5982745" lon="11.9143489"><ele>771.5</ele><time>2026-04-12T08:27:11.134Z</time></trkpt><trkpt lat="43.598346" lon="11.9143363"><ele>775.3333333333334</ele><time>2026-04-12T08:27:12.136Z</time></trkpt><trkpt lat="43.5984142" lon="11.9143509"><ele>779.1666666666666</ele><time>2026-04-12T08:27:13.133Z</time></trkpt><trkpt lat="43.5984745" lon="11.9143836"><ele>783.0</ele><time>2026-04-12T08:27:14.127Z</time></trkpt><trkpt lat="43.5985978" lon="11.91442"><ele>786.8</ele><time>2026-04-12T08:27:16.131Z</time></trkpt><trkpt lat="43.5987151" lon="11.9144373"><ele>790.5999999999999</ele><time>2026-04-12T08:27:18.12Z</time></trkpt><trkpt lat="43.598821" lon="11.9144573"><ele>794.4000000000001</ele><time>2026-04-12T08:27:20.131Z</time></trkpt><trkpt lat="43.5989294" lon="11.9144909"><ele>798.2</ele><time>2026-04-12T08:27:22.129Z</time></trkpt><trkpt lat="43.5990336" lon="11.9145279"><ele>802.0</ele><time>2026-04-12T08:27:24.131Z</time></trkpt><trkpt lat="43.5991288" lon="11.914563"><ele>801.9999999999999</ele><time>2026-04-12T08:27:26.145Z</time></trkpt><trkpt lat="43.5992083" lon="11.9145689"><ele>802.0</ele><time>2026-04-12T08:27:28.133Z</time></trkpt><trkpt lat="43.5992862" lon="11.9145721"><ele>802.0</ele><time>2026-04-12T08:27:30.134Z</time></trkpt><trkpt lat="43.5993652" lon="11.9145656"><ele>802.0</ele><time>2026-04-12T08:27:33.125Z</time></trkpt><trkpt lat="43.5994327" lon="11.9145657"><ele>801.9999999999999</ele><time>2026-04-12T08:27:36.14Z</time></trkpt><trkpt lat="43.5995227" lon="11.9145479"><ele>802.0</ele><time>2026-04-12T08:27:47.128Z</time></trkpt><trkpt lat="43.5996061" lon="11.9145379"><ele>805.6666666666666</ele><time>2026-04-12T08:27:49.135Z</time></trkpt><trkpt lat="43.5996732" lon="11.9145197"><ele>809.3333333333333</ele><time>2026-04-12T08:27:51.127Z</time></trkpt><trkpt lat="43.5997421" lon="11.9144914"><ele>813.0</ele><time>2026-04-12T08:27:53.13Z</time></trkpt><trkpt lat="43.5998168" lon="11.9144733"><ele>816.6666666666667</ele><time>2026-04-12T08:27:56.134Z</time></trkpt><trkpt lat="43.5998995" lon="11.9144553"><ele>820.3333333333334</ele><time>2026-04-12T08:27:58.153Z</time></trkpt><trkpt lat="43.5999916" lon="11.9144424"><ele>824.0</ele><time>2026-04-12T08:28:00.129Z</time></trkpt><trkpt lat="43.6000675" lon="11.9144035"><ele>824.0</ele><time>2026-04-12T08:28:03.125Z</time></trkpt><trkpt lat="43.6001537" lon="11.914358"><ele>824.0</ele><time>2026-04-12T08:28:07.133Z</time></trkpt><trkpt lat="43.60025" lon="11.9143106"><ele>824.0</ele><time>2026-04-12T08:28:09.128Z</time></trkpt><trkpt lat="43.6003537" lon="11.9142514"><ele>824.0</ele><time>2026-04-12T08:28:11.146Z</time></trkpt><trkpt lat="43.6004226" lon="11.9142156"><ele>824.0</ele><time>2026-04-12T08:28:12.129Z</time></trkpt><trkpt lat="43.6004944" lon="11.9141944"><ele>824.2</ele><time>2026-04-12T08:28:13.134Z</time></trkpt><trkpt lat="43.6005579" lon="11.9141943"><ele>824.4000000000001</ele><time>2026-04-12T08:28:14.137Z</time></trkpt><trkpt lat="43.6006548" lon="11.9141977"><ele>824.6</ele><time>2026-04-12T08:28:16.128Z</time></trkpt><trkpt lat="43.6007294" lon="11.9142423"><ele>824.8</ele><time>2026-04-12T08:28:18.133Z</time></trkpt><trkpt lat="43.600825" lon="11.9142961"><ele>825.0</ele><time>2026-04-12T08:28:20.132Z</time></trkpt><trkpt lat="43.6009283" lon="11.9143507"><ele>829.0</ele><time>2026-04-12T08:28:22.125Z</time></trkpt><trkpt lat="43.6010491" lon="11.9143639"><ele>833.0</ele><time>2026-04-12T08:28:24.122Z</time></trkpt><trkpt lat="43.6011666" lon="11.9143827"><ele>837.0</ele><time>2026-04-12T08:28:26.126Z</time></trkpt><trkpt lat="43.6012487" lon="11.9144828"><ele>841.0</ele><time>2026-04-12T08:28:28.128Z</time></trkpt><trkpt lat="43.6013208" lon="11.9145835"><ele>842.4</ele><time>2026-04-12T08:28:30.125Z</time></trkpt><trkpt lat="43.6013833" lon="11.9146186"><ele>843.8</ele><time>2026-04-12T08:28:32.15Z</time></trkpt><trkpt lat="43.6014992" lon="11.9146817"><ele>845.1999999999999</ele><time>2026-04-12T08:28:34.14Z</time></trkpt><trkpt lat="43.6016154" lon="11.9147522"><ele>846.5999999999999</ele><time>2026-04-12T08:28:36.123Z</time></trkpt><trkpt lat="43.6016686" lon="11.9148122"><ele>848.0</ele><time>2026-04-12T08:28:37.138Z</time></trkpt><trkpt lat="43.6017566" lon="11.9148969"><ele>848.0</ele><time>2026-04-12T08:28:39.132Z</time></trkpt><trkpt lat="43.6018518" lon="11.9149614"><ele>848.0</ele><time>2026-04-12T08:28:41.13Z</time></trkpt><trkpt lat="43.6019636" lon="11.9150488"><ele>848.0</ele><time>2026-04-12T08:28:43.15Z</time></trkpt><trkpt lat="43.6020281" lon="11.9150841"><ele>848.0</ele><time>2026-04-12T08:28:44.144Z</time></trkpt><trkpt lat="43.6021049" lon="11.9150905"><ele>848.0</ele><time>2026-04-12T08:28:45.143Z</time></trkpt><trkpt lat="43.6021868" lon="11.9151206"><ele>851.0000000000001</ele><time>2026-04-12T08:28:46.146Z</time></trkpt><trkpt lat="43.6022644" lon="11.9151755"><ele>854.0</ele><time>2026-04-12T08:28:47.151Z</time></trkpt><trkpt lat="43.6023179" lon="11.915254"><ele>857.0</ele><time>2026-04-12T08:28:48.15Z</time></trkpt><trkpt lat="43.6023671" lon="11.9153684"><ele>860.0</ele><time>2026-04-12T08:28:50.13Z</time></trkpt><trkpt lat="43.6024171" lon="11.915504"><ele>863.0000000000001</ele><time>2026-04-12T08:28:52.146Z</time></trkpt><trkpt lat="43.6024582" lon="11.9155759"><ele>866.0</ele><time>2026-04-12T08:28:53.144Z</time></trkpt><trkpt lat="43.6025845" lon="11.9156442"><ele>866.0000000000001</ele><time>2026-04-12T08:28:55.142Z</time></trkpt><trkpt lat="43.6026688" lon="11.9156847"><ele>866.0</ele><time>2026-04-12T08:28:56.149Z</time></trkpt><trkpt lat="43.6027321" lon="11.9157384"><ele>866.0</ele><time>2026-04-12T08:28:57.142Z</time></trkpt><trkpt lat="43.6027776" lon="11.9158381"><ele>866.0</ele><time>2026-04-12T08:28:58.145Z</time></trkpt><trkpt lat="43.6028023" lon="11.9159485"><ele>866.0000000000001</ele><time>2026-04-12T08:28:59.132Z</time></trkpt><trkpt lat="43.6028146" lon="11.9160395"><ele>866.0</ele><time>2026-04-12T08:29:00.135Z</time></trkpt><trkpt lat="43.6028919" lon="11.9161762"><ele>867.5999999999999</ele><time>2026-04-12T08:29:02.118Z</time></trkpt><trkpt lat="43.6029887" lon="11.9162223"><ele>869.1999999999999</ele><time>2026-04-12T08:29:03.127Z</time></trkpt><trkpt lat="43.6030756" lon="11.9162833"><ele>870.8000000000001</ele><time>2026-04-12T08:29:04.127Z</time></trkpt><trkpt lat="43.6031474" lon="11.9163568"><ele>872.4000000000001</ele><time>2026-04-12T08:29:05.126Z</time></trkpt><trkpt lat="43.6032161" lon="11.9164299"><ele>874.0</ele><time>2026-04-12T08:29:06.139Z</time></trkpt><trkpt lat="43.6032802" lon="11.9165012"><ele>874.0</ele><time>2026-04-12T08:29:07.119Z</time></trkpt><trkpt lat="43.6033395" lon="11.9165734"><ele>874.0000000000001</ele><time>2026-04-12T08:29:08.127Z</time></trkpt><trkpt lat="43.603388" lon="11.9166451"><ele>874.0000000000001</ele><time>2026-04-12T08:29:09.127Z</time></trkpt><trkpt lat="43.6034167" lon="11.9167919"><ele>874.0</ele><time>2026-04-12T08:29:11.134Z</time></trkpt><trkpt lat="43.6034725" lon="11.916936"><ele>874.0</ele><time>2026-04-12T08:29:13.141Z</time></trkpt><trkpt lat="43.6035282" lon="11.9170038"><ele>874.2</ele><time>2026-04-12T08:29:14.142Z</time></trkpt><trkpt lat="43.6035775" lon="11.9171388"><ele>874.4000000000001</ele><time>2026-04-12T08:29:16.145Z</time></trkpt><trkpt lat="43.6036138" lon="11.9172199"><ele>874.6</ele><time>2026-04-12T08:29:18.149Z</time></trkpt><trkpt lat="43.6036703" lon="11.9173073"><ele>874.8</ele><time>2026-04-12T08:29:20.14Z</time></trkpt><trkpt lat="43.6036997" lon="11.9174662"><ele>875.0</ele><time>2026-04-12T08:29:22.127Z</time></trkpt><trkpt lat="43.6037005" lon="11.9176145"><ele>877.0000000000001</ele><time>2026-04-12T08:29:24.153Z</time></trkpt><trkpt lat="43.6037303" lon="11.9177157"><ele>879.0</ele><time>2026-04-12T08:29:25.131Z</time></trkpt><trkpt lat="43.6037676" lon="11.9178458"><ele>881.0</ele><time>2026-04-12T08:29:26.129Z</time></trkpt><trkpt lat="43.6038081" lon="11.9179561"><ele>883.0</ele><time>2026-04-12T08:29:27.141Z</time></trkpt><trkpt lat="43.6038649" lon="11.9180448"><ele>885.0000000000001</ele><time>2026-04-12T08:29:28.126Z</time></trkpt><trkpt lat="43.603926" lon="11.9181107"><ele>887.0</ele><time>2026-04-12T08:29:29.137Z</time></trkpt><trkpt lat="43.6039747" lon="11.9181716"><ele>887.0000000000001</ele><time>2026-04-12T08:29:30.127Z</time></trkpt><trkpt lat="43.6040735" lon="11.9182785"><ele>887.0</ele><time>2026-04-12T08:29:32.122Z</time></trkpt><trkpt lat="43.6041255" lon="11.9183399"><ele>887.0</ele><time>2026-04-12T08:29:33.124Z</time></trkpt><trkpt lat="43.6041742" lon="11.9183971"><ele>887.0</ele><time>2026-04-12T08:29:34.133Z</time></trkpt><trkpt lat="43.6042429" lon="11.9184981"><ele>887.0000000000001</ele><time>2026-04-12T08:29:36.131Z</time></trkpt><trkpt lat="43.6041832" lon="11.9185322"><ele>887.0</ele><time>2026-04-12T08:29:41.13Z</time></trkpt><trkpt lat="43.6040767" lon="11.9184258"><ele>887.0000000000001</ele><time>2026-04-12T08:29:43.141Z</time></trkpt><trkpt lat="43.6040081" lon="11.9183817"><ele>887.0</ele><time>2026-04-12T08:29:44.139Z</time></trkpt><trkpt lat="43.6039285" lon="11.9183433"><ele>887.0</ele><time>2026-04-12T08:29:45.135Z</time></trkpt><trkpt lat="43.6038468" lon="11.9183114"><ele>887.0</ele><time>2026-04-12T08:29:46.152Z</time></trkpt><trkpt lat="43.6037685" lon="11.9182919"><ele>887.0000000000001</ele><time>2026-04-12T08:29:47.144Z</time></trkpt><trkpt lat="43.6036893" lon="11.9182823"><ele>887.0</ele><time>2026-04-12T08:29:48.146Z</time></trkpt><trkpt lat="43.6036079" lon="11.9182865"><ele>889.8</ele><time>2026-04-12T08:29:49.136Z</time></trkpt><trkpt lat="43.6035236" lon="11.9183013"><ele>892.6</ele><time>2026-04-12T08:29:50.131Z</time></trkpt><trkpt lat="43.6034427" lon="11.9183145"><ele>895.3999999999999</ele><time>2026-04-12T08:29:51.129Z</time></trkpt><trkpt lat="43.6033517" lon="11.9183562"><ele>898.1999999999999</ele><time>2026-04-12T08:29:52.133Z</time></trkpt><trkpt lat="43.6032551" lon="11.9184135"><ele>901.0</ele><time>2026-04-12T08:29:53.14Z</time></trkpt><trkpt lat="43.6031576" lon="11.9184825"><ele>902.8</ele><time>2026-04-12T08:29:54.148Z</time></trkpt><trkpt lat="43.6030561" lon="11.9185572"><ele>904.5999999999999</ele><time>2026-04-12T08:29:55.113Z</time></trkpt><trkpt lat="43.602964" lon="11.9186241"><ele>906.4</ele><time>2026-04-12T08:29:56.153Z</time></trkpt><trkpt lat="43.6028751" lon="11.9186781"><ele>908.2</ele><time>2026-04-12T08:29:57.112Z</time></trkpt><trkpt lat="43.602793" lon="11.9187419"><ele>910.0</ele><time>2026-04-12T08:29:58.154Z</time></trkpt><trkpt lat="43.6027233" lon="11.9188314"><ele>910.0</ele><time>2026-04-12T08:29:59.128Z</time></trkpt><trkpt lat="43.6026536" lon="11.9189227"><ele>910.0</ele><time>2026-04-12T08:30:00.141Z</time></trkpt><trkpt lat="43.602597" lon="11.919068"><ele>910.0</ele><time>2026-04-12T08:30:01.137Z</time></trkpt><trkpt lat="43.6025404" lon="11.9192194"><ele>910.0</ele><time>2026-04-12T08:30:02.134Z</time></trkpt><trkpt lat="43.6024916" lon="11.9193483"><ele>910.0</ele><time>2026-04-12T08:30:03.132Z</time></trkpt><trkpt lat="43.6024328" lon="11.9194736"><ele>909.75</ele><time>2026-04-12T08:30:04.118Z</time></trkpt><trkpt lat="43.6023681" lon="11.9196058"><ele>909.5</ele><time>2026-04-12T08:30:05.131Z</time></trkpt><trkpt lat="43.6022738" lon="11.9197173"><ele>909.25</ele><time>2026-04-12T08:30:06.135Z</time></trkpt><trkpt lat="43.6021498" lon="11.919809"><ele>909.0</ele><time>2026-04-12T08:30:07.131Z</time></trkpt><trkpt lat="43.6019703" lon="11.9199343"><ele>909.0</ele><time>2026-04-12T08:30:08.132Z</time></trkpt><trkpt lat="43.6018152" lon="11.9200379"><ele>909.0</ele><time>2026-04-12T08:30:09.143Z</time></trkpt><trkpt lat="43.6016679" lon="11.9201304"><ele>909.0</ele><time>2026-04-12T08:30:10.145Z</time></trkpt><trkpt lat="43.6015446" lon="11.9202143"><ele>909.0</ele><time>2026-04-12T08:30:11.118Z</time></trkpt><trkpt lat="43.6014329" lon="11.9202905"><ele>909.0</ele><time>2026-04-12T08:30:12.124Z</time></trkpt><trkpt lat="43.6013304" lon="11.920374"><ele>909.0</ele><time>2026-04-12T08:30:13.133Z</time></trkpt><trkpt lat="43.6012332" lon="11.9204422"><ele>909.0</ele><time>2026-04-12T08:30:14.13Z</time></trkpt><trkpt lat="43.6011496" lon="11.920546"><ele>909.0</ele><time>2026-04-12T08:30:15.13Z</time></trkpt><trkpt lat="43.6010659" lon="11.9206303"><ele>909.0000000000001</ele><time>2026-04-12T08:30:16.135Z</time></trkpt><trkpt lat="43.6009899" lon="11.9207426"><ele>909.0000000000001</ele><time>2026-04-12T08:30:17.126Z</time></trkpt><trkpt lat="43.6009204" lon="11.9208614"><ele>909.0</ele><time>2026-04-12T08:30:18.134Z</time></trkpt><trkpt lat="43.6008476" lon="11.9209898"><ele>909.0</ele><time>2026-04-12T08:30:19.136Z</time></trkpt><trkpt lat="43.6007857" lon="11.9211153"><ele>910.2</ele><time>2026-04-12T08:30:20.148Z</time></trkpt><trkpt lat="43.6007324" lon="11.9212389"><ele>911.4000000000001</ele><time>2026-04-12T08:30:21.145Z</time></trkpt><trkpt lat="43.6006902" lon="11.9213701"><ele>912.6</ele><time>2026-04-12T08:30:22.128Z</time></trkpt><trkpt lat="43.600662" lon="11.9215118"><ele>913.8</ele><time>2026-04-12T08:30:23.149Z</time></trkpt><trkpt lat="43.6006545" lon="11.9216733"><ele>915.0</ele><time>2026-04-12T08:30:24.139Z</time></trkpt><trkpt lat="43.6006674" lon="11.9218634"><ele>914.75</ele><time>2026-04-12T08:30:25.129Z</time></trkpt><trkpt lat="43.6006934" lon="11.9220693"><ele>914.5</ele><time>2026-04-12T08:30:26.134Z</time></trkpt><trkpt lat="43.6007221" lon="11.9222732"><ele>914.25</ele><time>2026-04-12T08:30:27.13Z</time></trkpt><trkpt lat="43.6007374" lon="11.9224649"><ele>914.0</ele><time>2026-04-12T08:30:28.143Z</time></trkpt><trkpt lat="43.6007312" lon="11.9226458"><ele>914.0</ele><time>2026-04-12T08:30:29.144Z</time></trkpt><trkpt lat="43.6007095" lon="11.9228099"><ele>914.0000000000001</ele><time>2026-04-12T08:30:30.16Z</time></trkpt><trkpt lat="43.600702" lon="11.9229448"><ele>914.0000000000001</ele><time>2026-04-12T08:30:31.147Z</time></trkpt><trkpt lat="43.6007206" lon="11.9230624"><ele>914.0</ele><time>2026-04-12T08:30:32.144Z</time></trkpt><trkpt lat="43.6007726" lon="11.9231522"><ele>914.0</ele><time>2026-04-12T08:30:33.128Z</time></trkpt><trkpt lat="43.6008482" lon="11.9232142"><ele>914.0</ele><time>2026-04-12T08:30:34.151Z</time></trkpt><trkpt lat="43.6009413" lon="11.923239"><ele>914.0</ele><time>2026-04-12T08:30:35.127Z</time></trkpt><trkpt lat="43.6010553" lon="11.9232428"><ele>914.0</ele><time>2026-04-12T08:30:36.142Z</time></trkpt><trkpt lat="43.6011881" lon="11.9232414"><ele>914.0</ele><time>2026-04-12T08:30:37.144Z</time></trkpt><trkpt lat="43.6013029" lon="11.9232653"><ele>917.5</ele><time>2026-04-12T08:30:38.143Z</time></trkpt><trkpt lat="43.601404" lon="11.9233073"><ele>921.0</ele><time>2026-04-12T08:30:39.153Z</time></trkpt><trkpt lat="43.6014842" lon="11.9233969"><ele>924.5</ele><time>2026-04-12T08:30:40.139Z</time></trkpt><trkpt lat="43.6015589" lon="11.9235367"><ele>928.0</ele><time>2026-04-12T08:30:41.135Z</time></trkpt><trkpt lat="43.6016029" lon="11.923699"><ele>928.0</ele><time>2026-04-12T08:30:42.124Z</time></trkpt><trkpt lat="43.6016296" lon="11.9238662"><ele>928.0</ele><time>2026-04-12T08:30:43.139Z</time></trkpt><trkpt lat="43.6016732" lon="11.9239947"><ele>928.0</ele><time>2026-04-12T08:30:44.124Z</time></trkpt><trkpt lat="43.6017342" lon="11.924095"><ele>928.0</ele><time>2026-04-12T08:30:45.125Z</time></trkpt><trkpt lat="43.6018214" lon="11.9241659"><ele>928.0</ele><time>2026-04-12T08:30:46.126Z</time></trkpt><trkpt lat="43.6019035" lon="11.9242104"><ele>929.4</ele><time>2026-04-12T08:30:47.128Z</time></trkpt><trkpt lat="43.6019592" lon="11.9242818"><ele>930.8</ele><time>2026-04-12T08:30:48.13Z</time></trkpt><trkpt lat="43.601985" lon="11.9243803"><ele>932.2</ele><time>2026-04-12T08:30:49.108Z</time></trkpt><trkpt lat="43.6020088" lon="11.9245006"><ele>933.6</ele><time>2026-04-12T08:30:50.139Z</time></trkpt><trkpt lat="43.6019637" lon="11.9246221"><ele>935.0</ele><time>2026-04-12T08:30:51.112Z</time></trkpt><trkpt lat="43.6018978" lon="11.924758"><ele>935.0</ele><time>2026-04-12T08:30:52.136Z</time></trkpt><trkpt lat="43.6018039" lon="11.924919"><ele>935.0</ele><time>2026-04-12T08:30:53.134Z</time></trkpt><trkpt lat="43.6016942" lon="11.9250931"><ele>935.0</ele><time>2026-04-12T08:30:54.131Z</time></trkpt><trkpt lat="43.601591" lon="11.9252393"><ele>939.75</ele><time>2026-04-12T08:30:55.142Z</time></trkpt><trkpt lat="43.6015002" lon="11.9253596"><ele>944.5</ele><time>2026-04-12T08:30:56.143Z</time></trkpt><trkpt lat="43.6014009" lon="11.9254291"><ele>949.25</ele><time>2026-04-12T08:30:57.126Z</time></trkpt><trkpt lat="43.6012852" lon="11.9254879"><ele>954.0</ele><time>2026-04-12T08:30:58.15Z</time></trkpt><trkpt lat="43.6011743" lon="11.9255674"><ele>953.0</ele><time>2026-04-12T08:30:59.138Z</time></trkpt><trkpt lat="43.601073" lon="11.9256658"><ele>952.0</ele><time>2026-04-12T08:31:00.139Z</time></trkpt><trkpt lat="43.6009875" lon="11.9257774"><ele>951.0</ele><time>2026-04-12T08:31:01.141Z</time></trkpt><trkpt lat="43.6009127" lon="11.9258986"><ele>950.0</ele><time>2026-04-12T08:31:02.164Z</time></trkpt><trkpt lat="43.6008627" lon="11.9260221"><ele>950.0</ele><time>2026-04-12T08:31:03.135Z</time></trkpt><trkpt lat="43.6008333" lon="11.9261416"><ele>950.0</ele><time>2026-04-12T08:31:04.135Z</time></trkpt><trkpt lat="43.6008224" lon="11.9262829"><ele>950.0</ele><time>2026-04-12T08:31:05.13Z</time></trkpt><trkpt lat="43.600811" lon="11.9264248"><ele>950.0</ele><time>2026-04-12T08:31:06.143Z</time></trkpt><trkpt lat="43.6008258" lon="11.9265742"><ele>950.0</ele><time>2026-04-12T08:31:07.141Z</time></trkpt><trkpt lat="43.6008564" lon="11.9267082"><ele>952.0000000000001</ele><time>2026-04-12T08:31:08.139Z</time></trkpt><trkpt lat="43.6008584" lon="11.9268137"><ele>954.0</ele><time>2026-04-12T08:31:09.131Z</time></trkpt><trkpt lat="43.6007738" lon="11.9269366"><ele>956.0</ele><time>2026-04-12T08:31:11.141Z</time></trkpt><trkpt lat="43.6007067" lon="11.9269742"><ele>958.0</ele><time>2026-04-12T08:31:12.116Z</time></trkpt><trkpt lat="43.600628" lon="11.9270016"><ele>960.0000000000001</ele><time>2026-04-12T08:31:13.135Z</time></trkpt><trkpt lat="43.6005637" lon="11.9270558"><ele>962.0</ele><time>2026-04-12T08:31:14.131Z</time></trkpt><trkpt lat="43.6004814" lon="11.9271417"><ele>962.0</ele><time>2026-04-12T08:31:15.14Z</time></trkpt><trkpt lat="43.6004001" lon="11.9272589"><ele>962.0</ele><time>2026-04-12T08:31:16.127Z</time></trkpt><trkpt lat="43.6003167" lon="11.927387"><ele>962.0</ele><time>2026-04-12T08:31:17.133Z</time></trkpt><trkpt lat="43.6002264" lon="11.9275178"><ele>962.0</ele><time>2026-04-12T08:31:18.143Z</time></trkpt><trkpt lat="43.6001367" lon="11.9276202"><ele>962.1666666666667</ele><time>2026-04-12T08:31:19.138Z</time></trkpt><trkpt lat="43.6000687" lon="11.9276884"><ele>962.3333333333334</ele><time>2026-04-12T08:31:20.143Z</time></trkpt><trkpt lat="43.6000111" lon="11.9277343"><ele>962.5</ele><time>2026-04-12T08:31:21.137Z</time></trkpt><trkpt lat="43.5999508" lon="11.9277612"><ele>962.6666666666667</ele><time>2026-04-12T08:31:22.13Z</time></trkpt><trkpt lat="43.5998699" lon="11.9277734"><ele>962.8333333333334</ele><time>2026-04-12T08:31:23.163Z</time></trkpt><trkpt lat="43.5997663" lon="11.9277687"><ele>963.0</ele><time>2026-04-12T08:31:24.132Z</time></trkpt><trkpt lat="43.5996266" lon="11.9277759"><ele>957.3333333333333</ele><time>2026-04-12T08:31:25.133Z</time></trkpt><trkpt lat="43.5994796" lon="11.9277946"><ele>951.6666666666666</ele><time>2026-04-12T08:31:26.131Z</time></trkpt><trkpt lat="43.599325" lon="11.927836"><ele>946.0</ele><time>2026-04-12T08:31:27.152Z</time></trkpt><trkpt lat="43.5991803" lon="11.9279033"><ele>946.0</ele><time>2026-04-12T08:31:28.126Z</time></trkpt><trkpt lat="43.599052" lon="11.9279991"><ele>946.0</ele><time>2026-04-12T08:31:29.133Z</time></trkpt><trkpt lat="43.5989399" lon="11.9281206"><ele>946.0</ele><time>2026-04-12T08:31:30.138Z</time></trkpt><trkpt lat="43.5988395" lon="11.92826"><ele>946.0</ele><time>2026-04-12T08:31:31.147Z</time></trkpt><trkpt lat="43.5987343" lon="11.9284079"><ele>945.75</ele><time>2026-04-12T08:31:32.146Z</time></trkpt><trkpt lat="43.5986227" lon="11.9285414"><ele>945.5</ele><time>2026-04-12T08:31:33.138Z</time></trkpt><trkpt lat="43.5985067" lon="11.9286448"><ele>945.25</ele><time>2026-04-12T08:31:34.145Z</time></trkpt><trkpt lat="43.5983872" lon="11.9287125"><ele>945.0</ele><time>2026-04-12T08:31:35.15Z</time></trkpt><trkpt lat="43.5982608" lon="11.9287394"><ele>945.0</ele><time>2026-04-12T08:31:36.137Z</time></trkpt><trkpt lat="43.5981313" lon="11.928723"><ele>945.0</ele><time>2026-04-12T08:31:37.123Z</time></trkpt><trkpt lat="43.5980015" lon="11.9286662"><ele>945.0</ele><time>2026-04-12T08:31:38.151Z</time></trkpt><trkpt lat="43.5978687" lon="11.9285718"><ele>945.0</ele><time>2026-04-12T08:31:39.126Z</time></trkpt><trkpt lat="43.5977344" lon="11.9284619"><ele>939.75</ele><time>2026-04-12T08:31:40.129Z</time></trkpt><trkpt lat="43.5976006" lon="11.928361"><ele>934.5</ele><time>2026-04-12T08:31:41.13Z</time></trkpt><trkpt lat="43.5974667" lon="11.9282748"><ele>929.25</ele><time>2026-04-12T08:31:42.126Z</time></trkpt><trkpt lat="43.5973328" lon="11.928203"><ele>924.0</ele><time>2026-04-12T08:31:43.145Z</time></trkpt><trkpt lat="43.5972096" lon="11.9281526"><ele>924.0</ele><time>2026-04-12T08:31:44.133Z</time></trkpt><trkpt lat="43.5970983" lon="11.9281289"><ele>924.0</ele><time>2026-04-12T08:31:45.133Z</time></trkpt><trkpt lat="43.5969905" lon="11.9281428"><ele>924.0</ele><time>2026-04-12T08:31:46.132Z</time></trkpt><trkpt lat="43.5968754" lon="11.9281745"><ele>924.0</ele><time>2026-04-12T08:31:47.133Z</time></trkpt><trkpt lat="43.596787" lon="11.9282945"><ele>926.0</ele><time>2026-04-12T08:31:48.143Z</time></trkpt><trkpt lat="43.5966999" lon="11.9284536"><ele>928.0</ele><time>2026-04-12T08:31:49.143Z</time></trkpt><trkpt lat="43.5966037" lon="11.9286258"><ele>930.0</ele><time>2026-04-12T08:31:50.12Z</time></trkpt><trkpt lat="43.596516" lon="11.9287606"><ele>932.0</ele><time>2026-04-12T08:31:51.137Z</time></trkpt><trkpt lat="43.5963743" lon="11.9288452"><ele>932.0</ele><time>2026-04-12T08:31:52.132Z</time></trkpt><trkpt lat="43.5961973" lon="11.9289051"><ele>932.0</ele><time>2026-04-12T08:31:53.126Z</time></trkpt><trkpt lat="43.5960075" lon="11.9289454"><ele>932.0</ele><time>2026-04-12T08:31:54.136Z</time></trkpt><trkpt lat="43.5957927" lon="11.9289843"><ele>924.0</ele><time>2026-04-12T08:31:55.13Z</time></trkpt><trkpt lat="43.5955585" lon="11.9290192"><ele>916.0</ele><time>2026-04-12T08:31:56.131Z</time></trkpt><trkpt lat="43.5953223" lon="11.9290775"><ele>918.3333333333333</ele><time>2026-04-12T08:31:57.134Z</time></trkpt><trkpt lat="43.5950965" lon="11.9291197"><ele>920.6666666666667</ele><time>2026-04-12T08:31:58.137Z</time></trkpt><trkpt lat="43.5948797" lon="11.9291741"><ele>923.0</ele><time>2026-04-12T08:31:59.125Z</time></trkpt><trkpt lat="43.5946729" lon="11.9292275"><ele>919.3333333333334</ele><time>2026-04-12T08:32:00.124Z</time></trkpt><trkpt lat="43.5944841" lon="11.9293059"><ele>915.6666666666667</ele><time>2026-04-12T08:32:01.151Z</time></trkpt><trkpt lat="43.5943225" lon="11.9293777"><ele>912.0</ele><time>2026-04-12T08:32:02.127Z</time></trkpt><trkpt lat="43.5941751" lon="11.9294247"><ele>912.0</ele><time>2026-04-12T08:32:03.116Z</time></trkpt><trkpt lat="43.594031" lon="11.9294233"><ele>912.0</ele><time>2026-04-12T08:32:04.133Z</time></trkpt><trkpt lat="43.5938946" lon="11.9293732"><ele>912.0</ele><time>2026-04-12T08:32:05.145Z</time></trkpt><trkpt lat="43.5937697" lon="11.9293179"><ele>912.0</ele><time>2026-04-12T08:32:06.135Z</time></trkpt><trkpt lat="43.5936425" lon="11.9293081"><ele>908.0</ele><time>2026-04-12T08:32:07.134Z</time></trkpt><trkpt lat="43.5935144" lon="11.9293264"><ele>904.0</ele><time>2026-04-12T08:32:08.136Z</time></trkpt><trkpt lat="43.5933889" lon="11.9294156"><ele>900.0</ele><time>2026-04-12T08:32:09.151Z</time></trkpt><trkpt lat="43.5932646" lon="11.9295314"><ele>896.0</ele><time>2026-04-12T08:32:10.138Z</time></trkpt><trkpt lat="43.5931379" lon="11.9296567"><ele>896.0</ele><time>2026-04-12T08:32:11.146Z</time></trkpt><trkpt lat="43.593" lon="11.9297694"><ele>896.0</ele><time>2026-04-12T08:32:12.141Z</time></trkpt><trkpt lat="43.5928597" lon="11.9298289"><ele>896.0</ele><time>2026-04-12T08:32:13.127Z</time></trkpt><trkpt lat="43.5927103" lon="11.9298535"><ele>891.3333333333334</ele><time>2026-04-12T08:32:14.128Z</time></trkpt><trkpt lat="43.5925518" lon="11.9298573"><ele>886.6666666666667</ele><time>2026-04-12T08:32:15.135Z</time></trkpt><trkpt lat="43.5923832" lon="11.9298449"><ele>882.0</ele><time>2026-04-12T08:32:16.138Z</time></trkpt><trkpt lat="43.5922218" lon="11.9298206"><ele>882.0</ele><time>2026-04-12T08:32:17.141Z</time></trkpt><trkpt lat="43.592068" lon="11.929799"><ele>882.0</ele><time>2026-04-12T08:32:18.138Z</time></trkpt><trkpt lat="43.5919256" lon="11.9298121"><ele>882.0</ele><time>2026-04-12T08:32:19.142Z</time></trkpt><trkpt lat="43.5917986" lon="11.9298444"><ele>882.0</ele><time>2026-04-12T08:32:20.145Z</time></trkpt><trkpt lat="43.5916876" lon="11.9299153"><ele>881.0</ele><time>2026-04-12T08:32:21.138Z</time></trkpt><trkpt lat="43.5915944" lon="11.9300267"><ele>880.0</ele><time>2026-04-12T08:32:22.116Z</time></trkpt><trkpt lat="43.5915196" lon="11.9301759"><ele>879.0</ele><time>2026-04-12T08:32:23.146Z</time></trkpt><trkpt lat="43.5914626" lon="11.9303393"><ele>878.0</ele><time>2026-04-12T08:32:24.132Z</time></trkpt><trkpt lat="43.5914089" lon="11.9305183"><ele>878.0</ele><time>2026-04-12T08:32:25.152Z</time></trkpt><trkpt lat="43.5913623" lon="11.9306974"><ele>878.0</ele><time>2026-04-12T08:32:26.158Z</time></trkpt><trkpt lat="43.5913064" lon="11.9308692"><ele>878.0</ele><time>2026-04-12T08:32:27.134Z</time></trkpt><trkpt lat="43.5912339" lon="11.9310239"><ele>878.0</ele><time>2026-04-12T08:32:28.137Z</time></trkpt><trkpt lat="43.5911394" lon="11.9311694"><ele>873.25</ele><time>2026-04-12T08:32:29.138Z</time></trkpt><trkpt lat="43.5910195" lon="11.9312997"><ele>868.5</ele><time>2026-04-12T08:32:30.136Z</time></trkpt><trkpt lat="43.5908907" lon="11.9314072"><ele>863.75</ele><time>2026-04-12T08:32:31.138Z</time></trkpt><trkpt lat="43.5907642" lon="11.9315089"><ele>859.0</ele><time>2026-04-12T08:32:32.124Z</time></trkpt><trkpt lat="43.5906486" lon="11.9316231"><ele>861.75</ele><time>2026-04-12T08:32:33.136Z</time></trkpt><trkpt lat="43.5905458" lon="11.9317539"><ele>864.5</ele><time>2026-04-12T08:32:34.134Z</time></trkpt><trkpt lat="43.5904583" lon="11.9319013"><ele>867.25</ele><time>2026-04-12T08:32:35.12Z</time></trkpt><trkpt lat="43.590386" lon="11.9320576"><ele>870.0</ele><time>2026-04-12T08:32:36.131Z</time></trkpt><trkpt lat="43.5903076" lon="11.9322055"><ele>867.5</ele><time>2026-04-12T08:32:37.131Z</time></trkpt><trkpt lat="43.5902072" lon="11.9323235"><ele>865.0</ele><time>2026-04-12T08:32:38.142Z</time></trkpt><trkpt lat="43.5900832" lon="11.9324166"><ele>862.5</ele><time>2026-04-12T08:32:39.15Z</time></trkpt><trkpt lat="43.5899353" lon="11.9324946"><ele>860.0</ele><time>2026-04-12T08:32:40.126Z</time></trkpt><trkpt lat="43.5897747" lon="11.9325672"><ele>860.0</ele><time>2026-04-12T08:32:41.127Z</time></trkpt><trkpt lat="43.5896174" lon="11.9326424"><ele>860.0</ele><time>2026-04-12T08:32:42.13Z</time></trkpt><trkpt lat="43.5894657" lon="11.9327205"><ele>860.0</ele><time>2026-04-12T08:32:43.145Z</time></trkpt><trkpt lat="43.5893177" lon="11.9327981"><ele>854.5</ele><time>2026-04-12T08:32:44.119Z</time></trkpt><trkpt lat="43.5891812" lon="11.9328835"><ele>849.0</ele><time>2026-04-12T08:32:45.125Z</time></trkpt><trkpt lat="43.589047" lon="11.9329727"><ele>843.5</ele><time>2026-04-12T08:32:46.131Z</time></trkpt><trkpt lat="43.5889306" lon="11.9330481"><ele>838.0</ele><time>2026-04-12T08:32:47.141Z</time></trkpt><trkpt lat="43.5888351" lon="11.9331123"><ele>837.9999999999999</ele><time>2026-04-12T08:32:48.132Z</time></trkpt><trkpt lat="43.5887581" lon="11.9331634"><ele>838.0</ele><time>2026-04-12T08:32:49.136Z</time></trkpt><trkpt lat="43.5886994" lon="11.9332033"><ele>838.0</ele><time>2026-04-12T08:32:50.138Z</time></trkpt><trkpt lat="43.5886601" lon="11.9332822"><ele>838.0</ele><time>2026-04-12T08:32:52.14Z</time></trkpt><trkpt lat="43.5886806" lon="11.9333654"><ele>837.9999999999999</ele><time>2026-04-12T08:32:54.156Z</time></trkpt><trkpt lat="43.5888044" lon="11.9334828"><ele>838.0</ele><time>2026-04-12T08:32:56.132Z</time></trkpt><trkpt lat="43.5888738" lon="11.9335654"><ele>837.75</ele><time>2026-04-12T08:32:57.145Z</time></trkpt><trkpt lat="43.58893" lon="11.9336923"><ele>837.5</ele><time>2026-04-12T08:32:58.152Z</time></trkpt><trkpt lat="43.588982" lon="11.9338396"><ele>837.25</ele><time>2026-04-12T08:32:59.123Z</time></trkpt><trkpt lat="43.5890085" lon="11.9339201"><ele>837.0</ele><time>2026-04-12T08:33:00.14Z</time></trkpt><trkpt lat="43.5890256" lon="11.9341407"><ele>837.0</ele><time>2026-04-12T08:33:02.15Z</time></trkpt><trkpt lat="43.5890341" lon="11.9342783"><ele>837.0</ele><time>2026-04-12T08:33:03.13Z</time></trkpt><trkpt lat="43.5890459" lon="11.9344059"><ele>837.0</ele><time>2026-04-12T08:33:04.132Z</time></trkpt><trkpt lat="43.5890428" lon="11.9344975"><ele>837.0</ele><time>2026-04-12T08:33:05.135Z</time></trkpt><trkpt lat="43.5889881" lon="11.9346657"><ele>837.0</ele><time>2026-04-12T08:33:07.143Z</time></trkpt><trkpt lat="43.5890242" lon="11.9347937"><ele>837.0</ele><time>2026-04-12T08:33:09.123Z</time></trkpt><trkpt lat="43.5890792" lon="11.9349073"><ele>837.0</ele><time>2026-04-12T08:33:11.132Z</time></trkpt><trkpt lat="43.5890993" lon="11.9350924"><ele>837.0</ele><time>2026-04-12T08:33:13.156Z</time></trkpt><trkpt lat="43.5891091" lon="11.9351961"><ele>837.0</ele><time>2026-04-12T08:33:14.137Z</time></trkpt><trkpt lat="43.5890847" lon="11.9353045"><ele>837.0</ele><time>2026-04-12T08:33:15.156Z</time></trkpt><trkpt lat="43.5890608" lon="11.9353967"><ele>836.6666666666666</ele><time>2026-04-12T08:33:16.148Z</time></trkpt><trkpt lat="43.5890574" lon="11.9355436"><ele>836.3333333333333</ele><time>2026-04-12T08:33:18.14Z</time></trkpt><trkpt lat="43.589063" lon="11.9356303"><ele>836.0</ele><time>2026-04-12T08:33:19.151Z</time></trkpt><trkpt lat="43.5890951" lon="11.9357157"><ele>835.6666666666666</ele><time>2026-04-12T08:33:20.13Z</time></trkpt><trkpt lat="43.5891343" lon="11.9358193"><ele>835.3333333333333</ele><time>2026-04-12T08:33:21.147Z</time></trkpt><trkpt lat="43.5891591" lon="11.9359207"><ele>835.0</ele><time>2026-04-12T08:33:22.159Z</time></trkpt><trkpt lat="43.5892104" lon="11.9360773"><ele>833.6</ele><time>2026-04-12T08:33:24.137Z</time></trkpt><trkpt lat="43.5892689" lon="11.9361963"><ele>832.2</ele><time>2026-04-12T08:33:26.139Z</time></trkpt><trkpt lat="43.5893291" lon="11.9362921"><ele>830.8</ele><time>2026-04-12T08:33:27.141Z</time></trkpt><trkpt lat="43.589406" lon="11.9363997"><ele>829.4</ele><time>2026-04-12T08:33:28.134Z</time></trkpt><trkpt lat="43.5894703" lon="11.9364971"><ele>828.0</ele><time>2026-04-12T08:33:29.143Z</time></trkpt><trkpt lat="43.5895174" lon="11.9365795"><ele>832.0</ele><time>2026-04-12T08:33:30.136Z</time></trkpt><trkpt lat="43.5895597" lon="11.936709"><ele>836.0</ele><time>2026-04-12T08:33:31.15Z</time></trkpt><trkpt lat="43.5896036" lon="11.936823"><ele>840.0</ele><time>2026-04-12T08:33:32.129Z</time></trkpt><trkpt lat="43.5896343" lon="11.9369011"><ele>844.0</ele><time>2026-04-12T08:33:33.123Z</time></trkpt><trkpt lat="43.5896781" lon="11.9369767"><ele>848.0</ele><time>2026-04-12T08:33:34.163Z</time></trkpt><trkpt lat="43.589723" lon="11.9370505"><ele>852.0</ele><time>2026-04-12T08:33:35.127Z</time></trkpt><trkpt lat="43.5897405" lon="11.93716"><ele>852.0</ele><time>2026-04-12T08:33:36.133Z</time></trkpt><trkpt lat="43.5897582" lon="11.9372704"><ele>852.0</ele><time>2026-04-12T08:33:37.14Z</time></trkpt><trkpt lat="43.5897903" lon="11.9373743"><ele>852.0</ele><time>2026-04-12T08:33:38.137Z</time></trkpt><trkpt lat="43.5898378" lon="11.9375013"><ele>852.0</ele><time>2026-04-12T08:33:39.143Z</time></trkpt><trkpt lat="43.5898917" lon="11.9376379"><ele>852.0</ele><time>2026-04-12T08:33:40.131Z</time></trkpt><trkpt lat="43.5899324" lon="11.9377396"><ele>851.2</ele><time>2026-04-12T08:33:41.138Z</time></trkpt><trkpt lat="43.5899662" lon="11.9378135"><ele>850.4000000000001</ele><time>2026-04-12T08:33:42.141Z</time></trkpt><trkpt lat="43.589976" lon="11.9379744"><ele>849.5999999999999</ele><time>2026-04-12T08:33:44.157Z</time></trkpt><trkpt lat="43.5899823" lon="11.938156"><ele>848.8</ele><time>2026-04-12T08:33:46.128Z</time></trkpt><trkpt lat="43.5899749" lon="11.9382734"><ele>848.0</ele><time>2026-04-12T08:33:47.137Z</time></trkpt><trkpt lat="43.5899521" lon="11.9383838"><ele>847.0000000000001</ele><time>2026-04-12T08:33:48.152Z</time></trkpt><trkpt lat="43.5899478" lon="11.9384963"><ele>846.0</ele><time>2026-04-12T08:33:50.169Z</time></trkpt><trkpt lat="43.5899889" lon="11.9385835"><ele>845.0</ele><time>2026-04-12T08:33:51.136Z</time></trkpt><trkpt lat="43.5900321" lon="11.9386816"><ele>844.0</ele><time>2026-04-12T08:33:52.15Z</time></trkpt><trkpt lat="43.5900557" lon="11.9387833"><ele>843.0000000000001</ele><time>2026-04-12T08:33:53.155Z</time></trkpt><trkpt lat="43.5900928" lon="11.9389262"><ele>842.0</ele><time>2026-04-12T08:33:55.141Z</time></trkpt><trkpt lat="43.5901498" lon="11.9390127"><ele>842.0000000000001</ele><time>2026-04-12T08:33:56.13Z</time></trkpt><trkpt lat="43.590203" lon="11.9390976"><ele>842.0</ele><time>2026-04-12T08:33:57.138Z</time></trkpt><trkpt lat="43.5902611" lon="11.9391642"><ele>842.0</ele><time>2026-04-12T08:33:58.138Z</time></trkpt><trkpt lat="43.5903175" lon="11.9392269"><ele>842.0</ele><time>2026-04-12T08:33:59.135Z</time></trkpt><trkpt lat="43.5903903" lon="11.9392859"><ele>842.0000000000001</ele><time>2026-04-12T08:34:00.131Z</time></trkpt><trkpt lat="43.5904595" lon="11.939321"><ele>842.0</ele><time>2026-04-12T08:34:01.122Z</time></trkpt><trkpt lat="43.5906129" lon="11.9393275"><ele>843.8333333333334</ele><time>2026-04-12T08:34:03.131Z</time></trkpt><trkpt lat="43.5907244" lon="11.9394002"><ele>845.6666666666667</ele><time>2026-04-12T08:34:05.14Z</time></trkpt><trkpt lat="43.5908027" lon="11.9394737"><ele>847.5</ele><time>2026-04-12T08:34:07.134Z</time></trkpt><trkpt lat="43.5908712" lon="11.9394775"><ele>849.3333333333333</ele><time>2026-04-12T08:34:08.127Z</time></trkpt><trkpt lat="43.5909354" lon="11.9394707"><ele>851.1666666666666</ele><time>2026-04-12T08:34:09.137Z</time></trkpt><trkpt lat="43.5910084" lon="11.9394954"><ele>853.0</ele><time>2026-04-12T08:34:10.129Z</time></trkpt><trkpt lat="43.5910784" lon="11.9395326"><ele>852.9999999999999</ele><time>2026-04-12T08:34:11.135Z</time></trkpt><trkpt lat="43.59115" lon="11.9395681"><ele>853.0</ele><time>2026-04-12T08:34:12.137Z</time></trkpt><trkpt lat="43.5912272" lon="11.9395774"><ele>853.0</ele><time>2026-04-12T08:34:13.135Z</time></trkpt><trkpt lat="43.5913144" lon="11.9395855"><ele>853.0</ele><time>2026-04-12T08:34:14.143Z</time></trkpt><trkpt lat="43.5914021" lon="11.939577"><ele>852.9999999999999</ele><time>2026-04-12T08:34:15.134Z</time></trkpt><trkpt lat="43.5914749" lon="11.9395469"><ele>853.0</ele><time>2026-04-12T08:34:16.14Z</time></trkpt><trkpt lat="43.5915674" lon="11.9395438"><ele>855.6666666666666</ele><time>2026-04-12T08:34:17.132Z</time></trkpt><trkpt lat="43.5916301" lon="11.939521"><ele>858.3333333333333</ele><time>2026-04-12T08:34:18.131Z</time></trkpt><trkpt lat="43.5917186" lon="11.9396391"><ele>861.0</ele><time>2026-04-12T08:34:22.15Z</time></trkpt><trkpt lat="43.5917005" lon="11.9397726"><ele>863.6666666666667</ele><time>2026-04-12T08:34:24.143Z</time></trkpt><trkpt lat="43.5917412" lon="11.9398537"><ele>866.3333333333334</ele><time>2026-04-12T08:34:26.146Z</time></trkpt><trkpt lat="43.5917909" lon="11.9399188"><ele>869.0</ele><time>2026-04-12T08:34:27.115Z</time></trkpt><trkpt lat="43.5918602" lon="11.9400026"><ele>868.6666666666667</ele><time>2026-04-12T08:34:29.162Z</time></trkpt><trkpt lat="43.5918544" lon="11.9401261"><ele>868.3333333333334</ele><time>2026-04-12T08:34:31.154Z</time></trkpt><trkpt lat="43.591925" lon="11.9401973"><ele>868.0</ele><time>2026-04-12T08:34:33.136Z</time></trkpt><trkpt lat="43.5919766" lon="11.9402881"><ele>867.6666666666667</ele><time>2026-04-12T08:34:35.141Z</time></trkpt><trkpt lat="43.5920236" lon="11.9404066"><ele>867.3333333333334</ele><time>2026-04-12T08:34:37.132Z</time></trkpt><trkpt lat="43.5920597" lon="11.940502"><ele>867.0</ele><time>2026-04-12T08:34:38.143Z</time></trkpt><trkpt lat="43.5921395" lon="11.9406047"><ele>871.6</ele><time>2026-04-12T08:34:40.134Z</time></trkpt><trkpt lat="43.5922266" lon="11.9406933"><ele>876.2</ele><time>2026-04-12T08:34:42.145Z</time></trkpt><trkpt lat="43.5922752" lon="11.9408039"><ele>880.8</ele><time>2026-04-12T08:34:44.136Z</time></trkpt><trkpt lat="43.5923686" lon="11.9408776"><ele>885.4</ele><time>2026-04-12T08:34:46.15Z</time></trkpt><trkpt lat="43.5923451" lon="11.9409687"><ele>890.0</ele><time>2026-04-12T08:34:48.134Z</time></trkpt><trkpt lat="43.5922997" lon="11.9411155"><ele>891.1666666666667</ele><time>2026-04-12T08:34:50.126Z</time></trkpt><trkpt lat="43.5922714" lon="11.941217"><ele>892.3333333333334</ele><time>2026-04-12T08:34:51.138Z</time></trkpt><trkpt lat="43.5922346" lon="11.9412978"><ele>893.5</ele><time>2026-04-12T08:34:52.135Z</time></trkpt><trkpt lat="43.5921802" lon="11.9414074"><ele>894.6666666666667</ele><time>2026-04-12T08:34:54.122Z</time></trkpt><trkpt lat="43.5921182" lon="11.941465"><ele>895.8333333333334</ele><time>2026-04-12T08:34:56.135Z</time></trkpt><trkpt lat="43.5920452" lon="11.9415319"><ele>897.0</ele><time>2026-04-12T08:34:58.139Z</time></trkpt><trkpt lat="43.5919666" lon="11.9416084"><ele>893.5</ele><time>2026-04-12T08:35:00.146Z</time></trkpt><trkpt lat="43.5918944" lon="11.9416619"><ele>890.0</ele><time>2026-04-12T08:35:02.12Z</time></trkpt><trkpt lat="43.5918191" lon="11.9417166"><ele>886.5</ele><time>2026-04-12T08:35:04.136Z</time></trkpt><trkpt lat="43.5917418" lon="11.9417107"><ele>883.0</ele><time>2026-04-12T08:35:06.124Z</time></trkpt><trkpt lat="43.5916776" lon="11.941664"><ele>879.5</ele><time>2026-04-12T08:35:08.141Z</time></trkpt><trkpt lat="43.591574" lon="11.9416489"><ele>876.0</ele><time>2026-04-12T08:35:41.143Z</time></trkpt><trkpt lat="43.5914771" lon="11.9416154"><ele>875.0</ele><time>2026-04-12T08:35:43.132Z</time></trkpt><trkpt lat="43.5913986" lon="11.9416154"><ele>874.0</ele><time>2026-04-12T08:35:45.141Z</time></trkpt><trkpt lat="43.5913071" lon="11.9415726"><ele>873.0</ele><time>2026-04-12T08:35:48.137Z</time></trkpt><trkpt lat="43.5912261" lon="11.9415669"><ele>872.0</ele><time>2026-04-12T08:35:50.133Z</time></trkpt><trkpt lat="43.5911498" lon="11.9415461"><ele>871.0</ele><time>2026-04-12T08:35:52.146Z</time></trkpt><trkpt lat="43.5910735" lon="11.9414581"><ele>870.0</ele><time>2026-04-12T08:35:55.135Z</time></trkpt><trkpt lat="43.5910101" lon="11.9413664"><ele>866.8333333333334</ele><time>2026-04-12T08:35:58.132Z</time></trkpt><trkpt lat="43.5909679" lon="11.9412973"><ele>863.6666666666667</ele><time>2026-04-12T08:36:00.132Z</time></trkpt><trkpt lat="43.5909179" lon="11.941243"><ele>860.5</ele><time>2026-04-12T08:36:02.135Z</time></trkpt><trkpt lat="43.5908838" lon="11.941167"><ele>857.3333333333334</ele><time>2026-04-12T08:36:04.129Z</time></trkpt><trkpt lat="43.590863" lon="11.9410559"><ele>854.1666666666667</ele><time>2026-04-12T08:36:07.124Z</time></trkpt><trkpt lat="43.5907942" lon="11.9409429"><ele>851.0</ele><time>2026-04-12T08:36:10.129Z</time></trkpt><trkpt lat="43.590724" lon="11.940915"><ele>851.0000000000001</ele><time>2026-04-12T08:36:12.134Z</time></trkpt><trkpt lat="43.5906582" lon="11.9409502"><ele>851.0</ele><time>2026-04-12T08:36:14.138Z</time></trkpt><trkpt lat="43.5905795" lon="11.9409577"><ele>851.0</ele><time>2026-04-12T08:36:16.122Z</time></trkpt><trkpt lat="43.5904926" lon="11.9409579"><ele>851.0</ele><time>2026-04-12T08:36:18.138Z</time></trkpt><trkpt lat="43.5903843" lon="11.940966"><ele>851.0000000000001</ele><time>2026-04-12T08:36:20.123Z</time></trkpt><trkpt lat="43.5902911" lon="11.9409733"><ele>851.0</ele><time>2026-04-12T08:36:22.126Z</time></trkpt><trkpt lat="43.5902239" lon="11.9409484"><ele>847.0000000000001</ele><time>2026-04-12T08:36:24.119Z</time></trkpt><trkpt lat="43.5901491" lon="11.9409476"><ele>843.0</ele><time>2026-04-12T08:36:26.134Z</time></trkpt><trkpt lat="43.5900699" lon="11.9409477"><ele>839.0</ele><time>2026-04-12T08:36:29.165Z</time></trkpt><trkpt lat="43.5899816" lon="11.9409585"><ele>835.0</ele><time>2026-04-12T08:36:32.141Z</time></trkpt><trkpt lat="43.5898976" lon="11.940959"><ele>831.0000000000001</ele><time>2026-04-12T08:36:35.143Z</time></trkpt><trkpt lat="43.5898084" lon="11.9409594"><ele>827.0</ele><time>2026-04-12T08:36:38.126Z</time></trkpt><trkpt lat="43.5897199" lon="11.9409397"><ele>827.0000000000001</ele><time>2026-04-12T08:36:40.137Z</time></trkpt><trkpt lat="43.5896498" lon="11.9409493"><ele>827.0</ele><time>2026-04-12T08:36:42.119Z</time></trkpt><trkpt lat="43.589589" lon="11.9410282"><ele>827.0</ele><time>2026-04-12T08:36:44.134Z</time></trkpt><trkpt lat="43.5895225" lon="11.9410876"><ele>827.0</ele><time>2026-04-12T08:36:46.135Z</time></trkpt><trkpt lat="43.5894524" lon="11.9411422"><ele>827.0000000000001</ele><time>2026-04-12T08:36:49.119Z</time></trkpt><trkpt lat="43.5893733" lon="11.9411766"><ele>827.0</ele><time>2026-04-12T08:36:52.128Z</time></trkpt><trkpt lat="43.5892899" lon="11.9411702"><ele>823.0000000000001</ele><time>2026-04-12T08:36:55.135Z</time></trkpt><trkpt lat="43.5892116" lon="11.9411657"><ele>819.0</ele><time>2026-04-12T08:36:57.139Z</time></trkpt><trkpt lat="43.5891488" lon="11.9411537"><ele>815.0</ele><time>2026-04-12T08:36:59.132Z</time></trkpt><trkpt lat="43.5890815" lon="11.9411492"><ele>811.0</ele><time>2026-04-12T08:37:01.141Z</time></trkpt><trkpt lat="43.5889889" lon="11.941134"><ele>807.0000000000001</ele><time>2026-04-12T08:37:04.134Z</time></trkpt><trkpt lat="43.5889168" lon="11.9411127"><ele>803.0</ele><time>2026-04-12T08:37:06.129Z</time></trkpt><trkpt lat="43.588852" lon="11.9410605"><ele>803.0000000000001</ele><time>2026-04-12T08:37:09.121Z</time></trkpt><trkpt lat="43.5887733" lon="11.9410085"><ele>803.0</ele><time>2026-04-12T08:37:12.135Z</time></trkpt><trkpt lat="43.5886775" lon="11.9409984"><ele>803.0</ele><time>2026-04-12T08:37:45.162Z</time></trkpt><trkpt lat="43.5887428" lon="11.9410175"><ele>803.0</ele><time>2026-04-12T08:37:47.133Z</time></trkpt><trkpt lat="43.5888009" lon="11.9410537"><ele>803.0000000000001</ele><time>2026-04-12T08:37:49.122Z</time></trkpt><trkpt lat="43.5888622" lon="11.941108"><ele>803.0</ele><time>2026-04-12T08:37:51.144Z</time></trkpt><trkpt lat="43.5889214" lon="11.9411762"><ele>803.0000000000001</ele><time>2026-04-12T08:37:53.137Z</time></trkpt><trkpt lat="43.5889712" lon="11.9412621"><ele>803.0</ele><time>2026-04-12T08:37:55.13Z</time></trkpt><trkpt lat="43.5890354" lon="11.9413587"><ele>803.0</ele><time>2026-04-12T08:37:58.118Z</time></trkpt><trkpt lat="43.5891179" lon="11.9414061"><ele>803.0</ele><time>2026-04-12T08:38:01.149Z</time></trkpt><trkpt lat="43.5891922" lon="11.9414381"><ele>803.0000000000001</ele><time>2026-04-12T08:38:03.131Z</time></trkpt><trkpt lat="43.5892698" lon="11.941463"><ele>803.0</ele><time>2026-04-12T08:38:06.133Z</time></trkpt><trkpt lat="43.5893424" lon="11.9415096"><ele>803.0000000000001</ele><time>2026-04-12T08:38:08.126Z</time></trkpt><trkpt lat="43.5894095" lon="11.9415766"><ele>803.0</ele><time>2026-04-12T08:38:10.142Z</time></trkpt><trkpt lat="43.5894737" lon="11.9416708"><ele>803.0</ele><time>2026-04-12T08:38:12.133Z</time></trkpt><trkpt lat="43.5895256" lon="11.9417753"><ele>803.0</ele><time>2026-04-12T08:38:14.137Z</time></trkpt><trkpt lat="43.5895717" lon="11.9418388"><ele>803.0000000000001</ele><time>2026-04-12T08:38:16.142Z</time></trkpt><trkpt lat="43.5896221" lon="11.9419063"><ele>803.0</ele><time>2026-04-12T08:38:18.134Z</time></trkpt><trkpt lat="43.5896574" lon="11.9420052"><ele>804.6666666666667</ele><time>2026-04-12T08:38:20.138Z</time></trkpt><trkpt lat="43.5896938" lon="11.9420783"><ele>806.3333333333334</ele><time>2026-04-12T08:38:22.133Z</time></trkpt><trkpt lat="43.5897718" lon="11.9421872"><ele>808.0</ele><time>2026-04-12T08:38:31.139Z</time></trkpt><trkpt lat="43.589795" lon="11.9422752"><ele>809.6666666666667</ele><time>2026-04-12T08:38:36.155Z</time></trkpt><trkpt lat="43.5898392" lon="11.9423423"><ele>811.3333333333334</ele><time>2026-04-12T08:38:40.161Z</time></trkpt><trkpt lat="43.589892" lon="11.9424084"><ele>813.0</ele><time>2026-04-12T08:38:42.142Z</time></trkpt><trkpt lat="43.5899504" lon="11.9424925"><ele>811.5</ele><time>2026-04-12T08:38:44.143Z</time></trkpt><trkpt lat="43.5900042" lon="11.9425731"><ele>810.0</ele><time>2026-04-12T08:38:46.154Z</time></trkpt><trkpt lat="43.5900483" lon="11.9426358"><ele>808.5</ele><time>2026-04-12T08:38:48.151Z</time></trkpt><trkpt lat="43.5900982" lon="11.9427406"><ele>807.0</ele><time>2026-04-12T08:38:51.149Z</time></trkpt><trkpt lat="43.5901646" lon="11.9428253"><ele>805.5</ele><time>2026-04-12T08:38:53.151Z</time></trkpt><trkpt lat="43.5902242" lon="11.9429015"><ele>804.0</ele><time>2026-04-12T08:38:55.151Z</time></trkpt><trkpt lat="43.5902895" lon="11.9429739"><ele>805.8333333333334</ele><time>2026-04-12T08:38:58.153Z</time></trkpt><trkpt lat="43.590344" lon="11.9430378"><ele>807.6666666666667</ele><time>2026-04-12T08:39:00.148Z</time></trkpt><trkpt lat="43.59038" lon="11.9431209"><ele>809.5</ele><time>2026-04-12T08:39:02.144Z</time></trkpt><trkpt lat="43.5904258" lon="11.9432171"><ele>811.3333333333334</ele><time>2026-04-12T08:39:05.125Z</time></trkpt><trkpt lat="43.5904785" lon="11.9433615"><ele>813.1666666666667</ele><time>2026-04-12T08:39:22.156Z</time></trkpt><trkpt lat="43.5904179" lon="11.9434774"><ele>815.0</ele><time>2026-04-12T08:39:57.141Z</time></trkpt><trkpt lat="43.5903404" lon="11.9434535"><ele>815.0000000000001</ele><time>2026-04-12T08:40:01.147Z</time></trkpt><trkpt lat="43.5902533" lon="11.9434192"><ele>815.0</ele><time>2026-04-12T08:40:03.139Z</time></trkpt><trkpt lat="43.5901901" lon="11.9433987"><ele>815.0</ele><time>2026-04-12T08:40:05.163Z</time></trkpt><trkpt lat="43.5901508" lon="11.9434724"><ele>815.0</ele><time>2026-04-12T08:40:08.15Z</time></trkpt><trkpt lat="43.5901341" lon="11.9435847"><ele>815.0000000000001</ele><time>2026-04-12T08:40:11.153Z</time></trkpt><trkpt lat="43.5901529" lon="11.9436956"><ele>815.0</ele><time>2026-04-12T08:40:15.126Z</time></trkpt><trkpt lat="43.5901528" lon="11.9437867"><ele>815.0</ele><time>2026-04-12T08:40:19.156Z</time></trkpt><trkpt lat="43.5900777" lon="11.9438348"><ele>815.0</ele><time>2026-04-12T08:40:36.15Z</time></trkpt><trkpt lat="43.5900083" lon="11.9438478"><ele>815.0</ele><time>2026-04-12T08:40:38.156Z</time></trkpt><trkpt lat="43.5899328" lon="11.9438543"><ele>815.0</ele><time>2026-04-12T08:40:41.149Z</time></trkpt><trkpt lat="43.5898736" lon="11.9438874"><ele>815.0</ele><time>2026-04-12T08:40:47.152Z</time></trkpt><trkpt lat="43.5898119" lon="11.9439159"><ele>815.0</ele><time>2026-04-12T08:40:51.141Z</time></trkpt><trkpt lat="43.5897517" lon="11.9439702"><ele>815.0</ele><time>2026-04-12T08:41:02.149Z</time></trkpt><trkpt lat="43.5896948" lon="11.9440155"><ele>815.0</ele><time>2026-04-12T08:41:07.145Z</time></trkpt><trkpt lat="43.5896357" lon="11.9440634"><ele>815.0</ele><time>2026-04-12T08:41:18.159Z</time></trkpt><trkpt lat="43.5895879" lon="11.9441379"><ele>815.0</ele><time>2026-04-12T08:41:22.136Z</time></trkpt><trkpt lat="43.5895834" lon="11.9440465"><ele>815.0</ele><time>2026-04-12T08:42:19.15Z</time></trkpt><trkpt lat="43.5896244" lon="11.9439772"><ele>815.0</ele><time>2026-04-12T08:43:47.139Z</time></trkpt><trkpt lat="43.5897018" lon="11.9439654"><ele>815.0</ele><time>2026-04-12T08:43:51.136Z</time></trkpt><trkpt lat="43.589767" lon="11.9439216"><ele>815.0</ele><time>2026-04-12T08:43:55.129Z</time></trkpt><trkpt lat="43.5898317" lon="11.9439049"><ele>815.0</ele><time>2026-04-12T08:43:58.136Z</time></trkpt><trkpt lat="43.5898915" lon="11.9438737"><ele>815.0</ele><time>2026-04-12T08:44:00.144Z</time></trkpt><trkpt lat="43.5899781" lon="11.9438815"><ele>815.0</ele><time>2026-04-12T08:44:03.155Z</time></trkpt><trkpt lat="43.5900628" lon="11.9438609"><ele>815.0</ele><time>2026-04-12T08:44:05.154Z</time></trkpt><trkpt lat="43.5901159" lon="11.9438046"><ele>815.0</ele><time>2026-04-12T08:44:08.148Z</time></trkpt><trkpt lat="43.5901158" lon="11.9437108"><ele>815.0</ele><time>2026-04-12T08:44:11.15Z</time></trkpt><trkpt lat="43.5901154" lon="11.9436057"><ele>815.0</ele><time>2026-04-12T08:44:14.146Z</time></trkpt><trkpt lat="43.5901423" lon="11.9435104"><ele>815.0000000000001</ele><time>2026-04-12T08:44:18.155Z</time></trkpt><trkpt lat="43.5902172" lon="11.9434562"><ele>815.0</ele><time>2026-04-12T08:44:22.143Z</time></trkpt><trkpt lat="43.5902809" lon="11.9434622"><ele>815.0</ele><time>2026-04-12T08:44:24.138Z</time></trkpt><trkpt lat="43.5903417" lon="11.943491"><ele>815.0</ele><time>2026-04-12T08:44:27.147Z</time></trkpt><trkpt lat="43.5904451" lon="11.9434008"><ele>815.0000000000001</ele><time>2026-04-12T08:45:54.088Z</time></trkpt><trkpt lat="43.590416" lon="11.9433063"><ele>815.0</ele><time>2026-04-12T08:45:57.155Z</time></trkpt><trkpt lat="43.590394" lon="11.9432213"><ele>813.1666666666667</ele><time>2026-04-12T08:46:04.15Z</time></trkpt><trkpt lat="43.5903442" lon="11.9431218"><ele>811.3333333333334</ele><time>2026-04-12T08:46:14.14Z</time></trkpt><trkpt lat="43.5903044" lon="11.9430538"><ele>809.5</ele><time>2026-04-12T08:46:16.144Z</time></trkpt><trkpt lat="43.5902347" lon="11.9429838"><ele>807.6666666666667</ele><time>2026-04-12T08:46:18.143Z</time></trkpt><trkpt lat="43.590168" lon="11.9428785"><ele>805.8333333333334</ele><time>2026-04-12T08:46:20.154Z</time></trkpt><trkpt lat="43.5901017" lon="11.9427807"><ele>804.0</ele><time>2026-04-12T08:46:22.146Z</time></trkpt><trkpt lat="43.5900519" lon="11.9426942"><ele>804.0</ele><time>2026-04-12T08:46:25.145Z</time></trkpt><trkpt lat="43.5900014" lon="11.942613"><ele>804.0</ele><time>2026-04-12T08:46:28.157Z</time></trkpt><trkpt lat="43.5899455" lon="11.9425261"><ele>804.0</ele><time>2026-04-12T08:46:30.135Z</time></trkpt><trkpt lat="43.5898908" lon="11.9424577"><ele>804.0</ele><time>2026-04-12T08:46:32.122Z</time></trkpt><trkpt lat="43.5898282" lon="11.9424117"><ele>804.0</ele><time>2026-04-12T08:46:37.148Z</time></trkpt><trkpt lat="43.58981" lon="11.9423222"><ele>804.0</ele><time>2026-04-12T08:46:41.145Z</time></trkpt><trkpt lat="43.5897628" lon="11.9422329"><ele>805.8000000000001</ele><time>2026-04-12T08:46:46.148Z</time></trkpt><trkpt lat="43.5897068" lon="11.94212"><ele>807.6</ele><time>2026-04-12T08:46:48.147Z</time></trkpt><trkpt lat="43.5896776" lon="11.9420272"><ele>809.4</ele><time>2026-04-12T08:46:50.133Z</time></trkpt><trkpt lat="43.5896195" lon="11.9419266"><ele>811.2</ele><time>2026-04-12T08:46:53.149Z</time></trkpt><trkpt lat="43.5895541" lon="11.9418342"><ele>813.0</ele><time>2026-04-12T08:46:55.121Z</time></trkpt><trkpt lat="43.5895001" lon="11.9417204"><ele>811.3333333333334</ele><time>2026-04-12T08:46:57.132Z</time></trkpt><trkpt lat="43.5894482" lon="11.9416406"><ele>809.6666666666667</ele><time>2026-04-12T08:46:59.138Z</time></trkpt><trkpt lat="43.5893902" lon="11.9415926"><ele>808.0</ele><time>2026-04-12T08:47:01.135Z</time></trkpt><trkpt lat="43.5893159" lon="11.9415448"><ele>806.3333333333334</ele><time>2026-04-12T08:47:03.153Z</time></trkpt><trkpt lat="43.5892204" lon="11.9415046"><ele>804.6666666666667</ele><time>2026-04-12T08:47:06.125Z</time></trkpt><trkpt lat="43.589134" lon="11.9414505"><ele>803.0</ele><time>2026-04-12T08:47:08.136Z</time></trkpt><trkpt lat="43.5890575" lon="11.9413796"><ele>803.0000000000001</ele><time>2026-04-12T08:47:10.127Z</time></trkpt><trkpt lat="43.589001" lon="11.9413007"><ele>803.0</ele><time>2026-04-12T08:47:12.145Z</time></trkpt><trkpt lat="43.5889589" lon="11.9412103"><ele>803.0</ele><time>2026-04-12T08:47:14.131Z</time></trkpt><trkpt lat="43.5889061" lon="11.941149"><ele>803.0</ele><time>2026-04-12T08:47:16.122Z</time></trkpt><trkpt lat="43.5888184" lon="11.9410865"><ele>803.0000000000001</ele><time>2026-04-12T08:47:18.121Z</time></trkpt><trkpt lat="43.5887368" lon="11.9410291"><ele>803.0</ele><time>2026-04-12T08:47:20.13Z</time></trkpt><trkpt lat="43.5886501" lon="11.9410056"><ele>800.0000000000001</ele><time>2026-04-12T08:47:22.136Z</time></trkpt><trkpt lat="43.5885756" lon="11.9410159"><ele>797.0</ele><time>2026-04-12T08:47:24.135Z</time></trkpt><trkpt lat="43.5884997" lon="11.9410531"><ele>794.0</ele><time>2026-04-12T08:47:26.133Z</time></trkpt><trkpt lat="43.5883993" lon="11.9411029"><ele>791.0</ele><time>2026-04-12T08:47:28.128Z</time></trkpt><trkpt lat="43.5883014" lon="11.9411076"><ele>788.0000000000001</ele><time>2026-04-12T08:47:30.132Z</time></trkpt><trkpt lat="43.5882209" lon="11.9410956"><ele>785.0</ele><time>2026-04-12T08:47:32.141Z</time></trkpt><trkpt lat="43.5881579" lon="11.9410103"><ele>785.0</ele><time>2026-04-12T08:47:34.134Z</time></trkpt><trkpt lat="43.58812" lon="11.9409329"><ele>785.0</ele><time>2026-04-12T08:47:36.146Z</time></trkpt><trkpt lat="43.5880161" lon="11.9408666"><ele>785.0</ele><time>2026-04-12T08:47:38.138Z</time></trkpt><trkpt lat="43.587926" lon="11.9408125"><ele>785.0</ele><time>2026-04-12T08:47:40.137Z</time></trkpt><trkpt lat="43.5878277" lon="11.940752"><ele>785.0</ele><time>2026-04-12T08:47:42.139Z</time></trkpt><trkpt lat="43.5877664" lon="11.9406646"><ele>783.8333333333334</ele><time>2026-04-12T08:47:44.122Z</time></trkpt><trkpt lat="43.5876974" lon="11.9406069"><ele>782.6666666666667</ele><time>2026-04-12T08:47:46.127Z</time></trkpt><trkpt lat="43.5876214" lon="11.9405721"><ele>781.5</ele><time>2026-04-12T08:47:48.14Z</time></trkpt><trkpt lat="43.5875413" lon="11.9405651"><ele>780.3333333333333</ele><time>2026-04-12T08:47:50.143Z</time></trkpt><trkpt lat="43.587461" lon="11.94053"><ele>779.1666666666666</ele><time>2026-04-12T08:47:52.146Z</time></trkpt><trkpt lat="43.5873613" lon="11.9405495"><ele>778.0</ele><time>2026-04-12T08:47:54.147Z</time></trkpt><trkpt lat="43.5872727" lon="11.9405627"><ele>778.0</ele><time>2026-04-12T08:47:56.137Z</time></trkpt><trkpt lat="43.5871671" lon="11.9406032"><ele>778.0</ele><time>2026-04-12T08:47:58.14Z</time></trkpt><trkpt lat="43.5870694" lon="11.9406599"><ele>778.0</ele><time>2026-04-12T08:48:00.129Z</time></trkpt><trkpt lat="43.5869952" lon="11.9406487"><ele>778.0</ele><time>2026-04-12T08:48:02.133Z</time></trkpt><trkpt lat="43.5869406" lon="11.9405929"><ele>778.0</ele><time>2026-04-12T08:48:04.129Z</time></trkpt><trkpt lat="43.5868322" lon="11.9405289"><ele>775.6666666666666</ele><time>2026-04-12T08:48:06.122Z</time></trkpt><trkpt lat="43.5867555" lon="11.9404848"><ele>773.3333333333333</ele><time>2026-04-12T08:48:08.131Z</time></trkpt><trkpt lat="43.5866792" lon="11.9404503"><ele>771.0</ele><time>2026-04-12T08:48:10.128Z</time></trkpt><trkpt lat="43.586608" lon="11.9404693"><ele>768.6666666666666</ele><time>2026-04-12T08:48:12.142Z</time></trkpt><trkpt lat="43.5865185" lon="11.9404818"><ele>766.3333333333333</ele><time>2026-04-12T08:48:14.131Z</time></trkpt><trkpt lat="43.5864466" lon="11.9404558"><ele>764.0</ele><time>2026-04-12T08:48:16.143Z</time></trkpt><trkpt lat="43.5863774" lon="11.9403812"><ele>764.0</ele><time>2026-04-12T08:48:19.125Z</time></trkpt><trkpt lat="43.5862946" lon="11.9403013"><ele>764.0</ele><time>2026-04-12T08:48:21.13Z</time></trkpt><trkpt lat="43.5862251" lon="11.9401872"><ele>764.0</ele><time>2026-04-12T08:48:23.126Z</time></trkpt><trkpt lat="43.586143" lon="11.9401429"><ele>764.0</ele><time>2026-04-12T08:48:25.127Z</time></trkpt><trkpt lat="43.5860745" lon="11.9402271"><ele>764.0</ele><time>2026-04-12T08:48:28.143Z</time></trkpt><trkpt lat="43.585979" lon="11.940258"><ele>760.3333333333333</ele><time>2026-04-12T08:48:30.125Z</time></trkpt><trkpt lat="43.5858864" lon="11.940277"><ele>756.6666666666666</ele><time>2026-04-12T08:48:32.127Z</time></trkpt><trkpt lat="43.5857957" lon="11.9403213"><ele>753.0</ele><time>2026-04-12T08:48:34.13Z</time></trkpt><trkpt lat="43.5857209" lon="11.9403414"><ele>749.3333333333334</ele><time>2026-04-12T08:48:36.134Z</time></trkpt><trkpt lat="43.5856555" lon="11.940336"><ele>745.6666666666667</ele><time>2026-04-12T08:48:38.147Z</time></trkpt><trkpt lat="43.5855887" lon="11.9403494"><ele>742.0</ele><time>2026-04-12T08:48:40.126Z</time></trkpt><trkpt lat="43.5855017" lon="11.9403706"><ele>742.0</ele><time>2026-04-12T08:48:42.142Z</time></trkpt><trkpt lat="43.585423" lon="11.9403818"><ele>742.0</ele><time>2026-04-12T08:48:44.136Z</time></trkpt><trkpt lat="43.5853346" lon="11.940353"><ele>742.0</ele><time>2026-04-12T08:48:47.124Z</time></trkpt><trkpt lat="43.585237" lon="11.9403312"><ele>742.0</ele><time>2026-04-12T08:48:49.143Z</time></trkpt><trkpt lat="43.5851702" lon="11.9403147"><ele>742.0</ele><time>2026-04-12T08:48:50.134Z</time></trkpt><trkpt lat="43.5850784" lon="11.9403007"><ele>742.0</ele><time>2026-04-12T08:48:52.147Z</time></trkpt><trkpt lat="43.5850356" lon="11.9402243"><ele>738.8333333333334</ele><time>2026-04-12T08:48:54.136Z</time></trkpt><trkpt lat="43.5849884" lon="11.9400885"><ele>735.6666666666667</ele><time>2026-04-12T08:48:57.127Z</time></trkpt><trkpt lat="43.5849267" lon="11.9400514"><ele>732.5</ele><time>2026-04-12T08:49:00.126Z</time></trkpt><trkpt lat="43.5849088" lon="11.9401765"><ele>729.3333333333334</ele><time>2026-04-12T08:49:02.124Z</time></trkpt><trkpt lat="43.5849176" lon="11.9402776"><ele>726.1666666666666</ele><time>2026-04-12T08:49:03.121Z</time></trkpt><trkpt lat="43.5849288" lon="11.9404008"><ele>723.0</ele><time>2026-04-12T08:49:04.129Z</time></trkpt><trkpt lat="43.5849516" lon="11.9405536"><ele>723.0</ele><time>2026-04-12T08:49:05.136Z</time></trkpt><trkpt lat="43.584975" lon="11.9406855"><ele>723.0</ele><time>2026-04-12T08:49:06.146Z</time></trkpt><trkpt lat="43.5850075" lon="11.9408004"><ele>723.0</ele><time>2026-04-12T08:49:07.145Z</time></trkpt><trkpt lat="43.5850537" lon="11.9409129"><ele>723.0</ele><time>2026-04-12T08:49:08.117Z</time></trkpt><trkpt lat="43.5851149" lon="11.9410257"><ele>723.0</ele><time>2026-04-12T08:49:09.134Z</time></trkpt><trkpt lat="43.5851992" lon="11.9411467"><ele>723.75</ele><time>2026-04-12T08:49:10.132Z</time></trkpt><trkpt lat="43.585306" lon="11.9412718"><ele>724.5</ele><time>2026-04-12T08:49:11.13Z</time></trkpt><trkpt lat="43.5854289" lon="11.9413878"><ele>725.25</ele><time>2026-04-12T08:49:12.136Z</time></trkpt><trkpt lat="43.5855649" lon="11.9415017"><ele>726.0</ele><time>2026-04-12T08:49:13.14Z</time></trkpt><trkpt lat="43.5857093" lon="11.9416185"><ele>721.3333333333334</ele><time>2026-04-12T08:49:14.127Z</time></trkpt><trkpt lat="43.5858437" lon="11.9417346"><ele>716.6666666666667</ele><time>2026-04-12T08:49:15.135Z</time></trkpt><trkpt lat="43.5859656" lon="11.941861"><ele>712.0</ele><time>2026-04-12T08:49:16.153Z</time></trkpt><trkpt lat="43.5860712" lon="11.9419982"><ele>712.0</ele><time>2026-04-12T08:49:17.128Z</time></trkpt><trkpt lat="43.5861614" lon="11.942146"><ele>712.0</ele><time>2026-04-12T08:49:18.136Z</time></trkpt><trkpt lat="43.5862387" lon="11.9423014"><ele>712.0</ele><time>2026-04-12T08:49:19.14Z</time></trkpt><trkpt lat="43.5863092" lon="11.9424513"><ele>712.0</ele><time>2026-04-12T08:49:20.13Z</time></trkpt><trkpt lat="43.5863747" lon="11.942599"><ele>715.75</ele><time>2026-04-12T08:49:21.138Z</time></trkpt><trkpt lat="43.5864263" lon="11.9427535"><ele>719.5</ele><time>2026-04-12T08:49:22.126Z</time></trkpt><trkpt lat="43.586458" lon="11.9429149"><ele>723.25</ele><time>2026-04-12T08:49:23.124Z</time></trkpt><trkpt lat="43.5864634" lon="11.9430713"><ele>727.0</ele><time>2026-04-12T08:49:24.136Z</time></trkpt><trkpt lat="43.5864423" lon="11.943214"><ele>727.0</ele><time>2026-04-12T08:49:25.122Z</time></trkpt><trkpt lat="43.5863937" lon="11.9433363"><ele>727.0</ele><time>2026-04-12T08:49:26.121Z</time></trkpt><trkpt lat="43.5863204" lon="11.943436"><ele>727.0</ele><time>2026-04-12T08:49:27.127Z</time></trkpt><trkpt lat="43.5862234" lon="11.9434964"><ele>727.0</ele><time>2026-04-12T08:49:28.122Z</time></trkpt><trkpt lat="43.5861046" lon="11.9435086"><ele>727.0</ele><time>2026-04-12T08:49:29.115Z</time></trkpt><trkpt lat="43.5859689" lon="11.9434842"><ele>732.3333333333334</ele><time>2026-04-12T08:49:30.142Z</time></trkpt><trkpt lat="43.5858136" lon="11.9434351"><ele>737.6666666666666</ele><time>2026-04-12T08:49:31.124Z</time></trkpt><trkpt lat="43.5856495" lon="11.9434048"><ele>743.0</ele><time>2026-04-12T08:49:32.129Z</time></trkpt><trkpt lat="43.5854918" lon="11.9434187"><ele>740.5</ele><time>2026-04-12T08:49:33.116Z</time></trkpt><trkpt lat="43.585339" lon="11.9434476"><ele>738.0</ele><time>2026-04-12T08:49:34.127Z</time></trkpt><trkpt lat="43.5852055" lon="11.9434829"><ele>735.5</ele><time>2026-04-12T08:49:35.12Z</time></trkpt><trkpt lat="43.5850826" lon="11.9435138"><ele>733.0</ele><time>2026-04-12T08:49:36.14Z</time></trkpt><trkpt lat="43.5849745" lon="11.9435516"><ele>733.0</ele><time>2026-04-12T08:49:37.127Z</time></trkpt><trkpt lat="43.5848817" lon="11.9435929"><ele>733.0</ele><time>2026-04-12T08:49:38.122Z</time></trkpt><trkpt lat="43.5847925" lon="11.9436283"><ele>733.0</ele><time>2026-04-12T08:49:39.132Z</time></trkpt><trkpt lat="43.5847172" lon="11.9436559"><ele>733.0</ele><time>2026-04-12T08:49:40.138Z</time></trkpt><trkpt lat="43.5846539" lon="11.943676"><ele>733.0</ele><time>2026-04-12T08:49:41.128Z</time></trkpt><trkpt lat="43.5845677" lon="11.9437103"><ele>733.0</ele><time>2026-04-12T08:49:43.134Z</time></trkpt><trkpt lat="43.5844989" lon="11.9437481"><ele>733.0</ele><time>2026-04-12T08:49:45.132Z</time></trkpt><trkpt lat="43.5846025" lon="11.9437408"><ele>733.0</ele><time>2026-04-12T08:49:52.127Z</time></trkpt><trkpt lat="43.5846764" lon="11.9437039"><ele>733.0</ele><time>2026-04-12T08:49:53.126Z</time></trkpt><trkpt lat="43.5847761" lon="11.9436562"><ele>733.0</ele><time>2026-04-12T08:49:54.144Z</time></trkpt><trkpt lat="43.5848731" lon="11.9436129"><ele>733.0</ele><time>2026-04-12T08:49:55.135Z</time></trkpt><trkpt lat="43.5849637" lon="11.9435761"><ele>733.0</ele><time>2026-04-12T08:49:56.13Z</time></trkpt><trkpt lat="43.5850502" lon="11.9435443"><ele>733.0</ele><time>2026-04-12T08:49:57.123Z</time></trkpt><trkpt lat="43.5851336" lon="11.9435204"><ele>733.0</ele><time>2026-04-12T08:49:58.125Z</time></trkpt><trkpt lat="43.5852103" lon="11.9434991"><ele>733.0</ele><time>2026-04-12T08:49:59.131Z</time></trkpt><trkpt lat="43.5853129" lon="11.9435121"><ele>733.0</ele><time>2026-04-12T08:50:01.132Z</time></trkpt><trkpt lat="43.5852608" lon="11.9436126"><ele>733.0</ele><time>2026-04-12T08:50:05.131Z</time></trkpt><trkpt lat="43.5851952" lon="11.9436464"><ele>733.0</ele><time>2026-04-12T08:50:06.131Z</time></trkpt><trkpt lat="43.5851249" lon="11.9436761"><ele>733.0</ele><time>2026-04-12T08:50:07.118Z</time></trkpt><trkpt lat="43.5850416" lon="11.9437116"><ele>733.0</ele><time>2026-04-12T08:50:08.139Z</time></trkpt><trkpt lat="43.5849672" lon="11.9437395"><ele>733.0</ele><time>2026-04-12T08:50:09.125Z</time></trkpt><trkpt lat="43.5848995" lon="11.9438286"><ele>733.0</ele><time>2026-04-12T08:50:10.12Z</time></trkpt><trkpt lat="43.5848335" lon="11.9439035"><ele>733.0</ele><time>2026-04-12T08:50:11.13Z</time></trkpt><trkpt lat="43.5847695" lon="11.9440004"><ele>733.0</ele><time>2026-04-12T08:50:12.143Z</time></trkpt><trkpt lat="43.5847238" lon="11.9440882"><ele>733.0</ele><time>2026-04-12T08:50:13.136Z</time></trkpt><trkpt lat="43.5847277" lon="11.9442749"><ele>733.0</ele><time>2026-04-12T08:50:15.144Z</time></trkpt><trkpt lat="43.5847717" lon="11.9444291"><ele>733.0</ele><time>2026-04-12T08:50:16.141Z</time></trkpt><trkpt lat="43.5847938" lon="11.9446201"><ele>735.3333333333334</ele><time>2026-04-12T08:50:17.138Z</time></trkpt><trkpt lat="43.5848084" lon="11.9448227"><ele>737.6666666666666</ele><time>2026-04-12T08:50:18.127Z</time></trkpt><trkpt lat="43.5848095" lon="11.9450368"><ele>740.0</ele><time>2026-04-12T08:50:19.137Z</time></trkpt><trkpt lat="43.5848199" lon="11.9452826"><ele>740.0</ele><time>2026-04-12T08:50:20.132Z</time></trkpt><trkpt lat="43.5848141" lon="11.9455277"><ele>740.0</ele><time>2026-04-12T08:50:21.125Z</time></trkpt><trkpt lat="43.5847969" lon="11.9457382"><ele>740.0</ele><time>2026-04-12T08:50:22.131Z</time></trkpt><trkpt lat="43.5847907" lon="11.9458936"><ele>740.0</ele><time>2026-04-12T08:50:23.131Z</time></trkpt><trkpt lat="43.5847986" lon="11.9460035"><ele>737.75</ele><time>2026-04-12T08:50:24.133Z</time></trkpt><trkpt lat="43.5848818" lon="11.9461607"><ele>735.5</ele><time>2026-04-12T08:50:26.128Z</time></trkpt><trkpt lat="43.5849707" lon="11.9462545"><ele>733.25</ele><time>2026-04-12T08:50:27.14Z</time></trkpt><trkpt lat="43.585058" lon="11.9463631"><ele>731.0</ele><time>2026-04-12T08:50:28.12Z</time></trkpt><trkpt lat="43.5851538" lon="11.9465169"><ele>731.0</ele><time>2026-04-12T08:50:29.119Z</time></trkpt><trkpt lat="43.585232" lon="11.946706"><ele>731.0</ele><time>2026-04-12T08:50:30.125Z</time></trkpt><trkpt lat="43.5852976" lon="11.9468834"><ele>731.0</ele><time>2026-04-12T08:50:31.129Z</time></trkpt><trkpt lat="43.5853401" lon="11.9469977"><ele>731.0</ele><time>2026-04-12T08:50:32.123Z</time></trkpt><trkpt lat="43.5853788" lon="11.9470821"><ele>736.8</ele><time>2026-04-12T08:50:33.122Z</time></trkpt><trkpt lat="43.5854455" lon="11.9471409"><ele>742.5999999999999</ele><time>2026-04-12T08:50:34.126Z</time></trkpt><trkpt lat="43.5854921" lon="11.9472069"><ele>748.4</ele><time>2026-04-12T08:50:35.123Z</time></trkpt><trkpt lat="43.5855244" lon="11.947358"><ele>754.2</ele><time>2026-04-12T08:50:37.129Z</time></trkpt><trkpt lat="43.5854792" lon="11.9474716"><ele>760.0</ele><time>2026-04-12T08:50:38.149Z</time></trkpt><trkpt lat="43.5854147" lon="11.9475838"><ele>761.2</ele><time>2026-04-12T08:50:39.121Z</time></trkpt><trkpt lat="43.5853525" lon="11.9477083"><ele>762.4</ele><time>2026-04-12T08:50:40.124Z</time></trkpt><trkpt lat="43.5852867" lon="11.9478173"><ele>763.5999999999999</ele><time>2026-04-12T08:50:41.136Z</time></trkpt><trkpt lat="43.5852159" lon="11.9479142"><ele>764.8</ele><time>2026-04-12T08:50:42.12Z</time></trkpt><trkpt lat="43.5851666" lon="11.9480075"><ele>766.0</ele><time>2026-04-12T08:50:43.128Z</time></trkpt><trkpt lat="43.5851314" lon="11.9481001"><ele>761.5999999999999</ele><time>2026-04-12T08:50:44.133Z</time></trkpt><trkpt lat="43.5851277" lon="11.948215"><ele>757.2</ele><time>2026-04-12T08:50:45.128Z</time></trkpt><trkpt lat="43.5851288" lon="11.9483644"><ele>752.8</ele><time>2026-04-12T08:50:46.14Z</time></trkpt><trkpt lat="43.5851376" lon="11.9485171"><ele>748.4000000000001</ele><time>2026-04-12T08:50:47.133Z</time></trkpt><trkpt lat="43.5851571" lon="11.9486686"><ele>744.0</ele><time>2026-04-12T08:50:48.139Z</time></trkpt><trkpt lat="43.5851826" lon="11.9488302"><ele>744.0</ele><time>2026-04-12T08:50:49.13Z</time></trkpt><trkpt lat="43.5851813" lon="11.9489404"><ele>744.0</ele><time>2026-04-12T08:50:50.145Z</time></trkpt><trkpt lat="43.5851638" lon="11.9490697"><ele>744.0</ele><time>2026-04-12T08:50:51.14Z</time></trkpt><trkpt lat="43.5851233" lon="11.9491552"><ele>744.0</ele><time>2026-04-12T08:50:52.131Z</time></trkpt><trkpt lat="43.5850691" lon="11.9492643"><ele>744.0</ele><time>2026-04-12T08:50:54.15Z</time></trkpt><trkpt lat="43.5850503" lon="11.9493888"><ele>744.0</ele><time>2026-04-12T08:50:56.141Z</time></trkpt><trkpt lat="43.5850841" lon="11.9495097"><ele>743.4000000000001</ele><time>2026-04-12T08:50:58.138Z</time></trkpt><trkpt lat="43.5851569" lon="11.9495699"><ele>742.8</ele><time>2026-04-12T08:51:00.125Z</time></trkpt><trkpt lat="43.5852898" lon="11.9495814"><ele>742.2</ele><time>2026-04-12T08:51:02.14Z</time></trkpt><trkpt lat="43.5853761" lon="11.9495765"><ele>741.5999999999999</ele><time>2026-04-12T08:51:03.137Z</time></trkpt><trkpt lat="43.5854796" lon="11.9495856"><ele>741.0</ele><time>2026-04-12T08:51:04.131Z</time></trkpt><trkpt lat="43.5855684" lon="11.9495935"><ele>741.0</ele><time>2026-04-12T08:51:05.128Z</time></trkpt><trkpt lat="43.5856661" lon="11.9496085"><ele>741.0</ele><time>2026-04-12T08:51:06.139Z</time></trkpt><trkpt lat="43.5857599" lon="11.9496297"><ele>741.0</ele><time>2026-04-12T08:51:07.136Z</time></trkpt><trkpt lat="43.5858438" lon="11.9496786"><ele>741.0</ele><time>2026-04-12T08:51:08.117Z</time></trkpt><trkpt lat="43.5859103" lon="11.9497361"><ele>741.0</ele><time>2026-04-12T08:51:09.137Z</time></trkpt><trkpt lat="43.5859619" lon="11.9497889"><ele>741.0</ele><time>2026-04-12T08:51:10.127Z</time></trkpt><trkpt lat="43.5860722" lon="11.9498728"><ele>744.0</ele><time>2026-04-12T08:51:12.128Z</time></trkpt><trkpt lat="43.586186" lon="11.9500039"><ele>747.0</ele><time>2026-04-12T08:51:23.145Z</time></trkpt><trkpt lat="43.5862448" lon="11.9500425"><ele>750.0</ele><time>2026-04-12T08:51:24.153Z</time></trkpt><trkpt lat="43.5863061" lon="11.9500937"><ele>753.0</ele><time>2026-04-12T08:51:25.125Z</time></trkpt><trkpt lat="43.5863752" lon="11.9501576"><ele>756.0</ele><time>2026-04-12T08:51:26.139Z</time></trkpt><trkpt lat="43.5864499" lon="11.9502235"><ele>756.1999999999999</ele><time>2026-04-12T08:51:27.13Z</time></trkpt><trkpt lat="43.586506" lon="11.9502853"><ele>756.4</ele><time>2026-04-12T08:51:28.149Z</time></trkpt><trkpt lat="43.5865276" lon="11.9504357"><ele>756.6</ele><time>2026-04-12T08:51:30.123Z</time></trkpt><trkpt lat="43.5864283" lon="11.9505491"><ele>756.8</ele><time>2026-04-12T08:51:32.138Z</time></trkpt><trkpt lat="43.5863064" lon="11.9505918"><ele>757.0</ele><time>2026-04-12T08:51:33.133Z</time></trkpt><trkpt lat="43.5861952" lon="11.9506825"><ele>756.8</ele><time>2026-04-12T08:51:34.136Z</time></trkpt><trkpt lat="43.5860966" lon="11.950748"><ele>756.6</ele><time>2026-04-12T08:51:35.126Z</time></trkpt><trkpt lat="43.586025" lon="11.9507851"><ele>756.4</ele><time>2026-04-12T08:51:36.13Z</time></trkpt><trkpt lat="43.585957" lon="11.950832"><ele>756.1999999999999</ele><time>2026-04-12T08:51:37.128Z</time></trkpt><trkpt lat="43.585913" lon="11.950962"><ele>756.0</ele><time>2026-04-12T08:51:39.132Z</time></trkpt><trkpt lat="43.5858762" lon="11.951171"><ele>756.0</ele><time>2026-04-12T08:51:41.141Z</time></trkpt><trkpt lat="43.5858525" lon="11.9513027"><ele>756.0</ele><time>2026-04-12T08:51:42.15Z</time></trkpt><trkpt lat="43.5858224" lon="11.9514295"><ele>756.0</ele><time>2026-04-12T08:51:43.12Z</time></trkpt><trkpt lat="43.5857773" lon="11.9515652"><ele>756.0</ele><time>2026-04-12T08:51:44.135Z</time></trkpt><trkpt lat="43.5857307" lon="11.9516878"><ele>756.0</ele><time>2026-04-12T08:51:45.145Z</time></trkpt><trkpt lat="43.5856989" lon="11.9517884"><ele>757.1999999999999</ele><time>2026-04-12T08:51:46.132Z</time></trkpt><trkpt lat="43.5856861" lon="11.9519175"><ele>758.4</ele><time>2026-04-12T08:51:48.133Z</time></trkpt><trkpt lat="43.5857577" lon="11.9520765"><ele>759.6</ele><time>2026-04-12T08:51:50.128Z</time></trkpt><trkpt lat="43.5858027" lon="11.9521884"><ele>760.8</ele><time>2026-04-12T08:51:51.136Z</time></trkpt><trkpt lat="43.5858417" lon="11.9522814"><ele>762.0</ele><time>2026-04-12T08:51:52.13Z</time></trkpt><trkpt lat="43.5859042" lon="11.9523745"><ele>762.0</ele><time>2026-04-12T08:51:54.129Z</time></trkpt><trkpt lat="43.5860411" lon="11.952398"><ele>762.0</ele><time>2026-04-12T08:51:56.124Z</time></trkpt><trkpt lat="43.5861266" lon="11.9524233"><ele>762.0</ele><time>2026-04-12T08:51:57.125Z</time></trkpt><trkpt lat="43.5862013" lon="11.9524875"><ele>762.0</ele><time>2026-04-12T08:51:58.129Z</time></trkpt><trkpt lat="43.5862924" lon="11.9525455"><ele>762.0</ele><time>2026-04-12T08:52:00.121Z</time></trkpt><trkpt lat="43.5862916" lon="11.952694"><ele>767.4000000000001</ele><time>2026-04-12T08:52:02.127Z</time></trkpt><trkpt lat="43.5862624" lon="11.9527915"><ele>772.8000000000001</ele><time>2026-04-12T08:52:03.13Z</time></trkpt><trkpt lat="43.5862253" lon="11.9528895"><ele>778.2</ele><time>2026-04-12T08:52:05.134Z</time></trkpt><trkpt lat="43.5863088" lon="11.9529794"><ele>783.6</ele><time>2026-04-12T08:52:08.127Z</time></trkpt><trkpt lat="43.5863724" lon="11.9530097"><ele>789.0</ele><time>2026-04-12T08:52:09.122Z</time></trkpt><trkpt lat="43.5864695" lon="11.9531075"><ele>789.0</ele><time>2026-04-12T08:52:11.135Z</time></trkpt><trkpt lat="43.5865194" lon="11.9532132"><ele>789.0</ele><time>2026-04-12T08:52:12.127Z</time></trkpt><trkpt lat="43.5865694" lon="11.9533226"><ele>789.0</ele><time>2026-04-12T08:52:13.134Z</time></trkpt><trkpt lat="43.5866166" lon="11.9534309"><ele>789.0</ele><time>2026-04-12T08:52:14.122Z</time></trkpt><trkpt lat="43.5866754" lon="11.953516"><ele>789.0</ele><time>2026-04-12T08:52:15.131Z</time></trkpt><trkpt lat="43.5867384" lon="11.9536081"><ele>788.5</ele><time>2026-04-12T08:52:17.137Z</time></trkpt><trkpt lat="43.5867696" lon="11.9536986"><ele>788.0</ele><time>2026-04-12T08:52:19.134Z</time></trkpt><trkpt lat="43.5868137" lon="11.9537995"><ele>787.5</ele><time>2026-04-12T08:52:21.123Z</time></trkpt><trkpt lat="43.5868791" lon="11.953876"><ele>787.0</ele><time>2026-04-12T08:52:22.131Z</time></trkpt><trkpt lat="43.5869403" lon="11.9539503"><ele>786.5</ele><time>2026-04-12T08:52:23.14Z</time></trkpt><trkpt lat="43.5869875" lon="11.9540242"><ele>786.0</ele><time>2026-04-12T08:52:24.125Z</time></trkpt><trkpt lat="43.5870307" lon="11.9541105"><ele>788.8333333333334</ele><time>2026-04-12T08:52:25.135Z</time></trkpt><trkpt lat="43.5870587" lon="11.9542146"><ele>791.6666666666667</ele><time>2026-04-12T08:52:26.148Z</time></trkpt><trkpt lat="43.5870746" lon="11.9543141"><ele>794.5</ele><time>2026-04-12T08:52:27.138Z</time></trkpt><trkpt lat="43.5870842" lon="11.9544068"><ele>797.3333333333334</ele><time>2026-04-12T08:52:28.15Z</time></trkpt><trkpt lat="43.5871266" lon="11.9545597"><ele>800.1666666666667</ele><time>2026-04-12T08:52:30.147Z</time></trkpt><trkpt lat="43.5871985" lon="11.9546529"><ele>803.0</ele><time>2026-04-12T08:52:32.139Z</time></trkpt><trkpt lat="43.5872453" lon="11.9547903"><ele>803.0</ele><time>2026-04-12T08:52:35.142Z</time></trkpt><trkpt lat="43.5872529" lon="11.9549672"><ele>803.0</ele><time>2026-04-12T08:52:37.135Z</time></trkpt><trkpt lat="43.5872756" lon="11.9551048"><ele>803.0</ele><time>2026-04-12T08:52:38.128Z</time></trkpt><trkpt lat="43.5872833" lon="11.9552544"><ele>803.0</ele><time>2026-04-12T08:52:39.136Z</time></trkpt><trkpt lat="43.5872856" lon="11.95537"><ele>803.0</ele><time>2026-04-12T08:52:40.129Z</time></trkpt><trkpt lat="43.5873037" lon="11.9554769"><ele>804.4</ele><time>2026-04-12T08:52:41.111Z</time></trkpt><trkpt lat="43.5873252" lon="11.9555716"><ele>805.8</ele><time>2026-04-12T08:52:42.141Z</time></trkpt><trkpt lat="43.5873314" lon="11.9557223"><ele>807.2</ele><time>2026-04-12T08:52:44.152Z</time></trkpt><trkpt lat="43.5873029" lon="11.9558478"><ele>808.6</ele><time>2026-04-12T08:52:46.136Z</time></trkpt><trkpt lat="43.5872537" lon="11.9559748"><ele>810.0</ele><time>2026-04-12T08:52:48.156Z</time></trkpt><trkpt lat="43.5872737" lon="11.9560687"><ele>810.3333333333334</ele><time>2026-04-12T08:52:50.134Z</time></trkpt><trkpt lat="43.5873376" lon="11.9561537"><ele>810.6666666666667</ele><time>2026-04-12T08:52:52.139Z</time></trkpt><trkpt lat="43.5873983" lon="11.9561814"><ele>811.0</ele><time>2026-04-12T08:52:54.166Z</time></trkpt><trkpt lat="43.5874717" lon="11.9561715"><ele>811.3333333333334</ele><time>2026-04-12T08:52:56.129Z</time></trkpt><trkpt lat="43.5875533" lon="11.9562083"><ele>811.6666666666667</ele><time>2026-04-12T08:52:58.138Z</time></trkpt><trkpt lat="43.5876248" lon="11.9562521"><ele>812.0</ele><time>2026-04-12T08:53:00.132Z</time></trkpt><trkpt lat="43.5877172" lon="11.9563226"><ele>812.0000000000001</ele><time>2026-04-12T08:53:02.153Z</time></trkpt><trkpt lat="43.5878089" lon="11.9564473"><ele>812.0</ele><time>2026-04-12T08:53:04.125Z</time></trkpt><trkpt lat="43.5878503" lon="11.9565128"><ele>812.0</ele><time>2026-04-12T08:53:05.132Z</time></trkpt><trkpt lat="43.5879018" lon="11.9566206"><ele>812.0</ele><time>2026-04-12T08:53:07.133Z</time></trkpt><trkpt lat="43.58793" lon="11.956704"><ele>812.0000000000001</ele><time>2026-04-12T08:53:08.123Z</time></trkpt><trkpt lat="43.5879762" lon="11.9567781"><ele>812.0</ele><time>2026-04-12T08:53:09.135Z</time></trkpt><trkpt lat="43.5880417" lon="11.9569187"><ele>815.5000000000001</ele><time>2026-04-12T08:53:11.141Z</time></trkpt><trkpt lat="43.5880483" lon="11.9570233"><ele>819.0</ele><time>2026-04-12T08:53:12.129Z</time></trkpt><trkpt lat="43.5880482" lon="11.9571135"><ele>822.5</ele><time>2026-04-12T08:53:13.139Z</time></trkpt><trkpt lat="43.5880953" lon="11.9572565"><ele>826.0</ele><time>2026-04-12T08:53:15.124Z</time></trkpt><trkpt lat="43.5881519" lon="11.9573483"><ele>829.5000000000001</ele><time>2026-04-12T08:53:16.126Z</time></trkpt><trkpt lat="43.5882028" lon="11.9574278"><ele>833.0</ele><time>2026-04-12T08:53:17.131Z</time></trkpt><trkpt lat="43.5882467" lon="11.9574971"><ele>833.6666666666667</ele><time>2026-04-12T08:53:18.125Z</time></trkpt><trkpt lat="43.5882891" lon="11.9575828"><ele>834.3333333333334</ele><time>2026-04-12T08:53:19.131Z</time></trkpt><trkpt lat="43.5883149" lon="11.9577077"><ele>835.0</ele><time>2026-04-12T08:53:20.128Z</time></trkpt><trkpt lat="43.5883348" lon="11.9578449"><ele>835.6666666666667</ele><time>2026-04-12T08:53:21.124Z</time></trkpt><trkpt lat="43.5883418" lon="11.9579765"><ele>836.3333333333334</ele><time>2026-04-12T08:53:22.126Z</time></trkpt><trkpt lat="43.5883489" lon="11.9580822"><ele>837.0</ele><time>2026-04-12T08:53:23.129Z</time></trkpt><trkpt lat="43.5883617" lon="11.9581791"><ele>837.0</ele><time>2026-04-12T08:53:24.125Z</time></trkpt><trkpt lat="43.5883713" lon="11.9582775"><ele>837.0</ele><time>2026-04-12T08:53:25.145Z</time></trkpt><trkpt lat="43.5883582" lon="11.9584074"><ele>837.0</ele><time>2026-04-12T08:53:27.127Z</time></trkpt><trkpt lat="43.5883745" lon="11.958574"><ele>837.0</ele><time>2026-04-12T08:53:29.126Z</time></trkpt><trkpt lat="43.5883905" lon="11.958666"><ele>837.0</ele><time>2026-04-12T08:53:30.132Z</time></trkpt><trkpt lat="43.5883927" lon="11.958822"><ele>836.6666666666666</ele><time>2026-04-12T08:53:32.13Z</time></trkpt><trkpt lat="43.5883825" lon="11.9589542"><ele>836.3333333333333</ele><time>2026-04-12T08:53:34.133Z</time></trkpt><trkpt lat="43.5884184" lon="11.9590486"><ele>836.0</ele><time>2026-04-12T08:53:36.132Z</time></trkpt><trkpt lat="43.5884548" lon="11.9591403"><ele>835.6666666666666</ele><time>2026-04-12T08:53:39.144Z</time></trkpt><trkpt lat="43.5885147" lon="11.9591893"><ele>835.3333333333333</ele><time>2026-04-12T08:53:42.137Z</time></trkpt><trkpt lat="43.5885798" lon="11.9591371"><ele>835.0</ele><time>2026-04-12T08:53:44.127Z</time></trkpt><trkpt lat="43.5886537" lon="11.9590386"><ele>838.8</ele><time>2026-04-12T08:53:46.131Z</time></trkpt><trkpt lat="43.5887284" lon="11.9589284"><ele>842.6</ele><time>2026-04-12T08:53:48.139Z</time></trkpt><trkpt lat="43.5887934" lon="11.9588076"><ele>846.4000000000001</ele><time>2026-04-12T08:53:50.138Z</time></trkpt><trkpt lat="43.588849" lon="11.9586955"><ele>850.2</ele><time>2026-04-12T08:53:52.125Z</time></trkpt><trkpt lat="43.5889122" lon="11.9585958"><ele>854.0</ele><time>2026-04-12T08:53:54.139Z</time></trkpt><trkpt lat="43.5889867" lon="11.9585258"><ele>854.0</ele><time>2026-04-12T08:53:56.149Z</time></trkpt><trkpt lat="43.5890568" lon="11.9584898"><ele>854.0000000000001</ele><time>2026-04-12T08:53:58.148Z</time></trkpt><trkpt lat="43.5891427" lon="11.9584478"><ele>854.0000000000001</ele><time>2026-04-12T08:54:00.145Z</time></trkpt><trkpt lat="43.5892331" lon="11.9583917"><ele>854.0</ele><time>2026-04-12T08:54:02.134Z</time></trkpt><trkpt lat="43.5893452" lon="11.9583155"><ele>854.0</ele><time>2026-04-12T08:54:04.134Z</time></trkpt><trkpt lat="43.5894181" lon="11.9582945"><ele>853.8000000000001</ele><time>2026-04-12T08:54:05.127Z</time></trkpt><trkpt lat="43.5894854" lon="11.9582836"><ele>853.6000000000001</ele><time>2026-04-12T08:54:06.125Z</time></trkpt><trkpt lat="43.5895722" lon="11.9582115"><ele>853.4</ele><time>2026-04-12T08:54:08.127Z</time></trkpt><trkpt lat="43.5896136" lon="11.9581009"><ele>853.2</ele><time>2026-04-12T08:54:10.127Z</time></trkpt><trkpt lat="43.5896635" lon="11.957941"><ele>853.0</ele><time>2026-04-12T08:54:12.13Z</time></trkpt><trkpt lat="43.5897051" lon="11.9578528"><ele>858.5999999999999</ele><time>2026-04-12T08:54:13.137Z</time></trkpt><trkpt lat="43.5897473" lon="11.9577741"><ele>864.1999999999999</ele><time>2026-04-12T08:54:14.129Z</time></trkpt><trkpt lat="43.5898129" lon="11.9576431"><ele>869.8</ele><time>2026-04-12T08:54:16.141Z</time></trkpt><trkpt lat="43.5898595" lon="11.9575367"><ele>875.4</ele><time>2026-04-12T08:54:18.134Z</time></trkpt><trkpt lat="43.5898628" lon="11.9574115"><ele>881.0</ele><time>2026-04-12T08:54:20.137Z</time></trkpt><trkpt lat="43.5898794" lon="11.957291"><ele>881.0</ele><time>2026-04-12T08:54:22.127Z</time></trkpt><trkpt lat="43.5899138" lon="11.9571647"><ele>880.9999999999999</ele><time>2026-04-12T08:54:24.135Z</time></trkpt><trkpt lat="43.5899613" lon="11.9570411"><ele>880.9999999999999</ele><time>2026-04-12T08:54:26.139Z</time></trkpt><trkpt lat="43.5900482" lon="11.9569549"><ele>881.0</ele><time>2026-04-12T08:54:28.136Z</time></trkpt><trkpt lat="43.5901531" lon="11.9569245"><ele>881.0</ele><time>2026-04-12T08:54:30.156Z</time></trkpt><trkpt lat="43.590219" lon="11.9569429"><ele>881.0</ele><time>2026-04-12T08:54:31.142Z</time></trkpt><trkpt lat="43.5902882" lon="11.9569864"><ele>880.9999999999999</ele><time>2026-04-12T08:54:32.132Z</time></trkpt><trkpt lat="43.590349" lon="11.9570288"><ele>880.9999999999999</ele><time>2026-04-12T08:54:33.137Z</time></trkpt><trkpt lat="43.5904401" lon="11.9571177"><ele>881.0</ele><time>2026-04-12T08:54:35.142Z</time></trkpt><trkpt lat="43.5905454" lon="11.9571335"><ele>881.0</ele><time>2026-04-12T08:54:37.142Z</time></trkpt><trkpt lat="43.590634" lon="11.9571371"><ele>885.3333333333334</ele><time>2026-04-12T08:54:39.127Z</time></trkpt><trkpt lat="43.5907139" lon="11.9572284"><ele>889.6666666666667</ele><time>2026-04-12T08:54:41.136Z</time></trkpt><trkpt lat="43.5907534" lon="11.9572995"><ele>894.0</ele><time>2026-04-12T08:54:42.13Z</time></trkpt><trkpt lat="43.5907808" lon="11.9573868"><ele>898.3333333333333</ele><time>2026-04-12T08:54:43.137Z</time></trkpt><trkpt lat="43.5907918" lon="11.9575308"><ele>902.6666666666666</ele><time>2026-04-12T08:54:45.13Z</time></trkpt><trkpt lat="43.5907758" lon="11.9576169"><ele>907.0</ele><time>2026-04-12T08:54:46.127Z</time></trkpt><trkpt lat="43.5907796" lon="11.9577638"><ele>908.0</ele><time>2026-04-12T08:54:48.134Z</time></trkpt><trkpt lat="43.5907934" lon="11.9578964"><ele>909.0</ele><time>2026-04-12T08:54:50.137Z</time></trkpt><trkpt lat="43.5908191" lon="11.9580295"><ele>910.0</ele><time>2026-04-12T08:54:52.132Z</time></trkpt><trkpt lat="43.5908788" lon="11.9581696"><ele>911.0</ele><time>2026-04-12T08:54:54.137Z</time></trkpt><trkpt lat="43.5909326" lon="11.9582677"><ele>912.0</ele><time>2026-04-12T08:54:55.129Z</time></trkpt><trkpt lat="43.5909823" lon="11.9583357"><ele>912.0</ele><time>2026-04-12T08:54:56.125Z</time></trkpt><trkpt lat="43.5910296" lon="11.9584319"><ele>912.0</ele><time>2026-04-12T08:54:58.13Z</time></trkpt><trkpt lat="43.5910171" lon="11.9585808"><ele>912.0</ele><time>2026-04-12T08:55:00.133Z</time></trkpt><trkpt lat="43.5909768" lon="11.9587231"><ele>912.0</ele><time>2026-04-12T08:55:02.153Z</time></trkpt><trkpt lat="43.5909425" lon="11.9588614"><ele>912.0</ele><time>2026-04-12T08:55:04.131Z</time></trkpt><trkpt lat="43.5909479" lon="11.9590434"><ele>912.0</ele><time>2026-04-12T08:55:06.125Z</time></trkpt><trkpt lat="43.5909846" lon="11.9591541"><ele>912.0</ele><time>2026-04-12T08:55:08.13Z</time></trkpt><trkpt lat="43.5910838" lon="11.9591705"><ele>912.0</ele><time>2026-04-12T08:55:11.14Z</time></trkpt><trkpt lat="43.5911749" lon="11.9590916"><ele>912.0</ele><time>2026-04-12T08:55:13.123Z</time></trkpt><trkpt lat="43.5912758" lon="11.9590428"><ele>912.0</ele><time>2026-04-12T08:55:15.134Z</time></trkpt><trkpt lat="43.5913863" lon="11.9590183"><ele>915.0</ele><time>2026-04-12T08:55:17.132Z</time></trkpt><trkpt lat="43.5914464" lon="11.9589828"><ele>918.0</ele><time>2026-04-12T08:55:19.147Z</time></trkpt><trkpt lat="43.5915164" lon="11.9589497"><ele>921.0</ele><time>2026-04-12T08:55:32.13Z</time></trkpt><trkpt lat="43.5914587" lon="11.9589886"><ele>924.0</ele><time>2026-04-12T08:55:35.137Z</time></trkpt><trkpt lat="43.5914011" lon="11.9590571"><ele>927.0</ele><time>2026-04-12T08:55:38.128Z</time></trkpt><trkpt lat="43.5913159" lon="11.9590543"><ele>930.0</ele><time>2026-04-12T08:55:42.142Z</time></trkpt><trkpt lat="43.5912289" lon="11.9590561"><ele>927.0</ele><time>2026-04-12T08:55:45.135Z</time></trkpt><trkpt lat="43.5911688" lon="11.9590893"><ele>924.0</ele><time>2026-04-12T08:55:47.131Z</time></trkpt><trkpt lat="43.591111" lon="11.9591426"><ele>921.0</ele><time>2026-04-12T08:55:49.144Z</time></trkpt><trkpt lat="43.5910395" lon="11.9591713"><ele>918.0</ele><time>2026-04-12T08:55:51.123Z</time></trkpt><trkpt lat="43.5909747" lon="11.9591254"><ele>915.0</ele><time>2026-04-12T08:55:54.139Z</time></trkpt><trkpt lat="43.5909564" lon="11.9590226"><ele>912.0</ele><time>2026-04-12T08:55:56.126Z</time></trkpt><trkpt lat="43.5909407" lon="11.9588955"><ele>912.0</ele><time>2026-04-12T08:55:58.127Z</time></trkpt><trkpt lat="43.5909594" lon="11.9587813"><ele>912.0</ele><time>2026-04-12T08:56:00.125Z</time></trkpt><trkpt lat="43.5909865" lon="11.9586571"><ele>912.0</ele><time>2026-04-12T08:56:02.135Z</time></trkpt><trkpt lat="43.5910099" lon="11.9585326"><ele>912.0</ele><time>2026-04-12T08:56:04.127Z</time></trkpt><trkpt lat="43.5910205" lon="11.9584095"><ele>912.0</ele><time>2026-04-12T08:56:07.14Z</time></trkpt><trkpt lat="43.5909648" lon="11.9583019"><ele>912.0</ele><time>2026-04-12T08:56:09.142Z</time></trkpt><trkpt lat="43.5908904" lon="11.9581881"><ele>912.0</ele><time>2026-04-12T08:56:11.134Z</time></trkpt><trkpt lat="43.5908331" lon="11.9580826"><ele>912.0</ele><time>2026-04-12T08:56:13.133Z</time></trkpt><trkpt lat="43.5907982" lon="11.9579807"><ele>912.0</ele><time>2026-04-12T08:56:15.128Z</time></trkpt><trkpt lat="43.5907857" lon="11.9578765"><ele>912.0</ele><time>2026-04-12T08:56:17.134Z</time></trkpt><trkpt lat="43.5907836" lon="11.957767"><ele>912.0</ele><time>2026-04-12T08:56:19.147Z</time></trkpt><trkpt lat="43.5907878" lon="11.9576419"><ele>912.0</ele><time>2026-04-12T08:56:21.13Z</time></trkpt><trkpt lat="43.5907878" lon="11.9575448"><ele>912.0</ele><time>2026-04-12T08:56:22.135Z</time></trkpt><trkpt lat="43.5907837" lon="11.957415"><ele>912.0</ele><time>2026-04-12T08:56:24.131Z</time></trkpt><trkpt lat="43.5907504" lon="11.9573068"><ele>912.0</ele><time>2026-04-12T08:56:26.129Z</time></trkpt><trkpt lat="43.5906869" lon="11.9572158"><ele>912.0</ele><time>2026-04-12T08:56:28.134Z</time></trkpt><trkpt lat="43.5905875" lon="11.9571835"><ele>912.0</ele><time>2026-04-12T08:56:30.136Z</time></trkpt><trkpt lat="43.5905063" lon="11.9571777"><ele>911.0</ele><time>2026-04-12T08:56:32.125Z</time></trkpt><trkpt lat="43.5904016" lon="11.9571077"><ele>910.0</ele><time>2026-04-12T08:56:34.125Z</time></trkpt><trkpt lat="43.5903213" lon="11.9570137"><ele>909.0</ele><time>2026-04-12T08:56:36.129Z</time></trkpt><trkpt lat="43.5902162" lon="11.9569583"><ele>908.0</ele><time>2026-04-12T08:56:38.13Z</time></trkpt><trkpt lat="43.5901312" lon="11.9569467"><ele>907.0</ele><time>2026-04-12T08:56:40.133Z</time></trkpt><trkpt lat="43.5900384" lon="11.9569855"><ele>902.6666666666666</ele><time>2026-04-12T08:56:42.129Z</time></trkpt><trkpt lat="43.5899693" lon="11.9570648"><ele>898.3333333333333</ele><time>2026-04-12T08:56:44.131Z</time></trkpt><trkpt lat="43.5899337" lon="11.9571698"><ele>894.0</ele><time>2026-04-12T08:56:46.129Z</time></trkpt><trkpt lat="43.5898986" lon="11.9573049"><ele>889.6666666666667</ele><time>2026-04-12T08:56:48.133Z</time></trkpt><trkpt lat="43.5898707" lon="11.9574082"><ele>885.3333333333334</ele><time>2026-04-12T08:56:50.138Z</time></trkpt><trkpt lat="43.5898761" lon="11.957516"><ele>881.0</ele><time>2026-04-12T08:56:52.133Z</time></trkpt><trkpt lat="43.5898522" lon="11.9576046"><ele>881.0</ele><time>2026-04-12T08:56:54.13Z</time></trkpt><trkpt lat="43.5898002" lon="11.9577178"><ele>880.9999999999999</ele><time>2026-04-12T08:56:56.132Z</time></trkpt><trkpt lat="43.5897365" lon="11.9578362"><ele>880.9999999999999</ele><time>2026-04-12T08:56:58.149Z</time></trkpt><trkpt lat="43.5896735" lon="11.957957"><ele>881.0</ele><time>2026-04-12T08:57:00.138Z</time></trkpt><trkpt lat="43.5896328" lon="11.9580902"><ele>881.0</ele><time>2026-04-12T08:57:02.126Z</time></trkpt><trkpt lat="43.5895812" lon="11.9582282"><ele>875.5999999999999</ele><time>2026-04-12T08:57:04.15Z</time></trkpt><trkpt lat="43.58949" lon="11.9583026"><ele>870.1999999999999</ele><time>2026-04-12T08:57:06.137Z</time></trkpt><trkpt lat="43.5893677" lon="11.9583141"><ele>864.8000000000001</ele><time>2026-04-12T08:57:08.135Z</time></trkpt><trkpt lat="43.5892671" lon="11.9583761"><ele>859.4000000000001</ele><time>2026-04-12T08:57:10.127Z</time></trkpt><trkpt lat="43.5891956" lon="11.9584745"><ele>854.0</ele><time>2026-04-12T08:57:12.122Z</time></trkpt><trkpt lat="43.589111" lon="11.9584834"><ele>854.0</ele><time>2026-04-12T08:57:14.132Z</time></trkpt><trkpt lat="43.5890244" lon="11.9585197"><ele>854.0000000000001</ele><time>2026-04-12T08:57:17.131Z</time></trkpt><trkpt lat="43.5889575" lon="11.9585897"><ele>854.0000000000001</ele><time>2026-04-12T08:57:19.147Z</time></trkpt><trkpt lat="43.5889006" lon="11.9586528"><ele>854.0</ele><time>2026-04-12T08:57:21.134Z</time></trkpt><trkpt lat="43.5888437" lon="11.9587576"><ele>854.0</ele><time>2026-04-12T08:57:23.122Z</time></trkpt><trkpt lat="43.5887628" lon="11.9588982"><ele>854.0000000000001</ele><time>2026-04-12T08:57:25.126Z</time></trkpt><trkpt lat="43.5887257" lon="11.9589686"><ele>854.0</ele><time>2026-04-12T08:57:26.131Z</time></trkpt><trkpt lat="43.5886512" lon="11.9590756"><ele>854.0</ele><time>2026-04-12T08:57:28.131Z</time></trkpt><trkpt lat="43.5885835" lon="11.9591696"><ele>854.0</ele><time>2026-04-12T08:57:30.151Z</time></trkpt><trkpt lat="43.5885216" lon="11.9592234"><ele>854.0000000000001</ele><time>2026-04-12T08:57:32.134Z</time></trkpt><trkpt lat="43.5884904" lon="11.9591421"><ele>854.0</ele><time>2026-04-12T08:58:22.134Z</time></trkpt><trkpt lat="43.5884449" lon="11.9590309"><ele>850.2</ele><time>2026-04-12T08:58:24.13Z</time></trkpt><trkpt lat="43.5883921" lon="11.9589119"><ele>846.4000000000001</ele><time>2026-04-12T08:58:26.128Z</time></trkpt><trkpt lat="43.5883896" lon="11.9588233"><ele>842.6</ele><time>2026-04-12T08:58:27.13Z</time></trkpt><trkpt lat="43.5883811" lon="11.9586702"><ele>838.8</ele><time>2026-04-12T08:58:29.118Z</time></trkpt><trkpt lat="43.5883627" lon="11.958525"><ele>835.0</ele><time>2026-04-12T08:58:31.123Z</time></trkpt><trkpt lat="43.5883594" lon="11.9584332"><ele>835.3333333333333</ele><time>2026-04-12T08:58:32.123Z</time></trkpt><trkpt lat="43.588356" lon="11.9583415"><ele>835.6666666666666</ele><time>2026-04-12T08:58:33.127Z</time></trkpt><trkpt lat="43.5883617" lon="11.9582496"><ele>836.0</ele><time>2026-04-12T08:58:34.131Z</time></trkpt><trkpt lat="43.5883533" lon="11.9580712"><ele>836.3333333333333</ele><time>2026-04-12T08:58:36.129Z</time></trkpt><trkpt lat="43.5883453" lon="11.957966"><ele>836.6666666666666</ele><time>2026-04-12T08:58:37.148Z</time></trkpt><trkpt lat="43.5883333" lon="11.9578761"><ele>837.0</ele><time>2026-04-12T08:58:38.135Z</time></trkpt><trkpt lat="43.5883192" lon="11.9577058"><ele>837.0</ele><time>2026-04-12T08:58:40.128Z</time></trkpt><trkpt lat="43.588284" lon="11.9575537"><ele>837.0</ele><time>2026-04-12T08:58:42.123Z</time></trkpt><trkpt lat="43.5882295" lon="11.9574764"><ele>837.0</ele><time>2026-04-12T08:58:43.129Z</time></trkpt><trkpt lat="43.5881733" lon="11.9573978"><ele>837.0</ele><time>2026-04-12T08:58:44.12Z</time></trkpt><trkpt lat="43.5881218" lon="11.9573193"><ele>837.0</ele><time>2026-04-12T08:58:45.133Z</time></trkpt><trkpt lat="43.5880819" lon="11.9572473"><ele>837.0</ele><time>2026-04-12T08:58:46.131Z</time></trkpt><trkpt lat="43.5880554" lon="11.9571606"><ele>837.1666666666666</ele><time>2026-04-12T08:58:47.126Z</time></trkpt><trkpt lat="43.5880509" lon="11.9569868"><ele>837.3333333333333</ele><time>2026-04-12T08:58:49.124Z</time></trkpt><trkpt lat="43.5880441" lon="11.9568947"><ele>837.5</ele><time>2026-04-12T08:58:50.137Z</time></trkpt><trkpt lat="43.5880051" lon="11.9568092"><ele>837.6666666666666</ele><time>2026-04-12T08:58:51.128Z</time></trkpt><trkpt lat="43.5879555" lon="11.9567382"><ele>837.8333333333333</ele><time>2026-04-12T08:58:52.122Z</time></trkpt><trkpt lat="43.5878995" lon="11.9566587"><ele>838.0</ele><time>2026-04-12T08:58:53.126Z</time></trkpt><trkpt lat="43.5878622" lon="11.9565712"><ele>833.6666666666666</ele><time>2026-04-12T08:58:54.127Z</time></trkpt><trkpt lat="43.5878269" lon="11.9564767"><ele>829.3333333333333</ele><time>2026-04-12T08:58:55.129Z</time></trkpt><trkpt lat="43.5877821" lon="11.9564034"><ele>825.0</ele><time>2026-04-12T08:58:56.131Z</time></trkpt><trkpt lat="43.587732" lon="11.9563499"><ele>820.6666666666667</ele><time>2026-04-12T08:58:57.124Z</time></trkpt><trkpt lat="43.5876375" lon="11.9562753"><ele>816.3333333333334</ele><time>2026-04-12T08:58:59.128Z</time></trkpt><trkpt lat="43.5875438" lon="11.9562253"><ele>812.0</ele><time>2026-04-12T08:59:01.135Z</time></trkpt><trkpt lat="43.5874417" lon="11.9561884"><ele>812.0000000000001</ele><time>2026-04-12T08:59:03.129Z</time></trkpt><trkpt lat="43.5873447" lon="11.9561451"><ele>812.0</ele><time>2026-04-12T08:59:05.145Z</time></trkpt><trkpt lat="43.5872737" lon="11.9560552"><ele>812.0</ele><time>2026-04-12T08:59:07.133Z</time></trkpt><trkpt lat="43.5872539" lon="11.95597"><ele>812.0</ele><time>2026-04-12T08:59:09.138Z</time></trkpt><trkpt lat="43.587278" lon="11.9558707"><ele>812.0000000000001</ele><time>2026-04-12T08:59:11.132Z</time></trkpt><trkpt lat="43.5873185" lon="11.9557643"><ele>812.0</ele><time>2026-04-12T08:59:13.122Z</time></trkpt><trkpt lat="43.5873368" lon="11.955659"><ele>811.6666666666667</ele><time>2026-04-12T08:59:15.127Z</time></trkpt><trkpt lat="43.5873205" lon="11.9555266"><ele>811.3333333333334</ele><time>2026-04-12T08:59:17.126Z</time></trkpt><trkpt lat="43.5872972" lon="11.9553464"><ele>811.0</ele><time>2026-04-12T08:59:19.138Z</time></trkpt><trkpt lat="43.5872854" lon="11.9552576"><ele>810.6666666666667</ele><time>2026-04-12T08:59:20.139Z</time></trkpt><trkpt lat="43.5872815" lon="11.9551587"><ele>810.3333333333334</ele><time>2026-04-12T08:59:21.125Z</time></trkpt><trkpt lat="43.5872637" lon="11.9550678"><ele>810.0</ele><time>2026-04-12T08:59:22.143Z</time></trkpt><trkpt lat="43.5872305" lon="11.954929"><ele>808.8333333333334</ele><time>2026-04-12T08:59:24.125Z</time></trkpt><trkpt lat="43.5872163" lon="11.9547885"><ele>807.6666666666667</ele><time>2026-04-12T08:59:26.129Z</time></trkpt><trkpt lat="43.5871816" lon="11.9546781"><ele>806.5</ele><time>2026-04-12T08:59:28.14Z</time></trkpt><trkpt lat="43.5871297" lon="11.9545906"><ele>805.3333333333334</ele><time>2026-04-12T08:59:30.132Z</time></trkpt><trkpt lat="43.5870744" lon="11.9544621"><ele>804.1666666666667</ele><time>2026-04-12T08:59:32.126Z</time></trkpt><trkpt lat="43.5870505" lon="11.9543807"><ele>803.0</ele><time>2026-04-12T08:59:33.132Z</time></trkpt><trkpt lat="43.587049" lon="11.9542889"><ele>803.8</ele><time>2026-04-12T08:59:34.143Z</time></trkpt><trkpt lat="43.5870129" lon="11.9541402"><ele>804.5999999999999</ele><time>2026-04-12T08:59:36.128Z</time></trkpt><trkpt lat="43.5869783" lon="11.9540472"><ele>805.4000000000001</ele><time>2026-04-12T08:59:37.132Z</time></trkpt><trkpt lat="43.5868818" lon="11.9538924"><ele>806.2</ele><time>2026-04-12T08:59:39.143Z</time></trkpt><trkpt lat="43.5868206" lon="11.9538203"><ele>807.0</ele><time>2026-04-12T08:59:40.144Z</time></trkpt><trkpt lat="43.5867732" lon="11.9537538"><ele>803.4000000000001</ele><time>2026-04-12T08:59:41.12Z</time></trkpt><trkpt lat="43.5867519" lon="11.9536193"><ele>799.8000000000001</ele><time>2026-04-12T08:59:43.136Z</time></trkpt><trkpt lat="43.5867739" lon="11.953533"><ele>796.2</ele><time>2026-04-12T08:59:45.122Z</time></trkpt><trkpt lat="43.5868176" lon="11.95342"><ele>792.6</ele><time>2026-04-12T08:59:47.143Z</time></trkpt><trkpt lat="43.586823" lon="11.9532398"><ele>789.0</ele><time>2026-04-12T08:59:49.131Z</time></trkpt><trkpt lat="43.5868235" lon="11.9531344"><ele>789.0</ele><time>2026-04-12T08:59:50.146Z</time></trkpt><trkpt lat="43.5868246" lon="11.9530251"><ele>789.0</ele><time>2026-04-12T08:59:51.142Z</time></trkpt><trkpt lat="43.5868274" lon="11.9529156"><ele>789.0</ele><time>2026-04-12T08:59:52.13Z</time></trkpt><trkpt lat="43.5868354" lon="11.9527993"><ele>789.0</ele><time>2026-04-12T08:59:53.152Z</time></trkpt><trkpt lat="43.5868749" lon="11.9526741"><ele>789.0</ele><time>2026-04-12T08:59:54.124Z</time></trkpt><trkpt lat="43.5869085" lon="11.9525674"><ele>789.0</ele><time>2026-04-12T08:59:55.126Z</time></trkpt><trkpt lat="43.5869346" lon="11.9524602"><ele>788.6666666666666</ele><time>2026-04-12T08:59:56.128Z</time></trkpt><trkpt lat="43.5869561" lon="11.9523486"><ele>788.3333333333333</ele><time>2026-04-12T08:59:57.125Z</time></trkpt><trkpt lat="43.5869732" lon="11.9522608"><ele>788.0</ele><time>2026-04-12T08:59:58.134Z</time></trkpt><trkpt lat="43.5870498" lon="11.9521744"><ele>787.6666666666666</ele><time>2026-04-12T09:00:00.135Z</time></trkpt><trkpt lat="43.5871239" lon="11.9522321"><ele>787.3333333333333</ele><time>2026-04-12T09:00:02.134Z</time></trkpt><trkpt lat="43.587157" lon="11.9523199"><ele>787.0</ele><time>2026-04-12T09:00:03.131Z</time></trkpt><trkpt lat="43.5871644" lon="11.9524098"><ele>791.8333333333333</ele><time>2026-04-12T09:00:04.128Z</time></trkpt><trkpt lat="43.5871847" lon="11.9525188"><ele>796.6666666666666</ele><time>2026-04-12T09:00:05.137Z</time></trkpt><trkpt lat="43.5872377" lon="11.9526238"><ele>801.5</ele><time>2026-04-12T09:00:06.142Z</time></trkpt><trkpt lat="43.5872909" lon="11.9527189"><ele>806.3333333333333</ele><time>2026-04-12T09:00:07.126Z</time></trkpt><trkpt lat="43.5873211" lon="11.9527963"><ele>811.1666666666666</ele><time>2026-04-12T09:00:08.142Z</time></trkpt><trkpt lat="43.5873898" lon="11.9529385"><ele>816.0</ele><time>2026-04-12T09:00:10.14Z</time></trkpt><trkpt lat="43.5874481" lon="11.9530134"><ele>816.0</ele><time>2026-04-12T09:00:12.129Z</time></trkpt><trkpt lat="43.5874984" lon="11.9529556"><ele>816.0</ele><time>2026-04-12T09:00:14.136Z</time></trkpt><trkpt lat="43.5875264" lon="11.9528381"><ele>816.0</ele><time>2026-04-12T09:00:16.145Z</time></trkpt><trkpt lat="43.5875976" lon="11.952806"><ele>816.0</ele><time>2026-04-12T09:00:18.146Z</time></trkpt><trkpt lat="43.5876834" lon="11.9528336"><ele>816.0</ele><time>2026-04-12T09:00:20.127Z</time></trkpt><trkpt lat="43.5877889" lon="11.9528667"><ele>816.0</ele><time>2026-04-12T09:00:22.163Z</time></trkpt><trkpt lat="43.5879085" lon="11.9529518"><ele>819.1428571428571</ele><time>2026-04-12T09:00:24.145Z</time></trkpt><trkpt lat="43.5879667" lon="11.9530107"><ele>822.2857142857143</ele><time>2026-04-12T09:00:25.148Z</time></trkpt><trkpt lat="43.5880168" lon="11.9530787"><ele>825.4285714285713</ele><time>2026-04-12T09:00:26.152Z</time></trkpt><trkpt lat="43.588074" lon="11.9531524"><ele>828.5714285714286</ele><time>2026-04-12T09:00:27.143Z</time></trkpt><trkpt lat="43.5881269" lon="11.95322"><ele>831.7142857142857</ele><time>2026-04-12T09:00:28.149Z</time></trkpt><trkpt lat="43.588185" lon="11.9532551"><ele>834.8571428571428</ele><time>2026-04-12T09:00:29.147Z</time></trkpt><trkpt lat="43.5882509" lon="11.9532756"><ele>838.0</ele><time>2026-04-12T09:00:30.141Z</time></trkpt><trkpt lat="43.588323" lon="11.9532889"><ele>837.9999999999999</ele><time>2026-04-12T09:00:31.156Z</time></trkpt><trkpt lat="43.5884059" lon="11.9533045"><ele>838.0</ele><time>2026-04-12T09:00:32.149Z</time></trkpt><trkpt lat="43.5884765" lon="11.9533276"><ele>838.0</ele><time>2026-04-12T09:00:33.128Z</time></trkpt><trkpt lat="43.5885549" lon="11.9533393"><ele>838.0</ele><time>2026-04-12T09:00:34.131Z</time></trkpt><trkpt lat="43.5886344" lon="11.9533316"><ele>837.9999999999999</ele><time>2026-04-12T09:00:35.143Z</time></trkpt><trkpt lat="43.5887135" lon="11.9533353"><ele>838.0</ele><time>2026-04-12T09:00:36.13Z</time></trkpt><trkpt lat="43.588796" lon="11.9533689"><ele>839.8</ele><time>2026-04-12T09:00:37.14Z</time></trkpt><trkpt lat="43.5888955" lon="11.9534063"><ele>841.5999999999999</ele><time>2026-04-12T09:00:38.141Z</time></trkpt><trkpt lat="43.5889761" lon="11.9534275"><ele>843.4000000000001</ele><time>2026-04-12T09:00:39.141Z</time></trkpt><trkpt lat="43.5890406" lon="11.9534377"><ele>845.2</ele><time>2026-04-12T09:00:40.134Z</time></trkpt><trkpt lat="43.5891589" lon="11.9533989"><ele>847.0</ele><time>2026-04-12T09:00:42.126Z</time></trkpt><trkpt lat="43.5892378" lon="11.9533401"><ele>846.9999999999999</ele><time>2026-04-12T09:00:43.144Z</time></trkpt><trkpt lat="43.5893244" lon="11.9532896"><ele>847.0</ele><time>2026-04-12T09:00:44.152Z</time></trkpt><trkpt lat="43.5894116" lon="11.953268"><ele>847.0</ele><time>2026-04-12T09:00:45.154Z</time></trkpt><trkpt lat="43.5894839" lon="11.9532679"><ele>847.0</ele><time>2026-04-12T09:00:46.14Z</time></trkpt><trkpt lat="43.5895984" lon="11.9532968"><ele>846.9999999999999</ele><time>2026-04-12T09:00:48.12Z</time></trkpt><trkpt lat="43.5896492" lon="11.9533538"><ele>847.0</ele><time>2026-04-12T09:00:49.132Z</time></trkpt><trkpt lat="43.5897361" lon="11.9534401"><ele>849.0</ele><time>2026-04-12T09:00:51.124Z</time></trkpt><trkpt lat="43.5898376" lon="11.9534567"><ele>851.0</ele><time>2026-04-12T09:00:53.131Z</time></trkpt><trkpt lat="43.5898943" lon="11.9533965"><ele>853.0</ele><time>2026-04-12T09:00:56.133Z</time></trkpt><trkpt lat="43.589912" lon="11.9532896"><ele>855.0</ele><time>2026-04-12T09:00:58.138Z</time></trkpt><trkpt lat="43.5899589" lon="11.953153"><ele>857.0</ele><time>2026-04-12T09:01:00.127Z</time></trkpt><trkpt lat="43.5899723" lon="11.953021"><ele>857.0000000000001</ele><time>2026-04-12T09:01:02.15Z</time></trkpt><trkpt lat="43.5899176" lon="11.9529093"><ele>857.0</ele><time>2026-04-12T09:01:04.145Z</time></trkpt><trkpt lat="43.5899286" lon="11.9528094"><ele>857.0</ele><time>2026-04-12T09:01:05.147Z</time></trkpt><trkpt lat="43.5899645" lon="11.9526989"><ele>857.0</ele><time>2026-04-12T09:01:06.127Z</time></trkpt><trkpt lat="43.5899871" lon="11.952598"><ele>857.0000000000001</ele><time>2026-04-12T09:01:07.133Z</time></trkpt><trkpt lat="43.589997" lon="11.9524737"><ele>857.0</ele><time>2026-04-12T09:01:09.142Z</time></trkpt><trkpt lat="43.5899788" lon="11.952289"><ele>856.8</ele><time>2026-04-12T09:01:11.127Z</time></trkpt><trkpt lat="43.5900012" lon="11.9521706"><ele>856.6</ele><time>2026-04-12T09:01:12.131Z</time></trkpt><trkpt lat="43.590057" lon="11.9520098"><ele>856.3999999999999</ele><time>2026-04-12T09:01:14.127Z</time></trkpt><trkpt lat="43.5901063" lon="11.9519236"><ele>856.1999999999999</ele><time>2026-04-12T09:01:16.133Z</time></trkpt><trkpt lat="43.5901838" lon="11.9519782"><ele>856.0</ele><time>2026-04-12T09:01:18.141Z</time></trkpt><trkpt lat="43.5902603" lon="11.9521207"><ele>855.9999999999999</ele><time>2026-04-12T09:01:20.141Z</time></trkpt><trkpt lat="43.5902887" lon="11.9522022"><ele>856.0</ele><time>2026-04-12T09:01:21.144Z</time></trkpt><trkpt lat="43.5903215" lon="11.9523086"><ele>856.0</ele><time>2026-04-12T09:01:22.14Z</time></trkpt><trkpt lat="43.5903665" lon="11.9524365"><ele>856.0</ele><time>2026-04-12T09:01:23.14Z</time></trkpt><trkpt lat="43.5904078" lon="11.9525583"><ele>855.9999999999999</ele><time>2026-04-12T09:01:24.144Z</time></trkpt><trkpt lat="43.5904467" lon="11.9526846"><ele>856.0</ele><time>2026-04-12T09:01:25.145Z</time></trkpt><trkpt lat="43.5904804" lon="11.9527779"><ele>861.0</ele><time>2026-04-12T09:01:26.13Z</time></trkpt><trkpt lat="43.5905461" lon="11.9528691"><ele>865.9999999999999</ele><time>2026-04-12T09:01:28.147Z</time></trkpt><trkpt lat="43.5906516" lon="11.9529273"><ele>870.9999999999999</ele><time>2026-04-12T09:01:30.139Z</time></trkpt><trkpt lat="43.5907539" lon="11.9529566"><ele>876.0</ele><time>2026-04-12T09:01:32.13Z</time></trkpt><trkpt lat="43.5908285" lon="11.9529635"><ele>881.0</ele><time>2026-04-12T09:01:34.142Z</time></trkpt><trkpt lat="43.5909225" lon="11.9529431"><ele>881.0000000000001</ele><time>2026-04-12T09:01:36.146Z</time></trkpt><trkpt lat="43.5910338" lon="11.9529862"><ele>881.0</ele><time>2026-04-12T09:01:38.128Z</time></trkpt><trkpt lat="43.5910814" lon="11.953044"><ele>881.0</ele><time>2026-04-12T09:01:39.139Z</time></trkpt><trkpt lat="43.5911877" lon="11.9531244"><ele>881.0</ele><time>2026-04-12T09:01:41.143Z</time></trkpt><trkpt lat="43.5912599" lon="11.9531408"><ele>881.0000000000001</ele><time>2026-04-12T09:01:42.131Z</time></trkpt><trkpt lat="43.5913276" lon="11.9531511"><ele>881.0</ele><time>2026-04-12T09:01:43.142Z</time></trkpt><trkpt lat="43.591408" lon="11.9531513"><ele>884.1666666666667</ele><time>2026-04-12T09:01:44.127Z</time></trkpt><trkpt lat="43.5915141" lon="11.9530755"><ele>887.3333333333334</ele><time>2026-04-12T09:01:46.135Z</time></trkpt><trkpt lat="43.5915594" lon="11.9530008"><ele>890.5</ele><time>2026-04-12T09:01:47.147Z</time></trkpt><trkpt lat="43.5916006" lon="11.9529223"><ele>893.6666666666667</ele><time>2026-04-12T09:01:48.137Z</time></trkpt><trkpt lat="43.5916873" lon="11.9528129"><ele>896.8333333333334</ele><time>2026-04-12T09:01:50.149Z</time></trkpt><trkpt lat="43.5917434" lon="11.952766"><ele>900.0</ele><time>2026-04-12T09:01:51.129Z</time></trkpt><trkpt lat="43.591825" lon="11.9526437"><ele>900.0</ele><time>2026-04-12T09:01:53.147Z</time></trkpt><trkpt lat="43.5918657" lon="11.9525621"><ele>900.0</ele><time>2026-04-12T09:01:54.138Z</time></trkpt><trkpt lat="43.5919407" lon="11.9524318"><ele>900.0</ele><time>2026-04-12T09:01:56.129Z</time></trkpt><trkpt lat="43.592045" lon="11.9523198"><ele>900.0</ele><time>2026-04-12T09:01:58.127Z</time></trkpt><trkpt lat="43.5921554" lon="11.9522633"><ele>900.0</ele><time>2026-04-12T09:02:00.139Z</time></trkpt><trkpt lat="43.5922324" lon="11.9523909"><ele>902.3333333333334</ele><time>2026-04-12T09:02:02.133Z</time></trkpt><trkpt lat="43.5922383" lon="11.9524976"><ele>904.6666666666667</ele><time>2026-04-12T09:02:03.137Z</time></trkpt><trkpt lat="43.5922271" lon="11.9526251"><ele>907.0</ele><time>2026-04-12T09:02:04.15Z</time></trkpt><trkpt lat="43.5922206" lon="11.9527351"><ele>909.3333333333334</ele><time>2026-04-12T09:02:05.144Z</time></trkpt><trkpt lat="43.5922209" lon="11.9528227"><ele>911.6666666666667</ele><time>2026-04-12T09:02:06.131Z</time></trkpt><trkpt lat="43.5922414" lon="11.9529122"><ele>914.0</ele><time>2026-04-12T09:02:07.14Z</time></trkpt><trkpt lat="43.5922976" lon="11.9530271"><ele>914.3333333333334</ele><time>2026-04-12T09:02:08.124Z</time></trkpt><trkpt lat="43.5923495" lon="11.953103"><ele>914.6666666666667</ele><time>2026-04-12T09:02:09.154Z</time></trkpt><trkpt lat="43.5924302" lon="11.9531608"><ele>915.0</ele><time>2026-04-12T09:02:11.142Z</time></trkpt><trkpt lat="43.5925338" lon="11.9531087"><ele>915.3333333333333</ele><time>2026-04-12T09:02:13.141Z</time></trkpt><trkpt lat="43.5925948" lon="11.9530742"><ele>915.6666666666666</ele><time>2026-04-12T09:02:14.133Z</time></trkpt><trkpt lat="43.5926768" lon="11.9530223"><ele>916.0</ele><time>2026-04-12T09:02:15.127Z</time></trkpt><trkpt lat="43.5927782" lon="11.9529891"><ele>918.4999999999999</ele><time>2026-04-12T09:02:16.128Z</time></trkpt><trkpt lat="43.592875" lon="11.9529718"><ele>921.0</ele><time>2026-04-12T09:02:17.129Z</time></trkpt><trkpt lat="43.5929551" lon="11.9529582"><ele>923.5</ele><time>2026-04-12T09:02:18.145Z</time></trkpt><trkpt lat="43.5930379" lon="11.9529596"><ele>926.0</ele><time>2026-04-12T09:02:19.126Z</time></trkpt><trkpt lat="43.5931195" lon="11.9529837"><ele>928.4999999999999</ele><time>2026-04-12T09:02:20.146Z</time></trkpt><trkpt lat="43.5931831" lon="11.9530046"><ele>931.0</ele><time>2026-04-12T09:02:21.151Z</time></trkpt><trkpt lat="43.5932566" lon="11.952995"><ele>930.9999999999999</ele><time>2026-04-12T09:02:22.147Z</time></trkpt><trkpt lat="43.5933214" lon="11.9529431"><ele>931.0</ele><time>2026-04-12T09:02:23.146Z</time></trkpt><trkpt lat="43.5934225" lon="11.9529131"><ele>931.0</ele><time>2026-04-12T09:02:25.135Z</time></trkpt><trkpt lat="43.5934699" lon="11.9529735"><ele>931.0</ele><time>2026-04-12T09:02:26.161Z</time></trkpt><trkpt lat="43.5935142" lon="11.9530721"><ele>930.9999999999999</ele><time>2026-04-12T09:02:27.157Z</time></trkpt><trkpt lat="43.5935463" lon="11.9531542"><ele>931.0</ele><time>2026-04-12T09:02:28.126Z</time></trkpt><trkpt lat="43.5936053" lon="11.953246"><ele>932.4</ele><time>2026-04-12T09:02:31.133Z</time></trkpt><trkpt lat="43.5936717" lon="11.9533772"><ele>933.8</ele><time>2026-04-12T09:02:33.135Z</time></trkpt><trkpt lat="43.5936788" lon="11.9534763"><ele>935.1999999999999</ele><time>2026-04-12T09:02:34.131Z</time></trkpt><trkpt lat="43.5936815" lon="11.9535892"><ele>936.5999999999999</ele><time>2026-04-12T09:02:35.15Z</time></trkpt><trkpt lat="43.5936936" lon="11.9536955"><ele>938.0</ele><time>2026-04-12T09:02:36.132Z</time></trkpt><trkpt lat="43.5937234" lon="11.953832"><ele>940.6666666666667</ele><time>2026-04-12T09:02:38.119Z</time></trkpt><trkpt lat="43.5937967" lon="11.9538882"><ele>943.3333333333334</ele><time>2026-04-12T09:02:40.142Z</time></trkpt><trkpt lat="43.5939203" lon="11.9538187"><ele>946.0</ele><time>2026-04-12T09:02:42.122Z</time></trkpt><trkpt lat="43.5939804" lon="11.953773"><ele>948.6666666666667</ele><time>2026-04-12T09:02:43.127Z</time></trkpt><trkpt lat="43.5940497" lon="11.9537249"><ele>951.3333333333334</ele><time>2026-04-12T09:02:44.123Z</time></trkpt><trkpt lat="43.5941234" lon="11.953682"><ele>954.0</ele><time>2026-04-12T09:02:45.146Z</time></trkpt><trkpt lat="43.5941806" lon="11.953643"><ele>954.0</ele><time>2026-04-12T09:02:46.123Z</time></trkpt><trkpt lat="43.5942154" lon="11.9535633"><ele>954.0</ele><time>2026-04-12T09:02:47.137Z</time></trkpt><trkpt lat="43.5942492" lon="11.9534404"><ele>954.0</ele><time>2026-04-12T09:02:48.128Z</time></trkpt><trkpt lat="43.5943214" lon="11.9533309"><ele>954.0</ele><time>2026-04-12T09:02:49.126Z</time></trkpt><trkpt lat="43.5943828" lon="11.9532631"><ele>954.0</ele><time>2026-04-12T09:02:50.123Z</time></trkpt><trkpt lat="43.5944451" lon="11.9532049"><ele>954.0</ele><time>2026-04-12T09:02:51.128Z</time></trkpt><trkpt lat="43.5945035" lon="11.9531701"><ele>955.8000000000001</ele><time>2026-04-12T09:02:52.125Z</time></trkpt><trkpt lat="43.5945691" lon="11.9531607"><ele>957.6000000000001</ele><time>2026-04-12T09:02:53.129Z</time></trkpt><trkpt lat="43.5946846" lon="11.9531702"><ele>959.4</ele><time>2026-04-12T09:02:55.121Z</time></trkpt><trkpt lat="43.5947447" lon="11.9531072"><ele>961.2</ele><time>2026-04-12T09:02:56.13Z</time></trkpt><trkpt lat="43.5947888" lon="11.9530215"><ele>963.0</ele><time>2026-04-12T09:02:57.134Z</time></trkpt><trkpt lat="43.5948168" lon="11.9528646"><ele>963.0</ele><time>2026-04-12T09:02:59.16Z</time></trkpt><trkpt lat="43.5948683" lon="11.9527705"><ele>963.0</ele><time>2026-04-12T09:03:01.142Z</time></trkpt><trkpt lat="43.5949272" lon="11.9527161"><ele>963.0</ele><time>2026-04-12T09:03:03.153Z</time></trkpt><trkpt lat="43.5950229" lon="11.9527014"><ele>963.0</ele><time>2026-04-12T09:03:06.148Z</time></trkpt><trkpt lat="43.5951227" lon="11.9526973"><ele>963.0</ele><time>2026-04-12T09:03:08.159Z</time></trkpt><trkpt lat="43.5951896" lon="11.9526772"><ele>963.0</ele><time>2026-04-12T09:03:09.143Z</time></trkpt><trkpt lat="43.5952888" lon="11.9525854"><ele>966.0</ele><time>2026-04-12T09:03:11.145Z</time></trkpt><trkpt lat="43.5954037" lon="11.9525837"><ele>969.0</ele><time>2026-04-12T09:03:13.119Z</time></trkpt><trkpt lat="43.5954576" lon="11.9526589"><ele>972.0</ele><time>2026-04-12T09:03:14.132Z</time></trkpt><trkpt lat="43.5955041" lon="11.9527199"><ele>975.0</ele><time>2026-04-12T09:03:15.135Z</time></trkpt><trkpt lat="43.5955532" lon="11.9527823"><ele>978.0</ele><time>2026-04-12T09:03:16.128Z</time></trkpt><trkpt lat="43.5956721" lon="11.9528231"><ele>981.0</ele><time>2026-04-12T09:03:18.146Z</time></trkpt><trkpt lat="43.5956896" lon="11.9529196"><ele>981.0</ele><time>2026-04-12T09:03:20.142Z</time></trkpt><trkpt lat="43.5956562" lon="11.9530403"><ele>981.0</ele><time>2026-04-12T09:03:22.136Z</time></trkpt><trkpt lat="43.5956413" lon="11.9531503"><ele>981.0</ele><time>2026-04-12T09:03:24.118Z</time></trkpt><trkpt lat="43.5956606" lon="11.9532593"><ele>981.0</ele><time>2026-04-12T09:03:26.127Z</time></trkpt><trkpt lat="43.5957113" lon="11.95338"><ele>981.0</ele><time>2026-04-12T09:03:28.119Z</time></trkpt><trkpt lat="43.5957512" lon="11.9534782"><ele>981.0</ele><time>2026-04-12T09:03:30.117Z</time></trkpt><trkpt lat="43.5957595" lon="11.9535691"><ele>981.8333333333334</ele><time>2026-04-12T09:03:31.13Z</time></trkpt><trkpt lat="43.5957645" lon="11.9536614"><ele>982.6666666666667</ele><time>2026-04-12T09:03:32.132Z</time></trkpt><trkpt lat="43.595749" lon="11.953754"><ele>983.5</ele><time>2026-04-12T09:03:33.126Z</time></trkpt><trkpt lat="43.5957352" lon="11.9538599"><ele>984.3333333333334</ele><time>2026-04-12T09:03:34.12Z</time></trkpt><trkpt lat="43.5957256" lon="11.9539832"><ele>985.1666666666667</ele><time>2026-04-12T09:03:35.125Z</time></trkpt><trkpt lat="43.5957122" lon="11.9541011"><ele>986.0</ele><time>2026-04-12T09:03:36.137Z</time></trkpt><trkpt lat="43.595683" lon="11.9542107"><ele>987.5000000000001</ele><time>2026-04-12T09:03:37.121Z</time></trkpt><trkpt lat="43.5956434" lon="11.9543106"><ele>989.0</ele><time>2026-04-12T09:03:38.122Z</time></trkpt><trkpt lat="43.5956119" lon="11.9544094"><ele>990.5</ele><time>2026-04-12T09:03:39.147Z</time></trkpt><trkpt lat="43.5955806" lon="11.9545312"><ele>992.0</ele><time>2026-04-12T09:03:40.126Z</time></trkpt><trkpt lat="43.5955425" lon="11.9546522"><ele>993.5000000000001</ele><time>2026-04-12T09:03:41.121Z</time></trkpt><trkpt lat="43.5955111" lon="11.9547631"><ele>995.0</ele><time>2026-04-12T09:03:42.126Z</time></trkpt><trkpt lat="43.5954811" lon="11.9548887"><ele>995.0</ele><time>2026-04-12T09:03:43.127Z</time></trkpt><trkpt lat="43.5954463" lon="11.9550166"><ele>995.0</ele><time>2026-04-12T09:03:44.125Z</time></trkpt><trkpt lat="43.5953895" lon="11.955139"><ele>995.0</ele><time>2026-04-12T09:03:45.139Z</time></trkpt><trkpt lat="43.5953435" lon="11.9552595"><ele>995.0</ele><time>2026-04-12T09:03:46.116Z</time></trkpt><trkpt lat="43.5953043" lon="11.9553776"><ele>995.0</ele><time>2026-04-12T09:03:47.108Z</time></trkpt><trkpt lat="43.5952778" lon="11.9555248"><ele>995.8</ele><time>2026-04-12T09:03:49.143Z</time></trkpt><trkpt lat="43.5953272" lon="11.9556123"><ele>996.6</ele><time>2026-04-12T09:03:52.138Z</time></trkpt><trkpt lat="43.5954402" lon="11.9555912"><ele>997.4000000000001</ele><time>2026-04-12T09:03:54.124Z</time></trkpt><trkpt lat="43.5955256" lon="11.955674"><ele>998.2</ele><time>2026-04-12T09:03:56.135Z</time></trkpt><trkpt lat="43.5955366" lon="11.9558519"><ele>999.0</ele><time>2026-04-12T09:03:58.118Z</time></trkpt><trkpt lat="43.5955036" lon="11.9559603"><ele>999.0</ele><time>2026-04-12T09:03:59.126Z</time></trkpt><trkpt lat="43.5954777" lon="11.9560766"><ele>999.0</ele><time>2026-04-12T09:04:00.114Z</time></trkpt><trkpt lat="43.5954552" lon="11.9561837"><ele>999.0</ele><time>2026-04-12T09:04:01.13Z</time></trkpt><trkpt lat="43.5954318" lon="11.9562852"><ele>999.0</ele><time>2026-04-12T09:04:02.124Z</time></trkpt><trkpt lat="43.595399" lon="11.9563641"><ele>999.0</ele><time>2026-04-12T09:04:03.131Z</time></trkpt><trkpt lat="43.5953696" lon="11.9565151"><ele>999.0</ele><time>2026-04-12T09:04:05.125Z</time></trkpt><trkpt lat="43.5953769" lon="11.956611"><ele>1000.0</ele><time>2026-04-12T09:04:06.121Z</time></trkpt><trkpt lat="43.5953775" lon="11.9567054"><ele>1001.0</ele><time>2026-04-12T09:04:07.133Z</time></trkpt><trkpt lat="43.5954234" lon="11.9568065"><ele>1002.0</ele><time>2026-04-12T09:04:09.107Z</time></trkpt><trkpt lat="43.5954658" lon="11.9568907"><ele>1003.0</ele><time>2026-04-12T09:04:10.12Z</time></trkpt><trkpt lat="43.5955042" lon="11.9569963"><ele>1004.0</ele><time>2026-04-12T09:04:11.126Z</time></trkpt><trkpt lat="43.5955491" lon="11.9570992"><ele>1005.0</ele><time>2026-04-12T09:04:12.135Z</time></trkpt><trkpt lat="43.5955952" lon="11.9572079"><ele>1005.0</ele><time>2026-04-12T09:04:13.129Z</time></trkpt><trkpt lat="43.5956435" lon="11.9572924"><ele>1005.0</ele><time>2026-04-12T09:04:14.131Z</time></trkpt><trkpt lat="43.595667" lon="11.9574206"><ele>1005.0</ele><time>2026-04-12T09:04:16.134Z</time></trkpt><trkpt lat="43.5956034" lon="11.9575996"><ele>1005.0</ele><time>2026-04-12T09:04:18.127Z</time></trkpt><trkpt lat="43.5955404" lon="11.9577323"><ele>1005.0</ele><time>2026-04-12T09:04:19.13Z</time></trkpt><trkpt lat="43.5954744" lon="11.957863"><ele>1004.5</ele><time>2026-04-12T09:04:20.133Z</time></trkpt><trkpt lat="43.5954162" lon="11.9579613"><ele>1004.0</ele><time>2026-04-12T09:04:21.125Z</time></trkpt><trkpt lat="43.5953671" lon="11.9580353"><ele>1003.5</ele><time>2026-04-12T09:04:22.124Z</time></trkpt><trkpt lat="43.5952812" lon="11.9580975"><ele>1003.0</ele><time>2026-04-12T09:04:23.143Z</time></trkpt><trkpt lat="43.5952105" lon="11.9581423"><ele>1002.5</ele><time>2026-04-12T09:04:24.132Z</time></trkpt><trkpt lat="43.5951363" lon="11.9581697"><ele>1002.0</ele><time>2026-04-12T09:04:26.136Z</time></trkpt><trkpt lat="43.5950505" lon="11.9582133"><ele>1002.0</ele><time>2026-04-12T09:04:28.123Z</time></trkpt><trkpt lat="43.5949893" lon="11.958289"><ele>1002.0</ele><time>2026-04-12T09:04:30.127Z</time></trkpt><trkpt lat="43.5950269" lon="11.9583761"><ele>1002.0</ele><time>2026-04-12T09:04:34.126Z</time></trkpt><trkpt lat="43.5950211" lon="11.9584645"><ele>1002.0</ele><time>2026-04-12T09:04:37.127Z</time></trkpt><trkpt lat="43.5949825" lon="11.9586041"><ele>1002.0</ele><time>2026-04-12T09:04:39.138Z</time></trkpt><trkpt lat="43.5949587" lon="11.9586946"><ele>1002.0</ele><time>2026-04-12T09:04:40.123Z</time></trkpt><trkpt lat="43.5949007" lon="11.9588281"><ele>1003.2</ele><time>2026-04-12T09:04:42.128Z</time></trkpt><trkpt lat="43.5948607" lon="11.9589228"><ele>1004.4000000000001</ele><time>2026-04-12T09:04:43.131Z</time></trkpt><trkpt lat="43.5948136" lon="11.9590529"><ele>1005.5999999999999</ele><time>2026-04-12T09:04:44.134Z</time></trkpt><trkpt lat="43.5947532" lon="11.9591602"><ele>1006.8</ele><time>2026-04-12T09:04:45.136Z</time></trkpt><trkpt lat="43.5947067" lon="11.9592564"><ele>1008.0</ele><time>2026-04-12T09:04:46.141Z</time></trkpt><trkpt lat="43.5946562" lon="11.9593544"><ele>1008.5</ele><time>2026-04-12T09:04:47.135Z</time></trkpt><trkpt lat="43.5946188" lon="11.9594501"><ele>1009.0</ele><time>2026-04-12T09:04:48.141Z</time></trkpt><trkpt lat="43.5945976" lon="11.9595481"><ele>1009.5</ele><time>2026-04-12T09:04:49.131Z</time></trkpt><trkpt lat="43.5945735" lon="11.9596557"><ele>1010.0</ele><time>2026-04-12T09:04:50.126Z</time></trkpt><trkpt lat="43.5945748" lon="11.959811"><ele>1010.5</ele><time>2026-04-12T09:04:52.127Z</time></trkpt><trkpt lat="43.5945977" lon="11.9599025"><ele>1011.0</ele><time>2026-04-12T09:04:53.133Z</time></trkpt><trkpt lat="43.5946124" lon="11.9600025"><ele>1010.0</ele><time>2026-04-12T09:04:54.144Z</time></trkpt><trkpt lat="43.5946234" lon="11.9600936"><ele>1009.0</ele><time>2026-04-12T09:04:55.118Z</time></trkpt><trkpt lat="43.5946249" lon="11.9601999"><ele>1008.0</ele><time>2026-04-12T09:04:56.134Z</time></trkpt><trkpt lat="43.5946236" lon="11.9602931"><ele>1007.0</ele><time>2026-04-12T09:04:57.139Z</time></trkpt><trkpt lat="43.5946326" lon="11.9604628"><ele>1006.0</ele><time>2026-04-12T09:04:59.122Z</time></trkpt><trkpt lat="43.5946446" lon="11.9605589"><ele>1005.0</ele><time>2026-04-12T09:05:00.129Z</time></trkpt><trkpt lat="43.5946541" lon="11.9606479"><ele>1005.0</ele><time>2026-04-12T09:05:01.149Z</time></trkpt><trkpt lat="43.594686" lon="11.9607956"><ele>1005.0</ele><time>2026-04-12T09:05:03.119Z</time></trkpt><trkpt lat="43.5947149" lon="11.9609393"><ele>1005.0</ele><time>2026-04-12T09:05:05.138Z</time></trkpt><trkpt lat="43.5946688" lon="11.9610866"><ele>1005.0</ele><time>2026-04-12T09:05:07.119Z</time></trkpt><trkpt lat="43.5946267" lon="11.9611533"><ele>1005.0</ele><time>2026-04-12T09:05:08.131Z</time></trkpt><trkpt lat="43.5946107" lon="11.9613043"><ele>1004.4</ele><time>2026-04-12T09:05:10.127Z</time></trkpt><trkpt lat="43.5946429" lon="11.9614894"><ele>1003.8</ele><time>2026-04-12T09:05:12.134Z</time></trkpt><trkpt lat="43.5946747" lon="11.9615922"><ele>1003.2</ele><time>2026-04-12T09:05:13.117Z</time></trkpt><trkpt lat="43.5947074" lon="11.9617047"><ele>1002.6</ele><time>2026-04-12T09:05:14.115Z</time></trkpt><trkpt lat="43.5947231" lon="11.9618214"><ele>1002.0</ele><time>2026-04-12T09:05:15.116Z</time></trkpt><trkpt lat="43.5947374" lon="11.9619302"><ele>1001.4000000000001</ele><time>2026-04-12T09:05:16.119Z</time></trkpt><trkpt lat="43.5947381" lon="11.9620353"><ele>1000.8000000000001</ele><time>2026-04-12T09:05:17.128Z</time></trkpt><trkpt lat="43.594734" lon="11.9621447"><ele>1000.2</ele><time>2026-04-12T09:05:18.126Z</time></trkpt><trkpt lat="43.5947378" lon="11.962243"><ele>999.6</ele><time>2026-04-12T09:05:19.125Z</time></trkpt><trkpt lat="43.5948029" lon="11.9624121"><ele>999.0</ele><time>2026-04-12T09:05:21.12Z</time></trkpt><trkpt lat="43.594834" lon="11.9625209"><ele>999.4000000000001</ele><time>2026-04-12T09:05:22.124Z</time></trkpt><trkpt lat="43.5948338" lon="11.9626464"><ele>999.8000000000001</ele><time>2026-04-12T09:05:23.117Z</time></trkpt><trkpt lat="43.5948221" lon="11.9627758"><ele>1000.1999999999999</ele><time>2026-04-12T09:05:24.14Z</time></trkpt><trkpt lat="43.5948212" lon="11.962882"><ele>1000.5999999999999</ele><time>2026-04-12T09:05:25.112Z</time></trkpt><trkpt lat="43.5947997" lon="11.9629801"><ele>1001.0</ele><time>2026-04-12T09:05:26.134Z</time></trkpt><trkpt lat="43.5947756" lon="11.9631503"><ele>1001.0</ele><time>2026-04-12T09:05:28.13Z</time></trkpt><trkpt lat="43.5947938" lon="11.963237"><ele>1000.9999999999999</ele><time>2026-04-12T09:05:29.115Z</time></trkpt><trkpt lat="43.5948001" lon="11.9633831"><ele>1000.9999999999999</ele><time>2026-04-12T09:05:31.124Z</time></trkpt><trkpt lat="43.5946929" lon="11.9634814"><ele>1001.0</ele><time>2026-04-12T09:05:33.126Z</time></trkpt><trkpt lat="43.5945781" lon="11.9635654"><ele>1001.0</ele><time>2026-04-12T09:05:35.138Z</time></trkpt><trkpt lat="43.5945275" lon="11.9636308"><ele>996.6666666666667</ele><time>2026-04-12T09:05:36.133Z</time></trkpt><trkpt lat="43.5944737" lon="11.9637157"><ele>992.3333333333334</ele><time>2026-04-12T09:05:37.136Z</time></trkpt><trkpt lat="43.594442" lon="11.9637939"><ele>988.0</ele><time>2026-04-12T09:05:38.131Z</time></trkpt><trkpt lat="43.5943991" lon="11.9639592"><ele>983.6666666666667</ele><time>2026-04-12T09:05:40.134Z</time></trkpt><trkpt lat="43.5943727" lon="11.9640484"><ele>979.3333333333334</ele><time>2026-04-12T09:05:41.133Z</time></trkpt><trkpt lat="43.5943198" lon="11.9641325"><ele>975.0</ele><time>2026-04-12T09:05:42.123Z</time></trkpt><trkpt lat="43.5942747" lon="11.9642159"><ele>975.0</ele><time>2026-04-12T09:05:43.121Z</time></trkpt><trkpt lat="43.5942538" lon="11.9643099"><ele>975.0</ele><time>2026-04-12T09:05:44.118Z</time></trkpt><trkpt lat="43.59422" lon="11.964472"><ele>975.0</ele><time>2026-04-12T09:05:46.149Z</time></trkpt><trkpt lat="43.5941608" lon="11.9646195"><ele>975.0</ele><time>2026-04-12T09:05:48.126Z</time></trkpt><trkpt lat="43.594063" lon="11.9646981"><ele>975.0</ele><time>2026-04-12T09:05:50.125Z</time></trkpt><trkpt lat="43.593957" lon="11.9647371"><ele>975.0</ele><time>2026-04-12T09:05:52.131Z</time></trkpt><trkpt lat="43.5938798" lon="11.964842"><ele>975.0</ele><time>2026-04-12T09:05:54.129Z</time></trkpt><trkpt lat="43.5938435" lon="11.9649322"><ele>975.0</ele><time>2026-04-12T09:05:55.127Z</time></trkpt><trkpt lat="43.5938082" lon="11.9650258"><ele>975.0</ele><time>2026-04-12T09:05:56.128Z</time></trkpt><trkpt lat="43.5937719" lon="11.9651042"><ele>975.0</ele><time>2026-04-12T09:05:57.117Z</time></trkpt><trkpt lat="43.5937325" lon="11.9651749"><ele>975.0</ele><time>2026-04-12T09:05:58.124Z</time></trkpt><trkpt lat="43.5936912" lon="11.9652561"><ele>970.6666666666666</ele><time>2026-04-12T09:05:59.133Z</time></trkpt><trkpt lat="43.5936509" lon="11.9653375"><ele>966.3333333333333</ele><time>2026-04-12T09:06:00.128Z</time></trkpt><trkpt lat="43.5936075" lon="11.9654181"><ele>962.0</ele><time>2026-04-12T09:06:01.124Z</time></trkpt><trkpt lat="43.5935674" lon="11.9654911"><ele>957.6666666666666</ele><time>2026-04-12T09:06:02.136Z</time></trkpt><trkpt lat="43.5934865" lon="11.9656445"><ele>953.3333333333333</ele><time>2026-04-12T09:06:04.128Z</time></trkpt><trkpt lat="43.5934394" lon="11.9657339"><ele>949.0</ele><time>2026-04-12T09:06:05.128Z</time></trkpt><trkpt lat="43.5933932" lon="11.9658223"><ele>947.9999999999999</ele><time>2026-04-12T09:06:06.124Z</time></trkpt><trkpt lat="43.5933531" lon="11.9658952"><ele>947.0</ele><time>2026-04-12T09:06:07.135Z</time></trkpt><trkpt lat="43.5933191" lon="11.9659689"><ele>946.0</ele><time>2026-04-12T09:06:08.126Z</time></trkpt><trkpt lat="43.5932817" lon="11.9660461"><ele>945.0</ele><time>2026-04-12T09:06:09.131Z</time></trkpt><trkpt lat="43.5932455" lon="11.966126"><ele>943.9999999999999</ele><time>2026-04-12T09:06:10.121Z</time></trkpt><trkpt lat="43.5932099" lon="11.9661996"><ele>943.0</ele><time>2026-04-12T09:06:11.128Z</time></trkpt><trkpt lat="43.5931335" lon="11.9663449"><ele>942.9999999999999</ele><time>2026-04-12T09:06:13.124Z</time></trkpt><trkpt lat="43.5931054" lon="11.9664364"><ele>943.0</ele><time>2026-04-12T09:06:14.129Z</time></trkpt><trkpt lat="43.5930793" lon="11.9665399"><ele>943.0</ele><time>2026-04-12T09:06:15.122Z</time></trkpt><trkpt lat="43.5930859" lon="11.9666539"><ele>943.0</ele><time>2026-04-12T09:06:16.152Z</time></trkpt><trkpt lat="43.5931024" lon="11.9667619"><ele>942.9999999999999</ele><time>2026-04-12T09:06:17.132Z</time></trkpt><trkpt lat="43.5931268" lon="11.9668557"><ele>943.0</ele><time>2026-04-12T09:06:18.127Z</time></trkpt><trkpt lat="43.5931517" lon="11.9669449"><ele>941.3333333333333</ele><time>2026-04-12T09:06:19.134Z</time></trkpt><trkpt lat="43.59319" lon="11.9670355"><ele>939.6666666666666</ele><time>2026-04-12T09:06:20.144Z</time></trkpt><trkpt lat="43.5932207" lon="11.9671417"><ele>938.0</ele><time>2026-04-12T09:06:21.144Z</time></trkpt><trkpt lat="43.5932639" lon="11.9672344"><ele>936.3333333333333</ele><time>2026-04-12T09:06:22.13Z</time></trkpt><trkpt lat="43.593319" lon="11.9673204"><ele>934.6666666666666</ele><time>2026-04-12T09:06:23.124Z</time></trkpt><trkpt lat="43.5933813" lon="11.9674101"><ele>933.0</ele><time>2026-04-12T09:06:24.124Z</time></trkpt><trkpt lat="43.5934448" lon="11.9675267"><ele>932.2</ele><time>2026-04-12T09:06:25.124Z</time></trkpt><trkpt lat="43.5934987" lon="11.9676584"><ele>931.4</ele><time>2026-04-12T09:06:26.143Z</time></trkpt><trkpt lat="43.5935524" lon="11.9678028"><ele>930.6000000000001</ele><time>2026-04-12T09:06:27.141Z</time></trkpt><trkpt lat="43.5936004" lon="11.9679315"><ele>929.8000000000001</ele><time>2026-04-12T09:06:28.147Z</time></trkpt><trkpt lat="43.5936421" lon="11.9680544"><ele>929.0</ele><time>2026-04-12T09:06:29.133Z</time></trkpt><trkpt lat="43.5936732" lon="11.9681731"><ele>930.8000000000001</ele><time>2026-04-12T09:06:30.147Z</time></trkpt><trkpt lat="43.5937047" lon="11.9683011"><ele>932.6000000000001</ele><time>2026-04-12T09:06:31.139Z</time></trkpt><trkpt lat="43.5937455" lon="11.9684349"><ele>934.4</ele><time>2026-04-12T09:06:32.145Z</time></trkpt><trkpt lat="43.5937986" lon="11.9685684"><ele>936.2</ele><time>2026-04-12T09:06:33.125Z</time></trkpt><trkpt lat="43.5938556" lon="11.9686866"><ele>938.0</ele><time>2026-04-12T09:06:34.128Z</time></trkpt><trkpt lat="43.5939125" lon="11.9687805"><ele>938.0</ele><time>2026-04-12T09:06:35.132Z</time></trkpt><trkpt lat="43.5939612" lon="11.9688522"><ele>938.0</ele><time>2026-04-12T09:06:37.16Z</time></trkpt><trkpt lat="43.5938658" lon="11.9689212"><ele>938.0</ele><time>2026-04-12T09:06:47.127Z</time></trkpt><trkpt lat="43.5937789" lon="11.96901"><ele>938.0</ele><time>2026-04-12T09:06:49.138Z</time></trkpt><trkpt lat="43.5937118" lon="11.9691518"><ele>938.0</ele><time>2026-04-12T09:06:51.123Z</time></trkpt><trkpt lat="43.593641" lon="11.9693035"><ele>935.4</ele><time>2026-04-12T09:06:53.141Z</time></trkpt><trkpt lat="43.593593" lon="11.9694031"><ele>932.8</ele><time>2026-04-12T09:06:54.133Z</time></trkpt><trkpt lat="43.5935383" lon="11.9695057"><ele>930.2</ele><time>2026-04-12T09:06:55.13Z</time></trkpt><trkpt lat="43.5934681" lon="11.9696025"><ele>927.6</ele><time>2026-04-12T09:06:56.131Z</time></trkpt><trkpt lat="43.5933978" lon="11.9696873"><ele>925.0</ele><time>2026-04-12T09:06:57.124Z</time></trkpt><trkpt lat="43.5933289" lon="11.9697691"><ele>924.9999999999999</ele><time>2026-04-12T09:06:58.142Z</time></trkpt><trkpt lat="43.5932598" lon="11.9698523"><ele>925.0</ele><time>2026-04-12T09:06:59.136Z</time></trkpt><trkpt lat="43.593198" lon="11.9699296"><ele>925.0</ele><time>2026-04-12T09:07:00.14Z</time></trkpt><trkpt lat="43.5931373" lon="11.9700094"><ele>925.0</ele><time>2026-04-12T09:07:01.146Z</time></trkpt><trkpt lat="43.5930842" lon="11.9700831"><ele>924.9999999999999</ele><time>2026-04-12T09:07:02.143Z</time></trkpt><trkpt lat="43.59303" lon="11.9701574"><ele>925.0</ele><time>2026-04-12T09:07:03.128Z</time></trkpt><trkpt lat="43.5929762" lon="11.9702422"><ele>923.3333333333333</ele><time>2026-04-12T09:07:04.14Z</time></trkpt><trkpt lat="43.5929236" lon="11.9703259"><ele>921.6666666666666</ele><time>2026-04-12T09:07:05.13Z</time></trkpt><trkpt lat="43.5928709" lon="11.9704154"><ele>920.0</ele><time>2026-04-12T09:07:06.143Z</time></trkpt><trkpt lat="43.5928249" lon="11.9704941"><ele>918.3333333333333</ele><time>2026-04-12T09:07:07.126Z</time></trkpt><trkpt lat="43.5927837" lon="11.9705874"><ele>916.6666666666666</ele><time>2026-04-12T09:07:08.129Z</time></trkpt><trkpt lat="43.5927422" lon="11.970698"><ele>915.0</ele><time>2026-04-12T09:07:09.129Z</time></trkpt><trkpt lat="43.5926976" lon="11.9708147"><ele>911.6</ele><time>2026-04-12T09:07:10.144Z</time></trkpt><trkpt lat="43.5926539" lon="11.970928"><ele>908.2</ele><time>2026-04-12T09:07:11.135Z</time></trkpt><trkpt lat="43.592611" lon="11.9710427"><ele>904.8</ele><time>2026-04-12T09:07:12.12Z</time></trkpt><trkpt lat="43.5925699" lon="11.9711671"><ele>901.4</ele><time>2026-04-12T09:07:13.136Z</time></trkpt><trkpt lat="43.5925308" lon="11.9713032"><ele>898.0</ele><time>2026-04-12T09:07:14.123Z</time></trkpt><trkpt lat="43.5924984" lon="11.9714295"><ele>897.9999999999999</ele><time>2026-04-12T09:07:15.124Z</time></trkpt><trkpt lat="43.5924702" lon="11.9715487"><ele>898.0</ele><time>2026-04-12T09:07:16.126Z</time></trkpt><trkpt lat="43.5924453" lon="11.9716541"><ele>898.0</ele><time>2026-04-12T09:07:17.134Z</time></trkpt><trkpt lat="43.5924183" lon="11.9717597"><ele>898.0</ele><time>2026-04-12T09:07:18.137Z</time></trkpt><trkpt lat="43.5923879" lon="11.9718624"><ele>897.9999999999999</ele><time>2026-04-12T09:07:19.113Z</time></trkpt><trkpt lat="43.5923524" lon="11.9719715"><ele>898.0</ele><time>2026-04-12T09:07:20.141Z</time></trkpt><trkpt lat="43.5923213" lon="11.9720779"><ele>896.4999999999999</ele><time>2026-04-12T09:07:21.128Z</time></trkpt><trkpt lat="43.5922959" lon="11.9722045"><ele>895.0</ele><time>2026-04-12T09:07:22.126Z</time></trkpt><trkpt lat="43.5922744" lon="11.9723107"><ele>893.5</ele><time>2026-04-12T09:07:23.151Z</time></trkpt><trkpt lat="43.5922354" lon="11.9723888"><ele>892.0</ele><time>2026-04-12T09:07:24.121Z</time></trkpt><trkpt lat="43.5921835" lon="11.9724406"><ele>890.4999999999999</ele><time>2026-04-12T09:07:25.143Z</time></trkpt><trkpt lat="43.5920613" lon="11.9724467"><ele>889.0</ele><time>2026-04-12T09:07:27.134Z</time></trkpt><trkpt lat="43.5920111" lon="11.9723936"><ele>887.4999999999999</ele><time>2026-04-12T09:07:28.129Z</time></trkpt><trkpt lat="43.5919215" lon="11.9722698"><ele>886.0</ele><time>2026-04-12T09:07:30.133Z</time></trkpt><trkpt lat="43.5918848" lon="11.972198"><ele>884.5</ele><time>2026-04-12T09:07:31.124Z</time></trkpt><trkpt lat="43.5918372" lon="11.9721354"><ele>883.0</ele><time>2026-04-12T09:07:32.125Z</time></trkpt><trkpt lat="43.5917851" lon="11.9720769"><ele>881.4999999999999</ele><time>2026-04-12T09:07:33.124Z</time></trkpt><trkpt lat="43.5917309" lon="11.9720234"><ele>880.0</ele><time>2026-04-12T09:07:34.122Z</time></trkpt><trkpt lat="43.591672" lon="11.9719844"><ele>879.9999999999999</ele><time>2026-04-12T09:07:35.141Z</time></trkpt><trkpt lat="43.5916052" lon="11.9719725"><ele>880.0</ele><time>2026-04-12T09:07:36.149Z</time></trkpt><trkpt lat="43.5915306" lon="11.9719981"><ele>880.0</ele><time>2026-04-12T09:07:37.13Z</time></trkpt><trkpt lat="43.5914493" lon="11.9720274"><ele>880.0</ele><time>2026-04-12T09:07:38.122Z</time></trkpt><trkpt lat="43.591373" lon="11.9720765"><ele>879.9999999999999</ele><time>2026-04-12T09:07:39.146Z</time></trkpt><trkpt lat="43.591303" lon="11.9721535"><ele>880.0</ele><time>2026-04-12T09:07:40.131Z</time></trkpt><trkpt lat="43.5912469" lon="11.972247"><ele>879.9999999999999</ele><time>2026-04-12T09:07:41.142Z</time></trkpt><trkpt lat="43.5911941" lon="11.9723209"><ele>880.0</ele><time>2026-04-12T09:07:42.145Z</time></trkpt><trkpt lat="43.591145" lon="11.9723932"><ele>880.0</ele><time>2026-04-12T09:07:43.145Z</time></trkpt><trkpt lat="43.591086" lon="11.9724893"><ele>880.0</ele><time>2026-04-12T09:07:44.134Z</time></trkpt><trkpt lat="43.5910591" lon="11.9726023"><ele>879.9999999999999</ele><time>2026-04-12T09:07:45.138Z</time></trkpt><trkpt lat="43.5910478" lon="11.9727019"><ele>880.0</ele><time>2026-04-12T09:07:46.139Z</time></trkpt><trkpt lat="43.5910722" lon="11.972831"><ele>876.0</ele><time>2026-04-12T09:07:47.143Z</time></trkpt><trkpt lat="43.5910945" lon="11.9729696"><ele>872.0</ele><time>2026-04-12T09:07:48.132Z</time></trkpt><trkpt lat="43.591114" lon="11.9730793"><ele>868.0</ele><time>2026-04-12T09:07:49.125Z</time></trkpt><trkpt lat="43.591112" lon="11.9731684"><ele>864.0</ele><time>2026-04-12T09:07:50.128Z</time></trkpt><trkpt lat="43.5910805" lon="11.9733545"><ele>860.0</ele><time>2026-04-12T09:07:52.12Z</time></trkpt><trkpt lat="43.5910447" lon="11.973467"><ele>859.0000000000001</ele><time>2026-04-12T09:07:53.131Z</time></trkpt><trkpt lat="43.5910108" lon="11.9735794"><ele>858.0</ele><time>2026-04-12T09:07:54.141Z</time></trkpt><trkpt lat="43.5909796" lon="11.9736975"><ele>857.0</ele><time>2026-04-12T09:07:55.142Z</time></trkpt><trkpt lat="43.5909467" lon="11.9738103"><ele>856.0</ele><time>2026-04-12T09:07:56.137Z</time></trkpt><trkpt lat="43.5909074" lon="11.9739103"><ele>855.0000000000001</ele><time>2026-04-12T09:07:57.147Z</time></trkpt><trkpt lat="43.5908691" lon="11.9739992"><ele>854.0</ele><time>2026-04-12T09:07:58.132Z</time></trkpt><trkpt lat="43.5907785" lon="11.9741042"><ele>854.0000000000001</ele><time>2026-04-12T09:08:00.13Z</time></trkpt><trkpt lat="43.590696" lon="11.9741083"><ele>854.0</ele><time>2026-04-12T09:08:01.155Z</time></trkpt><trkpt lat="43.5906125" lon="11.9740804"><ele>854.0</ele><time>2026-04-12T09:08:02.149Z</time></trkpt><trkpt lat="43.5905234" lon="11.974049"><ele>854.0</ele><time>2026-04-12T09:08:03.154Z</time></trkpt><trkpt lat="43.5904437" lon="11.9740081"><ele>854.0000000000001</ele><time>2026-04-12T09:08:04.152Z</time></trkpt><trkpt lat="43.5903645" lon="11.9739664"><ele>854.0</ele><time>2026-04-12T09:08:05.147Z</time></trkpt><trkpt lat="43.5902869" lon="11.9739182"><ele>853.8333333333334</ele><time>2026-04-12T09:08:06.151Z</time></trkpt><trkpt lat="43.5902135" lon="11.97387"><ele>853.6666666666667</ele><time>2026-04-12T09:08:07.142Z</time></trkpt><trkpt lat="43.5901649" lon="11.9737763"><ele>853.5</ele><time>2026-04-12T09:08:08.141Z</time></trkpt><trkpt lat="43.5901149" lon="11.9736839"><ele>853.3333333333333</ele><time>2026-04-12T09:08:09.134Z</time></trkpt><trkpt lat="43.5900579" lon="11.9736069"><ele>853.1666666666666</ele><time>2026-04-12T09:08:10.156Z</time></trkpt><trkpt lat="43.5899847" lon="11.9735413"><ele>853.0</ele><time>2026-04-12T09:08:11.151Z</time></trkpt><trkpt lat="43.5899198" lon="11.9734874"><ele>853.0</ele><time>2026-04-12T09:08:12.153Z</time></trkpt><trkpt lat="43.5898445" lon="11.9733846"><ele>853.0</ele><time>2026-04-12T09:08:14.166Z</time></trkpt><trkpt lat="43.5898535" lon="11.9732264"><ele>853.0</ele><time>2026-04-12T09:08:16.143Z</time></trkpt><trkpt lat="43.5898715" lon="11.9731209"><ele>853.0</ele><time>2026-04-12T09:08:17.14Z</time></trkpt><trkpt lat="43.5898938" lon="11.972996"><ele>853.0</ele><time>2026-04-12T09:08:18.14Z</time></trkpt><trkpt lat="43.5899061" lon="11.9728778"><ele>851.3333333333333</ele><time>2026-04-12T09:08:19.165Z</time></trkpt><trkpt lat="43.5899191" lon="11.9727665"><ele>849.6666666666666</ele><time>2026-04-12T09:08:20.155Z</time></trkpt><trkpt lat="43.5899182" lon="11.9726516"><ele>848.0</ele><time>2026-04-12T09:08:21.143Z</time></trkpt><trkpt lat="43.5899145" lon="11.9725522"><ele>846.3333333333333</ele><time>2026-04-12T09:08:22.137Z</time></trkpt><trkpt lat="43.5899156" lon="11.9724634"><ele>844.6666666666666</ele><time>2026-04-12T09:08:23.144Z</time></trkpt><trkpt lat="43.5898884" lon="11.9723217"><ele>843.0</ele><time>2026-04-12T09:08:25.148Z</time></trkpt><trkpt lat="43.5899084" lon="11.9722166"><ele>842.5</ele><time>2026-04-12T09:08:28.119Z</time></trkpt><trkpt lat="43.5898453" lon="11.9722629"><ele>842.0</ele><time>2026-04-12T09:09:48.139Z</time></trkpt><trkpt lat="43.589732" lon="11.9722892"><ele>841.5</ele><time>2026-04-12T09:09:50.155Z</time></trkpt><trkpt lat="43.589667" lon="11.9723211"><ele>841.0</ele><time>2026-04-12T09:09:51.162Z</time></trkpt><trkpt lat="43.5896109" lon="11.9723775"><ele>840.5</ele><time>2026-04-12T09:09:52.124Z</time></trkpt><trkpt lat="43.589512" lon="11.9724443"><ele>840.0</ele><time>2026-04-12T09:09:54.129Z</time></trkpt><trkpt lat="43.5894489" lon="11.9724661"><ele>836.6</ele><time>2026-04-12T09:09:55.134Z</time></trkpt><trkpt lat="43.5893368" lon="11.97251"><ele>833.2</ele><time>2026-04-12T09:09:57.128Z</time></trkpt><trkpt lat="43.5892209" lon="11.9725261"><ele>829.8</ele><time>2026-04-12T09:09:59.132Z</time></trkpt><trkpt lat="43.5891615" lon="11.9724828"><ele>826.4</ele><time>2026-04-12T09:10:00.125Z</time></trkpt><trkpt lat="43.5890804" lon="11.9724391"><ele>823.0</ele><time>2026-04-12T09:10:01.122Z</time></trkpt><trkpt lat="43.5890012" lon="11.9724111"><ele>822.9999999999999</ele><time>2026-04-12T09:10:02.127Z</time></trkpt><trkpt lat="43.5889147" lon="11.9723979"><ele>823.0</ele><time>2026-04-12T09:10:03.143Z</time></trkpt><trkpt lat="43.5888278" lon="11.9723962"><ele>823.0</ele><time>2026-04-12T09:10:04.142Z</time></trkpt><trkpt lat="43.5887447" lon="11.9723947"><ele>823.0</ele><time>2026-04-12T09:10:05.132Z</time></trkpt><trkpt lat="43.5886596" lon="11.9724083"><ele>822.9999999999999</ele><time>2026-04-12T09:10:06.143Z</time></trkpt><trkpt lat="43.5885808" lon="11.9724099"><ele>823.0</ele><time>2026-04-12T09:10:07.138Z</time></trkpt><trkpt lat="43.5885054" lon="11.9724028"><ele>819.9999999999999</ele><time>2026-04-12T09:10:08.126Z</time></trkpt><trkpt lat="43.5884228" lon="11.9723906"><ele>817.0</ele><time>2026-04-12T09:10:09.122Z</time></trkpt><trkpt lat="43.5883455" lon="11.9723781"><ele>814.0</ele><time>2026-04-12T09:10:10.129Z</time></trkpt><trkpt lat="43.5882597" lon="11.9723607"><ele>811.0</ele><time>2026-04-12T09:10:11.128Z</time></trkpt><trkpt lat="43.5881739" lon="11.972344"><ele>807.9999999999999</ele><time>2026-04-12T09:10:12.136Z</time></trkpt><trkpt lat="43.5880882" lon="11.9723377"><ele>805.0</ele><time>2026-04-12T09:10:13.126Z</time></trkpt><trkpt lat="43.5879942" lon="11.9723262"><ele>804.9999999999999</ele><time>2026-04-12T09:10:14.128Z</time></trkpt><trkpt lat="43.587907" lon="11.9723097"><ele>805.0</ele><time>2026-04-12T09:10:15.128Z</time></trkpt><trkpt lat="43.5878205" lon="11.9722989"><ele>805.0</ele><time>2026-04-12T09:10:16.144Z</time></trkpt><trkpt lat="43.5877362" lon="11.9722845"><ele>805.0</ele><time>2026-04-12T09:10:17.139Z</time></trkpt><trkpt lat="43.5876509" lon="11.9722707"><ele>804.9999999999999</ele><time>2026-04-12T09:10:18.146Z</time></trkpt><trkpt lat="43.5875615" lon="11.972251"><ele>805.0</ele><time>2026-04-12T09:10:19.137Z</time></trkpt><trkpt lat="43.5874797" lon="11.9722272"><ele>801.6</ele><time>2026-04-12T09:10:20.13Z</time></trkpt><trkpt lat="43.5873904" lon="11.9722117"><ele>798.2</ele><time>2026-04-12T09:10:21.134Z</time></trkpt><trkpt lat="43.5873008" lon="11.9721894"><ele>794.8</ele><time>2026-04-12T09:10:22.124Z</time></trkpt><trkpt lat="43.5872142" lon="11.9721602"><ele>791.4</ele><time>2026-04-12T09:10:23.133Z</time></trkpt><trkpt lat="43.5871277" lon="11.9720976"><ele>788.0</ele><time>2026-04-12T09:10:24.13Z</time></trkpt><trkpt lat="43.587038" lon="11.9720445"><ele>785.5000000000001</ele><time>2026-04-12T09:10:25.134Z</time></trkpt><trkpt lat="43.5869509" lon="11.9719957"><ele>783.0</ele><time>2026-04-12T09:10:26.118Z</time></trkpt><trkpt lat="43.5868683" lon="11.9719468"><ele>780.5</ele><time>2026-04-12T09:10:27.128Z</time></trkpt><trkpt lat="43.5867918" lon="11.971895"><ele>778.0</ele><time>2026-04-12T09:10:28.128Z</time></trkpt><trkpt lat="43.5867184" lon="11.9718561"><ele>775.5000000000001</ele><time>2026-04-12T09:10:29.129Z</time></trkpt><trkpt lat="43.5866368" lon="11.9718195"><ele>773.0</ele><time>2026-04-12T09:10:30.128Z</time></trkpt><trkpt lat="43.5865663" lon="11.9718008"><ele>773.0000000000001</ele><time>2026-04-12T09:10:31.135Z</time></trkpt><trkpt lat="43.5864966" lon="11.9718016"><ele>773.0</ele><time>2026-04-12T09:10:32.136Z</time></trkpt><trkpt lat="43.5864278" lon="11.971811"><ele>773.0</ele><time>2026-04-12T09:10:33.133Z</time></trkpt><trkpt lat="43.5863672" lon="11.9718604"><ele>773.0</ele><time>2026-04-12T09:10:34.132Z</time></trkpt><trkpt lat="43.5863201" lon="11.9719266"><ele>773.0000000000001</ele><time>2026-04-12T09:10:35.128Z</time></trkpt><trkpt lat="43.5862902" lon="11.9720036"><ele>773.0</ele><time>2026-04-12T09:10:36.127Z</time></trkpt><trkpt lat="43.5862566" lon="11.9721712"><ele>773.0</ele><time>2026-04-12T09:10:38.127Z</time></trkpt><trkpt lat="43.5862571" lon="11.9722621"><ele>773.0</ele><time>2026-04-12T09:10:39.131Z</time></trkpt><trkpt lat="43.5862565" lon="11.9723582"><ele>773.0</ele><time>2026-04-12T09:10:40.133Z</time></trkpt><trkpt lat="43.5862407" lon="11.9724441"><ele>773.0</ele><time>2026-04-12T09:10:41.136Z</time></trkpt><trkpt lat="43.5862073" lon="11.9725323"><ele>773.0</ele><time>2026-04-12T09:10:42.128Z</time></trkpt><trkpt lat="43.5861754" lon="11.972621"><ele>773.0</ele><time>2026-04-12T09:10:43.142Z</time></trkpt><trkpt lat="43.5861351" lon="11.9726997"><ele>773.0</ele><time>2026-04-12T09:10:44.134Z</time></trkpt><trkpt lat="43.5860968" lon="11.9727703"><ele>768.6666666666667</ele><time>2026-04-12T09:10:45.129Z</time></trkpt><trkpt lat="43.5860419" lon="11.9728174"><ele>764.3333333333334</ele><time>2026-04-12T09:10:46.137Z</time></trkpt><trkpt lat="43.5859854" lon="11.972866"><ele>760.0</ele><time>2026-04-12T09:10:47.118Z</time></trkpt><trkpt lat="43.5859194" lon="11.972915"><ele>755.6666666666667</ele><time>2026-04-12T09:10:48.133Z</time></trkpt><trkpt lat="43.5858552" lon="11.972969"><ele>751.3333333333334</ele><time>2026-04-12T09:10:49.136Z</time></trkpt><trkpt lat="43.5857884" lon="11.9730249"><ele>747.0</ele><time>2026-04-12T09:10:50.138Z</time></trkpt><trkpt lat="43.5857132" lon="11.9730945"><ele>747.0</ele><time>2026-04-12T09:10:51.13Z</time></trkpt><trkpt lat="43.5856399" lon="11.9731601"><ele>747.0</ele><time>2026-04-12T09:10:52.124Z</time></trkpt><trkpt lat="43.5855652" lon="11.9732124"><ele>747.0</ele><time>2026-04-12T09:10:53.134Z</time></trkpt><trkpt lat="43.5854914" lon="11.9732677"><ele>747.0</ele><time>2026-04-12T09:10:54.131Z</time></trkpt><trkpt lat="43.5854208" lon="11.9733339"><ele>747.0</ele><time>2026-04-12T09:10:55.128Z</time></trkpt><trkpt lat="43.5853509" lon="11.9734094"><ele>747.0</ele><time>2026-04-12T09:10:56.135Z</time></trkpt><trkpt lat="43.5852949" lon="11.9734945"><ele>744.6666666666666</ele><time>2026-04-12T09:10:57.135Z</time></trkpt><trkpt lat="43.5852447" lon="11.9735739"><ele>742.3333333333334</ele><time>2026-04-12T09:10:58.129Z</time></trkpt><trkpt lat="43.5851947" lon="11.9736408"><ele>740.0</ele><time>2026-04-12T09:10:59.142Z</time></trkpt><trkpt lat="43.5850902" lon="11.9737084"><ele>737.6666666666667</ele><time>2026-04-12T09:11:01.136Z</time></trkpt><trkpt lat="43.5850149" lon="11.9737235"><ele>735.3333333333334</ele><time>2026-04-12T09:11:02.125Z</time></trkpt><trkpt lat="43.5849312" lon="11.9737324"><ele>733.0</ele><time>2026-04-12T09:11:03.13Z</time></trkpt><trkpt lat="43.5848536" lon="11.9737431"><ele>732.9999999999999</ele><time>2026-04-12T09:11:04.132Z</time></trkpt><trkpt lat="43.5847761" lon="11.9737554"><ele>733.0</ele><time>2026-04-12T09:11:05.142Z</time></trkpt><trkpt lat="43.5846976" lon="11.9737652"><ele>733.0</ele><time>2026-04-12T09:11:06.12Z</time></trkpt><trkpt lat="43.5846225" lon="11.9737664"><ele>733.0</ele><time>2026-04-12T09:11:07.123Z</time></trkpt><trkpt lat="43.5845544" lon="11.973772"><ele>733.0</ele><time>2026-04-12T09:11:08.133Z</time></trkpt><trkpt lat="43.5844846" lon="11.9737822"><ele>732.9999999999999</ele><time>2026-04-12T09:11:09.13Z</time></trkpt><trkpt lat="43.5844122" lon="11.9737925"><ele>733.0</ele><time>2026-04-12T09:11:10.139Z</time></trkpt><trkpt lat="43.5843397" lon="11.9738034"><ele>730.8333333333334</ele><time>2026-04-12T09:11:11.145Z</time></trkpt><trkpt lat="43.5842695" lon="11.9738147"><ele>728.6666666666667</ele><time>2026-04-12T09:11:12.131Z</time></trkpt><trkpt lat="43.5841997" lon="11.9738369"><ele>726.5</ele><time>2026-04-12T09:11:13.137Z</time></trkpt><trkpt lat="43.5841364" lon="11.9738565"><ele>724.3333333333334</ele><time>2026-04-12T09:11:14.143Z</time></trkpt><trkpt lat="43.5840101" lon="11.9738425"><ele>722.1666666666666</ele><time>2026-04-12T09:11:16.149Z</time></trkpt><trkpt lat="43.5838983" lon="11.9738651"><ele>720.0</ele><time>2026-04-12T09:11:18.128Z</time></trkpt><trkpt lat="43.583847" lon="11.9739673"><ele>720.0</ele><time>2026-04-12T09:11:20.142Z</time></trkpt><trkpt lat="43.5839078" lon="11.974112"><ele>720.0</ele><time>2026-04-12T09:11:22.148Z</time></trkpt><trkpt lat="43.5839504" lon="11.9741907"><ele>720.0</ele><time>2026-04-12T09:11:23.14Z</time></trkpt><trkpt lat="43.5839927" lon="11.9742745"><ele>720.0</ele><time>2026-04-12T09:11:24.127Z</time></trkpt><trkpt lat="43.5840416" lon="11.9743645"><ele>720.0</ele><time>2026-04-12T09:11:25.154Z</time></trkpt><trkpt lat="43.5840912" lon="11.9744598"><ele>720.0</ele><time>2026-04-12T09:11:26.147Z</time></trkpt><trkpt lat="43.5841447" lon="11.9745596"><ele>717.8333333333334</ele><time>2026-04-12T09:11:27.136Z</time></trkpt><trkpt lat="43.5841895" lon="11.9746508"><ele>715.6666666666666</ele><time>2026-04-12T09:11:28.136Z</time></trkpt><trkpt lat="43.5842332" lon="11.9747557"><ele>713.5</ele><time>2026-04-12T09:11:29.14Z</time></trkpt><trkpt lat="43.5842787" lon="11.9748513"><ele>711.3333333333333</ele><time>2026-04-12T09:11:30.129Z</time></trkpt><trkpt lat="43.5843111" lon="11.9749456"><ele>709.1666666666666</ele><time>2026-04-12T09:11:31.151Z</time></trkpt><trkpt lat="43.5843222" lon="11.9750466"><ele>707.0</ele><time>2026-04-12T09:11:32.139Z</time></trkpt><trkpt lat="43.5843203" lon="11.9751739"><ele>704.5</ele><time>2026-04-12T09:11:33.131Z</time></trkpt><trkpt lat="43.5843147" lon="11.9753035"><ele>702.0</ele><time>2026-04-12T09:11:34.133Z</time></trkpt><trkpt lat="43.5843062" lon="11.9754319"><ele>699.5</ele><time>2026-04-12T09:11:35.121Z</time></trkpt><trkpt lat="43.5843068" lon="11.9755475"><ele>697.0</ele><time>2026-04-12T09:11:36.132Z</time></trkpt><trkpt lat="43.5843244" lon="11.9756534"><ele>694.5</ele><time>2026-04-12T09:11:37.13Z</time></trkpt><trkpt lat="43.5843612" lon="11.9757409"><ele>692.0</ele><time>2026-04-12T09:11:38.135Z</time></trkpt><trkpt lat="43.5844129" lon="11.9758154"><ele>691.6666666666666</ele><time>2026-04-12T09:11:39.138Z</time></trkpt><trkpt lat="43.5844806" lon="11.975899"><ele>691.3333333333333</ele><time>2026-04-12T09:11:40.126Z</time></trkpt><trkpt lat="43.5845481" lon="11.9759809"><ele>691.0</ele><time>2026-04-12T09:11:41.131Z</time></trkpt><trkpt lat="43.5846134" lon="11.9760584"><ele>690.6666666666666</ele><time>2026-04-12T09:11:42.148Z</time></trkpt><trkpt lat="43.5846764" lon="11.9761281"><ele>690.3333333333334</ele><time>2026-04-12T09:11:43.136Z</time></trkpt><trkpt lat="43.5847369" lon="11.9761717"><ele>690.0</ele><time>2026-04-12T09:11:44.126Z</time></trkpt><trkpt lat="43.5848535" lon="11.9761692"><ele>690.0</ele><time>2026-04-12T09:11:46.134Z</time></trkpt><trkpt lat="43.5849141" lon="11.9761218"><ele>690.0</ele><time>2026-04-12T09:11:47.13Z</time></trkpt><trkpt lat="43.5849666" lon="11.9760633"><ele>690.0</ele><time>2026-04-12T09:11:48.137Z</time></trkpt><trkpt lat="43.5850257" lon="11.9760097"><ele>690.0</ele><time>2026-04-12T09:11:49.132Z</time></trkpt><trkpt lat="43.585128" lon="11.975984"><ele>690.0</ele><time>2026-04-12T09:11:51.127Z</time></trkpt><trkpt lat="43.5851894" lon="11.976101"><ele>690.0</ele><time>2026-04-12T09:11:53.133Z</time></trkpt><trkpt lat="43.5851836" lon="11.9762225"><ele>690.0</ele><time>2026-04-12T09:11:54.134Z</time></trkpt><trkpt lat="43.5851744" lon="11.9763474"><ele>690.0</ele><time>2026-04-12T09:11:55.125Z</time></trkpt><trkpt lat="43.5851515" lon="11.9764992"><ele>690.0</ele><time>2026-04-12T09:11:56.123Z</time></trkpt><trkpt lat="43.5851368" lon="11.9766189"><ele>690.0</ele><time>2026-04-12T09:11:57.134Z</time></trkpt><trkpt lat="43.5851209" lon="11.976728"><ele>690.0</ele><time>2026-04-12T09:11:58.143Z</time></trkpt><trkpt lat="43.5851118" lon="11.9768258"><ele>690.0</ele><time>2026-04-12T09:11:59.145Z</time></trkpt><trkpt lat="43.5850994" lon="11.9769239"><ele>688.8571428571429</ele><time>2026-04-12T09:12:00.138Z</time></trkpt><trkpt lat="43.5850837" lon="11.9770111"><ele>687.7142857142857</ele><time>2026-04-12T09:12:01.14Z</time></trkpt><trkpt lat="43.5850575" lon="11.9771003"><ele>686.5714285714286</ele><time>2026-04-12T09:12:02.135Z</time></trkpt><trkpt lat="43.5850309" lon="11.9771939"><ele>685.4285714285714</ele><time>2026-04-12T09:12:03.137Z</time></trkpt><trkpt lat="43.5849915" lon="11.9772879"><ele>684.2857142857143</ele><time>2026-04-12T09:12:04.164Z</time></trkpt><trkpt lat="43.584949" lon="11.9773757"><ele>683.1428571428571</ele><time>2026-04-12T09:12:05.143Z</time></trkpt><trkpt lat="43.5849059" lon="11.9774512"><ele>682.0</ele><time>2026-04-12T09:12:06.144Z</time></trkpt><trkpt lat="43.5848411" lon="11.9775799"><ele>680.0</ele><time>2026-04-12T09:12:08.139Z</time></trkpt><trkpt lat="43.5848006" lon="11.9777054"><ele>678.0</ele><time>2026-04-12T09:12:10.137Z</time></trkpt><trkpt lat="43.5847934" lon="11.9778375"><ele>676.0</ele><time>2026-04-12T09:12:12.146Z</time></trkpt><trkpt lat="43.584752" lon="11.9779321"><ele>674.0</ele><time>2026-04-12T09:12:14.138Z</time></trkpt><trkpt lat="43.5846666" lon="11.9779072"><ele>672.0</ele><time>2026-04-12T09:12:16.138Z</time></trkpt><trkpt lat="43.5845802" lon="11.977827"><ele>668.6</ele><time>2026-04-12T09:12:18.141Z</time></trkpt><trkpt lat="43.5844954" lon="11.9777801"><ele>665.2</ele><time>2026-04-12T09:12:20.126Z</time></trkpt><trkpt lat="43.5844232" lon="11.9778135"><ele>661.8</ele><time>2026-04-12T09:12:22.13Z</time></trkpt><trkpt lat="43.5843916" lon="11.9779312"><ele>658.4</ele><time>2026-04-12T09:12:24.129Z</time></trkpt><trkpt lat="43.5843108" lon="11.9780478"><ele>655.0</ele><time>2026-04-12T09:12:26.144Z</time></trkpt><trkpt lat="43.5842377" lon="11.978095"><ele>655.0</ele><time>2026-04-12T09:12:27.14Z</time></trkpt><trkpt lat="43.5841612" lon="11.9781427"><ele>655.0</ele><time>2026-04-12T09:12:28.132Z</time></trkpt><trkpt lat="43.5840823" lon="11.978203"><ele>655.0</ele><time>2026-04-12T09:12:29.127Z</time></trkpt><trkpt lat="43.5840115" lon="11.9782765"><ele>655.0</ele><time>2026-04-12T09:12:30.143Z</time></trkpt><trkpt lat="43.5839565" lon="11.9783772"><ele>655.0</ele><time>2026-04-12T09:12:31.132Z</time></trkpt><trkpt lat="43.5839086" lon="11.9784759"><ele>655.0</ele><time>2026-04-12T09:12:32.14Z</time></trkpt><trkpt lat="43.5838691" lon="11.9785669"><ele>653.3333333333334</ele><time>2026-04-12T09:12:33.146Z</time></trkpt><trkpt lat="43.5838494" lon="11.9786648"><ele>651.6666666666667</ele><time>2026-04-12T09:12:34.139Z</time></trkpt><trkpt lat="43.5838458" lon="11.9787743"><ele>650.0</ele><time>2026-04-12T09:12:35.14Z</time></trkpt><trkpt lat="43.5838368" lon="11.9788813"><ele>648.3333333333334</ele><time>2026-04-12T09:12:36.126Z</time></trkpt><trkpt lat="43.5838222" lon="11.9789925"><ele>646.6666666666666</ele><time>2026-04-12T09:12:37.152Z</time></trkpt><trkpt lat="43.5838019" lon="11.9791048"><ele>645.0</ele><time>2026-04-12T09:12:38.14Z</time></trkpt><trkpt lat="43.5837795" lon="11.9792202"><ele>643.1666666666666</ele><time>2026-04-12T09:12:39.136Z</time></trkpt><trkpt lat="43.583759" lon="11.9793378"><ele>641.3333333333334</ele><time>2026-04-12T09:12:40.135Z</time></trkpt><trkpt lat="43.583739" lon="11.9794454"><ele>639.5</ele><time>2026-04-12T09:12:41.137Z</time></trkpt><trkpt lat="43.5837222" lon="11.9795421"><ele>637.6666666666667</ele><time>2026-04-12T09:12:42.162Z</time></trkpt><trkpt lat="43.5837194" lon="11.9796947"><ele>635.8333333333334</ele><time>2026-04-12T09:12:44.13Z</time></trkpt><trkpt lat="43.5837935" lon="11.9797829"><ele>634.0</ele><time>2026-04-12T09:12:46.154Z</time></trkpt><trkpt lat="43.5839192" lon="11.9798443"><ele>634.0</ele><time>2026-04-12T09:12:48.139Z</time></trkpt><trkpt lat="43.5839891" lon="11.9798747"><ele>634.0</ele><time>2026-04-12T09:12:49.135Z</time></trkpt><trkpt lat="43.5840575" lon="11.9799097"><ele>634.0</ele><time>2026-04-12T09:12:50.143Z</time></trkpt><trkpt lat="43.5841212" lon="11.9799503"><ele>634.0</ele><time>2026-04-12T09:12:51.14Z</time></trkpt><trkpt lat="43.5841833" lon="11.979996"><ele>634.0</ele><time>2026-04-12T09:12:52.137Z</time></trkpt><trkpt lat="43.5842453" lon="11.9800428"><ele>634.0</ele><time>2026-04-12T09:12:53.153Z</time></trkpt><trkpt lat="43.5842941" lon="11.9801253"><ele>634.0</ele><time>2026-04-12T09:12:54.149Z</time></trkpt><trkpt lat="43.5843354" lon="11.9802105"><ele>632.2857142857143</ele><time>2026-04-12T09:12:55.143Z</time></trkpt><trkpt lat="43.584371" lon="11.9803011"><ele>630.5714285714286</ele><time>2026-04-12T09:12:56.137Z</time></trkpt><trkpt lat="43.5844024" lon="11.980392"><ele>628.8571428571429</ele><time>2026-04-12T09:12:57.131Z</time></trkpt><trkpt lat="43.5844336" lon="11.9804815"><ele>627.1428571428571</ele><time>2026-04-12T09:12:58.125Z</time></trkpt><trkpt lat="43.5844637" lon="11.9805679"><ele>625.4285714285714</ele><time>2026-04-12T09:12:59.156Z</time></trkpt><trkpt lat="43.5844895" lon="11.9806549"><ele>623.7142857142857</ele><time>2026-04-12T09:13:00.137Z</time></trkpt><trkpt lat="43.584511" lon="11.9807421"><ele>622.0</ele><time>2026-04-12T09:13:01.131Z</time></trkpt><trkpt lat="43.584535" lon="11.9808647"><ele>621.8333333333334</ele><time>2026-04-12T09:13:02.128Z</time></trkpt><trkpt lat="43.5845529" lon="11.9809799"><ele>621.6666666666667</ele><time>2026-04-12T09:13:03.133Z</time></trkpt><trkpt lat="43.58457" lon="11.9810848"><ele>621.5</ele><time>2026-04-12T09:13:04.147Z</time></trkpt><trkpt lat="43.5845962" lon="11.9811758"><ele>621.3333333333334</ele><time>2026-04-12T09:13:05.153Z</time></trkpt><trkpt lat="43.584631" lon="11.981252"><ele>621.1666666666666</ele><time>2026-04-12T09:13:06.133Z</time></trkpt><trkpt lat="43.5847136" lon="11.9813479"><ele>621.0</ele><time>2026-04-12T09:13:08.147Z</time></trkpt><trkpt lat="43.5848496" lon="11.9813616"><ele>621.0</ele><time>2026-04-12T09:13:10.134Z</time></trkpt><trkpt lat="43.58492" lon="11.9813718"><ele>621.0</ele><time>2026-04-12T09:13:11.132Z</time></trkpt><trkpt lat="43.584975" lon="11.9814308"><ele>621.0</ele><time>2026-04-12T09:13:12.135Z</time></trkpt><trkpt lat="43.5850128" lon="11.9816303"><ele>621.0</ele><time>2026-04-12T09:13:14.131Z</time></trkpt><trkpt lat="43.5850248" lon="11.981769"><ele>621.0</ele><time>2026-04-12T09:13:15.144Z</time></trkpt><trkpt lat="43.5850084" lon="11.9819311"><ele>619.75</ele><time>2026-04-12T09:13:16.135Z</time></trkpt><trkpt lat="43.584971" lon="11.9821052"><ele>618.5</ele><time>2026-04-12T09:13:17.134Z</time></trkpt><trkpt lat="43.5849134" lon="11.9822575"><ele>617.25</ele><time>2026-04-12T09:13:18.129Z</time></trkpt><trkpt lat="43.5848482" lon="11.9823884"><ele>616.0</ele><time>2026-04-12T09:13:19.161Z</time></trkpt><trkpt lat="43.5847867" lon="11.9825031"><ele>614.5</ele><time>2026-04-12T09:13:20.134Z</time></trkpt><trkpt lat="43.5847327" lon="11.9826163"><ele>613.0</ele><time>2026-04-12T09:13:21.14Z</time></trkpt><trkpt lat="43.584679" lon="11.9827108"><ele>611.5</ele><time>2026-04-12T09:13:22.155Z</time></trkpt><trkpt lat="43.5846203" lon="11.9827982"><ele>610.0</ele><time>2026-04-12T09:13:23.137Z</time></trkpt><trkpt lat="43.5845562" lon="11.9828771"><ele>608.5</ele><time>2026-04-12T09:13:24.133Z</time></trkpt><trkpt lat="43.5844942" lon="11.9829484"><ele>607.0</ele><time>2026-04-12T09:13:25.142Z</time></trkpt><trkpt lat="43.5844296" lon="11.9830148"><ele>606.8333333333334</ele><time>2026-04-12T09:13:26.135Z</time></trkpt><trkpt lat="43.5843725" lon="11.98308"><ele>606.6666666666667</ele><time>2026-04-12T09:13:27.132Z</time></trkpt><trkpt lat="43.5843184" lon="11.983144"><ele>606.5</ele><time>2026-04-12T09:13:28.133Z</time></trkpt><trkpt lat="43.5842986" lon="11.9832491"><ele>606.3333333333334</ele><time>2026-04-12T09:13:29.143Z</time></trkpt><trkpt lat="43.5842806" lon="11.9833586"><ele>606.1666666666666</ele><time>2026-04-12T09:13:30.142Z</time></trkpt><trkpt lat="43.5842782" lon="11.9835155"><ele>606.0</ele><time>2026-04-12T09:13:31.137Z</time></trkpt><trkpt lat="43.5842788" lon="11.9836915"><ele>605.4</ele><time>2026-04-12T09:13:32.149Z</time></trkpt><trkpt lat="43.5842543" lon="11.9838589"><ele>604.8</ele><time>2026-04-12T09:13:33.136Z</time></trkpt><trkpt lat="43.5842246" lon="11.9840062"><ele>604.1999999999999</ele><time>2026-04-12T09:13:34.138Z</time></trkpt><trkpt lat="43.5841897" lon="11.9841323"><ele>603.6</ele><time>2026-04-12T09:13:35.134Z</time></trkpt><trkpt lat="43.5841503" lon="11.9842458"><ele>603.0</ele><time>2026-04-12T09:13:36.127Z</time></trkpt><trkpt lat="43.5841064" lon="11.9843454"><ele>601.3333333333334</ele><time>2026-04-12T09:13:37.14Z</time></trkpt><trkpt lat="43.5840643" lon="11.984436"><ele>599.6666666666666</ele><time>2026-04-12T09:13:38.142Z</time></trkpt><trkpt lat="43.5840162" lon="11.9845175"><ele>598.0</ele><time>2026-04-12T09:13:39.135Z</time></trkpt><trkpt lat="43.5839698" lon="11.9846026"><ele>596.3333333333333</ele><time>2026-04-12T09:13:40.139Z</time></trkpt><trkpt lat="43.583923" lon="11.9847048"><ele>594.6666666666666</ele><time>2026-04-12T09:13:41.138Z</time></trkpt><trkpt lat="43.5838889" lon="11.9848004"><ele>593.0</ele><time>2026-04-12T09:13:42.131Z</time></trkpt><trkpt lat="43.5838548" lon="11.9849019"><ele>593.0</ele><time>2026-04-12T09:13:43.139Z</time></trkpt><trkpt lat="43.5838273" lon="11.9850122"><ele>593.0</ele><time>2026-04-12T09:13:44.135Z</time></trkpt><trkpt lat="43.5838052" lon="11.9851479"><ele>593.0</ele><time>2026-04-12T09:13:45.143Z</time></trkpt><trkpt lat="43.5837836" lon="11.985283"><ele>593.0</ele><time>2026-04-12T09:13:46.152Z</time></trkpt><trkpt lat="43.5837563" lon="11.9854197"><ele>593.0</ele><time>2026-04-12T09:13:47.152Z</time></trkpt><trkpt lat="43.5837298" lon="11.9855479"><ele>591.1999999999999</ele><time>2026-04-12T09:13:48.129Z</time></trkpt><trkpt lat="43.5837063" lon="11.9856809"><ele>589.4</ele><time>2026-04-12T09:13:49.141Z</time></trkpt><trkpt lat="43.5836841" lon="11.985803"><ele>587.5999999999999</ele><time>2026-04-12T09:13:50.144Z</time></trkpt><trkpt lat="43.5836575" lon="11.9859122"><ele>585.8</ele><time>2026-04-12T09:13:51.143Z</time></trkpt><trkpt lat="43.5836099" lon="11.9860185"><ele>584.0</ele><time>2026-04-12T09:13:52.146Z</time></trkpt><trkpt lat="43.5835494" lon="11.9861121"><ele>582.1666666666666</ele><time>2026-04-12T09:13:53.133Z</time></trkpt><trkpt lat="43.583485" lon="11.9861902"><ele>580.3333333333333</ele><time>2026-04-12T09:13:54.144Z</time></trkpt><trkpt lat="43.5834104" lon="11.9862528"><ele>578.5</ele><time>2026-04-12T09:13:55.151Z</time></trkpt><trkpt lat="43.583331" lon="11.9863034"><ele>576.6666666666666</ele><time>2026-04-12T09:13:56.153Z</time></trkpt><trkpt lat="43.5832525" lon="11.9863351"><ele>574.8333333333334</ele><time>2026-04-12T09:13:57.146Z</time></trkpt><trkpt lat="43.5831761" lon="11.9863433"><ele>573.0</ele><time>2026-04-12T09:13:58.138Z</time></trkpt><trkpt lat="43.5831048" lon="11.98633"><ele>573.0</ele><time>2026-04-12T09:13:59.13Z</time></trkpt><trkpt lat="43.5830386" lon="11.9863031"><ele>573.0</ele><time>2026-04-12T09:14:00.124Z</time></trkpt><trkpt lat="43.582975" lon="11.9862742"><ele>573.0</ele><time>2026-04-12T09:14:01.133Z</time></trkpt><trkpt lat="43.5828523" lon="11.9862476"><ele>573.0</ele><time>2026-04-12T09:14:03.136Z</time></trkpt><trkpt lat="43.5827868" lon="11.9862533"><ele>573.0</ele><time>2026-04-12T09:14:04.141Z</time></trkpt><trkpt lat="43.5827195" lon="11.9862743"><ele>573.0</ele><time>2026-04-12T09:14:05.16Z</time></trkpt><trkpt lat="43.5826525" lon="11.9863106"><ele>572.1666666666666</ele><time>2026-04-12T09:14:06.125Z</time></trkpt><trkpt lat="43.5825925" lon="11.9863552"><ele>571.3333333333334</ele><time>2026-04-12T09:14:07.137Z</time></trkpt><trkpt lat="43.582501" lon="11.9864548"><ele>570.5</ele><time>2026-04-12T09:14:09.135Z</time></trkpt><trkpt lat="43.5824187" lon="11.986585"><ele>569.6666666666667</ele><time>2026-04-12T09:14:11.152Z</time></trkpt><trkpt lat="43.5823749" lon="11.9866532"><ele>568.8333333333334</ele><time>2026-04-12T09:14:12.129Z</time></trkpt><trkpt lat="43.5823236" lon="11.9867174"><ele>568.0</ele><time>2026-04-12T09:14:13.13Z</time></trkpt><trkpt lat="43.5822681" lon="11.9867772"><ele>566.5</ele><time>2026-04-12T09:14:14.129Z</time></trkpt><trkpt lat="43.5822093" lon="11.9868253"><ele>565.0</ele><time>2026-04-12T09:14:15.158Z</time></trkpt><trkpt lat="43.5821474" lon="11.9868643"><ele>563.5</ele><time>2026-04-12T09:14:16.14Z</time></trkpt><trkpt lat="43.5820852" lon="11.9868932"><ele>562.0</ele><time>2026-04-12T09:14:17.13Z</time></trkpt><trkpt lat="43.5819818" lon="11.9869556"><ele>560.5</ele><time>2026-04-12T09:14:19.136Z</time></trkpt><trkpt lat="43.5819176" lon="11.9870714"><ele>559.0</ele><time>2026-04-12T09:14:21.132Z</time></trkpt><trkpt lat="43.5818909" lon="11.987212"><ele>557.6</ele><time>2026-04-12T09:14:23.144Z</time></trkpt><trkpt lat="43.5819151" lon="11.987375"><ele>556.2</ele><time>2026-04-12T09:14:25.143Z</time></trkpt><trkpt lat="43.5819363" lon="11.9875179"><ele>554.8000000000001</ele><time>2026-04-12T09:14:27.13Z</time></trkpt><trkpt lat="43.5819053" lon="11.9876175"><ele>553.4</ele><time>2026-04-12T09:14:29.134Z</time></trkpt><trkpt lat="43.5818308" lon="11.9876654"><ele>552.0</ele><time>2026-04-12T09:14:31.13Z</time></trkpt><trkpt lat="43.5817398" lon="11.9876916"><ele>550.3333333333334</ele><time>2026-04-12T09:14:34.127Z</time></trkpt><trkpt lat="43.5816485" lon="11.9876957"><ele>548.6666666666666</ele><time>2026-04-12T09:14:36.142Z</time></trkpt><trkpt lat="43.581586" lon="11.9877065"><ele>547.0</ele><time>2026-04-12T09:14:37.159Z</time></trkpt><trkpt lat="43.5815016" lon="11.9877194"><ele>545.3333333333333</ele><time>2026-04-12T09:14:38.142Z</time></trkpt><trkpt lat="43.5814102" lon="11.9877311"><ele>543.6666666666666</ele><time>2026-04-12T09:14:39.132Z</time></trkpt><trkpt lat="43.581325" lon="11.987743"><ele>542.0</ele><time>2026-04-12T09:14:40.131Z</time></trkpt><trkpt lat="43.5812452" lon="11.9877591"><ele>541.4285714285714</ele><time>2026-04-12T09:14:41.138Z</time></trkpt><trkpt lat="43.5811703" lon="11.9877782"><ele>540.8571428571429</ele><time>2026-04-12T09:14:42.132Z</time></trkpt><trkpt lat="43.581104" lon="11.9877896"><ele>540.2857142857143</ele><time>2026-04-12T09:14:43.133Z</time></trkpt><trkpt lat="43.581041" lon="11.9877893"><ele>539.7142857142858</ele><time>2026-04-12T09:14:44.149Z</time></trkpt><trkpt lat="43.5809746" lon="11.9877879"><ele>539.1428571428572</ele><time>2026-04-12T09:14:45.134Z</time></trkpt><trkpt lat="43.5809026" lon="11.9877818"><ele>538.5714285714286</ele><time>2026-04-12T09:14:46.136Z</time></trkpt><trkpt lat="43.5808329" lon="11.9877742"><ele>538.0</ele><time>2026-04-12T09:14:47.141Z</time></trkpt><trkpt lat="43.5807641" lon="11.9877561"><ele>538.0</ele><time>2026-04-12T09:14:48.138Z</time></trkpt><trkpt lat="43.5806948" lon="11.9877191"><ele>538.0</ele><time>2026-04-12T09:14:49.12Z</time></trkpt><trkpt lat="43.5806329" lon="11.9876718"><ele>538.0</ele><time>2026-04-12T09:14:50.125Z</time></trkpt><trkpt lat="43.5805808" lon="11.9876146"><ele>538.0</ele><time>2026-04-12T09:14:51.134Z</time></trkpt><trkpt lat="43.5804816" lon="11.9875235"><ele>538.0</ele><time>2026-04-12T09:14:53.138Z</time></trkpt><trkpt lat="43.5804188" lon="11.9875152"><ele>538.0</ele><time>2026-04-12T09:14:54.138Z</time></trkpt><trkpt lat="43.580289" lon="11.9875372"><ele>536.3333333333334</ele><time>2026-04-12T09:14:56.124Z</time></trkpt><trkpt lat="43.5802184" lon="11.9875404"><ele>534.6666666666667</ele><time>2026-04-12T09:14:57.134Z</time></trkpt><trkpt lat="43.5801526" lon="11.9875406"><ele>533.0</ele><time>2026-04-12T09:14:58.134Z</time></trkpt><trkpt lat="43.5800584" lon="11.9875495"><ele>531.3333333333334</ele><time>2026-04-12T09:15:00.139Z</time></trkpt><trkpt lat="43.5799485" lon="11.9875766"><ele>529.6666666666666</ele><time>2026-04-12T09:15:02.144Z</time></trkpt><trkpt lat="43.5798815" lon="11.9875958"><ele>528.0</ele><time>2026-04-12T09:15:03.128Z</time></trkpt><trkpt lat="43.579808" lon="11.9876167"><ele>528.0</ele><time>2026-04-12T09:15:04.143Z</time></trkpt><trkpt lat="43.5797386" lon="11.987633"><ele>528.0</ele><time>2026-04-12T09:15:05.152Z</time></trkpt><trkpt lat="43.5796263" lon="11.9876768"><ele>528.0</ele><time>2026-04-12T09:15:07.131Z</time></trkpt><trkpt lat="43.5795287" lon="11.9876646"><ele>528.0</ele><time>2026-04-12T09:15:09.131Z</time></trkpt><trkpt lat="43.5794359" lon="11.9875986"><ele>528.0</ele><time>2026-04-12T09:15:11.139Z</time></trkpt><trkpt lat="43.5793196" lon="11.9875434"><ele>526.1666666666666</ele><time>2026-04-12T09:15:13.153Z</time></trkpt><trkpt lat="43.5792574" lon="11.98751"><ele>524.3333333333334</ele><time>2026-04-12T09:15:14.138Z</time></trkpt><trkpt lat="43.5791684" lon="11.9873821"><ele>522.5</ele><time>2026-04-12T09:15:16.135Z</time></trkpt><trkpt lat="43.5791201" lon="11.9873068"><ele>520.6666666666667</ele><time>2026-04-12T09:15:17.126Z</time></trkpt><trkpt lat="43.5790784" lon="11.9872293"><ele>518.8333333333334</ele><time>2026-04-12T09:15:18.134Z</time></trkpt><trkpt lat="43.5790432" lon="11.9871363"><ele>517.0</ele><time>2026-04-12T09:15:19.143Z</time></trkpt><trkpt lat="43.5790062" lon="11.9870395"><ele>517.0</ele><time>2026-04-12T09:15:20.126Z</time></trkpt><trkpt lat="43.578968" lon="11.9869444"><ele>517.0</ele><time>2026-04-12T09:15:21.134Z</time></trkpt><trkpt lat="43.5789317" lon="11.9868539"><ele>517.0</ele><time>2026-04-12T09:15:22.13Z</time></trkpt><trkpt lat="43.5788977" lon="11.9867705"><ele>517.0</ele><time>2026-04-12T09:15:23.144Z</time></trkpt><trkpt lat="43.5788636" lon="11.9866885"><ele>517.0</ele><time>2026-04-12T09:15:24.134Z</time></trkpt><trkpt lat="43.5788071" lon="11.9865518"><ele>517.0</ele><time>2026-04-12T09:15:26.131Z</time></trkpt><trkpt lat="43.5787564" lon="11.9864557"><ele>514.6</ele><time>2026-04-12T09:15:28.132Z</time></trkpt><trkpt lat="43.5786643" lon="11.9864602"><ele>512.2</ele><time>2026-04-12T09:15:30.128Z</time></trkpt><trkpt lat="43.5785572" lon="11.9865099"><ele>509.8</ele><time>2026-04-12T09:15:32.15Z</time></trkpt><trkpt lat="43.57845" lon="11.9865575"><ele>507.4</ele><time>2026-04-12T09:15:34.159Z</time></trkpt><trkpt lat="43.5783334" lon="11.9865725"><ele>505.0</ele><time>2026-04-12T09:15:36.131Z</time></trkpt><trkpt lat="43.5782707" lon="11.9865834"><ele>505.0</ele><time>2026-04-12T09:15:37.138Z</time></trkpt><trkpt lat="43.5781746" lon="11.9865708"><ele>505.0</ele><time>2026-04-12T09:15:39.126Z</time></trkpt><trkpt lat="43.5780746" lon="11.9866761"><ele>505.0</ele><time>2026-04-12T09:15:41.139Z</time></trkpt><trkpt lat="43.5779996" lon="11.986761"><ele>505.0</ele><time>2026-04-12T09:15:43.131Z</time></trkpt><trkpt lat="43.5779081" lon="11.9867366"><ele>505.0</ele><time>2026-04-12T09:15:45.131Z</time></trkpt><trkpt lat="43.5777858" lon="11.9866982"><ele>502.8</ele><time>2026-04-12T09:15:47.135Z</time></trkpt><trkpt lat="43.5777064" lon="11.986686"><ele>500.6</ele><time>2026-04-12T09:15:48.126Z</time></trkpt><trkpt lat="43.5775938" lon="11.9866992"><ele>498.4</ele><time>2026-04-12T09:15:49.147Z</time></trkpt><trkpt lat="43.5774927" lon="11.9866963"><ele>496.2</ele><time>2026-04-12T09:15:50.138Z</time></trkpt><trkpt lat="43.5773972" lon="11.9866975"><ele>494.0</ele><time>2026-04-12T09:15:51.132Z</time></trkpt><trkpt lat="43.5773066" lon="11.9866974"><ele>494.0</ele><time>2026-04-12T09:15:52.121Z</time></trkpt><trkpt lat="43.5772321" lon="11.9866819"><ele>494.0</ele><time>2026-04-12T09:15:53.135Z</time></trkpt><trkpt lat="43.577161" lon="11.9866772"><ele>494.0</ele><time>2026-04-12T09:15:54.128Z</time></trkpt><trkpt lat="43.5770899" lon="11.9866961"><ele>494.0</ele><time>2026-04-12T09:15:55.133Z</time></trkpt><trkpt lat="43.577023" lon="11.9867333"><ele>494.0</ele><time>2026-04-12T09:15:56.14Z</time></trkpt><trkpt lat="43.5769646" lon="11.9867666"><ele>494.0</ele><time>2026-04-12T09:15:57.138Z</time></trkpt><trkpt lat="43.5768759" lon="11.9867803"><ele>494.0</ele><time>2026-04-12T09:15:59.153Z</time></trkpt><trkpt lat="43.5767741" lon="11.9867347"><ele>493.4</ele><time>2026-04-12T09:16:01.132Z</time></trkpt><trkpt lat="43.5766946" lon="11.9866914"><ele>492.79999999999995</ele><time>2026-04-12T09:16:03.146Z</time></trkpt><trkpt lat="43.5766045" lon="11.9866313"><ele>492.20000000000005</ele><time>2026-04-12T09:16:05.131Z</time></trkpt><trkpt lat="43.5764903" lon="11.9865684"><ele>491.6</ele><time>2026-04-12T09:16:07.138Z</time></trkpt><trkpt lat="43.5764313" lon="11.9865377"><ele>491.0</ele><time>2026-04-12T09:16:08.138Z</time></trkpt><trkpt lat="43.5763295" lon="11.9864801"><ele>491.0</ele><time>2026-04-12T09:16:10.161Z</time></trkpt><trkpt lat="43.5762565" lon="11.9864282"><ele>491.0</ele><time>2026-04-12T09:16:13.153Z</time></trkpt><trkpt lat="43.5761915" lon="11.986371"><ele>491.0</ele><time>2026-04-12T09:16:16.13Z</time></trkpt><trkpt lat="43.5761036" lon="11.9863711"><ele>491.0</ele><time>2026-04-12T09:16:18.12Z</time></trkpt><trkpt lat="43.5759692" lon="11.9863012"><ele>491.0</ele><time>2026-04-12T09:16:20.139Z</time></trkpt><trkpt lat="43.5759026" lon="11.9862422"><ele>492.0</ele><time>2026-04-12T09:16:21.154Z</time></trkpt><trkpt lat="43.575852" lon="11.9861334"><ele>493.0</ele><time>2026-04-12T09:16:22.129Z</time></trkpt><trkpt lat="43.5758019" lon="11.9859997"><ele>494.0</ele><time>2026-04-12T09:16:23.132Z</time></trkpt><trkpt lat="43.5757438" lon="11.985879"><ele>495.0</ele><time>2026-04-12T09:16:24.146Z</time></trkpt><trkpt lat="43.5757025" lon="11.9857892"><ele>496.0</ele><time>2026-04-12T09:16:25.132Z</time></trkpt><trkpt lat="43.5756098" lon="11.9858287"><ele>496.0</ele><time>2026-04-12T09:16:28.121Z</time></trkpt><trkpt lat="43.5756038" lon="11.9859332"><ele>496.0</ele><time>2026-04-12T09:16:29.162Z</time></trkpt><trkpt lat="43.5755938" lon="11.9860762"><ele>496.0</ele><time>2026-04-12T09:16:30.14Z</time></trkpt><trkpt lat="43.575593" lon="11.9862166"><ele>496.0</ele><time>2026-04-12T09:16:31.153Z</time></trkpt><trkpt lat="43.5755948" lon="11.9863619"><ele>496.0</ele><time>2026-04-12T09:16:32.138Z</time></trkpt><trkpt lat="43.5755879" lon="11.9864881"><ele>496.00000000000006</ele><time>2026-04-12T09:16:33.14Z</time></trkpt><trkpt lat="43.5755916" lon="11.9865976"><ele>496.0</ele><time>2026-04-12T09:16:34.136Z</time></trkpt><trkpt lat="43.5755922" lon="11.9866907"><ele>496.0</ele><time>2026-04-12T09:16:35.121Z</time></trkpt><trkpt lat="43.5756021" lon="11.986802"><ele>496.0</ele><time>2026-04-12T09:16:36.128Z</time></trkpt><trkpt lat="43.5756089" lon="11.9868907"><ele>496.00000000000006</ele><time>2026-04-12T09:16:37.142Z</time></trkpt><trkpt lat="43.5755676" lon="11.987012"><ele>496.0</ele><time>2026-04-12T09:16:39.137Z</time></trkpt><trkpt lat="43.5754696" lon="11.987036"><ele>497.20000000000005</ele><time>2026-04-12T09:16:41.149Z</time></trkpt><trkpt lat="43.5754051" lon="11.9869201"><ele>498.40000000000003</ele><time>2026-04-12T09:16:43.143Z</time></trkpt><trkpt lat="43.5753703" lon="11.9867536"><ele>499.6</ele><time>2026-04-12T09:16:45.141Z</time></trkpt><trkpt lat="43.5753394" lon="11.986667"><ele>500.8</ele><time>2026-04-12T09:16:46.151Z</time></trkpt><trkpt lat="43.575267" lon="11.9866036"><ele>502.0</ele><time>2026-04-12T09:16:48.144Z</time></trkpt><trkpt lat="43.5751625" lon="11.9867071"><ele>504.83333333333337</ele><time>2026-04-12T09:16:50.133Z</time></trkpt><trkpt lat="43.5751312" lon="11.9868038"><ele>507.6666666666667</ele><time>2026-04-12T09:16:51.127Z</time></trkpt><trkpt lat="43.5751101" lon="11.9868939"><ele>510.5</ele><time>2026-04-12T09:16:52.158Z</time></trkpt><trkpt lat="43.5751122" lon="11.9869926"><ele>513.3333333333334</ele><time>2026-04-12T09:16:53.144Z</time></trkpt><trkpt lat="43.5751169" lon="11.9871031"><ele>516.1666666666666</ele><time>2026-04-12T09:16:54.134Z</time></trkpt><trkpt lat="43.5750838" lon="11.9872275"><ele>519.0</ele><time>2026-04-12T09:16:56.137Z</time></trkpt><trkpt lat="43.5749972" lon="11.9871744"><ele>519.0</ele><time>2026-04-12T09:16:58.134Z</time></trkpt><trkpt lat="43.5749724" lon="11.987093"><ele>519.0</ele><time>2026-04-12T09:16:59.155Z</time></trkpt><trkpt lat="43.5749099" lon="11.9869433"><ele>519.0</ele><time>2026-04-12T09:17:01.134Z</time></trkpt><trkpt lat="43.5748596" lon="11.9868571"><ele>519.0</ele><time>2026-04-12T09:17:02.125Z</time></trkpt><trkpt lat="43.5747994" lon="11.9867686"><ele>519.0</ele><time>2026-04-12T09:17:03.146Z</time></trkpt><trkpt lat="43.5747387" lon="11.9866959"><ele>519.0</ele><time>2026-04-12T09:17:04.145Z</time></trkpt><trkpt lat="43.5746746" lon="11.9866264"><ele>518.6</ele><time>2026-04-12T09:17:05.133Z</time></trkpt><trkpt lat="43.5746058" lon="11.9865585"><ele>518.2</ele><time>2026-04-12T09:17:06.148Z</time></trkpt><trkpt lat="43.5745362" lon="11.9865089"><ele>517.8000000000001</ele><time>2026-04-12T09:17:07.146Z</time></trkpt><trkpt lat="43.5744356" lon="11.9864771"><ele>517.4</ele><time>2026-04-12T09:17:09.134Z</time></trkpt><trkpt lat="43.5743639" lon="11.9865953"><ele>517.0</ele><time>2026-04-12T09:17:11.149Z</time></trkpt><trkpt lat="43.5743286" lon="11.9866869"><ele>520.4</ele><time>2026-04-12T09:17:12.126Z</time></trkpt><trkpt lat="43.5742837" lon="11.9868059"><ele>523.8000000000001</ele><time>2026-04-12T09:17:13.147Z</time></trkpt><trkpt lat="43.5742359" lon="11.9869365"><ele>527.2</ele><time>2026-04-12T09:17:14.149Z</time></trkpt><trkpt lat="43.5741854" lon="11.9870597"><ele>530.6</ele><time>2026-04-12T09:17:15.135Z</time></trkpt><trkpt lat="43.5741264" lon="11.9871745"><ele>534.0</ele><time>2026-04-12T09:17:16.142Z</time></trkpt><trkpt lat="43.57405" lon="11.9872981"><ele>534.0</ele><time>2026-04-12T09:17:17.157Z</time></trkpt><trkpt lat="43.5739924" lon="11.9874227"><ele>534.0</ele><time>2026-04-12T09:17:18.122Z</time></trkpt><trkpt lat="43.5739513" lon="11.9875565"><ele>534.0</ele><time>2026-04-12T09:17:19.144Z</time></trkpt><trkpt lat="43.5739173" lon="11.987648"><ele>534.0</ele><time>2026-04-12T09:17:20.145Z</time></trkpt><trkpt lat="43.5738886" lon="11.9877323"><ele>534.0</ele><time>2026-04-12T09:17:21.134Z</time></trkpt><trkpt lat="43.5738238" lon="11.9878233"><ele>534.0</ele><time>2026-04-12T09:17:23.152Z</time></trkpt><trkpt lat="43.5737211" lon="11.9878051"><ele>535.8333333333334</ele><time>2026-04-12T09:17:25.153Z</time></trkpt><trkpt lat="43.5736511" lon="11.987783"><ele>537.6666666666666</ele><time>2026-04-12T09:17:26.15Z</time></trkpt><trkpt lat="43.5735797" lon="11.9877507"><ele>539.5</ele><time>2026-04-12T09:17:27.129Z</time></trkpt><trkpt lat="43.5735124" lon="11.9877208"><ele>541.3333333333333</ele><time>2026-04-12T09:17:28.138Z</time></trkpt><trkpt lat="43.5734464" lon="11.9877008"><ele>543.1666666666666</ele><time>2026-04-12T09:17:29.129Z</time></trkpt><trkpt lat="43.5733605" lon="11.9876948"><ele>545.0</ele><time>2026-04-12T09:17:30.134Z</time></trkpt><trkpt lat="43.5732678" lon="11.9877331"><ele>545.0</ele><time>2026-04-12T09:17:31.139Z</time></trkpt><trkpt lat="43.5731861" lon="11.987775"><ele>545.0</ele><time>2026-04-12T09:17:32.147Z</time></trkpt><trkpt lat="43.5730967" lon="11.9878033"><ele>545.0</ele><time>2026-04-12T09:17:33.142Z</time></trkpt><trkpt lat="43.572995" lon="11.9878395"><ele>545.0</ele><time>2026-04-12T09:17:34.144Z</time></trkpt><trkpt lat="43.5728895" lon="11.9878762"><ele>545.0</ele><time>2026-04-12T09:17:35.127Z</time></trkpt><trkpt lat="43.5728043" lon="11.9879234"><ele>547.6666666666666</ele><time>2026-04-12T09:17:36.14Z</time></trkpt><trkpt lat="43.5727302" lon="11.9879551"><ele>550.3333333333333</ele><time>2026-04-12T09:17:37.141Z</time></trkpt><trkpt lat="43.5726448" lon="11.9879493"><ele>553.0</ele><time>2026-04-12T09:17:39.137Z</time></trkpt><trkpt lat="43.5726233" lon="11.9878144"><ele>555.6666666666666</ele><time>2026-04-12T09:17:41.145Z</time></trkpt><trkpt lat="43.5726354" lon="11.9877275"><ele>558.3333333333334</ele><time>2026-04-12T09:17:42.142Z</time></trkpt><trkpt lat="43.572643" lon="11.9876336"><ele>561.0</ele><time>2026-04-12T09:17:43.148Z</time></trkpt><trkpt lat="43.5726424" lon="11.9875292"><ele>561.8</ele><time>2026-04-12T09:17:44.136Z</time></trkpt><trkpt lat="43.5726302" lon="11.9874129"><ele>562.6</ele><time>2026-04-12T09:17:45.144Z</time></trkpt><trkpt lat="43.5726245" lon="11.9873003"><ele>563.4</ele><time>2026-04-12T09:17:46.136Z</time></trkpt><trkpt lat="43.5726422" lon="11.9871754"><ele>564.2</ele><time>2026-04-12T09:17:47.139Z</time></trkpt><trkpt lat="43.5726842" lon="11.9870542"><ele>565.0</ele><time>2026-04-12T09:17:48.147Z</time></trkpt><trkpt lat="43.5727242" lon="11.9869304"><ele>565.0</ele><time>2026-04-12T09:17:49.131Z</time></trkpt><trkpt lat="43.5727511" lon="11.9868171"><ele>565.0</ele><time>2026-04-12T09:17:50.139Z</time></trkpt><trkpt lat="43.5727826" lon="11.9866929"><ele>565.0</ele><time>2026-04-12T09:17:51.142Z</time></trkpt><trkpt lat="43.5728089" lon="11.9865609"><ele>565.0</ele><time>2026-04-12T09:17:52.131Z</time></trkpt><trkpt lat="43.5728249" lon="11.9864335"><ele>565.0</ele><time>2026-04-12T09:17:53.123Z</time></trkpt><trkpt lat="43.5728269" lon="11.9863178"><ele>565.8333333333334</ele><time>2026-04-12T09:17:54.156Z</time></trkpt><trkpt lat="43.572814" lon="11.98621"><ele>566.6666666666667</ele><time>2026-04-12T09:17:55.144Z</time></trkpt><trkpt lat="43.5728" lon="11.9861194"><ele>567.5</ele><time>2026-04-12T09:17:56.164Z</time></trkpt><trkpt lat="43.5727268" lon="11.9859821"><ele>568.3333333333334</ele><time>2026-04-12T09:17:58.154Z</time></trkpt><trkpt lat="43.572664" lon="11.9859513"><ele>569.1666666666666</ele><time>2026-04-12T09:17:59.166Z</time></trkpt><trkpt lat="43.5725929" lon="11.9859118"><ele>570.0</ele><time>2026-04-12T09:18:00.151Z</time></trkpt><trkpt lat="43.5725381" lon="11.9858574"><ele>571.2</ele><time>2026-04-12T09:18:01.156Z</time></trkpt><trkpt lat="43.5724846" lon="11.9857313"><ele>572.4</ele><time>2026-04-12T09:18:03.139Z</time></trkpt><trkpt lat="43.5724893" lon="11.9856245"><ele>573.6</ele><time>2026-04-12T09:18:04.134Z</time></trkpt><trkpt lat="43.5725125" lon="11.9855131"><ele>574.8</ele><time>2026-04-12T09:18:05.137Z</time></trkpt><trkpt lat="43.5725416" lon="11.9853762"><ele>576.0</ele><time>2026-04-12T09:18:06.134Z</time></trkpt><trkpt lat="43.5725786" lon="11.9852475"><ele>576.0</ele><time>2026-04-12T09:18:07.128Z</time></trkpt><trkpt lat="43.5726244" lon="11.9851469"><ele>576.0</ele><time>2026-04-12T09:18:08.134Z</time></trkpt><trkpt lat="43.5726891" lon="11.9850688"><ele>576.0</ele><time>2026-04-12T09:18:09.132Z</time></trkpt><trkpt lat="43.5727792" lon="11.9849814"><ele>576.0</ele><time>2026-04-12T09:18:10.137Z</time></trkpt><trkpt lat="43.5728712" lon="11.9848903"><ele>576.0</ele><time>2026-04-12T09:18:11.14Z</time></trkpt><trkpt lat="43.5729519" lon="11.9847988"><ele>574.4</ele><time>2026-04-12T09:18:12.143Z</time></trkpt><trkpt lat="43.5730135" lon="11.9847066"><ele>572.8</ele><time>2026-04-12T09:18:13.14Z</time></trkpt><trkpt lat="43.5730506" lon="11.984603"><ele>571.1999999999999</ele><time>2026-04-12T09:18:14.143Z</time></trkpt><trkpt lat="43.5730652" lon="11.9844717"><ele>569.6</ele><time>2026-04-12T09:18:15.136Z</time></trkpt><trkpt lat="43.5730814" lon="11.9843352"><ele>568.0</ele><time>2026-04-12T09:18:16.124Z</time></trkpt><trkpt lat="43.5730815" lon="11.984186"><ele>569.1666666666667</ele><time>2026-04-12T09:18:17.141Z</time></trkpt><trkpt lat="43.5730803" lon="11.9840528"><ele>570.3333333333334</ele><time>2026-04-12T09:18:18.131Z</time></trkpt><trkpt lat="43.5731025" lon="11.9839249"><ele>571.5</ele><time>2026-04-12T09:18:19.143Z</time></trkpt><trkpt lat="43.5731278" lon="11.9838141"><ele>572.6666666666666</ele><time>2026-04-12T09:18:20.138Z</time></trkpt><trkpt lat="43.5731743" lon="11.9837166"><ele>573.8333333333333</ele><time>2026-04-12T09:18:21.136Z</time></trkpt><trkpt lat="43.5732106" lon="11.9836313"><ele>575.0</ele><time>2026-04-12T09:18:22.146Z</time></trkpt><trkpt lat="43.5731715" lon="11.9834859"><ele>575.0</ele><time>2026-04-12T09:18:24.14Z</time></trkpt><trkpt lat="43.5731184" lon="11.9834096"><ele>575.0</ele><time>2026-04-12T09:18:25.148Z</time></trkpt><trkpt lat="43.5730339" lon="11.9833636"><ele>575.0</ele><time>2026-04-12T09:18:26.125Z</time></trkpt><trkpt lat="43.5729452" lon="11.983347"><ele>575.0</ele><time>2026-04-12T09:18:27.13Z</time></trkpt><trkpt lat="43.5728447" lon="11.9833401"><ele>575.0</ele><time>2026-04-12T09:18:28.131Z</time></trkpt><trkpt lat="43.5727463" lon="11.9833648"><ele>578.0</ele><time>2026-04-12T09:18:29.124Z</time></trkpt><trkpt lat="43.5726596" lon="11.9833905"><ele>581.0</ele><time>2026-04-12T09:18:30.135Z</time></trkpt><trkpt lat="43.572583" lon="11.9834442"><ele>584.0</ele><time>2026-04-12T09:18:31.142Z</time></trkpt><trkpt lat="43.5724958" lon="11.9835239"><ele>587.0</ele><time>2026-04-12T09:18:32.142Z</time></trkpt><trkpt lat="43.5724187" lon="11.9836206"><ele>590.0</ele><time>2026-04-12T09:18:33.127Z</time></trkpt><trkpt lat="43.572343" lon="11.98369"><ele>590.0</ele><time>2026-04-12T09:18:34.136Z</time></trkpt><trkpt lat="43.5722641" lon="11.9837614"><ele>590.0</ele><time>2026-04-12T09:18:35.128Z</time></trkpt><trkpt lat="43.5721875" lon="11.9838005"><ele>590.0</ele><time>2026-04-12T09:18:36.133Z</time></trkpt><trkpt lat="43.572112" lon="11.9838341"><ele>590.0</ele><time>2026-04-12T09:18:37.136Z</time></trkpt><trkpt lat="43.5720199" lon="11.9837891"><ele>590.0</ele><time>2026-04-12T09:18:39.153Z</time></trkpt><trkpt lat="43.5720381" lon="11.983693"><ele>590.0</ele><time>2026-04-12T09:18:41.136Z</time></trkpt><trkpt lat="43.5721359" lon="11.9835562"><ele>590.0</ele><time>2026-04-12T09:18:43.145Z</time></trkpt><trkpt lat="43.5721865" lon="11.983486"><ele>590.0</ele><time>2026-04-12T09:18:44.139Z</time></trkpt><trkpt lat="43.5722336" lon="11.9833947"><ele>590.0</ele><time>2026-04-12T09:18:46.129Z</time></trkpt><trkpt lat="43.572169" lon="11.9834461"><ele>590.0</ele><time>2026-04-12T09:18:50.132Z</time></trkpt><trkpt lat="43.5721024" lon="11.983504"><ele>590.0</ele><time>2026-04-12T09:18:53.129Z</time></trkpt><trkpt lat="43.5720389" lon="11.9834777"><ele>590.0</ele><time>2026-04-12T09:18:56.135Z</time></trkpt><trkpt lat="43.5719499" lon="11.9834035"><ele>594.4</ele><time>2026-04-12T09:18:58.134Z</time></trkpt><trkpt lat="43.571856" lon="11.983338"><ele>598.8</ele><time>2026-04-12T09:19:00.121Z</time></trkpt><trkpt lat="43.5717555" lon="11.9833012"><ele>603.2</ele><time>2026-04-12T09:19:02.141Z</time></trkpt><trkpt lat="43.5716868" lon="11.9832846"><ele>607.6</ele><time>2026-04-12T09:19:03.136Z</time></trkpt><trkpt lat="43.5716209" lon="11.9832718"><ele>612.0</ele><time>2026-04-12T09:19:04.135Z</time></trkpt><trkpt lat="43.5715033" lon="11.9832566"><ele>612.0</ele><time>2026-04-12T09:19:06.13Z</time></trkpt><trkpt lat="43.5714335" lon="11.9832759"><ele>612.0</ele><time>2026-04-12T09:19:07.146Z</time></trkpt><trkpt lat="43.5713563" lon="11.9833317"><ele>612.0</ele><time>2026-04-12T09:19:09.139Z</time></trkpt><trkpt lat="43.5713568" lon="11.9832308"><ele>612.0</ele><time>2026-04-12T09:19:12.138Z</time></trkpt><trkpt lat="43.5714081" lon="11.9831236"><ele>612.0</ele><time>2026-04-12T09:19:14.144Z</time></trkpt><trkpt lat="43.5714189" lon="11.9829754"><ele>612.0</ele><time>2026-04-12T09:19:16.136Z</time></trkpt><trkpt lat="43.5713716" lon="11.9828994"><ele>612.0</ele><time>2026-04-12T09:19:17.138Z</time></trkpt><trkpt lat="43.5713375" lon="11.9828159"><ele>612.0</ele><time>2026-04-12T09:19:18.143Z</time></trkpt><trkpt lat="43.5713234" lon="11.9827275"><ele>612.0</ele><time>2026-04-12T09:19:19.134Z</time></trkpt><trkpt lat="43.57128" lon="11.9826389"><ele>612.0</ele><time>2026-04-12T09:19:20.141Z</time></trkpt><trkpt lat="43.5712082" lon="11.9825644"><ele>612.0</ele><time>2026-04-12T09:19:21.133Z</time></trkpt><trkpt lat="43.5711179" lon="11.9824771"><ele>612.0</ele><time>2026-04-12T09:19:22.122Z</time></trkpt><trkpt lat="43.5710445" lon="11.982424"><ele>615.6666666666666</ele><time>2026-04-12T09:19:23.136Z</time></trkpt><trkpt lat="43.5709774" lon="11.9823638"><ele>619.3333333333334</ele><time>2026-04-12T09:19:24.133Z</time></trkpt><trkpt lat="43.5709191" lon="11.9823109"><ele>623.0</ele><time>2026-04-12T09:19:25.129Z</time></trkpt><trkpt lat="43.5708261" lon="11.9822288"><ele>626.6666666666667</ele><time>2026-04-12T09:19:27.138Z</time></trkpt><trkpt lat="43.5707468" lon="11.9822337"><ele>630.3333333333334</ele><time>2026-04-12T09:19:28.135Z</time></trkpt><trkpt lat="43.5706667" lon="11.9822346"><ele>634.0</ele><time>2026-04-12T09:19:29.137Z</time></trkpt><trkpt lat="43.5705805" lon="11.982198"><ele>634.0</ele><time>2026-04-12T09:19:30.125Z</time></trkpt><trkpt lat="43.5705019" lon="11.9821339"><ele>634.0</ele><time>2026-04-12T09:19:31.13Z</time></trkpt><trkpt lat="43.570425" lon="11.9820659"><ele>634.0</ele><time>2026-04-12T09:19:32.141Z</time></trkpt><trkpt lat="43.5703564" lon="11.981993"><ele>634.0</ele><time>2026-04-12T09:19:33.136Z</time></trkpt><trkpt lat="43.5702977" lon="11.981944"><ele>634.0</ele><time>2026-04-12T09:19:34.136Z</time></trkpt><trkpt lat="43.5702039" lon="11.9819218"><ele>634.0</ele><time>2026-04-12T09:19:36.136Z</time></trkpt><trkpt lat="43.5700915" lon="11.981867"><ele>634.6666666666667</ele><time>2026-04-12T09:19:38.15Z</time></trkpt><trkpt lat="43.5700312" lon="11.9818201"><ele>635.3333333333334</ele><time>2026-04-12T09:19:39.139Z</time></trkpt><trkpt lat="43.5699707" lon="11.981776"><ele>636.0</ele><time>2026-04-12T09:19:40.152Z</time></trkpt><trkpt lat="43.5699127" lon="11.9817375"><ele>636.6666666666666</ele><time>2026-04-12T09:19:41.135Z</time></trkpt><trkpt lat="43.5698347" lon="11.9816745"><ele>637.3333333333333</ele><time>2026-04-12T09:19:43.134Z</time></trkpt><trkpt lat="43.5697604" lon="11.9816225"><ele>638.0</ele><time>2026-04-12T09:19:45.128Z</time></trkpt><trkpt lat="43.5696733" lon="11.9815889"><ele>638.0</ele><time>2026-04-12T09:19:48.147Z</time></trkpt><trkpt lat="43.5696003" lon="11.9814832"><ele>638.0</ele><time>2026-04-12T09:19:50.136Z</time></trkpt><trkpt lat="43.5695076" lon="11.9814611"><ele>638.0</ele><time>2026-04-12T09:19:52.154Z</time></trkpt><trkpt lat="43.5693929" lon="11.9814872"><ele>638.0</ele><time>2026-04-12T09:19:54.135Z</time></trkpt><trkpt lat="43.5693156" lon="11.9814536"><ele>638.0</ele><time>2026-04-12T09:19:55.15Z</time></trkpt><trkpt lat="43.5692271" lon="11.9814068"><ele>640.6666666666666</ele><time>2026-04-12T09:19:56.14Z</time></trkpt><trkpt lat="43.5691559" lon="11.9813392"><ele>643.3333333333333</ele><time>2026-04-12T09:19:57.153Z</time></trkpt><trkpt lat="43.5690863" lon="11.9812788"><ele>646.0</ele><time>2026-04-12T09:19:58.131Z</time></trkpt><trkpt lat="43.5690199" lon="11.9811985"><ele>648.6666666666666</ele><time>2026-04-12T09:19:59.164Z</time></trkpt><trkpt lat="43.5689533" lon="11.9811255"><ele>651.3333333333334</ele><time>2026-04-12T09:20:00.133Z</time></trkpt><trkpt lat="43.5688908" lon="11.9810627"><ele>654.0</ele><time>2026-04-12T09:20:01.153Z</time></trkpt><trkpt lat="43.5687923" lon="11.9810585"><ele>657.75</ele><time>2026-04-12T09:20:03.138Z</time></trkpt><trkpt lat="43.5686792" lon="11.9810777"><ele>661.5</ele><time>2026-04-12T09:20:05.146Z</time></trkpt><trkpt lat="43.5685665" lon="11.9810238"><ele>665.25</ele><time>2026-04-12T09:20:07.143Z</time></trkpt><trkpt lat="43.5684548" lon="11.9809546"><ele>669.0</ele><time>2026-04-12T09:20:09.15Z</time></trkpt><trkpt lat="43.5683518" lon="11.9808943"><ele>666.1666666666666</ele><time>2026-04-12T09:20:11.131Z</time></trkpt><trkpt lat="43.5683051" lon="11.9808318"><ele>663.3333333333334</ele><time>2026-04-12T09:20:12.122Z</time></trkpt><trkpt lat="43.5682317" lon="11.9807792"><ele>660.5</ele><time>2026-04-12T09:20:13.132Z</time></trkpt><trkpt lat="43.5681632" lon="11.9807207"><ele>657.6666666666667</ele><time>2026-04-12T09:20:14.133Z</time></trkpt><trkpt lat="43.5681077" lon="11.9806491"><ele>654.8333333333334</ele><time>2026-04-12T09:20:15.131Z</time></trkpt><trkpt lat="43.5680771" lon="11.9805389"><ele>652.0</ele><time>2026-04-12T09:20:16.127Z</time></trkpt><trkpt lat="43.5680443" lon="11.9804283"><ele>652.0</ele><time>2026-04-12T09:20:17.126Z</time></trkpt><trkpt lat="43.5680166" lon="11.9803221"><ele>652.0</ele><time>2026-04-12T09:20:18.141Z</time></trkpt><trkpt lat="43.5679894" lon="11.9801828"><ele>652.0</ele><time>2026-04-12T09:20:19.125Z</time></trkpt><trkpt lat="43.5679682" lon="11.980042"><ele>652.0</ele><time>2026-04-12T09:20:20.13Z</time></trkpt><trkpt lat="43.567958" lon="11.9799128"><ele>652.0</ele><time>2026-04-12T09:20:21.134Z</time></trkpt><trkpt lat="43.5679421" lon="11.9798189"><ele>650.3333333333334</ele><time>2026-04-12T09:20:22.134Z</time></trkpt><trkpt lat="43.5678886" lon="11.9797545"><ele>648.6666666666667</ele><time>2026-04-12T09:20:23.137Z</time></trkpt><trkpt lat="43.5678337" lon="11.9796952"><ele>647.0</ele><time>2026-04-12T09:20:24.142Z</time></trkpt><trkpt lat="43.5677506" lon="11.9796788"><ele>645.3333333333334</ele><time>2026-04-12T09:20:25.118Z</time></trkpt><trkpt lat="43.5676514" lon="11.9796607"><ele>643.6666666666666</ele><time>2026-04-12T09:20:26.135Z</time></trkpt><trkpt lat="43.5675506" lon="11.9796355"><ele>642.0</ele><time>2026-04-12T09:20:27.155Z</time></trkpt><trkpt lat="43.5674515" lon="11.9796162"><ele>643.5</ele><time>2026-04-12T09:20:28.129Z</time></trkpt><trkpt lat="43.5673734" lon="11.9796053"><ele>645.0</ele><time>2026-04-12T09:20:29.13Z</time></trkpt><trkpt lat="43.5672763" lon="11.9795528"><ele>646.5</ele><time>2026-04-12T09:20:31.133Z</time></trkpt><trkpt lat="43.5672784" lon="11.9794049"><ele>648.0</ele><time>2026-04-12T09:20:33.125Z</time></trkpt><trkpt lat="43.5673058" lon="11.9793179"><ele>649.5</ele><time>2026-04-12T09:20:34.135Z</time></trkpt><trkpt lat="43.567328" lon="11.9792357"><ele>651.0</ele><time>2026-04-12T09:20:35.125Z</time></trkpt><trkpt lat="43.5673124" lon="11.9790624"><ele>651.0</ele><time>2026-04-12T09:20:37.139Z</time></trkpt><trkpt lat="43.5672575" lon="11.9789522"><ele>651.0</ele><time>2026-04-12T09:20:38.13Z</time></trkpt><trkpt lat="43.5671883" lon="11.978845"><ele>651.0</ele><time>2026-04-12T09:20:39.121Z</time></trkpt><trkpt lat="43.5671011" lon="11.9787539"><ele>651.0</ele><time>2026-04-12T09:20:40.135Z</time></trkpt><trkpt lat="43.5670035" lon="11.9786848"><ele>651.0</ele><time>2026-04-12T09:20:41.136Z</time></trkpt><trkpt lat="43.5668978" lon="11.9786012"><ele>656.0</ele><time>2026-04-12T09:20:42.146Z</time></trkpt><trkpt lat="43.5668056" lon="11.9784957"><ele>661.0</ele><time>2026-04-12T09:20:43.14Z</time></trkpt><trkpt lat="43.566715" lon="11.9783943"><ele>666.0</ele><time>2026-04-12T09:20:44.132Z</time></trkpt><trkpt lat="43.5666185" lon="11.9783059"><ele>671.0</ele><time>2026-04-12T09:20:45.148Z</time></trkpt><trkpt lat="43.566526" lon="11.9782318"><ele>671.0</ele><time>2026-04-12T09:20:46.133Z</time></trkpt><trkpt lat="43.5664576" lon="11.9781701"><ele>671.0</ele><time>2026-04-12T09:20:47.155Z</time></trkpt><trkpt lat="43.5664153" lon="11.9781056"><ele>671.0</ele><time>2026-04-12T09:20:48.161Z</time></trkpt><trkpt lat="43.5663936" lon="11.9779731"><ele>671.0</ele><time>2026-04-12T09:20:49.139Z</time></trkpt><trkpt lat="43.5663647" lon="11.977833"><ele>671.0</ele><time>2026-04-12T09:20:50.136Z</time></trkpt><trkpt lat="43.5663331" lon="11.9776851"><ele>671.0</ele><time>2026-04-12T09:20:51.149Z</time></trkpt><trkpt lat="43.5663038" lon="11.9775457"><ele>671.0</ele><time>2026-04-12T09:20:52.158Z</time></trkpt><trkpt lat="43.5662665" lon="11.9774091"><ele>671.0</ele><time>2026-04-12T09:20:53.159Z</time></trkpt><trkpt lat="43.5662168" lon="11.9773279"><ele>671.0</ele><time>2026-04-12T09:20:54.162Z</time></trkpt><trkpt lat="43.5661477" lon="11.9772792"><ele>671.0</ele><time>2026-04-12T09:20:55.152Z</time></trkpt><trkpt lat="43.5660647" lon="11.9772566"><ele>672.1999999999999</ele><time>2026-04-12T09:20:56.138Z</time></trkpt><trkpt lat="43.5659648" lon="11.9772448"><ele>673.4</ele><time>2026-04-12T09:20:57.151Z</time></trkpt><trkpt lat="43.5658648" lon="11.9772282"><ele>674.6</ele><time>2026-04-12T09:20:58.156Z</time></trkpt><trkpt lat="43.5657788" lon="11.9771936"><ele>675.8</ele><time>2026-04-12T09:20:59.152Z</time></trkpt><trkpt lat="43.5656889" lon="11.9771434"><ele>677.0</ele><time>2026-04-12T09:21:00.143Z</time></trkpt><trkpt lat="43.5656064" lon="11.9770565"><ele>677.0</ele><time>2026-04-12T09:21:01.16Z</time></trkpt><trkpt lat="43.5655291" lon="11.976969"><ele>677.0</ele><time>2026-04-12T09:21:02.126Z</time></trkpt><trkpt lat="43.5654667" lon="11.9768746"><ele>677.0</ele><time>2026-04-12T09:21:03.156Z</time></trkpt><trkpt lat="43.5653968" lon="11.9767934"><ele>677.0</ele><time>2026-04-12T09:21:04.153Z</time></trkpt><trkpt lat="43.5653249" lon="11.9767265"><ele>677.0</ele><time>2026-04-12T09:21:05.165Z</time></trkpt><trkpt lat="43.5652741" lon="11.9766735"><ele>677.0</ele><time>2026-04-12T09:21:06.147Z</time></trkpt><trkpt lat="43.5651996" lon="11.9765427"><ele>675.6</ele><time>2026-04-12T09:21:08.13Z</time></trkpt><trkpt lat="43.565182" lon="11.9764459"><ele>674.2</ele><time>2026-04-12T09:21:09.149Z</time></trkpt><trkpt lat="43.5651579" lon="11.9763318"><ele>672.8</ele><time>2026-04-12T09:21:10.143Z</time></trkpt><trkpt lat="43.565128" lon="11.976194"><ele>671.4</ele><time>2026-04-12T09:21:11.162Z</time></trkpt><trkpt lat="43.5650973" lon="11.9760332"><ele>670.0</ele><time>2026-04-12T09:21:12.16Z</time></trkpt><trkpt lat="43.565068" lon="11.9758792"><ele>670.2</ele><time>2026-04-12T09:21:13.149Z</time></trkpt><trkpt lat="43.5650471" lon="11.9757431"><ele>670.4</ele><time>2026-04-12T09:21:14.149Z</time></trkpt><trkpt lat="43.5650314" lon="11.9756023"><ele>670.5999999999999</ele><time>2026-04-12T09:21:15.145Z</time></trkpt><trkpt lat="43.565025" lon="11.9754623"><ele>670.8</ele><time>2026-04-12T09:21:16.142Z</time></trkpt><trkpt lat="43.5650208" lon="11.9753333"><ele>671.0</ele><time>2026-04-12T09:21:17.155Z</time></trkpt><trkpt lat="43.565006" lon="11.9752199"><ele>671.0</ele><time>2026-04-12T09:21:18.138Z</time></trkpt><trkpt lat="43.5649672" lon="11.9751237"><ele>671.0</ele><time>2026-04-12T09:21:19.152Z</time></trkpt><trkpt lat="43.5649078" lon="11.9750413"><ele>671.0</ele><time>2026-04-12T09:21:20.154Z</time></trkpt><trkpt lat="43.5648402" lon="11.9749538"><ele>671.0</ele><time>2026-04-12T09:21:21.155Z</time></trkpt><trkpt lat="43.5647774" lon="11.9748537"><ele>671.0</ele><time>2026-04-12T09:21:22.148Z</time></trkpt><trkpt lat="43.5647283" lon="11.9747497"><ele>671.0</ele><time>2026-04-12T09:21:23.166Z</time></trkpt><trkpt lat="43.5646966" lon="11.9746379"><ele>672.4</ele><time>2026-04-12T09:21:24.146Z</time></trkpt><trkpt lat="43.5646654" lon="11.9745274"><ele>673.8</ele><time>2026-04-12T09:21:25.145Z</time></trkpt><trkpt lat="43.5646634" lon="11.9743789"><ele>675.1999999999999</ele><time>2026-04-12T09:21:26.154Z</time></trkpt><trkpt lat="43.5646713" lon="11.974229"><ele>676.5999999999999</ele><time>2026-04-12T09:21:27.147Z</time></trkpt><trkpt lat="43.564672" lon="11.9740931"><ele>678.0</ele><time>2026-04-12T09:21:28.129Z</time></trkpt><trkpt lat="43.564655" lon="11.9739651"><ele>678.4</ele><time>2026-04-12T09:21:29.134Z</time></trkpt><trkpt lat="43.564634" lon="11.9738359"><ele>678.8</ele><time>2026-04-12T09:21:30.147Z</time></trkpt><trkpt lat="43.5645681" lon="11.9737277"><ele>679.2</ele><time>2026-04-12T09:21:31.15Z</time></trkpt><trkpt lat="43.5645061" lon="11.9736149"><ele>679.6</ele><time>2026-04-12T09:21:32.143Z</time></trkpt><trkpt lat="43.5644448" lon="11.9734954"><ele>680.0</ele><time>2026-04-12T09:21:33.148Z</time></trkpt><trkpt lat="43.5644117" lon="11.9733441"><ele>680.0</ele><time>2026-04-12T09:21:34.172Z</time></trkpt><trkpt lat="43.5643912" lon="11.9732125"><ele>680.0</ele><time>2026-04-12T09:21:35.161Z</time></trkpt><trkpt lat="43.564354" lon="11.973104"><ele>680.0</ele><time>2026-04-12T09:21:36.146Z</time></trkpt><trkpt lat="43.5643115" lon="11.9730088"><ele>680.0</ele><time>2026-04-12T09:21:37.141Z</time></trkpt><trkpt lat="43.5642646" lon="11.9729149"><ele>680.0</ele><time>2026-04-12T09:21:38.145Z</time></trkpt><trkpt lat="43.5641763" lon="11.972813"><ele>680.0</ele><time>2026-04-12T09:21:39.152Z</time></trkpt><trkpt lat="43.5640819" lon="11.9726756"><ele>680.0</ele><time>2026-04-12T09:21:40.144Z</time></trkpt><trkpt lat="43.56399" lon="11.9725244"><ele>680.0</ele><time>2026-04-12T09:21:41.134Z</time></trkpt><trkpt lat="43.5639001" lon="11.9723751"><ele>680.0</ele><time>2026-04-12T09:21:42.143Z</time></trkpt><trkpt lat="43.5638227" lon="11.9722484"><ele>680.2</ele><time>2026-04-12T09:21:43.138Z</time></trkpt><trkpt lat="43.5637448" lon="11.9721254"><ele>680.4</ele><time>2026-04-12T09:21:44.15Z</time></trkpt><trkpt lat="43.5636713" lon="11.972022"><ele>680.5999999999999</ele><time>2026-04-12T09:21:45.168Z</time></trkpt><trkpt lat="43.563603" lon="11.971923"><ele>680.8</ele><time>2026-04-12T09:21:46.144Z</time></trkpt><trkpt lat="43.5635319" lon="11.9718263"><ele>681.0</ele><time>2026-04-12T09:21:47.127Z</time></trkpt><trkpt lat="43.5634631" lon="11.9717344"><ele>679.5</ele><time>2026-04-12T09:21:48.145Z</time></trkpt><trkpt lat="43.5633944" lon="11.9716557"><ele>678.0</ele><time>2026-04-12T09:21:49.149Z</time></trkpt><trkpt lat="43.5633247" lon="11.9715941"><ele>676.5</ele><time>2026-04-12T09:21:50.135Z</time></trkpt><trkpt lat="43.5632542" lon="11.9715468"><ele>675.0</ele><time>2026-04-12T09:21:51.124Z</time></trkpt><trkpt lat="43.5631774" lon="11.9715104"><ele>673.5</ele><time>2026-04-12T09:21:52.143Z</time></trkpt><trkpt lat="43.5630979" lon="11.9714652"><ele>672.0</ele><time>2026-04-12T09:21:53.135Z</time></trkpt><trkpt lat="43.5630154" lon="11.9714177"><ele>672.0</ele><time>2026-04-12T09:21:54.145Z</time></trkpt><trkpt lat="43.5629363" lon="11.9713424"><ele>672.0</ele><time>2026-04-12T09:21:55.152Z</time></trkpt><trkpt lat="43.5628533" lon="11.9712445"><ele>672.0</ele><time>2026-04-12T09:21:56.134Z</time></trkpt><trkpt lat="43.5627673" lon="11.9711291"><ele>672.0</ele><time>2026-04-12T09:21:57.15Z</time></trkpt><trkpt lat="43.5626815" lon="11.9710174"><ele>672.0</ele><time>2026-04-12T09:21:58.145Z</time></trkpt><trkpt lat="43.562605" lon="11.9708979"><ele>670.0</ele><time>2026-04-12T09:21:59.146Z</time></trkpt><trkpt lat="43.5625341" lon="11.9707614"><ele>668.0</ele><time>2026-04-12T09:22:00.149Z</time></trkpt><trkpt lat="43.5624663" lon="11.9706169"><ele>666.0</ele><time>2026-04-12T09:22:01.147Z</time></trkpt><trkpt lat="43.5623936" lon="11.970472"><ele>664.0</ele><time>2026-04-12T09:22:02.151Z</time></trkpt><trkpt lat="43.5623153" lon="11.9702937"><ele>664.0</ele><time>2026-04-12T09:22:03.146Z</time></trkpt><trkpt lat="43.5622384" lon="11.9701304"><ele>664.0</ele><time>2026-04-12T09:22:04.147Z</time></trkpt><trkpt lat="43.5621606" lon="11.9699671"><ele>664.0</ele><time>2026-04-12T09:22:05.127Z</time></trkpt><trkpt lat="43.5620904" lon="11.9698228"><ele>664.0</ele><time>2026-04-12T09:22:06.126Z</time></trkpt><trkpt lat="43.5620185" lon="11.9696779"><ele>662.5</ele><time>2026-04-12T09:22:07.153Z</time></trkpt><trkpt lat="43.5619441" lon="11.9695378"><ele>661.0</ele><time>2026-04-12T09:22:08.148Z</time></trkpt><trkpt lat="43.5618644" lon="11.9694185"><ele>659.5</ele><time>2026-04-12T09:22:09.169Z</time></trkpt><trkpt lat="43.5617561" lon="11.9692953"><ele>658.0</ele><time>2026-04-12T09:22:10.148Z</time></trkpt><trkpt lat="43.5616503" lon="11.9691928"><ele>660.75</ele><time>2026-04-12T09:22:11.152Z</time></trkpt><trkpt lat="43.561547" lon="11.9691112"><ele>663.5</ele><time>2026-04-12T09:22:12.136Z</time></trkpt><trkpt lat="43.561439" lon="11.9690583"><ele>666.25</ele><time>2026-04-12T09:22:13.137Z</time></trkpt><trkpt lat="43.5613289" lon="11.9690338"><ele>669.0</ele><time>2026-04-12T09:22:14.145Z</time></trkpt><trkpt lat="43.5612192" lon="11.9690169"><ele>667.2</ele><time>2026-04-12T09:22:15.138Z</time></trkpt><trkpt lat="43.5611134" lon="11.9689856"><ele>665.4000000000001</ele><time>2026-04-12T09:22:16.159Z</time></trkpt><trkpt lat="43.5610111" lon="11.9689556"><ele>663.6</ele><time>2026-04-12T09:22:17.164Z</time></trkpt><trkpt lat="43.5609151" lon="11.968886"><ele>661.8</ele><time>2026-04-12T09:22:18.147Z</time></trkpt><trkpt lat="43.5608179" lon="11.9687824"><ele>660.0</ele><time>2026-04-12T09:22:19.15Z</time></trkpt><trkpt lat="43.5607217" lon="11.9686542"><ele>660.0</ele><time>2026-04-12T09:22:20.153Z</time></trkpt><trkpt lat="43.5606211" lon="11.9685144"><ele>660.0</ele><time>2026-04-12T09:22:21.163Z</time></trkpt><trkpt lat="43.5605205" lon="11.9683916"><ele>660.0</ele><time>2026-04-12T09:22:22.144Z</time></trkpt><trkpt lat="43.5604351" lon="11.968289"><ele>660.0</ele><time>2026-04-12T09:22:23.148Z</time></trkpt><trkpt lat="43.560355" lon="11.9681971"><ele>659.0</ele><time>2026-04-12T09:22:24.154Z</time></trkpt><trkpt lat="43.5603048" lon="11.9680956"><ele>658.0</ele><time>2026-04-12T09:22:25.153Z</time></trkpt><trkpt lat="43.5602845" lon="11.9679927"><ele>657.0</ele><time>2026-04-12T09:22:26.158Z</time></trkpt><trkpt lat="43.560268" lon="11.9678868"><ele>656.0</ele><time>2026-04-12T09:22:27.157Z</time></trkpt><trkpt lat="43.5602936" lon="11.9677668"><ele>655.0</ele><time>2026-04-12T09:22:28.156Z</time></trkpt><trkpt lat="43.5603325" lon="11.9676341"><ele>654.0</ele><time>2026-04-12T09:22:29.142Z</time></trkpt><trkpt lat="43.5603662" lon="11.9675079"><ele>654.0</ele><time>2026-04-12T09:22:30.133Z</time></trkpt><trkpt lat="43.5603726" lon="11.9673907"><ele>654.0</ele><time>2026-04-12T09:22:31.146Z</time></trkpt><trkpt lat="43.5603565" lon="11.9672934"><ele>654.0</ele><time>2026-04-12T09:22:32.142Z</time></trkpt><trkpt lat="43.5603173" lon="11.9672126"><ele>654.0</ele><time>2026-04-12T09:22:33.142Z</time></trkpt><trkpt lat="43.5602475" lon="11.9671278"><ele>654.0</ele><time>2026-04-12T09:22:34.155Z</time></trkpt><trkpt lat="43.5601534" lon="11.9670109"><ele>654.0</ele><time>2026-04-12T09:22:35.149Z</time></trkpt><trkpt lat="43.5600556" lon="11.9668741"><ele>654.0</ele><time>2026-04-12T09:22:36.126Z</time></trkpt><trkpt lat="43.5599583" lon="11.9667427"><ele>654.0</ele><time>2026-04-12T09:22:37.123Z</time></trkpt><trkpt lat="43.5598648" lon="11.966628"><ele>654.0</ele><time>2026-04-12T09:22:38.143Z</time></trkpt><trkpt lat="43.5597646" lon="11.966518"><ele>654.0</ele><time>2026-04-12T09:22:39.128Z</time></trkpt><trkpt lat="43.5596579" lon="11.9664076"><ele>652.0</ele><time>2026-04-12T09:22:40.131Z</time></trkpt><trkpt lat="43.559556" lon="11.9663141"><ele>650.0</ele><time>2026-04-12T09:22:41.143Z</time></trkpt><trkpt lat="43.5594658" lon="11.9662323"><ele>648.0</ele><time>2026-04-12T09:22:42.132Z</time></trkpt><trkpt lat="43.5593633" lon="11.9661837"><ele>646.0</ele><time>2026-04-12T09:22:43.138Z</time></trkpt><trkpt lat="43.5592527" lon="11.966153"><ele>646.0</ele><time>2026-04-12T09:22:44.154Z</time></trkpt><trkpt lat="43.55914" lon="11.9661388"><ele>646.0</ele><time>2026-04-12T09:22:45.124Z</time></trkpt><trkpt lat="43.5590332" lon="11.9661273"><ele>646.0</ele><time>2026-04-12T09:22:46.14Z</time></trkpt><trkpt lat="43.5589395" lon="11.9661152"><ele>646.0</ele><time>2026-04-12T09:22:47.15Z</time></trkpt><trkpt lat="43.5588657" lon="11.9661013"><ele>646.0</ele><time>2026-04-12T09:22:48.147Z</time></trkpt><trkpt lat="43.558803" lon="11.9660866"><ele>646.0</ele><time>2026-04-12T09:22:49.136Z</time></trkpt><trkpt lat="43.5587365" lon="11.9660945"><ele>646.0</ele><time>2026-04-12T09:22:50.141Z</time></trkpt><trkpt lat="43.5586491" lon="11.9661239"><ele>646.0</ele><time>2026-04-12T09:22:51.134Z</time></trkpt><trkpt lat="43.5585504" lon="11.9661576"><ele>646.0</ele><time>2026-04-12T09:22:52.15Z</time></trkpt><trkpt lat="43.5584332" lon="11.9661911"><ele>646.0</ele><time>2026-04-12T09:22:53.161Z</time></trkpt><trkpt lat="43.5583225" lon="11.9662031"><ele>645.0</ele><time>2026-04-12T09:22:54.139Z</time></trkpt><trkpt lat="43.5582181" lon="11.9661838"><ele>644.0</ele><time>2026-04-12T09:22:55.154Z</time></trkpt><trkpt lat="43.5581131" lon="11.9661327"><ele>643.0</ele><time>2026-04-12T09:22:56.167Z</time></trkpt><trkpt lat="43.5580171" lon="11.9660607"><ele>642.0</ele><time>2026-04-12T09:22:57.158Z</time></trkpt><trkpt lat="43.5579279" lon="11.9659861"><ele>641.0</ele><time>2026-04-12T09:22:58.136Z</time></trkpt><trkpt lat="43.5578429" lon="11.9659125"><ele>641.0</ele><time>2026-04-12T09:22:59.154Z</time></trkpt><trkpt lat="43.5577612" lon="11.9658394"><ele>641.0</ele><time>2026-04-12T09:23:00.146Z</time></trkpt><trkpt lat="43.5576836" lon="11.96577"><ele>641.0</ele><time>2026-04-12T09:23:01.145Z</time></trkpt><trkpt lat="43.5576025" lon="11.9657043"><ele>641.0</ele><time>2026-04-12T09:23:02.143Z</time></trkpt><trkpt lat="43.5575151" lon="11.9656552"><ele>641.0</ele><time>2026-04-12T09:23:03.144Z</time></trkpt><trkpt lat="43.5574156" lon="11.9656295"><ele>641.0</ele><time>2026-04-12T09:23:04.142Z</time></trkpt><trkpt lat="43.5572968" lon="11.9656172"><ele>641.0</ele><time>2026-04-12T09:23:05.159Z</time></trkpt><trkpt lat="43.557177" lon="11.9656069"><ele>641.0</ele><time>2026-04-12T09:23:06.145Z</time></trkpt><trkpt lat="43.5570627" lon="11.9655794"><ele>641.0</ele><time>2026-04-12T09:23:07.151Z</time></trkpt><trkpt lat="43.5569529" lon="11.9655279"><ele>639.5</ele><time>2026-04-12T09:23:08.147Z</time></trkpt><trkpt lat="43.5568424" lon="11.965458"><ele>638.0</ele><time>2026-04-12T09:23:09.133Z</time></trkpt><trkpt lat="43.5567392" lon="11.9653843"><ele>636.5</ele><time>2026-04-12T09:23:10.155Z</time></trkpt><trkpt lat="43.5566415" lon="11.9653105"><ele>635.0</ele><time>2026-04-12T09:23:11.141Z</time></trkpt><trkpt lat="43.55654" lon="11.9652505"><ele>635.0</ele><time>2026-04-12T09:23:12.125Z</time></trkpt><trkpt lat="43.5564228" lon="11.9652079"><ele>635.0</ele><time>2026-04-12T09:23:13.134Z</time></trkpt><trkpt lat="43.5562852" lon="11.9651756"><ele>635.0</ele><time>2026-04-12T09:23:14.156Z</time></trkpt><trkpt lat="43.5561474" lon="11.9651493"><ele>635.0</ele><time>2026-04-12T09:23:15.153Z</time></trkpt><trkpt lat="43.556019" lon="11.9651213"><ele>633.0</ele><time>2026-04-12T09:23:16.145Z</time></trkpt><trkpt lat="43.5559067" lon="11.9650931"><ele>631.0</ele><time>2026-04-12T09:23:17.168Z</time></trkpt><trkpt lat="43.5558035" lon="11.9650772"><ele>629.0</ele><time>2026-04-12T09:23:18.142Z</time></trkpt><trkpt lat="43.5557001" lon="11.9650834"><ele>627.0</ele><time>2026-04-12T09:23:19.152Z</time></trkpt><trkpt lat="43.5555892" lon="11.9650908"><ele>625.0</ele><time>2026-04-12T09:23:20.133Z</time></trkpt><trkpt lat="43.5554724" lon="11.9651414"><ele>621.8</ele><time>2026-04-12T09:23:21.154Z</time></trkpt><trkpt lat="43.5553621" lon="11.9651829"><ele>618.6</ele><time>2026-04-12T09:23:22.151Z</time></trkpt><trkpt lat="43.5552556" lon="11.9652193"><ele>615.4</ele><time>2026-04-12T09:23:23.146Z</time></trkpt><trkpt lat="43.5551438" lon="11.9652197"><ele>612.2</ele><time>2026-04-12T09:23:24.147Z</time></trkpt><trkpt lat="43.5550342" lon="11.9652094"><ele>609.0</ele><time>2026-04-12T09:23:25.14Z</time></trkpt><trkpt lat="43.5549242" lon="11.9652139"><ele>609.0</ele><time>2026-04-12T09:23:26.143Z</time></trkpt><trkpt lat="43.5548124" lon="11.9652385"><ele>609.0</ele><time>2026-04-12T09:23:27.144Z</time></trkpt><trkpt lat="43.5546914" lon="11.9652826"><ele>609.0</ele><time>2026-04-12T09:23:28.127Z</time></trkpt><trkpt lat="43.5545662" lon="11.9653386"><ele>609.0</ele><time>2026-04-12T09:23:29.149Z</time></trkpt><trkpt lat="43.5544422" lon="11.9653845"><ele>607.75</ele><time>2026-04-12T09:23:30.145Z</time></trkpt><trkpt lat="43.554325" lon="11.9654138"><ele>606.5</ele><time>2026-04-12T09:23:31.159Z</time></trkpt><trkpt lat="43.5542064" lon="11.9654222"><ele>605.25</ele><time>2026-04-12T09:23:32.154Z</time></trkpt><trkpt lat="43.5540843" lon="11.9654105"><ele>604.0</ele><time>2026-04-12T09:23:33.152Z</time></trkpt><trkpt lat="43.5539602" lon="11.9653776"><ele>604.0</ele><time>2026-04-12T09:23:34.135Z</time></trkpt><trkpt lat="43.5538318" lon="11.9653247"><ele>604.0</ele><time>2026-04-12T09:23:35.153Z</time></trkpt><trkpt lat="43.5537109" lon="11.9652619"><ele>604.0</ele><time>2026-04-12T09:23:36.152Z</time></trkpt><trkpt lat="43.5535968" lon="11.9651952"><ele>604.0</ele><time>2026-04-12T09:23:37.157Z</time></trkpt><trkpt lat="43.5534938" lon="11.965135"><ele>602.8</ele><time>2026-04-12T09:23:38.15Z</time></trkpt><trkpt lat="43.5533951" lon="11.965095"><ele>601.5999999999999</ele><time>2026-04-12T09:23:39.129Z</time></trkpt><trkpt lat="43.5532994" lon="11.9650798"><ele>600.4</ele><time>2026-04-12T09:23:40.141Z</time></trkpt><trkpt lat="43.5532057" lon="11.9650905"><ele>599.1999999999999</ele><time>2026-04-12T09:23:41.153Z</time></trkpt><trkpt lat="43.5531123" lon="11.9651346"><ele>598.0</ele><time>2026-04-12T09:23:42.159Z</time></trkpt><trkpt lat="43.5530217" lon="11.9652105"><ele>598.0</ele><time>2026-04-12T09:23:43.165Z</time></trkpt><trkpt lat="43.5529315" lon="11.9653223"><ele>598.0</ele><time>2026-04-12T09:23:44.15Z</time></trkpt><trkpt lat="43.5528439" lon="11.9654647"><ele>598.0</ele><time>2026-04-12T09:23:45.152Z</time></trkpt><trkpt lat="43.5527568" lon="11.9656321"><ele>598.0</ele><time>2026-04-12T09:23:46.16Z</time></trkpt><trkpt lat="43.5526721" lon="11.9657953"><ele>599.3333333333334</ele><time>2026-04-12T09:23:47.165Z</time></trkpt><trkpt lat="43.5525847" lon="11.9659618"><ele>600.6666666666666</ele><time>2026-04-12T09:23:48.145Z</time></trkpt><trkpt lat="43.5524753" lon="11.9661326"><ele>602.0</ele><time>2026-04-12T09:23:49.129Z</time></trkpt><trkpt lat="43.5523643" lon="11.9662995"><ele>602.0</ele><time>2026-04-12T09:23:50.151Z</time></trkpt><trkpt lat="43.5522352" lon="11.9664491"><ele>602.0</ele><time>2026-04-12T09:23:51.141Z</time></trkpt><trkpt lat="43.5521023" lon="11.9665955"><ele>602.0</ele><time>2026-04-12T09:23:52.129Z</time></trkpt><trkpt lat="43.5519749" lon="11.96673"><ele>601.25</ele><time>2026-04-12T09:23:53.149Z</time></trkpt><trkpt lat="43.5518755" lon="11.9668532"><ele>600.5</ele><time>2026-04-12T09:23:54.149Z</time></trkpt><trkpt lat="43.5517919" lon="11.9669827"><ele>599.75</ele><time>2026-04-12T09:23:55.148Z</time></trkpt><trkpt lat="43.551711" lon="11.9671201"><ele>599.0</ele><time>2026-04-12T09:23:56.144Z</time></trkpt><trkpt lat="43.5516327" lon="11.9672606"><ele>599.0</ele><time>2026-04-12T09:23:57.149Z</time></trkpt><trkpt lat="43.5515428" lon="11.967392"><ele>599.0</ele><time>2026-04-12T09:23:58.14Z</time></trkpt><trkpt lat="43.5514588" lon="11.9675062"><ele>599.0</ele><time>2026-04-12T09:23:59.136Z</time></trkpt><trkpt lat="43.5513771" lon="11.9676045"><ele>599.0</ele><time>2026-04-12T09:24:00.141Z</time></trkpt><trkpt lat="43.5512956" lon="11.9676792"><ele>598.0</ele><time>2026-04-12T09:24:01.158Z</time></trkpt><trkpt lat="43.5512134" lon="11.9677257"><ele>597.0</ele><time>2026-04-12T09:24:02.157Z</time></trkpt><trkpt lat="43.5511256" lon="11.9677406"><ele>596.0</ele><time>2026-04-12T09:24:03.133Z</time></trkpt><trkpt lat="43.5510359" lon="11.967715"><ele>595.0</ele><time>2026-04-12T09:24:04.158Z</time></trkpt><trkpt lat="43.5509474" lon="11.9676477"><ele>594.0</ele><time>2026-04-12T09:24:05.162Z</time></trkpt><trkpt lat="43.5508587" lon="11.9675361"><ele>593.6666666666666</ele><time>2026-04-12T09:24:06.147Z</time></trkpt><trkpt lat="43.5507656" lon="11.9673863"><ele>593.3333333333333</ele><time>2026-04-12T09:24:07.134Z</time></trkpt><trkpt lat="43.5506522" lon="11.9671934"><ele>593.0</ele><time>2026-04-12T09:24:08.142Z</time></trkpt><trkpt lat="43.5505251" lon="11.9669907"><ele>593.0</ele><time>2026-04-12T09:24:09.142Z</time></trkpt><trkpt lat="43.5503832" lon="11.9667842"><ele>593.0</ele><time>2026-04-12T09:24:10.139Z</time></trkpt><trkpt lat="43.5502386" lon="11.9665862"><ele>593.0</ele><time>2026-04-12T09:24:11.146Z</time></trkpt><trkpt lat="43.5501011" lon="11.9664192"><ele>592.75</ele><time>2026-04-12T09:24:12.153Z</time></trkpt><trkpt lat="43.5499912" lon="11.9662685"><ele>592.5</ele><time>2026-04-12T09:24:13.158Z</time></trkpt><trkpt lat="43.5498903" lon="11.9661298"><ele>592.25</ele><time>2026-04-12T09:24:14.155Z</time></trkpt><trkpt lat="43.5497988" lon="11.9660002"><ele>592.0</ele><time>2026-04-12T09:24:15.137Z</time></trkpt><trkpt lat="43.5497068" lon="11.965896"><ele>589.25</ele><time>2026-04-12T09:24:16.125Z</time></trkpt><trkpt lat="43.5496057" lon="11.9658187"><ele>586.5</ele><time>2026-04-12T09:24:17.145Z</time></trkpt><trkpt lat="43.5494978" lon="11.9657635"><ele>583.75</ele><time>2026-04-12T09:24:18.154Z</time></trkpt><trkpt lat="43.5493872" lon="11.9657142"><ele>581.0</ele><time>2026-04-12T09:24:19.148Z</time></trkpt><trkpt lat="43.5492827" lon="11.9656539"><ele>580.75</ele><time>2026-04-12T09:24:20.142Z</time></trkpt><trkpt lat="43.5491824" lon="11.9655535"><ele>580.5</ele><time>2026-04-12T09:24:21.14Z</time></trkpt><trkpt lat="43.549088" lon="11.9654195"><ele>580.25</ele><time>2026-04-12T09:24:22.152Z</time></trkpt><trkpt lat="43.5490097" lon="11.9652804"><ele>580.0</ele><time>2026-04-12T09:24:23.147Z</time></trkpt><trkpt lat="43.5489348" lon="11.9651425"><ele>579.2</ele><time>2026-04-12T09:24:24.145Z</time></trkpt><trkpt lat="43.5488758" lon="11.9650197"><ele>578.4</ele><time>2026-04-12T09:24:25.151Z</time></trkpt><trkpt lat="43.5488135" lon="11.9649139"><ele>577.6</ele><time>2026-04-12T09:24:26.153Z</time></trkpt><trkpt lat="43.5487402" lon="11.9648462"><ele>576.8</ele><time>2026-04-12T09:24:27.163Z</time></trkpt><trkpt lat="43.5486665" lon="11.9647917"><ele>576.0</ele><time>2026-04-12T09:24:28.153Z</time></trkpt><trkpt lat="43.5485976" lon="11.9647476"><ele>576.0</ele><time>2026-04-12T09:24:29.133Z</time></trkpt><trkpt lat="43.5485" lon="11.9646899"><ele>576.0</ele><time>2026-04-12T09:24:31.157Z</time></trkpt><trkpt lat="43.548441" lon="11.9646337"><ele>576.0</ele><time>2026-04-12T09:24:34.133Z</time></trkpt><trkpt lat="43.5483454" lon="11.9645824"><ele>576.0</ele><time>2026-04-12T09:24:36.13Z</time></trkpt><trkpt lat="43.548273" lon="11.9645478"><ele>576.0</ele><time>2026-04-12T09:24:37.159Z</time></trkpt><trkpt lat="43.5481768" lon="11.9644971"><ele>576.0</ele><time>2026-04-12T09:24:38.153Z</time></trkpt><trkpt lat="43.5480758" lon="11.9644322"><ele>576.0</ele><time>2026-04-12T09:24:39.153Z</time></trkpt><trkpt lat="43.547972" lon="11.964348"><ele>576.0</ele><time>2026-04-12T09:24:40.129Z</time></trkpt><trkpt lat="43.5478663" lon="11.9642522"><ele>576.0</ele><time>2026-04-12T09:24:41.153Z</time></trkpt><trkpt lat="43.5477721" lon="11.9641513"><ele>576.8333333333334</ele><time>2026-04-12T09:24:42.145Z</time></trkpt><trkpt lat="43.5476906" lon="11.9640774"><ele>577.6666666666666</ele><time>2026-04-12T09:24:43.151Z</time></trkpt><trkpt lat="43.5476161" lon="11.9640056"><ele>578.5</ele><time>2026-04-12T09:24:44.145Z</time></trkpt><trkpt lat="43.5475611" lon="11.9639396"><ele>579.3333333333333</ele><time>2026-04-12T09:24:45.153Z</time></trkpt><trkpt lat="43.5474905" lon="11.9639152"><ele>580.1666666666666</ele><time>2026-04-12T09:24:46.16Z</time></trkpt><trkpt lat="43.547384" lon="11.9639405"><ele>581.0</ele><time>2026-04-12T09:24:47.144Z</time></trkpt><trkpt lat="43.5472426" lon="11.9639657"><ele>581.0</ele><time>2026-04-12T09:24:48.147Z</time></trkpt><trkpt lat="43.5471114" lon="11.9639496"><ele>581.0</ele><time>2026-04-12T09:24:49.154Z</time></trkpt><trkpt lat="43.5469842" lon="11.9639199"><ele>581.0</ele><time>2026-04-12T09:24:50.141Z</time></trkpt><trkpt lat="43.5468689" lon="11.9638647"><ele>581.0</ele><time>2026-04-12T09:24:51.166Z</time></trkpt><trkpt lat="43.5467612" lon="11.9637891"><ele>581.8</ele><time>2026-04-12T09:24:52.168Z</time></trkpt><trkpt lat="43.546672" lon="11.9637018"><ele>582.6</ele><time>2026-04-12T09:24:53.147Z</time></trkpt><trkpt lat="43.5466068" lon="11.9636121"><ele>583.4</ele><time>2026-04-12T09:24:54.15Z</time></trkpt><trkpt lat="43.5465588" lon="11.9635118"><ele>584.2</ele><time>2026-04-12T09:24:55.149Z</time></trkpt><trkpt lat="43.54653" lon="11.9633954"><ele>585.0</ele><time>2026-04-12T09:24:56.141Z</time></trkpt><trkpt lat="43.5465007" lon="11.9632815"><ele>584.6</ele><time>2026-04-12T09:24:57.143Z</time></trkpt><trkpt lat="43.5464683" lon="11.9631882"><ele>584.2</ele><time>2026-04-12T09:24:58.143Z</time></trkpt><trkpt lat="43.5463837" lon="11.9631266"><ele>583.8</ele><time>2026-04-12T09:24:59.155Z</time></trkpt><trkpt lat="43.5462775" lon="11.9630969"><ele>583.4</ele><time>2026-04-12T09:25:00.14Z</time></trkpt><trkpt lat="43.5461355" lon="11.9630844"><ele>583.0</ele><time>2026-04-12T09:25:01.151Z</time></trkpt><trkpt lat="43.5459774" lon="11.9630625"><ele>583.0</ele><time>2026-04-12T09:25:02.137Z</time></trkpt><trkpt lat="43.5458" lon="11.9630217"><ele>583.0</ele><time>2026-04-12T09:25:03.153Z</time></trkpt><trkpt lat="43.5456427" lon="11.9629738"><ele>583.0</ele><time>2026-04-12T09:25:04.139Z</time></trkpt><trkpt lat="43.545513" lon="11.9629336"><ele>583.0</ele><time>2026-04-12T09:25:05.141Z</time></trkpt><trkpt lat="43.5454113" lon="11.9629225"><ele>583.0</ele><time>2026-04-12T09:25:06.142Z</time></trkpt><trkpt lat="43.545322" lon="11.9629508"><ele>583.0</ele><time>2026-04-12T09:25:07.148Z</time></trkpt><trkpt lat="43.5452372" lon="11.9630198"><ele>583.0</ele><time>2026-04-12T09:25:08.15Z</time></trkpt><trkpt lat="43.5451679" lon="11.9631228"><ele>583.0</ele><time>2026-04-12T09:25:09.146Z</time></trkpt><trkpt lat="43.5451231" lon="11.9632552"><ele>583.1999999999999</ele><time>2026-04-12T09:25:10.15Z</time></trkpt><trkpt lat="43.5450845" lon="11.9633891"><ele>583.4</ele><time>2026-04-12T09:25:11.165Z</time></trkpt><trkpt lat="43.545027" lon="11.9635139"><ele>583.5999999999999</ele><time>2026-04-12T09:25:12.144Z</time></trkpt><trkpt lat="43.5449477" lon="11.9636134"><ele>583.8</ele><time>2026-04-12T09:25:13.142Z</time></trkpt><trkpt lat="43.5448444" lon="11.9636976"><ele>584.0</ele><time>2026-04-12T09:25:14.16Z</time></trkpt><trkpt lat="43.5447305" lon="11.9637768"><ele>584.0</ele><time>2026-04-12T09:25:15.16Z</time></trkpt><trkpt lat="43.5446141" lon="11.9638404"><ele>584.0</ele><time>2026-04-12T09:25:16.145Z</time></trkpt><trkpt lat="43.5444855" lon="11.9639029"><ele>584.0</ele><time>2026-04-12T09:25:17.152Z</time></trkpt><trkpt lat="43.5443494" lon="11.9639798"><ele>584.0</ele><time>2026-04-12T09:25:18.133Z</time></trkpt><trkpt lat="43.5442125" lon="11.9640763"><ele>588.6666666666666</ele><time>2026-04-12T09:25:19.153Z</time></trkpt><trkpt lat="43.544074" lon="11.9642091"><ele>593.3333333333334</ele><time>2026-04-12T09:25:20.157Z</time></trkpt><trkpt lat="43.5439238" lon="11.964338"><ele>598.0</ele><time>2026-04-12T09:25:21.153Z</time></trkpt><trkpt lat="43.5437902" lon="11.9644631"><ele>597.25</ele><time>2026-04-12T09:25:22.149Z</time></trkpt><trkpt lat="43.5436615" lon="11.9645694"><ele>596.5</ele><time>2026-04-12T09:25:23.151Z</time></trkpt><trkpt lat="43.5435526" lon="11.9646424"><ele>595.75</ele><time>2026-04-12T09:25:24.146Z</time></trkpt><trkpt lat="43.5434414" lon="11.9646596"><ele>595.0</ele><time>2026-04-12T09:25:25.146Z</time></trkpt><trkpt lat="43.5433396" lon="11.9646528"><ele>595.0</ele><time>2026-04-12T09:25:26.146Z</time></trkpt><trkpt lat="43.5432465" lon="11.9646469"><ele>595.0</ele><time>2026-04-12T09:25:27.145Z</time></trkpt><trkpt lat="43.5431425" lon="11.9646667"><ele>595.0</ele><time>2026-04-12T09:25:28.14Z</time></trkpt><trkpt lat="43.5430491" lon="11.9646987"><ele>595.0</ele><time>2026-04-12T09:25:29.127Z</time></trkpt><trkpt lat="43.5429658" lon="11.9647688"><ele>595.0</ele><time>2026-04-12T09:25:30.127Z</time></trkpt><trkpt lat="43.5428915" lon="11.9648733"><ele>595.5</ele><time>2026-04-12T09:25:31.145Z</time></trkpt><trkpt lat="43.5428259" lon="11.9650011"><ele>596.0</ele><time>2026-04-12T09:25:32.157Z</time></trkpt><trkpt lat="43.5427576" lon="11.965134"><ele>596.5</ele><time>2026-04-12T09:25:33.145Z</time></trkpt><trkpt lat="43.5426732" lon="11.9652794"><ele>597.0</ele><time>2026-04-12T09:25:34.146Z</time></trkpt><trkpt lat="43.5425931" lon="11.9654092"><ele>597.0</ele><time>2026-04-12T09:25:35.135Z</time></trkpt><trkpt lat="43.5424987" lon="11.9655084"><ele>597.0</ele><time>2026-04-12T09:25:36.159Z</time></trkpt><trkpt lat="43.5423873" lon="11.9655731"><ele>597.0</ele><time>2026-04-12T09:25:37.154Z</time></trkpt><trkpt lat="43.5422604" lon="11.9656086"><ele>597.0</ele><time>2026-04-12T09:25:38.141Z</time></trkpt><trkpt lat="43.5421159" lon="11.9656241"><ele>599.0</ele><time>2026-04-12T09:25:39.145Z</time></trkpt><trkpt lat="43.5419564" lon="11.9656412"><ele>601.0</ele><time>2026-04-12T09:25:40.156Z</time></trkpt><trkpt lat="43.5418013" lon="11.9656533"><ele>603.0</ele><time>2026-04-12T09:25:41.142Z</time></trkpt><trkpt lat="43.5416621" lon="11.9656651"><ele>603.0</ele><time>2026-04-12T09:25:42.157Z</time></trkpt><trkpt lat="43.5415278" lon="11.9657134"><ele>603.0</ele><time>2026-04-12T09:25:43.13Z</time></trkpt><trkpt lat="43.5413776" lon="11.9657596"><ele>603.0</ele><time>2026-04-12T09:25:44.146Z</time></trkpt><trkpt lat="43.5412129" lon="11.9658501"><ele>604.25</ele><time>2026-04-12T09:25:45.154Z</time></trkpt><trkpt lat="43.5410646" lon="11.9659373"><ele>605.5</ele><time>2026-04-12T09:25:46.144Z</time></trkpt><trkpt lat="43.5409445" lon="11.9660086"><ele>606.75</ele><time>2026-04-12T09:25:47.13Z</time></trkpt><trkpt lat="43.5408337" lon="11.9660706"><ele>608.0</ele><time>2026-04-12T09:25:48.126Z</time></trkpt><trkpt lat="43.5407333" lon="11.9661185"><ele>608.0</ele><time>2026-04-12T09:25:49.132Z</time></trkpt><trkpt lat="43.5406459" lon="11.9661653"><ele>608.0</ele><time>2026-04-12T09:25:50.149Z</time></trkpt><trkpt lat="43.5405688" lon="11.9662095"><ele>608.0</ele><time>2026-04-12T09:25:51.154Z</time></trkpt><trkpt lat="43.5404878" lon="11.966259"><ele>608.0</ele><time>2026-04-12T09:25:53.145Z</time></trkpt><trkpt lat="43.5403865" lon="11.9662922"><ele>608.0</ele><time>2026-04-12T09:27:02.154Z</time></trkpt><trkpt lat="43.540243" lon="11.9663696"><ele>608.1999999999999</ele><time>2026-04-12T09:27:04.153Z</time></trkpt><trkpt lat="43.540151" lon="11.9664178"><ele>608.4</ele><time>2026-04-12T09:27:05.159Z</time></trkpt><trkpt lat="43.5400395" lon="11.9664501"><ele>608.5999999999999</ele><time>2026-04-12T09:27:06.147Z</time></trkpt><trkpt lat="43.5399422" lon="11.9664774"><ele>608.8</ele><time>2026-04-12T09:27:07.155Z</time></trkpt><trkpt lat="43.5398278" lon="11.9665193"><ele>609.0</ele><time>2026-04-12T09:27:08.159Z</time></trkpt><trkpt lat="43.5396946" lon="11.9665959"><ele>609.0</ele><time>2026-04-12T09:27:09.145Z</time></trkpt><trkpt lat="43.5395662" lon="11.9666635"><ele>609.0</ele><time>2026-04-12T09:27:10.145Z</time></trkpt><trkpt lat="43.5394283" lon="11.9666994"><ele>609.0</ele><time>2026-04-12T09:27:11.14Z</time></trkpt><trkpt lat="43.5392934" lon="11.9666988"><ele>609.0</ele><time>2026-04-12T09:27:12.149Z</time></trkpt><trkpt lat="43.5391411" lon="11.9666904"><ele>610.0</ele><time>2026-04-12T09:27:13.15Z</time></trkpt><trkpt lat="43.5389763" lon="11.9666504"><ele>611.0</ele><time>2026-04-12T09:27:14.159Z</time></trkpt><trkpt lat="43.5387996" lon="11.9665902"><ele>612.0</ele><time>2026-04-12T09:27:15.152Z</time></trkpt><trkpt lat="43.538655" lon="11.9665129"><ele>615.0</ele><time>2026-04-12T09:27:16.152Z</time></trkpt><trkpt lat="43.5385122" lon="11.9664551"><ele>618.0</ele><time>2026-04-12T09:27:17.162Z</time></trkpt><trkpt lat="43.5383733" lon="11.9664024"><ele>621.0</ele><time>2026-04-12T09:27:18.145Z</time></trkpt><trkpt lat="43.5382105" lon="11.9663655"><ele>621.0</ele><time>2026-04-12T09:27:19.166Z</time></trkpt><trkpt lat="43.5380638" lon="11.9663313"><ele>621.0</ele><time>2026-04-12T09:27:20.169Z</time></trkpt><trkpt lat="43.5379221" lon="11.9663021"><ele>621.0</ele><time>2026-04-12T09:27:21.145Z</time></trkpt><trkpt lat="43.5378186" lon="11.9662507"><ele>621.0</ele><time>2026-04-12T09:27:22.149Z</time></trkpt><trkpt lat="43.5377331" lon="11.9661742"><ele>620.75</ele><time>2026-04-12T09:27:23.145Z</time></trkpt><trkpt lat="43.5376527" lon="11.9660597"><ele>620.5</ele><time>2026-04-12T09:27:24.147Z</time></trkpt><trkpt lat="43.5375703" lon="11.9659507"><ele>620.25</ele><time>2026-04-12T09:27:25.142Z</time></trkpt><trkpt lat="43.537494" lon="11.965854"><ele>620.0</ele><time>2026-04-12T09:27:26.146Z</time></trkpt><trkpt lat="43.5373764" lon="11.9657981"><ele>620.0</ele><time>2026-04-12T09:27:27.123Z</time></trkpt><trkpt lat="43.5372522" lon="11.9657596"><ele>620.0</ele><time>2026-04-12T09:27:28.147Z</time></trkpt><trkpt lat="43.5370977" lon="11.9657364"><ele>620.0</ele><time>2026-04-12T09:27:29.126Z</time></trkpt><trkpt lat="43.5369312" lon="11.9656985"><ele>624.3333333333333</ele><time>2026-04-12T09:27:30.127Z</time></trkpt><trkpt lat="43.536765" lon="11.9656554"><ele>628.6666666666666</ele><time>2026-04-12T09:27:31.148Z</time></trkpt><trkpt lat="43.5366225" lon="11.9656186"><ele>633.0</ele><time>2026-04-12T09:27:32.146Z</time></trkpt><trkpt lat="43.5364855" lon="11.9656127"><ele>633.0</ele><time>2026-04-12T09:27:33.139Z</time></trkpt><trkpt lat="43.5363314" lon="11.9656392"><ele>633.0</ele><time>2026-04-12T09:27:34.131Z</time></trkpt><trkpt lat="43.5361834" lon="11.9656654"><ele>633.0</ele><time>2026-04-12T09:27:35.144Z</time></trkpt><trkpt lat="43.536052" lon="11.9656627"><ele>633.0</ele><time>2026-04-12T09:27:36.147Z</time></trkpt><trkpt lat="43.5359237" lon="11.9656299"><ele>635.0</ele><time>2026-04-12T09:27:37.149Z</time></trkpt><trkpt lat="43.5357809" lon="11.9655644"><ele>637.0</ele><time>2026-04-12T09:27:38.16Z</time></trkpt><trkpt lat="43.535637" lon="11.9654832"><ele>639.0</ele><time>2026-04-12T09:27:39.155Z</time></trkpt><trkpt lat="43.5355245" lon="11.9653999"><ele>641.0</ele><time>2026-04-12T09:27:40.141Z</time></trkpt><trkpt lat="43.5354354" lon="11.9652973"><ele>641.5999999999999</ele><time>2026-04-12T09:27:41.132Z</time></trkpt><trkpt lat="43.535349" lon="11.9651866"><ele>642.2</ele><time>2026-04-12T09:27:42.141Z</time></trkpt><trkpt lat="43.535277" lon="11.9650725"><ele>642.8</ele><time>2026-04-12T09:27:43.152Z</time></trkpt><trkpt lat="43.5351933" lon="11.9650096"><ele>643.4000000000001</ele><time>2026-04-12T09:27:44.138Z</time></trkpt><trkpt lat="43.5350902" lon="11.9649595"><ele>644.0</ele><time>2026-04-12T09:27:45.142Z</time></trkpt><trkpt lat="43.5349727" lon="11.9649381"><ele>641.3333333333333</ele><time>2026-04-12T09:27:46.152Z</time></trkpt><trkpt lat="43.5348293" lon="11.964937"><ele>638.6666666666666</ele><time>2026-04-12T09:27:47.154Z</time></trkpt><trkpt lat="43.5346617" lon="11.9649547"><ele>636.0</ele><time>2026-04-12T09:27:48.146Z</time></trkpt><trkpt lat="43.5344814" lon="11.9649903"><ele>635.0</ele><time>2026-04-12T09:27:49.138Z</time></trkpt><trkpt lat="43.5342956" lon="11.9650265"><ele>634.0</ele><time>2026-04-12T09:27:50.142Z</time></trkpt><trkpt lat="43.5341123" lon="11.965048"><ele>633.0</ele><time>2026-04-12T09:27:51.137Z</time></trkpt><trkpt lat="43.5339395" lon="11.9650467"><ele>633.0</ele><time>2026-04-12T09:27:52.138Z</time></trkpt><trkpt lat="43.5337624" lon="11.9650297"><ele>633.0</ele><time>2026-04-12T09:27:53.151Z</time></trkpt><trkpt lat="43.5335906" lon="11.964994"><ele>633.0</ele><time>2026-04-12T09:27:54.128Z</time></trkpt><trkpt lat="43.5334258" lon="11.9649361"><ele>632.0</ele><time>2026-04-12T09:27:55.151Z</time></trkpt><trkpt lat="43.533252" lon="11.9648463"><ele>631.0</ele><time>2026-04-12T09:27:56.144Z</time></trkpt><trkpt lat="43.5330616" lon="11.9647364"><ele>630.0</ele><time>2026-04-12T09:27:57.141Z</time></trkpt><trkpt lat="43.5328669" lon="11.9646184"><ele>628.3333333333334</ele><time>2026-04-12T09:27:58.15Z</time></trkpt><trkpt lat="43.5326786" lon="11.9645053"><ele>626.6666666666667</ele><time>2026-04-12T09:27:59.152Z</time></trkpt><trkpt lat="43.5324873" lon="11.9644087"><ele>625.0</ele><time>2026-04-12T09:28:00.129Z</time></trkpt><trkpt lat="43.5322847" lon="11.9643301"><ele>625.0</ele><time>2026-04-12T09:28:01.149Z</time></trkpt><trkpt lat="43.5320733" lon="11.9642641"><ele>625.0</ele><time>2026-04-12T09:28:02.142Z</time></trkpt><trkpt lat="43.531867" lon="11.9642097"><ele>625.0</ele><time>2026-04-12T09:28:03.146Z</time></trkpt><trkpt lat="43.5316564" lon="11.9641595"><ele>627.0</ele><time>2026-04-12T09:28:04.151Z</time></trkpt><trkpt lat="43.531446" lon="11.9641185"><ele>629.0</ele><time>2026-04-12T09:28:05.146Z</time></trkpt><trkpt lat="43.5312322" lon="11.9640881"><ele>631.0</ele><time>2026-04-12T09:28:06.151Z</time></trkpt><trkpt lat="43.5310051" lon="11.9640707"><ele>632.3333333333334</ele><time>2026-04-12T09:28:07.153Z</time></trkpt><trkpt lat="43.5307799" lon="11.9640628"><ele>633.6666666666666</ele><time>2026-04-12T09:28:08.152Z</time></trkpt><trkpt lat="43.5305809" lon="11.9640619"><ele>635.0</ele><time>2026-04-12T09:28:09.146Z</time></trkpt><trkpt lat="43.5304131" lon="11.964063"><ele>637.25</ele><time>2026-04-12T09:28:10.141Z</time></trkpt><trkpt lat="43.5302662" lon="11.9640561"><ele>639.5</ele><time>2026-04-12T09:28:11.154Z</time></trkpt><trkpt lat="43.5301299" lon="11.9640233"><ele>641.75</ele><time>2026-04-12T09:28:12.158Z</time></trkpt><trkpt lat="43.5300031" lon="11.9639577"><ele>644.0</ele><time>2026-04-12T09:28:13.154Z</time></trkpt><trkpt lat="43.5298894" lon="11.963856"><ele>644.0</ele><time>2026-04-12T09:28:14.15Z</time></trkpt><trkpt lat="43.5297801" lon="11.9637186"><ele>644.0</ele><time>2026-04-12T09:28:15.145Z</time></trkpt><trkpt lat="43.5296686" lon="11.9635547"><ele>644.0</ele><time>2026-04-12T09:28:16.165Z</time></trkpt><trkpt lat="43.5295456" lon="11.9633798"><ele>645.0</ele><time>2026-04-12T09:28:17.149Z</time></trkpt><trkpt lat="43.5294175" lon="11.9632221"><ele>646.0</ele><time>2026-04-12T09:28:18.142Z</time></trkpt><trkpt lat="43.5292833" lon="11.9630786"><ele>647.0</ele><time>2026-04-12T09:28:19.165Z</time></trkpt><trkpt lat="43.5291454" lon="11.9629586"><ele>647.0</ele><time>2026-04-12T09:28:20.138Z</time></trkpt><trkpt lat="43.5290041" lon="11.9628639"><ele>647.0</ele><time>2026-04-12T09:28:21.15Z</time></trkpt><trkpt lat="43.5288598" lon="11.9627923"><ele>647.0</ele><time>2026-04-12T09:28:22.13Z</time></trkpt><trkpt lat="43.5287124" lon="11.9627383"><ele>645.6666666666666</ele><time>2026-04-12T09:28:23.156Z</time></trkpt><trkpt lat="43.528551" lon="11.9626929"><ele>644.3333333333334</ele><time>2026-04-12T09:28:24.155Z</time></trkpt><trkpt lat="43.5283898" lon="11.9626583"><ele>643.0</ele><time>2026-04-12T09:28:25.148Z</time></trkpt><trkpt lat="43.5282296" lon="11.9626367"><ele>643.0</ele><time>2026-04-12T09:28:26.162Z</time></trkpt><trkpt lat="43.5280627" lon="11.9626305"><ele>643.0</ele><time>2026-04-12T09:28:27.146Z</time></trkpt><trkpt lat="43.5278867" lon="11.9626417"><ele>643.0</ele><time>2026-04-12T09:28:28.155Z</time></trkpt><trkpt lat="43.5277074" lon="11.9626676"><ele>643.3333333333334</ele><time>2026-04-12T09:28:29.151Z</time></trkpt><trkpt lat="43.5275371" lon="11.9627086"><ele>643.6666666666666</ele><time>2026-04-12T09:28:30.134Z</time></trkpt><trkpt lat="43.527369" lon="11.9627624"><ele>644.0</ele><time>2026-04-12T09:28:31.148Z</time></trkpt><trkpt lat="43.5272099" lon="11.962818"><ele>644.0</ele><time>2026-04-12T09:28:32.16Z</time></trkpt><trkpt lat="43.5270706" lon="11.9628744"><ele>644.0</ele><time>2026-04-12T09:28:33.152Z</time></trkpt><trkpt lat="43.5269398" lon="11.9629316"><ele>644.0</ele><time>2026-04-12T09:28:34.147Z</time></trkpt><trkpt lat="43.5268167" lon="11.9630266"><ele>644.0</ele><time>2026-04-12T09:28:35.139Z</time></trkpt><trkpt lat="43.5267146" lon="11.9631511"><ele>646.6666666666666</ele><time>2026-04-12T09:28:36.164Z</time></trkpt><trkpt lat="43.5266129" lon="11.9633034"><ele>649.3333333333334</ele><time>2026-04-12T09:28:37.142Z</time></trkpt><trkpt lat="43.5265045" lon="11.9634778"><ele>652.0</ele><time>2026-04-12T09:28:38.155Z</time></trkpt><trkpt lat="43.5264121" lon="11.9636271"><ele>652.0</ele><time>2026-04-12T09:28:39.149Z</time></trkpt><trkpt lat="43.5263157" lon="11.9637138"><ele>652.0</ele><time>2026-04-12T09:28:40.144Z</time></trkpt><trkpt lat="43.5262296" lon="11.9637609"><ele>652.0</ele><time>2026-04-12T09:28:41.152Z</time></trkpt><trkpt lat="43.5261326" lon="11.9637607"><ele>652.0</ele><time>2026-04-12T09:28:42.15Z</time></trkpt><trkpt lat="43.5260245" lon="11.9637193"><ele>652.0</ele><time>2026-04-12T09:28:43.147Z</time></trkpt><trkpt lat="43.5259246" lon="11.9636561"><ele>652.6</ele><time>2026-04-12T09:28:44.151Z</time></trkpt><trkpt lat="43.5258355" lon="11.9636113"><ele>653.2</ele><time>2026-04-12T09:28:45.142Z</time></trkpt><trkpt lat="43.5257443" lon="11.963609"><ele>653.8</ele><time>2026-04-12T09:28:46.152Z</time></trkpt><trkpt lat="43.5256609" lon="11.9636555"><ele>654.4</ele><time>2026-04-12T09:28:47.133Z</time></trkpt><trkpt lat="43.525595" lon="11.9637364"><ele>655.0</ele><time>2026-04-12T09:28:48.144Z</time></trkpt><trkpt lat="43.5255317" lon="11.9638517"><ele>655.0</ele><time>2026-04-12T09:28:49.151Z</time></trkpt><trkpt lat="43.5254619" lon="11.9640097"><ele>655.0</ele><time>2026-04-12T09:28:50.142Z</time></trkpt><trkpt lat="43.5253863" lon="11.9641643"><ele>655.0</ele><time>2026-04-12T09:28:51.148Z</time></trkpt><trkpt lat="43.5253093" lon="11.964292"><ele>655.0</ele><time>2026-04-12T09:28:52.14Z</time></trkpt><trkpt lat="43.5252226" lon="11.9643874"><ele>655.0</ele><time>2026-04-12T09:28:53.144Z</time></trkpt><trkpt lat="43.5251148" lon="11.9644622"><ele>655.0</ele><time>2026-04-12T09:28:54.149Z</time></trkpt><trkpt lat="43.5249788" lon="11.9645223"><ele>655.0</ele><time>2026-04-12T09:28:55.15Z</time></trkpt><trkpt lat="43.5248178" lon="11.9645701"><ele>655.0</ele><time>2026-04-12T09:28:56.129Z</time></trkpt><trkpt lat="43.5246323" lon="11.9646138"><ele>655.0</ele><time>2026-04-12T09:28:57.139Z</time></trkpt><trkpt lat="43.5244212" lon="11.9646609"><ele>655.0</ele><time>2026-04-12T09:28:58.134Z</time></trkpt><trkpt lat="43.5241984" lon="11.9647097"><ele>655.0</ele><time>2026-04-12T09:28:59.131Z</time></trkpt><trkpt lat="43.523979" lon="11.9647577"><ele>655.0</ele><time>2026-04-12T09:29:00.141Z</time></trkpt><trkpt lat="43.5237725" lon="11.9648037"><ele>655.0</ele><time>2026-04-12T09:29:01.159Z</time></trkpt><trkpt lat="43.5235788" lon="11.9648509"><ele>655.0</ele><time>2026-04-12T09:29:02.147Z</time></trkpt><trkpt lat="43.5233948" lon="11.964903"><ele>655.6666666666667</ele><time>2026-04-12T09:29:03.163Z</time></trkpt><trkpt lat="43.5232078" lon="11.9649696"><ele>656.3333333333334</ele><time>2026-04-12T09:29:04.145Z</time></trkpt><trkpt lat="43.5230238" lon="11.9650491"><ele>657.0</ele><time>2026-04-12T09:29:05.131Z</time></trkpt><trkpt lat="43.5228389" lon="11.9651402"><ele>657.6666666666666</ele><time>2026-04-12T09:29:06.137Z</time></trkpt><trkpt lat="43.5226387" lon="11.9652504"><ele>658.3333333333333</ele><time>2026-04-12T09:29:07.131Z</time></trkpt><trkpt lat="43.5224441" lon="11.96536"><ele>659.0</ele><time>2026-04-12T09:29:08.15Z</time></trkpt><trkpt lat="43.5222697" lon="11.9654577"><ele>659.0</ele><time>2026-04-12T09:29:09.146Z</time></trkpt><trkpt lat="43.5221168" lon="11.9655417"><ele>659.0</ele><time>2026-04-12T09:29:10.149Z</time></trkpt><trkpt lat="43.521985" lon="11.9656202"><ele>659.0</ele><time>2026-04-12T09:29:11.143Z</time></trkpt><trkpt lat="43.5218702" lon="11.9657027"><ele>659.0</ele><time>2026-04-12T09:29:12.136Z</time></trkpt><trkpt lat="43.5217704" lon="11.9657975"><ele>662.25</ele><time>2026-04-12T09:29:13.142Z</time></trkpt><trkpt lat="43.5216869" lon="11.9659054"><ele>665.5</ele><time>2026-04-12T09:29:14.148Z</time></trkpt><trkpt lat="43.5216185" lon="11.9660369"><ele>668.75</ele><time>2026-04-12T09:29:15.148Z</time></trkpt><trkpt lat="43.5215628" lon="11.9661972"><ele>672.0</ele><time>2026-04-12T09:29:16.158Z</time></trkpt><trkpt lat="43.5215123" lon="11.9663933"><ele>672.0</ele><time>2026-04-12T09:29:17.146Z</time></trkpt><trkpt lat="43.5214607" lon="11.9666229"><ele>672.0</ele><time>2026-04-12T09:29:18.141Z</time></trkpt><trkpt lat="43.5214052" lon="11.9668728"><ele>672.0</ele><time>2026-04-12T09:29:19.139Z</time></trkpt><trkpt lat="43.5213414" lon="11.9671404"><ele>670.3333333333334</ele><time>2026-04-12T09:29:20.151Z</time></trkpt><trkpt lat="43.5212762" lon="11.9673937"><ele>668.6666666666667</ele><time>2026-04-12T09:29:21.151Z</time></trkpt><trkpt lat="43.5212105" lon="11.9676302"><ele>667.0</ele><time>2026-04-12T09:29:22.151Z</time></trkpt><trkpt lat="43.521149" lon="11.9678493"><ele>667.75</ele><time>2026-04-12T09:29:23.144Z</time></trkpt><trkpt lat="43.5210979" lon="11.9680425"><ele>668.5</ele><time>2026-04-12T09:29:24.149Z</time></trkpt><trkpt lat="43.5210528" lon="11.9682045"><ele>669.25</ele><time>2026-04-12T09:29:25.154Z</time></trkpt><trkpt lat="43.5210023" lon="11.9683277"><ele>670.0</ele><time>2026-04-12T09:29:26.156Z</time></trkpt><trkpt lat="43.5209353" lon="11.9684122"><ele>670.0</ele><time>2026-04-12T09:29:27.15Z</time></trkpt><trkpt lat="43.5208557" lon="11.9684587"><ele>670.0</ele><time>2026-04-12T09:29:28.151Z</time></trkpt><trkpt lat="43.5207582" lon="11.9684724"><ele>670.0</ele><time>2026-04-12T09:29:29.141Z</time></trkpt><trkpt lat="43.520636" lon="11.9684664"><ele>670.0</ele><time>2026-04-12T09:29:30.155Z</time></trkpt><trkpt lat="43.5205067" lon="11.9684571"><ele>670.0</ele><time>2026-04-12T09:29:31.15Z</time></trkpt><trkpt lat="43.5203869" lon="11.9684663"><ele>672.6</ele><time>2026-04-12T09:29:32.161Z</time></trkpt><trkpt lat="43.5202851" lon="11.9684988"><ele>675.2</ele><time>2026-04-12T09:29:33.138Z</time></trkpt><trkpt lat="43.5202025" lon="11.9685575"><ele>677.8</ele><time>2026-04-12T09:29:34.163Z</time></trkpt><trkpt lat="43.5201306" lon="11.968651"><ele>680.4</ele><time>2026-04-12T09:29:35.149Z</time></trkpt><trkpt lat="43.5200666" lon="11.9687843"><ele>683.0</ele><time>2026-04-12T09:29:36.137Z</time></trkpt><trkpt lat="43.5200072" lon="11.9689501"><ele>683.0</ele><time>2026-04-12T09:29:37.142Z</time></trkpt><trkpt lat="43.5199403" lon="11.9691466"><ele>683.0</ele><time>2026-04-12T09:29:38.156Z</time></trkpt><trkpt lat="43.5198611" lon="11.9693591"><ele>683.0</ele><time>2026-04-12T09:29:39.147Z</time></trkpt><trkpt lat="43.5197702" lon="11.9695982"><ele>683.3333333333333</ele><time>2026-04-12T09:29:40.13Z</time></trkpt><trkpt lat="43.5196861" lon="11.9698229"><ele>683.6666666666666</ele><time>2026-04-12T09:29:41.15Z</time></trkpt><trkpt lat="43.5196086" lon="11.9700282"><ele>684.0</ele><time>2026-04-12T09:29:42.154Z</time></trkpt><trkpt lat="43.5195401" lon="11.9702125"><ele>684.0</ele><time>2026-04-12T09:29:43.135Z</time></trkpt><trkpt lat="43.5194813" lon="11.970377"><ele>684.0</ele><time>2026-04-12T09:29:44.152Z</time></trkpt><trkpt lat="43.5194319" lon="11.970525"><ele>684.0</ele><time>2026-04-12T09:29:45.149Z</time></trkpt><trkpt lat="43.5193957" lon="11.9706601"><ele>684.0</ele><time>2026-04-12T09:29:46.128Z</time></trkpt><trkpt lat="43.5193609" lon="11.97078"><ele>684.0</ele><time>2026-04-12T09:29:47.137Z</time></trkpt><trkpt lat="43.519361" lon="11.9708974"><ele>686.1666666666666</ele><time>2026-04-12T09:29:48.132Z</time></trkpt><trkpt lat="43.5193739" lon="11.9710099"><ele>688.3333333333334</ele><time>2026-04-12T09:29:49.144Z</time></trkpt><trkpt lat="43.5193701" lon="11.9711332"><ele>690.5</ele><time>2026-04-12T09:29:51.142Z</time></trkpt><trkpt lat="43.5192616" lon="11.9712132"><ele>692.6666666666667</ele><time>2026-04-12T09:29:53.145Z</time></trkpt><trkpt lat="43.5191906" lon="11.9712505"><ele>694.8333333333334</ele><time>2026-04-12T09:29:54.165Z</time></trkpt><trkpt lat="43.5191225" lon="11.9712874"><ele>697.0</ele><time>2026-04-12T09:29:55.143Z</time></trkpt><trkpt lat="43.5190473" lon="11.9713413"><ele>697.0</ele><time>2026-04-12T09:29:56.17Z</time></trkpt><trkpt lat="43.5189742" lon="11.9713815"><ele>697.0</ele><time>2026-04-12T09:29:57.153Z</time></trkpt><trkpt lat="43.5188881" lon="11.9713799"><ele>697.0</ele><time>2026-04-12T09:29:58.158Z</time></trkpt><trkpt lat="43.518825" lon="11.9713693"><ele>697.0</ele><time>2026-04-12T09:29:59.154Z</time></trkpt><trkpt lat="43.5187547" lon="11.9713501"><ele>697.0</ele><time>2026-04-12T09:30:00.135Z</time></trkpt><trkpt lat="43.5186138" lon="11.9713525"><ele>697.0</ele><time>2026-04-12T09:30:02.156Z</time></trkpt><trkpt lat="43.5185221" lon="11.9713297"><ele>699.4000000000001</ele><time>2026-04-12T09:30:03.164Z</time></trkpt><trkpt lat="43.5184323" lon="11.9713088"><ele>701.8000000000001</ele><time>2026-04-12T09:30:04.146Z</time></trkpt><trkpt lat="43.5183547" lon="11.9712946"><ele>704.2</ele><time>2026-04-12T09:30:05.144Z</time></trkpt><trkpt lat="43.5182451" lon="11.9712708"><ele>706.6</ele><time>2026-04-12T09:30:07.155Z</time></trkpt><trkpt lat="43.5181353" lon="11.9712685"><ele>709.0</ele><time>2026-04-12T09:30:09.126Z</time></trkpt><trkpt lat="43.5180585" lon="11.9712518"><ele>709.0</ele><time>2026-04-12T09:30:10.145Z</time></trkpt><trkpt lat="43.517993" lon="11.9712553"><ele>709.0</ele><time>2026-04-12T09:30:11.139Z</time></trkpt><trkpt lat="43.517913" lon="11.9712437"><ele>709.0</ele><time>2026-04-12T09:30:12.15Z</time></trkpt><trkpt lat="43.517841" lon="11.9712441"><ele>709.0</ele><time>2026-04-12T09:30:13.138Z</time></trkpt><trkpt lat="43.5177594" lon="11.9712418"><ele>709.0</ele><time>2026-04-12T09:30:14.16Z</time></trkpt><trkpt lat="43.5176722" lon="11.971267"><ele>709.0</ele><time>2026-04-12T09:30:15.168Z</time></trkpt><trkpt lat="43.5175894" lon="11.9712988"><ele>709.8333333333334</ele><time>2026-04-12T09:30:16.132Z</time></trkpt><trkpt lat="43.5175271" lon="11.9713293"><ele>710.6666666666667</ele><time>2026-04-12T09:30:17.14Z</time></trkpt><trkpt lat="43.5174733" lon="11.9714158"><ele>711.5</ele><time>2026-04-12T09:30:18.14Z</time></trkpt><trkpt lat="43.5174231" lon="11.9715252"><ele>712.3333333333334</ele><time>2026-04-12T09:30:19.148Z</time></trkpt><trkpt lat="43.5173793" lon="11.9716295"><ele>713.1666666666666</ele><time>2026-04-12T09:30:20.145Z</time></trkpt><trkpt lat="43.5173274" lon="11.9717312"><ele>714.0</ele><time>2026-04-12T09:30:21.163Z</time></trkpt><trkpt lat="43.5172922" lon="11.9718098"><ele>715.3333333333334</ele><time>2026-04-12T09:30:22.139Z</time></trkpt><trkpt lat="43.5172457" lon="11.9718718"><ele>716.6666666666666</ele><time>2026-04-12T09:30:23.151Z</time></trkpt><trkpt lat="43.5171351" lon="11.9719187"><ele>718.0</ele><time>2026-04-12T09:30:25.166Z</time></trkpt><trkpt lat="43.5170479" lon="11.9718553"><ele>719.3333333333333</ele><time>2026-04-12T09:30:26.131Z</time></trkpt><trkpt lat="43.5169738" lon="11.9718009"><ele>720.6666666666666</ele><time>2026-04-12T09:30:27.161Z</time></trkpt><trkpt lat="43.5169125" lon="11.9717525"><ele>722.0</ele><time>2026-04-12T09:30:28.139Z</time></trkpt><trkpt lat="43.516854" lon="11.9717203"><ele>719.75</ele><time>2026-04-12T09:30:29.137Z</time></trkpt><trkpt lat="43.5167715" lon="11.9716859"><ele>717.5</ele><time>2026-04-12T09:30:30.146Z</time></trkpt><trkpt lat="43.5166514" lon="11.9716068"><ele>715.25</ele><time>2026-04-12T09:30:32.144Z</time></trkpt><trkpt lat="43.5165411" lon="11.9715573"><ele>713.0</ele><time>2026-04-12T09:30:34.155Z</time></trkpt><trkpt lat="43.5164108" lon="11.971535"><ele>713.0</ele><time>2026-04-12T09:30:36.129Z</time></trkpt><trkpt lat="43.5162907" lon="11.9715699"><ele>713.0</ele><time>2026-04-12T09:30:38.148Z</time></trkpt><trkpt lat="43.5162347" lon="11.9716764"><ele>713.0</ele><time>2026-04-12T09:30:39.146Z</time></trkpt><trkpt lat="43.5161926" lon="11.9717759"><ele>713.0</ele><time>2026-04-12T09:30:40.152Z</time></trkpt><trkpt lat="43.5161433" lon="11.9718594"><ele>713.0</ele><time>2026-04-12T09:30:41.131Z</time></trkpt><trkpt lat="43.5161072" lon="11.971939"><ele>713.0</ele><time>2026-04-12T09:30:42.146Z</time></trkpt><trkpt lat="43.5160648" lon="11.9720291"><ele>712.8</ele><time>2026-04-12T09:30:43.146Z</time></trkpt><trkpt lat="43.5160346" lon="11.9721408"><ele>712.5999999999999</ele><time>2026-04-12T09:30:44.158Z</time></trkpt><trkpt lat="43.516001" lon="11.9722343"><ele>712.4000000000001</ele><time>2026-04-12T09:30:45.154Z</time></trkpt><trkpt lat="43.5159601" lon="11.9723264"><ele>712.2</ele><time>2026-04-12T09:30:46.153Z</time></trkpt><trkpt lat="43.5159623" lon="11.9725381"><ele>712.0</ele><time>2026-04-12T09:30:48.163Z</time></trkpt><trkpt lat="43.5159801" lon="11.9726484"><ele>712.6666666666667</ele><time>2026-04-12T09:30:49.133Z</time></trkpt><trkpt lat="43.5159995" lon="11.972752"><ele>713.3333333333334</ele><time>2026-04-12T09:30:50.146Z</time></trkpt><trkpt lat="43.5160195" lon="11.9728438"><ele>714.0</ele><time>2026-04-12T09:30:51.156Z</time></trkpt><trkpt lat="43.5160273" lon="11.9729612"><ele>714.6666666666666</ele><time>2026-04-12T09:30:52.144Z</time></trkpt><trkpt lat="43.5160316" lon="11.9730652"><ele>715.3333333333333</ele><time>2026-04-12T09:30:53.155Z</time></trkpt><trkpt lat="43.516024" lon="11.9731752"><ele>716.0</ele><time>2026-04-12T09:30:54.146Z</time></trkpt><trkpt lat="43.5160478" lon="11.9732859"><ele>716.0</ele><time>2026-04-12T09:30:55.147Z</time></trkpt><trkpt lat="43.5160809" lon="11.9734089"><ele>716.0</ele><time>2026-04-12T09:30:56.15Z</time></trkpt><trkpt lat="43.5161103" lon="11.9735283"><ele>716.0</ele><time>2026-04-12T09:30:57.146Z</time></trkpt><trkpt lat="43.5161207" lon="11.9736413"><ele>716.0</ele><time>2026-04-12T09:30:58.149Z</time></trkpt><trkpt lat="43.5161079" lon="11.9737878"><ele>716.0</ele><time>2026-04-12T09:31:00.141Z</time></trkpt><trkpt lat="43.5160257" lon="11.9738912"><ele>716.0</ele><time>2026-04-12T09:31:02.15Z</time></trkpt><trkpt lat="43.5159599" lon="11.9739349"><ele>716.0</ele><time>2026-04-12T09:31:03.141Z</time></trkpt><trkpt lat="43.5158862" lon="11.9739766"><ele>716.0</ele><time>2026-04-12T09:31:04.154Z</time></trkpt><trkpt lat="43.5158196" lon="11.9740213"><ele>716.0</ele><time>2026-04-12T09:31:05.131Z</time></trkpt><trkpt lat="43.5157501" lon="11.9740796"><ele>716.0</ele><time>2026-04-12T09:31:06.132Z</time></trkpt><trkpt lat="43.515686" lon="11.9741455"><ele>716.0</ele><time>2026-04-12T09:31:07.144Z</time></trkpt><trkpt lat="43.5156165" lon="11.9742315"><ele>716.5999999999999</ele><time>2026-04-12T09:31:08.151Z</time></trkpt><trkpt lat="43.5155477" lon="11.9743351"><ele>717.2</ele><time>2026-04-12T09:31:09.134Z</time></trkpt><trkpt lat="43.5154821" lon="11.9744509"><ele>717.8</ele><time>2026-04-12T09:31:10.143Z</time></trkpt><trkpt lat="43.5154195" lon="11.974563"><ele>718.4000000000001</ele><time>2026-04-12T09:31:11.154Z</time></trkpt><trkpt lat="43.5153556" lon="11.9746569"><ele>719.0</ele><time>2026-04-12T09:31:12.148Z</time></trkpt><trkpt lat="43.5152909" lon="11.9747444"><ele>719.0</ele><time>2026-04-12T09:31:13.145Z</time></trkpt><trkpt lat="43.515227" lon="11.9748171"><ele>719.0</ele><time>2026-04-12T09:31:14.156Z</time></trkpt><trkpt lat="43.51516" lon="11.9748732"><ele>719.0</ele><time>2026-04-12T09:31:15.141Z</time></trkpt><trkpt lat="43.5150817" lon="11.9749165"><ele>719.0</ele><time>2026-04-12T09:31:16.135Z</time></trkpt><trkpt lat="43.514989" lon="11.9749465"><ele>719.0</ele><time>2026-04-12T09:31:17.132Z</time></trkpt><trkpt lat="43.5148855" lon="11.9749724"><ele>719.0</ele><time>2026-04-12T09:31:18.143Z</time></trkpt><trkpt lat="43.514785" lon="11.9749925"><ele>719.0</ele><time>2026-04-12T09:31:19.152Z</time></trkpt><trkpt lat="43.5146964" lon="11.9750029"><ele>719.0</ele><time>2026-04-12T09:31:20.152Z</time></trkpt><trkpt lat="43.5146208" lon="11.9749928"><ele>719.0</ele><time>2026-04-12T09:31:21.146Z</time></trkpt><trkpt lat="43.514559" lon="11.9749705"><ele>719.0</ele><time>2026-04-12T09:31:22.146Z</time></trkpt><trkpt lat="43.5144988" lon="11.9749083"><ele>719.0</ele><time>2026-04-12T09:31:23.136Z</time></trkpt><trkpt lat="43.5144425" lon="11.974842"><ele>719.0</ele><time>2026-04-12T09:31:24.143Z</time></trkpt><trkpt lat="43.5143166" lon="11.9748666"><ele>721.5</ele><time>2026-04-12T09:31:26.146Z</time></trkpt><trkpt lat="43.5142319" lon="11.9749292"><ele>724.0</ele><time>2026-04-12T09:31:27.16Z</time></trkpt><trkpt lat="43.5141362" lon="11.9750025"><ele>726.5</ele><time>2026-04-12T09:31:28.137Z</time></trkpt><trkpt lat="43.5140257" lon="11.97508"><ele>729.0</ele><time>2026-04-12T09:31:29.124Z</time></trkpt><trkpt lat="43.5139212" lon="11.9751689"><ele>728.5</ele><time>2026-04-12T09:31:30.153Z</time></trkpt><trkpt lat="43.5138222" lon="11.9752389"><ele>728.0</ele><time>2026-04-12T09:31:31.129Z</time></trkpt><trkpt lat="43.5137162" lon="11.9752798"><ele>727.5</ele><time>2026-04-12T09:31:32.135Z</time></trkpt><trkpt lat="43.513597" lon="11.9753559"><ele>727.0</ele><time>2026-04-12T09:31:33.137Z</time></trkpt><trkpt lat="43.5134833" lon="11.975421"><ele>727.0</ele><time>2026-04-12T09:31:34.126Z</time></trkpt><trkpt lat="43.5133674" lon="11.9755015"><ele>727.0</ele><time>2026-04-12T09:31:35.143Z</time></trkpt><trkpt lat="43.5132564" lon="11.9755954"><ele>727.0</ele><time>2026-04-12T09:31:36.151Z</time></trkpt><trkpt lat="43.5131704" lon="11.9756652"><ele>727.0</ele><time>2026-04-12T09:31:37.142Z</time></trkpt><trkpt lat="43.513092" lon="11.9757288"><ele>727.0</ele><time>2026-04-12T09:31:38.135Z</time></trkpt><trkpt lat="43.5130221" lon="11.9757658"><ele>727.0</ele><time>2026-04-12T09:31:39.138Z</time></trkpt><trkpt lat="43.5129433" lon="11.9757753"><ele>727.0</ele><time>2026-04-12T09:31:40.146Z</time></trkpt><trkpt lat="43.5128671" lon="11.9757526"><ele>727.0</ele><time>2026-04-12T09:31:41.127Z</time></trkpt><trkpt lat="43.5127912" lon="11.9757243"><ele>727.0</ele><time>2026-04-12T09:31:42.144Z</time></trkpt><trkpt lat="43.5127144" lon="11.9756254"><ele>727.0</ele><time>2026-04-12T09:31:43.151Z</time></trkpt><trkpt lat="43.5126304" lon="11.9754934"><ele>725.25</ele><time>2026-04-12T09:31:44.139Z</time></trkpt><trkpt lat="43.5125436" lon="11.9753334"><ele>723.5</ele><time>2026-04-12T09:31:45.144Z</time></trkpt><trkpt lat="43.5124609" lon="11.9751842"><ele>721.75</ele><time>2026-04-12T09:31:46.145Z</time></trkpt><trkpt lat="43.5123838" lon="11.9750527"><ele>720.0</ele><time>2026-04-12T09:31:47.14Z</time></trkpt><trkpt lat="43.5123019" lon="11.9749448"><ele>722.5</ele><time>2026-04-12T09:31:48.143Z</time></trkpt><trkpt lat="43.5122132" lon="11.9748494"><ele>725.0</ele><time>2026-04-12T09:31:49.15Z</time></trkpt><trkpt lat="43.5121041" lon="11.9747631"><ele>727.5</ele><time>2026-04-12T09:31:50.131Z</time></trkpt><trkpt lat="43.5119943" lon="11.9746978"><ele>730.0</ele><time>2026-04-12T09:31:51.141Z</time></trkpt><trkpt lat="43.5118795" lon="11.974663"><ele>730.0</ele><time>2026-04-12T09:31:52.145Z</time></trkpt><trkpt lat="43.5117541" lon="11.9746293"><ele>730.0</ele><time>2026-04-12T09:31:53.145Z</time></trkpt><trkpt lat="43.5116222" lon="11.9745794"><ele>730.0</ele><time>2026-04-12T09:31:54.144Z</time></trkpt><trkpt lat="43.5115009" lon="11.9745063"><ele>730.0</ele><time>2026-04-12T09:31:55.15Z</time></trkpt><trkpt lat="43.5113819" lon="11.9744082"><ele>730.0</ele><time>2026-04-12T09:31:56.136Z</time></trkpt><trkpt lat="43.5112766" lon="11.9743174"><ele>730.0</ele><time>2026-04-12T09:31:57.151Z</time></trkpt><trkpt lat="43.5111913" lon="11.9742553"><ele>730.0</ele><time>2026-04-12T09:31:58.157Z</time></trkpt><trkpt lat="43.5111194" lon="11.9742327"><ele>730.0</ele><time>2026-04-12T09:31:59.147Z</time></trkpt><trkpt lat="43.5110333" lon="11.9742451"><ele>730.0</ele><time>2026-04-12T09:32:00.141Z</time></trkpt><trkpt lat="43.5109388" lon="11.9742634"><ele>730.3333333333334</ele><time>2026-04-12T09:32:01.149Z</time></trkpt><trkpt lat="43.5108425" lon="11.9743222"><ele>730.6666666666667</ele><time>2026-04-12T09:32:02.147Z</time></trkpt><trkpt lat="43.5107597" lon="11.9743804"><ele>731.0</ele><time>2026-04-12T09:32:03.146Z</time></trkpt><trkpt lat="43.5106874" lon="11.9744419"><ele>731.3333333333334</ele><time>2026-04-12T09:32:04.143Z</time></trkpt><trkpt lat="43.5106352" lon="11.974518"><ele>731.6666666666666</ele><time>2026-04-12T09:32:05.125Z</time></trkpt><trkpt lat="43.5105995" lon="11.9746126"><ele>732.0</ele><time>2026-04-12T09:32:06.144Z</time></trkpt><trkpt lat="43.5105691" lon="11.9747269"><ele>732.0</ele><time>2026-04-12T09:32:07.128Z</time></trkpt><trkpt lat="43.5105361" lon="11.9748499"><ele>732.0</ele><time>2026-04-12T09:32:08.131Z</time></trkpt><trkpt lat="43.5105038" lon="11.9749635"><ele>732.0</ele><time>2026-04-12T09:32:09.16Z</time></trkpt><trkpt lat="43.510458" lon="11.9750542"><ele>732.0</ele><time>2026-04-12T09:32:10.137Z</time></trkpt><trkpt lat="43.5103926" lon="11.9751259"><ele>732.0</ele><time>2026-04-12T09:32:11.14Z</time></trkpt><trkpt lat="43.5103072" lon="11.9751928"><ele>732.0</ele><time>2026-04-12T09:32:12.129Z</time></trkpt><trkpt lat="43.5102221" lon="11.9752538"><ele>730.0</ele><time>2026-04-12T09:32:13.137Z</time></trkpt><trkpt lat="43.5101583" lon="11.9753384"><ele>728.0</ele><time>2026-04-12T09:32:14.145Z</time></trkpt><trkpt lat="43.5101053" lon="11.9754339"><ele>726.0</ele><time>2026-04-12T09:32:15.159Z</time></trkpt><trkpt lat="43.5100575" lon="11.9755081"><ele>724.0</ele><time>2026-04-12T09:32:16.162Z</time></trkpt><trkpt lat="43.510001" lon="11.9755546"><ele>722.0</ele><time>2026-04-12T09:32:17.144Z</time></trkpt><trkpt lat="43.5099398" lon="11.9755998"><ele>720.0</ele><time>2026-04-12T09:32:18.145Z</time></trkpt><trkpt lat="43.5098426" lon="11.9755715"><ele>720.0</ele><time>2026-04-12T09:32:19.144Z</time></trkpt><trkpt lat="43.509726" lon="11.9755289"><ele>720.0</ele><time>2026-04-12T09:32:20.131Z</time></trkpt><trkpt lat="43.5096201" lon="11.9754842"><ele>720.0</ele><time>2026-04-12T09:32:21.146Z</time></trkpt><trkpt lat="43.5095273" lon="11.9754292"><ele>720.0</ele><time>2026-04-12T09:32:22.155Z</time></trkpt><trkpt lat="43.5094213" lon="11.9753446"><ele>718.25</ele><time>2026-04-12T09:32:23.146Z</time></trkpt><trkpt lat="43.5093025" lon="11.9752369"><ele>716.5</ele><time>2026-04-12T09:32:24.149Z</time></trkpt><trkpt lat="43.509185" lon="11.9751411"><ele>714.75</ele><time>2026-04-12T09:32:25.153Z</time></trkpt><trkpt lat="43.5090706" lon="11.975074"><ele>713.0</ele><time>2026-04-12T09:32:26.127Z</time></trkpt><trkpt lat="43.5089689" lon="11.9750262"><ele>713.0</ele><time>2026-04-12T09:32:27.129Z</time></trkpt><trkpt lat="43.5088699" lon="11.9750121"><ele>713.0</ele><time>2026-04-12T09:32:28.16Z</time></trkpt><trkpt lat="43.5087717" lon="11.9750322"><ele>713.0</ele><time>2026-04-12T09:32:29.14Z</time></trkpt><trkpt lat="43.5086636" lon="11.9750764"><ele>713.0</ele><time>2026-04-12T09:32:30.159Z</time></trkpt><trkpt lat="43.508567" lon="11.9751321"><ele>713.0</ele><time>2026-04-12T09:32:31.15Z</time></trkpt><trkpt lat="43.5084847" lon="11.9751867"><ele>714.8333333333333</ele><time>2026-04-12T09:32:32.152Z</time></trkpt><trkpt lat="43.5084076" lon="11.9752238"><ele>716.6666666666666</ele><time>2026-04-12T09:32:33.15Z</time></trkpt><trkpt lat="43.5083344" lon="11.9752299"><ele>718.5</ele><time>2026-04-12T09:32:34.132Z</time></trkpt><trkpt lat="43.5082559" lon="11.9752175"><ele>720.3333333333334</ele><time>2026-04-12T09:32:35.138Z</time></trkpt><trkpt lat="43.5081763" lon="11.9751937"><ele>722.1666666666667</ele><time>2026-04-12T09:32:36.154Z</time></trkpt><trkpt lat="43.5080964" lon="11.9751471"><ele>724.0</ele><time>2026-04-12T09:32:37.147Z</time></trkpt><trkpt lat="43.5080025" lon="11.9750836"><ele>726.2</ele><time>2026-04-12T09:32:38.156Z</time></trkpt><trkpt lat="43.5079024" lon="11.9750263"><ele>728.4000000000001</ele><time>2026-04-12T09:32:39.156Z</time></trkpt><trkpt lat="43.5078061" lon="11.9749698"><ele>730.6</ele><time>2026-04-12T09:32:40.153Z</time></trkpt><trkpt lat="43.5077051" lon="11.9749039"><ele>732.8</ele><time>2026-04-12T09:32:41.136Z</time></trkpt><trkpt lat="43.5076018" lon="11.9748331"><ele>735.0</ele><time>2026-04-12T09:32:42.14Z</time></trkpt><trkpt lat="43.5075147" lon="11.9747702"><ele>735.0</ele><time>2026-04-12T09:32:43.134Z</time></trkpt><trkpt lat="43.5074303" lon="11.974721"><ele>735.0</ele><time>2026-04-12T09:32:44.135Z</time></trkpt><trkpt lat="43.507351" lon="11.9746747"><ele>735.0</ele><time>2026-04-12T09:32:45.15Z</time></trkpt><trkpt lat="43.5072647" lon="11.9746477"><ele>735.0</ele><time>2026-04-12T09:32:46.171Z</time></trkpt><trkpt lat="43.5071774" lon="11.9746162"><ele>735.0</ele><time>2026-04-12T09:32:47.161Z</time></trkpt><trkpt lat="43.5071011" lon="11.9745945"><ele>735.0</ele><time>2026-04-12T09:32:48.139Z</time></trkpt><trkpt lat="43.5070316" lon="11.9745824"><ele>736.1666666666666</ele><time>2026-04-12T09:32:49.144Z</time></trkpt><trkpt lat="43.5069483" lon="11.9746278"><ele>737.3333333333334</ele><time>2026-04-12T09:32:50.133Z</time></trkpt><trkpt lat="43.5068611" lon="11.9746779"><ele>738.5</ele><time>2026-04-12T09:32:51.141Z</time></trkpt><trkpt lat="43.5067818" lon="11.9747414"><ele>739.6666666666667</ele><time>2026-04-12T09:32:52.143Z</time></trkpt><trkpt lat="43.5067423" lon="11.9748196"><ele>740.8333333333334</ele><time>2026-04-12T09:32:53.156Z</time></trkpt><trkpt lat="43.5067026" lon="11.9749062"><ele>742.0</ele><time>2026-04-12T09:32:54.134Z</time></trkpt><trkpt lat="43.506703" lon="11.9750338"><ele>743.4000000000001</ele><time>2026-04-12T09:32:55.145Z</time></trkpt><trkpt lat="43.5067095" lon="11.9751565"><ele>744.8000000000001</ele><time>2026-04-12T09:32:56.143Z</time></trkpt><trkpt lat="43.5067127" lon="11.9752877"><ele>746.2</ele><time>2026-04-12T09:32:57.127Z</time></trkpt><trkpt lat="43.5067087" lon="11.9754218"><ele>747.6</ele><time>2026-04-12T09:32:58.143Z</time></trkpt><trkpt lat="43.5066896" lon="11.9755563"><ele>749.0</ele><time>2026-04-12T09:32:59.155Z</time></trkpt><trkpt lat="43.5066723" lon="11.9756941"><ele>749.0</ele><time>2026-04-12T09:33:00.135Z</time></trkpt><trkpt lat="43.5066525" lon="11.9758284"><ele>749.0</ele><time>2026-04-12T09:33:01.148Z</time></trkpt><trkpt lat="43.5066338" lon="11.9759456"><ele>749.0</ele><time>2026-04-12T09:33:02.143Z</time></trkpt><trkpt lat="43.5066092" lon="11.9760663"><ele>749.0</ele><time>2026-04-12T09:33:04.149Z</time></trkpt><trkpt lat="43.5065493" lon="11.9761454"><ele>749.0</ele><time>2026-04-12T09:33:06.159Z</time></trkpt><trkpt lat="43.5064919" lon="11.9761911"><ele>749.0</ele><time>2026-04-12T09:33:07.151Z</time></trkpt><trkpt lat="43.5064237" lon="11.9762382"><ele>750.0</ele><time>2026-04-12T09:33:08.151Z</time></trkpt><trkpt lat="43.506349" lon="11.9762999"><ele>751.0</ele><time>2026-04-12T09:33:09.147Z</time></trkpt><trkpt lat="43.5062699" lon="11.9763558"><ele>752.0</ele><time>2026-04-12T09:33:10.144Z</time></trkpt><trkpt lat="43.5061935" lon="11.9764093"><ele>753.0</ele><time>2026-04-12T09:33:11.147Z</time></trkpt><trkpt lat="43.5061135" lon="11.9764653"><ele>754.0</ele><time>2026-04-12T09:33:12.127Z</time></trkpt><trkpt lat="43.506043" lon="11.9765081"><ele>755.0</ele><time>2026-04-12T09:33:13.149Z</time></trkpt><trkpt lat="43.5059819" lon="11.9765479"><ele>755.5</ele><time>2026-04-12T09:33:14.159Z</time></trkpt><trkpt lat="43.505933" lon="11.9766077"><ele>756.0</ele><time>2026-04-12T09:33:15.141Z</time></trkpt><trkpt lat="43.5058953" lon="11.9766945"><ele>756.5</ele><time>2026-04-12T09:33:16.147Z</time></trkpt><trkpt lat="43.5058566" lon="11.9767863"><ele>757.0</ele><time>2026-04-12T09:33:17.154Z</time></trkpt><trkpt lat="43.5058242" lon="11.9768998"><ele>757.5</ele><time>2026-04-12T09:33:18.156Z</time></trkpt><trkpt lat="43.5057845" lon="11.9770194"><ele>758.0</ele><time>2026-04-12T09:33:19.147Z</time></trkpt><trkpt lat="43.5057497" lon="11.9771291"><ele>757.0</ele><time>2026-04-12T09:33:20.145Z</time></trkpt><trkpt lat="43.5056847" lon="11.9772256"><ele>756.0</ele><time>2026-04-12T09:33:21.129Z</time></trkpt><trkpt lat="43.5056161" lon="11.9772722"><ele>755.0</ele><time>2026-04-12T09:33:22.151Z</time></trkpt><trkpt lat="43.5055388" lon="11.9773064"><ele>754.0</ele><time>2026-04-12T09:33:23.145Z</time></trkpt><trkpt lat="43.5054664" lon="11.9773462"><ele>753.0</ele><time>2026-04-12T09:33:24.148Z</time></trkpt><trkpt lat="43.5053938" lon="11.9773921"><ele>752.0</ele><time>2026-04-12T09:33:25.152Z</time></trkpt><trkpt lat="43.5053227" lon="11.977463"><ele>753.6</ele><time>2026-04-12T09:33:26.149Z</time></trkpt><trkpt lat="43.5052626" lon="11.9775697"><ele>755.2</ele><time>2026-04-12T09:33:27.142Z</time></trkpt><trkpt lat="43.505206" lon="11.9777118"><ele>756.8</ele><time>2026-04-12T09:33:28.132Z</time></trkpt><trkpt lat="43.5051529" lon="11.9778459"><ele>758.4</ele><time>2026-04-12T09:33:29.154Z</time></trkpt><trkpt lat="43.5050888" lon="11.9779579"><ele>760.0</ele><time>2026-04-12T09:33:30.147Z</time></trkpt><trkpt lat="43.505022" lon="11.9780349"><ele>760.0</ele><time>2026-04-12T09:33:31.149Z</time></trkpt><trkpt lat="43.5049579" lon="11.9780774"><ele>760.0</ele><time>2026-04-12T09:33:32.14Z</time></trkpt><trkpt lat="43.5048332" lon="11.9780672"><ele>760.0</ele><time>2026-04-12T09:33:34.152Z</time></trkpt><trkpt lat="43.5047418" lon="11.9779535"><ele>760.0</ele><time>2026-04-12T09:33:35.148Z</time></trkpt><trkpt lat="43.5046477" lon="11.977836"><ele>760.0</ele><time>2026-04-12T09:33:36.146Z</time></trkpt><trkpt lat="43.5045682" lon="11.9777392"><ele>759.5</ele><time>2026-04-12T09:33:37.15Z</time></trkpt><trkpt lat="43.5044913" lon="11.9776491"><ele>759.0</ele><time>2026-04-12T09:33:38.139Z</time></trkpt><trkpt lat="43.5043905" lon="11.9775883"><ele>758.5</ele><time>2026-04-12T09:33:39.151Z</time></trkpt><trkpt lat="43.5042621" lon="11.9775226"><ele>758.0</ele><time>2026-04-12T09:33:40.136Z</time></trkpt><trkpt lat="43.5041369" lon="11.9774574"><ele>758.0</ele><time>2026-04-12T09:33:41.157Z</time></trkpt><trkpt lat="43.5040294" lon="11.9773856"><ele>758.0</ele><time>2026-04-12T09:33:42.145Z</time></trkpt><trkpt lat="43.5039096" lon="11.9773024"><ele>758.0</ele><time>2026-04-12T09:33:43.153Z</time></trkpt><trkpt lat="43.5037882" lon="11.9772165"><ele>758.0</ele><time>2026-04-12T09:33:44.134Z</time></trkpt><trkpt lat="43.5036816" lon="11.9771341"><ele>759.8</ele><time>2026-04-12T09:33:45.146Z</time></trkpt><trkpt lat="43.5035878" lon="11.9770631"><ele>761.5999999999999</ele><time>2026-04-12T09:33:46.15Z</time></trkpt><trkpt lat="43.503502" lon="11.9770034"><ele>763.4000000000001</ele><time>2026-04-12T09:33:47.165Z</time></trkpt><trkpt lat="43.5034254" lon="11.9769577"><ele>765.2</ele><time>2026-04-12T09:33:48.139Z</time></trkpt><trkpt lat="43.5033637" lon="11.9769392"><ele>767.0</ele><time>2026-04-12T09:33:49.127Z</time></trkpt><trkpt lat="43.5032388" lon="11.9769441"><ele>767.0</ele><time>2026-04-12T09:33:51.149Z</time></trkpt><trkpt lat="43.5031584" lon="11.9769874"><ele>767.0</ele><time>2026-04-12T09:33:52.15Z</time></trkpt><trkpt lat="43.5030871" lon="11.9770066"><ele>767.0</ele><time>2026-04-12T09:33:53.135Z</time></trkpt><trkpt lat="43.502969" lon="11.9769558"><ele>767.0</ele><time>2026-04-12T09:33:55.136Z</time></trkpt><trkpt lat="43.502907" lon="11.9768648"><ele>767.0</ele><time>2026-04-12T09:33:56.146Z</time></trkpt><trkpt lat="43.5028444" lon="11.9767695"><ele>765.4000000000001</ele><time>2026-04-12T09:33:57.153Z</time></trkpt><trkpt lat="43.5027825" lon="11.9766722"><ele>763.8000000000001</ele><time>2026-04-12T09:33:58.151Z</time></trkpt><trkpt lat="43.5026921" lon="11.9765795"><ele>762.2</ele><time>2026-04-12T09:33:59.15Z</time></trkpt><trkpt lat="43.5026046" lon="11.9764971"><ele>760.6</ele><time>2026-04-12T09:34:00.141Z</time></trkpt><trkpt lat="43.5025126" lon="11.9764467"><ele>759.0</ele><time>2026-04-12T09:34:01.149Z</time></trkpt><trkpt lat="43.5024184" lon="11.9763985"><ele>759.0</ele><time>2026-04-12T09:34:02.144Z</time></trkpt><trkpt lat="43.5023144" lon="11.9763688"><ele>759.0</ele><time>2026-04-12T09:34:03.142Z</time></trkpt><trkpt lat="43.5022115" lon="11.9763394"><ele>759.0</ele><time>2026-04-12T09:34:04.146Z</time></trkpt><trkpt lat="43.5021093" lon="11.976321"><ele>759.0</ele><time>2026-04-12T09:34:05.156Z</time></trkpt><trkpt lat="43.50201" lon="11.9763144"><ele>759.0</ele><time>2026-04-12T09:34:06.141Z</time></trkpt><trkpt lat="43.501909" lon="11.9763057"><ele>760.0</ele><time>2026-04-12T09:34:07.139Z</time></trkpt><trkpt lat="43.5017986" lon="11.9763154"><ele>761.0</ele><time>2026-04-12T09:34:08.144Z</time></trkpt><trkpt lat="43.5016951" lon="11.9763306"><ele>762.0</ele><time>2026-04-12T09:34:09.13Z</time></trkpt><trkpt lat="43.5016036" lon="11.9763477"><ele>763.0</ele><time>2026-04-12T09:34:10.139Z</time></trkpt><trkpt lat="43.5015288" lon="11.9763699"><ele>764.0</ele><time>2026-04-12T09:34:11.143Z</time></trkpt><trkpt lat="43.5014498" lon="11.9764067"><ele>764.0</ele><time>2026-04-12T09:34:12.151Z</time></trkpt><trkpt lat="43.5013702" lon="11.9764689"><ele>764.0</ele><time>2026-04-12T09:34:13.128Z</time></trkpt><trkpt lat="43.5012935" lon="11.9765584"><ele>764.0</ele><time>2026-04-12T09:34:14.147Z</time></trkpt><trkpt lat="43.5012266" lon="11.9766633"><ele>764.0</ele><time>2026-04-12T09:34:15.142Z</time></trkpt><trkpt lat="43.501171" lon="11.9767532"><ele>764.0</ele><time>2026-04-12T09:34:16.148Z</time></trkpt><trkpt lat="43.5011432" lon="11.9768398"><ele>764.0</ele><time>2026-04-12T09:34:17.131Z</time></trkpt><trkpt lat="43.5011268" lon="11.9769342"><ele>766.0</ele><time>2026-04-12T09:34:18.145Z</time></trkpt><trkpt lat="43.5011122" lon="11.9770315"><ele>768.0</ele><time>2026-04-12T09:34:19.157Z</time></trkpt><trkpt lat="43.5011069" lon="11.9771345"><ele>770.0</ele><time>2026-04-12T09:34:20.143Z</time></trkpt><trkpt lat="43.5010747" lon="11.9772276"><ele>772.0</ele><time>2026-04-12T09:34:21.151Z</time></trkpt><trkpt lat="43.5010105" lon="11.9773307"><ele>774.0000000000001</ele><time>2026-04-12T09:34:23.155Z</time></trkpt><trkpt lat="43.5009448" lon="11.9773116"><ele>776.0</ele><time>2026-04-12T09:34:24.142Z</time></trkpt><trkpt lat="43.5008563" lon="11.9772521"><ele>776.0</ele><time>2026-04-12T09:34:25.134Z</time></trkpt><trkpt lat="43.5007562" lon="11.9771958"><ele>776.0</ele><time>2026-04-12T09:34:26.154Z</time></trkpt><trkpt lat="43.5006614" lon="11.9771536"><ele>776.0</ele><time>2026-04-12T09:34:27.13Z</time></trkpt><trkpt lat="43.5005741" lon="11.977106"><ele>776.0</ele><time>2026-04-12T09:34:28.137Z</time></trkpt><trkpt lat="43.5004892" lon="11.9770487"><ele>776.0</ele><time>2026-04-12T09:34:29.15Z</time></trkpt><trkpt lat="43.5004119" lon="11.9770092"><ele>776.1999999999999</ele><time>2026-04-12T09:34:30.14Z</time></trkpt><trkpt lat="43.5003491" lon="11.9769825"><ele>776.4</ele><time>2026-04-12T09:34:31.146Z</time></trkpt><trkpt lat="43.5002809" lon="11.9769862"><ele>776.6</ele><time>2026-04-12T09:34:32.151Z</time></trkpt><trkpt lat="43.5001908" lon="11.9770311"><ele>776.8</ele><time>2026-04-12T09:34:33.14Z</time></trkpt><trkpt lat="43.5000751" lon="11.9770869"><ele>777.0</ele><time>2026-04-12T09:34:34.144Z</time></trkpt><trkpt lat="43.4999588" lon="11.977134"><ele>777.0</ele><time>2026-04-12T09:34:35.14Z</time></trkpt><trkpt lat="43.4998567" lon="11.9771767"><ele>777.0</ele><time>2026-04-12T09:34:36.152Z</time></trkpt><trkpt lat="43.4997582" lon="11.9772193"><ele>777.0</ele><time>2026-04-12T09:34:37.141Z</time></trkpt><trkpt lat="43.4996662" lon="11.9772639"><ele>777.0</ele><time>2026-04-12T09:34:38.144Z</time></trkpt><trkpt lat="43.4995769" lon="11.9773136"><ele>777.0</ele><time>2026-04-12T09:34:39.14Z</time></trkpt><trkpt lat="43.4994928" lon="11.9773756"><ele>775.7142857142857</ele><time>2026-04-12T09:34:40.156Z</time></trkpt><trkpt lat="43.499417" lon="11.9774293"><ele>774.4285714285714</ele><time>2026-04-12T09:34:41.168Z</time></trkpt><trkpt lat="43.499349" lon="11.977469"><ele>773.1428571428571</ele><time>2026-04-12T09:34:42.145Z</time></trkpt><trkpt lat="43.4992868" lon="11.9775126"><ele>771.8571428571429</ele><time>2026-04-12T09:34:43.137Z</time></trkpt><trkpt lat="43.4992265" lon="11.9775559"><ele>770.5714285714286</ele><time>2026-04-12T09:34:44.145Z</time></trkpt><trkpt lat="43.4991617" lon="11.9776053"><ele>769.2857142857142</ele><time>2026-04-12T09:34:45.148Z</time></trkpt><trkpt lat="43.4990996" lon="11.97766"><ele>768.0</ele><time>2026-04-12T09:34:46.139Z</time></trkpt><trkpt lat="43.4990366" lon="11.9777071"><ele>767.9999999999999</ele><time>2026-04-12T09:34:47.16Z</time></trkpt><trkpt lat="43.4989709" lon="11.977755"><ele>768.0</ele><time>2026-04-12T09:34:48.158Z</time></trkpt><trkpt lat="43.4989042" lon="11.9778031"><ele>768.0</ele><time>2026-04-12T09:34:49.147Z</time></trkpt><trkpt lat="43.4988351" lon="11.9778493"><ele>768.0</ele><time>2026-04-12T09:34:50.133Z</time></trkpt><trkpt lat="43.4987676" lon="11.9778774"><ele>768.0</ele><time>2026-04-12T09:34:51.151Z</time></trkpt><trkpt lat="43.4986979" lon="11.9778933"><ele>767.9999999999999</ele><time>2026-04-12T09:34:52.151Z</time></trkpt><trkpt lat="43.4986249" lon="11.9778979"><ele>768.0</ele><time>2026-04-12T09:34:53.139Z</time></trkpt><trkpt lat="43.498555" lon="11.9779018"><ele>765.8333333333334</ele><time>2026-04-12T09:34:54.146Z</time></trkpt><trkpt lat="43.4984875" lon="11.9779061"><ele>763.6666666666666</ele><time>2026-04-12T09:34:55.143Z</time></trkpt><trkpt lat="43.4984211" lon="11.9779168"><ele>761.5</ele><time>2026-04-12T09:34:56.145Z</time></trkpt><trkpt lat="43.4983036" lon="11.9779633"><ele>759.3333333333333</ele><time>2026-04-12T09:34:58.145Z</time></trkpt><trkpt lat="43.4982397" lon="11.9779867"><ele>757.1666666666666</ele><time>2026-04-12T09:34:59.143Z</time></trkpt><trkpt lat="43.4981417" lon="11.9780183"><ele>755.0</ele><time>2026-04-12T09:35:01.15Z</time></trkpt><trkpt lat="43.4980377" lon="11.9779797"><ele>755.0</ele><time>2026-04-12T09:35:03.14Z</time></trkpt><trkpt lat="43.497932" lon="11.9779237"><ele>755.0</ele><time>2026-04-12T09:35:05.125Z</time></trkpt><trkpt lat="43.4978757" lon="11.9778424"><ele>755.0</ele><time>2026-04-12T09:35:06.138Z</time></trkpt><trkpt lat="43.4978173" lon="11.9777624"><ele>755.0</ele><time>2026-04-12T09:35:07.155Z</time></trkpt><trkpt lat="43.4977578" lon="11.9777102"><ele>755.0</ele><time>2026-04-12T09:35:08.134Z</time></trkpt><trkpt lat="43.4976423" lon="11.9776803"><ele>752.8333333333333</ele><time>2026-04-12T09:35:10.133Z</time></trkpt><trkpt lat="43.49755" lon="11.9776838"><ele>750.6666666666666</ele><time>2026-04-12T09:35:12.164Z</time></trkpt><trkpt lat="43.4974771" lon="11.9777073"><ele>748.5</ele><time>2026-04-12T09:35:15.146Z</time></trkpt><trkpt lat="43.4974501" lon="11.9777961"><ele>746.3333333333334</ele><time>2026-04-12T09:35:17.143Z</time></trkpt><trkpt lat="43.4973983" lon="11.9779413"><ele>744.1666666666667</ele><time>2026-04-12T09:35:19.136Z</time></trkpt><trkpt lat="43.4973517" lon="11.9780128"><ele>742.0</ele><time>2026-04-12T09:35:20.143Z</time></trkpt><trkpt lat="43.4972321" lon="11.9781034"><ele>742.0</ele><time>2026-04-12T09:35:22.156Z</time></trkpt><trkpt lat="43.497159" lon="11.9781421"><ele>742.0</ele><time>2026-04-12T09:35:23.154Z</time></trkpt><trkpt lat="43.4970771" lon="11.9781677"><ele>742.0</ele><time>2026-04-12T09:35:24.158Z</time></trkpt><trkpt lat="43.4970025" lon="11.9781891"><ele>742.0</ele><time>2026-04-12T09:35:25.133Z</time></trkpt><trkpt lat="43.4969319" lon="11.9782149"><ele>742.0</ele><time>2026-04-12T09:35:26.142Z</time></trkpt><trkpt lat="43.4968617" lon="11.9782365"><ele>742.0</ele><time>2026-04-12T09:35:27.126Z</time></trkpt><trkpt lat="43.4967952" lon="11.978251"><ele>741.3333333333334</ele><time>2026-04-12T09:35:28.139Z</time></trkpt><trkpt lat="43.4967308" lon="11.978293"><ele>740.6666666666667</ele><time>2026-04-12T09:35:29.125Z</time></trkpt><trkpt lat="43.4966834" lon="11.9783542"><ele>740.0</ele><time>2026-04-12T09:35:30.137Z</time></trkpt><trkpt lat="43.496657" lon="11.9784422"><ele>739.3333333333334</ele><time>2026-04-12T09:35:31.142Z</time></trkpt><trkpt lat="43.496633" lon="11.9785392"><ele>738.6666666666666</ele><time>2026-04-12T09:35:32.13Z</time></trkpt><trkpt lat="43.4966603" lon="11.9786712"><ele>738.0</ele><time>2026-04-12T09:35:33.155Z</time></trkpt><trkpt lat="43.4966963" lon="11.9788044"><ele>737.0</ele><time>2026-04-12T09:35:34.137Z</time></trkpt><trkpt lat="43.4967246" lon="11.9789328"><ele>736.0</ele><time>2026-04-12T09:35:35.147Z</time></trkpt><trkpt lat="43.4967519" lon="11.9790637"><ele>735.0</ele><time>2026-04-12T09:35:36.131Z</time></trkpt><trkpt lat="43.4967532" lon="11.9792112"><ele>734.0</ele><time>2026-04-12T09:35:37.142Z</time></trkpt><trkpt lat="43.4967531" lon="11.9793709"><ele>733.0</ele><time>2026-04-12T09:35:38.145Z</time></trkpt><trkpt lat="43.4967719" lon="11.9795152"><ele>732.5999999999999</ele><time>2026-04-12T09:35:39.145Z</time></trkpt><trkpt lat="43.4968054" lon="11.9796417"><ele>732.1999999999999</ele><time>2026-04-12T09:35:40.146Z</time></trkpt><trkpt lat="43.4968306" lon="11.9797646"><ele>731.8</ele><time>2026-04-12T09:35:41.147Z</time></trkpt><trkpt lat="43.4968388" lon="11.9798731"><ele>731.4</ele><time>2026-04-12T09:35:42.127Z</time></trkpt><trkpt lat="43.4968462" lon="11.9799927"><ele>731.0</ele><time>2026-04-12T09:35:43.15Z</time></trkpt><trkpt lat="43.4968245" lon="11.980141"><ele>731.0</ele><time>2026-04-12T09:35:44.135Z</time></trkpt><trkpt lat="43.4967973" lon="11.9803017"><ele>731.0</ele><time>2026-04-12T09:35:45.154Z</time></trkpt><trkpt lat="43.4967585" lon="11.9804586"><ele>731.0</ele><time>2026-04-12T09:35:46.144Z</time></trkpt><trkpt lat="43.4967131" lon="11.9805914"><ele>731.0</ele><time>2026-04-12T09:35:47.141Z</time></trkpt><trkpt lat="43.4966767" lon="11.9806971"><ele>731.0</ele><time>2026-04-12T09:35:48.149Z</time></trkpt><trkpt lat="43.4966518" lon="11.9808273"><ele>732.6666666666666</ele><time>2026-04-12T09:35:50.142Z</time></trkpt><trkpt lat="43.4966712" lon="11.9809138"><ele>734.3333333333333</ele><time>2026-04-12T09:35:51.138Z</time></trkpt><trkpt lat="43.496708" lon="11.9810204"><ele>736.0</ele><time>2026-04-12T09:35:52.145Z</time></trkpt><trkpt lat="43.4967659" lon="11.9811271"><ele>737.6666666666666</ele><time>2026-04-12T09:35:53.154Z</time></trkpt><trkpt lat="43.4968246" lon="11.9812288"><ele>739.3333333333334</ele><time>2026-04-12T09:35:54.159Z</time></trkpt><trkpt lat="43.4968726" lon="11.981328"><ele>741.0</ele><time>2026-04-12T09:35:55.15Z</time></trkpt><trkpt lat="43.4969165" lon="11.9814214"><ele>741.0</ele><time>2026-04-12T09:35:56.134Z</time></trkpt><trkpt lat="43.4969402" lon="11.9815036"><ele>741.0</ele><time>2026-04-12T09:35:57.138Z</time></trkpt><trkpt lat="43.4969395" lon="11.9816399"><ele>741.0</ele><time>2026-04-12T09:35:59.163Z</time></trkpt><trkpt lat="43.4968777" lon="11.9818102"><ele>741.0</ele><time>2026-04-12T09:36:01.163Z</time></trkpt><trkpt lat="43.4968108" lon="11.9819149"><ele>741.0</ele><time>2026-04-12T09:36:02.138Z</time></trkpt><trkpt lat="43.4967402" lon="11.9820315"><ele>741.8</ele><time>2026-04-12T09:36:03.146Z</time></trkpt><trkpt lat="43.4966741" lon="11.9821631"><ele>742.5999999999999</ele><time>2026-04-12T09:36:04.15Z</time></trkpt><trkpt lat="43.4966285" lon="11.9822829"><ele>743.4</ele><time>2026-04-12T09:36:05.158Z</time></trkpt><trkpt lat="43.4965934" lon="11.9823903"><ele>744.2</ele><time>2026-04-12T09:36:06.154Z</time></trkpt><trkpt lat="43.4965687" lon="11.9825076"><ele>745.0</ele><time>2026-04-12T09:36:07.13Z</time></trkpt><trkpt lat="43.4965621" lon="11.9826281"><ele>745.0</ele><time>2026-04-12T09:36:08.139Z</time></trkpt><trkpt lat="43.496587" lon="11.982744"><ele>745.0</ele><time>2026-04-12T09:36:09.159Z</time></trkpt><trkpt lat="43.4966107" lon="11.982858"><ele>745.0</ele><time>2026-04-12T09:36:10.142Z</time></trkpt><trkpt lat="43.4966018" lon="11.9829906"><ele>745.0</ele><time>2026-04-12T09:36:11.136Z</time></trkpt><trkpt lat="43.4965907" lon="11.9831457"><ele>745.0</ele><time>2026-04-12T09:36:12.144Z</time></trkpt><trkpt lat="43.4965414" lon="11.9833017"><ele>745.0</ele><time>2026-04-12T09:36:13.13Z</time></trkpt><trkpt lat="43.4965049" lon="11.9834684"><ele>745.0</ele><time>2026-04-12T09:36:14.127Z</time></trkpt><trkpt lat="43.496479" lon="11.9836294"><ele>745.0</ele><time>2026-04-12T09:36:15.12Z</time></trkpt><trkpt lat="43.4964785" lon="11.9837876"><ele>745.0</ele><time>2026-04-12T09:36:16.119Z</time></trkpt><trkpt lat="43.4964776" lon="11.9839211"><ele>745.0</ele><time>2026-04-12T09:36:17.125Z</time></trkpt><trkpt lat="43.4964572" lon="11.9840532"><ele>745.0</ele><time>2026-04-12T09:36:18.122Z</time></trkpt><trkpt lat="43.4964241" lon="11.9841819"><ele>745.0</ele><time>2026-04-12T09:36:19.141Z</time></trkpt><trkpt lat="43.4964082" lon="11.9842717"><ele>745.0</ele><time>2026-04-12T09:36:20.156Z</time></trkpt><trkpt lat="43.4964158" lon="11.9843604"><ele>745.0</ele><time>2026-04-12T09:36:21.129Z</time></trkpt><trkpt lat="43.4964868" lon="11.9844597"><ele>745.0</ele><time>2026-04-12T09:36:22.147Z</time></trkpt><trkpt lat="43.4965383" lon="11.9845829"><ele>746.4</ele><time>2026-04-12T09:36:23.149Z</time></trkpt><trkpt lat="43.4965844" lon="11.9847248"><ele>747.8</ele><time>2026-04-12T09:36:24.15Z</time></trkpt><trkpt lat="43.4966189" lon="11.9848652"><ele>749.2</ele><time>2026-04-12T09:36:25.133Z</time></trkpt><trkpt lat="43.4966473" lon="11.9849932"><ele>750.6</ele><time>2026-04-12T09:36:26.142Z</time></trkpt><trkpt lat="43.4966608" lon="11.9851239"><ele>752.0</ele><time>2026-04-12T09:36:27.13Z</time></trkpt><trkpt lat="43.4966996" lon="11.9852754"><ele>752.0</ele><time>2026-04-12T09:36:28.143Z</time></trkpt><trkpt lat="43.4967504" lon="11.9854014"><ele>752.0</ele><time>2026-04-12T09:36:29.134Z</time></trkpt><trkpt lat="43.4968113" lon="11.985533"><ele>752.0</ele><time>2026-04-12T09:36:30.154Z</time></trkpt><trkpt lat="43.4968584" lon="11.9856638"><ele>752.0</ele><time>2026-04-12T09:36:31.148Z</time></trkpt><trkpt lat="43.4968962" lon="11.9857927"><ele>752.0</ele><time>2026-04-12T09:36:32.14Z</time></trkpt><trkpt lat="43.4969143" lon="11.9859079"><ele>748.8333333333333</ele><time>2026-04-12T09:36:33.127Z</time></trkpt><trkpt lat="43.4969263" lon="11.9860084"><ele>745.6666666666666</ele><time>2026-04-12T09:36:34.125Z</time></trkpt><trkpt lat="43.4969352" lon="11.9860958"><ele>742.5</ele><time>2026-04-12T09:36:35.152Z</time></trkpt><trkpt lat="43.4969138" lon="11.9862199"><ele>739.3333333333334</ele><time>2026-04-12T09:36:37.143Z</time></trkpt><trkpt lat="43.4968863" lon="11.9863116"><ele>736.1666666666667</ele><time>2026-04-12T09:36:44.137Z</time></trkpt><trkpt lat="43.4969332" lon="11.9862043"><ele>733.0</ele><time>2026-04-12T09:36:49.152Z</time></trkpt><trkpt lat="43.4969618" lon="11.9860485"><ele>733.0</ele><time>2026-04-12T09:36:51.128Z</time></trkpt><trkpt lat="43.4969511" lon="11.9859391"><ele>733.0</ele><time>2026-04-12T09:36:52.149Z</time></trkpt><trkpt lat="43.4969413" lon="11.985828"><ele>733.0</ele><time>2026-04-12T09:36:53.149Z</time></trkpt><trkpt lat="43.4969222" lon="11.9857188"><ele>733.0</ele><time>2026-04-12T09:36:54.143Z</time></trkpt><trkpt lat="43.4968914" lon="11.9855919"><ele>733.0</ele><time>2026-04-12T09:36:55.14Z</time></trkpt><trkpt lat="43.496831" lon="11.9854544"><ele>736.8</ele><time>2026-04-12T09:36:56.148Z</time></trkpt><trkpt lat="43.4967681" lon="11.9853265"><ele>740.5999999999999</ele><time>2026-04-12T09:36:57.149Z</time></trkpt><trkpt lat="43.4967179" lon="11.985211"><ele>744.4000000000001</ele><time>2026-04-12T09:36:58.146Z</time></trkpt><trkpt lat="43.496671" lon="11.9851033"><ele>748.2</ele><time>2026-04-12T09:36:59.149Z</time></trkpt><trkpt lat="43.4966507" lon="11.984986"><ele>752.0</ele><time>2026-04-12T09:37:00.139Z</time></trkpt><trkpt lat="43.4966303" lon="11.9848661"><ele>752.0</ele><time>2026-04-12T09:37:01.145Z</time></trkpt><trkpt lat="43.4966141" lon="11.9847254"><ele>752.0</ele><time>2026-04-12T09:37:02.146Z</time></trkpt><trkpt lat="43.4965628" lon="11.9845801"><ele>752.0</ele><time>2026-04-12T09:37:03.136Z</time></trkpt><trkpt lat="43.4965042" lon="11.9844613"><ele>752.0</ele><time>2026-04-12T09:37:04.142Z</time></trkpt><trkpt lat="43.4964533" lon="11.9843594"><ele>752.0</ele><time>2026-04-12T09:37:05.134Z</time></trkpt><trkpt lat="43.4964222" lon="11.9842764"><ele>750.6</ele><time>2026-04-12T09:37:06.149Z</time></trkpt><trkpt lat="43.4964326" lon="11.9840958"><ele>749.2</ele><time>2026-04-12T09:37:08.134Z</time></trkpt><trkpt lat="43.4964752" lon="11.9839938"><ele>747.8</ele><time>2026-04-12T09:37:09.155Z</time></trkpt><trkpt lat="43.4965059" lon="11.9838889"><ele>746.4</ele><time>2026-04-12T09:37:10.162Z</time></trkpt><trkpt lat="43.4965143" lon="11.9837677"><ele>745.0</ele><time>2026-04-12T09:37:11.138Z</time></trkpt><trkpt lat="43.4965224" lon="11.9836155"><ele>745.0</ele><time>2026-04-12T09:37:12.126Z</time></trkpt><trkpt lat="43.4965475" lon="11.9834569"><ele>745.0</ele><time>2026-04-12T09:37:13.148Z</time></trkpt><trkpt lat="43.496573" lon="11.9832934"><ele>745.0</ele><time>2026-04-12T09:37:14.144Z</time></trkpt><trkpt lat="43.4966128" lon="11.9831343"><ele>745.0</ele><time>2026-04-12T09:37:15.13Z</time></trkpt><trkpt lat="43.4966443" lon="11.9830139"><ele>745.0</ele><time>2026-04-12T09:37:16.139Z</time></trkpt><trkpt lat="43.4966457" lon="11.982896"><ele>745.0</ele><time>2026-04-12T09:37:17.134Z</time></trkpt><trkpt lat="43.4966228" lon="11.9827775"><ele>745.0</ele><time>2026-04-12T09:37:18.125Z</time></trkpt><trkpt lat="43.4965914" lon="11.9826439"><ele>745.0</ele><time>2026-04-12T09:37:19.134Z</time></trkpt><trkpt lat="43.4965664" lon="11.9825167"><ele>745.0</ele><time>2026-04-12T09:37:20.14Z</time></trkpt><trkpt lat="43.4965765" lon="11.9823918"><ele>745.0</ele><time>2026-04-12T09:37:21.151Z</time></trkpt><trkpt lat="43.4966251" lon="11.9822591"><ele>745.0</ele><time>2026-04-12T09:37:22.141Z</time></trkpt><trkpt lat="43.4966908" lon="11.9821298"><ele>745.0</ele><time>2026-04-12T09:37:23.128Z</time></trkpt><trkpt lat="43.4967537" lon="11.9820016"><ele>745.0</ele><time>2026-04-12T09:37:24.144Z</time></trkpt><trkpt lat="43.4968157" lon="11.9818803"><ele>745.0</ele><time>2026-04-12T09:37:25.151Z</time></trkpt><trkpt lat="43.4968741" lon="11.9817685"><ele>745.0</ele><time>2026-04-12T09:37:26.157Z</time></trkpt><trkpt lat="43.4969191" lon="11.9816879"><ele>745.0</ele><time>2026-04-12T09:37:27.168Z</time></trkpt><trkpt lat="43.4969351" lon="11.9815449"><ele>745.0</ele><time>2026-04-12T09:37:29.154Z</time></trkpt><trkpt lat="43.4969048" lon="11.9814009"><ele>745.0</ele><time>2026-04-12T09:37:31.141Z</time></trkpt><trkpt lat="43.4968352" lon="11.9812412"><ele>745.0</ele><time>2026-04-12T09:37:33.153Z</time></trkpt><trkpt lat="43.4967842" lon="11.981147"><ele>744.3333333333334</ele><time>2026-04-12T09:37:34.145Z</time></trkpt><trkpt lat="43.496732" lon="11.9810566"><ele>743.6666666666667</ele><time>2026-04-12T09:37:35.164Z</time></trkpt><trkpt lat="43.4966836" lon="11.9809675"><ele>743.0</ele><time>2026-04-12T09:37:36.135Z</time></trkpt><trkpt lat="43.4966524" lon="11.9808698"><ele>742.3333333333334</ele><time>2026-04-12T09:37:37.141Z</time></trkpt><trkpt lat="43.4966132" lon="11.9807128"><ele>741.6666666666666</ele><time>2026-04-12T09:37:39.143Z</time></trkpt><trkpt lat="43.496569" lon="11.9806469"><ele>741.0</ele><time>2026-04-12T09:37:40.156Z</time></trkpt><trkpt lat="43.4965024" lon="11.9805979"><ele>739.5999999999999</ele><time>2026-04-12T09:37:41.128Z</time></trkpt><trkpt lat="43.4964106" lon="11.9805757"><ele>738.2</ele><time>2026-04-12T09:37:42.126Z</time></trkpt><trkpt lat="43.4963165" lon="11.9805597"><ele>736.8</ele><time>2026-04-12T09:37:43.147Z</time></trkpt><trkpt lat="43.4962153" lon="11.9805839"><ele>735.4000000000001</ele><time>2026-04-12T09:37:44.151Z</time></trkpt><trkpt lat="43.496111" lon="11.9806027"><ele>734.0</ele><time>2026-04-12T09:37:45.156Z</time></trkpt><trkpt lat="43.4960181" lon="11.9806385"><ele>734.0</ele><time>2026-04-12T09:37:46.126Z</time></trkpt><trkpt lat="43.4959317" lon="11.9806681"><ele>734.0</ele><time>2026-04-12T09:37:47.148Z</time></trkpt><trkpt lat="43.4958456" lon="11.9807067"><ele>734.0</ele><time>2026-04-12T09:37:48.134Z</time></trkpt><trkpt lat="43.49576" lon="11.9807597"><ele>734.0</ele><time>2026-04-12T09:37:49.144Z</time></trkpt><trkpt lat="43.4956776" lon="11.9808136"><ele>734.0</ele><time>2026-04-12T09:37:50.14Z</time></trkpt><trkpt lat="43.4956139" lon="11.9808805"><ele>734.0</ele><time>2026-04-12T09:37:51.151Z</time></trkpt><trkpt lat="43.4955331" lon="11.9809749"><ele>734.0</ele><time>2026-04-12T09:37:53.152Z</time></trkpt><trkpt lat="43.4954847" lon="11.9810618"><ele>734.0</ele><time>2026-04-12T09:37:56.142Z</time></trkpt><trkpt lat="43.4955631" lon="11.9809859"><ele>734.0</ele><time>2026-04-12T09:38:46.148Z</time></trkpt><trkpt lat="43.4956168" lon="11.9808894"><ele>734.0</ele><time>2026-04-12T09:38:48.154Z</time></trkpt><trkpt lat="43.4956765" lon="11.9808213"><ele>734.0</ele><time>2026-04-12T09:38:50.142Z</time></trkpt><trkpt lat="43.4958012" lon="11.9807422"><ele>734.0</ele><time>2026-04-12T09:38:52.164Z</time></trkpt><trkpt lat="43.4958769" lon="11.980704"><ele>734.0</ele><time>2026-04-12T09:38:53.142Z</time></trkpt><trkpt lat="43.4959645" lon="11.9806668"><ele>734.0</ele><time>2026-04-12T09:38:54.143Z</time></trkpt><trkpt lat="43.4960507" lon="11.980635"><ele>734.0</ele><time>2026-04-12T09:38:55.147Z</time></trkpt><trkpt lat="43.4961352" lon="11.9806096"><ele>734.0</ele><time>2026-04-12T09:38:56.147Z</time></trkpt><trkpt lat="43.4962298" lon="11.98059"><ele>734.0</ele><time>2026-04-12T09:38:57.144Z</time></trkpt><trkpt lat="43.496324" lon="11.980578"><ele>733.5</ele><time>2026-04-12T09:38:58.158Z</time></trkpt><trkpt lat="43.4964165" lon="11.980578"><ele>733.0</ele><time>2026-04-12T09:38:59.159Z</time></trkpt><trkpt lat="43.4965019" lon="11.9805875"><ele>732.5</ele><time>2026-04-12T09:39:00.146Z</time></trkpt><trkpt lat="43.4965704" lon="11.9806343"><ele>732.0</ele><time>2026-04-12T09:39:01.151Z</time></trkpt><trkpt lat="43.4966247" lon="11.9806815"><ele>731.5</ele><time>2026-04-12T09:39:02.131Z</time></trkpt><trkpt lat="43.4966812" lon="11.9808387"><ele>731.0</ele><time>2026-04-12T09:39:04.137Z</time></trkpt><trkpt lat="43.4967063" lon="11.9809548"><ele>732.6666666666666</ele><time>2026-04-12T09:39:05.145Z</time></trkpt><trkpt lat="43.4967305" lon="11.9810639"><ele>734.3333333333333</ele><time>2026-04-12T09:39:06.151Z</time></trkpt><trkpt lat="43.4967815" lon="11.9811601"><ele>736.0</ele><time>2026-04-12T09:39:07.15Z</time></trkpt><trkpt lat="43.496836" lon="11.9812516"><ele>737.6666666666666</ele><time>2026-04-12T09:39:08.132Z</time></trkpt><trkpt lat="43.4968871" lon="11.9813445"><ele>739.3333333333334</ele><time>2026-04-12T09:39:09.149Z</time></trkpt><trkpt lat="43.4969251" lon="11.9814464"><ele>741.0</ele><time>2026-04-12T09:39:10.165Z</time></trkpt><trkpt lat="43.4969475" lon="11.9815329"><ele>741.0</ele><time>2026-04-12T09:39:11.155Z</time></trkpt><trkpt lat="43.4969405" lon="11.9816658"><ele>741.0</ele><time>2026-04-12T09:39:13.139Z</time></trkpt><trkpt lat="43.4968815" lon="11.9818084"><ele>741.0</ele><time>2026-04-12T09:39:15.157Z</time></trkpt><trkpt lat="43.4968231" lon="11.9819007"><ele>741.0</ele><time>2026-04-12T09:39:16.148Z</time></trkpt><trkpt lat="43.4967603" lon="11.9819972"><ele>741.0</ele><time>2026-04-12T09:39:17.142Z</time></trkpt><trkpt lat="43.4967033" lon="11.9821221"><ele>741.6666666666666</ele><time>2026-04-12T09:39:18.139Z</time></trkpt><trkpt lat="43.4966476" lon="11.9822609"><ele>742.3333333333334</ele><time>2026-04-12T09:39:19.142Z</time></trkpt><trkpt lat="43.4966006" lon="11.9823713"><ele>743.0</ele><time>2026-04-12T09:39:20.126Z</time></trkpt><trkpt lat="43.4965642" lon="11.9824627"><ele>743.6666666666667</ele><time>2026-04-12T09:39:21.15Z</time></trkpt><trkpt lat="43.4965587" lon="11.9825601"><ele>744.3333333333334</ele><time>2026-04-12T09:39:22.147Z</time></trkpt><trkpt lat="43.4965712" lon="11.9826648"><ele>745.0</ele><time>2026-04-12T09:39:23.144Z</time></trkpt><trkpt lat="43.4965943" lon="11.9827738"><ele>745.0</ele><time>2026-04-12T09:39:24.137Z</time></trkpt><trkpt lat="43.4966006" lon="11.9828857"><ele>745.0</ele><time>2026-04-12T09:39:25.143Z</time></trkpt><trkpt lat="43.4966068" lon="11.9830043"><ele>745.0</ele><time>2026-04-12T09:39:26.157Z</time></trkpt><trkpt lat="43.4965777" lon="11.983134"><ele>745.0</ele><time>2026-04-12T09:39:27.156Z</time></trkpt><trkpt lat="43.4965331" lon="11.9832971"><ele>745.0</ele><time>2026-04-12T09:39:28.14Z</time></trkpt><trkpt lat="43.4964975" lon="11.9834567"><ele>745.0</ele><time>2026-04-12T09:39:29.135Z</time></trkpt><trkpt lat="43.4964719" lon="11.983626"><ele>745.0</ele><time>2026-04-12T09:39:30.146Z</time></trkpt><trkpt lat="43.4964643" lon="11.9837947"><ele>745.0</ele><time>2026-04-12T09:39:31.128Z</time></trkpt><trkpt lat="43.4964529" lon="11.98393"><ele>745.0</ele><time>2026-04-12T09:39:32.132Z</time></trkpt><trkpt lat="43.4964394" lon="11.9840618"><ele>745.0</ele><time>2026-04-12T09:39:33.125Z</time></trkpt><trkpt lat="43.4964125" lon="11.9841783"><ele>746.4</ele><time>2026-04-12T09:39:34.148Z</time></trkpt><trkpt lat="43.4964012" lon="11.9842742"><ele>747.8</ele><time>2026-04-12T09:39:35.146Z</time></trkpt><trkpt lat="43.4964267" lon="11.9843795"><ele>749.2</ele><time>2026-04-12T09:39:36.125Z</time></trkpt><trkpt lat="43.4964922" lon="11.9844995"><ele>750.6</ele><time>2026-04-12T09:39:37.131Z</time></trkpt><trkpt lat="43.4965534" lon="11.9846425"><ele>752.0</ele><time>2026-04-12T09:39:38.126Z</time></trkpt><trkpt lat="43.496595" lon="11.984787"><ele>752.0</ele><time>2026-04-12T09:39:39.144Z</time></trkpt><trkpt lat="43.4966287" lon="11.9849325"><ele>752.0</ele><time>2026-04-12T09:39:40.142Z</time></trkpt><trkpt lat="43.4966509" lon="11.9850715"><ele>752.0</ele><time>2026-04-12T09:39:41.14Z</time></trkpt><trkpt lat="43.496672" lon="11.9852003"><ele>752.0</ele><time>2026-04-12T09:39:42.149Z</time></trkpt><trkpt lat="43.4967103" lon="11.9853251"><ele>752.0</ele><time>2026-04-12T09:39:43.141Z</time></trkpt><trkpt lat="43.4967789" lon="11.9854447"><ele>752.0</ele><time>2026-04-12T09:39:44.146Z</time></trkpt><trkpt lat="43.4968287" lon="11.9855747"><ele>752.0</ele><time>2026-04-12T09:39:45.134Z</time></trkpt><trkpt lat="43.496877" lon="11.9857088"><ele>752.0</ele><time>2026-04-12T09:39:46.132Z</time></trkpt><trkpt lat="43.4969166" lon="11.9858284"><ele>752.0</ele><time>2026-04-12T09:39:47.128Z</time></trkpt><trkpt lat="43.4969394" lon="11.9859407"><ele>752.0</ele><time>2026-04-12T09:39:48.141Z</time></trkpt><trkpt lat="43.4969383" lon="11.9860498"><ele>748.2</ele><time>2026-04-12T09:39:49.134Z</time></trkpt><trkpt lat="43.4969332" lon="11.9861439"><ele>744.4000000000001</ele><time>2026-04-12T09:39:50.15Z</time></trkpt><trkpt lat="43.4968689" lon="11.9862606"><ele>740.5999999999999</ele><time>2026-04-12T09:39:52.143Z</time></trkpt><trkpt lat="43.4967396" lon="11.9862375"><ele>736.8</ele><time>2026-04-12T09:39:54.164Z</time></trkpt><trkpt lat="43.4966521" lon="11.9862039"><ele>733.0</ele><time>2026-04-12T09:39:55.146Z</time></trkpt><trkpt lat="43.496549" lon="11.9861736"><ele>733.0</ele><time>2026-04-12T09:39:56.158Z</time></trkpt><trkpt lat="43.4964455" lon="11.9861449"><ele>733.0</ele><time>2026-04-12T09:39:57.151Z</time></trkpt><trkpt lat="43.4963424" lon="11.9861209"><ele>733.0</ele><time>2026-04-12T09:39:58.141Z</time></trkpt><trkpt lat="43.4962461" lon="11.9861075"><ele>733.0</ele><time>2026-04-12T09:39:59.153Z</time></trkpt><trkpt lat="43.4961685" lon="11.9861187"><ele>733.0</ele><time>2026-04-12T09:40:00.14Z</time></trkpt><trkpt lat="43.4961136" lon="11.9861636"><ele>733.0</ele><time>2026-04-12T09:40:01.144Z</time></trkpt><trkpt lat="43.4960415" lon="11.9862975"><ele>734.2</ele><time>2026-04-12T09:40:03.144Z</time></trkpt><trkpt lat="43.4960611" lon="11.9864278"><ele>735.4</ele><time>2026-04-12T09:40:04.136Z</time></trkpt><trkpt lat="43.496073" lon="11.9865567"><ele>736.6</ele><time>2026-04-12T09:40:05.141Z</time></trkpt><trkpt lat="43.4960723" lon="11.9866864"><ele>737.8000000000001</ele><time>2026-04-12T09:40:06.136Z</time></trkpt><trkpt lat="43.4960541" lon="11.9868185"><ele>739.0</ele><time>2026-04-12T09:40:07.146Z</time></trkpt><trkpt lat="43.4960108" lon="11.9869457"><ele>739.0</ele><time>2026-04-12T09:40:08.127Z</time></trkpt><trkpt lat="43.4959524" lon="11.9870695"><ele>739.0</ele><time>2026-04-12T09:40:09.132Z</time></trkpt><trkpt lat="43.4958911" lon="11.9872039"><ele>739.0</ele><time>2026-04-12T09:40:10.128Z</time></trkpt><trkpt lat="43.4958298" lon="11.9873359"><ele>739.0</ele><time>2026-04-12T09:40:11.125Z</time></trkpt><trkpt lat="43.4957782" lon="11.9874503"><ele>739.0</ele><time>2026-04-12T09:40:12.13Z</time></trkpt><trkpt lat="43.4957567" lon="11.9875688"><ele>739.8333333333334</ele><time>2026-04-12T09:40:13.134Z</time></trkpt><trkpt lat="43.4957426" lon="11.9876912"><ele>740.6666666666667</ele><time>2026-04-12T09:40:14.13Z</time></trkpt><trkpt lat="43.4957244" lon="11.9878111"><ele>741.5</ele><time>2026-04-12T09:40:15.123Z</time></trkpt><trkpt lat="43.4957192" lon="11.9879118"><ele>742.3333333333334</ele><time>2026-04-12T09:40:16.144Z</time></trkpt><trkpt lat="43.4957197" lon="11.9880044"><ele>743.1666666666666</ele><time>2026-04-12T09:40:17.141Z</time></trkpt><trkpt lat="43.4957657" lon="11.988077"><ele>744.0</ele><time>2026-04-12T09:40:18.148Z</time></trkpt><trkpt lat="43.4958571" lon="11.9881401"><ele>744.0</ele><time>2026-04-12T09:40:19.131Z</time></trkpt><trkpt lat="43.4959739" lon="11.9882182"><ele>744.0</ele><time>2026-04-12T09:40:20.131Z</time></trkpt><trkpt lat="43.4960943" lon="11.9882951"><ele>744.0</ele><time>2026-04-12T09:40:21.137Z</time></trkpt><trkpt lat="43.4962061" lon="11.9883667"><ele>744.0</ele><time>2026-04-12T09:40:22.138Z</time></trkpt><trkpt lat="43.4963044" lon="11.988433"><ele>741.2</ele><time>2026-04-12T09:40:23.143Z</time></trkpt><trkpt lat="43.4963881" lon="11.9885132"><ele>738.4000000000001</ele><time>2026-04-12T09:40:24.146Z</time></trkpt><trkpt lat="43.496452" lon="11.9886126"><ele>735.6</ele><time>2026-04-12T09:40:25.15Z</time></trkpt><trkpt lat="43.4965038" lon="11.9887368"><ele>732.8</ele><time>2026-04-12T09:40:26.135Z</time></trkpt><trkpt lat="43.4965612" lon="11.9888732"><ele>730.0</ele><time>2026-04-12T09:40:27.133Z</time></trkpt><trkpt lat="43.4966114" lon="11.9890286"><ele>730.2</ele><time>2026-04-12T09:40:28.136Z</time></trkpt><trkpt lat="43.4966481" lon="11.9891974"><ele>730.4</ele><time>2026-04-12T09:40:29.131Z</time></trkpt><trkpt lat="43.4966678" lon="11.9893618"><ele>730.5999999999999</ele><time>2026-04-12T09:40:30.142Z</time></trkpt><trkpt lat="43.4966748" lon="11.9895052"><ele>730.8</ele><time>2026-04-12T09:40:31.126Z</time></trkpt><trkpt lat="43.4966626" lon="11.9896214"><ele>731.0</ele><time>2026-04-12T09:40:32.129Z</time></trkpt><trkpt lat="43.4966274" lon="11.9897345"><ele>731.0</ele><time>2026-04-12T09:40:33.129Z</time></trkpt><trkpt lat="43.4965736" lon="11.9898436"><ele>731.0</ele><time>2026-04-12T09:40:34.137Z</time></trkpt><trkpt lat="43.4965342" lon="11.9899336"><ele>731.0</ele><time>2026-04-12T09:40:35.123Z</time></trkpt><trkpt lat="43.4965331" lon="11.9900818"><ele>731.0</ele><time>2026-04-12T09:40:37.125Z</time></trkpt><trkpt lat="43.4965949" lon="11.9901685"><ele>731.0</ele><time>2026-04-12T09:40:38.126Z</time></trkpt><trkpt lat="43.4966713" lon="11.9902753"><ele>732.25</ele><time>2026-04-12T09:40:39.145Z</time></trkpt><trkpt lat="43.496759" lon="11.9903967"><ele>733.5</ele><time>2026-04-12T09:40:40.133Z</time></trkpt><trkpt lat="43.4968411" lon="11.9905206"><ele>734.75</ele><time>2026-04-12T09:40:41.132Z</time></trkpt><trkpt lat="43.4969149" lon="11.9906398"><ele>736.0</ele><time>2026-04-12T09:40:42.141Z</time></trkpt><trkpt lat="43.4969673" lon="11.9907573"><ele>734.8</ele><time>2026-04-12T09:40:43.133Z</time></trkpt><trkpt lat="43.4970073" lon="11.9908736"><ele>733.5999999999999</ele><time>2026-04-12T09:40:44.126Z</time></trkpt><trkpt lat="43.4970446" lon="11.9909765"><ele>732.4</ele><time>2026-04-12T09:40:45.127Z</time></trkpt><trkpt lat="43.4971645" lon="11.9910481"><ele>731.2</ele><time>2026-04-12T09:40:47.16Z</time></trkpt><trkpt lat="43.4972363" lon="11.9910769"><ele>730.0</ele><time>2026-04-12T09:40:48.132Z</time></trkpt><trkpt lat="43.49732" lon="11.9911363"><ele>730.0</ele><time>2026-04-12T09:40:49.143Z</time></trkpt><trkpt lat="43.4974089" lon="11.9912338"><ele>730.0</ele><time>2026-04-12T09:40:50.14Z</time></trkpt><trkpt lat="43.4975004" lon="11.9913526"><ele>730.0</ele><time>2026-04-12T09:40:51.144Z</time></trkpt><trkpt lat="43.4975908" lon="11.991475"><ele>730.0</ele><time>2026-04-12T09:40:52.12Z</time></trkpt><trkpt lat="43.4976815" lon="11.9915881"><ele>732.6</ele><time>2026-04-12T09:40:53.131Z</time></trkpt><trkpt lat="43.4977714" lon="11.9916931"><ele>735.2</ele><time>2026-04-12T09:40:54.145Z</time></trkpt><trkpt lat="43.4978577" lon="11.9917958"><ele>737.8</ele><time>2026-04-12T09:40:55.121Z</time></trkpt><trkpt lat="43.4979312" lon="11.9918997"><ele>740.4</ele><time>2026-04-12T09:40:56.136Z</time></trkpt><trkpt lat="43.4979859" lon="11.9920069"><ele>743.0</ele><time>2026-04-12T09:40:57.128Z</time></trkpt><trkpt lat="43.4980293" lon="11.9921243"><ele>735.8</ele><time>2026-04-12T09:40:58.129Z</time></trkpt><trkpt lat="43.498067" lon="11.9922646"><ele>728.5999999999999</ele><time>2026-04-12T09:40:59.139Z</time></trkpt><trkpt lat="43.4981016" lon="11.992417"><ele>721.4000000000001</ele><time>2026-04-12T09:41:00.12Z</time></trkpt><trkpt lat="43.4981321" lon="11.9925688"><ele>714.2</ele><time>2026-04-12T09:41:01.144Z</time></trkpt><trkpt lat="43.4981526" lon="11.992716"><ele>707.0</ele><time>2026-04-12T09:41:02.128Z</time></trkpt><trkpt lat="43.4981645" lon="11.992854"><ele>707.0</ele><time>2026-04-12T09:41:03.133Z</time></trkpt><trkpt lat="43.4981798" lon="11.9929727"><ele>707.0</ele><time>2026-04-12T09:41:04.129Z</time></trkpt><trkpt lat="43.4982117" lon="11.9930742"><ele>707.0</ele><time>2026-04-12T09:41:05.125Z</time></trkpt><trkpt lat="43.4982606" lon="11.9931763"><ele>707.0</ele><time>2026-04-12T09:41:06.13Z</time></trkpt><trkpt lat="43.4983" lon="11.9932743"><ele>707.0</ele><time>2026-04-12T09:41:07.144Z</time></trkpt><trkpt lat="43.49832" lon="11.993366"><ele>707.0</ele><time>2026-04-12T09:41:08.139Z</time></trkpt><trkpt lat="43.4983372" lon="11.9934539"><ele>708.0</ele><time>2026-04-12T09:41:09.138Z</time></trkpt><trkpt lat="43.498313" lon="11.9935536"><ele>709.0</ele><time>2026-04-12T09:41:10.132Z</time></trkpt><trkpt lat="43.4982772" lon="11.993643"><ele>710.0</ele><time>2026-04-12T09:41:11.133Z</time></trkpt><trkpt lat="43.4982454" lon="11.9937255"><ele>711.0</ele><time>2026-04-12T09:41:12.133Z</time></trkpt><trkpt lat="43.4982563" lon="11.993873"><ele>712.0</ele><time>2026-04-12T09:41:14.138Z</time></trkpt><trkpt lat="43.4982988" lon="11.9939386"><ele>713.0</ele><time>2026-04-12T09:41:15.156Z</time></trkpt><trkpt lat="43.4983554" lon="11.993989"><ele>713.0</ele><time>2026-04-12T09:41:16.149Z</time></trkpt><trkpt lat="43.4984299" lon="11.9940483"><ele>713.0</ele><time>2026-04-12T09:41:17.128Z</time></trkpt><trkpt lat="43.4985043" lon="11.9941129"><ele>713.0</ele><time>2026-04-12T09:41:18.134Z</time></trkpt><trkpt lat="43.4985734" lon="11.9941839"><ele>713.0</ele><time>2026-04-12T09:41:19.142Z</time></trkpt><trkpt lat="43.4986403" lon="11.9942563"><ele>713.0</ele><time>2026-04-12T09:41:20.134Z</time></trkpt><trkpt lat="43.4987039" lon="11.9943216"><ele>713.0</ele><time>2026-04-12T09:41:21.132Z</time></trkpt><trkpt lat="43.4987669" lon="11.9943915"><ele>708.5999999999999</ele><time>2026-04-12T09:41:22.132Z</time></trkpt><trkpt lat="43.4988496" lon="11.9944554"><ele>704.1999999999999</ele><time>2026-04-12T09:41:23.129Z</time></trkpt><trkpt lat="43.4989218" lon="11.9945169"><ele>699.8</ele><time>2026-04-12T09:41:24.121Z</time></trkpt><trkpt lat="43.4989853" lon="11.9945905"><ele>695.4</ele><time>2026-04-12T09:41:25.134Z</time></trkpt><trkpt lat="43.4990393" lon="11.9946894"><ele>691.0</ele><time>2026-04-12T09:41:26.137Z</time></trkpt><trkpt lat="43.4990791" lon="11.9948147"><ele>691.0</ele><time>2026-04-12T09:41:27.128Z</time></trkpt><trkpt lat="43.4991189" lon="11.9949424"><ele>691.0</ele><time>2026-04-12T09:41:28.143Z</time></trkpt><trkpt lat="43.4991792" lon="11.9950651"><ele>691.0</ele><time>2026-04-12T09:41:29.137Z</time></trkpt><trkpt lat="43.4992468" lon="11.995175"><ele>691.0</ele><time>2026-04-12T09:41:30.133Z</time></trkpt><trkpt lat="43.4993135" lon="11.995276"><ele>691.0</ele><time>2026-04-12T09:41:31.144Z</time></trkpt><trkpt lat="43.4993771" lon="11.9953649"><ele>692.5714285714286</ele><time>2026-04-12T09:41:32.123Z</time></trkpt><trkpt lat="43.4994368" lon="11.9954482"><ele>694.1428571428571</ele><time>2026-04-12T09:41:33.137Z</time></trkpt><trkpt lat="43.4994836" lon="11.9955307"><ele>695.7142857142858</ele><time>2026-04-12T09:41:34.135Z</time></trkpt><trkpt lat="43.4995273" lon="11.9956097"><ele>697.2857142857142</ele><time>2026-04-12T09:41:35.129Z</time></trkpt><trkpt lat="43.4995363" lon="11.9957071"><ele>698.8571428571429</ele><time>2026-04-12T09:41:36.135Z</time></trkpt><trkpt lat="43.4995349" lon="11.9958046"><ele>700.4285714285714</ele><time>2026-04-12T09:41:37.135Z</time></trkpt><trkpt lat="43.4995175" lon="11.9958988"><ele>702.0</ele><time>2026-04-12T09:41:38.131Z</time></trkpt><trkpt lat="43.4995019" lon="11.9959877"><ele>702.0</ele><time>2026-04-12T09:41:39.145Z</time></trkpt><trkpt lat="43.499438" lon="11.9961268"><ele>702.0</ele><time>2026-04-12T09:41:41.141Z</time></trkpt><trkpt lat="43.4994005" lon="11.9962263"><ele>702.0</ele><time>2026-04-12T09:41:43.149Z</time></trkpt><trkpt lat="43.4993882" lon="11.9963465"><ele>702.0</ele><time>2026-04-12T09:42:01.133Z</time></trkpt><trkpt lat="43.4994148" lon="11.9962381"><ele>702.0</ele><time>2026-04-12T09:42:09.131Z</time></trkpt><trkpt lat="43.499436" lon="11.9961496"><ele>702.0</ele><time>2026-04-12T09:42:10.129Z</time></trkpt><trkpt lat="43.499462" lon="11.9960482"><ele>702.0</ele><time>2026-04-12T09:42:11.126Z</time></trkpt><trkpt lat="43.4994995" lon="11.9959333"><ele>702.0</ele><time>2026-04-12T09:42:12.153Z</time></trkpt><trkpt lat="43.4995213" lon="11.9958174"><ele>702.0</ele><time>2026-04-12T09:42:13.145Z</time></trkpt><trkpt lat="43.4995291" lon="11.9957073"><ele>702.0</ele><time>2026-04-12T09:42:14.142Z</time></trkpt><trkpt lat="43.4995183" lon="11.9956149"><ele>702.0</ele><time>2026-04-12T09:42:15.14Z</time></trkpt><trkpt lat="43.4994903" lon="11.9955312"><ele>702.0</ele><time>2026-04-12T09:42:16.137Z</time></trkpt><trkpt lat="43.4994369" lon="11.9954445"><ele>702.5</ele><time>2026-04-12T09:42:17.145Z</time></trkpt><trkpt lat="43.499362" lon="11.9953447"><ele>703.0</ele><time>2026-04-12T09:42:18.133Z</time></trkpt><trkpt lat="43.4992778" lon="11.9952185"><ele>703.5</ele><time>2026-04-12T09:42:19.143Z</time></trkpt><trkpt lat="43.4991948" lon="11.9950853"><ele>704.0</ele><time>2026-04-12T09:42:20.124Z</time></trkpt><trkpt lat="43.4991295" lon="11.9949527"><ele>701.4000000000001</ele><time>2026-04-12T09:42:21.129Z</time></trkpt><trkpt lat="43.4990867" lon="11.9948212"><ele>698.8</ele><time>2026-04-12T09:42:22.135Z</time></trkpt><trkpt lat="43.4990498" lon="11.9947015"><ele>696.2</ele><time>2026-04-12T09:42:23.125Z</time></trkpt><trkpt lat="43.4990115" lon="11.9945862"><ele>693.5999999999999</ele><time>2026-04-12T09:42:24.129Z</time></trkpt><trkpt lat="43.4989393" lon="11.9945042"><ele>691.0</ele><time>2026-04-12T09:42:25.141Z</time></trkpt><trkpt lat="43.498843" lon="11.9944198"><ele>696.5</ele><time>2026-04-12T09:42:26.124Z</time></trkpt><trkpt lat="43.4987284" lon="11.994324"><ele>702.0</ele><time>2026-04-12T09:42:27.127Z</time></trkpt><trkpt lat="43.4986127" lon="11.9942222"><ele>707.5</ele><time>2026-04-12T09:42:28.125Z</time></trkpt><trkpt lat="43.4985002" lon="11.9941102"><ele>713.0</ele><time>2026-04-12T09:42:29.12Z</time></trkpt><trkpt lat="43.4983965" lon="11.9940189"><ele>713.0</ele><time>2026-04-12T09:42:30.121Z</time></trkpt><trkpt lat="43.498318" lon="11.9939457"><ele>713.0</ele><time>2026-04-12T09:42:31.124Z</time></trkpt><trkpt lat="43.4982707" lon="11.993864"><ele>713.0</ele><time>2026-04-12T09:42:32.134Z</time></trkpt><trkpt lat="43.4982522" lon="11.9937734"><ele>713.0</ele><time>2026-04-12T09:42:33.143Z</time></trkpt><trkpt lat="43.4982769" lon="11.9935949"><ele>713.0</ele><time>2026-04-12T09:42:35.136Z</time></trkpt><trkpt lat="43.4983117" lon="11.9934823"><ele>713.0</ele><time>2026-04-12T09:42:36.152Z</time></trkpt><trkpt lat="43.4983197" lon="11.9933785"><ele>713.0</ele><time>2026-04-12T09:42:37.139Z</time></trkpt><trkpt lat="43.4982998" lon="11.9932826"><ele>713.0</ele><time>2026-04-12T09:42:38.134Z</time></trkpt><trkpt lat="43.4982634" lon="11.9931859"><ele>713.0</ele><time>2026-04-12T09:42:39.125Z</time></trkpt><trkpt lat="43.4982153" lon="11.9930858"><ele>713.0</ele><time>2026-04-12T09:42:40.137Z</time></trkpt><trkpt lat="43.4981808" lon="11.9929735"><ele>713.0</ele><time>2026-04-12T09:42:41.134Z</time></trkpt><trkpt lat="43.4981629" lon="11.9928348"><ele>711.5</ele><time>2026-04-12T09:42:42.14Z</time></trkpt><trkpt lat="43.4981453" lon="11.992691"><ele>710.0</ele><time>2026-04-12T09:42:43.14Z</time></trkpt><trkpt lat="43.4981161" lon="11.9925263"><ele>708.5</ele><time>2026-04-12T09:42:44.135Z</time></trkpt><trkpt lat="43.4980829" lon="11.9923603"><ele>707.0</ele><time>2026-04-12T09:42:45.128Z</time></trkpt><trkpt lat="43.4980504" lon="11.9922068"><ele>706.4000000000001</ele><time>2026-04-12T09:42:46.136Z</time></trkpt><trkpt lat="43.4980125" lon="11.9920754"><ele>705.8000000000001</ele><time>2026-04-12T09:42:47.144Z</time></trkpt><trkpt lat="43.4979653" lon="11.9919592"><ele>705.2</ele><time>2026-04-12T09:42:48.133Z</time></trkpt><trkpt lat="43.4979027" lon="11.9918561"><ele>704.6</ele><time>2026-04-12T09:42:49.128Z</time></trkpt><trkpt lat="43.4978223" lon="11.9917476"><ele>704.0</ele><time>2026-04-12T09:42:50.126Z</time></trkpt><trkpt lat="43.4977326" lon="11.9916392"><ele>710.5</ele><time>2026-04-12T09:42:51.131Z</time></trkpt><trkpt lat="43.4976373" lon="11.9915139"><ele>717.0</ele><time>2026-04-12T09:42:52.116Z</time></trkpt><trkpt lat="43.4975458" lon="11.9913873"><ele>723.5</ele><time>2026-04-12T09:42:53.13Z</time></trkpt><trkpt lat="43.4974638" lon="11.9912706"><ele>730.0</ele><time>2026-04-12T09:42:54.127Z</time></trkpt><trkpt lat="43.4973883" lon="11.9911705"><ele>730.0</ele><time>2026-04-12T09:42:55.13Z</time></trkpt><trkpt lat="43.4973134" lon="11.9910948"><ele>730.0</ele><time>2026-04-12T09:42:56.127Z</time></trkpt><trkpt lat="43.4972272" lon="11.9910478"><ele>730.0</ele><time>2026-04-12T09:42:57.128Z</time></trkpt><trkpt lat="43.4971344" lon="11.991023"><ele>730.0</ele><time>2026-04-12T09:42:58.127Z</time></trkpt><trkpt lat="43.4970567" lon="11.9910015"><ele>730.0</ele><time>2026-04-12T09:42:59.132Z</time></trkpt><trkpt lat="43.4969899" lon="11.9908688"><ele>731.2</ele><time>2026-04-12T09:43:01.126Z</time></trkpt><trkpt lat="43.4969694" lon="11.9907773"><ele>732.4</ele><time>2026-04-12T09:43:02.13Z</time></trkpt><trkpt lat="43.4969353" lon="11.9906825"><ele>733.5999999999999</ele><time>2026-04-12T09:43:03.141Z</time></trkpt><trkpt lat="43.4968783" lon="11.9905893"><ele>734.8</ele><time>2026-04-12T09:43:04.135Z</time></trkpt><trkpt lat="43.4968004" lon="11.9904854"><ele>736.0</ele><time>2026-04-12T09:43:05.136Z</time></trkpt><trkpt lat="43.4967137" lon="11.9903617"><ele>736.0</ele><time>2026-04-12T09:43:06.131Z</time></trkpt><trkpt lat="43.4966289" lon="11.9902413"><ele>736.0</ele><time>2026-04-12T09:43:07.134Z</time></trkpt><trkpt lat="43.4965607" lon="11.9901479"><ele>736.0</ele><time>2026-04-12T09:43:08.136Z</time></trkpt><trkpt lat="43.4965055" lon="11.9900688"><ele>736.0</ele><time>2026-04-12T09:43:09.129Z</time></trkpt><trkpt lat="43.4965353" lon="11.9898991"><ele>736.0</ele><time>2026-04-12T09:43:11.139Z</time></trkpt><trkpt lat="43.4965907" lon="11.9898092"><ele>735.1666666666667</ele><time>2026-04-12T09:43:12.15Z</time></trkpt><trkpt lat="43.4966346" lon="11.9897176"><ele>734.3333333333334</ele><time>2026-04-12T09:43:13.132Z</time></trkpt><trkpt lat="43.4966606" lon="11.9896086"><ele>733.5</ele><time>2026-04-12T09:43:14.124Z</time></trkpt><trkpt lat="43.4966701" lon="11.989498"><ele>732.6666666666666</ele><time>2026-04-12T09:43:15.125Z</time></trkpt><trkpt lat="43.4966678" lon="11.9893958"><ele>731.8333333333333</ele><time>2026-04-12T09:43:16.142Z</time></trkpt><trkpt lat="43.4966572" lon="11.9892869"><ele>731.0</ele><time>2026-04-12T09:43:17.131Z</time></trkpt><trkpt lat="43.4966366" lon="11.9891564"><ele>730.8</ele><time>2026-04-12T09:43:18.128Z</time></trkpt><trkpt lat="43.4966008" lon="11.9890161"><ele>730.5999999999999</ele><time>2026-04-12T09:43:19.128Z</time></trkpt><trkpt lat="43.4965546" lon="11.9888668"><ele>730.4</ele><time>2026-04-12T09:43:20.138Z</time></trkpt><trkpt lat="43.4965113" lon="11.9887304"><ele>730.2</ele><time>2026-04-12T09:43:21.143Z</time></trkpt><trkpt lat="43.4964656" lon="11.9886192"><ele>730.0</ele><time>2026-04-12T09:43:22.134Z</time></trkpt><trkpt lat="43.4964236" lon="11.9885173"><ele>730.0</ele><time>2026-04-12T09:43:23.129Z</time></trkpt><trkpt lat="43.4963481" lon="11.9884438"><ele>730.0</ele><time>2026-04-12T09:43:24.132Z</time></trkpt><trkpt lat="43.4962465" lon="11.9883765"><ele>730.0</ele><time>2026-04-12T09:43:25.135Z</time></trkpt><trkpt lat="43.4961288" lon="11.9882977"><ele>730.0</ele><time>2026-04-12T09:43:26.129Z</time></trkpt><trkpt lat="43.4960027" lon="11.9882162"><ele>732.3333333333334</ele><time>2026-04-12T09:43:27.129Z</time></trkpt><trkpt lat="43.4958897" lon="11.9881438"><ele>734.6666666666667</ele><time>2026-04-12T09:43:28.129Z</time></trkpt><trkpt lat="43.4957963" lon="11.9880837"><ele>737.0</ele><time>2026-04-12T09:43:29.125Z</time></trkpt><trkpt lat="43.4957436" lon="11.9880134"><ele>739.3333333333334</ele><time>2026-04-12T09:43:30.125Z</time></trkpt><trkpt lat="43.4957268" lon="11.9879291"><ele>741.6666666666666</ele><time>2026-04-12T09:43:31.134Z</time></trkpt><trkpt lat="43.495739" lon="11.98783"><ele>744.0</ele><time>2026-04-12T09:43:32.125Z</time></trkpt><trkpt lat="43.4957537" lon="11.9877113"><ele>744.0</ele><time>2026-04-12T09:43:33.121Z</time></trkpt><trkpt lat="43.4957807" lon="11.9875639"><ele>744.0</ele><time>2026-04-12T09:43:34.126Z</time></trkpt><trkpt lat="43.4958204" lon="11.9874147"><ele>744.0</ele><time>2026-04-12T09:43:35.126Z</time></trkpt><trkpt lat="43.4958821" lon="11.9872793"><ele>744.0</ele><time>2026-04-12T09:43:36.138Z</time></trkpt><trkpt lat="43.4959466" lon="11.9871377"><ele>743.0</ele><time>2026-04-12T09:43:37.123Z</time></trkpt><trkpt lat="43.4960096" lon="11.987004"><ele>742.0</ele><time>2026-04-12T09:43:38.134Z</time></trkpt><trkpt lat="43.4960568" lon="11.9868726"><ele>741.0</ele><time>2026-04-12T09:43:39.125Z</time></trkpt><trkpt lat="43.496084" lon="11.9867473"><ele>740.0</ele><time>2026-04-12T09:43:40.124Z</time></trkpt><trkpt lat="43.4960915" lon="11.9866144"><ele>739.0</ele><time>2026-04-12T09:43:41.136Z</time></trkpt><trkpt lat="43.4960754" lon="11.9864668"><ele>737.8000000000001</ele><time>2026-04-12T09:43:42.141Z</time></trkpt><trkpt lat="43.49606" lon="11.9863462"><ele>736.6</ele><time>2026-04-12T09:43:43.136Z</time></trkpt><trkpt lat="43.496048" lon="11.9862413"><ele>735.4</ele><time>2026-04-12T09:43:44.131Z</time></trkpt><trkpt lat="43.4960878" lon="11.9861144"><ele>734.2</ele><time>2026-04-12T09:43:46.131Z</time></trkpt><trkpt lat="43.496176" lon="11.9861059"><ele>733.0</ele><time>2026-04-12T09:43:47.127Z</time></trkpt><trkpt lat="43.4962749" lon="11.9861163"><ele>733.0</ele><time>2026-04-12T09:43:48.129Z</time></trkpt><trkpt lat="43.496389" lon="11.9861484"><ele>733.0</ele><time>2026-04-12T09:43:49.14Z</time></trkpt><trkpt lat="43.4965068" lon="11.9861924"><ele>733.0</ele><time>2026-04-12T09:43:50.135Z</time></trkpt><trkpt lat="43.496618" lon="11.9862317"><ele>733.0</ele><time>2026-04-12T09:43:51.146Z</time></trkpt><trkpt lat="43.4967173" lon="11.9862689"><ele>733.0</ele><time>2026-04-12T09:43:52.126Z</time></trkpt><trkpt lat="43.496795" lon="11.9862871"><ele>733.0</ele><time>2026-04-12T09:43:53.152Z</time></trkpt><trkpt lat="43.4968957" lon="11.9862192"><ele>733.0</ele><time>2026-04-12T09:43:55.149Z</time></trkpt><trkpt lat="43.4969195" lon="11.986133"><ele>733.0</ele><time>2026-04-12T09:43:56.126Z</time></trkpt><trkpt lat="43.4969234" lon="11.9860376"><ele>733.0</ele><time>2026-04-12T09:43:57.135Z</time></trkpt><trkpt lat="43.496916" lon="11.9859303"><ele>733.0</ele><time>2026-04-12T09:43:58.131Z</time></trkpt><trkpt lat="43.4969022" lon="11.9858127"><ele>736.8</ele><time>2026-04-12T09:43:59.134Z</time></trkpt><trkpt lat="43.4968859" lon="11.9856984"><ele>740.5999999999999</ele><time>2026-04-12T09:44:00.131Z</time></trkpt><trkpt lat="43.4968616" lon="11.9855823"><ele>744.4000000000001</ele><time>2026-04-12T09:44:01.145Z</time></trkpt><trkpt lat="43.496802" lon="11.9854431"><ele>748.2</ele><time>2026-04-12T09:44:02.131Z</time></trkpt><trkpt lat="43.4967442" lon="11.9853153"><ele>752.0</ele><time>2026-04-12T09:44:03.138Z</time></trkpt><trkpt lat="43.4966913" lon="11.9851981"><ele>752.0</ele><time>2026-04-12T09:44:04.133Z</time></trkpt><trkpt lat="43.4966571" lon="11.9850652"><ele>752.0</ele><time>2026-04-12T09:44:05.121Z</time></trkpt><trkpt lat="43.4966258" lon="11.9849272"><ele>752.0</ele><time>2026-04-12T09:44:06.14Z</time></trkpt><trkpt lat="43.4966056" lon="11.9847858"><ele>752.0</ele><time>2026-04-12T09:44:07.131Z</time></trkpt><trkpt lat="43.4965798" lon="11.984637"><ele>752.0</ele><time>2026-04-12T09:44:08.124Z</time></trkpt><trkpt lat="43.4965251" lon="11.9845058"><ele>752.0</ele><time>2026-04-12T09:44:09.126Z</time></trkpt><trkpt lat="43.4964645" lon="11.9843942"><ele>752.0</ele><time>2026-04-12T09:44:10.135Z</time></trkpt><trkpt lat="43.4964277" lon="11.9843009"><ele>752.0</ele><time>2026-04-12T09:44:11.126Z</time></trkpt><trkpt lat="43.4963964" lon="11.9842129"><ele>752.0</ele><time>2026-04-12T09:44:12.131Z</time></trkpt><trkpt lat="43.4964197" lon="11.9841146"><ele>752.0</ele><time>2026-04-12T09:44:13.119Z</time></trkpt><trkpt lat="43.496444" lon="11.9840103"><ele>752.0</ele><time>2026-04-12T09:44:14.146Z</time></trkpt><trkpt lat="43.4964821" lon="11.9839212"><ele>750.6</ele><time>2026-04-12T09:44:15.14Z</time></trkpt><trkpt lat="43.4965015" lon="11.9838079"><ele>749.2</ele><time>2026-04-12T09:44:16.122Z</time></trkpt><trkpt lat="43.4965063" lon="11.9836602"><ele>747.8</ele><time>2026-04-12T09:44:17.128Z</time></trkpt><trkpt lat="43.4965106" lon="11.9835093"><ele>746.4</ele><time>2026-04-12T09:44:18.12Z</time></trkpt><trkpt lat="43.4965372" lon="11.9833532"><ele>745.0</ele><time>2026-04-12T09:44:19.131Z</time></trkpt><trkpt lat="43.4965748" lon="11.9831944"><ele>745.0</ele><time>2026-04-12T09:44:20.133Z</time></trkpt><trkpt lat="43.4966116" lon="11.9830361"><ele>745.0</ele><time>2026-04-12T09:44:21.14Z</time></trkpt><trkpt lat="43.496625" lon="11.9829109"><ele>745.0</ele><time>2026-04-12T09:44:22.147Z</time></trkpt><trkpt lat="43.4966189" lon="11.9828009"><ele>745.0</ele><time>2026-04-12T09:44:23.131Z</time></trkpt><trkpt lat="43.4966097" lon="11.9826982"><ele>745.0</ele><time>2026-04-12T09:44:24.144Z</time></trkpt><trkpt lat="43.4965777" lon="11.9825902"><ele>745.0</ele><time>2026-04-12T09:44:25.141Z</time></trkpt><trkpt lat="43.4965886" lon="11.9824699"><ele>745.0</ele><time>2026-04-12T09:44:26.131Z</time></trkpt><trkpt lat="43.4966054" lon="11.9823656"><ele>745.0</ele><time>2026-04-12T09:44:27.137Z</time></trkpt><trkpt lat="43.4966594" lon="11.9822312"><ele>745.0</ele><time>2026-04-12T09:44:28.128Z</time></trkpt><trkpt lat="43.4967202" lon="11.9821002"><ele>745.0</ele><time>2026-04-12T09:44:29.128Z</time></trkpt><trkpt lat="43.4967846" lon="11.9819724"><ele>745.0</ele><time>2026-04-12T09:44:30.137Z</time></trkpt><trkpt lat="43.4968425" lon="11.9818557"><ele>745.0</ele><time>2026-04-12T09:44:31.129Z</time></trkpt><trkpt lat="43.4968902" lon="11.9817754"><ele>745.0</ele><time>2026-04-12T09:44:32.154Z</time></trkpt><trkpt lat="43.4969321" lon="11.9816876"><ele>745.0</ele><time>2026-04-12T09:44:34.152Z</time></trkpt><trkpt lat="43.4968646" lon="11.9815812"><ele>745.0</ele><time>2026-04-12T09:44:37.129Z</time></trkpt><trkpt lat="43.4968006" lon="11.981519"><ele>745.0</ele><time>2026-04-12T09:44:39.14Z</time></trkpt><trkpt lat="43.4967024" lon="11.9814783"><ele>744.2</ele><time>2026-04-12T09:44:41.133Z</time></trkpt><trkpt lat="43.4965924" lon="11.9814248"><ele>743.4</ele><time>2026-04-12T09:44:43.138Z</time></trkpt><trkpt lat="43.4965333" lon="11.9813821"><ele>742.5999999999999</ele><time>2026-04-12T09:44:44.129Z</time></trkpt><trkpt lat="43.4963937" lon="11.9813547"><ele>741.8</ele><time>2026-04-12T09:44:46.136Z</time></trkpt><trkpt lat="43.4963015" lon="11.9813328"><ele>741.0</ele><time>2026-04-12T09:44:47.133Z</time></trkpt><trkpt lat="43.4962165" lon="11.9812973"><ele>742.8333333333334</ele><time>2026-04-12T09:44:48.137Z</time></trkpt><trkpt lat="43.4961357" lon="11.9812802"><ele>744.6666666666666</ele><time>2026-04-12T09:44:49.137Z</time></trkpt><trkpt lat="43.4960572" lon="11.9812812"><ele>746.5</ele><time>2026-04-12T09:44:50.147Z</time></trkpt><trkpt lat="43.4959906" lon="11.9812804"><ele>748.3333333333333</ele><time>2026-04-12T09:44:51.142Z</time></trkpt><trkpt lat="43.4958786" lon="11.9813145"><ele>750.1666666666666</ele><time>2026-04-12T09:44:53.126Z</time></trkpt><trkpt lat="43.4958212" lon="11.9813523"><ele>752.0</ele><time>2026-04-12T09:44:54.158Z</time></trkpt><trkpt lat="43.4957581" lon="11.9813913"><ele>752.0</ele><time>2026-04-12T09:44:55.149Z</time></trkpt><trkpt lat="43.4956898" lon="11.9814402"><ele>752.0</ele><time>2026-04-12T09:44:56.159Z</time></trkpt><trkpt lat="43.4956255" lon="11.9814984"><ele>752.0</ele><time>2026-04-12T09:44:57.136Z</time></trkpt><trkpt lat="43.4955693" lon="11.981552"><ele>752.0</ele><time>2026-04-12T09:44:58.126Z</time></trkpt><trkpt lat="43.4954762" lon="11.98167"><ele>752.0</ele><time>2026-04-12T09:45:00.145Z</time></trkpt><trkpt lat="43.4954365" lon="11.9817455"><ele>752.0</ele><time>2026-04-12T09:45:01.13Z</time></trkpt><trkpt lat="43.4953477" lon="11.9819001"><ele>752.8333333333333</ele><time>2026-04-12T09:45:03.137Z</time></trkpt><trkpt lat="43.4953254" lon="11.9819975"><ele>753.6666666666666</ele><time>2026-04-12T09:45:04.141Z</time></trkpt><trkpt lat="43.4953169" lon="11.9821004"><ele>754.5</ele><time>2026-04-12T09:45:05.132Z</time></trkpt><trkpt lat="43.4953224" lon="11.9821958"><ele>755.3333333333334</ele><time>2026-04-12T09:45:06.135Z</time></trkpt><trkpt lat="43.4953435" lon="11.9823095"><ele>756.1666666666667</ele><time>2026-04-12T09:45:07.143Z</time></trkpt><trkpt lat="43.4953764" lon="11.9823967"><ele>757.0</ele><time>2026-04-12T09:45:08.141Z</time></trkpt><trkpt lat="43.4954053" lon="11.9825032"><ele>759.0</ele><time>2026-04-12T09:45:09.145Z</time></trkpt><trkpt lat="43.4954287" lon="11.9826047"><ele>761.0</ele><time>2026-04-12T09:45:10.14Z</time></trkpt><trkpt lat="43.4954309" lon="11.9826954"><ele>763.0</ele><time>2026-04-12T09:45:11.141Z</time></trkpt><trkpt lat="43.4954241" lon="11.9827881"><ele>765.0</ele><time>2026-04-12T09:45:12.151Z</time></trkpt><trkpt lat="43.4954145" lon="11.9828923"><ele>766.9999999999999</ele><time>2026-04-12T09:45:13.143Z</time></trkpt><trkpt lat="43.495408" lon="11.9830029"><ele>769.0</ele><time>2026-04-12T09:45:14.145Z</time></trkpt><trkpt lat="43.4954041" lon="11.9831282"><ele>769.0</ele><time>2026-04-12T09:45:15.127Z</time></trkpt><trkpt lat="43.495398" lon="11.9832526"><ele>769.0</ele><time>2026-04-12T09:45:16.154Z</time></trkpt><trkpt lat="43.4953956" lon="11.9833483"><ele>769.0</ele><time>2026-04-12T09:45:17.149Z</time></trkpt><trkpt lat="43.4954264" lon="11.9835321"><ele>769.0</ele><time>2026-04-12T09:45:19.143Z</time></trkpt><trkpt lat="43.4954568" lon="11.9836493"><ele>769.0</ele><time>2026-04-12T09:45:20.133Z</time></trkpt><trkpt lat="43.4954455" lon="11.983758"><ele>770.8000000000001</ele><time>2026-04-12T09:45:21.161Z</time></trkpt><trkpt lat="43.4954078" lon="11.9838361"><ele>772.6</ele><time>2026-04-12T09:45:22.15Z</time></trkpt><trkpt lat="43.4953464" lon="11.9838937"><ele>774.4</ele><time>2026-04-12T09:45:23.145Z</time></trkpt><trkpt lat="43.4952833" lon="11.9839768"><ele>776.2</ele><time>2026-04-12T09:45:24.142Z</time></trkpt><trkpt lat="43.4952048" lon="11.9840753"><ele>778.0</ele><time>2026-04-12T09:45:25.152Z</time></trkpt><trkpt lat="43.495113" lon="11.984181"><ele>778.8</ele><time>2026-04-12T09:45:26.134Z</time></trkpt><trkpt lat="43.4950256" lon="11.9842843"><ele>779.5999999999999</ele><time>2026-04-12T09:45:27.15Z</time></trkpt><trkpt lat="43.4949619" lon="11.9843621"><ele>780.4000000000001</ele><time>2026-04-12T09:45:28.146Z</time></trkpt><trkpt lat="43.4949098" lon="11.9844278"><ele>781.2</ele><time>2026-04-12T09:45:29.154Z</time></trkpt><trkpt lat="43.4948304" lon="11.9845089"><ele>782.0</ele><time>2026-04-12T09:45:31.144Z</time></trkpt><trkpt lat="43.4947443" lon="11.9846646"><ele>782.0000000000001</ele><time>2026-04-12T09:45:33.143Z</time></trkpt><trkpt lat="43.4946997" lon="11.9847471"><ele>782.0</ele><time>2026-04-12T09:45:34.154Z</time></trkpt><trkpt lat="43.494668" lon="11.9848298"><ele>782.0</ele><time>2026-04-12T09:45:35.145Z</time></trkpt><trkpt lat="43.494637" lon="11.9850034"><ele>782.0</ele><time>2026-04-12T09:45:37.143Z</time></trkpt><trkpt lat="43.4946282" lon="11.9851025"><ele>782.0000000000001</ele><time>2026-04-12T09:45:38.142Z</time></trkpt><trkpt lat="43.4946188" lon="11.9851919"><ele>782.0</ele><time>2026-04-12T09:45:39.153Z</time></trkpt><trkpt lat="43.494609" lon="11.9852783"><ele>783.1428571428571</ele><time>2026-04-12T09:45:40.138Z</time></trkpt><trkpt lat="43.4945998" lon="11.9853747"><ele>784.2857142857142</ele><time>2026-04-12T09:45:41.142Z</time></trkpt><trkpt lat="43.4946002" lon="11.9854763"><ele>785.4285714285713</ele><time>2026-04-12T09:45:42.149Z</time></trkpt><trkpt lat="43.4945948" lon="11.9855716"><ele>786.5714285714286</ele><time>2026-04-12T09:45:43.153Z</time></trkpt><trkpt lat="43.4945752" lon="11.985655"><ele>787.7142857142858</ele><time>2026-04-12T09:45:44.125Z</time></trkpt><trkpt lat="43.4945434" lon="11.9857345"><ele>788.8571428571428</ele><time>2026-04-12T09:45:45.147Z</time></trkpt><trkpt lat="43.4945116" lon="11.9858112"><ele>790.0</ele><time>2026-04-12T09:45:46.135Z</time></trkpt><trkpt lat="43.4944613" lon="11.9859726"><ele>795.8</ele><time>2026-04-12T09:45:48.133Z</time></trkpt><trkpt lat="43.4944717" lon="11.9860927"><ele>801.6</ele><time>2026-04-12T09:45:49.141Z</time></trkpt><trkpt lat="43.4944689" lon="11.9862157"><ele>807.4000000000001</ele><time>2026-04-12T09:45:50.146Z</time></trkpt><trkpt lat="43.4944725" lon="11.9863506"><ele>813.2</ele><time>2026-04-12T09:45:51.145Z</time></trkpt><trkpt lat="43.4944687" lon="11.986479"><ele>819.0</ele><time>2026-04-12T09:45:52.147Z</time></trkpt><trkpt lat="43.494463" lon="11.9865966"><ele>818.3333333333334</ele><time>2026-04-12T09:45:53.15Z</time></trkpt><trkpt lat="43.4944542" lon="11.9867193"><ele>817.6666666666667</ele><time>2026-04-12T09:45:54.147Z</time></trkpt><trkpt lat="43.4944346" lon="11.9868244"><ele>817.0</ele><time>2026-04-12T09:45:55.124Z</time></trkpt><trkpt lat="43.4944016" lon="11.9869216"><ele>816.3333333333334</ele><time>2026-04-12T09:45:56.133Z</time></trkpt><trkpt lat="43.4943737" lon="11.9870331"><ele>815.6666666666667</ele><time>2026-04-12T09:45:57.147Z</time></trkpt><trkpt lat="43.4943361" lon="11.9871557"><ele>815.0</ele><time>2026-04-12T09:45:58.147Z</time></trkpt><trkpt lat="43.4943066" lon="11.9872632"><ele>815.0</ele><time>2026-04-12T09:45:59.153Z</time></trkpt><trkpt lat="43.4942667" lon="11.9873465"><ele>815.0</ele><time>2026-04-12T09:46:00.141Z</time></trkpt><trkpt lat="43.4941638" lon="11.9874319"><ele>815.0</ele><time>2026-04-12T09:46:02.137Z</time></trkpt><trkpt lat="43.4940929" lon="11.9874638"><ele>815.0</ele><time>2026-04-12T09:46:03.141Z</time></trkpt><trkpt lat="43.4939895" lon="11.9874764"><ele>815.0</ele><time>2026-04-12T09:46:04.149Z</time></trkpt><trkpt lat="43.4938709" lon="11.9874944"><ele>813.8</ele><time>2026-04-12T09:46:05.156Z</time></trkpt><trkpt lat="43.4937567" lon="11.9875141"><ele>812.6</ele><time>2026-04-12T09:46:06.143Z</time></trkpt><trkpt lat="43.4936567" lon="11.9875341"><ele>811.4000000000001</ele><time>2026-04-12T09:46:07.139Z</time></trkpt><trkpt lat="43.4935501" lon="11.9875692"><ele>810.2</ele><time>2026-04-12T09:46:08.151Z</time></trkpt><trkpt lat="43.4934378" lon="11.9876113"><ele>809.0</ele><time>2026-04-12T09:46:09.15Z</time></trkpt><trkpt lat="43.4933518" lon="11.9876468"><ele>811.1666666666667</ele><time>2026-04-12T09:46:10.142Z</time></trkpt><trkpt lat="43.4932743" lon="11.987678"><ele>813.3333333333334</ele><time>2026-04-12T09:46:11.13Z</time></trkpt><trkpt lat="43.4931973" lon="11.9876987"><ele>815.5</ele><time>2026-04-12T09:46:12.128Z</time></trkpt><trkpt lat="43.4931217" lon="11.9877114"><ele>817.6666666666667</ele><time>2026-04-12T09:46:13.142Z</time></trkpt><trkpt lat="43.4930312" lon="11.9877071"><ele>819.8333333333334</ele><time>2026-04-12T09:46:14.124Z</time></trkpt><trkpt lat="43.4929322" lon="11.9876856"><ele>822.0</ele><time>2026-04-12T09:46:15.151Z</time></trkpt><trkpt lat="43.4928363" lon="11.9876709"><ele>822.0</ele><time>2026-04-12T09:46:16.151Z</time></trkpt><trkpt lat="43.4927513" lon="11.9876774"><ele>822.0</ele><time>2026-04-12T09:46:17.144Z</time></trkpt><trkpt lat="43.4926718" lon="11.9876931"><ele>822.0</ele><time>2026-04-12T09:46:18.143Z</time></trkpt><trkpt lat="43.4925954" lon="11.9877074"><ele>822.0</ele><time>2026-04-12T09:46:19.137Z</time></trkpt><trkpt lat="43.4925318" lon="11.9877489"><ele>822.0</ele><time>2026-04-12T09:46:20.144Z</time></trkpt><trkpt lat="43.4924526" lon="11.9878769"><ele>822.0</ele><time>2026-04-12T09:46:22.15Z</time></trkpt><trkpt lat="43.4924621" lon="11.9879928"><ele>822.0</ele><time>2026-04-12T09:46:23.152Z</time></trkpt><trkpt lat="43.4924879" lon="11.9881252"><ele>822.0</ele><time>2026-04-12T09:46:24.159Z</time></trkpt><trkpt lat="43.492479" lon="11.9882533"><ele>822.0</ele><time>2026-04-12T09:46:25.147Z</time></trkpt><trkpt lat="43.4924504" lon="11.9883743"><ele>822.0</ele><time>2026-04-12T09:46:26.144Z</time></trkpt><trkpt lat="43.4924227" lon="11.9885008"><ele>822.0</ele><time>2026-04-12T09:46:27.138Z</time></trkpt><trkpt lat="43.4923827" lon="11.9886501"><ele>824.0</ele><time>2026-04-12T09:46:28.142Z</time></trkpt><trkpt lat="43.4923384" lon="11.9887848"><ele>826.0</ele><time>2026-04-12T09:46:29.143Z</time></trkpt><trkpt lat="43.4922731" lon="11.9889219"><ele>828.0</ele><time>2026-04-12T09:46:30.154Z</time></trkpt><trkpt lat="43.4922173" lon="11.9890327"><ele>830.0</ele><time>2026-04-12T09:46:31.137Z</time></trkpt><trkpt lat="43.4921692" lon="11.9891209"><ele>832.0</ele><time>2026-04-12T09:46:32.136Z</time></trkpt><trkpt lat="43.4920595" lon="11.9891908"><ele>832.0</ele><time>2026-04-12T09:46:34.138Z</time></trkpt><trkpt lat="43.4919743" lon="11.9892333"><ele>832.0</ele><time>2026-04-12T09:46:35.149Z</time></trkpt><trkpt lat="43.4918695" lon="11.9892929"><ele>832.0</ele><time>2026-04-12T09:46:36.141Z</time></trkpt><trkpt lat="43.4917856" lon="11.9893495"><ele>832.0</ele><time>2026-04-12T09:46:37.145Z</time></trkpt><trkpt lat="43.4917234" lon="11.9894137"><ele>832.0</ele><time>2026-04-12T09:46:38.137Z</time></trkpt><trkpt lat="43.491611" lon="11.9895005"><ele>831.9999999999999</ele><time>2026-04-12T09:46:40.13Z</time></trkpt><trkpt lat="43.4915447" lon="11.9895265"><ele>832.0</ele><time>2026-04-12T09:46:41.133Z</time></trkpt><trkpt lat="43.491469" lon="11.9895278"><ele>832.0</ele><time>2026-04-12T09:46:42.132Z</time></trkpt><trkpt lat="43.4913738" lon="11.9895207"><ele>832.0</ele><time>2026-04-12T09:46:43.133Z</time></trkpt><trkpt lat="43.4912821" lon="11.9895071"><ele>831.9999999999999</ele><time>2026-04-12T09:46:44.129Z</time></trkpt><trkpt lat="43.4912035" lon="11.9894877"><ele>832.0</ele><time>2026-04-12T09:46:45.146Z</time></trkpt><trkpt lat="43.4911318" lon="11.9894823"><ele>831.4999999999999</ele><time>2026-04-12T09:46:46.138Z</time></trkpt><trkpt lat="43.4910648" lon="11.9894978"><ele>831.0</ele><time>2026-04-12T09:46:47.136Z</time></trkpt><trkpt lat="43.4910012" lon="11.9895075"><ele>830.5</ele><time>2026-04-12T09:46:48.136Z</time></trkpt><trkpt lat="43.4909237" lon="11.989516"><ele>830.0</ele><time>2026-04-12T09:46:49.134Z</time></trkpt><trkpt lat="43.4908371" lon="11.9895282"><ele>829.4999999999999</ele><time>2026-04-12T09:46:50.139Z</time></trkpt><trkpt lat="43.4907288" lon="11.9895532"><ele>829.0</ele><time>2026-04-12T09:46:51.126Z</time></trkpt><trkpt lat="43.4906241" lon="11.989592"><ele>829.0</ele><time>2026-04-12T09:46:52.138Z</time></trkpt><trkpt lat="43.4905495" lon="11.9896281"><ele>829.0</ele><time>2026-04-12T09:46:53.132Z</time></trkpt><trkpt lat="43.4904622" lon="11.9896749"><ele>829.0</ele><time>2026-04-12T09:46:55.154Z</time></trkpt><trkpt lat="43.4903727" lon="11.9897033"><ele>829.0</ele><time>2026-04-12T09:46:58.14Z</time></trkpt><trkpt lat="43.4902588" lon="11.9896966"><ele>829.0</ele><time>2026-04-12T09:47:00.13Z</time></trkpt><trkpt lat="43.4901482" lon="11.9896517"><ele>828.75</ele><time>2026-04-12T09:47:02.145Z</time></trkpt><trkpt lat="43.4900478" lon="11.9895865"><ele>828.5</ele><time>2026-04-12T09:47:04.151Z</time></trkpt><trkpt lat="43.4899509" lon="11.9895434"><ele>828.25</ele><time>2026-04-12T09:47:06.147Z</time></trkpt><trkpt lat="43.4898386" lon="11.9894792"><ele>828.0</ele><time>2026-04-12T09:47:08.129Z</time></trkpt><trkpt lat="43.4897274" lon="11.9894374"><ele>828.0</ele><time>2026-04-12T09:47:10.131Z</time></trkpt><trkpt lat="43.4896464" lon="11.9894734"><ele>828.0</ele><time>2026-04-12T09:47:11.128Z</time></trkpt><trkpt lat="43.4895569" lon="11.9895227"><ele>828.0</ele><time>2026-04-12T09:47:12.136Z</time></trkpt><trkpt lat="43.4894997" lon="11.989559"><ele>828.0</ele><time>2026-04-12T09:47:13.135Z</time></trkpt><trkpt lat="43.4894143" lon="11.9895484"><ele>828.0</ele><time>2026-04-12T09:47:15.123Z</time></trkpt><trkpt lat="43.4893662" lon="11.9894313"><ele>828.0</ele><time>2026-04-12T09:47:17.142Z</time></trkpt><trkpt lat="43.4893406" lon="11.9893076"><ele>829.0</ele><time>2026-04-12T09:47:18.128Z</time></trkpt><trkpt lat="43.4892997" lon="11.9891908"><ele>830.0</ele><time>2026-04-12T09:47:19.118Z</time></trkpt><trkpt lat="43.4892415" lon="11.9890908"><ele>831.0</ele><time>2026-04-12T09:47:20.128Z</time></trkpt><trkpt lat="43.4891436" lon="11.9889947"><ele>832.0</ele><time>2026-04-12T09:47:21.123Z</time></trkpt><trkpt lat="43.4890531" lon="11.9888856"><ele>833.0</ele><time>2026-04-12T09:47:22.14Z</time></trkpt><trkpt lat="43.4889646" lon="11.9887792"><ele>831.6666666666667</ele><time>2026-04-12T09:47:23.138Z</time></trkpt><trkpt lat="43.4888869" lon="11.9886981"><ele>830.3333333333334</ele><time>2026-04-12T09:47:24.136Z</time></trkpt><trkpt lat="43.4888178" lon="11.9886148"><ele>829.0</ele><time>2026-04-12T09:47:25.16Z</time></trkpt><trkpt lat="43.4887748" lon="11.9885422"><ele>827.6666666666667</ele><time>2026-04-12T09:47:26.141Z</time></trkpt><trkpt lat="43.4886994" lon="11.9884604"><ele>826.3333333333334</ele><time>2026-04-12T09:47:28.138Z</time></trkpt><trkpt lat="43.4886345" lon="11.9884569"><ele>825.0</ele><time>2026-04-12T09:47:29.136Z</time></trkpt><trkpt lat="43.4885436" lon="11.9884873"><ele>825.0</ele><time>2026-04-12T09:47:30.134Z</time></trkpt><trkpt lat="43.4884644" lon="11.9885223"><ele>825.0</ele><time>2026-04-12T09:47:31.158Z</time></trkpt><trkpt lat="43.4883926" lon="11.9885727"><ele>825.0</ele><time>2026-04-12T09:47:32.133Z</time></trkpt><trkpt lat="43.4883166" lon="11.9885974"><ele>825.0</ele><time>2026-04-12T09:47:33.147Z</time></trkpt><trkpt lat="43.4882516" lon="11.9886161"><ele>825.0</ele><time>2026-04-12T09:47:34.142Z</time></trkpt><trkpt lat="43.4881317" lon="11.9886532"><ele>825.0</ele><time>2026-04-12T09:47:36.148Z</time></trkpt><trkpt lat="43.4880629" lon="11.9886789"><ele>825.0</ele><time>2026-04-12T09:47:37.133Z</time></trkpt><trkpt lat="43.4879568" lon="11.9886719"><ele>825.0</ele><time>2026-04-12T09:47:39.135Z</time></trkpt><trkpt lat="43.4878762" lon="11.9885956"><ele>825.0</ele><time>2026-04-12T09:47:41.13Z</time></trkpt><trkpt lat="43.4877788" lon="11.9884886"><ele>825.0</ele><time>2026-04-12T09:47:43.133Z</time></trkpt><trkpt lat="43.4877287" lon="11.988406"><ele>825.0</ele><time>2026-04-12T09:47:44.134Z</time></trkpt><trkpt lat="43.4876816" lon="11.9883261"><ele>824.6666666666666</ele><time>2026-04-12T09:47:45.138Z</time></trkpt><trkpt lat="43.4876092" lon="11.9881898"><ele>824.3333333333333</ele><time>2026-04-12T09:47:47.137Z</time></trkpt><trkpt lat="43.4875765" lon="11.9881022"><ele>824.0</ele><time>2026-04-12T09:47:48.137Z</time></trkpt><trkpt lat="43.4875449" lon="11.9880098"><ele>823.6666666666666</ele><time>2026-04-12T09:47:49.128Z</time></trkpt><trkpt lat="43.487512" lon="11.9879239"><ele>823.3333333333333</ele><time>2026-04-12T09:47:50.137Z</time></trkpt><trkpt lat="43.487485" lon="11.9878358"><ele>823.0</ele><time>2026-04-12T09:47:51.146Z</time></trkpt><trkpt lat="43.4874595" lon="11.9877373"><ele>823.0</ele><time>2026-04-12T09:47:52.131Z</time></trkpt><trkpt lat="43.48743" lon="11.9876473"><ele>823.0</ele><time>2026-04-12T09:47:53.151Z</time></trkpt><trkpt lat="43.4873699" lon="11.9875558"><ele>823.0</ele><time>2026-04-12T09:47:54.15Z</time></trkpt><trkpt lat="43.4872945" lon="11.98745"><ele>823.0</ele><time>2026-04-12T09:47:55.141Z</time></trkpt><trkpt lat="43.4872187" lon="11.987356"><ele>823.0</ele><time>2026-04-12T09:47:56.129Z</time></trkpt><trkpt lat="43.4871587" lon="11.9872834"><ele>824.2</ele><time>2026-04-12T09:47:57.153Z</time></trkpt><trkpt lat="43.4871062" lon="11.9872156"><ele>825.4</ele><time>2026-04-12T09:47:58.137Z</time></trkpt><trkpt lat="43.4870663" lon="11.9871425"><ele>826.6</ele><time>2026-04-12T09:47:59.146Z</time></trkpt><trkpt lat="43.4869956" lon="11.9869941"><ele>827.8000000000001</ele><time>2026-04-12T09:48:01.13Z</time></trkpt><trkpt lat="43.4869131" lon="11.9869275"><ele>829.0</ele><time>2026-04-12T09:48:03.14Z</time></trkpt><trkpt lat="43.4868262" lon="11.986852"><ele>826.8000000000001</ele><time>2026-04-12T09:48:05.141Z</time></trkpt><trkpt lat="43.4867836" lon="11.9866719"><ele>824.6</ele><time>2026-04-12T09:48:07.128Z</time></trkpt><trkpt lat="43.4867631" lon="11.9865371"><ele>822.4</ele><time>2026-04-12T09:48:08.138Z</time></trkpt><trkpt lat="43.4867535" lon="11.9864052"><ele>820.2</ele><time>2026-04-12T09:48:09.14Z</time></trkpt><trkpt lat="43.4867622" lon="11.9862962"><ele>818.0</ele><time>2026-04-12T09:48:10.135Z</time></trkpt><trkpt lat="43.4867827" lon="11.9862052"><ele>818.0</ele><time>2026-04-12T09:48:11.15Z</time></trkpt><trkpt lat="43.4867764" lon="11.9860592"><ele>818.0</ele><time>2026-04-12T09:48:13.138Z</time></trkpt><trkpt lat="43.4867124" lon="11.9859313"><ele>818.0</ele><time>2026-04-12T09:48:15.138Z</time></trkpt><trkpt lat="43.4866521" lon="11.9858786"><ele>818.0</ele><time>2026-04-12T09:48:16.152Z</time></trkpt><trkpt lat="43.4865509" lon="11.9858449"><ele>818.0</ele><time>2026-04-12T09:48:18.138Z</time></trkpt><trkpt lat="43.4864546" lon="11.985922"><ele>818.0000000000001</ele><time>2026-04-12T09:48:20.136Z</time></trkpt><trkpt lat="43.4864015" lon="11.9859928"><ele>818.0</ele><time>2026-04-12T09:48:21.14Z</time></trkpt><trkpt lat="43.4863654" lon="11.9860765"><ele>818.0</ele><time>2026-04-12T09:48:22.148Z</time></trkpt><trkpt lat="43.4863347" lon="11.986182"><ele>818.0</ele><time>2026-04-12T09:48:23.152Z</time></trkpt><trkpt lat="43.4862918" lon="11.9862914"><ele>818.0000000000001</ele><time>2026-04-12T09:48:24.151Z</time></trkpt><trkpt lat="43.4862435" lon="11.9863919"><ele>818.0</ele><time>2026-04-12T09:48:25.149Z</time></trkpt><trkpt lat="43.4861945" lon="11.986483"><ele>818.5999999999999</ele><time>2026-04-12T09:48:26.143Z</time></trkpt><trkpt lat="43.4861315" lon="11.986543"><ele>819.1999999999999</ele><time>2026-04-12T09:48:27.138Z</time></trkpt><trkpt lat="43.486051" lon="11.9866053"><ele>819.8</ele><time>2026-04-12T09:48:28.139Z</time></trkpt><trkpt lat="43.4859799" lon="11.9866653"><ele>820.4</ele><time>2026-04-12T09:48:29.142Z</time></trkpt><trkpt lat="43.4859252" lon="11.9867197"><ele>821.0</ele><time>2026-04-12T09:48:30.158Z</time></trkpt><trkpt lat="43.4858337" lon="11.9868549"><ele>821.0</ele><time>2026-04-12T09:48:32.145Z</time></trkpt><trkpt lat="43.4857862" lon="11.9869409"><ele>821.0</ele><time>2026-04-12T09:48:33.144Z</time></trkpt><trkpt lat="43.485754" lon="11.9870573"><ele>821.0</ele><time>2026-04-12T09:48:34.142Z</time></trkpt><trkpt lat="43.4857053" lon="11.9871772"><ele>821.0</ele><time>2026-04-12T09:48:35.145Z</time></trkpt><trkpt lat="43.485646" lon="11.9872906"><ele>821.0</ele><time>2026-04-12T09:48:36.144Z</time></trkpt><trkpt lat="43.4855927" lon="11.987393"><ele>821.0000000000001</ele><time>2026-04-12T09:48:37.148Z</time></trkpt><trkpt lat="43.4855411" lon="11.9874873"><ele>821.0</ele><time>2026-04-12T09:48:38.134Z</time></trkpt><trkpt lat="43.4854932" lon="11.9875741"><ele>821.0</ele><time>2026-04-12T09:48:39.158Z</time></trkpt><trkpt lat="43.4854597" lon="11.9876525"><ele>821.0</ele><time>2026-04-12T09:48:40.131Z</time></trkpt><trkpt lat="43.4854417" lon="11.9877394"><ele>821.0000000000001</ele><time>2026-04-12T09:48:41.143Z</time></trkpt><trkpt lat="43.4854414" lon="11.9878544"><ele>821.0</ele><time>2026-04-12T09:48:42.151Z</time></trkpt><trkpt lat="43.485446" lon="11.9879892"><ele>820.5999999999999</ele><time>2026-04-12T09:48:43.146Z</time></trkpt><trkpt lat="43.4854351" lon="11.9881271"><ele>820.2</ele><time>2026-04-12T09:48:44.141Z</time></trkpt><trkpt lat="43.4854245" lon="11.988262"><ele>819.8</ele><time>2026-04-12T09:48:45.143Z</time></trkpt><trkpt lat="43.4854163" lon="11.9884006"><ele>819.4000000000001</ele><time>2026-04-12T09:48:46.155Z</time></trkpt><trkpt lat="43.4854149" lon="11.9885293"><ele>819.0</ele><time>2026-04-12T09:48:47.127Z</time></trkpt><trkpt lat="43.4854393" lon="11.9886612"><ele>819.2</ele><time>2026-04-12T09:48:48.136Z</time></trkpt><trkpt lat="43.4854717" lon="11.9887972"><ele>819.4000000000001</ele><time>2026-04-12T09:48:49.135Z</time></trkpt><trkpt lat="43.4855028" lon="11.988908"><ele>819.6</ele><time>2026-04-12T09:48:50.141Z</time></trkpt><trkpt lat="43.4855281" lon="11.9889967"><ele>819.8</ele><time>2026-04-12T09:48:51.137Z</time></trkpt><trkpt lat="43.4855211" lon="11.989086"><ele>820.0</ele><time>2026-04-12T09:48:52.148Z</time></trkpt><trkpt lat="43.4854817" lon="11.9892605"><ele>819.9999999999999</ele><time>2026-04-12T09:48:54.149Z</time></trkpt><trkpt lat="43.4854485" lon="11.9893541"><ele>820.0</ele><time>2026-04-12T09:48:55.128Z</time></trkpt><trkpt lat="43.4854063" lon="11.989458"><ele>820.0</ele><time>2026-04-12T09:48:56.132Z</time></trkpt><trkpt lat="43.4853453" lon="11.9895386"><ele>820.0</ele><time>2026-04-12T09:48:57.142Z</time></trkpt><trkpt lat="43.4852817" lon="11.989624"><ele>819.9999999999999</ele><time>2026-04-12T09:48:58.134Z</time></trkpt><trkpt lat="43.4852309" lon="11.9896959"><ele>820.0</ele><time>2026-04-12T09:48:59.14Z</time></trkpt><trkpt lat="43.4851117" lon="11.9897517"><ele>820.5</ele><time>2026-04-12T09:49:01.14Z</time></trkpt><trkpt lat="43.4849741" lon="11.9897887"><ele>821.0</ele><time>2026-04-12T09:49:03.13Z</time></trkpt><trkpt lat="43.4848701" lon="11.9897998"><ele>821.5</ele><time>2026-04-12T09:49:04.136Z</time></trkpt><trkpt lat="43.4847437" lon="11.9898061"><ele>822.0</ele><time>2026-04-12T09:49:05.133Z</time></trkpt><trkpt lat="43.4846137" lon="11.9898103"><ele>822.4000000000001</ele><time>2026-04-12T09:49:06.125Z</time></trkpt><trkpt lat="43.4844907" lon="11.9898068"><ele>822.8000000000001</ele><time>2026-04-12T09:49:07.134Z</time></trkpt><trkpt lat="43.4843798" lon="11.9898047"><ele>823.2</ele><time>2026-04-12T09:49:08.133Z</time></trkpt><trkpt lat="43.4842776" lon="11.9898117"><ele>823.6</ele><time>2026-04-12T09:49:09.134Z</time></trkpt><trkpt lat="43.4841781" lon="11.9898153"><ele>824.0</ele><time>2026-04-12T09:49:10.139Z</time></trkpt><trkpt lat="43.4840727" lon="11.9898123"><ele>824.0000000000001</ele><time>2026-04-12T09:49:11.136Z</time></trkpt><trkpt lat="43.4839722" lon="11.9898076"><ele>824.0</ele><time>2026-04-12T09:49:12.123Z</time></trkpt><trkpt lat="43.4838894" lon="11.9898"><ele>824.0</ele><time>2026-04-12T09:49:13.127Z</time></trkpt><trkpt lat="43.4838211" lon="11.9898009"><ele>824.0</ele><time>2026-04-12T09:49:14.14Z</time></trkpt><trkpt lat="43.4837588" lon="11.9898247"><ele>824.0000000000001</ele><time>2026-04-12T09:49:15.13Z</time></trkpt><trkpt lat="43.4836458" lon="11.9898639"><ele>824.0</ele><time>2026-04-12T09:49:17.145Z</time></trkpt><trkpt lat="43.4835803" lon="11.9898566"><ele>825.8333333333334</ele><time>2026-04-12T09:49:18.14Z</time></trkpt><trkpt lat="43.4835188" lon="11.9898269"><ele>827.6666666666667</ele><time>2026-04-12T09:49:19.134Z</time></trkpt><trkpt lat="43.4834489" lon="11.9897941"><ele>829.5</ele><time>2026-04-12T09:49:20.142Z</time></trkpt><trkpt lat="43.4833311" lon="11.9897556"><ele>831.3333333333333</ele><time>2026-04-12T09:49:22.132Z</time></trkpt><trkpt lat="43.4832154" lon="11.9897415"><ele>833.1666666666666</ele><time>2026-04-12T09:49:24.145Z</time></trkpt><trkpt lat="43.4831515" lon="11.9897395"><ele>835.0</ele><time>2026-04-12T09:49:25.155Z</time></trkpt><trkpt lat="43.4830709" lon="11.9897461"><ele>835.0</ele><time>2026-04-12T09:49:26.145Z</time></trkpt><trkpt lat="43.483008" lon="11.9897597"><ele>835.0</ele><time>2026-04-12T09:49:27.142Z</time></trkpt><trkpt lat="43.4829002" lon="11.9897902"><ele>835.0</ele><time>2026-04-12T09:49:29.146Z</time></trkpt><trkpt lat="43.4828359" lon="11.9898041"><ele>835.0</ele><time>2026-04-12T09:49:30.146Z</time></trkpt><trkpt lat="43.4827108" lon="11.989816"><ele>835.0</ele><time>2026-04-12T09:49:32.136Z</time></trkpt><trkpt lat="43.4825974" lon="11.9898172"><ele>837.8</ele><time>2026-04-12T09:49:34.144Z</time></trkpt><trkpt lat="43.4824861" lon="11.9897956"><ele>840.6</ele><time>2026-04-12T09:49:36.13Z</time></trkpt><trkpt lat="43.4823894" lon="11.9897845"><ele>843.4000000000001</ele><time>2026-04-12T09:49:38.16Z</time></trkpt><trkpt lat="43.4823148" lon="11.9898514"><ele>846.2</ele><time>2026-04-12T09:49:40.144Z</time></trkpt><trkpt lat="43.4822648" lon="11.9899506"><ele>849.0</ele><time>2026-04-12T09:49:42.15Z</time></trkpt><trkpt lat="43.482244" lon="11.9900591"><ele>851.0</ele><time>2026-04-12T09:49:44.132Z</time></trkpt><trkpt lat="43.4822155" lon="11.9901835"><ele>853.0</ele><time>2026-04-12T09:49:46.148Z</time></trkpt><trkpt lat="43.4821474" lon="11.9902999"><ele>855.0000000000001</ele><time>2026-04-12T09:49:48.141Z</time></trkpt><trkpt lat="43.482084" lon="11.9904217"><ele>857.0</ele><time>2026-04-12T09:49:50.158Z</time></trkpt><trkpt lat="43.4820254" lon="11.9904722"><ele>859.0</ele><time>2026-04-12T09:49:51.142Z</time></trkpt><trkpt lat="43.4819451" lon="11.9905247"><ele>860.1666666666666</ele><time>2026-04-12T09:49:52.129Z</time></trkpt><trkpt lat="43.4818744" lon="11.9905937"><ele>861.3333333333333</ele><time>2026-04-12T09:49:53.126Z</time></trkpt><trkpt lat="43.4818059" lon="11.9906638"><ele>862.5</ele><time>2026-04-12T09:49:54.125Z</time></trkpt><trkpt lat="43.4817196" lon="11.9907365"><ele>863.6666666666667</ele><time>2026-04-12T09:49:55.142Z</time></trkpt><trkpt lat="43.4816334" lon="11.9907945"><ele>864.8333333333334</ele><time>2026-04-12T09:49:56.148Z</time></trkpt><trkpt lat="43.481559" lon="11.9908312"><ele>866.0</ele><time>2026-04-12T09:49:57.14Z</time></trkpt><trkpt lat="43.4814947" lon="11.9908608"><ele>866.0000000000001</ele><time>2026-04-12T09:49:58.141Z</time></trkpt><trkpt lat="43.481405" lon="11.9908436"><ele>866.0</ele><time>2026-04-12T09:49:59.155Z</time></trkpt><trkpt lat="43.4813157" lon="11.9908292"><ele>866.0</ele><time>2026-04-12T09:50:00.146Z</time></trkpt><trkpt lat="43.4812311" lon="11.9908116"><ele>866.0</ele><time>2026-04-12T09:50:01.125Z</time></trkpt><trkpt lat="43.4811517" lon="11.9908131"><ele>866.0000000000001</ele><time>2026-04-12T09:50:02.142Z</time></trkpt><trkpt lat="43.4810736" lon="11.9908449"><ele>866.0</ele><time>2026-04-12T09:50:03.127Z</time></trkpt><trkpt lat="43.4809975" lon="11.9908873"><ele>867.0000000000001</ele><time>2026-04-12T09:50:04.148Z</time></trkpt><trkpt lat="43.480923" lon="11.9909431"><ele>868.0</ele><time>2026-04-12T09:50:05.146Z</time></trkpt><trkpt lat="43.4808566" lon="11.9910143"><ele>869.0</ele><time>2026-04-12T09:50:06.141Z</time></trkpt><trkpt lat="43.4808051" lon="11.9911029"><ele>870.0</ele><time>2026-04-12T09:50:07.149Z</time></trkpt><trkpt lat="43.4807635" lon="11.9911797"><ele>871.0000000000001</ele><time>2026-04-12T09:50:08.145Z</time></trkpt><trkpt lat="43.4806797" lon="11.9912622"><ele>872.0</ele><time>2026-04-12T09:50:10.152Z</time></trkpt><trkpt lat="43.4805854" lon="11.9912566"><ele>872.0</ele><time>2026-04-12T09:50:12.145Z</time></trkpt><trkpt lat="43.4805156" lon="11.991254"><ele>872.0</ele><time>2026-04-12T09:50:13.14Z</time></trkpt><trkpt lat="43.4804453" lon="11.9912648"><ele>872.0</ele><time>2026-04-12T09:50:14.131Z</time></trkpt><trkpt lat="43.4803235" lon="11.991281"><ele>872.0</ele><time>2026-04-12T09:50:16.145Z</time></trkpt><trkpt lat="43.4802365" lon="11.991285"><ele>872.0</ele><time>2026-04-12T09:50:18.147Z</time></trkpt><trkpt lat="43.4801379" lon="11.9912644"><ele>873.1666666666667</ele><time>2026-04-12T09:50:20.132Z</time></trkpt><trkpt lat="43.4800565" lon="11.9911895"><ele>874.3333333333334</ele><time>2026-04-12T09:50:22.146Z</time></trkpt><trkpt lat="43.4799852" lon="11.9911564"><ele>875.5</ele><time>2026-04-12T09:50:24.142Z</time></trkpt><trkpt lat="43.4799116" lon="11.9911548"><ele>876.6666666666667</ele><time>2026-04-12T09:50:25.145Z</time></trkpt><trkpt lat="43.4798444" lon="11.9911582"><ele>877.8333333333334</ele><time>2026-04-12T09:50:26.147Z</time></trkpt><trkpt lat="43.479779" lon="11.9911571"><ele>879.0</ele><time>2026-04-12T09:50:27.157Z</time></trkpt><trkpt lat="43.4796579" lon="11.9912424"><ele>881.1666666666666</ele><time>2026-04-12T09:50:29.129Z</time></trkpt><trkpt lat="43.4795858" lon="11.9912906"><ele>883.3333333333333</ele><time>2026-04-12T09:50:30.148Z</time></trkpt><trkpt lat="43.4795102" lon="11.9913297"><ele>885.5</ele><time>2026-04-12T09:50:31.137Z</time></trkpt><trkpt lat="43.4794324" lon="11.9913452"><ele>887.6666666666666</ele><time>2026-04-12T09:50:32.145Z</time></trkpt><trkpt lat="43.4793493" lon="11.9913461"><ele>889.8333333333333</ele><time>2026-04-12T09:50:33.145Z</time></trkpt><trkpt lat="43.4792715" lon="11.9913427"><ele>892.0</ele><time>2026-04-12T09:50:34.151Z</time></trkpt><trkpt lat="43.4791948" lon="11.9913431"><ele>891.9999999999999</ele><time>2026-04-12T09:50:35.15Z</time></trkpt><trkpt lat="43.4791152" lon="11.9913297"><ele>892.0</ele><time>2026-04-12T09:50:36.143Z</time></trkpt><trkpt lat="43.4790445" lon="11.9913226"><ele>892.0</ele><time>2026-04-12T09:50:37.143Z</time></trkpt><trkpt lat="43.4789739" lon="11.9913156"><ele>892.0</ele><time>2026-04-12T09:50:38.131Z</time></trkpt><trkpt lat="43.4789044" lon="11.9913192"><ele>891.9999999999999</ele><time>2026-04-12T09:50:39.154Z</time></trkpt><trkpt lat="43.4788235" lon="11.9913179"><ele>892.0</ele><time>2026-04-12T09:50:40.134Z</time></trkpt><trkpt lat="43.47874" lon="11.991293"><ele>891.4000000000001</ele><time>2026-04-12T09:50:41.146Z</time></trkpt><trkpt lat="43.4786642" lon="11.9912487"><ele>890.8000000000001</ele><time>2026-04-12T09:50:42.139Z</time></trkpt><trkpt lat="43.4786008" lon="11.9911998"><ele>890.2</ele><time>2026-04-12T09:50:43.161Z</time></trkpt><trkpt lat="43.4784935" lon="11.9911441"><ele>889.6</ele><time>2026-04-12T09:50:45.156Z</time></trkpt><trkpt lat="43.4783981" lon="11.9911119"><ele>889.0</ele><time>2026-04-12T09:50:47.147Z</time></trkpt><trkpt lat="43.4783044" lon="11.9910987"><ele>889.0</ele><time>2026-04-12T09:50:49.144Z</time></trkpt><trkpt lat="43.4782018" lon="11.991059"><ele>889.0000000000001</ele><time>2026-04-12T09:50:51.142Z</time></trkpt><trkpt lat="43.4781174" lon="11.9909928"><ele>889.0000000000001</ele><time>2026-04-12T09:50:52.15Z</time></trkpt><trkpt lat="43.4780317" lon="11.9909226"><ele>889.0</ele><time>2026-04-12T09:50:53.151Z</time></trkpt><trkpt lat="43.4779318" lon="11.9908599"><ele>889.0</ele><time>2026-04-12T09:50:54.152Z</time></trkpt><trkpt lat="43.4778123" lon="11.9907898"><ele>891.6</ele><time>2026-04-12T09:50:55.157Z</time></trkpt><trkpt lat="43.4776955" lon="11.9907207"><ele>894.2</ele><time>2026-04-12T09:50:56.13Z</time></trkpt><trkpt lat="43.4775939" lon="11.9906639"><ele>896.8000000000001</ele><time>2026-04-12T09:50:57.153Z</time></trkpt><trkpt lat="43.4775033" lon="11.9906145"><ele>899.4000000000001</ele><time>2026-04-12T09:50:58.147Z</time></trkpt><trkpt lat="43.4774217" lon="11.9905718"><ele>902.0</ele><time>2026-04-12T09:50:59.157Z</time></trkpt><trkpt lat="43.4773383" lon="11.9905267"><ele>902.0</ele><time>2026-04-12T09:51:00.146Z</time></trkpt><trkpt lat="43.4772519" lon="11.9904545"><ele>902.0</ele><time>2026-04-12T09:51:01.161Z</time></trkpt><trkpt lat="43.4771569" lon="11.990405"><ele>902.0</ele><time>2026-04-12T09:51:02.139Z</time></trkpt><trkpt lat="43.4770596" lon="11.9903518"><ele>902.0</ele><time>2026-04-12T09:51:03.15Z</time></trkpt><trkpt lat="43.4769649" lon="11.9902939"><ele>902.0</ele><time>2026-04-12T09:51:04.146Z</time></trkpt><trkpt lat="43.4768745" lon="11.9902416"><ele>901.5000000000001</ele><time>2026-04-12T09:51:05.153Z</time></trkpt><trkpt lat="43.4767903" lon="11.9901884"><ele>901.0</ele><time>2026-04-12T09:51:06.148Z</time></trkpt><trkpt lat="43.4767139" lon="11.9901375"><ele>900.5</ele><time>2026-04-12T09:51:07.14Z</time></trkpt><trkpt lat="43.4766398" lon="11.9900816"><ele>900.0</ele><time>2026-04-12T09:51:08.149Z</time></trkpt><trkpt lat="43.4765592" lon="11.9900177"><ele>899.5000000000001</ele><time>2026-04-12T09:51:09.151Z</time></trkpt><trkpt lat="43.4764799" lon="11.9899609"><ele>899.0</ele><time>2026-04-12T09:51:10.152Z</time></trkpt><trkpt lat="43.476392" lon="11.9898758"><ele>899.0</ele><time>2026-04-12T09:51:11.137Z</time></trkpt><trkpt lat="43.4762999" lon="11.9897838"><ele>899.0</ele><time>2026-04-12T09:51:12.146Z</time></trkpt><trkpt lat="43.4762167" lon="11.9896806"><ele>899.0</ele><time>2026-04-12T09:51:13.138Z</time></trkpt><trkpt lat="43.4761287" lon="11.9895888"><ele>899.0</ele><time>2026-04-12T09:51:14.141Z</time></trkpt><trkpt lat="43.4760322" lon="11.989496"><ele>897.8000000000001</ele><time>2026-04-12T09:51:15.147Z</time></trkpt><trkpt lat="43.4759374" lon="11.9894239"><ele>896.6000000000001</ele><time>2026-04-12T09:51:16.153Z</time></trkpt><trkpt lat="43.4758503" lon="11.9893545"><ele>895.4</ele><time>2026-04-12T09:51:17.153Z</time></trkpt><trkpt lat="43.4757586" lon="11.9892992"><ele>894.2</ele><time>2026-04-12T09:51:18.152Z</time></trkpt><trkpt lat="43.4756653" lon="11.9892556"><ele>893.0</ele><time>2026-04-12T09:51:19.13Z</time></trkpt><trkpt lat="43.4755829" lon="11.9892129"><ele>893.0000000000001</ele><time>2026-04-12T09:51:20.15Z</time></trkpt><trkpt lat="43.4755081" lon="11.9892013"><ele>893.0</ele><time>2026-04-12T09:51:21.148Z</time></trkpt><trkpt lat="43.4754344" lon="11.9892005"><ele>893.0</ele><time>2026-04-12T09:51:22.145Z</time></trkpt><trkpt lat="43.4753484" lon="11.9892272"><ele>893.0</ele><time>2026-04-12T09:51:23.153Z</time></trkpt><trkpt lat="43.4752479" lon="11.9892233"><ele>893.0000000000001</ele><time>2026-04-12T09:51:24.15Z</time></trkpt><trkpt lat="43.4751476" lon="11.9892236"><ele>893.0</ele><time>2026-04-12T09:51:25.149Z</time></trkpt><trkpt lat="43.4750495" lon="11.9892055"><ele>894.2</ele><time>2026-04-12T09:51:26.153Z</time></trkpt><trkpt lat="43.4749597" lon="11.9891856"><ele>895.4</ele><time>2026-04-12T09:51:27.157Z</time></trkpt><trkpt lat="43.4748752" lon="11.989166"><ele>896.6000000000001</ele><time>2026-04-12T09:51:28.143Z</time></trkpt><trkpt lat="43.4747913" lon="11.9891208"><ele>897.8000000000001</ele><time>2026-04-12T09:51:29.142Z</time></trkpt><trkpt lat="43.4746944" lon="11.9890678"><ele>899.0</ele><time>2026-04-12T09:51:30.151Z</time></trkpt><trkpt lat="43.4746126" lon="11.9890179"><ele>898.3333333333334</ele><time>2026-04-12T09:51:31.148Z</time></trkpt><trkpt lat="43.474539" lon="11.9889745"><ele>897.6666666666667</ele><time>2026-04-12T09:51:32.152Z</time></trkpt><trkpt lat="43.4744534" lon="11.9889841"><ele>897.0</ele><time>2026-04-12T09:51:33.15Z</time></trkpt><trkpt lat="43.474359" lon="11.9889634"><ele>896.3333333333333</ele><time>2026-04-12T09:51:34.153Z</time></trkpt><trkpt lat="43.4742679" lon="11.9889581"><ele>895.6666666666666</ele><time>2026-04-12T09:51:35.147Z</time></trkpt><trkpt lat="43.4742045" lon="11.9889391"><ele>895.0</ele><time>2026-04-12T09:51:36.145Z</time></trkpt><trkpt lat="43.4741301" lon="11.9888721"><ele>894.9999999999999</ele><time>2026-04-12T09:51:37.162Z</time></trkpt><trkpt lat="43.474059" lon="11.9888086"><ele>895.0</ele><time>2026-04-12T09:51:38.155Z</time></trkpt><trkpt lat="43.4739715" lon="11.9887762"><ele>895.0</ele><time>2026-04-12T09:51:39.148Z</time></trkpt><trkpt lat="43.4738923" lon="11.9887466"><ele>895.0</ele><time>2026-04-12T09:51:40.151Z</time></trkpt><trkpt lat="43.4738253" lon="11.9887175"><ele>894.9999999999999</ele><time>2026-04-12T09:51:41.135Z</time></trkpt><trkpt lat="43.4737643" lon="11.9886934"><ele>895.0</ele><time>2026-04-12T09:51:42.153Z</time></trkpt><trkpt lat="43.4736871" lon="11.9886083"><ele>894.6</ele><time>2026-04-12T09:51:44.157Z</time></trkpt><trkpt lat="43.4736679" lon="11.9885005"><ele>894.2</ele><time>2026-04-12T09:51:46.133Z</time></trkpt><trkpt lat="43.473723" lon="11.9884026"><ele>893.8</ele><time>2026-04-12T09:51:48.154Z</time></trkpt><trkpt lat="43.473788" lon="11.9882847"><ele>893.4</ele><time>2026-04-12T09:51:50.144Z</time></trkpt><trkpt lat="43.4738309" lon="11.9881355"><ele>893.0</ele><time>2026-04-12T09:51:52.131Z</time></trkpt><trkpt lat="43.4738466" lon="11.988009"><ele>893.0000000000001</ele><time>2026-04-12T09:51:54.143Z</time></trkpt><trkpt lat="43.473794" lon="11.9879157"><ele>893.0</ele><time>2026-04-12T09:51:59.135Z</time></trkpt><trkpt lat="43.4737261" lon="11.9878542"><ele>893.0</ele><time>2026-04-12T09:52:01.131Z</time></trkpt><trkpt lat="43.4736634" lon="11.9877963"><ele>893.0</ele><time>2026-04-12T09:52:03.134Z</time></trkpt><trkpt lat="43.4735942" lon="11.9877552"><ele>893.0000000000001</ele><time>2026-04-12T09:52:05.152Z</time></trkpt><trkpt lat="43.4735108" lon="11.9877475"><ele>893.0</ele><time>2026-04-12T09:52:07.145Z</time></trkpt><trkpt lat="43.4734023" lon="11.9877089"><ele>891.5999999999999</ele><time>2026-04-12T09:52:09.147Z</time></trkpt><trkpt lat="43.4732989" lon="11.9876523"><ele>890.1999999999999</ele><time>2026-04-12T09:52:11.159Z</time></trkpt><trkpt lat="43.4731981" lon="11.9875909"><ele>888.8</ele><time>2026-04-12T09:52:13.141Z</time></trkpt><trkpt lat="43.4731043" lon="11.9875241"><ele>887.4</ele><time>2026-04-12T09:52:15.147Z</time></trkpt><trkpt lat="43.4730105" lon="11.9874438"><ele>886.0</ele><time>2026-04-12T09:52:17.131Z</time></trkpt><trkpt lat="43.47292" lon="11.9873235"><ele>880.0</ele><time>2026-04-12T09:52:19.143Z</time></trkpt><trkpt lat="43.4728469" lon="11.9871891"><ele>873.9999999999999</ele><time>2026-04-12T09:52:21.134Z</time></trkpt><trkpt lat="43.4728196" lon="11.9871071"><ele>867.9999999999999</ele><time>2026-04-12T09:52:22.153Z</time></trkpt><trkpt lat="43.4727994" lon="11.9870235"><ele>862.0</ele><time>2026-04-12T09:52:23.144Z</time></trkpt><trkpt lat="43.4727375" lon="11.9868535"><ele>856.0</ele><time>2026-04-12T09:52:25.15Z</time></trkpt><trkpt lat="43.4726689" lon="11.986766"><ele>858.0</ele><time>2026-04-12T09:52:26.145Z</time></trkpt><trkpt lat="43.4726013" lon="11.9866674"><ele>859.9999999999999</ele><time>2026-04-12T09:52:27.147Z</time></trkpt><trkpt lat="43.472541" lon="11.9865762"><ele>861.9999999999999</ele><time>2026-04-12T09:52:28.152Z</time></trkpt><trkpt lat="43.4724873" lon="11.9865006"><ele>864.0</ele><time>2026-04-12T09:52:29.148Z</time></trkpt><trkpt lat="43.4724052" lon="11.9863825"><ele>866.0</ele><time>2026-04-12T09:52:31.161Z</time></trkpt><trkpt lat="43.472342" lon="11.9862248"><ele>866.0000000000001</ele><time>2026-04-12T09:52:33.15Z</time></trkpt><trkpt lat="43.4723157" lon="11.9861002"><ele>866.0</ele><time>2026-04-12T09:52:34.154Z</time></trkpt><trkpt lat="43.4723051" lon="11.9859477"><ele>866.0</ele><time>2026-04-12T09:52:35.141Z</time></trkpt><trkpt lat="43.4723045" lon="11.9858187"><ele>866.0</ele><time>2026-04-12T09:52:36.151Z</time></trkpt><trkpt lat="43.4723043" lon="11.9857098"><ele>866.0000000000001</ele><time>2026-04-12T09:52:37.136Z</time></trkpt><trkpt lat="43.4723226" lon="11.9856242"><ele>866.0</ele><time>2026-04-12T09:52:38.149Z</time></trkpt><trkpt lat="43.472365" lon="11.9855588"><ele>866.6666666666667</ele><time>2026-04-12T09:52:39.159Z</time></trkpt><trkpt lat="43.4724122" lon="11.9854891"><ele>867.3333333333334</ele><time>2026-04-12T09:52:40.142Z</time></trkpt><trkpt lat="43.4724652" lon="11.9854108"><ele>868.0</ele><time>2026-04-12T09:52:41.139Z</time></trkpt><trkpt lat="43.4725171" lon="11.9853234"><ele>868.6666666666667</ele><time>2026-04-12T09:52:42.152Z</time></trkpt><trkpt lat="43.4725766" lon="11.9852036"><ele>869.3333333333334</ele><time>2026-04-12T09:52:43.15Z</time></trkpt><trkpt lat="43.4726163" lon="11.9850891"><ele>870.0</ele><time>2026-04-12T09:52:44.15Z</time></trkpt><trkpt lat="43.4726571" lon="11.9849689"><ele>870.0</ele><time>2026-04-12T09:52:45.149Z</time></trkpt><trkpt lat="43.4726803" lon="11.9848127"><ele>870.0</ele><time>2026-04-12T09:52:46.147Z</time></trkpt><trkpt lat="43.4726958" lon="11.9846579"><ele>870.0</ele><time>2026-04-12T09:52:47.159Z</time></trkpt><trkpt lat="43.4727108" lon="11.9845067"><ele>870.0</ele><time>2026-04-12T09:52:48.151Z</time></trkpt><trkpt lat="43.4726985" lon="11.9843408"><ele>872.0</ele><time>2026-04-12T09:52:49.152Z</time></trkpt><trkpt lat="43.4726562" lon="11.9841505"><ele>874.0</ele><time>2026-04-12T09:52:50.155Z</time></trkpt><trkpt lat="43.4726035" lon="11.9839418"><ele>876.0</ele><time>2026-04-12T09:52:51.152Z</time></trkpt><trkpt lat="43.4725487" lon="11.9837323"><ele>876.0</ele><time>2026-04-12T09:52:52.15Z</time></trkpt><trkpt lat="43.4724888" lon="11.9835327"><ele>876.0</ele><time>2026-04-12T09:52:53.151Z</time></trkpt><trkpt lat="43.4724332" lon="11.9833644"><ele>876.0</ele><time>2026-04-12T09:52:54.133Z</time></trkpt><trkpt lat="43.4723814" lon="11.9832267"><ele>876.0</ele><time>2026-04-12T09:52:55.139Z</time></trkpt><trkpt lat="43.4723317" lon="11.9830981"><ele>874.1999999999999</ele><time>2026-04-12T09:52:56.134Z</time></trkpt><trkpt lat="43.4722784" lon="11.9829718"><ele>872.3999999999999</ele><time>2026-04-12T09:52:57.133Z</time></trkpt><trkpt lat="43.4722286" lon="11.9828389"><ele>870.6</ele><time>2026-04-12T09:52:58.137Z</time></trkpt><trkpt lat="43.4721649" lon="11.9827401"><ele>868.8</ele><time>2026-04-12T09:52:59.132Z</time></trkpt><trkpt lat="43.4720858" lon="11.9826684"><ele>867.0</ele><time>2026-04-12T09:53:00.135Z</time></trkpt><trkpt lat="43.4719843" lon="11.9825966"><ele>867.0</ele><time>2026-04-12T09:53:01.127Z</time></trkpt><trkpt lat="43.4718705" lon="11.9825237"><ele>867.0</ele><time>2026-04-12T09:53:02.133Z</time></trkpt><trkpt lat="43.4717441" lon="11.9824563"><ele>867.0</ele><time>2026-04-12T09:53:03.137Z</time></trkpt><trkpt lat="43.4716163" lon="11.9824145"><ele>867.0</ele><time>2026-04-12T09:53:04.142Z</time></trkpt><trkpt lat="43.4715034" lon="11.9823773"><ele>870.0</ele><time>2026-04-12T09:53:05.136Z</time></trkpt><trkpt lat="43.4714098" lon="11.9823164"><ele>873.0</ele><time>2026-04-12T09:53:06.146Z</time></trkpt><trkpt lat="43.4713263" lon="11.9822264"><ele>876.0</ele><time>2026-04-12T09:53:07.148Z</time></trkpt><trkpt lat="43.4712371" lon="11.9821052"><ele>879.0</ele><time>2026-04-12T09:53:08.146Z</time></trkpt><trkpt lat="43.4711706" lon="11.9819916"><ele>882.0</ele><time>2026-04-12T09:53:09.139Z</time></trkpt><trkpt lat="43.4711323" lon="11.9819027"><ele>882.0</ele><time>2026-04-12T09:53:10.135Z</time></trkpt><trkpt lat="43.4711717" lon="11.9817706"><ele>882.0</ele><time>2026-04-12T09:53:12.135Z</time></trkpt><trkpt lat="43.471239" lon="11.9817335"><ele>882.0</ele><time>2026-04-12T09:53:13.137Z</time></trkpt><trkpt lat="43.4713262" lon="11.9817225"><ele>882.0</ele><time>2026-04-12T09:53:14.144Z</time></trkpt><trkpt lat="43.4714115" lon="11.9817146"><ele>882.0</ele><time>2026-04-12T09:53:15.13Z</time></trkpt><trkpt lat="43.4714919" lon="11.9817345"><ele>882.0</ele><time>2026-04-12T09:53:16.134Z</time></trkpt><trkpt lat="43.4715815" lon="11.9817374"><ele>882.8</ele><time>2026-04-12T09:53:17.156Z</time></trkpt><trkpt lat="43.4716719" lon="11.9817152"><ele>883.6</ele><time>2026-04-12T09:53:18.148Z</time></trkpt><trkpt lat="43.4717685" lon="11.981689"><ele>884.3999999999999</ele><time>2026-04-12T09:53:19.146Z</time></trkpt><trkpt lat="43.47188" lon="11.9816453"><ele>885.1999999999999</ele><time>2026-04-12T09:53:20.137Z</time></trkpt><trkpt lat="43.4719881" lon="11.9815967"><ele>886.0</ele><time>2026-04-12T09:53:21.145Z</time></trkpt><trkpt lat="43.4720941" lon="11.9815366"><ele>889.1666666666666</ele><time>2026-04-12T09:53:22.156Z</time></trkpt><trkpt lat="43.4721856" lon="11.9814914"><ele>892.3333333333333</ele><time>2026-04-12T09:53:23.143Z</time></trkpt><trkpt lat="43.4722652" lon="11.9814816"><ele>895.5</ele><time>2026-04-12T09:53:24.126Z</time></trkpt><trkpt lat="43.47233" lon="11.9815162"><ele>898.6666666666667</ele><time>2026-04-12T09:53:25.148Z</time></trkpt><trkpt lat="43.472392" lon="11.9815552"><ele>901.8333333333334</ele><time>2026-04-12T09:53:26.128Z</time></trkpt><trkpt lat="43.4724295" lon="11.9816306"><ele>905.0</ele><time>2026-04-12T09:53:27.142Z</time></trkpt><trkpt lat="43.4725116" lon="11.9817152"><ele>907.2</ele><time>2026-04-12T09:53:29.142Z</time></trkpt><trkpt lat="43.4726013" lon="11.981633"><ele>909.4</ele><time>2026-04-12T09:53:31.136Z</time></trkpt><trkpt lat="43.4726241" lon="11.981549"><ele>911.5999999999999</ele><time>2026-04-12T09:53:32.134Z</time></trkpt><trkpt lat="43.4726352" lon="11.9814341"><ele>913.8</ele><time>2026-04-12T09:53:33.13Z</time></trkpt><trkpt lat="43.472628" lon="11.9812928"><ele>916.0</ele><time>2026-04-12T09:53:34.138Z</time></trkpt><trkpt lat="43.4726179" lon="11.981169"><ele>916.0</ele><time>2026-04-12T09:53:35.131Z</time></trkpt><trkpt lat="43.4725891" lon="11.9810474"><ele>915.9999999999999</ele><time>2026-04-12T09:53:36.148Z</time></trkpt><trkpt lat="43.4725436" lon="11.9809353"><ele>915.9999999999999</ele><time>2026-04-12T09:53:37.145Z</time></trkpt><trkpt lat="43.4724858" lon="11.9808193"><ele>916.0</ele><time>2026-04-12T09:53:38.147Z</time></trkpt><trkpt lat="43.4724229" lon="11.9806952"><ele>916.0</ele><time>2026-04-12T09:53:39.153Z</time></trkpt><trkpt lat="43.4723493" lon="11.980565"><ele>917.25</ele><time>2026-04-12T09:53:40.148Z</time></trkpt><trkpt lat="43.472264" lon="11.9804253"><ele>918.5</ele><time>2026-04-12T09:53:41.127Z</time></trkpt><trkpt lat="43.4721876" lon="11.9803073"><ele>919.75</ele><time>2026-04-12T09:53:42.139Z</time></trkpt><trkpt lat="43.4721047" lon="11.9802167"><ele>921.0</ele><time>2026-04-12T09:53:43.137Z</time></trkpt><trkpt lat="43.4720082" lon="11.9801478"><ele>921.0</ele><time>2026-04-12T09:53:44.142Z</time></trkpt><trkpt lat="43.4718956" lon="11.9800832"><ele>921.0</ele><time>2026-04-12T09:53:45.132Z</time></trkpt><trkpt lat="43.4717705" lon="11.9800391"><ele>921.0</ele><time>2026-04-12T09:53:46.123Z</time></trkpt><trkpt lat="43.4716439" lon="11.9800151"><ele>921.0</ele><time>2026-04-12T09:53:47.133Z</time></trkpt><trkpt lat="43.4715031" lon="11.9800075"><ele>924.25</ele><time>2026-04-12T09:53:48.14Z</time></trkpt><trkpt lat="43.4713654" lon="11.9799973"><ele>927.5</ele><time>2026-04-12T09:53:49.144Z</time></trkpt><trkpt lat="43.4712362" lon="11.9799801"><ele>930.75</ele><time>2026-04-12T09:53:50.134Z</time></trkpt><trkpt lat="43.471107" lon="11.9799696"><ele>934.0</ele><time>2026-04-12T09:53:51.152Z</time></trkpt><trkpt lat="43.4709724" lon="11.9799598"><ele>936.2</ele><time>2026-04-12T09:53:52.135Z</time></trkpt><trkpt lat="43.4708477" lon="11.9799686"><ele>938.4000000000001</ele><time>2026-04-12T09:53:53.146Z</time></trkpt><trkpt lat="43.4707399" lon="11.9799792"><ele>940.6</ele><time>2026-04-12T09:53:54.146Z</time></trkpt><trkpt lat="43.4706488" lon="11.9799876"><ele>942.8</ele><time>2026-04-12T09:53:55.15Z</time></trkpt><trkpt lat="43.4705604" lon="11.9799727"><ele>945.0</ele><time>2026-04-12T09:53:56.133Z</time></trkpt><trkpt lat="43.470474" lon="11.9799317"><ele>945.2</ele><time>2026-04-12T09:53:57.154Z</time></trkpt><trkpt lat="43.4703916" lon="11.9798668"><ele>945.4</ele><time>2026-04-12T09:53:58.155Z</time></trkpt><trkpt lat="43.4703133" lon="11.9797847"><ele>945.5999999999999</ele><time>2026-04-12T09:53:59.155Z</time></trkpt><trkpt lat="43.4702404" lon="11.9796842"><ele>945.8</ele><time>2026-04-12T09:54:00.146Z</time></trkpt><trkpt lat="43.4701741" lon="11.9795754"><ele>946.0</ele><time>2026-04-12T09:54:01.136Z</time></trkpt><trkpt lat="43.4701203" lon="11.9794702"><ele>946.0</ele><time>2026-04-12T09:54:02.148Z</time></trkpt><trkpt lat="43.4700778" lon="11.9793634"><ele>945.9999999999999</ele><time>2026-04-12T09:54:03.137Z</time></trkpt><trkpt lat="43.4700379" lon="11.9792525"><ele>945.9999999999999</ele><time>2026-04-12T09:54:04.141Z</time></trkpt><trkpt lat="43.4699924" lon="11.9791346"><ele>946.0</ele><time>2026-04-12T09:54:05.15Z</time></trkpt><trkpt lat="43.4699374" lon="11.9790117"><ele>946.0</ele><time>2026-04-12T09:54:06.145Z</time></trkpt><trkpt lat="43.4698763" lon="11.9788783"><ele>948.4</ele><time>2026-04-12T09:54:07.148Z</time></trkpt><trkpt lat="43.4698199" lon="11.9787463"><ele>950.8</ele><time>2026-04-12T09:54:08.142Z</time></trkpt><trkpt lat="43.4697662" lon="11.9786222"><ele>953.1999999999999</ele><time>2026-04-12T09:54:09.158Z</time></trkpt><trkpt lat="43.4697134" lon="11.9785036"><ele>955.5999999999999</ele><time>2026-04-12T09:54:10.157Z</time></trkpt><trkpt lat="43.4696668" lon="11.9783898"><ele>958.0</ele><time>2026-04-12T09:54:11.137Z</time></trkpt><trkpt lat="43.4696292" lon="11.9782898"><ele>958.0</ele><time>2026-04-12T09:54:12.151Z</time></trkpt><trkpt lat="43.4695889" lon="11.9781638"><ele>958.0</ele><time>2026-04-12T09:54:14.135Z</time></trkpt><trkpt lat="43.4696103" lon="11.9782994"><ele>958.0</ele><time>2026-04-12T09:54:20.141Z</time></trkpt><trkpt lat="43.4696601" lon="11.9784"><ele>958.0</ele><time>2026-04-12T09:54:21.138Z</time></trkpt><trkpt lat="43.4697155" lon="11.9785374"><ele>958.0</ele><time>2026-04-12T09:54:22.149Z</time></trkpt><trkpt lat="43.4697777" lon="11.9786955"><ele>958.0</ele><time>2026-04-12T09:54:23.145Z</time></trkpt><trkpt lat="43.4698426" lon="11.9788523"><ele>958.0</ele><time>2026-04-12T09:54:24.129Z</time></trkpt><trkpt lat="43.4698923" lon="11.9789738"><ele>958.0</ele><time>2026-04-12T09:54:25.127Z</time></trkpt><trkpt lat="43.4699328" lon="11.9790597"><ele>958.0</ele><time>2026-04-12T09:54:26.141Z</time></trkpt><trkpt lat="43.4700347" lon="11.9791392"><ele>958.0</ele><time>2026-04-12T09:54:28.139Z</time></trkpt><trkpt lat="43.4701388" lon="11.9791388"><ele>957.9999999999999</ele><time>2026-04-12T09:54:30.145Z</time></trkpt><trkpt lat="43.4702183" lon="11.9789937"><ele>958.0</ele><time>2026-04-12T09:54:32.127Z</time></trkpt><trkpt lat="43.4702372" lon="11.9789058"><ele>958.0</ele><time>2026-04-12T09:54:33.145Z</time></trkpt><trkpt lat="43.4702485" lon="11.9788106"><ele>958.0</ele><time>2026-04-12T09:54:34.138Z</time></trkpt><trkpt lat="43.4702426" lon="11.9786943"><ele>957.9999999999999</ele><time>2026-04-12T09:54:35.15Z</time></trkpt><trkpt lat="43.4702362" lon="11.9785837"><ele>958.0</ele><time>2026-04-12T09:54:36.145Z</time></trkpt><trkpt lat="43.4702373" lon="11.9784777"><ele>957.9999999999999</ele><time>2026-04-12T09:54:37.143Z</time></trkpt><trkpt lat="43.4702595" lon="11.9783962"><ele>958.0</ele><time>2026-04-12T09:54:38.128Z</time></trkpt><trkpt lat="43.4703055" lon="11.9783235"><ele>958.0</ele><time>2026-04-12T09:54:39.153Z</time></trkpt><trkpt lat="43.4703885" lon="11.9782434"><ele>958.0</ele><time>2026-04-12T09:54:40.141Z</time></trkpt><trkpt lat="43.4704697" lon="11.9781716"><ele>957.9999999999999</ele><time>2026-04-12T09:54:41.144Z</time></trkpt><trkpt lat="43.4705377" lon="11.9780936"><ele>958.0</ele><time>2026-04-12T09:54:42.133Z</time></trkpt><trkpt lat="43.4705986" lon="11.9780202"><ele>958.8</ele><time>2026-04-12T09:54:43.159Z</time></trkpt><trkpt lat="43.4706146" lon="11.9779334"><ele>959.5999999999999</ele><time>2026-04-12T09:54:44.152Z</time></trkpt><trkpt lat="43.4705885" lon="11.9777643"><ele>960.4000000000001</ele><time>2026-04-12T09:54:46.148Z</time></trkpt><trkpt lat="43.4705551" lon="11.9776587"><ele>961.2</ele><time>2026-04-12T09:54:47.134Z</time></trkpt><trkpt lat="43.4704841" lon="11.9775678"><ele>962.0</ele><time>2026-04-12T09:54:48.145Z</time></trkpt><trkpt lat="43.470434" lon="11.9774815"><ele>964.8333333333334</ele><time>2026-04-12T09:54:49.142Z</time></trkpt><trkpt lat="43.4704057" lon="11.9773667"><ele>967.6666666666667</ele><time>2026-04-12T09:54:50.133Z</time></trkpt><trkpt lat="43.4703794" lon="11.9772434"><ele>970.5</ele><time>2026-04-12T09:54:51.148Z</time></trkpt><trkpt lat="43.4703387" lon="11.9771497"><ele>973.3333333333333</ele><time>2026-04-12T09:54:52.133Z</time></trkpt><trkpt lat="43.4702905" lon="11.9770898"><ele>976.1666666666666</ele><time>2026-04-12T09:54:53.149Z</time></trkpt><trkpt lat="43.4702333" lon="11.9770258"><ele>979.0</ele><time>2026-04-12T09:54:54.146Z</time></trkpt><trkpt lat="43.4701412" lon="11.9769849"><ele>979.0</ele><time>2026-04-12T09:54:55.151Z</time></trkpt><trkpt lat="43.4700478" lon="11.9769483"><ele>979.0000000000001</ele><time>2026-04-12T09:54:56.15Z</time></trkpt><trkpt lat="43.4699733" lon="11.976909"><ele>979.0000000000001</ele><time>2026-04-12T09:54:57.154Z</time></trkpt><trkpt lat="43.4699244" lon="11.9768515"><ele>979.0</ele><time>2026-04-12T09:54:58.148Z</time></trkpt><trkpt lat="43.4698947" lon="11.9766833"><ele>979.0</ele><time>2026-04-12T09:55:00.164Z</time></trkpt><trkpt lat="43.4699064" lon="11.9765439"><ele>977.0</ele><time>2026-04-12T09:55:01.148Z</time></trkpt><trkpt lat="43.4699233" lon="11.9763761"><ele>975.0</ele><time>2026-04-12T09:55:02.135Z</time></trkpt><trkpt lat="43.4699361" lon="11.976197"><ele>973.0</ele><time>2026-04-12T09:55:03.154Z</time></trkpt><trkpt lat="43.4699375" lon="11.9760091"><ele>971.0</ele><time>2026-04-12T09:55:04.149Z</time></trkpt><trkpt lat="43.4699352" lon="11.9758396"><ele>969.5999999999999</ele><time>2026-04-12T09:55:05.155Z</time></trkpt><trkpt lat="43.4699353" lon="11.9757011"><ele>968.1999999999999</ele><time>2026-04-12T09:55:06.149Z</time></trkpt><trkpt lat="43.4699498" lon="11.9755872"><ele>966.8000000000001</ele><time>2026-04-12T09:55:07.156Z</time></trkpt><trkpt lat="43.4699816" lon="11.975475"><ele>965.4000000000001</ele><time>2026-04-12T09:55:08.162Z</time></trkpt><trkpt lat="43.47003" lon="11.975368"><ele>964.0</ele><time>2026-04-12T09:55:09.15Z</time></trkpt><trkpt lat="43.4700974" lon="11.9752599"><ele>964.0</ele><time>2026-04-12T09:55:10.147Z</time></trkpt><trkpt lat="43.4701811" lon="11.975144"><ele>964.0000000000001</ele><time>2026-04-12T09:55:11.145Z</time></trkpt><trkpt lat="43.470265" lon="11.9750365"><ele>964.0000000000001</ele><time>2026-04-12T09:55:12.138Z</time></trkpt><trkpt lat="43.4703528" lon="11.9749498"><ele>964.0</ele><time>2026-04-12T09:55:13.149Z</time></trkpt><trkpt lat="43.4704366" lon="11.9748811"><ele>964.0</ele><time>2026-04-12T09:55:14.149Z</time></trkpt><trkpt lat="43.4705162" lon="11.9748351"><ele>964.2</ele><time>2026-04-12T09:55:15.133Z</time></trkpt><trkpt lat="43.4705952" lon="11.9748181"><ele>964.4000000000001</ele><time>2026-04-12T09:55:16.157Z</time></trkpt><trkpt lat="43.470674" lon="11.9748337"><ele>964.6</ele><time>2026-04-12T09:55:17.137Z</time></trkpt><trkpt lat="43.4707683" lon="11.9748792"><ele>964.8</ele><time>2026-04-12T09:55:18.141Z</time></trkpt><trkpt lat="43.4708781" lon="11.9749449"><ele>965.0</ele><time>2026-04-12T09:55:19.149Z</time></trkpt><trkpt lat="43.4709884" lon="11.9750222"><ele>964.4</ele><time>2026-04-12T09:55:20.146Z</time></trkpt><trkpt lat="43.4710862" lon="11.9750916"><ele>963.8</ele><time>2026-04-12T09:55:21.144Z</time></trkpt><trkpt lat="43.4711743" lon="11.9751445"><ele>963.2</ele><time>2026-04-12T09:55:22.125Z</time></trkpt><trkpt lat="43.47126" lon="11.9751773"><ele>962.6</ele><time>2026-04-12T09:55:23.155Z</time></trkpt><trkpt lat="43.4713536" lon="11.9751816"><ele>962.0</ele><time>2026-04-12T09:55:24.15Z</time></trkpt><trkpt lat="43.4714364" lon="11.9751671"><ele>962.0000000000001</ele><time>2026-04-12T09:55:25.138Z</time></trkpt><trkpt lat="43.4715005" lon="11.9751413"><ele>962.0</ele><time>2026-04-12T09:55:26.144Z</time></trkpt><trkpt lat="43.4715731" lon="11.9750261"><ele>962.0</ele><time>2026-04-12T09:55:28.157Z</time></trkpt><trkpt lat="43.4715831" lon="11.9749323"><ele>962.0</ele><time>2026-04-12T09:55:29.14Z</time></trkpt><trkpt lat="43.4715916" lon="11.9748386"><ele>962.0000000000001</ele><time>2026-04-12T09:55:30.145Z</time></trkpt><trkpt lat="43.471581" lon="11.974742"><ele>962.0</ele><time>2026-04-12T09:55:31.163Z</time></trkpt><trkpt lat="43.4715465" lon="11.9746445"><ele>962.5000000000001</ele><time>2026-04-12T09:55:32.15Z</time></trkpt><trkpt lat="43.4714825" lon="11.97457"><ele>963.0</ele><time>2026-04-12T09:55:33.151Z</time></trkpt><trkpt lat="43.4714149" lon="11.9745222"><ele>963.5</ele><time>2026-04-12T09:55:34.136Z</time></trkpt><trkpt lat="43.4713491" lon="11.974497"><ele>964.0</ele><time>2026-04-12T09:55:35.141Z</time></trkpt><trkpt lat="43.4712753" lon="11.9744735"><ele>964.5000000000001</ele><time>2026-04-12T09:55:36.131Z</time></trkpt><trkpt lat="43.4711807" lon="11.9744696"><ele>965.0</ele><time>2026-04-12T09:55:37.148Z</time></trkpt><trkpt lat="43.4710831" lon="11.9744617"><ele>965.0000000000001</ele><time>2026-04-12T09:55:38.15Z</time></trkpt><trkpt lat="43.4709842" lon="11.974437"><ele>965.0</ele><time>2026-04-12T09:55:39.145Z</time></trkpt><trkpt lat="43.4708927" lon="11.9744057"><ele>965.0</ele><time>2026-04-12T09:55:40.148Z</time></trkpt><trkpt lat="43.4708123" lon="11.9743554"><ele>965.0</ele><time>2026-04-12T09:55:41.131Z</time></trkpt><trkpt lat="43.4707476" lon="11.9742968"><ele>965.0000000000001</ele><time>2026-04-12T09:55:42.124Z</time></trkpt><trkpt lat="43.4706863" lon="11.9742347"><ele>965.0</ele><time>2026-04-12T09:55:43.145Z</time></trkpt><trkpt lat="43.4706316" lon="11.9741533"><ele>964.5000000000001</ele><time>2026-04-12T09:55:44.158Z</time></trkpt><trkpt lat="43.470597" lon="11.9740596"><ele>964.0</ele><time>2026-04-12T09:55:45.138Z</time></trkpt><trkpt lat="43.4705838" lon="11.9739474"><ele>963.5</ele><time>2026-04-12T09:55:46.145Z</time></trkpt><trkpt lat="43.4705797" lon="11.9738197"><ele>963.0</ele><time>2026-04-12T09:55:47.144Z</time></trkpt><trkpt lat="43.4706002" lon="11.9736988"><ele>962.5000000000001</ele><time>2026-04-12T09:55:48.134Z</time></trkpt><trkpt lat="43.4706384" lon="11.973597"><ele>962.0</ele><time>2026-04-12T09:55:49.138Z</time></trkpt><trkpt lat="43.4706769" lon="11.9734877"><ele>962.0000000000001</ele><time>2026-04-12T09:55:50.15Z</time></trkpt><trkpt lat="43.4707148" lon="11.9733961"><ele>962.0</ele><time>2026-04-12T09:55:51.15Z</time></trkpt><trkpt lat="43.4707668" lon="11.9733126"><ele>962.0</ele><time>2026-04-12T09:55:52.152Z</time></trkpt><trkpt lat="43.4708215" lon="11.9732321"><ele>962.0</ele><time>2026-04-12T09:55:53.151Z</time></trkpt><trkpt lat="43.4708693" lon="11.9731413"><ele>962.0000000000001</ele><time>2026-04-12T09:55:54.13Z</time></trkpt><trkpt lat="43.4709063" lon="11.973046"><ele>962.0</ele><time>2026-04-12T09:55:55.146Z</time></trkpt><trkpt lat="43.4709319" lon="11.9729371"><ele>960.3333333333334</ele><time>2026-04-12T09:55:56.147Z</time></trkpt><trkpt lat="43.4709487" lon="11.9728235"><ele>958.6666666666667</ele><time>2026-04-12T09:55:57.149Z</time></trkpt><trkpt lat="43.4709611" lon="11.9727043"><ele>957.0</ele><time>2026-04-12T09:55:58.139Z</time></trkpt><trkpt lat="43.4709745" lon="11.9725825"><ele>955.3333333333333</ele><time>2026-04-12T09:55:59.151Z</time></trkpt><trkpt lat="43.4709879" lon="11.9724591"><ele>953.6666666666666</ele><time>2026-04-12T09:56:00.153Z</time></trkpt><trkpt lat="43.4710008" lon="11.972344"><ele>952.0</ele><time>2026-04-12T09:56:01.144Z</time></trkpt><trkpt lat="43.4710158" lon="11.9722186"><ele>950.3333333333333</ele><time>2026-04-12T09:56:02.158Z</time></trkpt><trkpt lat="43.4710323" lon="11.9721039"><ele>948.6666666666666</ele><time>2026-04-12T09:56:03.139Z</time></trkpt><trkpt lat="43.4710461" lon="11.9719934"><ele>947.0</ele><time>2026-04-12T09:56:04.158Z</time></trkpt><trkpt lat="43.4710596" lon="11.9718761"><ele>945.3333333333333</ele><time>2026-04-12T09:56:05.147Z</time></trkpt><trkpt lat="43.4710741" lon="11.9717517"><ele>943.6666666666666</ele><time>2026-04-12T09:56:06.148Z</time></trkpt><trkpt lat="43.471082" lon="11.9716401"><ele>942.0</ele><time>2026-04-12T09:56:07.159Z</time></trkpt><trkpt lat="43.4710858" lon="11.9715512"><ele>940.1666666666666</ele><time>2026-04-12T09:56:08.149Z</time></trkpt><trkpt lat="43.4710247" lon="11.9714321"><ele>938.3333333333333</ele><time>2026-04-12T09:56:10.141Z</time></trkpt><trkpt lat="43.4709622" lon="11.9714026"><ele>936.5</ele><time>2026-04-12T09:56:11.166Z</time></trkpt><trkpt lat="43.4708982" lon="11.9714055"><ele>934.6666666666666</ele><time>2026-04-12T09:56:12.142Z</time></trkpt><trkpt lat="43.47083" lon="11.9714236"><ele>932.8333333333333</ele><time>2026-04-12T09:56:13.153Z</time></trkpt><trkpt lat="43.4707513" lon="11.9714509"><ele>931.0</ele><time>2026-04-12T09:56:14.151Z</time></trkpt><trkpt lat="43.4706543" lon="11.9714972"><ele>931.0</ele><time>2026-04-12T09:56:15.132Z</time></trkpt><trkpt lat="43.4705424" lon="11.9715499"><ele>931.0</ele><time>2026-04-12T09:56:16.14Z</time></trkpt><trkpt lat="43.4704217" lon="11.9715993"><ele>931.0</ele><time>2026-04-12T09:56:17.148Z</time></trkpt><trkpt lat="43.4703115" lon="11.9716461"><ele>931.0</ele><time>2026-04-12T09:56:18.156Z</time></trkpt><trkpt lat="43.4702078" lon="11.9717012"><ele>932.4</ele><time>2026-04-12T09:56:19.133Z</time></trkpt><trkpt lat="43.4701058" lon="11.9717629"><ele>933.8</ele><time>2026-04-12T09:56:20.147Z</time></trkpt><trkpt lat="43.4700197" lon="11.9718243"><ele>935.1999999999999</ele><time>2026-04-12T09:56:21.147Z</time></trkpt><trkpt lat="43.4699461" lon="11.9718941"><ele>936.5999999999999</ele><time>2026-04-12T09:56:22.162Z</time></trkpt><trkpt lat="43.4698699" lon="11.9719674"><ele>938.0</ele><time>2026-04-12T09:56:23.159Z</time></trkpt><trkpt lat="43.4698006" lon="11.9720908"><ele>938.0</ele><time>2026-04-12T09:56:24.156Z</time></trkpt><trkpt lat="43.4697226" lon="11.9722042"><ele>938.0</ele><time>2026-04-12T09:56:25.143Z</time></trkpt><trkpt lat="43.4696315" lon="11.9723092"><ele>938.0</ele><time>2026-04-12T09:56:26.127Z</time></trkpt><trkpt lat="43.4695349" lon="11.9723999"><ele>938.0</ele><time>2026-04-12T09:56:27.135Z</time></trkpt><trkpt lat="43.4694429" lon="11.9724853"><ele>937.8</ele><time>2026-04-12T09:56:28.129Z</time></trkpt><trkpt lat="43.4693463" lon="11.9725378"><ele>937.5999999999999</ele><time>2026-04-12T09:56:29.126Z</time></trkpt><trkpt lat="43.4692507" lon="11.9725743"><ele>937.4000000000001</ele><time>2026-04-12T09:56:30.153Z</time></trkpt><trkpt lat="43.4691581" lon="11.9726097"><ele>937.2</ele><time>2026-04-12T09:56:31.173Z</time></trkpt><trkpt lat="43.469065" lon="11.972646"><ele>937.0</ele><time>2026-04-12T09:56:32.148Z</time></trkpt><trkpt lat="43.4689872" lon="11.9726804"><ele>937.0</ele><time>2026-04-12T09:56:33.17Z</time></trkpt><trkpt lat="43.4689235" lon="11.9727231"><ele>937.0</ele><time>2026-04-12T09:56:34.131Z</time></trkpt><trkpt lat="43.4688241" lon="11.972768"><ele>937.0</ele><time>2026-04-12T09:56:36.138Z</time></trkpt><trkpt lat="43.4687541" lon="11.9727078"><ele>937.0</ele><time>2026-04-12T09:56:38.119Z</time></trkpt><trkpt lat="43.4687264" lon="11.9726081"><ele>937.0</ele><time>2026-04-12T09:56:40.125Z</time></trkpt><trkpt lat="43.4687725" lon="11.9724535"><ele>935.6</ele><time>2026-04-12T09:56:42.155Z</time></trkpt><trkpt lat="43.468821" lon="11.9723617"><ele>934.2</ele><time>2026-04-12T09:56:43.154Z</time></trkpt><trkpt lat="43.4688819" lon="11.9722543"><ele>932.8</ele><time>2026-04-12T09:56:44.152Z</time></trkpt><trkpt lat="43.4689483" lon="11.97214"><ele>931.4</ele><time>2026-04-12T09:56:45.157Z</time></trkpt><trkpt lat="43.4690154" lon="11.9720267"><ele>930.0</ele><time>2026-04-12T09:56:46.149Z</time></trkpt><trkpt lat="43.4690814" lon="11.9719149"><ele>930.0</ele><time>2026-04-12T09:56:47.129Z</time></trkpt><trkpt lat="43.469147" lon="11.9718015"><ele>930.0</ele><time>2026-04-12T09:56:48.14Z</time></trkpt><trkpt lat="43.469217" lon="11.9716876"><ele>930.0</ele><time>2026-04-12T09:56:49.149Z</time></trkpt><trkpt lat="43.4692874" lon="11.9715722"><ele>930.0</ele><time>2026-04-12T09:56:50.159Z</time></trkpt><trkpt lat="43.4693598" lon="11.971454"><ele>930.0</ele><time>2026-04-12T09:56:51.145Z</time></trkpt><trkpt lat="43.4694329" lon="11.9713346"><ele>929.0</ele><time>2026-04-12T09:56:52.148Z</time></trkpt><trkpt lat="43.4695067" lon="11.9712157"><ele>928.0</ele><time>2026-04-12T09:56:53.159Z</time></trkpt><trkpt lat="43.4695787" lon="11.9710977"><ele>927.0</ele><time>2026-04-12T09:56:54.14Z</time></trkpt><trkpt lat="43.4696435" lon="11.9709758"><ele>926.0</ele><time>2026-04-12T09:56:55.147Z</time></trkpt><trkpt lat="43.4696982" lon="11.970849"><ele>925.0</ele><time>2026-04-12T09:56:56.132Z</time></trkpt><trkpt lat="43.4697539" lon="11.9707307"><ele>921.5</ele><time>2026-04-12T09:56:57.146Z</time></trkpt><trkpt lat="43.4698177" lon="11.9706201"><ele>918.0</ele><time>2026-04-12T09:56:58.146Z</time></trkpt><trkpt lat="43.4698907" lon="11.9705093"><ele>914.5</ele><time>2026-04-12T09:56:59.152Z</time></trkpt><trkpt lat="43.469977" lon="11.9703915"><ele>911.0</ele><time>2026-04-12T09:57:00.152Z</time></trkpt><trkpt lat="43.4700775" lon="11.9702706"><ele>911.0</ele><time>2026-04-12T09:57:01.146Z</time></trkpt><trkpt lat="43.4701868" lon="11.9701426"><ele>911.0</ele><time>2026-04-12T09:57:02.134Z</time></trkpt><trkpt lat="43.4702937" lon="11.9700174"><ele>911.0</ele><time>2026-04-12T09:57:03.149Z</time></trkpt><trkpt lat="43.4703978" lon="11.9698965"><ele>911.0</ele><time>2026-04-12T09:57:04.151Z</time></trkpt><trkpt lat="43.4704988" lon="11.969775"><ele>909.5</ele><time>2026-04-12T09:57:05.148Z</time></trkpt><trkpt lat="43.4705956" lon="11.96965"><ele>908.0</ele><time>2026-04-12T09:57:06.136Z</time></trkpt><trkpt lat="43.4706867" lon="11.9695229"><ele>906.5</ele><time>2026-04-12T09:57:07.147Z</time></trkpt><trkpt lat="43.470771" lon="11.969392"><ele>905.0</ele><time>2026-04-12T09:57:08.151Z</time></trkpt><trkpt lat="43.4708514" lon="11.9692662"><ele>904.0</ele><time>2026-04-12T09:57:09.146Z</time></trkpt><trkpt lat="43.4709298" lon="11.9691555"><ele>903.0</ele><time>2026-04-12T09:57:10.141Z</time></trkpt><trkpt lat="43.471013" lon="11.9690673"><ele>902.0</ele><time>2026-04-12T09:57:11.153Z</time></trkpt><trkpt lat="43.4711099" lon="11.9689971"><ele>901.0</ele><time>2026-04-12T09:57:12.148Z</time></trkpt><trkpt lat="43.4712079" lon="11.968933"><ele>900.0</ele><time>2026-04-12T09:57:13.129Z</time></trkpt><trkpt lat="43.4712864" lon="11.9688663"><ele>900.0</ele><time>2026-04-12T09:57:14.14Z</time></trkpt><trkpt lat="43.4713462" lon="11.9687925"><ele>900.0</ele><time>2026-04-12T09:57:15.13Z</time></trkpt><trkpt lat="43.471387" lon="11.9687014"><ele>900.0</ele><time>2026-04-12T09:57:16.136Z</time></trkpt><trkpt lat="43.4714116" lon="11.9685809"><ele>900.0</ele><time>2026-04-12T09:57:17.132Z</time></trkpt><trkpt lat="43.4714411" lon="11.9684376"><ele>900.0</ele><time>2026-04-12T09:57:18.14Z</time></trkpt><trkpt lat="43.4714716" lon="11.9682511"><ele>898.25</ele><time>2026-04-12T09:57:19.149Z</time></trkpt><trkpt lat="43.4715081" lon="11.9680594"><ele>896.5</ele><time>2026-04-12T09:57:20.126Z</time></trkpt><trkpt lat="43.4715417" lon="11.9678742"><ele>894.75</ele><time>2026-04-12T09:57:21.139Z</time></trkpt><trkpt lat="43.4715709" lon="11.9676908"><ele>893.0</ele><time>2026-04-12T09:57:22.146Z</time></trkpt><trkpt lat="43.4715952" lon="11.9675087"><ele>891.0</ele><time>2026-04-12T09:57:23.138Z</time></trkpt><trkpt lat="43.4716208" lon="11.9673283"><ele>889.0</ele><time>2026-04-12T09:57:24.155Z</time></trkpt><trkpt lat="43.4716483" lon="11.9671596"><ele>887.0</ele><time>2026-04-12T09:57:25.146Z</time></trkpt><trkpt lat="43.4716836" lon="11.9669955"><ele>885.0</ele><time>2026-04-12T09:57:26.162Z</time></trkpt><trkpt lat="43.4717222" lon="11.966841"><ele>885.0</ele><time>2026-04-12T09:57:27.162Z</time></trkpt><trkpt lat="43.4717627" lon="11.9666965"><ele>885.0</ele><time>2026-04-12T09:57:28.154Z</time></trkpt><trkpt lat="43.4718039" lon="11.9665593"><ele>885.0</ele><time>2026-04-12T09:57:29.16Z</time></trkpt><trkpt lat="43.4718453" lon="11.9664342"><ele>885.0</ele><time>2026-04-12T09:57:30.148Z</time></trkpt><trkpt lat="43.4718921" lon="11.9663224"><ele>885.0</ele><time>2026-04-12T09:57:31.151Z</time></trkpt><trkpt lat="43.471945" lon="11.9662225"><ele>883.8333333333334</ele><time>2026-04-12T09:57:32.146Z</time></trkpt><trkpt lat="43.4720013" lon="11.9661357"><ele>882.6666666666667</ele><time>2026-04-12T09:57:33.155Z</time></trkpt><trkpt lat="43.4720631" lon="11.9660608"><ele>881.5</ele><time>2026-04-12T09:57:34.155Z</time></trkpt><trkpt lat="43.47213" lon="11.966004"><ele>880.3333333333334</ele><time>2026-04-12T09:57:35.144Z</time></trkpt><trkpt lat="43.4721977" lon="11.9659697"><ele>879.1666666666667</ele><time>2026-04-12T09:57:36.157Z</time></trkpt><trkpt lat="43.4722669" lon="11.9659632"><ele>878.0</ele><time>2026-04-12T09:57:37.149Z</time></trkpt><trkpt lat="43.4723355" lon="11.9659898"><ele>878.0</ele><time>2026-04-12T09:57:38.147Z</time></trkpt><trkpt lat="43.4724021" lon="11.9660432"><ele>878.0</ele><time>2026-04-12T09:57:39.152Z</time></trkpt><trkpt lat="43.4724749" lon="11.9661166"><ele>878.0</ele><time>2026-04-12T09:57:40.155Z</time></trkpt><trkpt lat="43.4725502" lon="11.966204"><ele>878.0</ele><time>2026-04-12T09:57:41.14Z</time></trkpt><trkpt lat="43.4726241" lon="11.9662974"><ele>878.0</ele><time>2026-04-12T09:57:42.153Z</time></trkpt><trkpt lat="43.4726966" lon="11.9663944"><ele>878.0</ele><time>2026-04-12T09:57:43.144Z</time></trkpt><trkpt lat="43.4727584" lon="11.9665028"><ele>878.0</ele><time>2026-04-12T09:57:44.151Z</time></trkpt><trkpt lat="43.4728139" lon="11.9666128"><ele>878.0</ele><time>2026-04-12T09:57:45.145Z</time></trkpt><trkpt lat="43.4728664" lon="11.9667164"><ele>878.0</ele><time>2026-04-12T09:57:46.15Z</time></trkpt><trkpt lat="43.4729407" lon="11.9668013"><ele>878.0</ele><time>2026-04-12T09:57:47.15Z</time></trkpt><trkpt lat="43.4730107" lon="11.9668791"><ele>876.75</ele><time>2026-04-12T09:57:48.147Z</time></trkpt><trkpt lat="43.4731068" lon="11.9669511"><ele>875.5</ele><time>2026-04-12T09:57:49.125Z</time></trkpt><trkpt lat="43.4732143" lon="11.9670018"><ele>874.25</ele><time>2026-04-12T09:57:50.134Z</time></trkpt><trkpt lat="43.4733386" lon="11.96703"><ele>873.0</ele><time>2026-04-12T09:57:51.135Z</time></trkpt><trkpt lat="43.4734745" lon="11.9670491"><ele>873.0</ele><time>2026-04-12T09:57:52.141Z</time></trkpt><trkpt lat="43.4736081" lon="11.9670667"><ele>873.0</ele><time>2026-04-12T09:57:53.129Z</time></trkpt><trkpt lat="43.4737398" lon="11.967077"><ele>873.0</ele><time>2026-04-12T09:57:54.13Z</time></trkpt><trkpt lat="43.4738695" lon="11.9670837"><ele>873.0</ele><time>2026-04-12T09:57:55.132Z</time></trkpt><trkpt lat="43.4739879" lon="11.9670805"><ele>871.0</ele><time>2026-04-12T09:57:56.129Z</time></trkpt><trkpt lat="43.4741001" lon="11.9670673"><ele>869.0</ele><time>2026-04-12T09:57:57.14Z</time></trkpt><trkpt lat="43.4741978" lon="11.9670366"><ele>867.0</ele><time>2026-04-12T09:57:58.123Z</time></trkpt><trkpt lat="43.4742798" lon="11.9669778"><ele>865.0</ele><time>2026-04-12T09:57:59.144Z</time></trkpt><trkpt lat="43.4743492" lon="11.9669131"><ele>863.0</ele><time>2026-04-12T09:58:00.139Z</time></trkpt><trkpt lat="43.4744039" lon="11.9668551"><ele>863.0</ele><time>2026-04-12T09:58:01.133Z</time></trkpt><trkpt lat="43.4744809" lon="11.9667315"><ele>863.0</ele><time>2026-04-12T09:58:03.132Z</time></trkpt><trkpt lat="43.4745156" lon="11.9666566"><ele>863.0</ele><time>2026-04-12T09:58:04.14Z</time></trkpt><trkpt lat="43.4745563" lon="11.9665659"><ele>863.0</ele><time>2026-04-12T09:58:05.124Z</time></trkpt><trkpt lat="43.4746144" lon="11.9664498"><ele>863.0</ele><time>2026-04-12T09:58:06.125Z</time></trkpt><trkpt lat="43.4746784" lon="11.9663138"><ele>862.0</ele><time>2026-04-12T09:58:07.124Z</time></trkpt><trkpt lat="43.474758" lon="11.9661478"><ele>861.0</ele><time>2026-04-12T09:58:08.136Z</time></trkpt><trkpt lat="43.4748429" lon="11.9659754"><ele>860.0</ele><time>2026-04-12T09:58:09.12Z</time></trkpt><trkpt lat="43.4749256" lon="11.9658072"><ele>859.0</ele><time>2026-04-12T09:58:10.131Z</time></trkpt><trkpt lat="43.4750008" lon="11.9656441"><ele>856.75</ele><time>2026-04-12T09:58:11.128Z</time></trkpt><trkpt lat="43.475071" lon="11.9654901"><ele>854.5</ele><time>2026-04-12T09:58:12.126Z</time></trkpt><trkpt lat="43.4751416" lon="11.9653448"><ele>852.25</ele><time>2026-04-12T09:58:13.143Z</time></trkpt><trkpt lat="43.4752091" lon="11.9652084"><ele>850.0</ele><time>2026-04-12T09:58:14.13Z</time></trkpt><trkpt lat="43.4752654" lon="11.9650727"><ele>847.5</ele><time>2026-04-12T09:58:15.124Z</time></trkpt><trkpt lat="43.4752974" lon="11.9649257"><ele>845.0</ele><time>2026-04-12T09:58:16.134Z</time></trkpt><trkpt lat="43.4753144" lon="11.9647576"><ele>842.5</ele><time>2026-04-12T09:58:17.124Z</time></trkpt><trkpt lat="43.4753236" lon="11.9645821"><ele>840.0</ele><time>2026-04-12T09:58:18.13Z</time></trkpt><trkpt lat="43.4753309" lon="11.9644032"><ele>840.0</ele><time>2026-04-12T09:58:19.131Z</time></trkpt><trkpt lat="43.4753389" lon="11.9642149"><ele>840.0</ele><time>2026-04-12T09:58:20.142Z</time></trkpt><trkpt lat="43.4753521" lon="11.9640299"><ele>840.0</ele><time>2026-04-12T09:58:21.146Z</time></trkpt><trkpt lat="43.4753733" lon="11.963853"><ele>840.0</ele><time>2026-04-12T09:58:22.145Z</time></trkpt><trkpt lat="43.4754103" lon="11.963696"><ele>840.8</ele><time>2026-04-12T09:58:23.142Z</time></trkpt><trkpt lat="43.475467" lon="11.9635592"><ele>841.6</ele><time>2026-04-12T09:58:24.145Z</time></trkpt><trkpt lat="43.475533" lon="11.9634452"><ele>842.4000000000001</ele><time>2026-04-12T09:58:25.145Z</time></trkpt><trkpt lat="43.4755934" lon="11.9633426"><ele>843.2</ele><time>2026-04-12T09:58:26.148Z</time></trkpt><trkpt lat="43.4756408" lon="11.9632296"><ele>844.0</ele><time>2026-04-12T09:58:27.152Z</time></trkpt><trkpt lat="43.4756696" lon="11.9631034"><ele>841.6</ele><time>2026-04-12T09:58:28.131Z</time></trkpt><trkpt lat="43.4756849" lon="11.9629699"><ele>839.2</ele><time>2026-04-12T09:58:29.141Z</time></trkpt><trkpt lat="43.4757025" lon="11.9628358"><ele>836.8000000000001</ele><time>2026-04-12T09:58:30.136Z</time></trkpt><trkpt lat="43.4757201" lon="11.9627048"><ele>834.4000000000001</ele><time>2026-04-12T09:58:31.129Z</time></trkpt><trkpt lat="43.4757335" lon="11.9625799"><ele>832.0</ele><time>2026-04-12T09:58:32.144Z</time></trkpt><trkpt lat="43.4757443" lon="11.9624579"><ele>830.1666666666666</ele><time>2026-04-12T09:58:33.135Z</time></trkpt><trkpt lat="43.4757596" lon="11.9623416"><ele>828.3333333333333</ele><time>2026-04-12T09:58:34.126Z</time></trkpt><trkpt lat="43.4757819" lon="11.9622394"><ele>826.5</ele><time>2026-04-12T09:58:35.15Z</time></trkpt><trkpt lat="43.4758117" lon="11.962156"><ele>824.6666666666667</ele><time>2026-04-12T09:58:36.13Z</time></trkpt><trkpt lat="43.4759231" lon="11.9620715"><ele>822.8333333333334</ele><time>2026-04-12T09:58:38.132Z</time></trkpt><trkpt lat="43.4760049" lon="11.9620764"><ele>821.0</ele><time>2026-04-12T09:58:39.145Z</time></trkpt><trkpt lat="43.4760862" lon="11.9620836"><ele>821.0</ele><time>2026-04-12T09:58:40.133Z</time></trkpt><trkpt lat="43.4761712" lon="11.9620885"><ele>821.0</ele><time>2026-04-12T09:58:41.155Z</time></trkpt><trkpt lat="43.4762708" lon="11.9620174"><ele>821.0</ele><time>2026-04-12T09:58:42.13Z</time></trkpt><trkpt lat="43.476382" lon="11.9619221"><ele>821.0</ele><time>2026-04-12T09:58:43.148Z</time></trkpt><trkpt lat="43.4764859" lon="11.9618311"><ele>821.8</ele><time>2026-04-12T09:58:44.14Z</time></trkpt><trkpt lat="43.4765879" lon="11.9617486"><ele>822.5999999999999</ele><time>2026-04-12T09:58:45.136Z</time></trkpt><trkpt lat="43.4766817" lon="11.9616724"><ele>823.4</ele><time>2026-04-12T09:58:46.137Z</time></trkpt><trkpt lat="43.4767603" lon="11.9615886"><ele>824.2</ele><time>2026-04-12T09:58:47.131Z</time></trkpt><trkpt lat="43.476825" lon="11.9615021"><ele>825.0</ele><time>2026-04-12T09:58:48.126Z</time></trkpt><trkpt lat="43.4768859" lon="11.9614165"><ele>822.0</ele><time>2026-04-12T09:58:49.133Z</time></trkpt><trkpt lat="43.4769549" lon="11.9613353"><ele>819.0</ele><time>2026-04-12T09:58:50.15Z</time></trkpt><trkpt lat="43.4770304" lon="11.9612547"><ele>816.0</ele><time>2026-04-12T09:58:51.138Z</time></trkpt><trkpt lat="43.4771016" lon="11.9611716"><ele>813.0</ele><time>2026-04-12T09:58:52.134Z</time></trkpt><trkpt lat="43.477171" lon="11.961094"><ele>810.0</ele><time>2026-04-12T09:58:53.147Z</time></trkpt><trkpt lat="43.4772488" lon="11.9610262"><ele>810.0</ele><time>2026-04-12T09:58:54.125Z</time></trkpt><trkpt lat="43.4773345" lon="11.9609804"><ele>810.0</ele><time>2026-04-12T09:58:55.133Z</time></trkpt><trkpt lat="43.4774161" lon="11.9609334"><ele>810.0</ele><time>2026-04-12T09:58:56.13Z</time></trkpt><trkpt lat="43.4774805" lon="11.9608602"><ele>810.0</ele><time>2026-04-12T09:58:57.136Z</time></trkpt><trkpt lat="43.4775185" lon="11.9607655"><ele>810.0</ele><time>2026-04-12T09:58:58.13Z</time></trkpt><trkpt lat="43.4775212" lon="11.9606694"><ele>810.0</ele><time>2026-04-12T09:58:59.136Z</time></trkpt><trkpt lat="43.4774997" lon="11.9605729"><ele>808.0</ele><time>2026-04-12T09:59:00.128Z</time></trkpt><trkpt lat="43.4774624" lon="11.9604659"><ele>806.0</ele><time>2026-04-12T09:59:01.132Z</time></trkpt><trkpt lat="43.4774299" lon="11.9603384"><ele>804.0</ele><time>2026-04-12T09:59:02.136Z</time></trkpt><trkpt lat="43.4774089" lon="11.9602025"><ele>802.0</ele><time>2026-04-12T09:59:03.126Z</time></trkpt><trkpt lat="43.4774009" lon="11.9600615"><ele>800.0</ele><time>2026-04-12T09:59:04.123Z</time></trkpt><trkpt lat="43.4773997" lon="11.9599156"><ele>799.0</ele><time>2026-04-12T09:59:05.124Z</time></trkpt><trkpt lat="43.4774078" lon="11.9597649"><ele>798.0</ele><time>2026-04-12T09:59:06.143Z</time></trkpt><trkpt lat="43.4774218" lon="11.9596232"><ele>797.0</ele><time>2026-04-12T09:59:07.125Z</time></trkpt><trkpt lat="43.4774405" lon="11.9594963"><ele>796.0</ele><time>2026-04-12T09:59:08.145Z</time></trkpt><trkpt lat="43.4774698" lon="11.9593934"><ele>795.0</ele><time>2026-04-12T09:59:09.131Z</time></trkpt><trkpt lat="43.4775161" lon="11.9593014"><ele>795.0</ele><time>2026-04-12T09:59:10.143Z</time></trkpt><trkpt lat="43.4775789" lon="11.9592165"><ele>795.0</ele><time>2026-04-12T09:59:11.121Z</time></trkpt><trkpt lat="43.4776578" lon="11.9591252"><ele>795.0</ele><time>2026-04-12T09:59:12.13Z</time></trkpt><trkpt lat="43.4777387" lon="11.9590245"><ele>795.0</ele><time>2026-04-12T09:59:13.136Z</time></trkpt><trkpt lat="43.4778175" lon="11.958926"><ele>795.0</ele><time>2026-04-12T09:59:14.136Z</time></trkpt><trkpt lat="43.4778987" lon="11.9588371"><ele>795.0</ele><time>2026-04-12T09:59:15.143Z</time></trkpt><trkpt lat="43.4779809" lon="11.9587579"><ele>795.0</ele><time>2026-04-12T09:59:16.133Z</time></trkpt><trkpt lat="43.4780646" lon="11.9586897"><ele>795.0</ele><time>2026-04-12T09:59:17.137Z</time></trkpt><trkpt lat="43.4781489" lon="11.9586287"><ele>795.0</ele><time>2026-04-12T09:59:18.132Z</time></trkpt><trkpt lat="43.4782311" lon="11.958568"><ele>795.0</ele><time>2026-04-12T09:59:19.143Z</time></trkpt><trkpt lat="43.4783139" lon="11.958516"><ele>795.0</ele><time>2026-04-12T09:59:20.123Z</time></trkpt><trkpt lat="43.4783961" lon="11.9584743"><ele>795.0</ele><time>2026-04-12T09:59:21.138Z</time></trkpt><trkpt lat="43.4784811" lon="11.9584303"><ele>795.0</ele><time>2026-04-12T09:59:22.135Z</time></trkpt><trkpt lat="43.4785674" lon="11.9583745"><ele>795.0</ele><time>2026-04-12T09:59:23.129Z</time></trkpt><trkpt lat="43.478655" lon="11.9583167"><ele>795.0</ele><time>2026-04-12T09:59:24.129Z</time></trkpt><trkpt lat="43.4787471" lon="11.9582507"><ele>790.75</ele><time>2026-04-12T09:59:25.133Z</time></trkpt><trkpt lat="43.478841" lon="11.9581613"><ele>786.5</ele><time>2026-04-12T09:59:26.124Z</time></trkpt><trkpt lat="43.4789265" lon="11.9580559"><ele>782.25</ele><time>2026-04-12T09:59:27.132Z</time></trkpt><trkpt lat="43.4790086" lon="11.957944"><ele>778.0</ele><time>2026-04-12T09:59:28.129Z</time></trkpt><trkpt lat="43.4790815" lon="11.9578325"><ele>778.0</ele><time>2026-04-12T09:59:29.161Z</time></trkpt><trkpt lat="43.4791458" lon="11.9577219"><ele>778.0</ele><time>2026-04-12T09:59:30.128Z</time></trkpt><trkpt lat="43.4792023" lon="11.957616"><ele>778.0</ele><time>2026-04-12T09:59:31.133Z</time></trkpt><trkpt lat="43.4792577" lon="11.9575184"><ele>778.0</ele><time>2026-04-12T09:59:32.154Z</time></trkpt><trkpt lat="43.4793044" lon="11.9574139"><ele>778.0</ele><time>2026-04-12T09:59:33.142Z</time></trkpt><trkpt lat="43.4793435" lon="11.9572968"><ele>776.75</ele><time>2026-04-12T09:59:34.15Z</time></trkpt><trkpt lat="43.4793785" lon="11.9571576"><ele>775.5</ele><time>2026-04-12T09:59:35.144Z</time></trkpt><trkpt lat="43.4794097" lon="11.9570059"><ele>774.25</ele><time>2026-04-12T09:59:36.146Z</time></trkpt><trkpt lat="43.4794434" lon="11.9568341"><ele>773.0</ele><time>2026-04-12T09:59:37.153Z</time></trkpt><trkpt lat="43.4794856" lon="11.9566412"><ele>772.25</ele><time>2026-04-12T09:59:38.152Z</time></trkpt><trkpt lat="43.4795309" lon="11.9564435"><ele>771.5</ele><time>2026-04-12T09:59:39.144Z</time></trkpt><trkpt lat="43.4795718" lon="11.9562639"><ele>770.75</ele><time>2026-04-12T09:59:40.14Z</time></trkpt><trkpt lat="43.4796067" lon="11.956099"><ele>770.0</ele><time>2026-04-12T09:59:41.155Z</time></trkpt><trkpt lat="43.4796417" lon="11.9559332"><ele>775.0</ele><time>2026-04-12T09:59:42.133Z</time></trkpt><trkpt lat="43.4796776" lon="11.9557641"><ele>780.0</ele><time>2026-04-12T09:59:43.147Z</time></trkpt><trkpt lat="43.4797003" lon="11.9555978"><ele>785.0</ele><time>2026-04-12T09:59:44.157Z</time></trkpt><trkpt lat="43.4797084" lon="11.9554334"><ele>790.0</ele><time>2026-04-12T09:59:45.14Z</time></trkpt><trkpt lat="43.4797118" lon="11.9552673"><ele>790.0</ele><time>2026-04-12T09:59:46.148Z</time></trkpt><trkpt lat="43.4797246" lon="11.9550993"><ele>790.0</ele><time>2026-04-12T09:59:47.159Z</time></trkpt><trkpt lat="43.4797439" lon="11.9549389"><ele>790.0</ele><time>2026-04-12T09:59:48.152Z</time></trkpt><trkpt lat="43.479766" lon="11.9547951"><ele>790.0</ele><time>2026-04-12T09:59:49.135Z</time></trkpt><trkpt lat="43.4797909" lon="11.954675"><ele>790.0</ele><time>2026-04-12T09:59:50.137Z</time></trkpt><trkpt lat="43.479827" lon="11.9545706"><ele>789.4999999999999</ele><time>2026-04-12T09:59:51.144Z</time></trkpt><trkpt lat="43.4798782" lon="11.9544867"><ele>789.0</ele><time>2026-04-12T09:59:52.134Z</time></trkpt><trkpt lat="43.4799356" lon="11.954425"><ele>788.5</ele><time>2026-04-12T09:59:53.139Z</time></trkpt><trkpt lat="43.4799936" lon="11.9543672"><ele>788.0</ele><time>2026-04-12T09:59:54.143Z</time></trkpt><trkpt lat="43.4800815" lon="11.9543465"><ele>787.4999999999999</ele><time>2026-04-12T09:59:55.134Z</time></trkpt><trkpt lat="43.4801825" lon="11.9543417"><ele>787.0</ele><time>2026-04-12T09:59:56.129Z</time></trkpt><trkpt lat="43.480307" lon="11.9543432"><ele>787.5</ele><time>2026-04-12T09:59:57.129Z</time></trkpt><trkpt lat="43.4804376" lon="11.9543493"><ele>788.0</ele><time>2026-04-12T09:59:58.124Z</time></trkpt><trkpt lat="43.4805757" lon="11.9543659"><ele>788.5</ele><time>2026-04-12T09:59:59.143Z</time></trkpt><trkpt lat="43.4807252" lon="11.9543872"><ele>789.0</ele><time>2026-04-12T10:00:00.133Z</time></trkpt><trkpt lat="43.4808599" lon="11.9544105"><ele>789.0</ele><time>2026-04-12T10:00:01.13Z</time></trkpt><trkpt lat="43.4809809" lon="11.954423"><ele>789.0</ele><time>2026-04-12T10:00:02.144Z</time></trkpt><trkpt lat="43.4810888" lon="11.9544366"><ele>789.0</ele><time>2026-04-12T10:00:03.145Z</time></trkpt><trkpt lat="43.481186" lon="11.9544478"><ele>789.0</ele><time>2026-04-12T10:00:04.13Z</time></trkpt><trkpt lat="43.4812687" lon="11.9544258"><ele>789.0</ele><time>2026-04-12T10:00:05.145Z</time></trkpt><trkpt lat="43.4813408" lon="11.9544032"><ele>787.0</ele><time>2026-04-12T10:00:06.149Z</time></trkpt><trkpt lat="43.4814526" lon="11.9543853"><ele>785.0</ele><time>2026-04-12T10:00:08.139Z</time></trkpt><trkpt lat="43.4815727" lon="11.9543673"><ele>783.0</ele><time>2026-04-12T10:00:10.141Z</time></trkpt><trkpt lat="43.4816449" lon="11.9542867"><ele>781.0</ele><time>2026-04-12T10:00:12.146Z</time></trkpt><trkpt lat="43.4816866" lon="11.9541136"><ele>780.9999999999999</ele><time>2026-04-12T10:00:14.13Z</time></trkpt><trkpt lat="43.4817027" lon="11.9540191"><ele>781.0</ele><time>2026-04-12T10:00:15.142Z</time></trkpt><trkpt lat="43.4817041" lon="11.953916"><ele>781.0</ele><time>2026-04-12T10:00:16.131Z</time></trkpt><trkpt lat="43.4817081" lon="11.9538191"><ele>781.0</ele><time>2026-04-12T10:00:17.147Z</time></trkpt><trkpt lat="43.4817093" lon="11.9536789"><ele>780.9999999999999</ele><time>2026-04-12T10:00:19.143Z</time></trkpt><trkpt lat="43.4817255" lon="11.9535672"><ele>781.0</ele><time>2026-04-12T10:00:21.147Z</time></trkpt><trkpt lat="43.4817472" lon="11.9534578"><ele>780.8</ele><time>2026-04-12T10:00:23.144Z</time></trkpt><trkpt lat="43.4817864" lon="11.9533674"><ele>780.5999999999999</ele><time>2026-04-12T10:00:25.146Z</time></trkpt><trkpt lat="43.4818611" lon="11.9532618"><ele>780.4</ele><time>2026-04-12T10:00:27.144Z</time></trkpt><trkpt lat="43.4819444" lon="11.9531386"><ele>780.2</ele><time>2026-04-12T10:00:29.16Z</time></trkpt><trkpt lat="43.4820125" lon="11.9530206"><ele>780.0</ele><time>2026-04-12T10:00:31.145Z</time></trkpt><trkpt lat="43.4820883" lon="11.9529631"><ele>782.8</ele><time>2026-04-12T10:00:33.144Z</time></trkpt><trkpt lat="43.4821915" lon="11.9529689"><ele>785.6</ele><time>2026-04-12T10:00:35.148Z</time></trkpt><trkpt lat="43.4823085" lon="11.9529862"><ele>788.4000000000001</ele><time>2026-04-12T10:00:37.143Z</time></trkpt><trkpt lat="43.4824234" lon="11.9530567"><ele>791.2</ele><time>2026-04-12T10:00:39.14Z</time></trkpt><trkpt lat="43.4824798" lon="11.9531102"><ele>794.0</ele><time>2026-04-12T10:00:40.15Z</time></trkpt><trkpt lat="43.4825312" lon="11.9531644"><ele>794.0</ele><time>2026-04-12T10:00:41.148Z</time></trkpt><trkpt lat="43.4825906" lon="11.9532293"><ele>794.0</ele><time>2026-04-12T10:00:42.153Z</time></trkpt><trkpt lat="43.482652" lon="11.9532995"><ele>794.0</ele><time>2026-04-12T10:00:43.135Z</time></trkpt><trkpt lat="43.4827023" lon="11.9533822"><ele>794.0</ele><time>2026-04-12T10:00:44.145Z</time></trkpt><trkpt lat="43.4827604" lon="11.9534508"><ele>794.0</ele><time>2026-04-12T10:00:45.15Z</time></trkpt><trkpt lat="43.4828121" lon="11.9535113"><ele>794.0</ele><time>2026-04-12T10:00:46.134Z</time></trkpt><trkpt lat="43.4828646" lon="11.9535759"><ele>794.0</ele><time>2026-04-12T10:00:47.146Z</time></trkpt><trkpt lat="43.4829346" lon="11.9536368"><ele>795.4000000000001</ele><time>2026-04-12T10:00:49.143Z</time></trkpt><trkpt lat="43.4830038" lon="11.9536475"><ele>796.8</ele><time>2026-04-12T10:00:51.148Z</time></trkpt><trkpt lat="43.4831027" lon="11.9536283"><ele>798.2</ele><time>2026-04-12T10:00:53.141Z</time></trkpt><trkpt lat="43.4831987" lon="11.9536926"><ele>799.5999999999999</ele><time>2026-04-12T10:00:55.133Z</time></trkpt><trkpt lat="43.4833148" lon="11.9537521"><ele>801.0</ele><time>2026-04-12T10:00:57.136Z</time></trkpt><trkpt lat="43.4834308" lon="11.9538061"><ele>801.0</ele><time>2026-04-12T10:00:59.145Z</time></trkpt><trkpt lat="43.4835436" lon="11.953866"><ele>801.0</ele><time>2026-04-12T10:01:01.136Z</time></trkpt><trkpt lat="43.483646" lon="11.953917"><ele>801.0</ele><time>2026-04-12T10:01:03.135Z</time></trkpt><trkpt lat="43.4837503" lon="11.9539828"><ele>801.0</ele><time>2026-04-12T10:01:05.129Z</time></trkpt><trkpt lat="43.4838531" lon="11.9540539"><ele>799.1999999999999</ele><time>2026-04-12T10:01:07.14Z</time></trkpt><trkpt lat="43.483959" lon="11.9541186"><ele>797.4</ele><time>2026-04-12T10:01:09.128Z</time></trkpt><trkpt lat="43.4840649" lon="11.9541755"><ele>795.6</ele><time>2026-04-12T10:01:11.133Z</time></trkpt><trkpt lat="43.4841661" lon="11.9542275"><ele>793.8</ele><time>2026-04-12T10:01:13.12Z</time></trkpt><trkpt lat="43.4842659" lon="11.9542685"><ele>792.0</ele><time>2026-04-12T10:01:15.137Z</time></trkpt><trkpt lat="43.4843404" lon="11.9543714"><ele>790.2</ele><time>2026-04-12T10:01:17.132Z</time></trkpt><trkpt lat="43.4844" lon="11.9544884"><ele>788.4000000000001</ele><time>2026-04-12T10:01:19.127Z</time></trkpt><trkpt lat="43.4844602" lon="11.954587"><ele>786.5999999999999</ele><time>2026-04-12T10:01:21.132Z</time></trkpt><trkpt lat="43.4845313" lon="11.9546851"><ele>784.8</ele><time>2026-04-12T10:01:23.127Z</time></trkpt><trkpt lat="43.4846233" lon="11.954791"><ele>783.0</ele><time>2026-04-12T10:01:25.125Z</time></trkpt><trkpt lat="43.4846778" lon="11.9548447"><ele>782.5</ele><time>2026-04-12T10:01:26.12Z</time></trkpt><trkpt lat="43.4847702" lon="11.9549383"><ele>782.0</ele><time>2026-04-12T10:01:28.136Z</time></trkpt><trkpt lat="43.4848552" lon="11.9550192"><ele>781.5</ele><time>2026-04-12T10:01:30.134Z</time></trkpt><trkpt lat="43.4849206" lon="11.9550776"><ele>781.0</ele><time>2026-04-12T10:01:31.131Z</time></trkpt><trkpt lat="43.4849855" lon="11.9551362"><ele>780.5</ele><time>2026-04-12T10:01:32.137Z</time></trkpt><trkpt lat="43.4850475" lon="11.955192"><ele>780.0</ele><time>2026-04-12T10:01:33.138Z</time></trkpt><trkpt lat="43.4851123" lon="11.9552411"><ele>779.0</ele><time>2026-04-12T10:01:34.152Z</time></trkpt><trkpt lat="43.4851749" lon="11.9552914"><ele>778.0</ele><time>2026-04-12T10:01:35.115Z</time></trkpt><trkpt lat="43.4852332" lon="11.9553388"><ele>777.0</ele><time>2026-04-12T10:01:36.144Z</time></trkpt><trkpt lat="43.4852907" lon="11.9553797"><ele>776.0</ele><time>2026-04-12T10:01:37.131Z</time></trkpt><trkpt lat="43.4853585" lon="11.9554298"><ele>775.0</ele><time>2026-04-12T10:01:38.133Z</time></trkpt><trkpt lat="43.4854398" lon="11.955488"><ele>774.0</ele><time>2026-04-12T10:01:39.138Z</time></trkpt><trkpt lat="43.4855222" lon="11.9555445"><ele>774.0</ele><time>2026-04-12T10:01:40.128Z</time></trkpt><trkpt lat="43.4855962" lon="11.9555893"><ele>774.0</ele><time>2026-04-12T10:01:41.13Z</time></trkpt><trkpt lat="43.4856592" lon="11.9556246"><ele>774.0</ele><time>2026-04-12T10:01:42.153Z</time></trkpt><trkpt lat="43.4857548" lon="11.9556903"><ele>774.0</ele><time>2026-04-12T10:01:44.16Z</time></trkpt><trkpt lat="43.4858404" lon="11.9557511"><ele>774.0</ele><time>2026-04-12T10:01:46.14Z</time></trkpt><trkpt lat="43.4859042" lon="11.9557795"><ele>774.0</ele><time>2026-04-12T10:01:48.124Z</time></trkpt><trkpt lat="43.4859595" lon="11.9558498"><ele>771.8333333333334</ele><time>2026-04-12T10:01:50.136Z</time></trkpt><trkpt lat="43.4860274" lon="11.9558965"><ele>769.6666666666666</ele><time>2026-04-12T10:01:52.136Z</time></trkpt><trkpt lat="43.4860982" lon="11.955936"><ele>767.5</ele><time>2026-04-12T10:01:54.138Z</time></trkpt><trkpt lat="43.4861762" lon="11.9559664"><ele>765.3333333333333</ele><time>2026-04-12T10:01:56.133Z</time></trkpt><trkpt lat="43.4862606" lon="11.9560231"><ele>763.1666666666666</ele><time>2026-04-12T10:01:58.117Z</time></trkpt><trkpt lat="43.4863275" lon="11.9560671"><ele>761.0</ele><time>2026-04-12T10:02:01.122Z</time></trkpt><trkpt lat="43.4863931" lon="11.9561094"><ele>760.8571428571428</ele><time>2026-04-12T10:02:03.15Z</time></trkpt><trkpt lat="43.4864535" lon="11.9561418"><ele>760.7142857142857</ele><time>2026-04-12T10:02:05.124Z</time></trkpt><trkpt lat="43.486506" lon="11.9561978"><ele>760.5714285714286</ele><time>2026-04-12T10:02:07.134Z</time></trkpt><trkpt lat="43.4865752" lon="11.9562333"><ele>760.4285714285713</ele><time>2026-04-12T10:02:09.142Z</time></trkpt><trkpt lat="43.4866424" lon="11.9562618"><ele>760.2857142857143</ele><time>2026-04-12T10:02:11.121Z</time></trkpt><trkpt lat="43.4867036" lon="11.956301"><ele>760.1428571428571</ele><time>2026-04-12T10:02:13.124Z</time></trkpt><trkpt lat="43.4867764" lon="11.9563681"><ele>760.0</ele><time>2026-04-12T10:02:16.144Z</time></trkpt><trkpt lat="43.4868257" lon="11.9564397"><ele>760.0</ele><time>2026-04-12T10:02:18.147Z</time></trkpt><trkpt lat="43.4868818" lon="11.9565299"><ele>760.0</ele><time>2026-04-12T10:02:20.117Z</time></trkpt><trkpt lat="43.4869416" lon="11.956611"><ele>760.0</ele><time>2026-04-12T10:02:22.121Z</time></trkpt><trkpt lat="43.4870203" lon="11.9566409"><ele>760.0</ele><time>2026-04-12T10:02:24.12Z</time></trkpt><trkpt lat="43.4871246" lon="11.9566637"><ele>760.0</ele><time>2026-04-12T10:02:26.126Z</time></trkpt><trkpt lat="43.4872334" lon="11.9566796"><ele>755.4</ele><time>2026-04-12T10:02:28.119Z</time></trkpt><trkpt lat="43.4873606" lon="11.9567222"><ele>750.8</ele><time>2026-04-12T10:02:30.13Z</time></trkpt><trkpt lat="43.4874921" lon="11.9567748"><ele>746.2</ele><time>2026-04-12T10:02:32.145Z</time></trkpt><trkpt lat="43.4875537" lon="11.9568065"><ele>741.6</ele><time>2026-04-12T10:02:33.139Z</time></trkpt><trkpt lat="43.4876209" lon="11.9568364"><ele>737.0</ele><time>2026-04-12T10:02:34.119Z</time></trkpt><trkpt lat="43.487699" lon="11.9568602"><ele>737.0</ele><time>2026-04-12T10:02:35.134Z</time></trkpt><trkpt lat="43.4877843" lon="11.9568812"><ele>737.0</ele><time>2026-04-12T10:02:36.127Z</time></trkpt><trkpt lat="43.4878625" lon="11.9568945"><ele>737.0</ele><time>2026-04-12T10:02:37.138Z</time></trkpt><trkpt lat="43.4879362" lon="11.9568979"><ele>737.0</ele><time>2026-04-12T10:02:38.122Z</time></trkpt><trkpt lat="43.4880085" lon="11.9568976"><ele>737.0</ele><time>2026-04-12T10:02:39.138Z</time></trkpt><trkpt lat="43.4880757" lon="11.9568969"><ele>737.0</ele><time>2026-04-12T10:02:40.131Z</time></trkpt><trkpt lat="43.4881989" lon="11.9568847"><ele>737.0000000000001</ele><time>2026-04-12T10:02:42.152Z</time></trkpt><trkpt lat="43.4882611" lon="11.9568708"><ele>737.0</ele><time>2026-04-12T10:02:43.137Z</time></trkpt><trkpt lat="43.4883255" lon="11.9568558"><ele>737.0</ele><time>2026-04-12T10:02:44.122Z</time></trkpt><trkpt lat="43.4883876" lon="11.9568394"><ele>737.0</ele><time>2026-04-12T10:02:45.124Z</time></trkpt><trkpt lat="43.4884509" lon="11.9568219"><ele>737.0</ele><time>2026-04-12T10:02:46.13Z</time></trkpt><trkpt lat="43.4885629" lon="11.9567764"><ele>737.0000000000001</ele><time>2026-04-12T10:02:48.131Z</time></trkpt><trkpt lat="43.488627" lon="11.9567506"><ele>737.0</ele><time>2026-04-12T10:02:49.138Z</time></trkpt><trkpt lat="43.488696" lon="11.9567359"><ele>736.4285714285714</ele><time>2026-04-12T10:02:50.128Z</time></trkpt><trkpt lat="43.4887615" lon="11.9567145"><ele>735.8571428571429</ele><time>2026-04-12T10:02:51.133Z</time></trkpt><trkpt lat="43.4888232" lon="11.9566949"><ele>735.2857142857142</ele><time>2026-04-12T10:02:52.131Z</time></trkpt><trkpt lat="43.4888901" lon="11.9566854"><ele>734.7142857142858</ele><time>2026-04-12T10:02:53.139Z</time></trkpt><trkpt lat="43.4889548" lon="11.9566801"><ele>734.1428571428571</ele><time>2026-04-12T10:02:54.13Z</time></trkpt><trkpt lat="43.4890182" lon="11.9566825"><ele>733.5714285714286</ele><time>2026-04-12T10:02:55.129Z</time></trkpt><trkpt lat="43.4891373" lon="11.9566999"><ele>733.0</ele><time>2026-04-12T10:02:57.136Z</time></trkpt><trkpt lat="43.4892101" lon="11.9567565"><ele>733.0</ele><time>2026-04-12T10:02:59.15Z</time></trkpt><trkpt lat="43.4892773" lon="11.9567646"><ele>733.0</ele><time>2026-04-12T10:03:01.129Z</time></trkpt><trkpt lat="43.4893849" lon="11.956756"><ele>733.0</ele><time>2026-04-12T10:03:03.132Z</time></trkpt><trkpt lat="43.4894999" lon="11.9567338"><ele>733.0</ele><time>2026-04-12T10:03:05.119Z</time></trkpt><trkpt lat="43.4895872" lon="11.9567863"><ele>733.0</ele><time>2026-04-12T10:03:07.136Z</time></trkpt><trkpt lat="43.4896517" lon="11.9568774"><ele>733.5</ele><time>2026-04-12T10:03:09.146Z</time></trkpt><trkpt lat="43.4897605" lon="11.9569699"><ele>734.0</ele><time>2026-04-12T10:03:11.147Z</time></trkpt><trkpt lat="43.4898202" lon="11.9570008"><ele>734.5</ele><time>2026-04-12T10:03:12.137Z</time></trkpt><trkpt lat="43.4898946" lon="11.9569979"><ele>735.0</ele><time>2026-04-12T10:03:13.128Z</time></trkpt><trkpt lat="43.489971" lon="11.9569789"><ele>735.5</ele><time>2026-04-12T10:03:14.131Z</time></trkpt><trkpt lat="43.4900745" lon="11.9569874"><ele>736.0</ele><time>2026-04-12T10:03:16.142Z</time></trkpt><trkpt lat="43.4901569" lon="11.9570046"><ele>736.0</ele><time>2026-04-12T10:04:31.14Z</time></trkpt><trkpt lat="43.4902269" lon="11.9570174"><ele>736.0</ele><time>2026-04-12T10:04:33.135Z</time></trkpt><trkpt lat="43.4902992" lon="11.9570324"><ele>736.0</ele><time>2026-04-12T10:04:35.131Z</time></trkpt><trkpt lat="43.4903675" lon="11.9570367"><ele>736.0</ele><time>2026-04-12T10:04:37.136Z</time></trkpt><trkpt lat="43.4904339" lon="11.9570246"><ele>736.0</ele><time>2026-04-12T10:04:39.146Z</time></trkpt><trkpt lat="43.4905137" lon="11.9569681"><ele>736.0</ele><time>2026-04-12T10:04:41.148Z</time></trkpt><trkpt lat="43.490594" lon="11.9569131"><ele>734.3333333333334</ele><time>2026-04-12T10:04:43.148Z</time></trkpt><trkpt lat="43.490684" lon="11.9568757"><ele>732.6666666666667</ele><time>2026-04-12T10:04:45.125Z</time></trkpt><trkpt lat="43.4907743" lon="11.9568175"><ele>731.0</ele><time>2026-04-12T10:04:47.152Z</time></trkpt><trkpt lat="43.4908534" lon="11.9567773"><ele>729.3333333333334</ele><time>2026-04-12T10:04:49.147Z</time></trkpt><trkpt lat="43.4909265" lon="11.956801"><ele>727.6666666666666</ele><time>2026-04-12T10:04:51.131Z</time></trkpt><trkpt lat="43.4910121" lon="11.9568413"><ele>726.0</ele><time>2026-04-12T10:04:53.146Z</time></trkpt><trkpt lat="43.49111" lon="11.9568776"><ele>726.0</ele><time>2026-04-12T10:04:55.152Z</time></trkpt><trkpt lat="43.4911849" lon="11.9568918"><ele>726.0</ele><time>2026-04-12T10:04:57.138Z</time></trkpt><trkpt lat="43.4912697" lon="11.956902"><ele>726.0</ele><time>2026-04-12T10:04:59.154Z</time></trkpt><trkpt lat="43.491329" lon="11.9569974"><ele>726.0</ele><time>2026-04-12T10:05:01.134Z</time></trkpt><trkpt lat="43.491401" lon="11.9571042"><ele>726.0</ele><time>2026-04-12T10:05:03.128Z</time></trkpt><trkpt lat="43.4914752" lon="11.9571977"><ele>721.5999999999999</ele><time>2026-04-12T10:05:05.148Z</time></trkpt><trkpt lat="43.4915351" lon="11.9573047"><ele>717.2</ele><time>2026-04-12T10:05:07.122Z</time></trkpt><trkpt lat="43.4916324" lon="11.9573597"><ele>712.8</ele><time>2026-04-12T10:05:10.138Z</time></trkpt><trkpt lat="43.4917146" lon="11.9574178"><ele>708.4000000000001</ele><time>2026-04-12T10:05:12.133Z</time></trkpt><trkpt lat="43.4918011" lon="11.957488"><ele>704.0</ele><time>2026-04-12T10:05:14.146Z</time></trkpt><trkpt lat="43.4918631" lon="11.9575437"><ele>704.0</ele><time>2026-04-12T10:05:16.144Z</time></trkpt><trkpt lat="43.4919614" lon="11.9575243"><ele>704.0</ele><time>2026-04-12T10:05:18.153Z</time></trkpt><trkpt lat="43.4920099" lon="11.9574423"><ele>704.0</ele><time>2026-04-12T10:05:20.147Z</time></trkpt><trkpt lat="43.4920342" lon="11.957344"><ele>704.0</ele><time>2026-04-12T10:05:22.133Z</time></trkpt><trkpt lat="43.4920747" lon="11.957253"><ele>704.0</ele><time>2026-04-12T10:05:24.143Z</time></trkpt><trkpt lat="43.4921154" lon="11.9571498"><ele>704.0</ele><time>2026-04-12T10:05:26.147Z</time></trkpt><trkpt lat="43.4921483" lon="11.9570601"><ele>701.8333333333333</ele><time>2026-04-12T10:05:28.153Z</time></trkpt><trkpt lat="43.4921747" lon="11.956976"><ele>699.6666666666666</ele><time>2026-04-12T10:05:30.126Z</time></trkpt><trkpt lat="43.4922273" lon="11.9569232"><ele>697.5</ele><time>2026-04-12T10:05:32.142Z</time></trkpt><trkpt lat="43.4923114" lon="11.9569104"><ele>695.3333333333334</ele><time>2026-04-12T10:05:34.132Z</time></trkpt><trkpt lat="43.4924002" lon="11.9568954"><ele>693.1666666666667</ele><time>2026-04-12T10:05:36.128Z</time></trkpt><trkpt lat="43.4924662" lon="11.9568531"><ele>691.0</ele><time>2026-04-12T10:05:38.134Z</time></trkpt><trkpt lat="43.492419" lon="11.9567512"><ele>690.8</ele><time>2026-04-12T10:05:42.125Z</time></trkpt><trkpt lat="43.4923321" lon="11.9566631"><ele>690.5999999999999</ele><time>2026-04-12T10:05:44.13Z</time></trkpt><trkpt lat="43.4922879" lon="11.9565448"><ele>690.4</ele><time>2026-04-12T10:05:46.131Z</time></trkpt><trkpt lat="43.4922931" lon="11.9563849"><ele>690.2</ele><time>2026-04-12T10:05:48.127Z</time></trkpt><trkpt lat="43.4923281" lon="11.9562342"><ele>690.0</ele><time>2026-04-12T10:05:50.141Z</time></trkpt><trkpt lat="43.4923732" lon="11.9561042"><ele>690.0</ele><time>2026-04-12T10:05:52.12Z</time></trkpt><trkpt lat="43.4924038" lon="11.9559565"><ele>690.0</ele><time>2026-04-12T10:05:54.129Z</time></trkpt><trkpt lat="43.4923879" lon="11.9557898"><ele>690.0</ele><time>2026-04-12T10:05:56.136Z</time></trkpt><trkpt lat="43.4924252" lon="11.9556426"><ele>690.0</ele><time>2026-04-12T10:05:58.125Z</time></trkpt><trkpt lat="43.4925273" lon="11.9555828"><ele>689.0</ele><time>2026-04-12T10:06:00.125Z</time></trkpt><trkpt lat="43.4926297" lon="11.9555134"><ele>688.0</ele><time>2026-04-12T10:06:02.124Z</time></trkpt><trkpt lat="43.4927206" lon="11.9554345"><ele>687.0</ele><time>2026-04-12T10:06:04.131Z</time></trkpt><trkpt lat="43.4928171" lon="11.9553711"><ele>686.0</ele><time>2026-04-12T10:06:06.131Z</time></trkpt><trkpt lat="43.4929217" lon="11.9553333"><ele>685.0</ele><time>2026-04-12T10:06:08.129Z</time></trkpt><trkpt lat="43.4929939" lon="11.9552716"><ele>685.0</ele><time>2026-04-12T10:06:10.132Z</time></trkpt><trkpt lat="43.4929975" lon="11.9551361"><ele>685.0</ele><time>2026-04-12T10:06:12.128Z</time></trkpt><trkpt lat="43.4929808" lon="11.954994"><ele>685.0</ele><time>2026-04-12T10:06:14.133Z</time></trkpt><trkpt lat="43.4929517" lon="11.9548368"><ele>685.0</ele><time>2026-04-12T10:06:16.13Z</time></trkpt><trkpt lat="43.4929365" lon="11.95475"><ele>685.0</ele><time>2026-04-12T10:06:17.139Z</time></trkpt><trkpt lat="43.4929175" lon="11.9546613"><ele>681.8571428571428</ele><time>2026-04-12T10:06:18.125Z</time></trkpt><trkpt lat="43.4928971" lon="11.9545677"><ele>678.7142857142858</ele><time>2026-04-12T10:06:19.123Z</time></trkpt><trkpt lat="43.4928809" lon="11.9544822"><ele>675.5714285714286</ele><time>2026-04-12T10:06:20.131Z</time></trkpt><trkpt lat="43.4928487" lon="11.9543968"><ele>672.4285714285713</ele><time>2026-04-12T10:06:21.128Z</time></trkpt><trkpt lat="43.492819" lon="11.9543158"><ele>669.2857142857142</ele><time>2026-04-12T10:06:22.124Z</time></trkpt><trkpt lat="43.4927877" lon="11.9542306"><ele>666.1428571428571</ele><time>2026-04-12T10:06:23.124Z</time></trkpt><trkpt lat="43.4927541" lon="11.9541567"><ele>663.0</ele><time>2026-04-12T10:06:24.128Z</time></trkpt><trkpt lat="43.4927001" lon="11.9540779"><ele>661.3333333333334</ele><time>2026-04-12T10:06:25.117Z</time></trkpt><trkpt lat="43.4926497" lon="11.9540037"><ele>659.6666666666666</ele><time>2026-04-12T10:06:26.128Z</time></trkpt><trkpt lat="43.4925828" lon="11.9539507"><ele>658.0</ele><time>2026-04-12T10:06:27.142Z</time></trkpt><trkpt lat="43.4925066" lon="11.9539264"><ele>656.3333333333333</ele><time>2026-04-12T10:06:28.138Z</time></trkpt><trkpt lat="43.4924327" lon="11.9539202"><ele>654.6666666666666</ele><time>2026-04-12T10:06:29.131Z</time></trkpt><trkpt lat="43.4923602" lon="11.9539229"><ele>653.0</ele><time>2026-04-12T10:06:30.136Z</time></trkpt><trkpt lat="43.4922826" lon="11.9539291"><ele>653.0</ele><time>2026-04-12T10:06:31.132Z</time></trkpt><trkpt lat="43.4922118" lon="11.9539215"><ele>653.0</ele><time>2026-04-12T10:06:32.14Z</time></trkpt><trkpt lat="43.4921362" lon="11.9539099"><ele>653.0</ele><time>2026-04-12T10:06:33.121Z</time></trkpt><trkpt lat="43.4920409" lon="11.953922"><ele>653.0</ele><time>2026-04-12T10:06:35.127Z</time></trkpt><trkpt lat="43.4919404" lon="11.9539577"><ele>653.0</ele><time>2026-04-12T10:06:37.133Z</time></trkpt><trkpt lat="43.4918607" lon="11.9538669"><ele>654.4</ele><time>2026-04-12T10:06:39.132Z</time></trkpt><trkpt lat="43.4918698" lon="11.9537445"><ele>655.8</ele><time>2026-04-12T10:06:41.127Z</time></trkpt><trkpt lat="43.4919273" lon="11.9536712"><ele>657.2</ele><time>2026-04-12T10:06:43.127Z</time></trkpt><trkpt lat="43.4919914" lon="11.9536227"><ele>658.6</ele><time>2026-04-12T10:06:45.13Z</time></trkpt><trkpt lat="43.4920238" lon="11.9534848"><ele>660.0</ele><time>2026-04-12T10:06:47.13Z</time></trkpt><trkpt lat="43.4920815" lon="11.9533584"><ele>655.6</ele><time>2026-04-12T10:06:49.129Z</time></trkpt><trkpt lat="43.4921674" lon="11.9532526"><ele>651.2</ele><time>2026-04-12T10:06:51.125Z</time></trkpt><trkpt lat="43.4922401" lon="11.9531259"><ele>646.8</ele><time>2026-04-12T10:06:53.134Z</time></trkpt><trkpt lat="43.4922876" lon="11.9530034"><ele>642.4</ele><time>2026-04-12T10:06:55.121Z</time></trkpt><trkpt lat="43.4923262" lon="11.9528903"><ele>638.0</ele><time>2026-04-12T10:06:57.127Z</time></trkpt><trkpt lat="43.4924096" lon="11.9527885"><ele>638.0</ele><time>2026-04-12T10:06:59.138Z</time></trkpt><trkpt lat="43.4924919" lon="11.9527469"><ele>638.0</ele><time>2026-04-12T10:07:00.125Z</time></trkpt><trkpt lat="43.4925788" lon="11.9527248"><ele>638.0</ele><time>2026-04-12T10:07:01.13Z</time></trkpt><trkpt lat="43.492667" lon="11.9527057"><ele>638.0</ele><time>2026-04-12T10:07:02.133Z</time></trkpt><trkpt lat="43.4927645" lon="11.952727"><ele>638.0</ele><time>2026-04-12T10:07:03.127Z</time></trkpt><trkpt lat="43.4928721" lon="11.9527653"><ele>637.5</ele><time>2026-04-12T10:07:04.13Z</time></trkpt><trkpt lat="43.4929885" lon="11.9528067"><ele>637.0</ele><time>2026-04-12T10:07:05.128Z</time></trkpt><trkpt lat="43.4931201" lon="11.9528564"><ele>636.5</ele><time>2026-04-12T10:07:06.132Z</time></trkpt><trkpt lat="43.4932406" lon="11.9529035"><ele>636.0</ele><time>2026-04-12T10:07:07.138Z</time></trkpt><trkpt lat="43.4933535" lon="11.9529477"><ele>636.0</ele><time>2026-04-12T10:07:08.124Z</time></trkpt><trkpt lat="43.4934638" lon="11.9529906"><ele>636.0</ele><time>2026-04-12T10:07:09.133Z</time></trkpt><trkpt lat="43.493579" lon="11.9530454"><ele>636.0</ele><time>2026-04-12T10:07:10.131Z</time></trkpt><trkpt lat="43.4936932" lon="11.9531085"><ele>636.0</ele><time>2026-04-12T10:07:11.12Z</time></trkpt><trkpt lat="43.4938027" lon="11.9531705"><ele>635.0</ele><time>2026-04-12T10:07:12.126Z</time></trkpt><trkpt lat="43.4939076" lon="11.9532233"><ele>634.0</ele><time>2026-04-12T10:07:13.14Z</time></trkpt><trkpt lat="43.4940054" lon="11.9532685"><ele>633.0</ele><time>2026-04-12T10:07:14.123Z</time></trkpt><trkpt lat="43.4940969" lon="11.95331"><ele>632.0</ele><time>2026-04-12T10:07:15.126Z</time></trkpt><trkpt lat="43.4941828" lon="11.9533448"><ele>631.0</ele><time>2026-04-12T10:07:16.128Z</time></trkpt><trkpt lat="43.4942582" lon="11.9533705"><ele>634.2</ele><time>2026-04-12T10:07:17.136Z</time></trkpt><trkpt lat="43.4943328" lon="11.9533876"><ele>637.4000000000001</ele><time>2026-04-12T10:07:18.134Z</time></trkpt><trkpt lat="43.4944023" lon="11.9534026"><ele>640.6</ele><time>2026-04-12T10:07:19.136Z</time></trkpt><trkpt lat="43.4945182" lon="11.9534247"><ele>643.8000000000001</ele><time>2026-04-12T10:07:21.131Z</time></trkpt><trkpt lat="43.4946352" lon="11.9534502"><ele>647.0</ele><time>2026-04-12T10:07:23.124Z</time></trkpt><trkpt lat="43.4947249" lon="11.953476"><ele>647.3333333333333</ele><time>2026-04-12T10:07:25.135Z</time></trkpt><trkpt lat="43.4948148" lon="11.9534755"><ele>647.6666666666666</ele><time>2026-04-12T10:07:28.125Z</time></trkpt><trkpt lat="43.4949115" lon="11.9534749"><ele>648.0</ele><time>2026-04-12T10:07:31.136Z</time></trkpt><trkpt lat="43.4949745" lon="11.9534649"><ele>648.3333333333334</ele><time>2026-04-12T10:07:32.131Z</time></trkpt><trkpt lat="43.4950574" lon="11.9534223"><ele>648.6666666666667</ele><time>2026-04-12T10:07:33.13Z</time></trkpt><trkpt lat="43.4951341" lon="11.9533858"><ele>649.0</ele><time>2026-04-12T10:07:34.13Z</time></trkpt><trkpt lat="43.495225" lon="11.9533495"><ele>647.6666666666667</ele><time>2026-04-12T10:07:35.128Z</time></trkpt><trkpt lat="43.4953022" lon="11.9533102"><ele>646.3333333333334</ele><time>2026-04-12T10:07:36.126Z</time></trkpt><trkpt lat="43.4953753" lon="11.9532572"><ele>645.0</ele><time>2026-04-12T10:07:37.132Z</time></trkpt><trkpt lat="43.4954518" lon="11.9531915"><ele>643.6666666666666</ele><time>2026-04-12T10:07:38.14Z</time></trkpt><trkpt lat="43.4955165" lon="11.9531371"><ele>642.3333333333333</ele><time>2026-04-12T10:07:39.145Z</time></trkpt><trkpt lat="43.4955812" lon="11.9531074"><ele>641.0</ele><time>2026-04-12T10:07:40.144Z</time></trkpt><trkpt lat="43.4956742" lon="11.9530491"><ele>641.0</ele><time>2026-04-12T10:07:42.152Z</time></trkpt><trkpt lat="43.4957475" lon="11.9530047"><ele>641.0</ele><time>2026-04-12T10:07:44.142Z</time></trkpt><trkpt lat="43.4958233" lon="11.953022"><ele>641.0</ele><time>2026-04-12T10:07:46.132Z</time></trkpt><trkpt lat="43.4959033" lon="11.9530615"><ele>641.0</ele><time>2026-04-12T10:07:48.128Z</time></trkpt><trkpt lat="43.4958315" lon="11.9530208"><ele>641.0</ele><time>2026-04-12T10:07:53.153Z</time></trkpt><trkpt lat="43.4957684" lon="11.9529815"><ele>641.0</ele><time>2026-04-12T10:07:55.124Z</time></trkpt><trkpt lat="43.4956996" lon="11.9530059"><ele>641.0</ele><time>2026-04-12T10:07:57.144Z</time></trkpt><trkpt lat="43.4957088" lon="11.9530944"><ele>641.0</ele><time>2026-04-12T10:08:01.118Z</time></trkpt><trkpt lat="43.4958332" lon="11.9531509"><ele>641.0</ele><time>2026-04-12T10:08:03.125Z</time></trkpt><trkpt lat="43.4959023" lon="11.9532092"><ele>641.0</ele><time>2026-04-12T10:08:04.123Z</time></trkpt><trkpt lat="43.4959571" lon="11.9532919"><ele>641.0</ele><time>2026-04-12T10:08:05.131Z</time></trkpt><trkpt lat="43.4960078" lon="11.9533634"><ele>641.0</ele><time>2026-04-12T10:08:06.129Z</time></trkpt><trkpt lat="43.4960603" lon="11.9534374"><ele>642.1999999999999</ele><time>2026-04-12T10:08:07.121Z</time></trkpt><trkpt lat="43.4961197" lon="11.9535324"><ele>643.4</ele><time>2026-04-12T10:08:08.118Z</time></trkpt><trkpt lat="43.4961813" lon="11.9536254"><ele>644.6</ele><time>2026-04-12T10:08:09.122Z</time></trkpt><trkpt lat="43.496239" lon="11.9537176"><ele>645.8</ele><time>2026-04-12T10:08:10.125Z</time></trkpt><trkpt lat="43.4963036" lon="11.953806"><ele>647.0</ele><time>2026-04-12T10:08:11.127Z</time></trkpt><trkpt lat="43.4963703" lon="11.9538986"><ele>647.0</ele><time>2026-04-12T10:08:12.127Z</time></trkpt><trkpt lat="43.4964078" lon="11.9539942"><ele>647.0</ele><time>2026-04-12T10:08:13.139Z</time></trkpt><trkpt lat="43.4964433" lon="11.9540712"><ele>647.0</ele><time>2026-04-12T10:08:14.107Z</time></trkpt><trkpt lat="43.4964917" lon="11.9541582"><ele>647.0</ele><time>2026-04-12T10:08:16.131Z</time></trkpt><trkpt lat="43.4964352" lon="11.9540559"><ele>647.0</ele><time>2026-04-12T10:09:51.116Z</time></trkpt><trkpt lat="43.4963892" lon="11.9539448"><ele>647.0</ele><time>2026-04-12T10:09:53.143Z</time></trkpt><trkpt lat="43.4963278" lon="11.9538354"><ele>647.0</ele><time>2026-04-12T10:09:55.153Z</time></trkpt><trkpt lat="43.4962614" lon="11.9537333"><ele>647.0</ele><time>2026-04-12T10:09:57.14Z</time></trkpt><trkpt lat="43.4961756" lon="11.953631"><ele>647.0</ele><time>2026-04-12T10:09:59.136Z</time></trkpt><trkpt lat="43.4961029" lon="11.9535226"><ele>647.0</ele><time>2026-04-12T10:10:01.142Z</time></trkpt><trkpt lat="43.4960257" lon="11.953399"><ele>647.0</ele><time>2026-04-12T10:10:03.122Z</time></trkpt><trkpt lat="43.4959416" lon="11.9532865"><ele>645.8</ele><time>2026-04-12T10:10:05.122Z</time></trkpt><trkpt lat="43.4958517" lon="11.9531787"><ele>644.6</ele><time>2026-04-12T10:10:07.139Z</time></trkpt><trkpt lat="43.4957624" lon="11.9531128"><ele>643.4</ele><time>2026-04-12T10:10:09.127Z</time></trkpt><trkpt lat="43.4956739" lon="11.953092"><ele>642.1999999999999</ele><time>2026-04-12T10:10:11.13Z</time></trkpt><trkpt lat="43.4956006" lon="11.9530999"><ele>641.0</ele><time>2026-04-12T10:10:13.121Z</time></trkpt><trkpt lat="43.4955305" lon="11.9531241"><ele>641.0</ele><time>2026-04-12T10:10:15.129Z</time></trkpt><trkpt lat="43.4954494" lon="11.953186"><ele>641.0</ele><time>2026-04-12T10:10:17.151Z</time></trkpt><trkpt lat="43.49537" lon="11.9532611"><ele>641.0</ele><time>2026-04-12T10:10:19.138Z</time></trkpt><trkpt lat="43.4952822" lon="11.9533279"><ele>641.0</ele><time>2026-04-12T10:10:21.134Z</time></trkpt><trkpt lat="43.495186" lon="11.9533638"><ele>641.0</ele><time>2026-04-12T10:10:23.137Z</time></trkpt><trkpt lat="43.4950994" lon="11.9533923"><ele>642.3333333333333</ele><time>2026-04-12T10:10:25.14Z</time></trkpt><trkpt lat="43.4950261" lon="11.953422"><ele>643.6666666666666</ele><time>2026-04-12T10:10:27.142Z</time></trkpt><trkpt lat="43.4949535" lon="11.953454"><ele>645.0</ele><time>2026-04-12T10:10:30.132Z</time></trkpt><trkpt lat="43.4948733" lon="11.9534711"><ele>646.3333333333334</ele><time>2026-04-12T10:10:33.13Z</time></trkpt><trkpt lat="43.4947946" lon="11.9534831"><ele>647.6666666666667</ele><time>2026-04-12T10:10:35.123Z</time></trkpt><trkpt lat="43.4946796" lon="11.9534648"><ele>649.0</ele><time>2026-04-12T10:10:37.131Z</time></trkpt><trkpt lat="43.4946074" lon="11.9534431"><ele>648.6</ele><time>2026-04-12T10:10:38.116Z</time></trkpt><trkpt lat="43.4945241" lon="11.9534258"><ele>648.2</ele><time>2026-04-12T10:10:39.124Z</time></trkpt><trkpt lat="43.4944317" lon="11.9534126"><ele>647.8000000000001</ele><time>2026-04-12T10:10:40.143Z</time></trkpt><trkpt lat="43.4943387" lon="11.9533991"><ele>647.4000000000001</ele><time>2026-04-12T10:10:41.137Z</time></trkpt><trkpt lat="43.4942495" lon="11.9533812"><ele>647.0</ele><time>2026-04-12T10:10:42.119Z</time></trkpt><trkpt lat="43.4941613" lon="11.9533476"><ele>644.25</ele><time>2026-04-12T10:10:43.13Z</time></trkpt><trkpt lat="43.4940667" lon="11.9533113"><ele>641.5</ele><time>2026-04-12T10:10:44.128Z</time></trkpt><trkpt lat="43.4939631" lon="11.9532578"><ele>638.75</ele><time>2026-04-12T10:10:45.122Z</time></trkpt><trkpt lat="43.4938444" lon="11.9531983"><ele>636.0</ele><time>2026-04-12T10:10:46.12Z</time></trkpt><trkpt lat="43.4937334" lon="11.9531348"><ele>636.0</ele><time>2026-04-12T10:10:47.127Z</time></trkpt><trkpt lat="43.4936261" lon="11.9530674"><ele>636.0</ele><time>2026-04-12T10:10:48.134Z</time></trkpt><trkpt lat="43.4935092" lon="11.9530089"><ele>636.0</ele><time>2026-04-12T10:10:49.128Z</time></trkpt><trkpt lat="43.4933766" lon="11.9529557"><ele>636.0</ele><time>2026-04-12T10:10:50.13Z</time></trkpt><trkpt lat="43.4932442" lon="11.9529043"><ele>636.0</ele><time>2026-04-12T10:10:51.133Z</time></trkpt><trkpt lat="43.4931197" lon="11.9528555"><ele>636.0</ele><time>2026-04-12T10:10:52.124Z</time></trkpt><trkpt lat="43.4930034" lon="11.9528081"><ele>636.0</ele><time>2026-04-12T10:10:53.128Z</time></trkpt><trkpt lat="43.4928889" lon="11.9527682"><ele>636.0</ele><time>2026-04-12T10:10:54.118Z</time></trkpt><trkpt lat="43.4927862" lon="11.9527333"><ele>636.4</ele><time>2026-04-12T10:10:55.127Z</time></trkpt><trkpt lat="43.4926975" lon="11.9527059"><ele>636.8</ele><time>2026-04-12T10:10:56.134Z</time></trkpt><trkpt lat="43.4926138" lon="11.9526823"><ele>637.1999999999999</ele><time>2026-04-12T10:10:57.133Z</time></trkpt><trkpt lat="43.4925291" lon="11.952704"><ele>637.6</ele><time>2026-04-12T10:10:58.131Z</time></trkpt><trkpt lat="43.4924398" lon="11.9527482"><ele>638.0</ele><time>2026-04-12T10:10:59.133Z</time></trkpt><trkpt lat="43.49235" lon="11.9528038"><ele>638.0</ele><time>2026-04-12T10:11:00.143Z</time></trkpt><trkpt lat="43.4922641" lon="11.9528395"><ele>638.0</ele><time>2026-04-12T10:11:01.125Z</time></trkpt><trkpt lat="43.4921757" lon="11.9528453"><ele>638.0</ele><time>2026-04-12T10:11:02.126Z</time></trkpt><trkpt lat="43.492079" lon="11.9528369"><ele>638.0</ele><time>2026-04-12T10:11:03.13Z</time></trkpt><trkpt lat="43.4919701" lon="11.9528213"><ele>638.0</ele><time>2026-04-12T10:11:04.125Z</time></trkpt><trkpt lat="43.4918499" lon="11.9528041"><ele>638.4</ele><time>2026-04-12T10:11:05.14Z</time></trkpt><trkpt lat="43.4917321" lon="11.9527799"><ele>638.8</ele><time>2026-04-12T10:11:06.122Z</time></trkpt><trkpt lat="43.4916274" lon="11.9527418"><ele>639.2</ele><time>2026-04-12T10:11:07.125Z</time></trkpt><trkpt lat="43.4915191" lon="11.9526894"><ele>639.6</ele><time>2026-04-12T10:11:08.129Z</time></trkpt><trkpt lat="43.491418" lon="11.952644"><ele>640.0</ele><time>2026-04-12T10:11:09.133Z</time></trkpt><trkpt lat="43.4913206" lon="11.9526138"><ele>641.5</ele><time>2026-04-12T10:11:10.128Z</time></trkpt><trkpt lat="43.4912179" lon="11.9526061"><ele>643.0</ele><time>2026-04-12T10:11:11.153Z</time></trkpt><trkpt lat="43.4911037" lon="11.9526237"><ele>644.5</ele><time>2026-04-12T10:11:12.133Z</time></trkpt><trkpt lat="43.4909809" lon="11.9526453"><ele>646.0</ele><time>2026-04-12T10:11:13.118Z</time></trkpt><trkpt lat="43.4908467" lon="11.9526892"><ele>646.0</ele><time>2026-04-12T10:11:14.132Z</time></trkpt><trkpt lat="43.4907169" lon="11.9527209"><ele>646.0</ele><time>2026-04-12T10:11:15.117Z</time></trkpt><trkpt lat="43.4905971" lon="11.9527397"><ele>646.0</ele><time>2026-04-12T10:11:16.137Z</time></trkpt><trkpt lat="43.4904903" lon="11.9527578"><ele>646.0</ele><time>2026-04-12T10:11:17.124Z</time></trkpt><trkpt lat="43.4904006" lon="11.9527829"><ele>645.8333333333334</ele><time>2026-04-12T10:11:18.126Z</time></trkpt><trkpt lat="43.4903263" lon="11.9528224"><ele>645.6666666666667</ele><time>2026-04-12T10:11:19.121Z</time></trkpt><trkpt lat="43.4902592" lon="11.9528854"><ele>645.5</ele><time>2026-04-12T10:11:20.124Z</time></trkpt><trkpt lat="43.4901935" lon="11.9529498"><ele>645.3333333333334</ele><time>2026-04-12T10:11:21.122Z</time></trkpt><trkpt lat="43.4901356" lon="11.9530047"><ele>645.1666666666666</ele><time>2026-04-12T10:11:22.139Z</time></trkpt><trkpt lat="43.4900247" lon="11.95304"><ele>645.0</ele><time>2026-04-12T10:11:24.124Z</time></trkpt><trkpt lat="43.4899747" lon="11.9529862"><ele>645.0</ele><time>2026-04-12T10:11:25.12Z</time></trkpt><trkpt lat="43.4899152" lon="11.9529111"><ele>645.0</ele><time>2026-04-12T10:11:26.125Z</time></trkpt><trkpt lat="43.4898544" lon="11.9528169"><ele>645.0</ele><time>2026-04-12T10:11:27.129Z</time></trkpt><trkpt lat="43.4897819" lon="11.9527289"><ele>645.0</ele><time>2026-04-12T10:11:28.122Z</time></trkpt><trkpt lat="43.489683" lon="11.9526612"><ele>645.0</ele><time>2026-04-12T10:11:29.129Z</time></trkpt><trkpt lat="43.4895703" lon="11.9526101"><ele>644.4</ele><time>2026-04-12T10:11:30.13Z</time></trkpt><trkpt lat="43.4894566" lon="11.9525722"><ele>643.8</ele><time>2026-04-12T10:11:31.132Z</time></trkpt><trkpt lat="43.4893401" lon="11.9525512"><ele>643.2</ele><time>2026-04-12T10:11:32.124Z</time></trkpt><trkpt lat="43.4892421" lon="11.9525412"><ele>642.6</ele><time>2026-04-12T10:11:33.124Z</time></trkpt><trkpt lat="43.48917" lon="11.9525177"><ele>642.0</ele><time>2026-04-12T10:11:34.125Z</time></trkpt><trkpt lat="43.4890946" lon="11.9523761"><ele>642.0</ele><time>2026-04-12T10:11:36.132Z</time></trkpt><trkpt lat="43.4890784" lon="11.9522578"><ele>642.0</ele><time>2026-04-12T10:11:37.122Z</time></trkpt><trkpt lat="43.4890706" lon="11.9521163"><ele>642.0</ele><time>2026-04-12T10:11:38.118Z</time></trkpt><trkpt lat="43.4890691" lon="11.9519668"><ele>642.0</ele><time>2026-04-12T10:11:39.125Z</time></trkpt><trkpt lat="43.4890677" lon="11.9518173"><ele>642.0</ele><time>2026-04-12T10:11:40.114Z</time></trkpt><trkpt lat="43.4890427" lon="11.9516662"><ele>641.5</ele><time>2026-04-12T10:11:41.128Z</time></trkpt><trkpt lat="43.4890101" lon="11.9515006"><ele>641.0</ele><time>2026-04-12T10:11:42.135Z</time></trkpt><trkpt lat="43.4889791" lon="11.9513319"><ele>640.5</ele><time>2026-04-12T10:11:43.126Z</time></trkpt><trkpt lat="43.4889561" lon="11.951175"><ele>640.0</ele><time>2026-04-12T10:11:44.121Z</time></trkpt><trkpt lat="43.4889329" lon="11.9510402"><ele>640.0</ele><time>2026-04-12T10:11:45.124Z</time></trkpt><trkpt lat="43.488898" lon="11.9509345"><ele>640.0</ele><time>2026-04-12T10:11:46.126Z</time></trkpt><trkpt lat="43.4888522" lon="11.9508427"><ele>640.0</ele><time>2026-04-12T10:11:47.128Z</time></trkpt><trkpt lat="43.4887837" lon="11.9507621"><ele>640.0</ele><time>2026-04-12T10:11:48.124Z</time></trkpt><trkpt lat="43.4887143" lon="11.9506777"><ele>640.0</ele><time>2026-04-12T10:11:49.122Z</time></trkpt><trkpt lat="43.4886477" lon="11.9506028"><ele>640.0</ele><time>2026-04-12T10:11:50.121Z</time></trkpt><trkpt lat="43.4886023" lon="11.950499"><ele>641.6</ele><time>2026-04-12T10:11:52.122Z</time></trkpt><trkpt lat="43.4887036" lon="11.9504439"><ele>643.2</ele><time>2026-04-12T10:11:54.133Z</time></trkpt><trkpt lat="43.4887869" lon="11.9504412"><ele>644.8</ele><time>2026-04-12T10:11:55.129Z</time></trkpt><trkpt lat="43.4888758" lon="11.9504357"><ele>646.4</ele><time>2026-04-12T10:11:56.136Z</time></trkpt><trkpt lat="43.4889819" lon="11.9504325"><ele>648.0</ele><time>2026-04-12T10:11:57.115Z</time></trkpt><trkpt lat="43.4891084" lon="11.9504072"><ele>648.0</ele><time>2026-04-12T10:11:58.122Z</time></trkpt><trkpt lat="43.4892179" lon="11.9503709"><ele>648.0</ele><time>2026-04-12T10:11:59.125Z</time></trkpt><trkpt lat="43.4893144" lon="11.9503369"><ele>648.0</ele><time>2026-04-12T10:12:00.131Z</time></trkpt><trkpt lat="43.4893835" lon="11.9502924"><ele>648.0</ele><time>2026-04-12T10:12:01.145Z</time></trkpt><trkpt lat="43.4894362" lon="11.9502269"><ele>648.0</ele><time>2026-04-12T10:12:02.133Z</time></trkpt><trkpt lat="43.4894738" lon="11.9501367"><ele>648.0</ele><time>2026-04-12T10:12:03.15Z</time></trkpt><trkpt lat="43.4894911" lon="11.9500324"><ele>651.1666666666666</ele><time>2026-04-12T10:12:04.128Z</time></trkpt><trkpt lat="43.4894888" lon="11.9499263"><ele>654.3333333333334</ele><time>2026-04-12T10:12:05.133Z</time></trkpt><trkpt lat="43.4894676" lon="11.949825"><ele>657.5</ele><time>2026-04-12T10:12:06.138Z</time></trkpt><trkpt lat="43.4894263" lon="11.949722"><ele>660.6666666666667</ele><time>2026-04-12T10:12:07.125Z</time></trkpt><trkpt lat="43.489371" lon="11.9496237"><ele>663.8333333333334</ele><time>2026-04-12T10:12:08.127Z</time></trkpt><trkpt lat="43.4893094" lon="11.9495213"><ele>667.0</ele><time>2026-04-12T10:12:09.128Z</time></trkpt><trkpt lat="43.4892605" lon="11.9494138"><ele>667.0</ele><time>2026-04-12T10:12:10.138Z</time></trkpt><trkpt lat="43.4892389" lon="11.9492893"><ele>667.0</ele><time>2026-04-12T10:12:11.125Z</time></trkpt><trkpt lat="43.4892367" lon="11.9491634"><ele>667.0</ele><time>2026-04-12T10:12:12.122Z</time></trkpt><trkpt lat="43.4892384" lon="11.9490487"><ele>667.0</ele><time>2026-04-12T10:12:13.13Z</time></trkpt><trkpt lat="43.489229" lon="11.9489437"><ele>667.0</ele><time>2026-04-12T10:12:14.125Z</time></trkpt><trkpt lat="43.489198" lon="11.9488495"><ele>667.0</ele><time>2026-04-12T10:12:15.132Z</time></trkpt><trkpt lat="43.4891477" lon="11.9487616"><ele>668.4000000000001</ele><time>2026-04-12T10:12:16.122Z</time></trkpt><trkpt lat="43.4890871" lon="11.9486737"><ele>669.8000000000001</ele><time>2026-04-12T10:12:17.125Z</time></trkpt><trkpt lat="43.4890229" lon="11.9485836"><ele>671.2</ele><time>2026-04-12T10:12:18.123Z</time></trkpt><trkpt lat="43.4889716" lon="11.9484845"><ele>672.6</ele><time>2026-04-12T10:12:19.118Z</time></trkpt><trkpt lat="43.4889444" lon="11.9483679"><ele>674.0</ele><time>2026-04-12T10:12:20.13Z</time></trkpt><trkpt lat="43.4889394" lon="11.9482299"><ele>674.0</ele><time>2026-04-12T10:12:21.146Z</time></trkpt><trkpt lat="43.4889518" lon="11.9480696"><ele>674.0</ele><time>2026-04-12T10:12:22.119Z</time></trkpt><trkpt lat="43.4889768" lon="11.9479016"><ele>674.0</ele><time>2026-04-12T10:12:23.12Z</time></trkpt><trkpt lat="43.4890024" lon="11.9477412"><ele>674.0</ele><time>2026-04-12T10:12:24.129Z</time></trkpt><trkpt lat="43.4890482" lon="11.947606"><ele>675.8000000000001</ele><time>2026-04-12T10:12:25.124Z</time></trkpt><trkpt lat="43.489081" lon="11.9474709"><ele>677.6</ele><time>2026-04-12T10:12:26.123Z</time></trkpt><trkpt lat="43.4890953" lon="11.9473358"><ele>679.4</ele><time>2026-04-12T10:12:27.139Z</time></trkpt><trkpt lat="43.4891053" lon="11.9472078"><ele>681.2</ele><time>2026-04-12T10:12:28.127Z</time></trkpt><trkpt lat="43.4891375" lon="11.9470914"><ele>683.0</ele><time>2026-04-12T10:12:29.121Z</time></trkpt><trkpt lat="43.4891687" lon="11.9469966"><ele>683.0</ele><time>2026-04-12T10:12:30.125Z</time></trkpt><trkpt lat="43.4892348" lon="11.9469358"><ele>683.0</ele><time>2026-04-12T10:12:31.135Z</time></trkpt><trkpt lat="43.4893051" lon="11.9468743"><ele>683.0</ele><time>2026-04-12T10:12:32.131Z</time></trkpt><trkpt lat="43.4893854" lon="11.9468089"><ele>683.0</ele><time>2026-04-12T10:12:33.127Z</time></trkpt><trkpt lat="43.4894603" lon="11.9467473"><ele>683.0</ele><time>2026-04-12T10:12:34.115Z</time></trkpt><trkpt lat="43.4895064" lon="11.9466559"><ele>683.0</ele><time>2026-04-12T10:12:35.122Z</time></trkpt><trkpt lat="43.4895432" lon="11.946572"><ele>684.3333333333333</ele><time>2026-04-12T10:12:36.134Z</time></trkpt><trkpt lat="43.4895332" lon="11.9464791"><ele>685.6666666666666</ele><time>2026-04-12T10:12:37.14Z</time></trkpt><trkpt lat="43.4894982" lon="11.9463826"><ele>687.0</ele><time>2026-04-12T10:12:38.119Z</time></trkpt><trkpt lat="43.4894531" lon="11.9462864"><ele>688.3333333333334</ele><time>2026-04-12T10:12:39.136Z</time></trkpt><trkpt lat="43.4893907" lon="11.9462049"><ele>689.6666666666667</ele><time>2026-04-12T10:12:40.143Z</time></trkpt><trkpt lat="43.4893153" lon="11.946122"><ele>691.0</ele><time>2026-04-12T10:12:42.158Z</time></trkpt><trkpt lat="43.4893005" lon="11.9460362"><ele>691.0</ele><time>2026-04-12T10:12:51.123Z</time></trkpt><trkpt lat="43.4893333" lon="11.945922"><ele>691.0</ele><time>2026-04-12T10:12:53.13Z</time></trkpt><trkpt lat="43.4893638" lon="11.9457718"><ele>691.0</ele><time>2026-04-12T10:12:55.117Z</time></trkpt><trkpt lat="43.4894066" lon="11.9457018"><ele>691.0</ele><time>2026-04-12T10:12:56.126Z</time></trkpt><trkpt lat="43.4894545" lon="11.9456248"><ele>691.0</ele><time>2026-04-12T10:12:57.13Z</time></trkpt><trkpt lat="43.4895264" lon="11.9455469"><ele>691.0</ele><time>2026-04-12T10:12:58.132Z</time></trkpt><trkpt lat="43.489604" lon="11.9454717"><ele>691.3333333333334</ele><time>2026-04-12T10:12:59.124Z</time></trkpt><trkpt lat="43.4896805" lon="11.9453904"><ele>691.6666666666667</ele><time>2026-04-12T10:13:00.119Z</time></trkpt><trkpt lat="43.4897499" lon="11.9453166"><ele>692.0</ele><time>2026-04-12T10:13:01.13Z</time></trkpt><trkpt lat="43.4898013" lon="11.9452543"><ele>692.3333333333334</ele><time>2026-04-12T10:13:02.123Z</time></trkpt><trkpt lat="43.4898671" lon="11.9451473"><ele>692.6666666666666</ele><time>2026-04-12T10:13:04.129Z</time></trkpt><trkpt lat="43.489921" lon="11.9450575"><ele>693.0</ele><time>2026-04-12T10:13:06.119Z</time></trkpt><trkpt lat="43.4900137" lon="11.9449627"><ele>691.4</ele><time>2026-04-12T10:13:08.121Z</time></trkpt><trkpt lat="43.490104" lon="11.9448813"><ele>689.8</ele><time>2026-04-12T10:13:10.112Z</time></trkpt><trkpt lat="43.4901455" lon="11.9447607"><ele>688.2</ele><time>2026-04-12T10:13:12.146Z</time></trkpt><trkpt lat="43.4900781" lon="11.9446115"><ele>686.6</ele><time>2026-04-12T10:13:14.125Z</time></trkpt><trkpt lat="43.4900454" lon="11.9445134"><ele>685.0</ele><time>2026-04-12T10:13:15.126Z</time></trkpt><trkpt lat="43.4900116" lon="11.9444267"><ele>685.0</ele><time>2026-04-12T10:13:16.126Z</time></trkpt><trkpt lat="43.489989" lon="11.9443093"><ele>685.0</ele><time>2026-04-12T10:13:18.126Z</time></trkpt><trkpt lat="43.4900637" lon="11.9442102"><ele>685.0</ele><time>2026-04-12T10:13:21.115Z</time></trkpt><trkpt lat="43.4901159" lon="11.9441146"><ele>685.0</ele><time>2026-04-12T10:13:23.112Z</time></trkpt><trkpt lat="43.4901463" lon="11.9439677"><ele>685.0</ele><time>2026-04-12T10:13:25.14Z</time></trkpt><trkpt lat="43.4901649" lon="11.9438223"><ele>683.0</ele><time>2026-04-12T10:13:27.119Z</time></trkpt><trkpt lat="43.4901458" lon="11.9436668"><ele>681.0</ele><time>2026-04-12T10:13:29.13Z</time></trkpt><trkpt lat="43.4901812" lon="11.9435597"><ele>679.0</ele><time>2026-04-12T10:13:31.134Z</time></trkpt><trkpt lat="43.4902813" lon="11.9435586"><ele>677.0</ele><time>2026-04-12T10:13:33.132Z</time></trkpt><trkpt lat="43.4903932" lon="11.9435793"><ele>675.0</ele><time>2026-04-12T10:13:35.134Z</time></trkpt><trkpt lat="43.4905078" lon="11.9435986"><ele>671.4</ele><time>2026-04-12T10:13:37.132Z</time></trkpt><trkpt lat="43.4906185" lon="11.9436392"><ele>667.8</ele><time>2026-04-12T10:13:39.125Z</time></trkpt><trkpt lat="43.4906753" lon="11.9436784"><ele>664.2</ele><time>2026-04-12T10:13:40.142Z</time></trkpt><trkpt lat="43.4907568" lon="11.9437749"><ele>660.6</ele><time>2026-04-12T10:13:42.125Z</time></trkpt><trkpt lat="43.4908186" lon="11.9438768"><ele>657.0</ele><time>2026-04-12T10:13:44.128Z</time></trkpt><trkpt lat="43.4908654" lon="11.943977"><ele>657.0</ele><time>2026-04-12T10:13:46.128Z</time></trkpt><trkpt lat="43.4908877" lon="11.944077"><ele>657.0</ele><time>2026-04-12T10:13:48.128Z</time></trkpt><trkpt lat="43.4909164" lon="11.9441959"><ele>657.0</ele><time>2026-04-12T10:13:50.127Z</time></trkpt><trkpt lat="43.4909177" lon="11.944345"><ele>657.0</ele><time>2026-04-12T10:13:52.124Z</time></trkpt><trkpt lat="43.4909538" lon="11.9445005"><ele>657.0</ele><time>2026-04-12T10:13:54.122Z</time></trkpt><trkpt lat="43.4909956" lon="11.9446565"><ele>656.2</ele><time>2026-04-12T10:13:56.117Z</time></trkpt><trkpt lat="43.4910135" lon="11.9447405"><ele>655.4000000000001</ele><time>2026-04-12T10:13:57.132Z</time></trkpt><trkpt lat="43.4910787" lon="11.9449042"><ele>654.5999999999999</ele><time>2026-04-12T10:13:59.133Z</time></trkpt><trkpt lat="43.4911568" lon="11.9450392"><ele>653.8</ele><time>2026-04-12T10:14:01.122Z</time></trkpt><trkpt lat="43.491217" lon="11.9451346"><ele>653.0</ele><time>2026-04-12T10:14:03.119Z</time></trkpt><trkpt lat="43.4913055" lon="11.9451383"><ele>653.0</ele><time>2026-04-12T10:14:05.119Z</time></trkpt><trkpt lat="43.4913748" lon="11.9451232"><ele>653.0</ele><time>2026-04-12T10:14:06.144Z</time></trkpt><trkpt lat="43.4914912" lon="11.9451334"><ele>653.0</ele><time>2026-04-12T10:14:08.131Z</time></trkpt><trkpt lat="43.4916211" lon="11.9451463"><ele>653.0</ele><time>2026-04-12T10:14:10.118Z</time></trkpt><trkpt lat="43.4916916" lon="11.9451778"><ele>653.0</ele><time>2026-04-12T10:14:11.112Z</time></trkpt><trkpt lat="43.4917529" lon="11.9452166"><ele>653.0000000000001</ele><time>2026-04-12T10:14:12.129Z</time></trkpt><trkpt lat="43.491802" lon="11.9452777"><ele>653.0</ele><time>2026-04-12T10:14:13.118Z</time></trkpt><trkpt lat="43.4918488" lon="11.9453406"><ele>653.0</ele><time>2026-04-12T10:14:14.125Z</time></trkpt><trkpt lat="43.4919344" lon="11.9453856"><ele>653.0</ele><time>2026-04-12T10:14:16.124Z</time></trkpt><trkpt lat="43.4920004" lon="11.945381"><ele>653.0</ele><time>2026-04-12T10:14:17.123Z</time></trkpt><trkpt lat="43.4920767" lon="11.9453805"><ele>653.0000000000001</ele><time>2026-04-12T10:14:18.139Z</time></trkpt><trkpt lat="43.4921523" lon="11.9453925"><ele>653.0</ele><time>2026-04-12T10:14:19.117Z</time></trkpt><trkpt lat="43.4922711" lon="11.9453812"><ele>648.75</ele><time>2026-04-12T10:14:21.119Z</time></trkpt><trkpt lat="43.4923758" lon="11.9452982"><ele>644.5</ele><time>2026-04-12T10:14:23.123Z</time></trkpt><trkpt lat="43.4924722" lon="11.9452012"><ele>640.25</ele><time>2026-04-12T10:14:25.122Z</time></trkpt><trkpt lat="43.4925605" lon="11.9450848"><ele>636.0</ele><time>2026-04-12T10:14:27.142Z</time></trkpt><trkpt lat="43.4926513" lon="11.9450313"><ele>636.0</ele><time>2026-04-12T10:14:29.117Z</time></trkpt><trkpt lat="43.4927646" lon="11.9450827"><ele>636.0</ele><time>2026-04-12T10:14:31.13Z</time></trkpt><trkpt lat="43.4928078" lon="11.9451505"><ele>636.0</ele><time>2026-04-12T10:14:32.123Z</time></trkpt><trkpt lat="43.4928437" lon="11.9452232"><ele>636.0</ele><time>2026-04-12T10:14:33.12Z</time></trkpt><trkpt lat="43.4928697" lon="11.9453113"><ele>636.0</ele><time>2026-04-12T10:14:34.116Z</time></trkpt><trkpt lat="43.4928935" lon="11.945394"><ele>636.0</ele><time>2026-04-12T10:14:35.124Z</time></trkpt><trkpt lat="43.4929229" lon="11.9454868"><ele>633.0</ele><time>2026-04-12T10:14:36.128Z</time></trkpt><trkpt lat="43.4929489" lon="11.9455712"><ele>630.0</ele><time>2026-04-12T10:14:37.134Z</time></trkpt><trkpt lat="43.4929927" lon="11.9456889"><ele>627.0</ele><time>2026-04-12T10:14:39.126Z</time></trkpt><trkpt lat="43.4931403" lon="11.9457347"><ele>624.0</ele><time>2026-04-12T10:14:41.115Z</time></trkpt><trkpt lat="43.4932216" lon="11.9457602"><ele>621.0</ele><time>2026-04-12T10:14:42.123Z</time></trkpt><trkpt lat="43.4932932" lon="11.9457985"><ele>621.0</ele><time>2026-04-12T10:14:43.127Z</time></trkpt><trkpt lat="43.4933496" lon="11.9458506"><ele>621.0</ele><time>2026-04-12T10:14:44.11Z</time></trkpt><trkpt lat="43.4933941" lon="11.9459216"><ele>621.0</ele><time>2026-04-12T10:14:45.133Z</time></trkpt><trkpt lat="43.4934302" lon="11.9459975"><ele>621.0</ele><time>2026-04-12T10:14:46.128Z</time></trkpt><trkpt lat="43.4935301" lon="11.9460609"><ele>621.0</ele><time>2026-04-12T10:14:48.136Z</time></trkpt><trkpt lat="43.4936451" lon="11.9460876"><ele>621.0</ele><time>2026-04-12T10:14:50.119Z</time></trkpt><trkpt lat="43.4937559" lon="11.946145"><ele>617.6</ele><time>2026-04-12T10:14:52.117Z</time></trkpt><trkpt lat="43.4938432" lon="11.9461704"><ele>614.2</ele><time>2026-04-12T10:14:54.111Z</time></trkpt><trkpt lat="43.4939035" lon="11.9460886"><ele>610.8</ele><time>2026-04-12T10:14:56.117Z</time></trkpt><trkpt lat="43.4939751" lon="11.945959"><ele>607.4</ele><time>2026-04-12T10:14:58.124Z</time></trkpt><trkpt lat="43.4940164" lon="11.9458919"><ele>604.0</ele><time>2026-04-12T10:14:59.126Z</time></trkpt><trkpt lat="43.4941227" lon="11.9457974"><ele>604.0000000000001</ele><time>2026-04-12T10:15:01.123Z</time></trkpt><trkpt lat="43.4941894" lon="11.9457666"><ele>604.0</ele><time>2026-04-12T10:15:02.123Z</time></trkpt><trkpt lat="43.4942617" lon="11.9457534"><ele>604.0</ele><time>2026-04-12T10:15:03.128Z</time></trkpt><trkpt lat="43.4943292" lon="11.9457398"><ele>604.0</ele><time>2026-04-12T10:15:04.127Z</time></trkpt><trkpt lat="43.4943965" lon="11.9457285"><ele>604.0</ele><time>2026-04-12T10:15:05.11Z</time></trkpt><trkpt lat="43.4944607" lon="11.945707"><ele>604.0000000000001</ele><time>2026-04-12T10:15:06.117Z</time></trkpt><trkpt lat="43.4945204" lon="11.9456653"><ele>604.0</ele><time>2026-04-12T10:15:07.117Z</time></trkpt><trkpt lat="43.4945802" lon="11.9456228"><ele>602.1666666666667</ele><time>2026-04-12T10:15:08.134Z</time></trkpt><trkpt lat="43.4946376" lon="11.9455718"><ele>600.3333333333334</ele><time>2026-04-12T10:15:09.128Z</time></trkpt><trkpt lat="43.4947552" lon="11.9455227"><ele>598.5</ele><time>2026-04-12T10:15:11.119Z</time></trkpt><trkpt lat="43.4948207" lon="11.9455134"><ele>596.6666666666666</ele><time>2026-04-12T10:15:12.12Z</time></trkpt><trkpt lat="43.4949152" lon="11.9454592"><ele>594.8333333333333</ele><time>2026-04-12T10:15:14.12Z</time></trkpt><trkpt lat="43.4949853" lon="11.9454148"><ele>593.0</ele><time>2026-04-12T10:15:16.127Z</time></trkpt><trkpt lat="43.4949108" lon="11.9454968"><ele>593.0</ele><time>2026-04-12T10:15:41.137Z</time></trkpt><trkpt lat="43.4948379" lon="11.9455295"><ele>593.0</ele><time>2026-04-12T10:15:43.13Z</time></trkpt><trkpt lat="43.4947698" lon="11.9455331"><ele>593.0</ele><time>2026-04-12T10:16:13.117Z</time></trkpt><trkpt lat="43.4946772" lon="11.9455761"><ele>593.0</ele><time>2026-04-12T10:16:15.126Z</time></trkpt><trkpt lat="43.4945724" lon="11.9456522"><ele>593.0</ele><time>2026-04-12T10:16:17.124Z</time></trkpt><trkpt lat="43.4945132" lon="11.9456969"><ele>593.0</ele><time>2026-04-12T10:16:18.14Z</time></trkpt><trkpt lat="43.4944578" lon="11.9457431"><ele>593.5714285714286</ele><time>2026-04-12T10:16:19.133Z</time></trkpt><trkpt lat="43.4943934" lon="11.9457548"><ele>594.1428571428571</ele><time>2026-04-12T10:16:20.144Z</time></trkpt><trkpt lat="43.4943301" lon="11.9457626"><ele>594.7142857142858</ele><time>2026-04-12T10:16:21.116Z</time></trkpt><trkpt lat="43.4942666" lon="11.9457697"><ele>595.2857142857142</ele><time>2026-04-12T10:16:22.121Z</time></trkpt><trkpt lat="43.4941577" lon="11.9457937"><ele>595.8571428571429</ele><time>2026-04-12T10:16:24.127Z</time></trkpt><trkpt lat="43.4940975" lon="11.9458387"><ele>596.4285714285714</ele><time>2026-04-12T10:16:25.128Z</time></trkpt><trkpt lat="43.494036" lon="11.9458826"><ele>597.0</ele><time>2026-04-12T10:16:26.133Z</time></trkpt><trkpt lat="43.4939922" lon="11.9459564"><ele>597.0</ele><time>2026-04-12T10:16:27.125Z</time></trkpt><trkpt lat="43.4939501" lon="11.9460265"><ele>597.0</ele><time>2026-04-12T10:16:28.124Z</time></trkpt><trkpt lat="43.4939053" lon="11.9460947"><ele>597.0</ele><time>2026-04-12T10:16:29.124Z</time></trkpt><trkpt lat="43.4938249" lon="11.9461738"><ele>597.0</ele><time>2026-04-12T10:16:31.112Z</time></trkpt><trkpt lat="43.4937254" lon="11.9461569"><ele>597.0</ele><time>2026-04-12T10:16:33.124Z</time></trkpt><trkpt lat="43.4936665" lon="11.9461162"><ele>597.0</ele><time>2026-04-12T10:16:34.123Z</time></trkpt><trkpt lat="43.4936069" lon="11.9460742"><ele>600.0</ele><time>2026-04-12T10:16:35.143Z</time></trkpt><trkpt lat="43.4934833" lon="11.9460403"><ele>603.0</ele><time>2026-04-12T10:16:37.117Z</time></trkpt><trkpt lat="43.4933928" lon="11.9459216"><ele>606.0</ele><time>2026-04-12T10:16:39.121Z</time></trkpt><trkpt lat="43.4933168" lon="11.9458079"><ele>609.0</ele><time>2026-04-12T10:16:41.127Z</time></trkpt><trkpt lat="43.4932407" lon="11.9457731"><ele>612.0</ele><time>2026-04-12T10:16:42.126Z</time></trkpt><trkpt lat="43.493167" lon="11.9457382"><ele>613.5</ele><time>2026-04-12T10:16:43.132Z</time></trkpt><trkpt lat="43.4930875" lon="11.9457141"><ele>615.0</ele><time>2026-04-12T10:16:44.126Z</time></trkpt><trkpt lat="43.4930178" lon="11.9456839"><ele>616.5</ele><time>2026-04-12T10:16:45.127Z</time></trkpt><trkpt lat="43.4929497" lon="11.9455945"><ele>618.0</ele><time>2026-04-12T10:16:47.124Z</time></trkpt><trkpt lat="43.4929137" lon="11.9454567"><ele>619.5</ele><time>2026-04-12T10:16:49.127Z</time></trkpt><trkpt lat="43.4928768" lon="11.9453572"><ele>621.0</ele><time>2026-04-12T10:16:50.137Z</time></trkpt><trkpt lat="43.4928386" lon="11.9452626"><ele>621.6666666666666</ele><time>2026-04-12T10:16:51.125Z</time></trkpt><trkpt lat="43.4927981" lon="11.9451873"><ele>622.3333333333334</ele><time>2026-04-12T10:16:52.127Z</time></trkpt><trkpt lat="43.4927548" lon="11.945113"><ele>623.0</ele><time>2026-04-12T10:16:53.133Z</time></trkpt><trkpt lat="43.4926998" lon="11.9450548"><ele>623.6666666666667</ele><time>2026-04-12T10:16:54.13Z</time></trkpt><trkpt lat="43.4926204" lon="11.9450332"><ele>624.3333333333334</ele><time>2026-04-12T10:16:56.124Z</time></trkpt><trkpt lat="43.492529" lon="11.9451261"><ele>625.0</ele><time>2026-04-12T10:16:58.136Z</time></trkpt><trkpt lat="43.4924681" lon="11.9452086"><ele>627.2</ele><time>2026-04-12T10:16:59.128Z</time></trkpt><trkpt lat="43.492412" lon="11.9452829"><ele>629.4</ele><time>2026-04-12T10:17:00.135Z</time></trkpt><trkpt lat="43.4923566" lon="11.9453331"><ele>631.6</ele><time>2026-04-12T10:17:01.129Z</time></trkpt><trkpt lat="43.4922392" lon="11.9453965"><ele>633.8</ele><time>2026-04-12T10:17:03.119Z</time></trkpt><trkpt lat="43.4921176" lon="11.9454055"><ele>636.0</ele><time>2026-04-12T10:17:05.104Z</time></trkpt><trkpt lat="43.4919974" lon="11.9454118"><ele>639.4</ele><time>2026-04-12T10:17:07.127Z</time></trkpt><trkpt lat="43.4918714" lon="11.945406"><ele>642.8</ele><time>2026-04-12T10:17:09.131Z</time></trkpt><trkpt lat="43.4918103" lon="11.9453665"><ele>646.1999999999999</ele><time>2026-04-12T10:17:10.127Z</time></trkpt><trkpt lat="43.491725" lon="11.945243"><ele>649.6</ele><time>2026-04-12T10:17:12.145Z</time></trkpt><trkpt lat="43.4916655" lon="11.9451986"><ele>653.0</ele><time>2026-04-12T10:17:13.116Z</time></trkpt><trkpt lat="43.4915987" lon="11.945179"><ele>653.0</ele><time>2026-04-12T10:17:14.117Z</time></trkpt><trkpt lat="43.4915195" lon="11.9451632"><ele>653.0</ele><time>2026-04-12T10:17:15.126Z</time></trkpt><trkpt lat="43.4914394" lon="11.9451428"><ele>653.0</ele><time>2026-04-12T10:17:16.146Z</time></trkpt><trkpt lat="43.491375" lon="11.9451297"><ele>653.0</ele><time>2026-04-12T10:17:17.12Z</time></trkpt><trkpt lat="43.4913089" lon="11.9451391"><ele>653.0</ele><time>2026-04-12T10:17:18.129Z</time></trkpt><trkpt lat="43.4912093" lon="11.9451103"><ele>653.0</ele><time>2026-04-12T10:17:20.127Z</time></trkpt><trkpt lat="43.4911325" lon="11.9449621"><ele>655.0</ele><time>2026-04-12T10:17:22.123Z</time></trkpt><trkpt lat="43.4910764" lon="11.9448741"><ele>657.0</ele><time>2026-04-12T10:17:23.124Z</time></trkpt><trkpt lat="43.4910277" lon="11.9447721"><ele>659.0</ele><time>2026-04-12T10:17:24.139Z</time></trkpt><trkpt lat="43.4909881" lon="11.9446701"><ele>661.0</ele><time>2026-04-12T10:17:25.114Z</time></trkpt><trkpt lat="43.4909632" lon="11.9445621"><ele>663.0</ele><time>2026-04-12T10:17:26.135Z</time></trkpt><trkpt lat="43.4909546" lon="11.9444667"><ele>665.0</ele><time>2026-04-12T10:17:27.119Z</time></trkpt><trkpt lat="43.4909303" lon="11.9443553"><ele>665.0</ele><time>2026-04-12T10:17:28.142Z</time></trkpt><trkpt lat="43.4909116" lon="11.9442588"><ele>665.0</ele><time>2026-04-12T10:17:29.118Z</time></trkpt><trkpt lat="43.4908891" lon="11.9440985"><ele>665.0</ele><time>2026-04-12T10:17:31.127Z</time></trkpt><trkpt lat="43.4908536" lon="11.9440103"><ele>665.0</ele><time>2026-04-12T10:17:32.125Z</time></trkpt><trkpt lat="43.490808" lon="11.9439191"><ele>665.0</ele><time>2026-04-12T10:17:33.129Z</time></trkpt><trkpt lat="43.4907601" lon="11.9438452"><ele>665.0</ele><time>2026-04-12T10:17:34.124Z</time></trkpt><trkpt lat="43.4907123" lon="11.9437758"><ele>663.8571428571429</ele><time>2026-04-12T10:17:35.125Z</time></trkpt><trkpt lat="43.4906599" lon="11.943722"><ele>662.7142857142858</ele><time>2026-04-12T10:17:36.126Z</time></trkpt><trkpt lat="43.4906052" lon="11.9436716"><ele>661.5714285714286</ele><time>2026-04-12T10:17:37.128Z</time></trkpt><trkpt lat="43.4905398" lon="11.9436363"><ele>660.4285714285714</ele><time>2026-04-12T10:17:38.132Z</time></trkpt><trkpt lat="43.490467" lon="11.9436119"><ele>659.2857142857143</ele><time>2026-04-12T10:17:39.121Z</time></trkpt><trkpt lat="43.4903898" lon="11.9435901"><ele>658.1428571428571</ele><time>2026-04-12T10:17:40.143Z</time></trkpt><trkpt lat="43.4903151" lon="11.94357"><ele>657.0</ele><time>2026-04-12T10:17:41.125Z</time></trkpt><trkpt lat="43.4902413" lon="11.9435547"><ele>660.0</ele><time>2026-04-12T10:17:42.125Z</time></trkpt><trkpt lat="43.4901741" lon="11.9435851"><ele>663.0</ele><time>2026-04-12T10:17:44.155Z</time></trkpt><trkpt lat="43.4901192" lon="11.9436838"><ele>666.0</ele><time>2026-04-12T10:17:46.119Z</time></trkpt><trkpt lat="43.4901278" lon="11.9438319"><ele>669.0</ele><time>2026-04-12T10:17:48.14Z</time></trkpt><trkpt lat="43.4901426" lon="11.94399"><ele>672.0</ele><time>2026-04-12T10:17:50.124Z</time></trkpt><trkpt lat="43.4901269" lon="11.944076"><ele>675.0</ele><time>2026-04-12T10:17:51.126Z</time></trkpt><trkpt lat="43.4901038" lon="11.9441744"><ele>677.0</ele><time>2026-04-12T10:17:52.131Z</time></trkpt><trkpt lat="43.490076" lon="11.9442539"><ele>679.0</ele><time>2026-04-12T10:17:53.152Z</time></trkpt><trkpt lat="43.4900147" lon="11.9443459"><ele>681.0</ele><time>2026-04-12T10:17:55.136Z</time></trkpt><trkpt lat="43.4900333" lon="11.9444717"><ele>683.0</ele><time>2026-04-12T10:17:58.136Z</time></trkpt><trkpt lat="43.4900903" lon="11.944633"><ele>685.0</ele><time>2026-04-12T10:18:00.156Z</time></trkpt><trkpt lat="43.4901196" lon="11.9447251"><ele>685.0</ele><time>2026-04-12T10:18:01.124Z</time></trkpt><trkpt lat="43.4901356" lon="11.9448495"><ele>685.0</ele><time>2026-04-12T10:18:03.114Z</time></trkpt><trkpt lat="43.4900668" lon="11.944954"><ele>685.0</ele><time>2026-04-12T10:18:05.139Z</time></trkpt><trkpt lat="43.4899478" lon="11.9450319"><ele>685.0</ele><time>2026-04-12T10:18:07.125Z</time></trkpt><trkpt lat="43.4898963" lon="11.9450913"><ele>685.0</ele><time>2026-04-12T10:18:08.119Z</time></trkpt><trkpt lat="43.4898237" lon="11.9452024"><ele>686.0</ele><time>2026-04-12T10:18:10.119Z</time></trkpt><trkpt lat="43.4897555" lon="11.9452731"><ele>687.0</ele><time>2026-04-12T10:18:12.123Z</time></trkpt><trkpt lat="43.4896914" lon="11.9453184"><ele>688.0</ele><time>2026-04-12T10:18:13.127Z</time></trkpt><trkpt lat="43.4896349" lon="11.9454131"><ele>689.0</ele><time>2026-04-12T10:18:14.12Z</time></trkpt><trkpt lat="43.489587" lon="11.9454918"><ele>690.0</ele><time>2026-04-12T10:18:15.118Z</time></trkpt><trkpt lat="43.4895405" lon="11.9455628"><ele>691.0</ele><time>2026-04-12T10:18:16.116Z</time></trkpt><trkpt lat="43.4894781" lon="11.9456169"><ele>691.0</ele><time>2026-04-12T10:18:17.144Z</time></trkpt><trkpt lat="43.4894215" lon="11.9456728"><ele>691.0</ele><time>2026-04-12T10:18:18.128Z</time></trkpt><trkpt lat="43.4893725" lon="11.9457534"><ele>691.0</ele><time>2026-04-12T10:18:19.121Z</time></trkpt><trkpt lat="43.4893304" lon="11.9458282"><ele>691.0</ele><time>2026-04-12T10:18:20.146Z</time></trkpt><trkpt lat="43.4892927" lon="11.945899"><ele>691.0</ele><time>2026-04-12T10:18:21.114Z</time></trkpt><trkpt lat="43.4892142" lon="11.9459791"><ele>691.0</ele><time>2026-04-12T10:18:23.119Z</time></trkpt><trkpt lat="43.4891365" lon="11.9459522"><ele>691.0</ele><time>2026-04-12T10:18:25.115Z</time></trkpt><trkpt lat="43.4890847" lon="11.9458938"><ele>691.0</ele><time>2026-04-12T10:18:26.13Z</time></trkpt><trkpt lat="43.4890161" lon="11.9458268"><ele>691.0</ele><time>2026-04-12T10:18:27.13Z</time></trkpt><trkpt lat="43.4889331" lon="11.9457479"><ele>691.0</ele><time>2026-04-12T10:18:28.123Z</time></trkpt><trkpt lat="43.4888302" lon="11.9456623"><ele>691.0</ele><time>2026-04-12T10:18:29.129Z</time></trkpt><trkpt lat="43.4887229" lon="11.9455792"><ele>691.0</ele><time>2026-04-12T10:18:30.13Z</time></trkpt><trkpt lat="43.4886084" lon="11.9454942"><ele>691.0</ele><time>2026-04-12T10:18:31.133Z</time></trkpt><trkpt lat="43.4884914" lon="11.9454134"><ele>691.0</ele><time>2026-04-12T10:18:32.112Z</time></trkpt><trkpt lat="43.4883766" lon="11.9453317"><ele>691.0</ele><time>2026-04-12T10:18:33.127Z</time></trkpt><trkpt lat="43.4882679" lon="11.9452488"><ele>691.0</ele><time>2026-04-12T10:18:34.128Z</time></trkpt><trkpt lat="43.4881721" lon="11.9451685"><ele>691.0</ele><time>2026-04-12T10:18:35.127Z</time></trkpt><trkpt lat="43.4880919" lon="11.9450984"><ele>691.0</ele><time>2026-04-12T10:18:36.115Z</time></trkpt><trkpt lat="43.4880298" lon="11.9450445"><ele>691.0</ele><time>2026-04-12T10:18:37.126Z</time></trkpt><trkpt lat="43.4879586" lon="11.9450194"><ele>691.0</ele><time>2026-04-12T10:18:38.111Z</time></trkpt><trkpt lat="43.4878902" lon="11.9450291"><ele>691.0</ele><time>2026-04-12T10:18:39.124Z</time></trkpt><trkpt lat="43.4878165" lon="11.9450425"><ele>691.0</ele><time>2026-04-12T10:18:40.125Z</time></trkpt><trkpt lat="43.4877397" lon="11.9450902"><ele>691.0</ele><time>2026-04-12T10:18:41.129Z</time></trkpt><trkpt lat="43.4876713" lon="11.945131"><ele>691.0</ele><time>2026-04-12T10:18:42.117Z</time></trkpt><trkpt lat="43.4875602" lon="11.9451227"><ele>691.0</ele><time>2026-04-12T10:18:44.118Z</time></trkpt><trkpt lat="43.4875052" lon="11.9449507"><ele>691.0</ele><time>2026-04-12T10:18:46.131Z</time></trkpt><trkpt lat="43.4874807" lon="11.9448305"><ele>688.8</ele><time>2026-04-12T10:18:47.121Z</time></trkpt><trkpt lat="43.4874656" lon="11.9446884"><ele>686.5999999999999</ele><time>2026-04-12T10:18:48.119Z</time></trkpt><trkpt lat="43.4874343" lon="11.9445461"><ele>684.4</ele><time>2026-04-12T10:18:49.141Z</time></trkpt><trkpt lat="43.4873895" lon="11.9444071"><ele>682.2</ele><time>2026-04-12T10:18:50.122Z</time></trkpt><trkpt lat="43.4873345" lon="11.9442731"><ele>680.0</ele><time>2026-04-12T10:18:51.121Z</time></trkpt><trkpt lat="43.4872772" lon="11.9441356"><ele>677.2</ele><time>2026-04-12T10:18:52.119Z</time></trkpt><trkpt lat="43.4872324" lon="11.9439996"><ele>674.4</ele><time>2026-04-12T10:18:53.126Z</time></trkpt><trkpt lat="43.4872073" lon="11.9438621"><ele>671.5999999999999</ele><time>2026-04-12T10:18:54.147Z</time></trkpt><trkpt lat="43.487203" lon="11.9437182"><ele>668.8</ele><time>2026-04-12T10:18:55.122Z</time></trkpt><trkpt lat="43.4872111" lon="11.9435846"><ele>666.0</ele><time>2026-04-12T10:18:56.121Z</time></trkpt><trkpt lat="43.4872113" lon="11.9434672"><ele>667.1666666666666</ele><time>2026-04-12T10:18:57.124Z</time></trkpt><trkpt lat="43.4871945" lon="11.9433671"><ele>668.3333333333334</ele><time>2026-04-12T10:18:58.123Z</time></trkpt><trkpt lat="43.4871579" lon="11.94328"><ele>669.5</ele><time>2026-04-12T10:18:59.134Z</time></trkpt><trkpt lat="43.4871056" lon="11.9432054"><ele>670.6666666666667</ele><time>2026-04-12T10:19:00.106Z</time></trkpt><trkpt lat="43.487046" lon="11.9431386"><ele>671.8333333333334</ele><time>2026-04-12T10:19:01.132Z</time></trkpt><trkpt lat="43.4869824" lon="11.9430644"><ele>673.0</ele><time>2026-04-12T10:19:02.119Z</time></trkpt><trkpt lat="43.4869186" lon="11.9429737"><ele>673.0</ele><time>2026-04-12T10:19:03.126Z</time></trkpt><trkpt lat="43.4868719" lon="11.9428795"><ele>673.0</ele><time>2026-04-12T10:19:04.113Z</time></trkpt><trkpt lat="43.4868476" lon="11.9427917"><ele>673.0</ele><time>2026-04-12T10:19:05.118Z</time></trkpt><trkpt lat="43.4868534" lon="11.9426431"><ele>673.0</ele><time>2026-04-12T10:19:07.12Z</time></trkpt><trkpt lat="43.4869765" lon="11.9425808"><ele>673.0</ele><time>2026-04-12T10:19:09.126Z</time></trkpt><trkpt lat="43.4870575" lon="11.9425793"><ele>669.3333333333334</ele><time>2026-04-12T10:19:10.133Z</time></trkpt><trkpt lat="43.4871332" lon="11.9425611"><ele>665.6666666666667</ele><time>2026-04-12T10:19:11.133Z</time></trkpt><trkpt lat="43.4872048" lon="11.942525"><ele>662.0</ele><time>2026-04-12T10:19:12.131Z</time></trkpt><trkpt lat="43.4872665" lon="11.9424634"><ele>658.3333333333334</ele><time>2026-04-12T10:19:13.122Z</time></trkpt><trkpt lat="43.4873122" lon="11.9423758"><ele>654.6666666666666</ele><time>2026-04-12T10:19:14.13Z</time></trkpt><trkpt lat="43.4873478" lon="11.9422539"><ele>651.0</ele><time>2026-04-12T10:19:15.125Z</time></trkpt><trkpt lat="43.4873797" lon="11.9420973"><ele>649.75</ele><time>2026-04-12T10:19:16.123Z</time></trkpt><trkpt lat="43.4874152" lon="11.94192"><ele>648.5</ele><time>2026-04-12T10:19:17.11Z</time></trkpt><trkpt lat="43.4874507" lon="11.9417444"><ele>647.25</ele><time>2026-04-12T10:19:18.12Z</time></trkpt><trkpt lat="43.4874871" lon="11.9415733"><ele>646.0</ele><time>2026-04-12T10:19:19.151Z</time></trkpt><trkpt lat="43.4875279" lon="11.941417"><ele>645.8</ele><time>2026-04-12T10:19:20.124Z</time></trkpt><trkpt lat="43.4875738" lon="11.9412801"><ele>645.5999999999999</ele><time>2026-04-12T10:19:21.14Z</time></trkpt><trkpt lat="43.4876183" lon="11.9411582"><ele>645.4</ele><time>2026-04-12T10:19:22.115Z</time></trkpt><trkpt lat="43.487645" lon="11.9410406"><ele>645.2</ele><time>2026-04-12T10:19:23.113Z</time></trkpt><trkpt lat="43.4876484" lon="11.9409241"><ele>645.0</ele><time>2026-04-12T10:19:24.127Z</time></trkpt><trkpt lat="43.4876294" lon="11.9408032"><ele>644.0</ele><time>2026-04-12T10:19:25.128Z</time></trkpt><trkpt lat="43.4875897" lon="11.9406913"><ele>643.0</ele><time>2026-04-12T10:19:26.131Z</time></trkpt><trkpt lat="43.4875296" lon="11.9405901"><ele>642.0</ele><time>2026-04-12T10:19:27.132Z</time></trkpt><trkpt lat="43.487467" lon="11.9404896"><ele>641.0</ele><time>2026-04-12T10:19:28.125Z</time></trkpt><trkpt lat="43.4873792" lon="11.9403936"><ele>640.0</ele><time>2026-04-12T10:19:29.136Z</time></trkpt><trkpt lat="43.4872879" lon="11.9402922"><ele>640.0</ele><time>2026-04-12T10:19:30.129Z</time></trkpt><trkpt lat="43.4872021" lon="11.9402028"><ele>640.0</ele><time>2026-04-12T10:19:31.126Z</time></trkpt><trkpt lat="43.487124" lon="11.9401288"><ele>640.0</ele><time>2026-04-12T10:19:32.12Z</time></trkpt><trkpt lat="43.4870454" lon="11.9400715"><ele>640.0</ele><time>2026-04-12T10:19:33.122Z</time></trkpt><trkpt lat="43.4869666" lon="11.9400323"><ele>640.0</ele><time>2026-04-12T10:19:34.113Z</time></trkpt><trkpt lat="43.4868869" lon="11.940014"><ele>639.1666666666667</ele><time>2026-04-12T10:19:35.125Z</time></trkpt><trkpt lat="43.4868101" lon="11.9400046"><ele>638.3333333333334</ele><time>2026-04-12T10:19:36.137Z</time></trkpt><trkpt lat="43.4867439" lon="11.9399842"><ele>637.5</ele><time>2026-04-12T10:19:37.137Z</time></trkpt><trkpt lat="43.486672" lon="11.9398446"><ele>636.6666666666666</ele><time>2026-04-12T10:19:39.124Z</time></trkpt><trkpt lat="43.4866661" lon="11.9397359"><ele>635.8333333333333</ele><time>2026-04-12T10:19:40.124Z</time></trkpt><trkpt lat="43.4866469" lon="11.9396162"><ele>635.0</ele><time>2026-04-12T10:19:41.12Z</time></trkpt><trkpt lat="43.4866004" lon="11.9394911"><ele>635.0</ele><time>2026-04-12T10:19:42.109Z</time></trkpt><trkpt lat="43.4865335" lon="11.9393578"><ele>635.0</ele><time>2026-04-12T10:19:43.123Z</time></trkpt><trkpt lat="43.4864601" lon="11.9392107"><ele>635.0</ele><time>2026-04-12T10:19:44.127Z</time></trkpt><trkpt lat="43.4863895" lon="11.9390615"><ele>635.0</ele><time>2026-04-12T10:19:45.109Z</time></trkpt><trkpt lat="43.4863197" lon="11.9389253"><ele>633.4</ele><time>2026-04-12T10:19:46.126Z</time></trkpt><trkpt lat="43.4862481" lon="11.9388044"><ele>631.8</ele><time>2026-04-12T10:19:47.117Z</time></trkpt><trkpt lat="43.4861727" lon="11.9387019"><ele>630.2</ele><time>2026-04-12T10:19:48.126Z</time></trkpt><trkpt lat="43.4860889" lon="11.9386123"><ele>628.6</ele><time>2026-04-12T10:19:49.132Z</time></trkpt><trkpt lat="43.4859979" lon="11.9385402"><ele>627.0</ele><time>2026-04-12T10:19:50.122Z</time></trkpt><trkpt lat="43.4859" lon="11.9384883"><ele>627.0</ele><time>2026-04-12T10:19:51.127Z</time></trkpt><trkpt lat="43.4858005" lon="11.9384539"><ele>627.0</ele><time>2026-04-12T10:19:52.117Z</time></trkpt><trkpt lat="43.4857073" lon="11.9384239"><ele>627.0</ele><time>2026-04-12T10:19:53.13Z</time></trkpt><trkpt lat="43.485621" lon="11.9383839"><ele>627.0</ele><time>2026-04-12T10:19:54.126Z</time></trkpt><trkpt lat="43.4855505" lon="11.938318"><ele>627.0</ele><time>2026-04-12T10:19:55.13Z</time></trkpt><trkpt lat="43.4854954" lon="11.9382317"><ele>624.0</ele><time>2026-04-12T10:19:56.135Z</time></trkpt><trkpt lat="43.4854393" lon="11.9381628"><ele>621.0</ele><time>2026-04-12T10:19:57.134Z</time></trkpt><trkpt lat="43.4853842" lon="11.9380982"><ele>618.0</ele><time>2026-04-12T10:19:58.138Z</time></trkpt><trkpt lat="43.4853101" lon="11.9380923"><ele>615.0</ele><time>2026-04-12T10:19:59.158Z</time></trkpt><trkpt lat="43.4852259" lon="11.9381169"><ele>612.0</ele><time>2026-04-12T10:20:00.143Z</time></trkpt><trkpt lat="43.4851306" lon="11.9381626"><ele>609.0</ele><time>2026-04-12T10:20:01.13Z</time></trkpt><trkpt lat="43.4850297" lon="11.9382275"><ele>608.0</ele><time>2026-04-12T10:20:02.13Z</time></trkpt><trkpt lat="43.4849272" lon="11.9383091"><ele>607.0</ele><time>2026-04-12T10:20:03.117Z</time></trkpt><trkpt lat="43.4848208" lon="11.9383995"><ele>606.0</ele><time>2026-04-12T10:20:04.124Z</time></trkpt><trkpt lat="43.4847073" lon="11.9384982"><ele>605.0</ele><time>2026-04-12T10:20:05.106Z</time></trkpt><trkpt lat="43.4845967" lon="11.9386014"><ele>606.6</ele><time>2026-04-12T10:20:06.114Z</time></trkpt><trkpt lat="43.4844938" lon="11.9387011"><ele>608.2</ele><time>2026-04-12T10:20:07.121Z</time></trkpt><trkpt lat="43.4844093" lon="11.9387895"><ele>609.8</ele><time>2026-04-12T10:20:08.123Z</time></trkpt><trkpt lat="43.4843343" lon="11.9388662"><ele>611.4</ele><time>2026-04-12T10:20:09.122Z</time></trkpt><trkpt lat="43.4842605" lon="11.9389015"><ele>613.0</ele><time>2026-04-12T10:20:10.12Z</time></trkpt><trkpt lat="43.4841927" lon="11.9388891"><ele>613.0</ele><time>2026-04-12T10:20:11.116Z</time></trkpt><trkpt lat="43.484134" lon="11.9388454"><ele>613.0</ele><time>2026-04-12T10:20:12.12Z</time></trkpt><trkpt lat="43.484102" lon="11.9387706"><ele>613.0</ele><time>2026-04-12T10:20:13.145Z</time></trkpt><trkpt lat="43.4841259" lon="11.9386031"><ele>613.0</ele><time>2026-04-12T10:20:15.119Z</time></trkpt><trkpt lat="43.484157" lon="11.9385152"><ele>613.0</ele><time>2026-04-12T10:20:16.126Z</time></trkpt><trkpt lat="43.4841921" lon="11.9384175"><ele>613.0</ele><time>2026-04-12T10:20:17.105Z</time></trkpt><trkpt lat="43.4842223" lon="11.9383062"><ele>612.4</ele><time>2026-04-12T10:20:18.114Z</time></trkpt><trkpt lat="43.4842498" lon="11.9381886"><ele>611.8</ele><time>2026-04-12T10:20:19.121Z</time></trkpt><trkpt lat="43.4842763" lon="11.938066"><ele>611.2</ele><time>2026-04-12T10:20:20.118Z</time></trkpt><trkpt lat="43.4843059" lon="11.9379403"><ele>610.6</ele><time>2026-04-12T10:20:21.137Z</time></trkpt><trkpt lat="43.4843366" lon="11.937816"><ele>610.0</ele><time>2026-04-12T10:20:22.136Z</time></trkpt><trkpt lat="43.4843674" lon="11.9377005"><ele>610.0</ele><time>2026-04-12T10:20:23.117Z</time></trkpt><trkpt lat="43.4844052" lon="11.9375995"><ele>610.0</ele><time>2026-04-12T10:20:24.116Z</time></trkpt><trkpt lat="43.4844519" lon="11.937513"><ele>610.0</ele><time>2026-04-12T10:20:25.126Z</time></trkpt><trkpt lat="43.4845022" lon="11.9374281"><ele>610.0</ele><time>2026-04-12T10:20:26.128Z</time></trkpt><trkpt lat="43.4845495" lon="11.9373398"><ele>610.0</ele><time>2026-04-12T10:20:27.129Z</time></trkpt><trkpt lat="43.4846018" lon="11.9372431"><ele>610.0</ele><time>2026-04-12T10:20:28.136Z</time></trkpt><trkpt lat="43.4846627" lon="11.9371448"><ele>607.8</ele><time>2026-04-12T10:20:29.133Z</time></trkpt><trkpt lat="43.4847326" lon="11.9370406"><ele>605.6</ele><time>2026-04-12T10:20:30.122Z</time></trkpt><trkpt lat="43.4848144" lon="11.9369388"><ele>603.4</ele><time>2026-04-12T10:20:31.12Z</time></trkpt><trkpt lat="43.4848983" lon="11.9368538"><ele>601.2</ele><time>2026-04-12T10:20:32.123Z</time></trkpt><trkpt lat="43.4849718" lon="11.936778"><ele>599.0</ele><time>2026-04-12T10:20:33.131Z</time></trkpt><trkpt lat="43.4850255" lon="11.9366996"><ele>599.0</ele><time>2026-04-12T10:20:34.127Z</time></trkpt><trkpt lat="43.4850537" lon="11.936613"><ele>599.0</ele><time>2026-04-12T10:20:35.128Z</time></trkpt><trkpt lat="43.4850402" lon="11.9364448"><ele>599.0</ele><time>2026-04-12T10:20:37.136Z</time></trkpt><trkpt lat="43.4850076" lon="11.9363578"><ele>599.0</ele><time>2026-04-12T10:20:38.143Z</time></trkpt><trkpt lat="43.4849641" lon="11.9362638"><ele>599.0</ele><time>2026-04-12T10:20:39.131Z</time></trkpt><trkpt lat="43.4849075" lon="11.9361711"><ele>599.0</ele><time>2026-04-12T10:20:40.123Z</time></trkpt><trkpt lat="43.4848387" lon="11.9360741"><ele>599.0</ele><time>2026-04-12T10:20:41.114Z</time></trkpt><trkpt lat="43.484757" lon="11.9359765"><ele>599.0</ele><time>2026-04-12T10:20:42.129Z</time></trkpt><trkpt lat="43.4846614" lon="11.9358819"><ele>599.0</ele><time>2026-04-12T10:20:43.123Z</time></trkpt><trkpt lat="43.4845599" lon="11.9357877"><ele>599.0</ele><time>2026-04-12T10:20:44.143Z</time></trkpt><trkpt lat="43.4844634" lon="11.935682"><ele>601.3333333333333</ele><time>2026-04-12T10:20:45.124Z</time></trkpt><trkpt lat="43.4843801" lon="11.9355615"><ele>603.6666666666666</ele><time>2026-04-12T10:20:46.126Z</time></trkpt><trkpt lat="43.4843207" lon="11.9354511"><ele>606.0</ele><time>2026-04-12T10:20:47.13Z</time></trkpt><trkpt lat="43.4842846" lon="11.9353536"><ele>608.3333333333334</ele><time>2026-04-12T10:20:48.122Z</time></trkpt><trkpt lat="43.4842529" lon="11.9352633"><ele>610.6666666666667</ele><time>2026-04-12T10:20:49.134Z</time></trkpt><trkpt lat="43.4842658" lon="11.9351673"><ele>613.0</ele><time>2026-04-12T10:20:50.129Z</time></trkpt><trkpt lat="43.4842972" lon="11.9350731"><ele>611.6</ele><time>2026-04-12T10:20:51.125Z</time></trkpt><trkpt lat="43.4843509" lon="11.9349927"><ele>610.1999999999999</ele><time>2026-04-12T10:20:52.145Z</time></trkpt><trkpt lat="43.4844158" lon="11.9349184"><ele>608.8</ele><time>2026-04-12T10:20:53.134Z</time></trkpt><trkpt lat="43.4844859" lon="11.9348401"><ele>607.4</ele><time>2026-04-12T10:20:54.137Z</time></trkpt><trkpt lat="43.4845595" lon="11.9347504"><ele>606.0</ele><time>2026-04-12T10:20:55.121Z</time></trkpt><trkpt lat="43.4846349" lon="11.9346516"><ele>606.0</ele><time>2026-04-12T10:20:56.121Z</time></trkpt><trkpt lat="43.4847115" lon="11.9345464"><ele>606.0</ele><time>2026-04-12T10:20:57.115Z</time></trkpt><trkpt lat="43.4847897" lon="11.9344369"><ele>606.0</ele><time>2026-04-12T10:20:58.135Z</time></trkpt><trkpt lat="43.4848737" lon="11.9343225"><ele>606.0</ele><time>2026-04-12T10:20:59.151Z</time></trkpt><trkpt lat="43.4849552" lon="11.9342161"><ele>605.4</ele><time>2026-04-12T10:21:00.123Z</time></trkpt><trkpt lat="43.4850341" lon="11.9341213"><ele>604.8</ele><time>2026-04-12T10:21:01.13Z</time></trkpt><trkpt lat="43.485115" lon="11.9340425"><ele>604.1999999999999</ele><time>2026-04-12T10:21:02.143Z</time></trkpt><trkpt lat="43.4852007" lon="11.9339809"><ele>603.6</ele><time>2026-04-12T10:21:03.121Z</time></trkpt><trkpt lat="43.4852948" lon="11.9339358"><ele>603.0</ele><time>2026-04-12T10:21:04.109Z</time></trkpt><trkpt lat="43.485394" lon="11.9339055"><ele>604.0</ele><time>2026-04-12T10:21:05.105Z</time></trkpt><trkpt lat="43.4854983" lon="11.933876"><ele>605.0</ele><time>2026-04-12T10:21:06.11Z</time></trkpt><trkpt lat="43.4856105" lon="11.933847"><ele>606.0</ele><time>2026-04-12T10:21:07.122Z</time></trkpt><trkpt lat="43.4857294" lon="11.933834"><ele>607.0</ele><time>2026-04-12T10:21:08.129Z</time></trkpt><trkpt lat="43.4858524" lon="11.9338435"><ele>607.0</ele><time>2026-04-12T10:21:09.111Z</time></trkpt><trkpt lat="43.4859755" lon="11.9338712"><ele>607.0</ele><time>2026-04-12T10:21:10.114Z</time></trkpt><trkpt lat="43.4861037" lon="11.9339003"><ele>607.0</ele><time>2026-04-12T10:21:11.124Z</time></trkpt><trkpt lat="43.4862337" lon="11.9339453"><ele>607.0</ele><time>2026-04-12T10:21:12.114Z</time></trkpt><trkpt lat="43.4863634" lon="11.933991"><ele>605.75</ele><time>2026-04-12T10:21:13.117Z</time></trkpt><trkpt lat="43.4864977" lon="11.9340336"><ele>604.5</ele><time>2026-04-12T10:21:14.112Z</time></trkpt><trkpt lat="43.4866364" lon="11.9340807"><ele>603.25</ele><time>2026-04-12T10:21:15.112Z</time></trkpt><trkpt lat="43.4867806" lon="11.9341352"><ele>602.0</ele><time>2026-04-12T10:21:16.113Z</time></trkpt><trkpt lat="43.4869219" lon="11.9341865"><ele>603.75</ele><time>2026-04-12T10:21:17.13Z</time></trkpt><trkpt lat="43.4870554" lon="11.9342313"><ele>605.5</ele><time>2026-04-12T10:21:18.136Z</time></trkpt><trkpt lat="43.4871892" lon="11.9342763"><ele>607.25</ele><time>2026-04-12T10:21:19.106Z</time></trkpt><trkpt lat="43.4873242" lon="11.934324"><ele>609.0</ele><time>2026-04-12T10:21:20.118Z</time></trkpt><trkpt lat="43.4874576" lon="11.9343852"><ele>609.0</ele><time>2026-04-12T10:21:21.115Z</time></trkpt><trkpt lat="43.4875826" lon="11.9344513"><ele>609.0</ele><time>2026-04-12T10:21:22.115Z</time></trkpt><trkpt lat="43.487698" lon="11.9345184"><ele>609.0</ele><time>2026-04-12T10:21:23.116Z</time></trkpt><trkpt lat="43.4878108" lon="11.9345964"><ele>609.0</ele><time>2026-04-12T10:21:24.111Z</time></trkpt><trkpt lat="43.48792" lon="11.9346901"><ele>608.0</ele><time>2026-04-12T10:21:25.12Z</time></trkpt><trkpt lat="43.488029" lon="11.9347883"><ele>607.0</ele><time>2026-04-12T10:21:26.122Z</time></trkpt><trkpt lat="43.488134" lon="11.9348719"><ele>606.0</ele><time>2026-04-12T10:21:27.107Z</time></trkpt><trkpt lat="43.4882425" lon="11.9349359"><ele>605.0</ele><time>2026-04-12T10:21:28.113Z</time></trkpt><trkpt lat="43.488357" lon="11.9349899"><ele>605.0</ele><time>2026-04-12T10:21:29.12Z</time></trkpt><trkpt lat="43.488476" lon="11.9350404"><ele>605.0</ele><time>2026-04-12T10:21:30.129Z</time></trkpt><trkpt lat="43.488601" lon="11.9350892"><ele>605.0</ele><time>2026-04-12T10:21:31.113Z</time></trkpt><trkpt lat="43.4887349" lon="11.9351257"><ele>605.0</ele><time>2026-04-12T10:21:32.118Z</time></trkpt><trkpt lat="43.4888675" lon="11.9351428"><ele>604.0</ele><time>2026-04-12T10:21:33.117Z</time></trkpt><trkpt lat="43.4889971" lon="11.9351362"><ele>603.0</ele><time>2026-04-12T10:21:34.134Z</time></trkpt><trkpt lat="43.4891196" lon="11.9351041"><ele>602.0</ele><time>2026-04-12T10:21:35.126Z</time></trkpt><trkpt lat="43.4892304" lon="11.9350541"><ele>601.0</ele><time>2026-04-12T10:21:36.13Z</time></trkpt><trkpt lat="43.489328" lon="11.9350177"><ele>601.0</ele><time>2026-04-12T10:21:37.118Z</time></trkpt><trkpt lat="43.4894142" lon="11.9350108"><ele>601.0</ele><time>2026-04-12T10:21:38.124Z</time></trkpt><trkpt lat="43.4894925" lon="11.9350367"><ele>601.0</ele><time>2026-04-12T10:21:39.114Z</time></trkpt><trkpt lat="43.4895603" lon="11.9350919"><ele>601.0</ele><time>2026-04-12T10:21:40.121Z</time></trkpt><trkpt lat="43.489622" lon="11.9351737"><ele>601.0</ele><time>2026-04-12T10:21:41.128Z</time></trkpt><trkpt lat="43.489677" lon="11.9352724"><ele>601.0</ele><time>2026-04-12T10:21:42.122Z</time></trkpt><trkpt lat="43.4897384" lon="11.9353606"><ele>602.0</ele><time>2026-04-12T10:21:43.134Z</time></trkpt><trkpt lat="43.4898185" lon="11.9354209"><ele>603.0</ele><time>2026-04-12T10:21:44.107Z</time></trkpt><trkpt lat="43.4899123" lon="11.9354428"><ele>604.0</ele><time>2026-04-12T10:21:45.108Z</time></trkpt><trkpt lat="43.490009" lon="11.9354269"><ele>605.0</ele><time>2026-04-12T10:21:46.117Z</time></trkpt><trkpt lat="43.4901152" lon="11.9353888"><ele>606.0</ele><time>2026-04-12T10:21:47.114Z</time></trkpt><trkpt lat="43.4902353" lon="11.9353476"><ele>606.0</ele><time>2026-04-12T10:21:48.114Z</time></trkpt><trkpt lat="43.4903674" lon="11.935315"><ele>606.0</ele><time>2026-04-12T10:21:49.104Z</time></trkpt><trkpt lat="43.4904962" lon="11.9352835"><ele>606.0</ele><time>2026-04-12T10:21:50.105Z</time></trkpt><trkpt lat="43.4906204" lon="11.9352559"><ele>606.0</ele><time>2026-04-12T10:21:51.118Z</time></trkpt><trkpt lat="43.4907408" lon="11.9352222"><ele>605.5</ele><time>2026-04-12T10:21:52.124Z</time></trkpt><trkpt lat="43.4908639" lon="11.9351904"><ele>605.0</ele><time>2026-04-12T10:21:53.117Z</time></trkpt><trkpt lat="43.4909859" lon="11.93517"><ele>604.5</ele><time>2026-04-12T10:21:54.102Z</time></trkpt><trkpt lat="43.4911034" lon="11.9351569"><ele>604.0</ele><time>2026-04-12T10:21:55.118Z</time></trkpt><trkpt lat="43.491212" lon="11.9351489"><ele>603.1666666666667</ele><time>2026-04-12T10:21:56.107Z</time></trkpt><trkpt lat="43.4913103" lon="11.9351392"><ele>602.3333333333334</ele><time>2026-04-12T10:21:57.118Z</time></trkpt><trkpt lat="43.4913931" lon="11.9351088"><ele>601.5</ele><time>2026-04-12T10:21:58.123Z</time></trkpt><trkpt lat="43.4914567" lon="11.9350486"><ele>600.6666666666666</ele><time>2026-04-12T10:21:59.122Z</time></trkpt><trkpt lat="43.4915175" lon="11.9349907"><ele>599.8333333333333</ele><time>2026-04-12T10:22:00.11Z</time></trkpt><trkpt lat="43.4915525" lon="11.9348947"><ele>599.0</ele><time>2026-04-12T10:22:01.105Z</time></trkpt><trkpt lat="43.4915479" lon="11.9347848"><ele>599.0</ele><time>2026-04-12T10:22:02.108Z</time></trkpt><trkpt lat="43.491547" lon="11.9346704"><ele>599.0</ele><time>2026-04-12T10:22:03.129Z</time></trkpt><trkpt lat="43.4915649" lon="11.9345727"><ele>599.0</ele><time>2026-04-12T10:22:04.108Z</time></trkpt><trkpt lat="43.4916108" lon="11.9344971"><ele>599.0</ele><time>2026-04-12T10:22:05.121Z</time></trkpt><trkpt lat="43.4916758" lon="11.9344546"><ele>599.0</ele><time>2026-04-12T10:22:06.106Z</time></trkpt><trkpt lat="43.4917524" lon="11.9344437"><ele>599.0</ele><time>2026-04-12T10:22:07.103Z</time></trkpt><trkpt lat="43.491837" lon="11.9344544"><ele>599.0</ele><time>2026-04-12T10:22:08.112Z</time></trkpt><trkpt lat="43.4919233" lon="11.9344867"><ele>599.0</ele><time>2026-04-12T10:22:09.108Z</time></trkpt><trkpt lat="43.4920035" lon="11.9345361"><ele>599.0</ele><time>2026-04-12T10:22:10.121Z</time></trkpt><trkpt lat="43.4920825" lon="11.9345854"><ele>599.0</ele><time>2026-04-12T10:22:11.122Z</time></trkpt><trkpt lat="43.4921695" lon="11.9346073"><ele>599.0</ele><time>2026-04-12T10:22:12.106Z</time></trkpt><trkpt lat="43.4922591" lon="11.9345974"><ele>599.0</ele><time>2026-04-12T10:22:13.114Z</time></trkpt><trkpt lat="43.4923495" lon="11.9345517"><ele>599.8</ele><time>2026-04-12T10:22:14.115Z</time></trkpt><trkpt lat="43.492434" lon="11.9345034"><ele>600.5999999999999</ele><time>2026-04-12T10:22:15.111Z</time></trkpt><trkpt lat="43.4925015" lon="11.9344056"><ele>601.4</ele><time>2026-04-12T10:22:16.117Z</time></trkpt><trkpt lat="43.4925696" lon="11.9343095"><ele>602.1999999999999</ele><time>2026-04-12T10:22:17.104Z</time></trkpt><trkpt lat="43.4926419" lon="11.9342633"><ele>603.0</ele><time>2026-04-12T10:22:18.112Z</time></trkpt><trkpt lat="43.4927306" lon="11.9342397"><ele>601.8333333333334</ele><time>2026-04-12T10:22:19.108Z</time></trkpt><trkpt lat="43.4928229" lon="11.9342188"><ele>600.6666666666666</ele><time>2026-04-12T10:22:20.109Z</time></trkpt><trkpt lat="43.4929018" lon="11.9341871"><ele>599.5</ele><time>2026-04-12T10:22:21.11Z</time></trkpt><trkpt lat="43.4929595" lon="11.9341338"><ele>598.3333333333333</ele><time>2026-04-12T10:22:22.129Z</time></trkpt><trkpt lat="43.4929964" lon="11.9339714"><ele>597.1666666666666</ele><time>2026-04-12T10:22:24.109Z</time></trkpt><trkpt lat="43.4929773" lon="11.9338705"><ele>596.0</ele><time>2026-04-12T10:22:25.114Z</time></trkpt><trkpt lat="43.4929445" lon="11.9337605"><ele>593.0</ele><time>2026-04-12T10:22:26.1Z</time></trkpt><trkpt lat="43.4929035" lon="11.9336344"><ele>590.0</ele><time>2026-04-12T10:22:27.106Z</time></trkpt><trkpt lat="43.492855" lon="11.9334875"><ele>587.0</ele><time>2026-04-12T10:22:28.131Z</time></trkpt><trkpt lat="43.4927956" lon="11.9333377"><ele>584.0</ele><time>2026-04-12T10:22:29.116Z</time></trkpt><trkpt lat="43.4927292" lon="11.93319"><ele>581.5</ele><time>2026-04-12T10:22:30.123Z</time></trkpt><trkpt lat="43.4926628" lon="11.9330336"><ele>579.0</ele><time>2026-04-12T10:22:31.116Z</time></trkpt><trkpt lat="43.4925991" lon="11.9328745"><ele>576.5</ele><time>2026-04-12T10:22:32.13Z</time></trkpt><trkpt lat="43.4925367" lon="11.9327234"><ele>574.0</ele><time>2026-04-12T10:22:33.119Z</time></trkpt><trkpt lat="43.4924748" lon="11.9325797"><ele>573.6</ele><time>2026-04-12T10:22:34.119Z</time></trkpt><trkpt lat="43.4924175" lon="11.9324403"><ele>573.2</ele><time>2026-04-12T10:22:35.126Z</time></trkpt><trkpt lat="43.4923705" lon="11.9323009"><ele>572.8000000000001</ele><time>2026-04-12T10:22:36.134Z</time></trkpt><trkpt lat="43.4923373" lon="11.9321682"><ele>572.4</ele><time>2026-04-12T10:22:37.121Z</time></trkpt><trkpt lat="43.4923076" lon="11.9320527"><ele>572.0</ele><time>2026-04-12T10:22:38.118Z</time></trkpt><trkpt lat="43.4923004" lon="11.9319446"><ele>572.0</ele><time>2026-04-12T10:22:39.119Z</time></trkpt><trkpt lat="43.4923167" lon="11.9318441"><ele>572.0</ele><time>2026-04-12T10:22:40.125Z</time></trkpt><trkpt lat="43.4923577" lon="11.9317568"><ele>572.0</ele><time>2026-04-12T10:22:41.121Z</time></trkpt><trkpt lat="43.4924127" lon="11.9316803"><ele>572.0</ele><time>2026-04-12T10:22:42.127Z</time></trkpt><trkpt lat="43.4924757" lon="11.9316092"><ele>572.0</ele><time>2026-04-12T10:22:43.118Z</time></trkpt><trkpt lat="43.4925429" lon="11.9315341"><ele>572.0</ele><time>2026-04-12T10:22:44.124Z</time></trkpt><trkpt lat="43.4926145" lon="11.9314598"><ele>571.1666666666666</ele><time>2026-04-12T10:22:45.119Z</time></trkpt><trkpt lat="43.4926867" lon="11.9313842"><ele>570.3333333333333</ele><time>2026-04-12T10:22:46.119Z</time></trkpt><trkpt lat="43.492751" lon="11.9313133"><ele>569.5</ele><time>2026-04-12T10:22:47.114Z</time></trkpt><trkpt lat="43.4927991" lon="11.9312419"><ele>568.6666666666666</ele><time>2026-04-12T10:22:48.116Z</time></trkpt><trkpt lat="43.4928282" lon="11.9311643"><ele>567.8333333333334</ele><time>2026-04-12T10:22:49.125Z</time></trkpt><trkpt lat="43.4928219" lon="11.9309977"><ele>567.0</ele><time>2026-04-12T10:22:51.123Z</time></trkpt><trkpt lat="43.4927918" lon="11.9309205"><ele>565.0</ele><time>2026-04-12T10:22:52.108Z</time></trkpt><trkpt lat="43.4927515" lon="11.9308517"><ele>563.0</ele><time>2026-04-12T10:22:53.134Z</time></trkpt><trkpt lat="43.4926787" lon="11.9307442"><ele>561.0</ele><time>2026-04-12T10:22:55.113Z</time></trkpt><trkpt lat="43.4925929" lon="11.9306574"><ele>559.0</ele><time>2026-04-12T10:22:57.115Z</time></trkpt><trkpt lat="43.492486" lon="11.9305533"><ele>557.0</ele><time>2026-04-12T10:22:59.142Z</time></trkpt><trkpt lat="43.4924296" lon="11.9304983"><ele>557.0</ele><time>2026-04-12T10:23:00.122Z</time></trkpt><trkpt lat="43.4923679" lon="11.9304337"><ele>557.0</ele><time>2026-04-12T10:23:01.118Z</time></trkpt><trkpt lat="43.4923017" lon="11.9303678"><ele>557.0</ele><time>2026-04-12T10:23:02.115Z</time></trkpt><trkpt lat="43.4922333" lon="11.930302"><ele>557.0</ele><time>2026-04-12T10:23:03.123Z</time></trkpt><trkpt lat="43.4921617" lon="11.9302352"><ele>557.0</ele><time>2026-04-12T10:23:04.112Z</time></trkpt><trkpt lat="43.4920847" lon="11.9301642"><ele>557.0</ele><time>2026-04-12T10:23:05.119Z</time></trkpt><trkpt lat="43.4920087" lon="11.9300899"><ele>554.2</ele><time>2026-04-12T10:23:06.122Z</time></trkpt><trkpt lat="43.4919272" lon="11.9300159"><ele>551.4000000000001</ele><time>2026-04-12T10:23:07.126Z</time></trkpt><trkpt lat="43.4918449" lon="11.9299407"><ele>548.5999999999999</ele><time>2026-04-12T10:23:08.115Z</time></trkpt><trkpt lat="43.4917601" lon="11.9298629"><ele>545.8</ele><time>2026-04-12T10:23:09.108Z</time></trkpt><trkpt lat="43.4916687" lon="11.9297882"><ele>543.0</ele><time>2026-04-12T10:23:10.11Z</time></trkpt><trkpt lat="43.49158" lon="11.9297186"><ele>543.0</ele><time>2026-04-12T10:23:11.116Z</time></trkpt><trkpt lat="43.4915017" lon="11.9296548"><ele>543.0</ele><time>2026-04-12T10:23:12.109Z</time></trkpt><trkpt lat="43.4914307" lon="11.9296054"><ele>543.0</ele><time>2026-04-12T10:23:13.128Z</time></trkpt><trkpt lat="43.4913611" lon="11.9295663"><ele>543.0</ele><time>2026-04-12T10:23:14.121Z</time></trkpt><trkpt lat="43.4912884" lon="11.9295421"><ele>543.0</ele><time>2026-04-12T10:23:15.116Z</time></trkpt><trkpt lat="43.4912163" lon="11.9295358"><ele>543.0</ele><time>2026-04-12T10:23:16.109Z</time></trkpt><trkpt lat="43.4911447" lon="11.9295511"><ele>540.8333333333334</ele><time>2026-04-12T10:23:17.103Z</time></trkpt><trkpt lat="43.4910735" lon="11.9295687"><ele>538.6666666666666</ele><time>2026-04-12T10:23:18.116Z</time></trkpt><trkpt lat="43.4910084" lon="11.9296281"><ele>536.5</ele><time>2026-04-12T10:23:19.124Z</time></trkpt><trkpt lat="43.490943" lon="11.9297059"><ele>534.3333333333333</ele><time>2026-04-12T10:23:20.111Z</time></trkpt><trkpt lat="43.4908802" lon="11.9297917"><ele>532.1666666666666</ele><time>2026-04-12T10:23:21.11Z</time></trkpt><trkpt lat="43.4908123" lon="11.9298814"><ele>530.0</ele><time>2026-04-12T10:23:22.122Z</time></trkpt><trkpt lat="43.4907459" lon="11.929974"><ele>530.6666666666666</ele><time>2026-04-12T10:23:23.113Z</time></trkpt><trkpt lat="43.4906859" lon="11.9300634"><ele>531.3333333333333</ele><time>2026-04-12T10:23:24.115Z</time></trkpt><trkpt lat="43.4906387" lon="11.9301588"><ele>532.0</ele><time>2026-04-12T10:23:25.106Z</time></trkpt><trkpt lat="43.490607" lon="11.930262"><ele>532.6666666666666</ele><time>2026-04-12T10:23:26.11Z</time></trkpt><trkpt lat="43.4905842" lon="11.9303709"><ele>533.3333333333334</ele><time>2026-04-12T10:23:27.106Z</time></trkpt><trkpt lat="43.4905677" lon="11.9304818"><ele>534.0</ele><time>2026-04-12T10:23:28.119Z</time></trkpt><trkpt lat="43.4905536" lon="11.9305941"><ele>534.0</ele><time>2026-04-12T10:23:29.125Z</time></trkpt><trkpt lat="43.4905386" lon="11.9306954"><ele>534.0</ele><time>2026-04-12T10:23:30.113Z</time></trkpt><trkpt lat="43.4904765" lon="11.930824"><ele>534.0</ele><time>2026-04-12T10:23:32.12Z</time></trkpt><trkpt lat="43.4903807" lon="11.9308657"><ele>534.0</ele><time>2026-04-12T10:23:34.122Z</time></trkpt><trkpt lat="43.4903026" lon="11.9307432"><ele>534.0</ele><time>2026-04-12T10:23:36.129Z</time></trkpt><trkpt lat="43.4902767" lon="11.9306532"><ele>531.0</ele><time>2026-04-12T10:23:37.111Z</time></trkpt><trkpt lat="43.4902497" lon="11.9305557"><ele>528.0</ele><time>2026-04-12T10:23:38.105Z</time></trkpt><trkpt lat="43.4902131" lon="11.9304577"><ele>525.0</ele><time>2026-04-12T10:23:39.128Z</time></trkpt><trkpt lat="43.4901646" lon="11.9303582"><ele>522.0</ele><time>2026-04-12T10:23:40.122Z</time></trkpt><trkpt lat="43.4901092" lon="11.9302537"><ele>519.0</ele><time>2026-04-12T10:23:41.119Z</time></trkpt><trkpt lat="43.4900561" lon="11.9301506"><ele>516.0</ele><time>2026-04-12T10:23:42.122Z</time></trkpt><trkpt lat="43.4900213" lon="11.9300451"><ele>515.3333333333334</ele><time>2026-04-12T10:23:43.124Z</time></trkpt><trkpt lat="43.4900076" lon="11.9299326"><ele>514.6666666666666</ele><time>2026-04-12T10:23:44.117Z</time></trkpt><trkpt lat="43.4900142" lon="11.9298216"><ele>514.0</ele><time>2026-04-12T10:23:45.11Z</time></trkpt><trkpt lat="43.4900175" lon="11.9297199"><ele>513.3333333333333</ele><time>2026-04-12T10:23:46.122Z</time></trkpt><trkpt lat="43.490001" lon="11.9296287"><ele>512.6666666666666</ele><time>2026-04-12T10:23:47.126Z</time></trkpt><trkpt lat="43.4899628" lon="11.9295441"><ele>512.0</ele><time>2026-04-12T10:23:48.122Z</time></trkpt><trkpt lat="43.4899063" lon="11.9294707"><ele>512.0</ele><time>2026-04-12T10:23:49.132Z</time></trkpt><trkpt lat="43.4898467" lon="11.9293955"><ele>512.0</ele><time>2026-04-12T10:23:50.116Z</time></trkpt><trkpt lat="43.4897674" lon="11.9293213"><ele>512.0</ele><time>2026-04-12T10:23:51.127Z</time></trkpt><trkpt lat="43.4896848" lon="11.9292332"><ele>512.0</ele><time>2026-04-12T10:23:52.124Z</time></trkpt><trkpt lat="43.4896075" lon="11.9291331"><ele>512.0</ele><time>2026-04-12T10:23:53.111Z</time></trkpt><trkpt lat="43.4895312" lon="11.929022"><ele>505.75</ele><time>2026-04-12T10:23:54.122Z</time></trkpt><trkpt lat="43.4894538" lon="11.9289043"><ele>499.5</ele><time>2026-04-12T10:23:55.106Z</time></trkpt><trkpt lat="43.4893723" lon="11.928786"><ele>493.25</ele><time>2026-04-12T10:23:56.132Z</time></trkpt><trkpt lat="43.4892851" lon="11.9286675"><ele>487.0</ele><time>2026-04-12T10:23:57.13Z</time></trkpt><trkpt lat="43.4891968" lon="11.9285473"><ele>487.0</ele><time>2026-04-12T10:23:58.122Z</time></trkpt><trkpt lat="43.4891066" lon="11.9284296"><ele>487.0</ele><time>2026-04-12T10:23:59.13Z</time></trkpt><trkpt lat="43.4890106" lon="11.9283155"><ele>487.0</ele><time>2026-04-12T10:24:00.108Z</time></trkpt><trkpt lat="43.4889096" lon="11.9282061"><ele>487.0</ele><time>2026-04-12T10:24:01.113Z</time></trkpt><trkpt lat="43.4888105" lon="11.9281047"><ele>482.5</ele><time>2026-04-12T10:24:02.128Z</time></trkpt><trkpt lat="43.4887142" lon="11.9280064"><ele>478.0</ele><time>2026-04-12T10:24:03.114Z</time></trkpt><trkpt lat="43.4886191" lon="11.9279074"><ele>473.5</ele><time>2026-04-12T10:24:04.109Z</time></trkpt><trkpt lat="43.4885186" lon="11.9278093"><ele>469.0</ele><time>2026-04-12T10:24:05.112Z</time></trkpt><trkpt lat="43.4884126" lon="11.9277115"><ele>469.0</ele><time>2026-04-12T10:24:06.106Z</time></trkpt><trkpt lat="43.4883028" lon="11.9276137"><ele>469.0</ele><time>2026-04-12T10:24:07.118Z</time></trkpt><trkpt lat="43.4881873" lon="11.927519"><ele>469.0</ele><time>2026-04-12T10:24:08.111Z</time></trkpt><trkpt lat="43.4880679" lon="11.9274272"><ele>469.0</ele><time>2026-04-12T10:24:09.11Z</time></trkpt><trkpt lat="43.4879492" lon="11.9273367"><ele>466.5</ele><time>2026-04-12T10:24:10.114Z</time></trkpt><trkpt lat="43.487841" lon="11.9272509"><ele>464.0</ele><time>2026-04-12T10:24:11.116Z</time></trkpt><trkpt lat="43.4877411" lon="11.9271738"><ele>461.5</ele><time>2026-04-12T10:24:12.114Z</time></trkpt><trkpt lat="43.4876459" lon="11.9271033"><ele>459.0</ele><time>2026-04-12T10:24:13.116Z</time></trkpt><trkpt lat="43.4875511" lon="11.9270253"><ele>459.0</ele><time>2026-04-12T10:24:14.121Z</time></trkpt><trkpt lat="43.4874604" lon="11.9269317"><ele>459.0</ele><time>2026-04-12T10:24:15.108Z</time></trkpt><trkpt lat="43.4873725" lon="11.9268256"><ele>459.0</ele><time>2026-04-12T10:24:16.113Z</time></trkpt><trkpt lat="43.48729" lon="11.9267095"><ele>459.0</ele><time>2026-04-12T10:24:17.112Z</time></trkpt><trkpt lat="43.4872172" lon="11.9265861"><ele>459.75</ele><time>2026-04-12T10:24:18.114Z</time></trkpt><trkpt lat="43.4871509" lon="11.9264509"><ele>460.5</ele><time>2026-04-12T10:24:19.101Z</time></trkpt><trkpt lat="43.4870903" lon="11.9263061"><ele>461.25</ele><time>2026-04-12T10:24:20.107Z</time></trkpt><trkpt lat="43.4870409" lon="11.9261571"><ele>462.0</ele><time>2026-04-12T10:24:21.112Z</time></trkpt><trkpt lat="43.4870038" lon="11.9260159"><ele>457.6666666666667</ele><time>2026-04-12T10:24:22.126Z</time></trkpt><trkpt lat="43.4869772" lon="11.925881"><ele>453.33333333333337</ele><time>2026-04-12T10:24:23.108Z</time></trkpt><trkpt lat="43.4869592" lon="11.925754"><ele>449.0</ele><time>2026-04-12T10:24:24.114Z</time></trkpt><trkpt lat="43.4869535" lon="11.9256356"><ele>444.6666666666667</ele><time>2026-04-12T10:24:25.11Z</time></trkpt><trkpt lat="43.4869691" lon="11.9255314"><ele>440.33333333333337</ele><time>2026-04-12T10:24:26.1Z</time></trkpt><trkpt lat="43.4870143" lon="11.9254453"><ele>436.0</ele><time>2026-04-12T10:24:27.117Z</time></trkpt><trkpt lat="43.4870843" lon="11.9253816"><ele>439.0</ele><time>2026-04-12T10:24:28.127Z</time></trkpt><trkpt lat="43.4871699" lon="11.9253412"><ele>442.0</ele><time>2026-04-12T10:24:29.116Z</time></trkpt><trkpt lat="43.4872645" lon="11.9253214"><ele>445.0</ele><time>2026-04-12T10:24:30.105Z</time></trkpt><trkpt lat="43.4873643" lon="11.9253079"><ele>448.0</ele><time>2026-04-12T10:24:31.111Z</time></trkpt><trkpt lat="43.4874687" lon="11.9252943"><ele>451.0</ele><time>2026-04-12T10:24:32.104Z</time></trkpt><trkpt lat="43.4875772" lon="11.9252808"><ele>451.0</ele><time>2026-04-12T10:24:33.108Z</time></trkpt><trkpt lat="43.4876891" lon="11.9252674"><ele>451.0</ele><time>2026-04-12T10:24:34.113Z</time></trkpt><trkpt lat="43.4878038" lon="11.9252564"><ele>451.0</ele><time>2026-04-12T10:24:35.106Z</time></trkpt><trkpt lat="43.4879229" lon="11.9252589"><ele>451.0</ele><time>2026-04-12T10:24:36.109Z</time></trkpt><trkpt lat="43.4880417" lon="11.9252755"><ele>450.00000000000006</ele><time>2026-04-12T10:24:37.122Z</time></trkpt><trkpt lat="43.4881481" lon="11.9253043"><ele>449.0</ele><time>2026-04-12T10:24:38.12Z</time></trkpt><trkpt lat="43.4882346" lon="11.9253227"><ele>448.0</ele><time>2026-04-12T10:24:39.104Z</time></trkpt><trkpt lat="43.4883036" lon="11.9253366"><ele>447.0</ele><time>2026-04-12T10:24:40.132Z</time></trkpt><trkpt lat="43.4883629" lon="11.9252873"><ele>446.00000000000006</ele><time>2026-04-12T10:24:41.109Z</time></trkpt><trkpt lat="43.4883995" lon="11.9252016"><ele>445.0</ele><time>2026-04-12T10:24:42.114Z</time></trkpt><trkpt lat="43.4884008" lon="11.9250936"><ele>440.83333333333337</ele><time>2026-04-12T10:24:43.118Z</time></trkpt><trkpt lat="43.4883792" lon="11.9249881"><ele>436.6666666666667</ele><time>2026-04-12T10:24:44.112Z</time></trkpt><trkpt lat="43.4883427" lon="11.9248838"><ele>432.5</ele><time>2026-04-12T10:24:45.11Z</time></trkpt><trkpt lat="43.4883" lon="11.924779"><ele>428.33333333333337</ele><time>2026-04-12T10:24:46.112Z</time></trkpt><trkpt lat="43.4882476" lon="11.9246805"><ele>424.1666666666667</ele><time>2026-04-12T10:24:47.112Z</time></trkpt><trkpt lat="43.4881795" lon="11.9246017"><ele>420.0</ele><time>2026-04-12T10:24:48.112Z</time></trkpt><trkpt lat="43.4881013" lon="11.9245375"><ele>420.0</ele><time>2026-04-12T10:24:49.112Z</time></trkpt><trkpt lat="43.4880202" lon="11.9244755"><ele>420.0</ele><time>2026-04-12T10:24:50.112Z</time></trkpt><trkpt lat="43.4879379" lon="11.9244146"><ele>420.0</ele><time>2026-04-12T10:24:51.121Z</time></trkpt><trkpt lat="43.4878541" lon="11.9243508"><ele>420.0</ele><time>2026-04-12T10:24:52.108Z</time></trkpt><trkpt lat="43.4877692" lon="11.9242882"><ele>420.0</ele><time>2026-04-12T10:24:53.132Z</time></trkpt><trkpt lat="43.4876851" lon="11.924227"><ele>418.2</ele><time>2026-04-12T10:24:54.127Z</time></trkpt><trkpt lat="43.4875985" lon="11.9241694"><ele>416.4</ele><time>2026-04-12T10:24:55.117Z</time></trkpt><trkpt lat="43.4875074" lon="11.9241104"><ele>414.6</ele><time>2026-04-12T10:24:56.116Z</time></trkpt><trkpt lat="43.4874215" lon="11.9240419"><ele>412.8</ele><time>2026-04-12T10:24:57.11Z</time></trkpt><trkpt lat="43.4873343" lon="11.9239619"><ele>411.0</ele><time>2026-04-12T10:24:58.118Z</time></trkpt><trkpt lat="43.487247" lon="11.9238747"><ele>411.0</ele><time>2026-04-12T10:24:59.122Z</time></trkpt><trkpt lat="43.4871646" lon="11.9237825"><ele>411.0</ele><time>2026-04-12T10:25:00.115Z</time></trkpt><trkpt lat="43.4870866" lon="11.9236814"><ele>411.0</ele><time>2026-04-12T10:25:01.113Z</time></trkpt><trkpt lat="43.4870077" lon="11.9235756"><ele>411.0</ele><time>2026-04-12T10:25:02.113Z</time></trkpt><trkpt lat="43.4869322" lon="11.9234713"><ele>411.0</ele><time>2026-04-12T10:25:03.122Z</time></trkpt><trkpt lat="43.4868635" lon="11.9233448"><ele>410.0</ele><time>2026-04-12T10:25:04.132Z</time></trkpt><trkpt lat="43.4868035" lon="11.9232139"><ele>409.0</ele><time>2026-04-12T10:25:05.117Z</time></trkpt><trkpt lat="43.4867505" lon="11.9230757"><ele>408.0</ele><time>2026-04-12T10:25:06.122Z</time></trkpt><trkpt lat="43.4866984" lon="11.922933"><ele>407.0</ele><time>2026-04-12T10:25:07.126Z</time></trkpt><trkpt lat="43.486648" lon="11.9227892"><ele>407.0</ele><time>2026-04-12T10:25:08.127Z</time></trkpt><trkpt lat="43.4866004" lon="11.9226398"><ele>407.0</ele><time>2026-04-12T10:25:09.112Z</time></trkpt><trkpt lat="43.4865527" lon="11.9224859"><ele>407.0</ele><time>2026-04-12T10:25:10.118Z</time></trkpt><trkpt lat="43.4865029" lon="11.9223345"><ele>407.0</ele><time>2026-04-12T10:25:11.124Z</time></trkpt><trkpt lat="43.4864372" lon="11.9221895"><ele>404.5</ele><time>2026-04-12T10:25:12.114Z</time></trkpt><trkpt lat="43.4863489" lon="11.9220631"><ele>402.0</ele><time>2026-04-12T10:25:13.112Z</time></trkpt><trkpt lat="43.4862649" lon="11.9219393"><ele>399.5</ele><time>2026-04-12T10:25:14.122Z</time></trkpt><trkpt lat="43.4861924" lon="11.9218212"><ele>397.0</ele><time>2026-04-12T10:25:15.124Z</time></trkpt><trkpt lat="43.4861302" lon="11.9216937"><ele>394.0</ele><time>2026-04-12T10:25:16.113Z</time></trkpt><trkpt lat="43.4860856" lon="11.9215495"><ele>391.0</ele><time>2026-04-12T10:25:17.109Z</time></trkpt><trkpt lat="43.4860554" lon="11.9213915"><ele>388.0</ele><time>2026-04-12T10:25:18.1Z</time></trkpt><trkpt lat="43.4860402" lon="11.9212257"><ele>385.0</ele><time>2026-04-12T10:25:19.107Z</time></trkpt><trkpt lat="43.4860264" lon="11.9210532"><ele>382.75</ele><time>2026-04-12T10:25:20.106Z</time></trkpt><trkpt lat="43.4860128" lon="11.9208777"><ele>380.5</ele><time>2026-04-12T10:25:21.114Z</time></trkpt><trkpt lat="43.4859988" lon="11.9206991"><ele>378.25</ele><time>2026-04-12T10:25:22.12Z</time></trkpt><trkpt lat="43.4859861" lon="11.9205177"><ele>376.0</ele><time>2026-04-12T10:25:23.112Z</time></trkpt><trkpt lat="43.4859732" lon="11.9203336"><ele>376.0</ele><time>2026-04-12T10:25:24.118Z</time></trkpt><trkpt lat="43.4859596" lon="11.9201493"><ele>376.0</ele><time>2026-04-12T10:25:25.114Z</time></trkpt><trkpt lat="43.4859486" lon="11.9199623"><ele>376.0</ele><time>2026-04-12T10:25:26.117Z</time></trkpt><trkpt lat="43.4859376" lon="11.9197745"><ele>376.0</ele><time>2026-04-12T10:25:27.128Z</time></trkpt><trkpt lat="43.4859308" lon="11.9195845"><ele>374.0</ele><time>2026-04-12T10:25:28.126Z</time></trkpt><trkpt lat="43.4859293" lon="11.9193959"><ele>372.0</ele><time>2026-04-12T10:25:29.116Z</time></trkpt><trkpt lat="43.4859302" lon="11.919208"><ele>370.0</ele><time>2026-04-12T10:25:30.115Z</time></trkpt><trkpt lat="43.4859323" lon="11.9190221"><ele>368.0</ele><time>2026-04-12T10:25:31.107Z</time></trkpt><trkpt lat="43.4859331" lon="11.918839"><ele>366.75</ele><time>2026-04-12T10:25:32.12Z</time></trkpt><trkpt lat="43.4859337" lon="11.9186569"><ele>365.5</ele><time>2026-04-12T10:25:33.115Z</time></trkpt><trkpt lat="43.4859356" lon="11.9184762"><ele>364.25</ele><time>2026-04-12T10:25:34.116Z</time></trkpt><trkpt lat="43.4859372" lon="11.9182965"><ele>363.0</ele><time>2026-04-12T10:25:35.121Z</time></trkpt><trkpt lat="43.4859387" lon="11.9181197"><ele>362.0</ele><time>2026-04-12T10:25:36.111Z</time></trkpt><trkpt lat="43.4859412" lon="11.9179448"><ele>361.0</ele><time>2026-04-12T10:25:37.125Z</time></trkpt><trkpt lat="43.4859543" lon="11.917774"><ele>360.0</ele><time>2026-04-12T10:25:38.111Z</time></trkpt><trkpt lat="43.485988" lon="11.9176135"><ele>359.0</ele><time>2026-04-12T10:25:39.116Z</time></trkpt><trkpt lat="43.4860478" lon="11.9174726"><ele>358.0</ele><time>2026-04-12T10:25:40.12Z</time></trkpt><trkpt lat="43.486129" lon="11.9173575"><ele>357.0</ele><time>2026-04-12T10:25:41.114Z</time></trkpt><trkpt lat="43.4862064" lon="11.9172386"><ele>356.0</ele><time>2026-04-12T10:25:42.111Z</time></trkpt><trkpt lat="43.4862623" lon="11.9170991"><ele>355.0</ele><time>2026-04-12T10:25:43.112Z</time></trkpt><trkpt lat="43.4863018" lon="11.9169464"><ele>353.0</ele><time>2026-04-12T10:25:44.111Z</time></trkpt><trkpt lat="43.4863349" lon="11.9167878"><ele>351.0</ele><time>2026-04-12T10:25:45.129Z</time></trkpt><trkpt lat="43.4863642" lon="11.9166245"><ele>349.0</ele><time>2026-04-12T10:25:46.131Z</time></trkpt><trkpt lat="43.4863865" lon="11.9164544"><ele>347.0</ele><time>2026-04-12T10:25:47.125Z</time></trkpt><trkpt lat="43.4864081" lon="11.9162872"><ele>346.0</ele><time>2026-04-12T10:25:48.127Z</time></trkpt><trkpt lat="43.4864267" lon="11.9161106"><ele>345.0</ele><time>2026-04-12T10:25:49.11Z</time></trkpt><trkpt lat="43.4864443" lon="11.9159293"><ele>344.0</ele><time>2026-04-12T10:25:50.12Z</time></trkpt><trkpt lat="43.4864628" lon="11.9157548"><ele>343.0</ele><time>2026-04-12T10:25:51.111Z</time></trkpt><trkpt lat="43.4864807" lon="11.9155787"><ele>342.0</ele><time>2026-04-12T10:25:52.109Z</time></trkpt><trkpt lat="43.4865003" lon="11.9154034"><ele>341.0</ele><time>2026-04-12T10:25:53.137Z</time></trkpt><trkpt lat="43.4865206" lon="11.9152295"><ele>340.0</ele><time>2026-04-12T10:25:54.125Z</time></trkpt><trkpt lat="43.4865372" lon="11.9150549"><ele>339.0</ele><time>2026-04-12T10:25:55.116Z</time></trkpt><trkpt lat="43.4865518" lon="11.9148767"><ele>337.5</ele><time>2026-04-12T10:25:56.113Z</time></trkpt><trkpt lat="43.4865696" lon="11.9147025"><ele>336.0</ele><time>2026-04-12T10:25:57.11Z</time></trkpt><trkpt lat="43.4865911" lon="11.914537"><ele>334.5</ele><time>2026-04-12T10:25:58.114Z</time></trkpt><trkpt lat="43.4866225" lon="11.9143801"><ele>333.0</ele><time>2026-04-12T10:25:59.131Z</time></trkpt><trkpt lat="43.4866668" lon="11.914225"><ele>332.0</ele><time>2026-04-12T10:26:00.105Z</time></trkpt><trkpt lat="43.4867202" lon="11.9140713"><ele>331.0</ele><time>2026-04-12T10:26:01.119Z</time></trkpt><trkpt lat="43.4867745" lon="11.913915"><ele>330.0</ele><time>2026-04-12T10:26:02.128Z</time></trkpt><trkpt lat="43.4868315" lon="11.9137545"><ele>329.0</ele><time>2026-04-12T10:26:03.116Z</time></trkpt><trkpt lat="43.4868871" lon="11.9135966"><ele>329.0</ele><time>2026-04-12T10:26:04.125Z</time></trkpt><trkpt lat="43.4869481" lon="11.9134389"><ele>329.0</ele><time>2026-04-12T10:26:05.115Z</time></trkpt><trkpt lat="43.4870051" lon="11.9132806"><ele>329.0</ele><time>2026-04-12T10:26:06.111Z</time></trkpt><trkpt lat="43.4870557" lon="11.91312"><ele>329.0</ele><time>2026-04-12T10:26:07.118Z</time></trkpt><trkpt lat="43.4870958" lon="11.912956"><ele>325.5</ele><time>2026-04-12T10:26:08.136Z</time></trkpt><trkpt lat="43.4871149" lon="11.9127911"><ele>322.0</ele><time>2026-04-12T10:26:09.13Z</time></trkpt><trkpt lat="43.4871134" lon="11.9126287"><ele>318.5</ele><time>2026-04-12T10:26:10.109Z</time></trkpt><trkpt lat="43.4871128" lon="11.9124698"><ele>315.0</ele><time>2026-04-12T10:26:11.115Z</time></trkpt><trkpt lat="43.4871103" lon="11.9123164"><ele>315.0</ele><time>2026-04-12T10:26:12.119Z</time></trkpt><trkpt lat="43.4871033" lon="11.9121687"><ele>315.0</ele><time>2026-04-12T10:26:13.129Z</time></trkpt><trkpt lat="43.4870834" lon="11.9120259"><ele>315.0</ele><time>2026-04-12T10:26:14.135Z</time></trkpt><trkpt lat="43.48705" lon="11.9118928"><ele>315.0</ele><time>2026-04-12T10:26:15.121Z</time></trkpt><trkpt lat="43.4870165" lon="11.9117643"><ele>315.0</ele><time>2026-04-12T10:26:16.125Z</time></trkpt><trkpt lat="43.486985" lon="11.9116368"><ele>314.6</ele><time>2026-04-12T10:26:17.116Z</time></trkpt><trkpt lat="43.4869538" lon="11.9115118"><ele>314.2</ele><time>2026-04-12T10:26:18.118Z</time></trkpt><trkpt lat="43.4869192" lon="11.911389"><ele>313.8</ele><time>2026-04-12T10:26:19.122Z</time></trkpt><trkpt lat="43.4868861" lon="11.9112651"><ele>313.4</ele><time>2026-04-12T10:26:20.119Z</time></trkpt><trkpt lat="43.486855" lon="11.9111399"><ele>313.0</ele><time>2026-04-12T10:26:21.121Z</time></trkpt><trkpt lat="43.4868214" lon="11.911013"><ele>311.8</ele><time>2026-04-12T10:26:22.108Z</time></trkpt><trkpt lat="43.4867823" lon="11.9108844"><ele>310.6</ele><time>2026-04-12T10:26:23.114Z</time></trkpt><trkpt lat="43.486744" lon="11.910756"><ele>309.4</ele><time>2026-04-12T10:26:24.117Z</time></trkpt><trkpt lat="43.4867184" lon="11.9106239"><ele>308.2</ele><time>2026-04-12T10:26:25.117Z</time></trkpt><trkpt lat="43.4866938" lon="11.9104869"><ele>307.0</ele><time>2026-04-12T10:26:26.114Z</time></trkpt><trkpt lat="43.4867043" lon="11.9103324"><ele>307.0</ele><time>2026-04-12T10:26:27.114Z</time></trkpt><trkpt lat="43.4867214" lon="11.910176"><ele>307.0</ele><time>2026-04-12T10:26:28.101Z</time></trkpt><trkpt lat="43.4867356" lon="11.9100119"><ele>307.0</ele><time>2026-04-12T10:26:29.111Z</time></trkpt><trkpt lat="43.4867486" lon="11.909846"><ele>307.0</ele><time>2026-04-12T10:26:30.113Z</time></trkpt><trkpt lat="43.4867632" lon="11.9096742"><ele>305.5</ele><time>2026-04-12T10:26:31.126Z</time></trkpt><trkpt lat="43.4867822" lon="11.9095003"><ele>304.0</ele><time>2026-04-12T10:26:32.117Z</time></trkpt><trkpt lat="43.486799" lon="11.9093312"><ele>302.5</ele><time>2026-04-12T10:26:33.129Z</time></trkpt><trkpt lat="43.4868154" lon="11.9091773"><ele>301.0</ele><time>2026-04-12T10:26:34.125Z</time></trkpt><trkpt lat="43.4868067" lon="11.9090456"><ele>299.6</ele><time>2026-04-12T10:26:35.129Z</time></trkpt><trkpt lat="43.4867684" lon="11.9089226"><ele>298.20000000000005</ele><time>2026-04-12T10:26:36.122Z</time></trkpt><trkpt lat="43.4867065" lon="11.9088173"><ele>296.79999999999995</ele><time>2026-04-12T10:26:37.122Z</time></trkpt><trkpt lat="43.4866363" lon="11.9087249"><ele>295.4</ele><time>2026-04-12T10:26:38.115Z</time></trkpt><trkpt lat="43.4865653" lon="11.9086374"><ele>294.0</ele><time>2026-04-12T10:26:39.106Z</time></trkpt><trkpt lat="43.4864919" lon="11.9085555"><ele>294.0</ele><time>2026-04-12T10:26:40.115Z</time></trkpt><trkpt lat="43.4864236" lon="11.9084695"><ele>294.0</ele><time>2026-04-12T10:26:41.119Z</time></trkpt><trkpt lat="43.4863648" lon="11.9083744"><ele>294.0</ele><time>2026-04-12T10:26:42.11Z</time></trkpt><trkpt lat="43.4863171" lon="11.9082693"><ele>294.0</ele><time>2026-04-12T10:26:43.12Z</time></trkpt><trkpt lat="43.4862635" lon="11.9081741"><ele>294.0</ele><time>2026-04-12T10:26:44.13Z</time></trkpt><trkpt lat="43.486198" lon="11.9080993"><ele>294.0</ele><time>2026-04-12T10:26:45.124Z</time></trkpt><trkpt lat="43.4861239" lon="11.9080456"><ele>293.1666666666667</ele><time>2026-04-12T10:26:46.11Z</time></trkpt><trkpt lat="43.4860444" lon="11.9080058"><ele>292.3333333333333</ele><time>2026-04-12T10:26:47.113Z</time></trkpt><trkpt lat="43.4859642" lon="11.9079672"><ele>291.5</ele><time>2026-04-12T10:26:48.121Z</time></trkpt><trkpt lat="43.485883" lon="11.907924"><ele>290.66666666666663</ele><time>2026-04-12T10:26:49.125Z</time></trkpt><trkpt lat="43.4857978" lon="11.9078809"><ele>289.8333333333333</ele><time>2026-04-12T10:26:50.109Z</time></trkpt><trkpt lat="43.4857132" lon="11.9078357"><ele>289.0</ele><time>2026-04-12T10:26:51.127Z</time></trkpt><trkpt lat="43.4856248" lon="11.9077856"><ele>289.0</ele><time>2026-04-12T10:26:52.124Z</time></trkpt><trkpt lat="43.485532" lon="11.9077338"><ele>289.0</ele><time>2026-04-12T10:26:53.139Z</time></trkpt><trkpt lat="43.4854373" lon="11.9076783"><ele>289.0</ele><time>2026-04-12T10:26:54.127Z</time></trkpt><trkpt lat="43.4853399" lon="11.9076215"><ele>289.0</ele><time>2026-04-12T10:26:55.152Z</time></trkpt><trkpt lat="43.485241" lon="11.9075632"><ele>289.0</ele><time>2026-04-12T10:26:56.122Z</time></trkpt><trkpt lat="43.4851368" lon="11.9075042"><ele>286.25</ele><time>2026-04-12T10:26:57.123Z</time></trkpt><trkpt lat="43.485033" lon="11.9074414"><ele>283.5</ele><time>2026-04-12T10:26:58.111Z</time></trkpt><trkpt lat="43.4849289" lon="11.9073739"><ele>280.75</ele><time>2026-04-12T10:26:59.122Z</time></trkpt><trkpt lat="43.4848248" lon="11.9073002"><ele>278.0</ele><time>2026-04-12T10:27:00.118Z</time></trkpt><trkpt lat="43.4847228" lon="11.907218"><ele>278.0</ele><time>2026-04-12T10:27:01.122Z</time></trkpt><trkpt lat="43.4846238" lon="11.9071243"><ele>278.0</ele><time>2026-04-12T10:27:02.119Z</time></trkpt><trkpt lat="43.4845329" lon="11.9070193"><ele>278.0</ele><time>2026-04-12T10:27:03.12Z</time></trkpt><trkpt lat="43.4844476" lon="11.9069138"><ele>278.0</ele><time>2026-04-12T10:27:04.116Z</time></trkpt><trkpt lat="43.4843612" lon="11.9068126"><ele>276.6</ele><time>2026-04-12T10:27:05.115Z</time></trkpt><trkpt lat="43.4842714" lon="11.9067226"><ele>275.20000000000005</ele><time>2026-04-12T10:27:06.122Z</time></trkpt><trkpt lat="43.4841785" lon="11.9066503"><ele>273.8</ele><time>2026-04-12T10:27:07.138Z</time></trkpt><trkpt lat="43.484085" lon="11.9065906"><ele>272.40000000000003</ele><time>2026-04-12T10:27:08.12Z</time></trkpt><trkpt lat="43.483992" lon="11.9065413"><ele>271.0</ele><time>2026-04-12T10:27:09.115Z</time></trkpt><trkpt lat="43.4839051" lon="11.9064901"><ele>271.0</ele><time>2026-04-12T10:27:10.111Z</time></trkpt><trkpt lat="43.4838263" lon="11.906427"><ele>271.0</ele><time>2026-04-12T10:27:11.109Z</time></trkpt><trkpt lat="43.4837582" lon="11.9063539"><ele>271.0</ele><time>2026-04-12T10:27:12.12Z</time></trkpt><trkpt lat="43.4836992" lon="11.9062771"><ele>271.0</ele><time>2026-04-12T10:27:13.117Z</time></trkpt><trkpt lat="43.4836458" lon="11.9062009"><ele>271.0</ele><time>2026-04-12T10:27:14.137Z</time></trkpt><trkpt lat="43.4835963" lon="11.906126"><ele>271.0</ele><time>2026-04-12T10:27:15.11Z</time></trkpt><trkpt lat="43.4835477" lon="11.9060582"><ele>270.8333333333333</ele><time>2026-04-12T10:27:16.132Z</time></trkpt><trkpt lat="43.4835008" lon="11.9059945"><ele>270.66666666666663</ele><time>2026-04-12T10:27:17.127Z</time></trkpt><trkpt lat="43.4834159" lon="11.9058758"><ele>270.5</ele><time>2026-04-12T10:27:19.124Z</time></trkpt><trkpt lat="43.4833671" lon="11.9058069"><ele>270.3333333333333</ele><time>2026-04-12T10:27:20.114Z</time></trkpt><trkpt lat="43.4833062" lon="11.9057232"><ele>270.1666666666667</ele><time>2026-04-12T10:27:21.12Z</time></trkpt><trkpt lat="43.4832378" lon="11.9056315"><ele>270.0</ele><time>2026-04-12T10:27:22.109Z</time></trkpt><trkpt lat="43.4831694" lon="11.9055385"><ele>270.0</ele><time>2026-04-12T10:27:23.113Z</time></trkpt><trkpt lat="43.4831081" lon="11.9054527"><ele>270.0</ele><time>2026-04-12T10:27:24.106Z</time></trkpt><trkpt lat="43.4830548" lon="11.9053782"><ele>270.0</ele><time>2026-04-12T10:27:25.119Z</time></trkpt><trkpt lat="43.4830115" lon="11.9053044"><ele>270.0</ele><time>2026-04-12T10:27:26.116Z</time></trkpt><trkpt lat="43.4829803" lon="11.9052187"><ele>270.0</ele><time>2026-04-12T10:27:27.119Z</time></trkpt><trkpt lat="43.4829692" lon="11.9051058"><ele>270.0</ele><time>2026-04-12T10:27:28.122Z</time></trkpt><trkpt lat="43.482971" lon="11.9049803"><ele>270.0</ele><time>2026-04-12T10:27:29.12Z</time></trkpt><trkpt lat="43.4829728" lon="11.9048428"><ele>270.0</ele><time>2026-04-12T10:27:30.113Z</time></trkpt><trkpt lat="43.482971" lon="11.9046882"><ele>270.0</ele><time>2026-04-12T10:27:31.125Z</time></trkpt><trkpt lat="43.4829687" lon="11.9045261"><ele>270.0</ele><time>2026-04-12T10:27:32.123Z</time></trkpt><trkpt lat="43.4829603" lon="11.9043534"><ele>269.75</ele><time>2026-04-12T10:27:33.108Z</time></trkpt><trkpt lat="43.4829504" lon="11.9041808"><ele>269.5</ele><time>2026-04-12T10:27:34.118Z</time></trkpt><trkpt lat="43.4829406" lon="11.9039933"><ele>269.25</ele><time>2026-04-12T10:27:35.111Z</time></trkpt><trkpt lat="43.4829268" lon="11.9037935"><ele>269.0</ele><time>2026-04-12T10:27:36.121Z</time></trkpt><trkpt lat="43.4829182" lon="11.9035922"><ele>268.6666666666667</ele><time>2026-04-12T10:27:37.125Z</time></trkpt><trkpt lat="43.4829157" lon="11.9033776"><ele>268.3333333333333</ele><time>2026-04-12T10:27:38.12Z</time></trkpt><trkpt lat="43.4829148" lon="11.9031541"><ele>268.0</ele><time>2026-04-12T10:27:39.115Z</time></trkpt><trkpt lat="43.4829154" lon="11.902929"><ele>268.0</ele><time>2026-04-12T10:27:40.11Z</time></trkpt><trkpt lat="43.4829142" lon="11.9027145"><ele>268.0</ele><time>2026-04-12T10:27:41.115Z</time></trkpt><trkpt lat="43.4829087" lon="11.902511"><ele>268.0</ele><time>2026-04-12T10:27:42.115Z</time></trkpt><trkpt lat="43.482892" lon="11.9023206"><ele>268.0</ele><time>2026-04-12T10:27:43.121Z</time></trkpt><trkpt lat="43.4828465" lon="11.9021273"><ele>267.66666666666663</ele><time>2026-04-12T10:27:44.113Z</time></trkpt><trkpt lat="43.4827899" lon="11.901932"><ele>267.3333333333333</ele><time>2026-04-12T10:27:45.124Z</time></trkpt><trkpt lat="43.4827285" lon="11.9017374"><ele>267.0</ele><time>2026-04-12T10:27:46.12Z</time></trkpt><trkpt lat="43.4826673" lon="11.901536"><ele>266.75</ele><time>2026-04-12T10:27:47.117Z</time></trkpt><trkpt lat="43.4826094" lon="11.9013456"><ele>266.5</ele><time>2026-04-12T10:27:48.11Z</time></trkpt><trkpt lat="43.4825539" lon="11.9011671"><ele>266.25</ele><time>2026-04-12T10:27:49.11Z</time></trkpt><trkpt lat="43.4824966" lon="11.9009798"><ele>266.0</ele><time>2026-04-12T10:27:50.126Z</time></trkpt><trkpt lat="43.4824525" lon="11.9007706"><ele>266.0</ele><time>2026-04-12T10:27:51.12Z</time></trkpt><trkpt lat="43.4824224" lon="11.900554"><ele>266.0</ele><time>2026-04-12T10:27:52.117Z</time></trkpt><trkpt lat="43.4823976" lon="11.9003322"><ele>266.0</ele><time>2026-04-12T10:27:53.125Z</time></trkpt><trkpt lat="43.4823744" lon="11.9001121"><ele>265.6666666666667</ele><time>2026-04-12T10:27:54.122Z</time></trkpt><trkpt lat="43.4823571" lon="11.8998859"><ele>265.3333333333333</ele><time>2026-04-12T10:27:55.119Z</time></trkpt><trkpt lat="43.4823511" lon="11.8996641"><ele>265.0</ele><time>2026-04-12T10:27:56.114Z</time></trkpt><trkpt lat="43.4823505" lon="11.8994415"><ele>264.66666666666663</ele><time>2026-04-12T10:27:57.125Z</time></trkpt><trkpt lat="43.4823533" lon="11.899221"><ele>264.3333333333333</ele><time>2026-04-12T10:27:58.114Z</time></trkpt><trkpt lat="43.4823575" lon="11.8990009"><ele>264.0</ele><time>2026-04-12T10:27:59.117Z</time></trkpt><trkpt lat="43.4823603" lon="11.8987758"><ele>264.0</ele><time>2026-04-12T10:28:00.124Z</time></trkpt><trkpt lat="43.48236" lon="11.8985472"><ele>264.0</ele><time>2026-04-12T10:28:01.112Z</time></trkpt><trkpt lat="43.4823563" lon="11.8983197"><ele>264.0</ele><time>2026-04-12T10:28:02.138Z</time></trkpt><trkpt lat="43.4823558" lon="11.8981031"><ele>263.3333333333333</ele><time>2026-04-12T10:28:03.135Z</time></trkpt><trkpt lat="43.4823516" lon="11.8978977"><ele>262.66666666666663</ele><time>2026-04-12T10:28:04.132Z</time></trkpt><trkpt lat="43.4823411" lon="11.8976963"><ele>262.0</ele><time>2026-04-12T10:28:05.12Z</time></trkpt><trkpt lat="43.4823142" lon="11.8974872"><ele>262.0</ele><time>2026-04-12T10:28:06.135Z</time></trkpt><trkpt lat="43.48227" lon="11.8972752"><ele>262.0</ele><time>2026-04-12T10:28:07.142Z</time></trkpt><trkpt lat="43.4822193" lon="11.8970596"><ele>262.0</ele><time>2026-04-12T10:28:08.131Z</time></trkpt><trkpt lat="43.4821678" lon="11.8968397"><ele>262.0</ele><time>2026-04-12T10:28:09.119Z</time></trkpt><trkpt lat="43.482114" lon="11.8966202"><ele>262.0</ele><time>2026-04-12T10:28:10.138Z</time></trkpt><trkpt lat="43.4820604" lon="11.8964008"><ele>262.0</ele><time>2026-04-12T10:28:11.134Z</time></trkpt><trkpt lat="43.4820126" lon="11.8961616"><ele>261.3333333333333</ele><time>2026-04-12T10:28:12.121Z</time></trkpt><trkpt lat="43.4819791" lon="11.8959021"><ele>260.6666666666667</ele><time>2026-04-12T10:28:13.128Z</time></trkpt><trkpt lat="43.4819559" lon="11.8956257"><ele>260.0</ele><time>2026-04-12T10:28:14.125Z</time></trkpt><trkpt lat="43.4819375" lon="11.8953406"><ele>259.6666666666667</ele><time>2026-04-12T10:28:15.12Z</time></trkpt><trkpt lat="43.4819182" lon="11.8950522"><ele>259.3333333333333</ele><time>2026-04-12T10:28:16.136Z</time></trkpt><trkpt lat="43.4818978" lon="11.8947635"><ele>259.0</ele><time>2026-04-12T10:28:17.111Z</time></trkpt><trkpt lat="43.4818767" lon="11.8944863"><ele>259.0</ele><time>2026-04-12T10:28:18.129Z</time></trkpt><trkpt lat="43.4818543" lon="11.894224"><ele>259.0</ele><time>2026-04-12T10:28:19.127Z</time></trkpt><trkpt lat="43.4818329" lon="11.8939666"><ele>259.0</ele><time>2026-04-12T10:28:20.12Z</time></trkpt><trkpt lat="43.4818132" lon="11.8937113"><ele>259.0</ele><time>2026-04-12T10:28:21.122Z</time></trkpt><trkpt lat="43.481794" lon="11.8934573"><ele>259.0</ele><time>2026-04-12T10:28:22.116Z</time></trkpt><trkpt lat="43.4817763" lon="11.8932049"><ele>259.0</ele><time>2026-04-12T10:28:23.136Z</time></trkpt><trkpt lat="43.4817608" lon="11.8929556"><ele>258.3333333333333</ele><time>2026-04-12T10:28:24.121Z</time></trkpt><trkpt lat="43.4817453" lon="11.8927166"><ele>257.6666666666667</ele><time>2026-04-12T10:28:25.114Z</time></trkpt><trkpt lat="43.48173" lon="11.8924795"><ele>257.0</ele><time>2026-04-12T10:28:26.116Z</time></trkpt><trkpt lat="43.4817167" lon="11.8922446"><ele>257.0</ele><time>2026-04-12T10:28:27.119Z</time></trkpt><trkpt lat="43.4817054" lon="11.8920115"><ele>257.0</ele><time>2026-04-12T10:28:28.119Z</time></trkpt><trkpt lat="43.481695" lon="11.8917772"><ele>257.0</ele><time>2026-04-12T10:28:29.136Z</time></trkpt><trkpt lat="43.4816849" lon="11.8915408"><ele>256.6666666666667</ele><time>2026-04-12T10:28:30.112Z</time></trkpt><trkpt lat="43.4816744" lon="11.8913028"><ele>256.3333333333333</ele><time>2026-04-12T10:28:31.131Z</time></trkpt><trkpt lat="43.4816627" lon="11.891074"><ele>256.0</ele><time>2026-04-12T10:28:32.138Z</time></trkpt><trkpt lat="43.4816511" lon="11.8908579"><ele>255.66666666666666</ele><time>2026-04-12T10:28:33.114Z</time></trkpt><trkpt lat="43.4816384" lon="11.8906505"><ele>255.33333333333331</ele><time>2026-04-12T10:28:34.117Z</time></trkpt><trkpt lat="43.4816238" lon="11.8904365"><ele>255.0</ele><time>2026-04-12T10:28:35.129Z</time></trkpt><trkpt lat="43.4816094" lon="11.8902129"><ele>255.0</ele><time>2026-04-12T10:28:36.119Z</time></trkpt><trkpt lat="43.4815939" lon="11.8899825"><ele>255.0</ele><time>2026-04-12T10:28:37.127Z</time></trkpt><trkpt lat="43.481578" lon="11.8897456"><ele>255.0</ele><time>2026-04-12T10:28:38.139Z</time></trkpt><trkpt lat="43.4815623" lon="11.8895032"><ele>255.0</ele><time>2026-04-12T10:28:39.122Z</time></trkpt><trkpt lat="43.4815449" lon="11.8892561"><ele>255.0</ele><time>2026-04-12T10:28:40.117Z</time></trkpt><trkpt lat="43.4815279" lon="11.8890065"><ele>255.0</ele><time>2026-04-12T10:28:41.12Z</time></trkpt><trkpt lat="43.4815107" lon="11.8887594"><ele>255.0</ele><time>2026-04-12T10:28:42.123Z</time></trkpt><trkpt lat="43.4814935" lon="11.8885161"><ele>255.0</ele><time>2026-04-12T10:28:43.117Z</time></trkpt><trkpt lat="43.4814766" lon="11.8882747"><ele>255.0</ele><time>2026-04-12T10:28:44.119Z</time></trkpt><trkpt lat="43.481461" lon="11.8880408"><ele>254.66666666666669</ele><time>2026-04-12T10:28:45.118Z</time></trkpt><trkpt lat="43.4814459" lon="11.8878194"><ele>254.33333333333334</ele><time>2026-04-12T10:28:46.125Z</time></trkpt><trkpt lat="43.4814316" lon="11.887609"><ele>254.0</ele><time>2026-04-12T10:28:47.119Z</time></trkpt><trkpt lat="43.4814167" lon="11.8874097"><ele>254.0</ele><time>2026-04-12T10:28:48.122Z</time></trkpt><trkpt lat="43.4814038" lon="11.8872134"><ele>254.0</ele><time>2026-04-12T10:28:49.117Z</time></trkpt><trkpt lat="43.4813923" lon="11.8870197"><ele>254.0</ele><time>2026-04-12T10:28:50.124Z</time></trkpt><trkpt lat="43.4813812" lon="11.8868421"><ele>254.0</ele><time>2026-04-12T10:28:51.116Z</time></trkpt><trkpt lat="43.4813717" lon="11.8866883"><ele>254.16666666666669</ele><time>2026-04-12T10:28:52.118Z</time></trkpt><trkpt lat="43.4813636" lon="11.8865551"><ele>254.33333333333334</ele><time>2026-04-12T10:28:53.127Z</time></trkpt><trkpt lat="43.4813643" lon="11.8864505"><ele>254.5</ele><time>2026-04-12T10:28:54.118Z</time></trkpt><trkpt lat="43.4813552" lon="11.8863544"><ele>254.66666666666669</ele><time>2026-04-12T10:28:55.13Z</time></trkpt><trkpt lat="43.4813448" lon="11.8862126"><ele>254.83333333333334</ele><time>2026-04-12T10:28:57.126Z</time></trkpt><trkpt lat="43.4813489" lon="11.886075"><ele>255.0</ele><time>2026-04-12T10:29:01.124Z</time></trkpt><trkpt lat="43.4814416" lon="11.8860512"><ele>255.0</ele><time>2026-04-12T10:29:04.116Z</time></trkpt><trkpt lat="43.4815111" lon="11.8860517"><ele>255.0</ele><time>2026-04-12T10:29:05.121Z</time></trkpt><trkpt lat="43.4816034" lon="11.886057"><ele>255.0</ele><time>2026-04-12T10:29:06.113Z</time></trkpt><trkpt lat="43.4816954" lon="11.8860618"><ele>255.0</ele><time>2026-04-12T10:29:07.124Z</time></trkpt><trkpt lat="43.4818061" lon="11.8860671"><ele>255.0</ele><time>2026-04-12T10:29:08.129Z</time></trkpt><trkpt lat="43.4819288" lon="11.8860758"><ele>255.0</ele><time>2026-04-12T10:29:09.122Z</time></trkpt><trkpt lat="43.4820569" lon="11.8860881"><ele>255.0</ele><time>2026-04-12T10:29:10.116Z</time></trkpt><trkpt lat="43.4821865" lon="11.8861002"><ele>255.0</ele><time>2026-04-12T10:29:11.148Z</time></trkpt><trkpt lat="43.482318" lon="11.886111"><ele>255.0</ele><time>2026-04-12T10:29:12.109Z</time></trkpt><trkpt lat="43.4824509" lon="11.8861217"><ele>254.66666666666669</ele><time>2026-04-12T10:29:13.131Z</time></trkpt><trkpt lat="43.4825967" lon="11.8861275"><ele>254.33333333333334</ele><time>2026-04-12T10:29:14.12Z</time></trkpt><trkpt lat="43.4827598" lon="11.8861401"><ele>254.0</ele><time>2026-04-12T10:29:15.117Z</time></trkpt><trkpt lat="43.4829531" lon="11.8861457"><ele>254.0</ele><time>2026-04-12T10:29:16.138Z</time></trkpt><trkpt lat="43.4831573" lon="11.8861677"><ele>254.0</ele><time>2026-04-12T10:29:17.122Z</time></trkpt><trkpt lat="43.4833659" lon="11.8861956"><ele>254.0</ele><time>2026-04-12T10:29:18.119Z</time></trkpt><trkpt lat="43.483584" lon="11.886223"><ele>255.0</ele><time>2026-04-12T10:29:19.122Z</time></trkpt><trkpt lat="43.4837988" lon="11.8862423"><ele>256.0</ele><time>2026-04-12T10:29:20.123Z</time></trkpt><trkpt lat="43.4840113" lon="11.8862615"><ele>257.0</ele><time>2026-04-12T10:29:21.121Z</time></trkpt><trkpt lat="43.4842218" lon="11.8862786"><ele>257.0</ele><time>2026-04-12T10:29:22.112Z</time></trkpt><trkpt lat="43.4844372" lon="11.8862927"><ele>257.0</ele><time>2026-04-12T10:29:23.131Z</time></trkpt><trkpt lat="43.4846551" lon="11.8863068"><ele>257.0</ele><time>2026-04-12T10:29:24.134Z</time></trkpt><trkpt lat="43.4848685" lon="11.8863214"><ele>256.33333333333337</ele><time>2026-04-12T10:29:25.121Z</time></trkpt><trkpt lat="43.4850704" lon="11.8863372"><ele>255.66666666666669</ele><time>2026-04-12T10:29:26.126Z</time></trkpt><trkpt lat="43.4852605" lon="11.8863516"><ele>255.0</ele><time>2026-04-12T10:29:27.136Z</time></trkpt><trkpt lat="43.485436" lon="11.8863668"><ele>254.75</ele><time>2026-04-12T10:29:28.123Z</time></trkpt><trkpt lat="43.4855844" lon="11.8863859"><ele>254.5</ele><time>2026-04-12T10:29:29.127Z</time></trkpt><trkpt lat="43.4857046" lon="11.886409"><ele>254.25</ele><time>2026-04-12T10:29:30.116Z</time></trkpt><trkpt lat="43.4858127" lon="11.8864591"><ele>254.0</ele><time>2026-04-12T10:29:31.12Z</time></trkpt><trkpt lat="43.4859132" lon="11.8865422"><ele>254.0</ele><time>2026-04-12T10:29:32.131Z</time></trkpt><trkpt lat="43.4860115" lon="11.8866291"><ele>253.99999999999997</ele><time>2026-04-12T10:29:33.117Z</time></trkpt><trkpt lat="43.486111" lon="11.8866678"><ele>253.99999999999997</ele><time>2026-04-12T10:29:34.111Z</time></trkpt><trkpt lat="43.4862038" lon="11.8866708"><ele>254.0</ele><time>2026-04-12T10:29:35.115Z</time></trkpt><trkpt lat="43.4862924" lon="11.8866005"><ele>254.0</ele><time>2026-04-12T10:29:36.126Z</time></trkpt><trkpt lat="43.4863897" lon="11.8865262"><ele>254.5</ele><time>2026-04-12T10:29:37.113Z</time></trkpt><trkpt lat="43.4864959" lon="11.8864793"><ele>255.0</ele><time>2026-04-12T10:29:38.113Z</time></trkpt><trkpt lat="43.4866237" lon="11.8864677"><ele>255.5</ele><time>2026-04-12T10:29:39.115Z</time></trkpt><trkpt lat="43.4867709" lon="11.8864726"><ele>256.0</ele><time>2026-04-12T10:29:40.125Z</time></trkpt><trkpt lat="43.4869346" lon="11.8864777"><ele>255.66666666666666</ele><time>2026-04-12T10:29:41.116Z</time></trkpt><trkpt lat="43.4871138" lon="11.8864784"><ele>255.33333333333331</ele><time>2026-04-12T10:29:42.122Z</time></trkpt><trkpt lat="43.4872826" lon="11.8864941"><ele>255.0</ele><time>2026-04-12T10:29:43.127Z</time></trkpt><trkpt lat="43.487439" lon="11.8865083"><ele>255.0</ele><time>2026-04-12T10:29:44.119Z</time></trkpt><trkpt lat="43.48758" lon="11.8865243"><ele>255.0</ele><time>2026-04-12T10:29:45.122Z</time></trkpt><trkpt lat="43.4877089" lon="11.8865363"><ele>255.0</ele><time>2026-04-12T10:29:46.127Z</time></trkpt><trkpt lat="43.4878289" lon="11.8865506"><ele>255.0</ele><time>2026-04-12T10:29:47.123Z</time></trkpt><trkpt lat="43.4879334" lon="11.8865619"><ele>255.5</ele><time>2026-04-12T10:29:48.128Z</time></trkpt><trkpt lat="43.4880248" lon="11.8865685"><ele>256.0</ele><time>2026-04-12T10:29:49.118Z</time></trkpt><trkpt lat="43.4881032" lon="11.8865773"><ele>256.5</ele><time>2026-04-12T10:29:50.111Z</time></trkpt><trkpt lat="43.4881768" lon="11.8865892"><ele>257.0</ele><time>2026-04-12T10:29:51.121Z</time></trkpt><trkpt lat="43.4882467" lon="11.8866"><ele>257.5</ele><time>2026-04-12T10:29:52.117Z</time></trkpt><trkpt lat="43.4883096" lon="11.8866053"><ele>258.0</ele><time>2026-04-12T10:29:53.108Z</time></trkpt><trkpt lat="43.4884216" lon="11.8866106"><ele>258.0</ele><time>2026-04-12T10:29:55.114Z</time></trkpt><trkpt lat="43.4885294" lon="11.8866088"><ele>258.0</ele><time>2026-04-12T10:29:57.126Z</time></trkpt><trkpt lat="43.4886053" lon="11.8866132"><ele>258.0</ele><time>2026-04-12T10:29:58.13Z</time></trkpt><trkpt lat="43.4887115" lon="11.886619"><ele>258.0</ele><time>2026-04-12T10:29:59.13Z</time></trkpt><trkpt lat="43.4888272" lon="11.8866471"><ele>258.0</ele><time>2026-04-12T10:30:00.127Z</time></trkpt><trkpt lat="43.4889609" lon="11.8866662"><ele>258.0</ele><time>2026-04-12T10:30:01.128Z</time></trkpt><trkpt lat="43.4891006" lon="11.8866775"><ele>258.0</ele><time>2026-04-12T10:30:02.119Z</time></trkpt><trkpt lat="43.4892502" lon="11.8866857"><ele>258.0</ele><time>2026-04-12T10:30:03.121Z</time></trkpt><trkpt lat="43.4894183" lon="11.886698"><ele>258.0</ele><time>2026-04-12T10:30:04.115Z</time></trkpt><trkpt lat="43.489593" lon="11.8867133"><ele>258.0</ele><time>2026-04-12T10:30:05.111Z</time></trkpt><trkpt lat="43.4897713" lon="11.8867258"><ele>258.0</ele><time>2026-04-12T10:30:06.117Z</time></trkpt><trkpt lat="43.4899602" lon="11.886742"><ele>258.0</ele><time>2026-04-12T10:30:07.11Z</time></trkpt><trkpt lat="43.4901562" lon="11.8867562"><ele>258.0</ele><time>2026-04-12T10:30:08.118Z</time></trkpt><trkpt lat="43.4903614" lon="11.8867709"><ele>258.0</ele><time>2026-04-12T10:30:09.123Z</time></trkpt><trkpt lat="43.4905631" lon="11.8867859"><ele>258.0</ele><time>2026-04-12T10:30:10.131Z</time></trkpt><trkpt lat="43.4907555" lon="11.8868019"><ele>258.0</ele><time>2026-04-12T10:30:11.126Z</time></trkpt><trkpt lat="43.490944" lon="11.8868169"><ele>258.0</ele><time>2026-04-12T10:30:12.119Z</time></trkpt><trkpt lat="43.4911307" lon="11.8868305"><ele>258.0</ele><time>2026-04-12T10:30:13.134Z</time></trkpt><trkpt lat="43.4913184" lon="11.886844"><ele>258.0</ele><time>2026-04-12T10:30:14.125Z</time></trkpt><trkpt lat="43.4915104" lon="11.8868575"><ele>258.0</ele><time>2026-04-12T10:30:15.119Z</time></trkpt><trkpt lat="43.4917023" lon="11.8868693"><ele>258.0</ele><time>2026-04-12T10:30:16.119Z</time></trkpt><trkpt lat="43.4918922" lon="11.8868821"><ele>258.0</ele><time>2026-04-12T10:30:17.122Z</time></trkpt><trkpt lat="43.4920741" lon="11.8868939"><ele>258.0</ele><time>2026-04-12T10:30:18.122Z</time></trkpt><trkpt lat="43.4922532" lon="11.8869043"><ele>258.3333333333333</ele><time>2026-04-12T10:30:19.127Z</time></trkpt><trkpt lat="43.4924198" lon="11.8869069"><ele>258.66666666666663</ele><time>2026-04-12T10:30:20.131Z</time></trkpt><trkpt lat="43.4925869" lon="11.8869157"><ele>259.0</ele><time>2026-04-12T10:30:21.133Z</time></trkpt><trkpt lat="43.4927521" lon="11.8869245"><ele>259.0</ele><time>2026-04-12T10:30:22.112Z</time></trkpt><trkpt lat="43.492919" lon="11.8869361"><ele>259.0</ele><time>2026-04-12T10:30:23.122Z</time></trkpt><trkpt lat="43.4930818" lon="11.8869473"><ele>259.0</ele><time>2026-04-12T10:30:24.137Z</time></trkpt><trkpt lat="43.4932427" lon="11.8869571"><ele>258.66666666666663</ele><time>2026-04-12T10:30:25.107Z</time></trkpt><trkpt lat="43.4934014" lon="11.8869672"><ele>258.3333333333333</ele><time>2026-04-12T10:30:26.124Z</time></trkpt><trkpt lat="43.4935594" lon="11.8869779"><ele>258.0</ele><time>2026-04-12T10:30:27.121Z</time></trkpt><trkpt lat="43.4937175" lon="11.88699"><ele>258.0</ele><time>2026-04-12T10:30:28.123Z</time></trkpt><trkpt lat="43.4938803" lon="11.8870014"><ele>258.0</ele><time>2026-04-12T10:30:29.121Z</time></trkpt><trkpt lat="43.4940434" lon="11.8870153"><ele>258.0</ele><time>2026-04-12T10:30:30.116Z</time></trkpt><trkpt lat="43.4942039" lon="11.8870306"><ele>258.0</ele><time>2026-04-12T10:30:31.112Z</time></trkpt><trkpt lat="43.4943653" lon="11.8870458"><ele>258.0</ele><time>2026-04-12T10:30:32.123Z</time></trkpt><trkpt lat="43.4945349" lon="11.8870515"><ele>258.0</ele><time>2026-04-12T10:30:33.118Z</time></trkpt><trkpt lat="43.4947299" lon="11.8870533"><ele>257.6666666666667</ele><time>2026-04-12T10:30:34.136Z</time></trkpt><trkpt lat="43.4949384" lon="11.8870686"><ele>257.33333333333337</ele><time>2026-04-12T10:30:35.123Z</time></trkpt><trkpt lat="43.4951653" lon="11.8870945"><ele>257.0</ele><time>2026-04-12T10:30:36.117Z</time></trkpt><trkpt lat="43.4954011" lon="11.8871237"><ele>257.0</ele><time>2026-04-12T10:30:37.121Z</time></trkpt><trkpt lat="43.4956316" lon="11.8871455"><ele>257.0</ele><time>2026-04-12T10:30:38.12Z</time></trkpt><trkpt lat="43.4958582" lon="11.8871653"><ele>257.0</ele><time>2026-04-12T10:30:39.117Z</time></trkpt><trkpt lat="43.4960802" lon="11.8871812"><ele>257.0</ele><time>2026-04-12T10:30:40.126Z</time></trkpt><trkpt lat="43.4963036" lon="11.8871917"><ele>257.0</ele><time>2026-04-12T10:30:41.12Z</time></trkpt><trkpt lat="43.4965268" lon="11.887204"><ele>257.0</ele><time>2026-04-12T10:30:42.125Z</time></trkpt><trkpt lat="43.4967513" lon="11.8872209"><ele>257.0</ele><time>2026-04-12T10:30:43.121Z</time></trkpt><trkpt lat="43.496978" lon="11.8872363"><ele>256.6666666666667</ele><time>2026-04-12T10:30:44.106Z</time></trkpt><trkpt lat="43.4972022" lon="11.8872511"><ele>256.3333333333333</ele><time>2026-04-12T10:30:45.12Z</time></trkpt><trkpt lat="43.497423" lon="11.8872642"><ele>256.0</ele><time>2026-04-12T10:30:46.121Z</time></trkpt><trkpt lat="43.497642" lon="11.8872797"><ele>256.0</ele><time>2026-04-12T10:30:47.127Z</time></trkpt><trkpt lat="43.49786" lon="11.8872975"><ele>256.0</ele><time>2026-04-12T10:30:48.128Z</time></trkpt><trkpt lat="43.4980785" lon="11.8873136"><ele>256.0</ele><time>2026-04-12T10:30:49.14Z</time></trkpt><trkpt lat="43.4982974" lon="11.8873318"><ele>256.66666666666663</ele><time>2026-04-12T10:30:50.124Z</time></trkpt><trkpt lat="43.498517" lon="11.8873533"><ele>257.3333333333333</ele><time>2026-04-12T10:30:51.115Z</time></trkpt><trkpt lat="43.4987362" lon="11.8873755"><ele>258.0</ele><time>2026-04-12T10:30:52.125Z</time></trkpt><trkpt lat="43.4989569" lon="11.8873966"><ele>258.0</ele><time>2026-04-12T10:30:53.111Z</time></trkpt><trkpt lat="43.4991784" lon="11.8874167"><ele>258.0</ele><time>2026-04-12T10:30:54.112Z</time></trkpt><trkpt lat="43.4993994" lon="11.8874345"><ele>258.0</ele><time>2026-04-12T10:30:55.122Z</time></trkpt><trkpt lat="43.4996191" lon="11.8874508"><ele>257.6666666666667</ele><time>2026-04-12T10:30:56.12Z</time></trkpt><trkpt lat="43.4998378" lon="11.8874662"><ele>257.33333333333337</ele><time>2026-04-12T10:30:57.123Z</time></trkpt><trkpt lat="43.5000554" lon="11.8874786"><ele>257.0</ele><time>2026-04-12T10:30:58.113Z</time></trkpt><trkpt lat="43.5002773" lon="11.8874925"><ele>256.6666666666667</ele><time>2026-04-12T10:30:59.133Z</time></trkpt><trkpt lat="43.5004959" lon="11.8875083"><ele>256.3333333333333</ele><time>2026-04-12T10:31:00.11Z</time></trkpt><trkpt lat="43.50072" lon="11.8875261"><ele>256.0</ele><time>2026-04-12T10:31:01.124Z</time></trkpt><trkpt lat="43.500944" lon="11.8875416"><ele>256.0</ele><time>2026-04-12T10:31:02.124Z</time></trkpt><trkpt lat="43.5011689" lon="11.8875559"><ele>256.0</ele><time>2026-04-12T10:31:03.127Z</time></trkpt><trkpt lat="43.5013919" lon="11.8875717"><ele>256.0</ele><time>2026-04-12T10:31:04.133Z</time></trkpt><trkpt lat="43.5016117" lon="11.8875879"><ele>256.66666666666663</ele><time>2026-04-12T10:31:05.119Z</time></trkpt><trkpt lat="43.5018332" lon="11.8875995"><ele>257.3333333333333</ele><time>2026-04-12T10:31:06.116Z</time></trkpt><trkpt lat="43.5020545" lon="11.8876122"><ele>258.0</ele><time>2026-04-12T10:31:07.112Z</time></trkpt><trkpt lat="43.502276" lon="11.8876243"><ele>258.3333333333333</ele><time>2026-04-12T10:31:08.124Z</time></trkpt><trkpt lat="43.5024959" lon="11.887636"><ele>258.66666666666663</ele><time>2026-04-12T10:31:09.129Z</time></trkpt><trkpt lat="43.5027151" lon="11.8876482"><ele>259.0</ele><time>2026-04-12T10:31:10.124Z</time></trkpt><trkpt lat="43.502935" lon="11.8876615"><ele>259.0</ele><time>2026-04-12T10:31:11.125Z</time></trkpt><trkpt lat="43.5031546" lon="11.8876764"><ele>259.0</ele><time>2026-04-12T10:31:12.13Z</time></trkpt><trkpt lat="43.5033728" lon="11.8876915"><ele>259.0</ele><time>2026-04-12T10:31:13.124Z</time></trkpt><trkpt lat="43.5035931" lon="11.8877055"><ele>259.0</ele><time>2026-04-12T10:31:14.137Z</time></trkpt><trkpt lat="43.5038117" lon="11.8877187"><ele>259.0</ele><time>2026-04-12T10:31:15.126Z</time></trkpt><trkpt lat="43.5040317" lon="11.8877314"><ele>259.0</ele><time>2026-04-12T10:31:16.117Z</time></trkpt><trkpt lat="43.5042533" lon="11.8877447"><ele>259.0</ele><time>2026-04-12T10:31:17.133Z</time></trkpt><trkpt lat="43.5044729" lon="11.8877567"><ele>259.0</ele><time>2026-04-12T10:31:18.135Z</time></trkpt><trkpt lat="43.5046921" lon="11.8877692"><ele>259.0</ele><time>2026-04-12T10:31:19.12Z</time></trkpt><trkpt lat="43.5049134" lon="11.8877831"><ele>259.3333333333333</ele><time>2026-04-12T10:31:20.118Z</time></trkpt><trkpt lat="43.5051339" lon="11.8877964"><ele>259.6666666666667</ele><time>2026-04-12T10:31:21.119Z</time></trkpt><trkpt lat="43.5053515" lon="11.8878091"><ele>260.0</ele><time>2026-04-12T10:31:22.125Z</time></trkpt><trkpt lat="43.5055661" lon="11.8878228"><ele>260.6666666666667</ele><time>2026-04-12T10:31:23.116Z</time></trkpt><trkpt lat="43.5057822" lon="11.8878381"><ele>261.3333333333333</ele><time>2026-04-12T10:31:24.116Z</time></trkpt><trkpt lat="43.5059995" lon="11.887855"><ele>262.0</ele><time>2026-04-12T10:31:25.127Z</time></trkpt><trkpt lat="43.5062156" lon="11.8878698"><ele>262.66666666666663</ele><time>2026-04-12T10:31:26.129Z</time></trkpt><trkpt lat="43.5064323" lon="11.8878821"><ele>263.3333333333333</ele><time>2026-04-12T10:31:27.134Z</time></trkpt><trkpt lat="43.5066474" lon="11.887896"><ele>264.0</ele><time>2026-04-12T10:31:28.126Z</time></trkpt><trkpt lat="43.5068639" lon="11.8879105"><ele>264.0</ele><time>2026-04-12T10:31:29.136Z</time></trkpt><trkpt lat="43.5070783" lon="11.8879242"><ele>264.0</ele><time>2026-04-12T10:31:30.128Z</time></trkpt><trkpt lat="43.5072938" lon="11.8879373"><ele>264.0</ele><time>2026-04-12T10:31:31.132Z</time></trkpt><trkpt lat="43.507508" lon="11.8879513"><ele>264.0</ele><time>2026-04-12T10:31:32.121Z</time></trkpt><trkpt lat="43.5077234" lon="11.8879646"><ele>264.0</ele><time>2026-04-12T10:31:33.122Z</time></trkpt><trkpt lat="43.5079389" lon="11.8879777"><ele>264.0</ele><time>2026-04-12T10:31:34.129Z</time></trkpt><trkpt lat="43.5081537" lon="11.8879912"><ele>264.3333333333333</ele><time>2026-04-12T10:31:35.117Z</time></trkpt><trkpt lat="43.5083725" lon="11.8880068"><ele>264.66666666666663</ele><time>2026-04-12T10:31:36.131Z</time></trkpt><trkpt lat="43.5085884" lon="11.8880268"><ele>265.0</ele><time>2026-04-12T10:31:37.126Z</time></trkpt><trkpt lat="43.5088047" lon="11.8880462"><ele>265.0</ele><time>2026-04-12T10:31:38.122Z</time></trkpt><trkpt lat="43.5090216" lon="11.888065"><ele>265.0</ele><time>2026-04-12T10:31:39.136Z</time></trkpt><trkpt lat="43.509235" lon="11.8880833"><ele>265.0</ele><time>2026-04-12T10:31:40.119Z</time></trkpt><trkpt lat="43.5094512" lon="11.8881024"><ele>264.0</ele><time>2026-04-12T10:31:41.121Z</time></trkpt><trkpt lat="43.5096697" lon="11.888122"><ele>263.0</ele><time>2026-04-12T10:31:42.126Z</time></trkpt><trkpt lat="43.509887" lon="11.8881401"><ele>262.0</ele><time>2026-04-12T10:31:43.123Z</time></trkpt><trkpt lat="43.5101049" lon="11.8881568"><ele>262.0</ele><time>2026-04-12T10:31:44.12Z</time></trkpt><trkpt lat="43.5103285" lon="11.8881713"><ele>262.0</ele><time>2026-04-12T10:31:45.126Z</time></trkpt><trkpt lat="43.5105559" lon="11.8881835"><ele>262.5</ele><time>2026-04-12T10:31:46.112Z</time></trkpt><trkpt lat="43.5107861" lon="11.8881982"><ele>263.0</ele><time>2026-04-12T10:31:47.13Z</time></trkpt><trkpt lat="43.5110052" lon="11.8882146"><ele>263.0</ele><time>2026-04-12T10:31:48.123Z</time></trkpt><trkpt lat="43.5112209" lon="11.8882315"><ele>263.0</ele><time>2026-04-12T10:31:49.129Z</time></trkpt><trkpt lat="43.5114334" lon="11.8882434"><ele>263.0</ele><time>2026-04-12T10:31:50.121Z</time></trkpt><trkpt lat="43.5116474" lon="11.8882576"><ele>263.33333333333337</ele><time>2026-04-12T10:31:51.133Z</time></trkpt><trkpt lat="43.511859" lon="11.8882738"><ele>263.6666666666667</ele><time>2026-04-12T10:31:52.118Z</time></trkpt><trkpt lat="43.5120737" lon="11.8882916"><ele>264.0</ele><time>2026-04-12T10:31:53.12Z</time></trkpt><trkpt lat="43.5122874" lon="11.888308"><ele>264.0</ele><time>2026-04-12T10:31:54.138Z</time></trkpt><trkpt lat="43.5124963" lon="11.8883238"><ele>264.0</ele><time>2026-04-12T10:31:55.123Z</time></trkpt><trkpt lat="43.5127067" lon="11.8883393"><ele>264.0</ele><time>2026-04-12T10:31:56.129Z</time></trkpt><trkpt lat="43.5129172" lon="11.8883541"><ele>263.3333333333333</ele><time>2026-04-12T10:31:57.122Z</time></trkpt><trkpt lat="43.5131303" lon="11.8883711"><ele>262.66666666666663</ele><time>2026-04-12T10:31:58.119Z</time></trkpt><trkpt lat="43.5133447" lon="11.8883872"><ele>262.0</ele><time>2026-04-12T10:31:59.119Z</time></trkpt><trkpt lat="43.5135606" lon="11.8884002"><ele>262.0</ele><time>2026-04-12T10:32:00.118Z</time></trkpt><trkpt lat="43.513782" lon="11.8884132"><ele>262.0</ele><time>2026-04-12T10:32:01.123Z</time></trkpt><trkpt lat="43.5140071" lon="11.8884266"><ele>262.0</ele><time>2026-04-12T10:32:02.121Z</time></trkpt><trkpt lat="43.5142347" lon="11.8884414"><ele>264.5</ele><time>2026-04-12T10:32:03.13Z</time></trkpt><trkpt lat="43.5144605" lon="11.8884562"><ele>267.0</ele><time>2026-04-12T10:32:04.13Z</time></trkpt><trkpt lat="43.5146845" lon="11.8884734"><ele>267.6666666666667</ele><time>2026-04-12T10:32:05.132Z</time></trkpt><trkpt lat="43.5148979" lon="11.8884926"><ele>268.33333333333337</ele><time>2026-04-12T10:32:06.109Z</time></trkpt><trkpt lat="43.5151002" lon="11.8885108"><ele>269.0</ele><time>2026-04-12T10:32:07.121Z</time></trkpt><trkpt lat="43.5152818" lon="11.888527"><ele>269.0</ele><time>2026-04-12T10:32:08.117Z</time></trkpt><trkpt lat="43.515448" lon="11.888539"><ele>269.0</ele><time>2026-04-12T10:32:09.115Z</time></trkpt><trkpt lat="43.5156049" lon="11.888541"><ele>269.0</ele><time>2026-04-12T10:32:10.113Z</time></trkpt><trkpt lat="43.5157693" lon="11.8885405"><ele>269.0</ele><time>2026-04-12T10:32:11.125Z</time></trkpt><trkpt lat="43.5159414" lon="11.8885485"><ele>269.0</ele><time>2026-04-12T10:32:12.118Z</time></trkpt><trkpt lat="43.5161247" lon="11.8885647"><ele>269.0</ele><time>2026-04-12T10:32:13.125Z</time></trkpt><trkpt lat="43.5163124" lon="11.8885786"><ele>269.0</ele><time>2026-04-12T10:32:14.128Z</time></trkpt><trkpt lat="43.5164962" lon="11.8885869"><ele>269.0</ele><time>2026-04-12T10:32:15.125Z</time></trkpt><trkpt lat="43.5166784" lon="11.8886032"><ele>269.0</ele><time>2026-04-12T10:32:16.121Z</time></trkpt><trkpt lat="43.5168696" lon="11.8886305"><ele>269.0</ele><time>2026-04-12T10:32:17.141Z</time></trkpt><trkpt lat="43.5170664" lon="11.8886837"><ele>269.0</ele><time>2026-04-12T10:32:18.165Z</time></trkpt><trkpt lat="43.5172584" lon="11.8887653"><ele>269.0</ele><time>2026-04-12T10:32:19.128Z</time></trkpt><trkpt lat="43.517455" lon="11.8888725"><ele>268.0</ele><time>2026-04-12T10:32:20.122Z</time></trkpt><trkpt lat="43.5176537" lon="11.8889895"><ele>267.0</ele><time>2026-04-12T10:32:21.119Z</time></trkpt><trkpt lat="43.5178543" lon="11.889103"><ele>266.0</ele><time>2026-04-12T10:32:22.131Z</time></trkpt><trkpt lat="43.5180517" lon="11.889214"><ele>265.6666666666667</ele><time>2026-04-12T10:32:23.146Z</time></trkpt><trkpt lat="43.5182428" lon="11.8893191"><ele>265.3333333333333</ele><time>2026-04-12T10:32:24.142Z</time></trkpt><trkpt lat="43.5184328" lon="11.8894265"><ele>265.0</ele><time>2026-04-12T10:32:25.142Z</time></trkpt><trkpt lat="43.5186251" lon="11.8895331"><ele>265.0</ele><time>2026-04-12T10:32:26.131Z</time></trkpt><trkpt lat="43.5188201" lon="11.8896433"><ele>265.0</ele><time>2026-04-12T10:32:27.133Z</time></trkpt><trkpt lat="43.5190173" lon="11.8897515"><ele>265.0</ele><time>2026-04-12T10:32:28.138Z</time></trkpt><trkpt lat="43.5192148" lon="11.8898563"><ele>265.0</ele><time>2026-04-12T10:32:29.114Z</time></trkpt><trkpt lat="43.5194172" lon="11.8899624"><ele>265.0</ele><time>2026-04-12T10:32:30.121Z</time></trkpt><trkpt lat="43.5196174" lon="11.8900696"><ele>265.0</ele><time>2026-04-12T10:32:31.121Z</time></trkpt><trkpt lat="43.5198175" lon="11.890173"><ele>264.66666666666663</ele><time>2026-04-12T10:32:32.126Z</time></trkpt><trkpt lat="43.5200135" lon="11.8902727"><ele>264.3333333333333</ele><time>2026-04-12T10:32:33.115Z</time></trkpt><trkpt lat="43.520209" lon="11.8903726"><ele>264.0</ele><time>2026-04-12T10:32:34.123Z</time></trkpt><trkpt lat="43.5204047" lon="11.8904767"><ele>264.0</ele><time>2026-04-12T10:32:35.125Z</time></trkpt><trkpt lat="43.5206022" lon="11.8905879"><ele>264.0</ele><time>2026-04-12T10:32:36.117Z</time></trkpt><trkpt lat="43.520803" lon="11.8907006"><ele>264.0</ele><time>2026-04-12T10:32:37.123Z</time></trkpt><trkpt lat="43.521003" lon="11.8908112"><ele>264.3333333333333</ele><time>2026-04-12T10:32:38.112Z</time></trkpt><trkpt lat="43.5212028" lon="11.8909247"><ele>264.66666666666663</ele><time>2026-04-12T10:32:39.113Z</time></trkpt><trkpt lat="43.5214027" lon="11.8910381"><ele>265.0</ele><time>2026-04-12T10:32:40.115Z</time></trkpt><trkpt lat="43.5216051" lon="11.8911525"><ele>265.0</ele><time>2026-04-12T10:32:41.117Z</time></trkpt><trkpt lat="43.5218115" lon="11.8912671"><ele>265.0</ele><time>2026-04-12T10:32:42.113Z</time></trkpt><trkpt lat="43.5220217" lon="11.8913822"><ele>265.0</ele><time>2026-04-12T10:32:43.122Z</time></trkpt><trkpt lat="43.5222328" lon="11.8914976"><ele>264.66666666666663</ele><time>2026-04-12T10:32:44.122Z</time></trkpt><trkpt lat="43.5224404" lon="11.8916117"><ele>264.3333333333333</ele><time>2026-04-12T10:32:45.128Z</time></trkpt><trkpt lat="43.5226427" lon="11.8917252"><ele>264.0</ele><time>2026-04-12T10:32:46.12Z</time></trkpt><trkpt lat="43.5228397" lon="11.8918391"><ele>263.6666666666667</ele><time>2026-04-12T10:32:47.111Z</time></trkpt><trkpt lat="43.5230282" lon="11.891952"><ele>263.33333333333337</ele><time>2026-04-12T10:32:48.111Z</time></trkpt><trkpt lat="43.523215" lon="11.892069"><ele>263.0</ele><time>2026-04-12T10:32:49.123Z</time></trkpt><trkpt lat="43.523401" lon="11.8921896"><ele>263.0</ele><time>2026-04-12T10:32:50.115Z</time></trkpt><trkpt lat="43.5235798" lon="11.892303"><ele>263.0</ele><time>2026-04-12T10:32:51.125Z</time></trkpt><trkpt lat="43.5237573" lon="11.8924184"><ele>263.0</ele><time>2026-04-12T10:32:52.116Z</time></trkpt><trkpt lat="43.5239365" lon="11.8925313"><ele>263.0</ele><time>2026-04-12T10:32:53.112Z</time></trkpt><trkpt lat="43.5241344" lon="11.892642"><ele>263.0</ele><time>2026-04-12T10:32:54.118Z</time></trkpt><trkpt lat="43.5243494" lon="11.8927708"><ele>263.0</ele><time>2026-04-12T10:32:55.122Z</time></trkpt><trkpt lat="43.5245629" lon="11.8929088"><ele>263.0</ele><time>2026-04-12T10:32:56.117Z</time></trkpt><trkpt lat="43.5247779" lon="11.8930395"><ele>263.0</ele><time>2026-04-12T10:32:57.106Z</time></trkpt><trkpt lat="43.5249906" lon="11.8931546"><ele>263.0</ele><time>2026-04-12T10:32:58.128Z</time></trkpt><trkpt lat="43.5252031" lon="11.8932542"><ele>263.0</ele><time>2026-04-12T10:32:59.124Z</time></trkpt><trkpt lat="43.5254168" lon="11.8933415"><ele>263.0</ele><time>2026-04-12T10:33:00.109Z</time></trkpt><trkpt lat="43.5256531" lon="11.893426"><ele>266.5</ele><time>2026-04-12T10:33:01.134Z</time></trkpt><trkpt lat="43.5259006" lon="11.8935135"><ele>270.0</ele><time>2026-04-12T10:33:02.123Z</time></trkpt><trkpt lat="43.5261349" lon="11.8935943"><ele>271.0</ele><time>2026-04-12T10:33:03.115Z</time></trkpt><trkpt lat="43.5263455" lon="11.8936702"><ele>272.0</ele><time>2026-04-12T10:33:04.118Z</time></trkpt><trkpt lat="43.5265228" lon="11.8937371"><ele>273.0</ele><time>2026-04-12T10:33:05.107Z</time></trkpt><trkpt lat="43.5266728" lon="11.8937873"><ele>273.0</ele><time>2026-04-12T10:33:06.124Z</time></trkpt><trkpt lat="43.5267939" lon="11.8938856"><ele>273.0</ele><time>2026-04-12T10:33:07.109Z</time></trkpt><trkpt lat="43.5269128" lon="11.8940012"><ele>273.0</ele><time>2026-04-12T10:33:08.121Z</time></trkpt><trkpt lat="43.5270339" lon="11.8941559"><ele>272.6666666666667</ele><time>2026-04-12T10:33:09.12Z</time></trkpt><trkpt lat="43.5271452" lon="11.8943184"><ele>272.33333333333337</ele><time>2026-04-12T10:33:10.123Z</time></trkpt><trkpt lat="43.5272546" lon="11.8944787"><ele>272.0</ele><time>2026-04-12T10:33:11.124Z</time></trkpt><trkpt lat="43.5273639" lon="11.8946193"><ele>272.0</ele><time>2026-04-12T10:33:12.106Z</time></trkpt><trkpt lat="43.5274862" lon="11.8947426"><ele>272.0</ele><time>2026-04-12T10:33:13.11Z</time></trkpt><trkpt lat="43.5276168" lon="11.8948459"><ele>272.0</ele><time>2026-04-12T10:33:14.122Z</time></trkpt><trkpt lat="43.5277666" lon="11.8949328"><ele>272.0</ele><time>2026-04-12T10:33:15.117Z</time></trkpt><trkpt lat="43.5279336" lon="11.8950011"><ele>272.0</ele><time>2026-04-12T10:33:16.12Z</time></trkpt><trkpt lat="43.5281004" lon="11.8950554"><ele>272.0</ele><time>2026-04-12T10:33:17.113Z</time></trkpt><trkpt lat="43.528251" lon="11.895101"><ele>272.0</ele><time>2026-04-12T10:33:18.117Z</time></trkpt><trkpt lat="43.5283921" lon="11.8951389"><ele>272.0</ele><time>2026-04-12T10:33:19.123Z</time></trkpt><trkpt lat="43.5285373" lon="11.8951563"><ele>272.0</ele><time>2026-04-12T10:33:20.124Z</time></trkpt><trkpt lat="43.5286845" lon="11.8951497"><ele>272.0</ele><time>2026-04-12T10:33:21.115Z</time></trkpt><trkpt lat="43.5288249" lon="11.8951314"><ele>270.33333333333337</ele><time>2026-04-12T10:33:22.12Z</time></trkpt><trkpt lat="43.5289808" lon="11.8950946"><ele>268.6666666666667</ele><time>2026-04-12T10:33:23.12Z</time></trkpt><trkpt lat="43.5291319" lon="11.8950622"><ele>267.0</ele><time>2026-04-12T10:33:24.126Z</time></trkpt><trkpt lat="43.5292856" lon="11.8950354"><ele>267.0</ele><time>2026-04-12T10:33:25.116Z</time></trkpt><trkpt lat="43.5294359" lon="11.8950433"><ele>267.0</ele><time>2026-04-12T10:33:26.143Z</time></trkpt><trkpt lat="43.5295818" lon="11.8951031"><ele>267.0</ele><time>2026-04-12T10:33:27.122Z</time></trkpt><trkpt lat="43.5297273" lon="11.8951941"><ele>267.0</ele><time>2026-04-12T10:33:28.13Z</time></trkpt><trkpt lat="43.5298827" lon="11.895298"><ele>267.0</ele><time>2026-04-12T10:33:29.139Z</time></trkpt><trkpt lat="43.5300541" lon="11.8954147"><ele>267.0</ele><time>2026-04-12T10:33:30.111Z</time></trkpt><trkpt lat="43.5302195" lon="11.8955272"><ele>267.0</ele><time>2026-04-12T10:33:31.127Z</time></trkpt><trkpt lat="43.5303743" lon="11.895633"><ele>267.0</ele><time>2026-04-12T10:33:32.129Z</time></trkpt><trkpt lat="43.5305217" lon="11.8957402"><ele>267.0</ele><time>2026-04-12T10:33:33.115Z</time></trkpt><trkpt lat="43.53066" lon="11.8958631"><ele>268.6666666666667</ele><time>2026-04-12T10:33:34.111Z</time></trkpt><trkpt lat="43.5307965" lon="11.8960084"><ele>270.33333333333337</ele><time>2026-04-12T10:33:35.126Z</time></trkpt><trkpt lat="43.5309298" lon="11.8961695"><ele>272.0</ele><time>2026-04-12T10:33:36.113Z</time></trkpt><trkpt lat="43.5310546" lon="11.8963331"><ele>272.0</ele><time>2026-04-12T10:33:37.123Z</time></trkpt><trkpt lat="43.5311856" lon="11.8964781"><ele>272.0</ele><time>2026-04-12T10:33:38.119Z</time></trkpt><trkpt lat="43.5313208" lon="11.8966052"><ele>272.0</ele><time>2026-04-12T10:33:39.126Z</time></trkpt><trkpt lat="43.5314609" lon="11.8967319"><ele>271.0</ele><time>2026-04-12T10:33:40.118Z</time></trkpt><trkpt lat="43.5316081" lon="11.8968515"><ele>270.0</ele><time>2026-04-12T10:33:41.121Z</time></trkpt><trkpt lat="43.5317592" lon="11.8969634"><ele>269.0</ele><time>2026-04-12T10:33:42.112Z</time></trkpt><trkpt lat="43.531924" lon="11.8970631"><ele>269.33333333333337</ele><time>2026-04-12T10:33:43.113Z</time></trkpt><trkpt lat="43.532098" lon="11.8971441"><ele>269.6666666666667</ele><time>2026-04-12T10:33:44.114Z</time></trkpt><trkpt lat="43.532276" lon="11.8972138"><ele>270.0</ele><time>2026-04-12T10:33:45.116Z</time></trkpt><trkpt lat="43.532454" lon="11.8972827"><ele>270.0</ele><time>2026-04-12T10:33:46.113Z</time></trkpt><trkpt lat="43.5326317" lon="11.897349"><ele>270.0</ele><time>2026-04-12T10:33:47.122Z</time></trkpt><trkpt lat="43.5328064" lon="11.8974105"><ele>270.0</ele><time>2026-04-12T10:33:48.109Z</time></trkpt><trkpt lat="43.5329726" lon="11.8974633"><ele>270.25</ele><time>2026-04-12T10:33:49.117Z</time></trkpt><trkpt lat="43.5331275" lon="11.8975105"><ele>270.5</ele><time>2026-04-12T10:33:50.113Z</time></trkpt><trkpt lat="43.5332754" lon="11.8975509"><ele>270.75</ele><time>2026-04-12T10:33:51.126Z</time></trkpt><trkpt lat="43.5334081" lon="11.8975922"><ele>271.0</ele><time>2026-04-12T10:33:52.118Z</time></trkpt><trkpt lat="43.5335255" lon="11.8976286"><ele>271.0</ele><time>2026-04-12T10:33:53.116Z</time></trkpt><trkpt lat="43.5336053" lon="11.8976536"><ele>271.0</ele><time>2026-04-12T10:33:54.132Z</time></trkpt><trkpt lat="43.533716" lon="11.8976417"><ele>271.0</ele><time>2026-04-12T10:33:56.123Z</time></trkpt><trkpt lat="43.5337942" lon="11.8975109"><ele>271.0</ele><time>2026-04-12T10:33:58.106Z</time></trkpt><trkpt lat="43.5338331" lon="11.8974118"><ele>271.0</ele><time>2026-04-12T10:33:59.114Z</time></trkpt><trkpt lat="43.5338767" lon="11.8973"><ele>271.0</ele><time>2026-04-12T10:34:00.116Z</time></trkpt><trkpt lat="43.5339157" lon="11.8972003"><ele>271.0</ele><time>2026-04-12T10:34:01.118Z</time></trkpt><trkpt lat="43.5339504" lon="11.8971211"><ele>271.0</ele><time>2026-04-12T10:34:02.117Z</time></trkpt><trkpt lat="43.5339894" lon="11.8970181"><ele>271.0</ele><time>2026-04-12T10:34:04.119Z</time></trkpt><trkpt lat="43.5340063" lon="11.8968602"><ele>271.0</ele><time>2026-04-12T10:34:12.119Z</time></trkpt><trkpt lat="43.5339152" lon="11.8967548"><ele>271.0</ele><time>2026-04-12T10:34:14.106Z</time></trkpt><trkpt lat="43.5338781" lon="11.8966449"><ele>271.0</ele><time>2026-04-12T10:34:16.12Z</time></trkpt><trkpt lat="43.5339542" lon="11.8965225"><ele>271.0</ele><time>2026-04-12T10:34:18.115Z</time></trkpt><trkpt lat="43.5340128" lon="11.8964353"><ele>271.0</ele><time>2026-04-12T10:34:19.124Z</time></trkpt><trkpt lat="43.5340802" lon="11.896331"><ele>271.0</ele><time>2026-04-12T10:34:20.111Z</time></trkpt><trkpt lat="43.5341555" lon="11.8962138"><ele>271.0</ele><time>2026-04-12T10:34:21.12Z</time></trkpt><trkpt lat="43.5342333" lon="11.8961011"><ele>271.0</ele><time>2026-04-12T10:34:22.119Z</time></trkpt><trkpt lat="43.534309" lon="11.8959944"><ele>271.0</ele><time>2026-04-12T10:34:23.114Z</time></trkpt><trkpt lat="43.5343847" lon="11.8958887"><ele>271.0</ele><time>2026-04-12T10:34:24.119Z</time></trkpt><trkpt lat="43.5344602" lon="11.895784"><ele>271.0</ele><time>2026-04-12T10:34:25.137Z</time></trkpt><trkpt lat="43.5345379" lon="11.8956813"><ele>271.25</ele><time>2026-04-12T10:34:26.142Z</time></trkpt><trkpt lat="43.5346121" lon="11.8955735"><ele>271.5</ele><time>2026-04-12T10:34:27.117Z</time></trkpt><trkpt lat="43.5346824" lon="11.895458"><ele>271.75</ele><time>2026-04-12T10:34:28.124Z</time></trkpt><trkpt lat="43.5347569" lon="11.8953357"><ele>272.0</ele><time>2026-04-12T10:34:29.118Z</time></trkpt><trkpt lat="43.5348362" lon="11.8952053"><ele>273.0</ele><time>2026-04-12T10:34:30.134Z</time></trkpt><trkpt lat="43.534907" lon="11.8950855"><ele>274.0</ele><time>2026-04-12T10:34:31.113Z</time></trkpt><trkpt lat="43.5349637" lon="11.8949871"><ele>275.0</ele><time>2026-04-12T10:34:32.109Z</time></trkpt><trkpt lat="43.534997" lon="11.8949043"><ele>276.0</ele><time>2026-04-12T10:34:33.14Z</time></trkpt><trkpt lat="43.5349764" lon="11.8947663"><ele>277.0</ele><time>2026-04-12T10:34:35.121Z</time></trkpt><trkpt lat="43.5349282" lon="11.8947079"><ele>278.0</ele><time>2026-04-12T10:34:36.11Z</time></trkpt><trkpt lat="43.5348812" lon="11.8945976"><ele>278.0</ele><time>2026-04-12T10:34:38.112Z</time></trkpt><trkpt lat="43.5349041" lon="11.8945113"><ele>278.0</ele><time>2026-04-12T10:34:39.126Z</time></trkpt><trkpt lat="43.534948" lon="11.8944147"><ele>278.0</ele><time>2026-04-12T10:34:40.11Z</time></trkpt><trkpt lat="43.5349867" lon="11.8942873"><ele>278.0</ele><time>2026-04-12T10:34:41.115Z</time></trkpt><trkpt lat="43.535012" lon="11.8941686"><ele>278.0</ele><time>2026-04-12T10:34:42.134Z</time></trkpt><trkpt lat="43.5350259" lon="11.8940475"><ele>278.0</ele><time>2026-04-12T10:34:43.102Z</time></trkpt><trkpt lat="43.5350304" lon="11.893948"><ele>279.1666666666667</ele><time>2026-04-12T10:34:44.122Z</time></trkpt><trkpt lat="43.5350021" lon="11.8938551"><ele>280.33333333333337</ele><time>2026-04-12T10:34:45.104Z</time></trkpt><trkpt lat="43.5349853" lon="11.8937679"><ele>281.5</ele><time>2026-04-12T10:34:46.125Z</time></trkpt><trkpt lat="43.5350019" lon="11.8936748"><ele>282.6666666666667</ele><time>2026-04-12T10:34:47.124Z</time></trkpt><trkpt lat="43.5350509" lon="11.893579"><ele>283.8333333333333</ele><time>2026-04-12T10:34:48.121Z</time></trkpt><trkpt lat="43.5351114" lon="11.8935004"><ele>285.0</ele><time>2026-04-12T10:34:49.128Z</time></trkpt><trkpt lat="43.5351778" lon="11.8934507"><ele>285.0</ele><time>2026-04-12T10:34:50.113Z</time></trkpt><trkpt lat="43.5352418" lon="11.8934388"><ele>285.0</ele><time>2026-04-12T10:34:51.11Z</time></trkpt><trkpt lat="43.5353294" lon="11.893444"><ele>285.0</ele><time>2026-04-12T10:34:53.112Z</time></trkpt><trkpt lat="43.5354567" lon="11.8934451"><ele>285.0</ele><time>2026-04-12T10:34:55.119Z</time></trkpt><trkpt lat="43.5355283" lon="11.8934475"><ele>285.0</ele><time>2026-04-12T10:34:56.12Z</time></trkpt><trkpt lat="43.5356379" lon="11.8934116"><ele>287.6</ele><time>2026-04-12T10:34:58.124Z</time></trkpt><trkpt lat="43.5356299" lon="11.8932975"><ele>290.2</ele><time>2026-04-12T10:35:01.116Z</time></trkpt><trkpt lat="43.5355119" lon="11.8932895"><ele>292.8</ele><time>2026-04-12T10:35:03.11Z</time></trkpt><trkpt lat="43.5354498" lon="11.8932598"><ele>295.4</ele><time>2026-04-12T10:35:04.112Z</time></trkpt><trkpt lat="43.5353473" lon="11.8931767"><ele>298.0</ele><time>2026-04-12T10:35:06.115Z</time></trkpt><trkpt lat="43.5352796" lon="11.8930908"><ele>298.0</ele><time>2026-04-12T10:35:08.119Z</time></trkpt><trkpt lat="43.5353023" lon="11.8929831"><ele>298.0</ele><time>2026-04-12T10:35:10.115Z</time></trkpt><trkpt lat="43.5354012" lon="11.892894"><ele>298.0</ele><time>2026-04-12T10:35:12.129Z</time></trkpt><trkpt lat="43.535478" lon="11.8928595"><ele>298.0</ele><time>2026-04-12T10:35:13.113Z</time></trkpt><trkpt lat="43.5355572" lon="11.8928004"><ele>298.0</ele><time>2026-04-12T10:35:14.13Z</time></trkpt><trkpt lat="43.5356345" lon="11.8927288"><ele>298.16666666666663</ele><time>2026-04-12T10:35:15.124Z</time></trkpt><trkpt lat="43.5357177" lon="11.8926537"><ele>298.3333333333333</ele><time>2026-04-12T10:35:16.117Z</time></trkpt><trkpt lat="43.5358048" lon="11.8925885"><ele>298.5</ele><time>2026-04-12T10:35:17.129Z</time></trkpt><trkpt lat="43.5358922" lon="11.8925469"><ele>298.6666666666667</ele><time>2026-04-12T10:35:18.123Z</time></trkpt><trkpt lat="43.5359731" lon="11.892516"><ele>298.83333333333337</ele><time>2026-04-12T10:35:19.126Z</time></trkpt><trkpt lat="43.5360406" lon="11.8924743"><ele>299.0</ele><time>2026-04-12T10:35:20.111Z</time></trkpt><trkpt lat="43.5361049" lon="11.8923953"><ele>302.25</ele><time>2026-04-12T10:35:21.118Z</time></trkpt><trkpt lat="43.5361822" lon="11.8922902"><ele>305.5</ele><time>2026-04-12T10:35:22.129Z</time></trkpt><trkpt lat="43.5362728" lon="11.8921705"><ele>308.75</ele><time>2026-04-12T10:35:23.127Z</time></trkpt><trkpt lat="43.5363693" lon="11.8920478"><ele>312.0</ele><time>2026-04-12T10:35:24.111Z</time></trkpt><trkpt lat="43.5364709" lon="11.8919226"><ele>312.0</ele><time>2026-04-12T10:35:25.121Z</time></trkpt><trkpt lat="43.5365785" lon="11.8918124"><ele>312.0</ele><time>2026-04-12T10:35:26.124Z</time></trkpt><trkpt lat="43.5366781" lon="11.8917264"><ele>312.0</ele><time>2026-04-12T10:35:27.123Z</time></trkpt><trkpt lat="43.5367645" lon="11.8916399"><ele>312.0</ele><time>2026-04-12T10:35:28.116Z</time></trkpt><trkpt lat="43.5368461" lon="11.8915415"><ele>315.5</ele><time>2026-04-12T10:35:29.118Z</time></trkpt><trkpt lat="43.5369294" lon="11.891418"><ele>319.0</ele><time>2026-04-12T10:35:30.121Z</time></trkpt><trkpt lat="43.5370134" lon="11.8912865"><ele>322.5</ele><time>2026-04-12T10:35:31.123Z</time></trkpt><trkpt lat="43.537096" lon="11.8911667"><ele>326.0</ele><time>2026-04-12T10:35:32.121Z</time></trkpt><trkpt lat="43.5371955" lon="11.8911133"><ele>326.0</ele><time>2026-04-12T10:35:33.138Z</time></trkpt><trkpt lat="43.5372998" lon="11.8910636"><ele>326.0</ele><time>2026-04-12T10:35:34.105Z</time></trkpt><trkpt lat="43.5373984" lon="11.8910068"><ele>326.0</ele><time>2026-04-12T10:35:35.115Z</time></trkpt><trkpt lat="43.5374866" lon="11.8909409"><ele>326.0</ele><time>2026-04-12T10:35:36.128Z</time></trkpt><trkpt lat="43.5375812" lon="11.8908638"><ele>326.0</ele><time>2026-04-12T10:35:37.124Z</time></trkpt><trkpt lat="43.5376773" lon="11.8907716"><ele>328.0</ele><time>2026-04-12T10:35:38.137Z</time></trkpt><trkpt lat="43.5377766" lon="11.8906689"><ele>330.0</ele><time>2026-04-12T10:35:39.145Z</time></trkpt><trkpt lat="43.5378834" lon="11.8905641"><ele>332.0</ele><time>2026-04-12T10:35:40.116Z</time></trkpt><trkpt lat="43.5379968" lon="11.890453"><ele>334.0</ele><time>2026-04-12T10:35:41.136Z</time></trkpt><trkpt lat="43.5381147" lon="11.890329"><ele>334.0</ele><time>2026-04-12T10:35:42.132Z</time></trkpt><trkpt lat="43.5382305" lon="11.8902136"><ele>334.0</ele><time>2026-04-12T10:35:43.129Z</time></trkpt><trkpt lat="43.5383534" lon="11.8900956"><ele>334.0</ele><time>2026-04-12T10:35:44.107Z</time></trkpt><trkpt lat="43.538474" lon="11.8899748"><ele>334.0</ele><time>2026-04-12T10:35:45.116Z</time></trkpt><trkpt lat="43.5385967" lon="11.8898565"><ele>335.66666666666663</ele><time>2026-04-12T10:35:46.121Z</time></trkpt><trkpt lat="43.5387159" lon="11.8897392"><ele>337.3333333333333</ele><time>2026-04-12T10:35:47.12Z</time></trkpt><trkpt lat="43.5388402" lon="11.8896141"><ele>339.0</ele><time>2026-04-12T10:35:48.111Z</time></trkpt><trkpt lat="43.5389617" lon="11.8894906"><ele>339.0</ele><time>2026-04-12T10:35:49.114Z</time></trkpt><trkpt lat="43.5390794" lon="11.889366"><ele>339.0</ele><time>2026-04-12T10:35:50.117Z</time></trkpt><trkpt lat="43.5391829" lon="11.8892706"><ele>339.0</ele><time>2026-04-12T10:35:51.115Z</time></trkpt><trkpt lat="43.5392716" lon="11.8891913"><ele>339.0</ele><time>2026-04-12T10:35:52.119Z</time></trkpt><trkpt lat="43.539357" lon="11.8891521"><ele>340.75</ele><time>2026-04-12T10:35:53.118Z</time></trkpt><trkpt lat="43.5394607" lon="11.8891351"><ele>342.5</ele><time>2026-04-12T10:35:54.106Z</time></trkpt><trkpt lat="43.539576" lon="11.8891372"><ele>344.25</ele><time>2026-04-12T10:35:55.134Z</time></trkpt><trkpt lat="43.5397014" lon="11.8891365"><ele>346.0</ele><time>2026-04-12T10:35:56.111Z</time></trkpt><trkpt lat="43.5398382" lon="11.8891399"><ele>347.0</ele><time>2026-04-12T10:35:57.121Z</time></trkpt><trkpt lat="43.5399834" lon="11.8891445"><ele>348.0</ele><time>2026-04-12T10:35:58.126Z</time></trkpt><trkpt lat="43.5401283" lon="11.8891524"><ele>349.0</ele><time>2026-04-12T10:35:59.141Z</time></trkpt><trkpt lat="43.5402738" lon="11.8891579"><ele>350.0</ele><time>2026-04-12T10:36:00.131Z</time></trkpt><trkpt lat="43.5404137" lon="11.8891615"><ele>351.4</ele><time>2026-04-12T10:36:01.134Z</time></trkpt><trkpt lat="43.5405434" lon="11.8891673"><ele>352.8</ele><time>2026-04-12T10:36:02.118Z</time></trkpt><trkpt lat="43.5406504" lon="11.8891695"><ele>354.20000000000005</ele><time>2026-04-12T10:36:03.119Z</time></trkpt><trkpt lat="43.540739" lon="11.8891637"><ele>355.6</ele><time>2026-04-12T10:36:04.122Z</time></trkpt><trkpt lat="43.5408235" lon="11.8891543"><ele>357.0</ele><time>2026-04-12T10:36:05.131Z</time></trkpt><trkpt lat="43.5409176" lon="11.8891456"><ele>357.0</ele><time>2026-04-12T10:36:06.118Z</time></trkpt><trkpt lat="43.5410192" lon="11.8891353"><ele>357.0</ele><time>2026-04-12T10:36:07.11Z</time></trkpt><trkpt lat="43.5411269" lon="11.8891225"><ele>357.0</ele><time>2026-04-12T10:36:08.109Z</time></trkpt><trkpt lat="43.5412267" lon="11.8891153"><ele>357.0</ele><time>2026-04-12T10:36:09.112Z</time></trkpt><trkpt lat="43.5413164" lon="11.8891112"><ele>357.0</ele><time>2026-04-12T10:36:10.108Z</time></trkpt><trkpt lat="43.5414021" lon="11.8891153"><ele>358.6</ele><time>2026-04-12T10:36:11.134Z</time></trkpt><trkpt lat="43.5414906" lon="11.8891305"><ele>360.20000000000005</ele><time>2026-04-12T10:36:12.112Z</time></trkpt><trkpt lat="43.5415812" lon="11.8891596"><ele>361.8</ele><time>2026-04-12T10:36:13.114Z</time></trkpt><trkpt lat="43.5416766" lon="11.8891955"><ele>363.4</ele><time>2026-04-12T10:36:14.109Z</time></trkpt><trkpt lat="43.5417784" lon="11.8892288"><ele>365.0</ele><time>2026-04-12T10:36:15.116Z</time></trkpt><trkpt lat="43.5418884" lon="11.8892565"><ele>364.8</ele><time>2026-04-12T10:36:16.129Z</time></trkpt><trkpt lat="43.5419947" lon="11.88927"><ele>364.6</ele><time>2026-04-12T10:36:17.135Z</time></trkpt><trkpt lat="43.5420997" lon="11.8892661"><ele>364.4</ele><time>2026-04-12T10:36:18.114Z</time></trkpt><trkpt lat="43.5422023" lon="11.8892681"><ele>364.2</ele><time>2026-04-12T10:36:19.111Z</time></trkpt><trkpt lat="43.5423221" lon="11.8892322"><ele>364.0</ele><time>2026-04-12T10:36:20.115Z</time></trkpt><trkpt lat="43.5424245" lon="11.889218"><ele>364.0</ele><time>2026-04-12T10:36:21.115Z</time></trkpt><trkpt lat="43.5425408" lon="11.8892044"><ele>364.0</ele><time>2026-04-12T10:36:22.144Z</time></trkpt><trkpt lat="43.54266" lon="11.8892003"><ele>364.0</ele><time>2026-04-12T10:36:23.135Z</time></trkpt><trkpt lat="43.5427725" lon="11.8892172"><ele>364.0</ele><time>2026-04-12T10:36:24.136Z</time></trkpt><trkpt lat="43.5428732" lon="11.889247"><ele>363.79999999999995</ele><time>2026-04-12T10:36:25.136Z</time></trkpt><trkpt lat="43.5429623" lon="11.8892839"><ele>363.59999999999997</ele><time>2026-04-12T10:36:26.12Z</time></trkpt><trkpt lat="43.5430466" lon="11.8892943"><ele>363.4</ele><time>2026-04-12T10:36:27.143Z</time></trkpt><trkpt lat="43.5431263" lon="11.8892778"><ele>363.2</ele><time>2026-04-12T10:36:28.118Z</time></trkpt><trkpt lat="43.543212" lon="11.8892302"><ele>363.0</ele><time>2026-04-12T10:36:29.135Z</time></trkpt><trkpt lat="43.5433123" lon="11.8891655"><ele>363.0</ele><time>2026-04-12T10:36:30.132Z</time></trkpt><trkpt lat="43.5434179" lon="11.8890945"><ele>363.0</ele><time>2026-04-12T10:36:31.148Z</time></trkpt><trkpt lat="43.5435127" lon="11.8890257"><ele>363.0</ele><time>2026-04-12T10:36:32.123Z</time></trkpt><trkpt lat="43.5436099" lon="11.8889401"><ele>363.0</ele><time>2026-04-12T10:36:33.141Z</time></trkpt><trkpt lat="43.5437162" lon="11.8888269"><ele>364.0</ele><time>2026-04-12T10:36:34.132Z</time></trkpt><trkpt lat="43.5438378" lon="11.8886913"><ele>365.0</ele><time>2026-04-12T10:36:35.142Z</time></trkpt><trkpt lat="43.5439721" lon="11.888543"><ele>366.0</ele><time>2026-04-12T10:36:36.136Z</time></trkpt><trkpt lat="43.544111" lon="11.8883916"><ele>366.0</ele><time>2026-04-12T10:36:37.115Z</time></trkpt><trkpt lat="43.5442426" lon="11.8882524"><ele>366.0</ele><time>2026-04-12T10:36:38.151Z</time></trkpt><trkpt lat="43.5443636" lon="11.8881274"><ele>366.0</ele><time>2026-04-12T10:36:39.125Z</time></trkpt><trkpt lat="43.5444759" lon="11.888019"><ele>366.5</ele><time>2026-04-12T10:36:40.113Z</time></trkpt><trkpt lat="43.5445919" lon="11.8879244"><ele>367.0</ele><time>2026-04-12T10:36:41.118Z</time></trkpt><trkpt lat="43.5447201" lon="11.8878329"><ele>367.5</ele><time>2026-04-12T10:36:42.121Z</time></trkpt><trkpt lat="43.5448595" lon="11.8877385"><ele>368.0</ele><time>2026-04-12T10:36:43.15Z</time></trkpt><trkpt lat="43.5449882" lon="11.8876518"><ele>369.0</ele><time>2026-04-12T10:36:44.165Z</time></trkpt><trkpt lat="43.5451151" lon="11.887571"><ele>370.0</ele><time>2026-04-12T10:36:45.132Z</time></trkpt><trkpt lat="43.5452465" lon="11.8875039"><ele>371.0</ele><time>2026-04-12T10:36:46.124Z</time></trkpt><trkpt lat="43.5453965" lon="11.8874405"><ele>372.0</ele><time>2026-04-12T10:36:47.144Z</time></trkpt><trkpt lat="43.5455464" lon="11.8873824"><ele>373.25</ele><time>2026-04-12T10:36:48.131Z</time></trkpt><trkpt lat="43.5456864" lon="11.8873303"><ele>374.5</ele><time>2026-04-12T10:36:49.118Z</time></trkpt><trkpt lat="43.545803" lon="11.8872726"><ele>375.75</ele><time>2026-04-12T10:36:50.134Z</time></trkpt><trkpt lat="43.5459188" lon="11.8872114"><ele>377.0</ele><time>2026-04-12T10:36:51.129Z</time></trkpt><trkpt lat="43.5460315" lon="11.8871348"><ele>377.0</ele><time>2026-04-12T10:36:52.141Z</time></trkpt><trkpt lat="43.5461396" lon="11.8870772"><ele>377.0</ele><time>2026-04-12T10:36:53.119Z</time></trkpt><trkpt lat="43.5462646" lon="11.8870176"><ele>377.0</ele><time>2026-04-12T10:36:54.128Z</time></trkpt><trkpt lat="43.546395" lon="11.8869704"><ele>377.0</ele><time>2026-04-12T10:36:55.147Z</time></trkpt><trkpt lat="43.546524" lon="11.8869138"><ele>376.5</ele><time>2026-04-12T10:36:56.134Z</time></trkpt><trkpt lat="43.5466415" lon="11.8868593"><ele>376.0</ele><time>2026-04-12T10:36:57.132Z</time></trkpt><trkpt lat="43.5467659" lon="11.8867854"><ele>375.5</ele><time>2026-04-12T10:36:58.115Z</time></trkpt><trkpt lat="43.5468946" lon="11.8867002"><ele>375.0</ele><time>2026-04-12T10:36:59.138Z</time></trkpt><trkpt lat="43.5470085" lon="11.8866041"><ele>375.5</ele><time>2026-04-12T10:37:00.112Z</time></trkpt><trkpt lat="43.5471223" lon="11.8865175"><ele>376.0</ele><time>2026-04-12T10:37:01.121Z</time></trkpt><trkpt lat="43.547233" lon="11.88642"><ele>376.5</ele><time>2026-04-12T10:37:02.117Z</time></trkpt><trkpt lat="43.5473318" lon="11.8863346"><ele>377.0</ele><time>2026-04-12T10:37:03.125Z</time></trkpt><trkpt lat="43.547417" lon="11.8862601"><ele>377.0</ele><time>2026-04-12T10:37:04.134Z</time></trkpt><trkpt lat="43.5475046" lon="11.886185"><ele>377.0</ele><time>2026-04-12T10:37:05.141Z</time></trkpt><trkpt lat="43.5475967" lon="11.8861244"><ele>377.0</ele><time>2026-04-12T10:37:06.118Z</time></trkpt><trkpt lat="43.5477022" lon="11.8860577"><ele>377.0</ele><time>2026-04-12T10:37:07.124Z</time></trkpt><trkpt lat="43.5477939" lon="11.8859677"><ele>377.0</ele><time>2026-04-12T10:37:08.117Z</time></trkpt><trkpt lat="43.5479044" lon="11.8858342"><ele>380.25</ele><time>2026-04-12T10:37:09.121Z</time></trkpt><trkpt lat="43.5480111" lon="11.8857045"><ele>383.5</ele><time>2026-04-12T10:37:10.135Z</time></trkpt><trkpt lat="43.5481233" lon="11.8855745"><ele>386.75</ele><time>2026-04-12T10:37:11.109Z</time></trkpt><trkpt lat="43.5482294" lon="11.8854398"><ele>390.0</ele><time>2026-04-12T10:37:12.118Z</time></trkpt><trkpt lat="43.5483248" lon="11.8852886"><ele>390.0</ele><time>2026-04-12T10:37:13.121Z</time></trkpt><trkpt lat="43.5484144" lon="11.8851328"><ele>390.0</ele><time>2026-04-12T10:37:14.141Z</time></trkpt><trkpt lat="43.5485247" lon="11.8849565"><ele>390.0</ele><time>2026-04-12T10:37:15.123Z</time></trkpt><trkpt lat="43.5486352" lon="11.8848082"><ele>391.33333333333337</ele><time>2026-04-12T10:37:16.119Z</time></trkpt><trkpt lat="43.5487202" lon="11.8846579"><ele>392.6666666666667</ele><time>2026-04-12T10:37:17.114Z</time></trkpt><trkpt lat="43.5488249" lon="11.8845009"><ele>394.0</ele><time>2026-04-12T10:37:18.119Z</time></trkpt><trkpt lat="43.5489348" lon="11.8843404"><ele>396.0</ele><time>2026-04-12T10:37:19.12Z</time></trkpt><trkpt lat="43.5490325" lon="11.8841995"><ele>398.0</ele><time>2026-04-12T10:37:20.123Z</time></trkpt><trkpt lat="43.5491196" lon="11.8840429"><ele>400.0</ele><time>2026-04-12T10:37:21.136Z</time></trkpt><trkpt lat="43.5491946" lon="11.8838996"><ele>402.0</ele><time>2026-04-12T10:37:22.136Z</time></trkpt><trkpt lat="43.5492583" lon="11.8837569"><ele>402.0</ele><time>2026-04-12T10:37:23.124Z</time></trkpt><trkpt lat="43.5493166" lon="11.8835627"><ele>402.0</ele><time>2026-04-12T10:37:24.118Z</time></trkpt><trkpt lat="43.5493925" lon="11.8833957"><ele>402.0</ele><time>2026-04-12T10:37:25.137Z</time></trkpt><trkpt lat="43.5494532" lon="11.8832045"><ele>402.0</ele><time>2026-04-12T10:37:26.122Z</time></trkpt><trkpt lat="43.5495171" lon="11.8830497"><ele>402.25</ele><time>2026-04-12T10:37:27.118Z</time></trkpt><trkpt lat="43.5495767" lon="11.8828707"><ele>402.5</ele><time>2026-04-12T10:37:28.132Z</time></trkpt><trkpt lat="43.5496498" lon="11.8826737"><ele>402.75</ele><time>2026-04-12T10:37:29.125Z</time></trkpt><trkpt lat="43.5497142" lon="11.8825262"><ele>403.0</ele><time>2026-04-12T10:37:30.119Z</time></trkpt><trkpt lat="43.5497611" lon="11.8823854"><ele>405.5</ele><time>2026-04-12T10:37:31.112Z</time></trkpt><trkpt lat="43.5498285" lon="11.8822625"><ele>408.0</ele><time>2026-04-12T10:37:32.119Z</time></trkpt><trkpt lat="43.5499059" lon="11.8821421"><ele>410.5</ele><time>2026-04-12T10:37:33.119Z</time></trkpt><trkpt lat="43.5500072" lon="11.8820361"><ele>413.0</ele><time>2026-04-12T10:37:34.117Z</time></trkpt><trkpt lat="43.5500878" lon="11.8819453"><ele>413.0</ele><time>2026-04-12T10:37:35.106Z</time></trkpt><trkpt lat="43.5501695" lon="11.8818685"><ele>413.0</ele><time>2026-04-12T10:37:36.12Z</time></trkpt><trkpt lat="43.5502134" lon="11.8817817"><ele>413.0</ele><time>2026-04-12T10:37:37.123Z</time></trkpt><trkpt lat="43.5501843" lon="11.8816324"><ele>413.0</ele><time>2026-04-12T10:37:39.115Z</time></trkpt><trkpt lat="43.5501138" lon="11.8815461"><ele>413.0</ele><time>2026-04-12T10:37:40.119Z</time></trkpt><trkpt lat="43.5500358" lon="11.8814576"><ele>414.2</ele><time>2026-04-12T10:37:41.137Z</time></trkpt><trkpt lat="43.549967" lon="11.881366"><ele>415.4</ele><time>2026-04-12T10:37:42.126Z</time></trkpt><trkpt lat="43.5499084" lon="11.881253"><ele>416.59999999999997</ele><time>2026-04-12T10:37:43.126Z</time></trkpt><trkpt lat="43.5498578" lon="11.8811105"><ele>417.79999999999995</ele><time>2026-04-12T10:37:44.127Z</time></trkpt><trkpt lat="43.5498074" lon="11.8809377"><ele>419.0</ele><time>2026-04-12T10:37:45.138Z</time></trkpt><trkpt lat="43.5497531" lon="11.8807627"><ele>420.5</ele><time>2026-04-12T10:37:46.122Z</time></trkpt><trkpt lat="43.5497" lon="11.8805944"><ele>422.0</ele><time>2026-04-12T10:37:47.119Z</time></trkpt><trkpt lat="43.5496509" lon="11.8804463"><ele>423.5</ele><time>2026-04-12T10:37:48.124Z</time></trkpt><trkpt lat="43.5496009" lon="11.880311"><ele>425.0</ele><time>2026-04-12T10:37:49.123Z</time></trkpt><trkpt lat="43.549558" lon="11.8801763"><ele>420.0</ele><time>2026-04-12T10:37:50.118Z</time></trkpt><trkpt lat="43.5495215" lon="11.8800236"><ele>415.0</ele><time>2026-04-12T10:37:51.109Z</time></trkpt><trkpt lat="43.5494909" lon="11.8798706"><ele>410.0</ele><time>2026-04-12T10:37:52.105Z</time></trkpt><trkpt lat="43.5494634" lon="11.8797145"><ele>405.0</ele><time>2026-04-12T10:37:53.109Z</time></trkpt><trkpt lat="43.5494368" lon="11.8795729"><ele>405.0</ele><time>2026-04-12T10:37:54.114Z</time></trkpt><trkpt lat="43.5494061" lon="11.879426"><ele>405.0</ele><time>2026-04-12T10:37:55.107Z</time></trkpt><trkpt lat="43.5493835" lon="11.8792896"><ele>405.0</ele><time>2026-04-12T10:37:56.116Z</time></trkpt><trkpt lat="43.549368" lon="11.879178"><ele>405.0</ele><time>2026-04-12T10:37:57.139Z</time></trkpt><trkpt lat="43.5493518" lon="11.8790841"><ele>405.0</ele><time>2026-04-12T10:37:58.111Z</time></trkpt><trkpt lat="43.5493274" lon="11.8789426"><ele>405.8</ele><time>2026-04-12T10:38:00.109Z</time></trkpt><trkpt lat="43.5493546" lon="11.8788017"><ele>406.6</ele><time>2026-04-12T10:38:02.133Z</time></trkpt><trkpt lat="43.5494206" lon="11.8786615"><ele>407.4</ele><time>2026-04-12T10:38:04.134Z</time></trkpt><trkpt lat="43.549487" lon="11.8785913"><ele>408.2</ele><time>2026-04-12T10:38:05.124Z</time></trkpt><trkpt lat="43.549574" lon="11.8785154"><ele>409.0</ele><time>2026-04-12T10:38:07.127Z</time></trkpt><trkpt lat="43.5496731" lon="11.878461"><ele>411.2</ele><time>2026-04-12T10:38:09.112Z</time></trkpt><trkpt lat="43.549761" lon="11.8784235"><ele>413.4</ele><time>2026-04-12T10:38:10.129Z</time></trkpt><trkpt lat="43.5498395" lon="11.8783782"><ele>415.6</ele><time>2026-04-12T10:38:11.105Z</time></trkpt><trkpt lat="43.5499404" lon="11.8783318"><ele>417.8</ele><time>2026-04-12T10:38:13.117Z</time></trkpt><trkpt lat="43.5500608" lon="11.8783182"><ele>420.0</ele><time>2026-04-12T10:38:15.114Z</time></trkpt><trkpt lat="43.550183" lon="11.8783455"><ele>420.0</ele><time>2026-04-12T10:38:17.115Z</time></trkpt><trkpt lat="43.5503034" lon="11.8783798"><ele>420.0</ele><time>2026-04-12T10:38:19.119Z</time></trkpt><trkpt lat="43.5503674" lon="11.8783708"><ele>420.0</ele><time>2026-04-12T10:38:20.106Z</time></trkpt><trkpt lat="43.5504357" lon="11.8783565"><ele>420.0</ele><time>2026-04-12T10:38:21.112Z</time></trkpt><trkpt lat="43.5505073" lon="11.8783486"><ele>420.0</ele><time>2026-04-12T10:38:22.133Z</time></trkpt><trkpt lat="43.5506244" lon="11.8784164"><ele>425.3333333333333</ele><time>2026-04-12T10:38:24.124Z</time></trkpt><trkpt lat="43.5506972" lon="11.8784475"><ele>430.66666666666663</ele><time>2026-04-12T10:38:25.106Z</time></trkpt><trkpt lat="43.5507772" lon="11.8784807"><ele>436.0</ele><time>2026-04-12T10:38:26.124Z</time></trkpt><trkpt lat="43.5508514" lon="11.8785098"><ele>441.3333333333333</ele><time>2026-04-12T10:38:27.113Z</time></trkpt><trkpt lat="43.550937" lon="11.8785419"><ele>446.66666666666663</ele><time>2026-04-12T10:38:28.137Z</time></trkpt><trkpt lat="43.5510197" lon="11.8785786"><ele>452.0</ele><time>2026-04-12T10:38:29.134Z</time></trkpt><trkpt lat="43.5511027" lon="11.8786413"><ele>452.8</ele><time>2026-04-12T10:38:31.118Z</time></trkpt><trkpt lat="43.5512284" lon="11.8786845"><ele>453.6</ele><time>2026-04-12T10:38:33.127Z</time></trkpt><trkpt lat="43.5513172" lon="11.8787503"><ele>454.40000000000003</ele><time>2026-04-12T10:38:34.124Z</time></trkpt><trkpt lat="43.5514011" lon="11.8788162"><ele>455.20000000000005</ele><time>2026-04-12T10:38:35.142Z</time></trkpt><trkpt lat="43.5514786" lon="11.8788792"><ele>456.0</ele><time>2026-04-12T10:38:36.136Z</time></trkpt><trkpt lat="43.5515428" lon="11.8789331"><ele>456.0</ele><time>2026-04-12T10:38:37.11Z</time></trkpt><trkpt lat="43.5516105" lon="11.8789804"><ele>455.99999999999994</ele><time>2026-04-12T10:38:38.136Z</time></trkpt><trkpt lat="43.5516785" lon="11.8789751"><ele>456.0</ele><time>2026-04-12T10:38:39.12Z</time></trkpt><trkpt lat="43.5517611" lon="11.8789629"><ele>456.0</ele><time>2026-04-12T10:38:40.127Z</time></trkpt><trkpt lat="43.5518286" lon="11.8789665"><ele>455.99999999999994</ele><time>2026-04-12T10:38:41.128Z</time></trkpt><trkpt lat="43.5518923" lon="11.8789985"><ele>456.0</ele><time>2026-04-12T10:38:42.136Z</time></trkpt><trkpt lat="43.5519438" lon="11.8790516"><ele>456.0</ele><time>2026-04-12T10:38:43.108Z</time></trkpt><trkpt lat="43.5520396" lon="11.8791143"><ele>455.6</ele><time>2026-04-12T10:38:45.131Z</time></trkpt><trkpt lat="43.5521519" lon="11.8791168"><ele>455.20000000000005</ele><time>2026-04-12T10:38:47.125Z</time></trkpt><trkpt lat="43.5522772" lon="11.8790508"><ele>454.79999999999995</ele><time>2026-04-12T10:38:49.112Z</time></trkpt><trkpt lat="43.552348" lon="11.8789856"><ele>454.4</ele><time>2026-04-12T10:38:50.124Z</time></trkpt><trkpt lat="43.5524196" lon="11.87892"><ele>454.0</ele><time>2026-04-12T10:38:51.117Z</time></trkpt><trkpt lat="43.5525047" lon="11.8788548"><ele>454.0</ele><time>2026-04-12T10:38:52.121Z</time></trkpt><trkpt lat="43.5525805" lon="11.8787988"><ele>454.0</ele><time>2026-04-12T10:38:53.119Z</time></trkpt><trkpt lat="43.5526574" lon="11.8787558"><ele>454.0</ele><time>2026-04-12T10:38:54.121Z</time></trkpt><trkpt lat="43.5527311" lon="11.8787174"><ele>454.0</ele><time>2026-04-12T10:38:55.124Z</time></trkpt><trkpt lat="43.5528734" lon="11.8786392"><ele>454.0</ele><time>2026-04-12T10:38:57.122Z</time></trkpt><trkpt lat="43.5529658" lon="11.878558"><ele>454.6666666666667</ele><time>2026-04-12T10:38:58.107Z</time></trkpt><trkpt lat="43.5530425" lon="11.8784808"><ele>455.33333333333337</ele><time>2026-04-12T10:38:59.117Z</time></trkpt><trkpt lat="43.553109" lon="11.8784034"><ele>456.0</ele><time>2026-04-12T10:39:00.119Z</time></trkpt><trkpt lat="43.5531693" lon="11.878338"><ele>456.66666666666663</ele><time>2026-04-12T10:39:01.121Z</time></trkpt><trkpt lat="43.5532316" lon="11.8782871"><ele>457.3333333333333</ele><time>2026-04-12T10:39:02.121Z</time></trkpt><trkpt lat="43.5532967" lon="11.8782408"><ele>458.0</ele><time>2026-04-12T10:39:03.125Z</time></trkpt><trkpt lat="43.5534241" lon="11.8781564"><ele>459.2</ele><time>2026-04-12T10:39:05.104Z</time></trkpt><trkpt lat="43.55351" lon="11.8780898"><ele>460.4</ele><time>2026-04-12T10:39:06.119Z</time></trkpt><trkpt lat="43.5536018" lon="11.8780231"><ele>461.59999999999997</ele><time>2026-04-12T10:39:07.119Z</time></trkpt><trkpt lat="43.5536858" lon="11.8779721"><ele>462.79999999999995</ele><time>2026-04-12T10:39:08.11Z</time></trkpt><trkpt lat="43.5537601" lon="11.8779109"><ele>464.0</ele><time>2026-04-12T10:39:09.128Z</time></trkpt><trkpt lat="43.5538371" lon="11.8778591"><ele>464.7142857142858</ele><time>2026-04-12T10:39:10.115Z</time></trkpt><trkpt lat="43.5539151" lon="11.8777976"><ele>465.42857142857144</ele><time>2026-04-12T10:39:11.113Z</time></trkpt><trkpt lat="43.5539881" lon="11.8777557"><ele>466.14285714285717</ele><time>2026-04-12T10:39:12.113Z</time></trkpt><trkpt lat="43.5540475" lon="11.8777263"><ele>466.8571428571429</ele><time>2026-04-12T10:39:13.123Z</time></trkpt><trkpt lat="43.554104" lon="11.8776844"><ele>467.57142857142856</ele><time>2026-04-12T10:39:14.118Z</time></trkpt><trkpt lat="43.5541562" lon="11.8776354"><ele>468.2857142857143</ele><time>2026-04-12T10:39:15.128Z</time></trkpt><trkpt lat="43.5542238" lon="11.8775613"><ele>469.0</ele><time>2026-04-12T10:39:16.113Z</time></trkpt><trkpt lat="43.5542852" lon="11.8774846"><ele>469.83333333333337</ele><time>2026-04-12T10:39:17.126Z</time></trkpt><trkpt lat="43.5543416" lon="11.8774353"><ele>470.6666666666667</ele><time>2026-04-12T10:39:18.139Z</time></trkpt><trkpt lat="43.5544863" lon="11.8773825"><ele>471.5</ele><time>2026-04-12T10:39:20.111Z</time></trkpt><trkpt lat="43.5545549" lon="11.8773577"><ele>472.33333333333337</ele><time>2026-04-12T10:39:21.12Z</time></trkpt><trkpt lat="43.5546239" lon="11.8773272"><ele>473.1666666666667</ele><time>2026-04-12T10:39:22.113Z</time></trkpt><trkpt lat="43.5546897" lon="11.8773152"><ele>474.0</ele><time>2026-04-12T10:39:23.138Z</time></trkpt><trkpt lat="43.5547924" lon="11.8772303"><ele>475.8333333333333</ele><time>2026-04-12T10:39:25.13Z</time></trkpt><trkpt lat="43.5548986" lon="11.8772044"><ele>477.66666666666663</ele><time>2026-04-12T10:39:27.125Z</time></trkpt><trkpt lat="43.5549625" lon="11.8771993"><ele>479.5</ele><time>2026-04-12T10:39:28.134Z</time></trkpt><trkpt lat="43.5550329" lon="11.8771614"><ele>481.3333333333333</ele><time>2026-04-12T10:39:30.135Z</time></trkpt><trkpt lat="43.5550601" lon="11.87708"><ele>483.16666666666663</ele><time>2026-04-12T10:39:32.126Z</time></trkpt><trkpt lat="43.5551111" lon="11.8769342"><ele>485.0</ele><time>2026-04-12T10:39:34.136Z</time></trkpt><trkpt lat="43.5551742" lon="11.8768139"><ele>483.6</ele><time>2026-04-12T10:39:36.128Z</time></trkpt><trkpt lat="43.5552546" lon="11.8767249"><ele>482.2</ele><time>2026-04-12T10:39:38.139Z</time></trkpt><trkpt lat="43.555347" lon="11.8766368"><ele>480.79999999999995</ele><time>2026-04-12T10:39:40.126Z</time></trkpt><trkpt lat="43.5554029" lon="11.8765723"><ele>479.4</ele><time>2026-04-12T10:39:41.132Z</time></trkpt><trkpt lat="43.5554561" lon="11.8765213"><ele>478.0</ele><time>2026-04-12T10:39:42.13Z</time></trkpt><trkpt lat="43.5555437" lon="11.8764347"><ele>480.2</ele><time>2026-04-12T10:39:44.114Z</time></trkpt><trkpt lat="43.5556201" lon="11.8763915"><ele>482.4</ele><time>2026-04-12T10:39:46.12Z</time></trkpt><trkpt lat="43.5556788" lon="11.8763135"><ele>484.59999999999997</ele><time>2026-04-12T10:39:48.125Z</time></trkpt><trkpt lat="43.5557141" lon="11.8761763"><ele>486.79999999999995</ele><time>2026-04-12T10:39:50.123Z</time></trkpt><trkpt lat="43.5557023" lon="11.8760526"><ele>489.0</ele><time>2026-04-12T10:39:52.121Z</time></trkpt><trkpt lat="43.55573" lon="11.8759265"><ele>489.0</ele><time>2026-04-12T10:39:54.127Z</time></trkpt><trkpt lat="43.5557655" lon="11.8758487"><ele>489.00000000000006</ele><time>2026-04-12T10:39:55.126Z</time></trkpt><trkpt lat="43.5558074" lon="11.8757627"><ele>489.0</ele><time>2026-04-12T10:39:56.137Z</time></trkpt><trkpt lat="43.5558432" lon="11.87568"><ele>489.0</ele><time>2026-04-12T10:39:57.105Z</time></trkpt><trkpt lat="43.5558757" lon="11.8755854"><ele>489.00000000000006</ele><time>2026-04-12T10:39:58.107Z</time></trkpt><trkpt lat="43.555891" lon="11.8754915"><ele>489.0</ele><time>2026-04-12T10:39:59.123Z</time></trkpt><trkpt lat="43.555891" lon="11.8753906"><ele>489.0</ele><time>2026-04-12T10:40:00.113Z</time></trkpt><trkpt lat="43.5558916" lon="11.8752701"><ele>489.0</ele><time>2026-04-12T10:40:01.119Z</time></trkpt><trkpt lat="43.5558993" lon="11.8751532"><ele>489.0</ele><time>2026-04-12T10:40:02.121Z</time></trkpt><trkpt lat="43.5559141" lon="11.8750551"><ele>489.0</ele><time>2026-04-12T10:40:03.118Z</time></trkpt><trkpt lat="43.5559701" lon="11.8749276"><ele>489.0</ele><time>2026-04-12T10:40:05.111Z</time></trkpt><trkpt lat="43.5560335" lon="11.8748849"><ele>489.0</ele><time>2026-04-12T10:40:06.126Z</time></trkpt><trkpt lat="43.5560991" lon="11.8748496"><ele>489.0</ele><time>2026-04-12T10:40:07.116Z</time></trkpt><trkpt lat="43.5561628" lon="11.874817"><ele>489.8333333333333</ele><time>2026-04-12T10:40:08.117Z</time></trkpt><trkpt lat="43.5562636" lon="11.8747908"><ele>490.66666666666663</ele><time>2026-04-12T10:40:10.145Z</time></trkpt><trkpt lat="43.5563361" lon="11.8748289"><ele>491.5</ele><time>2026-04-12T10:40:12.117Z</time></trkpt><trkpt lat="43.5563965" lon="11.8749376"><ele>492.3333333333333</ele><time>2026-04-12T10:40:14.118Z</time></trkpt><trkpt lat="43.5564209" lon="11.8750257"><ele>493.16666666666663</ele><time>2026-04-12T10:40:15.121Z</time></trkpt><trkpt lat="43.556444" lon="11.8751251"><ele>494.0</ele><time>2026-04-12T10:40:16.112Z</time></trkpt><trkpt lat="43.5564442" lon="11.8752606"><ele>493.99999999999994</ele><time>2026-04-12T10:40:17.119Z</time></trkpt><trkpt lat="43.5564365" lon="11.8753834"><ele>494.0</ele><time>2026-04-12T10:40:18.129Z</time></trkpt><trkpt lat="43.5564265" lon="11.8754983"><ele>494.0</ele><time>2026-04-12T10:40:19.105Z</time></trkpt><trkpt lat="43.5564165" lon="11.8756076"><ele>494.0</ele><time>2026-04-12T10:40:20.117Z</time></trkpt><trkpt lat="43.5564086" lon="11.8757158"><ele>493.99999999999994</ele><time>2026-04-12T10:40:21.125Z</time></trkpt><trkpt lat="43.5564025" lon="11.875825"><ele>494.0</ele><time>2026-04-12T10:40:22.118Z</time></trkpt><trkpt lat="43.5564173" lon="11.8759463"><ele>496.0</ele><time>2026-04-12T10:40:23.118Z</time></trkpt><trkpt lat="43.556445" lon="11.8760888"><ele>498.0</ele><time>2026-04-12T10:40:24.14Z</time></trkpt><trkpt lat="43.5564744" lon="11.8762293"><ele>500.0</ele><time>2026-04-12T10:40:25.129Z</time></trkpt><trkpt lat="43.5564879" lon="11.8763687"><ele>502.0</ele><time>2026-04-12T10:40:26.117Z</time></trkpt><trkpt lat="43.5565124" lon="11.8764934"><ele>504.0</ele><time>2026-04-12T10:40:27.112Z</time></trkpt><trkpt lat="43.5565544" lon="11.8766252"><ele>504.0</ele><time>2026-04-12T10:40:28.138Z</time></trkpt><trkpt lat="43.5565862" lon="11.8767404"><ele>504.0</ele><time>2026-04-12T10:40:29.136Z</time></trkpt><trkpt lat="43.55661" lon="11.8768689"><ele>504.0</ele><time>2026-04-12T10:40:30.111Z</time></trkpt><trkpt lat="43.5566255" lon="11.877"><ele>504.0</ele><time>2026-04-12T10:40:31.135Z</time></trkpt><trkpt lat="43.5566499" lon="11.87711"><ele>504.0</ele><time>2026-04-12T10:40:32.125Z</time></trkpt><trkpt lat="43.5566919" lon="11.8772084"><ele>504.0</ele><time>2026-04-12T10:40:33.118Z</time></trkpt><trkpt lat="43.5567554" lon="11.8772903"><ele>503.0</ele><time>2026-04-12T10:40:34.13Z</time></trkpt><trkpt lat="43.5568504" lon="11.8773857"><ele>502.0</ele><time>2026-04-12T10:40:35.12Z</time></trkpt><trkpt lat="43.5569624" lon="11.8775039"><ele>501.0</ele><time>2026-04-12T10:40:36.114Z</time></trkpt><trkpt lat="43.5570715" lon="11.8776232"><ele>500.0</ele><time>2026-04-12T10:40:37.119Z</time></trkpt><trkpt lat="43.5571739" lon="11.8777354"><ele>500.0</ele><time>2026-04-12T10:40:38.105Z</time></trkpt><trkpt lat="43.5572744" lon="11.8778354"><ele>500.0</ele><time>2026-04-12T10:40:39.125Z</time></trkpt><trkpt lat="43.5573725" lon="11.8779274"><ele>500.0</ele><time>2026-04-12T10:40:40.125Z</time></trkpt><trkpt lat="43.5574851" lon="11.8780157"><ele>500.0</ele><time>2026-04-12T10:40:41.117Z</time></trkpt><trkpt lat="43.5576061" lon="11.8780709"><ele>500.0</ele><time>2026-04-12T10:40:42.123Z</time></trkpt><trkpt lat="43.557723" lon="11.8781125"><ele>500.0</ele><time>2026-04-12T10:40:43.112Z</time></trkpt><trkpt lat="43.557836" lon="11.8781354"><ele>500.0</ele><time>2026-04-12T10:40:44.127Z</time></trkpt><trkpt lat="43.5579412" lon="11.8781649"><ele>500.0</ele><time>2026-04-12T10:40:45.111Z</time></trkpt><trkpt lat="43.5580525" lon="11.8782056"><ele>499.6</ele><time>2026-04-12T10:40:46.118Z</time></trkpt><trkpt lat="43.5581633" lon="11.8782427"><ele>499.2</ele><time>2026-04-12T10:40:47.123Z</time></trkpt><trkpt lat="43.5582654" lon="11.8782872"><ele>498.79999999999995</ele><time>2026-04-12T10:40:48.147Z</time></trkpt><trkpt lat="43.5583676" lon="11.8783344"><ele>498.4</ele><time>2026-04-12T10:40:49.144Z</time></trkpt><trkpt lat="43.5584734" lon="11.8784033"><ele>498.0</ele><time>2026-04-12T10:40:50.117Z</time></trkpt><trkpt lat="43.5585728" lon="11.8784701"><ele>497.4</ele><time>2026-04-12T10:40:51.117Z</time></trkpt><trkpt lat="43.558662" lon="11.8785244"><ele>496.79999999999995</ele><time>2026-04-12T10:40:52.136Z</time></trkpt><trkpt lat="43.5587409" lon="11.878582"><ele>496.2</ele><time>2026-04-12T10:40:53.129Z</time></trkpt><trkpt lat="43.5588099" lon="11.8786548"><ele>495.6</ele><time>2026-04-12T10:40:54.122Z</time></trkpt><trkpt lat="43.5588782" lon="11.8787618"><ele>495.0</ele><time>2026-04-12T10:40:55.142Z</time></trkpt><trkpt lat="43.558943" lon="11.8788795"><ele>495.0</ele><time>2026-04-12T10:40:56.123Z</time></trkpt><trkpt lat="43.5589998" lon="11.878991"><ele>495.0</ele><time>2026-04-12T10:40:57.125Z</time></trkpt><trkpt lat="43.5590476" lon="11.8790891"><ele>495.0</ele><time>2026-04-12T10:40:58.125Z</time></trkpt><trkpt lat="43.5591149" lon="11.8792036"><ele>495.0</ele><time>2026-04-12T10:41:00.127Z</time></trkpt><trkpt lat="43.5592148" lon="11.8792002"><ele>495.0</ele><time>2026-04-12T10:41:46.132Z</time></trkpt><trkpt lat="43.5593072" lon="11.8791686"><ele>495.0</ele><time>2026-04-12T10:41:49.133Z</time></trkpt><trkpt lat="43.5593717" lon="11.8791426"><ele>495.0</ele><time>2026-04-12T10:41:51.136Z</time></trkpt><trkpt lat="43.5594057" lon="11.8790647"><ele>495.0</ele><time>2026-04-12T10:41:53.132Z</time></trkpt><trkpt lat="43.5593953" lon="11.8789661"><ele>495.0</ele><time>2026-04-12T10:41:55.136Z</time></trkpt><trkpt lat="43.5593544" lon="11.8788728"><ele>495.0</ele><time>2026-04-12T10:41:58.123Z</time></trkpt></trkseg></trk></gpx>